<?xml version="1.0" encoding="UTF-8" standalone="no" ?>
<gpx xmlns="http://www.topografix.com/GPX/1/1" xmlns:xsi="http://www.w3.org/2001/XMLSchema-instance" xsi:schemaLocation="http://www.topografix.com/GPX/1/1 http://www.topografix.com/GPX/1/1/gpx.xsd" version="1.1" creator="VisuGPX - https://www.visugpx.com">
  <metadata>
    <name>Saint-Etienne du Rouvray - Orival - La Mare Asse</name>
  </metadata>
  <trk>
    <name><![CDATA[Reconnaissance la mare Asse avec Alain et Bruno]]></name>
    <trkseg>
      <trkpt lat="49.3913" lon="1.03806">
        <ele>41.8</ele>
        <time>2019-11-11T07:14:49Z</time>
      </trkpt>
      <trkpt lat="49.3913" lon="1.03806">
        <ele>41.8</ele>
        <time>2019-11-11T07:14:50Z</time>
      </trkpt>
      <trkpt lat="49.3913" lon="1.03806">
        <ele>41.8</ele>
        <time>2019-11-11T07:14:51Z</time>
      </trkpt>
      <trkpt lat="49.3913" lon="1.03806">
        <ele>41.8</ele>
        <time>2019-11-11T07:14:52Z</time>
      </trkpt>
      <trkpt lat="49.3913" lon="1.03806">
        <ele>42.7</ele>
        <time>2019-11-11T07:14:53Z</time>
      </trkpt>
      <trkpt lat="49.3913" lon="1.03806">
        <ele>42.7</ele>
        <time>2019-11-11T07:14:54Z</time>
      </trkpt>
      <trkpt lat="49.3913" lon="1.03806">
        <ele>42.7</ele>
        <time>2019-11-11T07:14:55Z</time>
      </trkpt>
      <trkpt lat="49.3913" lon="1.03806">
        <ele>42.7</ele>
        <time>2019-11-11T07:14:56Z</time>
      </trkpt>
      <trkpt lat="49.3913" lon="1.03806">
        <ele>41.8</ele>
        <time>2019-11-11T07:14:57Z</time>
      </trkpt>
      <trkpt lat="49.3913" lon="1.03806">
        <ele>41.8</ele>
        <time>2019-11-11T07:14:58Z</time>
      </trkpt>
      <trkpt lat="49.3913" lon="1.03806">
        <ele>41.8</ele>
        <time>2019-11-11T07:14:59Z</time>
      </trkpt>
      <trkpt lat="49.3913" lon="1.03806">
        <ele>41.8</ele>
        <time>2019-11-11T07:15:00Z</time>
      </trkpt>
      <trkpt lat="49.3913" lon="1.03806">
        <ele>41.8</ele>
        <time>2019-11-11T07:15:01Z</time>
      </trkpt>
      <trkpt lat="49.3913" lon="1.03806">
        <ele>41.8</ele>
        <time>2019-11-11T07:15:02Z</time>
      </trkpt>
      <trkpt lat="49.3913" lon="1.03806">
        <ele>41.8</ele>
        <time>2019-11-11T07:15:03Z</time>
      </trkpt>
      <trkpt lat="49.3913" lon="1.03806">
        <ele>41.8</ele>
        <time>2019-11-11T07:15:04Z</time>
      </trkpt>
      <trkpt lat="49.3913" lon="1.03806">
        <ele>41.8</ele>
        <time>2019-11-11T07:15:05Z</time>
      </trkpt>
      <trkpt lat="49.3913" lon="1.03806">
        <ele>41.8</ele>
        <time>2019-11-11T07:15:06Z</time>
      </trkpt>
      <trkpt lat="49.3913" lon="1.03806">
        <ele>41.8</ele>
        <time>2019-11-11T07:15:07Z</time>
      </trkpt>
      <trkpt lat="49.3913" lon="1.03806">
        <ele>41.8</ele>
        <time>2019-11-11T07:15:08Z</time>
      </trkpt>
      <trkpt lat="49.3913" lon="1.03806">
        <ele>41.8</ele>
        <time>2019-11-11T07:15:09Z</time>
      </trkpt>
      <trkpt lat="49.3913" lon="1.03806">
        <ele>41.8</ele>
        <time>2019-11-11T07:15:10Z</time>
      </trkpt>
      <trkpt lat="49.3913" lon="1.03806">
        <ele>41.8</ele>
        <time>2019-11-11T07:15:11Z</time>
      </trkpt>
      <trkpt lat="49.3913" lon="1.03806">
        <ele>41.8</ele>
        <time>2019-11-11T07:15:12Z</time>
      </trkpt>
      <trkpt lat="49.3913" lon="1.03806">
        <ele>41.8</ele>
        <time>2019-11-11T07:15:13Z</time>
      </trkpt>
      <trkpt lat="49.3913" lon="1.03806">
        <ele>41.8</ele>
        <time>2019-11-11T07:15:14Z</time>
      </trkpt>
      <trkpt lat="49.3913" lon="1.03806">
        <ele>41.8</ele>
        <time>2019-11-11T07:15:15Z</time>
      </trkpt>
      <trkpt lat="49.3913" lon="1.03806">
        <ele>41.8</ele>
        <time>2019-11-11T07:15:16Z</time>
      </trkpt>
      <trkpt lat="49.3913" lon="1.03806">
        <ele>41.8</ele>
        <time>2019-11-11T07:15:17Z</time>
      </trkpt>
      <trkpt lat="49.3913" lon="1.03806">
        <ele>41.8</ele>
        <time>2019-11-11T07:15:18Z</time>
      </trkpt>
      <trkpt lat="49.3913" lon="1.03806">
        <ele>41.8</ele>
        <time>2019-11-11T07:15:19Z</time>
      </trkpt>
      <trkpt lat="49.3913" lon="1.03806">
        <ele>41.8</ele>
        <time>2019-11-11T07:15:20Z</time>
      </trkpt>
      <trkpt lat="49.3913" lon="1.03806">
        <ele>41.8</ele>
        <time>2019-11-11T07:15:21Z</time>
      </trkpt>
      <trkpt lat="49.3913" lon="1.03806">
        <ele>41.8</ele>
        <time>2019-11-11T07:15:22Z</time>
      </trkpt>
      <trkpt lat="49.3913" lon="1.03806">
        <ele>41.8</ele>
        <time>2019-11-11T07:15:23Z</time>
      </trkpt>
      <trkpt lat="49.3913" lon="1.03806">
        <ele>41.8</ele>
        <time>2019-11-11T07:15:24Z</time>
      </trkpt>
      <trkpt lat="49.3913" lon="1.03806">
        <ele>41.8</ele>
        <time>2019-11-11T07:15:25Z</time>
      </trkpt>
      <trkpt lat="49.3913" lon="1.03806">
        <ele>41.8</ele>
        <time>2019-11-11T07:15:26Z</time>
      </trkpt>
      <trkpt lat="49.3913" lon="1.03806">
        <ele>41.8</ele>
        <time>2019-11-11T07:15:27Z</time>
      </trkpt>
      <trkpt lat="49.3913" lon="1.03806">
        <ele>41.8</ele>
        <time>2019-11-11T07:15:28Z</time>
      </trkpt>
      <trkpt lat="49.3913" lon="1.03806">
        <ele>42.7</ele>
        <time>2019-11-11T07:15:32Z</time>
      </trkpt>
      <trkpt lat="49.3913" lon="1.03806">
        <ele>42.7</ele>
        <time>2019-11-11T07:15:33Z</time>
      </trkpt>
      <trkpt lat="49.3913" lon="1.03806">
        <ele>42.7</ele>
        <time>2019-11-11T07:15:34Z</time>
      </trkpt>
      <trkpt lat="49.39128" lon="1.03794">
        <ele>41.8</ele>
        <time>2019-11-11T07:15:35Z</time>
      </trkpt>
      <trkpt lat="49.39126" lon="1.03791">
        <ele>41.8</ele>
        <time>2019-11-11T07:15:36Z</time>
      </trkpt>
      <trkpt lat="49.39124" lon="1.03789">
        <ele>41.8</ele>
        <time>2019-11-11T07:15:37Z</time>
      </trkpt>
      <trkpt lat="49.39121" lon="1.03788">
        <ele>41.8</ele>
        <time>2019-11-11T07:15:38Z</time>
      </trkpt>
      <trkpt lat="49.39116" lon="1.0379">
        <ele>41.8</ele>
        <time>2019-11-11T07:15:39Z</time>
      </trkpt>
      <trkpt lat="49.39114" lon="1.03792">
        <ele>41.8</ele>
        <time>2019-11-11T07:15:40Z</time>
      </trkpt>
      <trkpt lat="49.39113" lon="1.03794">
        <ele>41.8</ele>
        <time>2019-11-11T07:15:41Z</time>
      </trkpt>
      <trkpt lat="49.39111" lon="1.03796">
        <ele>41.8</ele>
        <time>2019-11-11T07:15:42Z</time>
      </trkpt>
      <trkpt lat="49.39109" lon="1.03798">
        <ele>41.8</ele>
        <time>2019-11-11T07:15:43Z</time>
      </trkpt>
      <trkpt lat="49.39102" lon="1.03809">
        <ele>41.8</ele>
        <time>2019-11-11T07:15:44Z</time>
      </trkpt>
      <trkpt lat="49.39101" lon="1.03811">
        <ele>41.8</ele>
        <time>2019-11-11T07:15:45Z</time>
      </trkpt>
      <trkpt lat="49.391" lon="1.03816">
        <ele>41.8</ele>
        <time>2019-11-11T07:15:46Z</time>
      </trkpt>
      <trkpt lat="49.391" lon="1.03816">
        <ele>42.7</ele>
        <time>2019-11-11T07:15:47Z</time>
      </trkpt>
      <trkpt lat="49.391" lon="1.03816">
        <ele>42.7</ele>
        <time>2019-11-11T07:15:48Z</time>
      </trkpt>
      <trkpt lat="49.39094" lon="1.03835">
        <ele>42.7</ele>
        <time>2019-11-11T07:15:49Z</time>
      </trkpt>
      <trkpt lat="49.39095" lon="1.03842">
        <ele>42.7</ele>
        <time>2019-11-11T07:15:50Z</time>
      </trkpt>
      <trkpt lat="49.39098" lon="1.03844">
        <ele>42.7</ele>
        <time>2019-11-11T07:15:51Z</time>
      </trkpt>
      <trkpt lat="49.39104" lon="1.03847">
        <ele>42.7</ele>
        <time>2019-11-11T07:15:52Z</time>
      </trkpt>
      <trkpt lat="49.39102" lon="1.03851">
        <ele>43.7</ele>
        <time>2019-11-11T07:15:53Z</time>
      </trkpt>
      <trkpt lat="49.391" lon="1.03855">
        <ele>43.7</ele>
        <time>2019-11-11T07:15:54Z</time>
      </trkpt>
      <trkpt lat="49.39099" lon="1.0386">
        <ele>43.7</ele>
        <time>2019-11-11T07:15:55Z</time>
      </trkpt>
      <trkpt lat="49.39098" lon="1.03865">
        <ele>43.7</ele>
        <time>2019-11-11T07:15:56Z</time>
      </trkpt>
      <trkpt lat="49.39097" lon="1.0387">
        <ele>44.8</ele>
        <time>2019-11-11T07:15:57Z</time>
      </trkpt>
      <trkpt lat="49.39095" lon="1.03875">
        <ele>44.8</ele>
        <time>2019-11-11T07:15:58Z</time>
      </trkpt>
      <trkpt lat="49.39094" lon="1.0388">
        <ele>44.8</ele>
        <time>2019-11-11T07:15:59Z</time>
      </trkpt>
      <trkpt lat="49.39093" lon="1.03885">
        <ele>44.8</ele>
        <time>2019-11-11T07:16:00Z</time>
      </trkpt>
      <trkpt lat="49.39091" lon="1.0389">
        <ele>44.8</ele>
        <time>2019-11-11T07:16:01Z</time>
      </trkpt>
      <trkpt lat="49.3909" lon="1.03894">
        <ele>44.8</ele>
        <time>2019-11-11T07:16:02Z</time>
      </trkpt>
      <trkpt lat="49.39088" lon="1.03899">
        <ele>45.7</ele>
        <time>2019-11-11T07:16:03Z</time>
      </trkpt>
      <trkpt lat="49.39087" lon="1.03904">
        <ele>45.7</ele>
        <time>2019-11-11T07:16:04Z</time>
      </trkpt>
      <trkpt lat="49.39085" lon="1.03909">
        <ele>45.7</ele>
        <time>2019-11-11T07:16:05Z</time>
      </trkpt>
      <trkpt lat="49.39084" lon="1.03914">
        <ele>45.7</ele>
        <time>2019-11-11T07:16:06Z</time>
      </trkpt>
      <trkpt lat="49.39082" lon="1.03919">
        <ele>45.7</ele>
        <time>2019-11-11T07:16:07Z</time>
      </trkpt>
      <trkpt lat="49.3908" lon="1.03924">
        <ele>45.7</ele>
        <time>2019-11-11T07:16:08Z</time>
      </trkpt>
      <trkpt lat="49.39079" lon="1.03929">
        <ele>45.7</ele>
        <time>2019-11-11T07:16:09Z</time>
      </trkpt>
      <trkpt lat="49.39077" lon="1.03933">
        <ele>45.7</ele>
        <time>2019-11-11T07:16:10Z</time>
      </trkpt>
      <trkpt lat="49.39075" lon="1.03938">
        <ele>46.8</ele>
        <time>2019-11-11T07:16:11Z</time>
      </trkpt>
      <trkpt lat="49.39073" lon="1.03943">
        <ele>46.8</ele>
        <time>2019-11-11T07:16:12Z</time>
      </trkpt>
      <trkpt lat="49.39071" lon="1.03948">
        <ele>46.8</ele>
        <time>2019-11-11T07:16:13Z</time>
      </trkpt>
      <trkpt lat="49.39069" lon="1.03952">
        <ele>46.8</ele>
        <time>2019-11-11T07:16:14Z</time>
      </trkpt>
      <trkpt lat="49.39067" lon="1.03957">
        <ele>46.8</ele>
        <time>2019-11-11T07:16:15Z</time>
      </trkpt>
      <trkpt lat="49.39065" lon="1.03961">
        <ele>46.8</ele>
        <time>2019-11-11T07:16:16Z</time>
      </trkpt>
      <trkpt lat="49.39063" lon="1.03966">
        <ele>47.7</ele>
        <time>2019-11-11T07:16:17Z</time>
      </trkpt>
      <trkpt lat="49.39061" lon="1.0397">
        <ele>47.7</ele>
        <time>2019-11-11T07:16:18Z</time>
      </trkpt>
      <trkpt lat="49.39058" lon="1.03974">
        <ele>47.7</ele>
        <time>2019-11-11T07:16:19Z</time>
      </trkpt>
      <trkpt lat="49.39055" lon="1.03978">
        <ele>47.7</ele>
        <time>2019-11-11T07:16:20Z</time>
      </trkpt>
      <trkpt lat="49.39052" lon="1.0398">
        <ele>47.7</ele>
        <time>2019-11-11T07:16:21Z</time>
      </trkpt>
      <trkpt lat="49.39049" lon="1.03983">
        <ele>47.7</ele>
        <time>2019-11-11T07:16:22Z</time>
      </trkpt>
      <trkpt lat="49.39046" lon="1.03986">
        <ele>48.8</ele>
        <time>2019-11-11T07:16:23Z</time>
      </trkpt>
      <trkpt lat="49.39044" lon="1.03991">
        <ele>48.8</ele>
        <time>2019-11-11T07:16:24Z</time>
      </trkpt>
      <trkpt lat="49.39044" lon="1.03996">
        <ele>48.8</ele>
        <time>2019-11-11T07:16:25Z</time>
      </trkpt>
      <trkpt lat="49.39044" lon="1.04001">
        <ele>48.8</ele>
        <time>2019-11-11T07:16:26Z</time>
      </trkpt>
      <trkpt lat="49.39045" lon="1.04006">
        <ele>48.8</ele>
        <time>2019-11-11T07:16:27Z</time>
      </trkpt>
      <trkpt lat="49.39047" lon="1.04011">
        <ele>48.8</ele>
        <time>2019-11-11T07:16:28Z</time>
      </trkpt>
      <trkpt lat="49.39048" lon="1.04016">
        <ele>49.7</ele>
        <time>2019-11-11T07:16:29Z</time>
      </trkpt>
      <trkpt lat="49.3905" lon="1.04022">
        <ele>49.7</ele>
        <time>2019-11-11T07:16:30Z</time>
      </trkpt>
      <trkpt lat="49.39051" lon="1.04027">
        <ele>49.7</ele>
        <time>2019-11-11T07:16:31Z</time>
      </trkpt>
      <trkpt lat="49.39053" lon="1.04032">
        <ele>49.7</ele>
        <time>2019-11-11T07:16:32Z</time>
      </trkpt>
      <trkpt lat="49.39054" lon="1.04038">
        <ele>49.7</ele>
        <time>2019-11-11T07:16:33Z</time>
      </trkpt>
      <trkpt lat="49.39053" lon="1.04044">
        <ele>49.7</ele>
        <time>2019-11-11T07:16:34Z</time>
      </trkpt>
      <trkpt lat="49.39052" lon="1.04048">
        <ele>49.7</ele>
        <time>2019-11-11T07:16:35Z</time>
      </trkpt>
      <trkpt lat="49.3905" lon="1.04052">
        <ele>49.7</ele>
        <time>2019-11-11T07:16:36Z</time>
      </trkpt>
      <trkpt lat="49.39047" lon="1.04055">
        <ele>50.8</ele>
        <time>2019-11-11T07:16:37Z</time>
      </trkpt>
      <trkpt lat="49.39045" lon="1.0406">
        <ele>50.8</ele>
        <time>2019-11-11T07:16:38Z</time>
      </trkpt>
      <trkpt lat="49.39044" lon="1.04064">
        <ele>50.8</ele>
        <time>2019-11-11T07:16:39Z</time>
      </trkpt>
      <trkpt lat="49.39042" lon="1.04068">
        <ele>50.8</ele>
        <time>2019-11-11T07:16:40Z</time>
      </trkpt>
      <trkpt lat="49.39041" lon="1.04072">
        <ele>51.8</ele>
        <time>2019-11-11T07:16:41Z</time>
      </trkpt>
      <trkpt lat="49.39039" lon="1.04075">
        <ele>51.8</ele>
        <time>2019-11-11T07:16:42Z</time>
      </trkpt>
      <trkpt lat="49.39037" lon="1.04079">
        <ele>51.8</ele>
        <time>2019-11-11T07:16:43Z</time>
      </trkpt>
      <trkpt lat="49.39035" lon="1.04082">
        <ele>51.8</ele>
        <time>2019-11-11T07:16:44Z</time>
      </trkpt>
      <trkpt lat="49.39032" lon="1.04084">
        <ele>51.8</ele>
        <time>2019-11-11T07:16:45Z</time>
      </trkpt>
      <trkpt lat="49.3903" lon="1.04087">
        <ele>51.8</ele>
        <time>2019-11-11T07:16:46Z</time>
      </trkpt>
      <trkpt lat="49.39027" lon="1.0409">
        <ele>51.8</ele>
        <time>2019-11-11T07:16:47Z</time>
      </trkpt>
      <trkpt lat="49.39024" lon="1.04093">
        <ele>51.8</ele>
        <time>2019-11-11T07:16:48Z</time>
      </trkpt>
      <trkpt lat="49.39022" lon="1.04097">
        <ele>51.8</ele>
        <time>2019-11-11T07:16:49Z</time>
      </trkpt>
      <trkpt lat="49.39019" lon="1.04101">
        <ele>51.8</ele>
        <time>2019-11-11T07:16:50Z</time>
      </trkpt>
      <trkpt lat="49.39017" lon="1.04105">
        <ele>52.7</ele>
        <time>2019-11-11T07:16:51Z</time>
      </trkpt>
      <trkpt lat="49.39014" lon="1.04109">
        <ele>52.7</ele>
        <time>2019-11-11T07:16:52Z</time>
      </trkpt>
      <trkpt lat="49.39012" lon="1.04113">
        <ele>52.7</ele>
        <time>2019-11-11T07:16:53Z</time>
      </trkpt>
      <trkpt lat="49.3901" lon="1.04117">
        <ele>52.7</ele>
        <time>2019-11-11T07:16:54Z</time>
      </trkpt>
      <trkpt lat="49.39007" lon="1.04121">
        <ele>52.7</ele>
        <time>2019-11-11T07:16:55Z</time>
      </trkpt>
      <trkpt lat="49.39005" lon="1.04125">
        <ele>52.7</ele>
        <time>2019-11-11T07:16:56Z</time>
      </trkpt>
      <trkpt lat="49.39002" lon="1.04129">
        <ele>52.7</ele>
        <time>2019-11-11T07:16:57Z</time>
      </trkpt>
      <trkpt lat="49.38999" lon="1.04133">
        <ele>52.7</ele>
        <time>2019-11-11T07:16:58Z</time>
      </trkpt>
      <trkpt lat="49.38997" lon="1.04138">
        <ele>53.8</ele>
        <time>2019-11-11T07:16:59Z</time>
      </trkpt>
      <trkpt lat="49.38994" lon="1.04142">
        <ele>53.8</ele>
        <time>2019-11-11T07:17:00Z</time>
      </trkpt>
      <trkpt lat="49.38992" lon="1.04146">
        <ele>53.8</ele>
        <time>2019-11-11T07:17:01Z</time>
      </trkpt>
      <trkpt lat="49.38989" lon="1.04151">
        <ele>53.8</ele>
        <time>2019-11-11T07:17:02Z</time>
      </trkpt>
      <trkpt lat="49.38987" lon="1.04155">
        <ele>53.8</ele>
        <time>2019-11-11T07:17:03Z</time>
      </trkpt>
      <trkpt lat="49.38985" lon="1.04159">
        <ele>53.8</ele>
        <time>2019-11-11T07:17:04Z</time>
      </trkpt>
      <trkpt lat="49.38982" lon="1.04164">
        <ele>54.7</ele>
        <time>2019-11-11T07:17:05Z</time>
      </trkpt>
      <trkpt lat="49.3898" lon="1.04168">
        <ele>54.7</ele>
        <time>2019-11-11T07:17:06Z</time>
      </trkpt>
      <trkpt lat="49.38977" lon="1.04172">
        <ele>54.7</ele>
        <time>2019-11-11T07:17:07Z</time>
      </trkpt>
      <trkpt lat="49.38975" lon="1.04177">
        <ele>54.7</ele>
        <time>2019-11-11T07:17:08Z</time>
      </trkpt>
      <trkpt lat="49.38972" lon="1.04181">
        <ele>54.7</ele>
        <time>2019-11-11T07:17:09Z</time>
      </trkpt>
      <trkpt lat="49.38969" lon="1.04186">
        <ele>54.7</ele>
        <time>2019-11-11T07:17:10Z</time>
      </trkpt>
      <trkpt lat="49.38967" lon="1.0419">
        <ele>54.7</ele>
        <time>2019-11-11T07:17:11Z</time>
      </trkpt>
      <trkpt lat="49.38964" lon="1.04195">
        <ele>54.7</ele>
        <time>2019-11-11T07:17:12Z</time>
      </trkpt>
      <trkpt lat="49.38961" lon="1.04199">
        <ele>54.7</ele>
        <time>2019-11-11T07:17:13Z</time>
      </trkpt>
      <trkpt lat="49.38958" lon="1.04203">
        <ele>54.7</ele>
        <time>2019-11-11T07:17:14Z</time>
      </trkpt>
      <trkpt lat="49.38955" lon="1.04207">
        <ele>54.7</ele>
        <time>2019-11-11T07:17:15Z</time>
      </trkpt>
      <trkpt lat="49.38952" lon="1.0421">
        <ele>54.7</ele>
        <time>2019-11-11T07:17:16Z</time>
      </trkpt>
      <trkpt lat="49.38948" lon="1.04213">
        <ele>55.8</ele>
        <time>2019-11-11T07:17:17Z</time>
      </trkpt>
      <trkpt lat="49.38945" lon="1.04216">
        <ele>55.8</ele>
        <time>2019-11-11T07:17:18Z</time>
      </trkpt>
      <trkpt lat="49.38941" lon="1.04218">
        <ele>55.8</ele>
        <time>2019-11-11T07:17:19Z</time>
      </trkpt>
      <trkpt lat="49.38937" lon="1.0422">
        <ele>55.8</ele>
        <time>2019-11-11T07:17:20Z</time>
      </trkpt>
      <trkpt lat="49.38933" lon="1.04221">
        <ele>55.8</ele>
        <time>2019-11-11T07:17:21Z</time>
      </trkpt>
      <trkpt lat="49.38929" lon="1.04222">
        <ele>55.8</ele>
        <time>2019-11-11T07:17:22Z</time>
      </trkpt>
      <trkpt lat="49.38925" lon="1.04223">
        <ele>55.8</ele>
        <time>2019-11-11T07:17:23Z</time>
      </trkpt>
      <trkpt lat="49.38921" lon="1.04223">
        <ele>55.8</ele>
        <time>2019-11-11T07:17:24Z</time>
      </trkpt>
      <trkpt lat="49.38917" lon="1.04223">
        <ele>56.7</ele>
        <time>2019-11-11T07:17:25Z</time>
      </trkpt>
      <trkpt lat="49.38913" lon="1.04222">
        <ele>56.7</ele>
        <time>2019-11-11T07:17:26Z</time>
      </trkpt>
      <trkpt lat="49.38909" lon="1.04221">
        <ele>56.7</ele>
        <time>2019-11-11T07:17:27Z</time>
      </trkpt>
      <trkpt lat="49.38905" lon="1.04219">
        <ele>56.7</ele>
        <time>2019-11-11T07:17:28Z</time>
      </trkpt>
      <trkpt lat="49.389" lon="1.04217">
        <ele>56.7</ele>
        <time>2019-11-11T07:17:29Z</time>
      </trkpt>
      <trkpt lat="49.38896" lon="1.04215">
        <ele>56.7</ele>
        <time>2019-11-11T07:17:30Z</time>
      </trkpt>
      <trkpt lat="49.38892" lon="1.04212">
        <ele>57.8</ele>
        <time>2019-11-11T07:17:31Z</time>
      </trkpt>
      <trkpt lat="49.38889" lon="1.0421">
        <ele>57.8</ele>
        <time>2019-11-11T07:17:32Z</time>
      </trkpt>
      <trkpt lat="49.38885" lon="1.04207">
        <ele>57.8</ele>
        <time>2019-11-11T07:17:33Z</time>
      </trkpt>
      <trkpt lat="49.38881" lon="1.04205">
        <ele>57.8</ele>
        <time>2019-11-11T07:17:34Z</time>
      </trkpt>
      <trkpt lat="49.38877" lon="1.04202">
        <ele>57.8</ele>
        <time>2019-11-11T07:17:35Z</time>
      </trkpt>
      <trkpt lat="49.38873" lon="1.042">
        <ele>57.8</ele>
        <time>2019-11-11T07:17:36Z</time>
      </trkpt>
      <trkpt lat="49.38869" lon="1.04198">
        <ele>57.8</ele>
        <time>2019-11-11T07:17:37Z</time>
      </trkpt>
      <trkpt lat="49.38865" lon="1.04195">
        <ele>57.8</ele>
        <time>2019-11-11T07:17:38Z</time>
      </trkpt>
      <trkpt lat="49.38862" lon="1.04193">
        <ele>57.8</ele>
        <time>2019-11-11T07:17:39Z</time>
      </trkpt>
      <trkpt lat="49.38858" lon="1.0419">
        <ele>57.8</ele>
        <time>2019-11-11T07:17:40Z</time>
      </trkpt>
      <trkpt lat="49.38854" lon="1.04188">
        <ele>57.8</ele>
        <time>2019-11-11T07:17:41Z</time>
      </trkpt>
      <trkpt lat="49.3885" lon="1.04185">
        <ele>57.8</ele>
        <time>2019-11-11T07:17:42Z</time>
      </trkpt>
      <trkpt lat="49.38846" lon="1.04183">
        <ele>58.7</ele>
        <time>2019-11-11T07:17:43Z</time>
      </trkpt>
      <trkpt lat="49.38842" lon="1.04182">
        <ele>58.7</ele>
        <time>2019-11-11T07:17:44Z</time>
      </trkpt>
      <trkpt lat="49.38838" lon="1.04181">
        <ele>58.7</ele>
        <time>2019-11-11T07:17:45Z</time>
      </trkpt>
      <trkpt lat="49.38835" lon="1.04179">
        <ele>58.7</ele>
        <time>2019-11-11T07:17:46Z</time>
      </trkpt>
      <trkpt lat="49.38831" lon="1.04177">
        <ele>57.8</ele>
        <time>2019-11-11T07:17:47Z</time>
      </trkpt>
      <trkpt lat="49.38827" lon="1.04175">
        <ele>57.8</ele>
        <time>2019-11-11T07:17:48Z</time>
      </trkpt>
      <trkpt lat="49.38824" lon="1.04172">
        <ele>57.8</ele>
        <time>2019-11-11T07:17:49Z</time>
      </trkpt>
      <trkpt lat="49.3882" lon="1.0417">
        <ele>57.8</ele>
        <time>2019-11-11T07:17:50Z</time>
      </trkpt>
      <trkpt lat="49.38817" lon="1.04167">
        <ele>57.8</ele>
        <time>2019-11-11T07:17:51Z</time>
      </trkpt>
      <trkpt lat="49.38813" lon="1.04164">
        <ele>57.8</ele>
        <time>2019-11-11T07:17:52Z</time>
      </trkpt>
      <trkpt lat="49.38809" lon="1.04162">
        <ele>57.8</ele>
        <time>2019-11-11T07:17:53Z</time>
      </trkpt>
      <trkpt lat="49.38806" lon="1.04159">
        <ele>57.8</ele>
        <time>2019-11-11T07:17:54Z</time>
      </trkpt>
      <trkpt lat="49.38802" lon="1.04156">
        <ele>57.8</ele>
        <time>2019-11-11T07:17:55Z</time>
      </trkpt>
      <trkpt lat="49.38798" lon="1.04154">
        <ele>57.8</ele>
        <time>2019-11-11T07:17:56Z</time>
      </trkpt>
      <trkpt lat="49.38795" lon="1.04151">
        <ele>57.8</ele>
        <time>2019-11-11T07:17:57Z</time>
      </trkpt>
      <trkpt lat="49.38791" lon="1.04149">
        <ele>57.8</ele>
        <time>2019-11-11T07:17:58Z</time>
      </trkpt>
      <trkpt lat="49.38787" lon="1.04147">
        <ele>57.8</ele>
        <time>2019-11-11T07:17:59Z</time>
      </trkpt>
      <trkpt lat="49.38783" lon="1.04148">
        <ele>57.8</ele>
        <time>2019-11-11T07:18:00Z</time>
      </trkpt>
      <trkpt lat="49.3878" lon="1.0415">
        <ele>57.8</ele>
        <time>2019-11-11T07:18:01Z</time>
      </trkpt>
      <trkpt lat="49.38777" lon="1.04153">
        <ele>57.8</ele>
        <time>2019-11-11T07:18:02Z</time>
      </trkpt>
      <trkpt lat="49.38775" lon="1.04159">
        <ele>57.8</ele>
        <time>2019-11-11T07:18:03Z</time>
      </trkpt>
      <trkpt lat="49.38773" lon="1.04164">
        <ele>57.8</ele>
        <time>2019-11-11T07:18:04Z</time>
      </trkpt>
      <trkpt lat="49.38771" lon="1.0417">
        <ele>57.8</ele>
        <time>2019-11-11T07:18:05Z</time>
      </trkpt>
      <trkpt lat="49.38769" lon="1.04176">
        <ele>57.8</ele>
        <time>2019-11-11T07:18:06Z</time>
      </trkpt>
      <trkpt lat="49.38767" lon="1.04182">
        <ele>57.8</ele>
        <time>2019-11-11T07:18:07Z</time>
      </trkpt>
      <trkpt lat="49.38765" lon="1.04188">
        <ele>58.7</ele>
        <time>2019-11-11T07:18:08Z</time>
      </trkpt>
      <trkpt lat="49.38764" lon="1.04193">
        <ele>58.7</ele>
        <time>2019-11-11T07:18:09Z</time>
      </trkpt>
      <trkpt lat="49.38762" lon="1.042">
        <ele>58.7</ele>
        <time>2019-11-11T07:18:10Z</time>
      </trkpt>
      <trkpt lat="49.38761" lon="1.04205">
        <ele>58.7</ele>
        <time>2019-11-11T07:18:11Z</time>
      </trkpt>
      <trkpt lat="49.3876" lon="1.04211">
        <ele>58.7</ele>
        <time>2019-11-11T07:18:12Z</time>
      </trkpt>
      <trkpt lat="49.38759" lon="1.04217">
        <ele>58.7</ele>
        <time>2019-11-11T07:18:13Z</time>
      </trkpt>
      <trkpt lat="49.38758" lon="1.04222">
        <ele>58.7</ele>
        <time>2019-11-11T07:18:14Z</time>
      </trkpt>
      <trkpt lat="49.38756" lon="1.04227">
        <ele>58.7</ele>
        <time>2019-11-11T07:18:15Z</time>
      </trkpt>
      <trkpt lat="49.38755" lon="1.04232">
        <ele>58.7</ele>
        <time>2019-11-11T07:18:16Z</time>
      </trkpt>
      <trkpt lat="49.38753" lon="1.04238">
        <ele>58.7</ele>
        <time>2019-11-11T07:18:17Z</time>
      </trkpt>
      <trkpt lat="49.38751" lon="1.04244">
        <ele>58.7</ele>
        <time>2019-11-11T07:18:18Z</time>
      </trkpt>
      <trkpt lat="49.38749" lon="1.0425">
        <ele>58.7</ele>
        <time>2019-11-11T07:18:19Z</time>
      </trkpt>
      <trkpt lat="49.38747" lon="1.04256">
        <ele>58.7</ele>
        <time>2019-11-11T07:18:20Z</time>
      </trkpt>
      <trkpt lat="49.38745" lon="1.04262">
        <ele>58.7</ele>
        <time>2019-11-11T07:18:21Z</time>
      </trkpt>
      <trkpt lat="49.38743" lon="1.04268">
        <ele>58.7</ele>
        <time>2019-11-11T07:18:22Z</time>
      </trkpt>
      <trkpt lat="49.38741" lon="1.04275">
        <ele>58.7</ele>
        <time>2019-11-11T07:18:23Z</time>
      </trkpt>
      <trkpt lat="49.38739" lon="1.04281">
        <ele>58.7</ele>
        <time>2019-11-11T07:18:24Z</time>
      </trkpt>
      <trkpt lat="49.38737" lon="1.04287">
        <ele>58.7</ele>
        <time>2019-11-11T07:18:25Z</time>
      </trkpt>
      <trkpt lat="49.38736" lon="1.04294">
        <ele>58.7</ele>
        <time>2019-11-11T07:18:26Z</time>
      </trkpt>
      <trkpt lat="49.38734" lon="1.04301">
        <ele>58.7</ele>
        <time>2019-11-11T07:18:27Z</time>
      </trkpt>
      <trkpt lat="49.38732" lon="1.04307">
        <ele>58.7</ele>
        <time>2019-11-11T07:18:28Z</time>
      </trkpt>
      <trkpt lat="49.3873" lon="1.04314">
        <ele>58.7</ele>
        <time>2019-11-11T07:18:29Z</time>
      </trkpt>
      <trkpt lat="49.38728" lon="1.04321">
        <ele>58.7</ele>
        <time>2019-11-11T07:18:30Z</time>
      </trkpt>
      <trkpt lat="49.38726" lon="1.04328">
        <ele>58.7</ele>
        <time>2019-11-11T07:18:31Z</time>
      </trkpt>
      <trkpt lat="49.38724" lon="1.04335">
        <ele>57.8</ele>
        <time>2019-11-11T07:18:32Z</time>
      </trkpt>
      <trkpt lat="49.38721" lon="1.04342">
        <ele>57.8</ele>
        <time>2019-11-11T07:18:33Z</time>
      </trkpt>
      <trkpt lat="49.38719" lon="1.0435">
        <ele>57.8</ele>
        <time>2019-11-11T07:18:34Z</time>
      </trkpt>
      <trkpt lat="49.38717" lon="1.04357">
        <ele>57.8</ele>
        <time>2019-11-11T07:18:35Z</time>
      </trkpt>
      <trkpt lat="49.38714" lon="1.04365">
        <ele>56.7</ele>
        <time>2019-11-11T07:18:36Z</time>
      </trkpt>
      <trkpt lat="49.38712" lon="1.04373">
        <ele>56.7</ele>
        <time>2019-11-11T07:18:37Z</time>
      </trkpt>
      <trkpt lat="49.38709" lon="1.04382">
        <ele>56.7</ele>
        <time>2019-11-11T07:18:38Z</time>
      </trkpt>
      <trkpt lat="49.38707" lon="1.0439">
        <ele>56.7</ele>
        <time>2019-11-11T07:18:39Z</time>
      </trkpt>
      <trkpt lat="49.38704" lon="1.04399">
        <ele>56.7</ele>
        <time>2019-11-11T07:18:40Z</time>
      </trkpt>
      <trkpt lat="49.38702" lon="1.04408">
        <ele>56.7</ele>
        <time>2019-11-11T07:18:41Z</time>
      </trkpt>
      <trkpt lat="49.387" lon="1.04418">
        <ele>55.8</ele>
        <time>2019-11-11T07:18:42Z</time>
      </trkpt>
      <trkpt lat="49.38698" lon="1.04428">
        <ele>55.8</ele>
        <time>2019-11-11T07:18:43Z</time>
      </trkpt>
      <trkpt lat="49.38696" lon="1.04438">
        <ele>55.8</ele>
        <time>2019-11-11T07:18:44Z</time>
      </trkpt>
      <trkpt lat="49.38696" lon="1.04449">
        <ele>55.8</ele>
        <time>2019-11-11T07:18:45Z</time>
      </trkpt>
      <trkpt lat="49.38696" lon="1.0446">
        <ele>54.7</ele>
        <time>2019-11-11T07:18:46Z</time>
      </trkpt>
      <trkpt lat="49.38696" lon="1.04472">
        <ele>54.7</ele>
        <time>2019-11-11T07:18:47Z</time>
      </trkpt>
      <trkpt lat="49.38697" lon="1.04484">
        <ele>53.8</ele>
        <time>2019-11-11T07:18:48Z</time>
      </trkpt>
      <trkpt lat="49.38698" lon="1.04495">
        <ele>53.8</ele>
        <time>2019-11-11T07:18:49Z</time>
      </trkpt>
      <trkpt lat="49.387" lon="1.04507">
        <ele>52.7</ele>
        <time>2019-11-11T07:18:50Z</time>
      </trkpt>
      <trkpt lat="49.38702" lon="1.04518">
        <ele>52.7</ele>
        <time>2019-11-11T07:18:51Z</time>
      </trkpt>
      <trkpt lat="49.38705" lon="1.04528">
        <ele>52.7</ele>
        <time>2019-11-11T07:18:52Z</time>
      </trkpt>
      <trkpt lat="49.38709" lon="1.04538">
        <ele>52.7</ele>
        <time>2019-11-11T07:18:53Z</time>
      </trkpt>
      <trkpt lat="49.38712" lon="1.04546">
        <ele>51.8</ele>
        <time>2019-11-11T07:18:54Z</time>
      </trkpt>
      <trkpt lat="49.38715" lon="1.04555">
        <ele>51.8</ele>
        <time>2019-11-11T07:18:55Z</time>
      </trkpt>
      <trkpt lat="49.38718" lon="1.04563">
        <ele>51.8</ele>
        <time>2019-11-11T07:18:56Z</time>
      </trkpt>
      <trkpt lat="49.38721" lon="1.04571">
        <ele>51.8</ele>
        <time>2019-11-11T07:18:57Z</time>
      </trkpt>
      <trkpt lat="49.38723" lon="1.04578">
        <ele>50.8</ele>
        <time>2019-11-11T07:18:58Z</time>
      </trkpt>
      <trkpt lat="49.38726" lon="1.04585">
        <ele>50.8</ele>
        <time>2019-11-11T07:18:59Z</time>
      </trkpt>
      <trkpt lat="49.38728" lon="1.04591">
        <ele>50.8</ele>
        <time>2019-11-11T07:19:00Z</time>
      </trkpt>
      <trkpt lat="49.38729" lon="1.04597">
        <ele>50.8</ele>
        <time>2019-11-11T07:19:01Z</time>
      </trkpt>
      <trkpt lat="49.38732" lon="1.04604">
        <ele>50.8</ele>
        <time>2019-11-11T07:19:02Z</time>
      </trkpt>
      <trkpt lat="49.38734" lon="1.0461">
        <ele>50.8</ele>
        <time>2019-11-11T07:19:03Z</time>
      </trkpt>
      <trkpt lat="49.38736" lon="1.04616">
        <ele>50.8</ele>
        <time>2019-11-11T07:19:04Z</time>
      </trkpt>
      <trkpt lat="49.38738" lon="1.04623">
        <ele>50.8</ele>
        <time>2019-11-11T07:19:05Z</time>
      </trkpt>
      <trkpt lat="49.38741" lon="1.04629">
        <ele>50.8</ele>
        <time>2019-11-11T07:19:06Z</time>
      </trkpt>
      <trkpt lat="49.38742" lon="1.04635">
        <ele>50.8</ele>
        <time>2019-11-11T07:19:07Z</time>
      </trkpt>
      <trkpt lat="49.38745" lon="1.04641">
        <ele>50.8</ele>
        <time>2019-11-11T07:19:08Z</time>
      </trkpt>
      <trkpt lat="49.38747" lon="1.04648">
        <ele>50.8</ele>
        <time>2019-11-11T07:19:09Z</time>
      </trkpt>
      <trkpt lat="49.38749" lon="1.04654">
        <ele>50.8</ele>
        <time>2019-11-11T07:19:10Z</time>
      </trkpt>
      <trkpt lat="49.38751" lon="1.04661">
        <ele>50.8</ele>
        <time>2019-11-11T07:19:11Z</time>
      </trkpt>
      <trkpt lat="49.38753" lon="1.04666">
        <ele>50.8</ele>
        <time>2019-11-11T07:19:12Z</time>
      </trkpt>
      <trkpt lat="49.38754" lon="1.04671">
        <ele>50.8</ele>
        <time>2019-11-11T07:19:13Z</time>
      </trkpt>
      <trkpt lat="49.38757" lon="1.04675">
        <ele>51.8</ele>
        <time>2019-11-11T07:19:14Z</time>
      </trkpt>
      <trkpt lat="49.38759" lon="1.04678">
        <ele>51.8</ele>
        <time>2019-11-11T07:19:15Z</time>
      </trkpt>
      <trkpt lat="49.38761" lon="1.0468">
        <ele>51.8</ele>
        <time>2019-11-11T07:19:16Z</time>
      </trkpt>
      <trkpt lat="49.38764" lon="1.04684">
        <ele>51.8</ele>
        <time>2019-11-11T07:19:17Z</time>
      </trkpt>
      <trkpt lat="49.38767" lon="1.0469">
        <ele>51.8</ele>
        <time>2019-11-11T07:19:18Z</time>
      </trkpt>
      <trkpt lat="49.38769" lon="1.04696">
        <ele>51.8</ele>
        <time>2019-11-11T07:19:19Z</time>
      </trkpt>
      <trkpt lat="49.38772" lon="1.04702">
        <ele>51.8</ele>
        <time>2019-11-11T07:19:20Z</time>
      </trkpt>
      <trkpt lat="49.38774" lon="1.04708">
        <ele>51.8</ele>
        <time>2019-11-11T07:19:21Z</time>
      </trkpt>
      <trkpt lat="49.38776" lon="1.04714">
        <ele>51.8</ele>
        <time>2019-11-11T07:19:22Z</time>
      </trkpt>
      <trkpt lat="49.38778" lon="1.0472">
        <ele>51.8</ele>
        <time>2019-11-11T07:19:23Z</time>
      </trkpt>
      <trkpt lat="49.3878" lon="1.04726">
        <ele>51.8</ele>
        <time>2019-11-11T07:19:24Z</time>
      </trkpt>
      <trkpt lat="49.38782" lon="1.04732">
        <ele>51.8</ele>
        <time>2019-11-11T07:19:25Z</time>
      </trkpt>
      <trkpt lat="49.38784" lon="1.04738">
        <ele>52.7</ele>
        <time>2019-11-11T07:19:26Z</time>
      </trkpt>
      <trkpt lat="49.38786" lon="1.04744">
        <ele>52.7</ele>
        <time>2019-11-11T07:19:27Z</time>
      </trkpt>
      <trkpt lat="49.38788" lon="1.0475">
        <ele>52.7</ele>
        <time>2019-11-11T07:19:28Z</time>
      </trkpt>
      <trkpt lat="49.3879" lon="1.04756">
        <ele>52.7</ele>
        <time>2019-11-11T07:19:29Z</time>
      </trkpt>
      <trkpt lat="49.38793" lon="1.04762">
        <ele>53.8</ele>
        <time>2019-11-11T07:19:30Z</time>
      </trkpt>
      <trkpt lat="49.38795" lon="1.04768">
        <ele>53.8</ele>
        <time>2019-11-11T07:19:31Z</time>
      </trkpt>
      <trkpt lat="49.38797" lon="1.04774">
        <ele>54.7</ele>
        <time>2019-11-11T07:19:32Z</time>
      </trkpt>
      <trkpt lat="49.38799" lon="1.0478">
        <ele>54.7</ele>
        <time>2019-11-11T07:19:33Z</time>
      </trkpt>
      <trkpt lat="49.38801" lon="1.04786">
        <ele>55.8</ele>
        <time>2019-11-11T07:19:34Z</time>
      </trkpt>
      <trkpt lat="49.38804" lon="1.04792">
        <ele>55.8</ele>
        <time>2019-11-11T07:19:35Z</time>
      </trkpt>
      <trkpt lat="49.38806" lon="1.04799">
        <ele>55.8</ele>
        <time>2019-11-11T07:19:36Z</time>
      </trkpt>
      <trkpt lat="49.38808" lon="1.04805">
        <ele>55.8</ele>
        <time>2019-11-11T07:19:37Z</time>
      </trkpt>
      <trkpt lat="49.3881" lon="1.04811">
        <ele>55.8</ele>
        <time>2019-11-11T07:19:38Z</time>
      </trkpt>
      <trkpt lat="49.38812" lon="1.04817">
        <ele>55.8</ele>
        <time>2019-11-11T07:19:39Z</time>
      </trkpt>
      <trkpt lat="49.38814" lon="1.04823">
        <ele>55.8</ele>
        <time>2019-11-11T07:19:40Z</time>
      </trkpt>
      <trkpt lat="49.38817" lon="1.04829">
        <ele>55.8</ele>
        <time>2019-11-11T07:19:41Z</time>
      </trkpt>
      <trkpt lat="49.38819" lon="1.04835">
        <ele>57.8</ele>
        <time>2019-11-11T07:19:42Z</time>
      </trkpt>
      <trkpt lat="49.38821" lon="1.04841">
        <ele>57.8</ele>
        <time>2019-11-11T07:19:43Z</time>
      </trkpt>
      <trkpt lat="49.38823" lon="1.04848">
        <ele>57.8</ele>
        <time>2019-11-11T07:19:44Z</time>
      </trkpt>
      <trkpt lat="49.38825" lon="1.04854">
        <ele>57.8</ele>
        <time>2019-11-11T07:19:45Z</time>
      </trkpt>
      <trkpt lat="49.38828" lon="1.0486">
        <ele>57.8</ele>
        <time>2019-11-11T07:19:46Z</time>
      </trkpt>
      <trkpt lat="49.3883" lon="1.04867">
        <ele>57.8</ele>
        <time>2019-11-11T07:19:47Z</time>
      </trkpt>
      <trkpt lat="49.38832" lon="1.04873">
        <ele>58.7</ele>
        <time>2019-11-11T07:19:48Z</time>
      </trkpt>
      <trkpt lat="49.38835" lon="1.0488">
        <ele>58.7</ele>
        <time>2019-11-11T07:19:49Z</time>
      </trkpt>
      <trkpt lat="49.38837" lon="1.04886">
        <ele>58.7</ele>
        <time>2019-11-11T07:19:50Z</time>
      </trkpt>
      <trkpt lat="49.3884" lon="1.04893">
        <ele>58.7</ele>
        <time>2019-11-11T07:19:51Z</time>
      </trkpt>
      <trkpt lat="49.38842" lon="1.04899">
        <ele>58.7</ele>
        <time>2019-11-11T07:19:52Z</time>
      </trkpt>
      <trkpt lat="49.38845" lon="1.04906">
        <ele>58.7</ele>
        <time>2019-11-11T07:19:53Z</time>
      </trkpt>
      <trkpt lat="49.38847" lon="1.04912">
        <ele>58.7</ele>
        <time>2019-11-11T07:19:54Z</time>
      </trkpt>
      <trkpt lat="49.3885" lon="1.04918">
        <ele>58.7</ele>
        <time>2019-11-11T07:19:55Z</time>
      </trkpt>
      <trkpt lat="49.38853" lon="1.04924">
        <ele>58.7</ele>
        <time>2019-11-11T07:19:56Z</time>
      </trkpt>
      <trkpt lat="49.38856" lon="1.0493">
        <ele>58.7</ele>
        <time>2019-11-11T07:19:57Z</time>
      </trkpt>
      <trkpt lat="49.3886" lon="1.04935">
        <ele>58.7</ele>
        <time>2019-11-11T07:19:58Z</time>
      </trkpt>
      <trkpt lat="49.38863" lon="1.04941">
        <ele>58.7</ele>
        <time>2019-11-11T07:19:59Z</time>
      </trkpt>
      <trkpt lat="49.38866" lon="1.04946">
        <ele>58.7</ele>
        <time>2019-11-11T07:20:00Z</time>
      </trkpt>
      <trkpt lat="49.3887" lon="1.04951">
        <ele>58.7</ele>
        <time>2019-11-11T07:20:01Z</time>
      </trkpt>
      <trkpt lat="49.38874" lon="1.04956">
        <ele>58.7</ele>
        <time>2019-11-11T07:20:02Z</time>
      </trkpt>
      <trkpt lat="49.38878" lon="1.0496">
        <ele>58.7</ele>
        <time>2019-11-11T07:20:03Z</time>
      </trkpt>
      <trkpt lat="49.38882" lon="1.04964">
        <ele>59.7</ele>
        <time>2019-11-11T07:20:04Z</time>
      </trkpt>
      <trkpt lat="49.38886" lon="1.04969">
        <ele>59.7</ele>
        <time>2019-11-11T07:20:05Z</time>
      </trkpt>
      <trkpt lat="49.3889" lon="1.04972">
        <ele>59.7</ele>
        <time>2019-11-11T07:20:06Z</time>
      </trkpt>
      <trkpt lat="49.38894" lon="1.04976">
        <ele>59.7</ele>
        <time>2019-11-11T07:20:07Z</time>
      </trkpt>
      <trkpt lat="49.38898" lon="1.0498">
        <ele>59.7</ele>
        <time>2019-11-11T07:20:08Z</time>
      </trkpt>
      <trkpt lat="49.38903" lon="1.04983">
        <ele>59.7</ele>
        <time>2019-11-11T07:20:09Z</time>
      </trkpt>
      <trkpt lat="49.38907" lon="1.04986">
        <ele>59.7</ele>
        <time>2019-11-11T07:20:10Z</time>
      </trkpt>
      <trkpt lat="49.38912" lon="1.0499">
        <ele>59.7</ele>
        <time>2019-11-11T07:20:11Z</time>
      </trkpt>
      <trkpt lat="49.38916" lon="1.04994">
        <ele>59.7</ele>
        <time>2019-11-11T07:20:12Z</time>
      </trkpt>
      <trkpt lat="49.38921" lon="1.04997">
        <ele>59.7</ele>
        <time>2019-11-11T07:20:13Z</time>
      </trkpt>
      <trkpt lat="49.38926" lon="1.05001">
        <ele>59.7</ele>
        <time>2019-11-11T07:20:14Z</time>
      </trkpt>
      <trkpt lat="49.3893" lon="1.05004">
        <ele>59.7</ele>
        <time>2019-11-11T07:20:15Z</time>
      </trkpt>
      <trkpt lat="49.38935" lon="1.05008">
        <ele>58.7</ele>
        <time>2019-11-11T07:20:16Z</time>
      </trkpt>
      <trkpt lat="49.38939" lon="1.05011">
        <ele>58.7</ele>
        <time>2019-11-11T07:20:17Z</time>
      </trkpt>
      <trkpt lat="49.38944" lon="1.05015">
        <ele>58.7</ele>
        <time>2019-11-11T07:20:18Z</time>
      </trkpt>
      <trkpt lat="49.38949" lon="1.05019">
        <ele>58.7</ele>
        <time>2019-11-11T07:20:19Z</time>
      </trkpt>
      <trkpt lat="49.38953" lon="1.05023">
        <ele>58.7</ele>
        <time>2019-11-11T07:20:20Z</time>
      </trkpt>
      <trkpt lat="49.38958" lon="1.05026">
        <ele>58.7</ele>
        <time>2019-11-11T07:20:21Z</time>
      </trkpt>
      <trkpt lat="49.38963" lon="1.05029">
        <ele>58.7</ele>
        <time>2019-11-11T07:20:22Z</time>
      </trkpt>
      <trkpt lat="49.38967" lon="1.05033">
        <ele>58.7</ele>
        <time>2019-11-11T07:20:23Z</time>
      </trkpt>
      <trkpt lat="49.38972" lon="1.05037">
        <ele>58.7</ele>
        <time>2019-11-11T07:20:24Z</time>
      </trkpt>
      <trkpt lat="49.38977" lon="1.0504">
        <ele>58.7</ele>
        <time>2019-11-11T07:20:25Z</time>
      </trkpt>
      <trkpt lat="49.38981" lon="1.05044">
        <ele>58.7</ele>
        <time>2019-11-11T07:20:26Z</time>
      </trkpt>
      <trkpt lat="49.38986" lon="1.05047">
        <ele>58.7</ele>
        <time>2019-11-11T07:20:27Z</time>
      </trkpt>
      <trkpt lat="49.38991" lon="1.05049">
        <ele>58.7</ele>
        <time>2019-11-11T07:20:28Z</time>
      </trkpt>
      <trkpt lat="49.38997" lon="1.0505">
        <ele>58.7</ele>
        <time>2019-11-11T07:20:29Z</time>
      </trkpt>
      <trkpt lat="49.39002" lon="1.0505">
        <ele>58.7</ele>
        <time>2019-11-11T07:20:30Z</time>
      </trkpt>
      <trkpt lat="49.39007" lon="1.05048">
        <ele>58.7</ele>
        <time>2019-11-11T07:20:31Z</time>
      </trkpt>
      <trkpt lat="49.39012" lon="1.05047">
        <ele>58.7</ele>
        <time>2019-11-11T07:20:32Z</time>
      </trkpt>
      <trkpt lat="49.39017" lon="1.05047">
        <ele>58.7</ele>
        <time>2019-11-11T07:20:33Z</time>
      </trkpt>
      <trkpt lat="49.39022" lon="1.05049">
        <ele>58.7</ele>
        <time>2019-11-11T07:20:34Z</time>
      </trkpt>
      <trkpt lat="49.39027" lon="1.05052">
        <ele>58.7</ele>
        <time>2019-11-11T07:20:35Z</time>
      </trkpt>
      <trkpt lat="49.39031" lon="1.05057">
        <ele>58.7</ele>
        <time>2019-11-11T07:20:36Z</time>
      </trkpt>
      <trkpt lat="49.39034" lon="1.05062">
        <ele>58.7</ele>
        <time>2019-11-11T07:20:37Z</time>
      </trkpt>
      <trkpt lat="49.39036" lon="1.05069">
        <ele>58.7</ele>
        <time>2019-11-11T07:20:38Z</time>
      </trkpt>
      <trkpt lat="49.39036" lon="1.05077">
        <ele>58.7</ele>
        <time>2019-11-11T07:20:39Z</time>
      </trkpt>
      <trkpt lat="49.39035" lon="1.05084">
        <ele>58.7</ele>
        <time>2019-11-11T07:20:40Z</time>
      </trkpt>
      <trkpt lat="49.39033" lon="1.0509">
        <ele>58.7</ele>
        <time>2019-11-11T07:20:41Z</time>
      </trkpt>
      <trkpt lat="49.39031" lon="1.05097">
        <ele>58.7</ele>
        <time>2019-11-11T07:20:42Z</time>
      </trkpt>
      <trkpt lat="49.39029" lon="1.05104">
        <ele>58.7</ele>
        <time>2019-11-11T07:20:43Z</time>
      </trkpt>
      <trkpt lat="49.39027" lon="1.05111">
        <ele>58.7</ele>
        <time>2019-11-11T07:20:44Z</time>
      </trkpt>
      <trkpt lat="49.39025" lon="1.05117">
        <ele>58.7</ele>
        <time>2019-11-11T07:20:45Z</time>
      </trkpt>
      <trkpt lat="49.39023" lon="1.05124">
        <ele>58.7</ele>
        <time>2019-11-11T07:20:46Z</time>
      </trkpt>
      <trkpt lat="49.39021" lon="1.05131">
        <ele>58.7</ele>
        <time>2019-11-11T07:20:47Z</time>
      </trkpt>
      <trkpt lat="49.39019" lon="1.05138">
        <ele>58.7</ele>
        <time>2019-11-11T07:20:48Z</time>
      </trkpt>
      <trkpt lat="49.39017" lon="1.05145">
        <ele>58.7</ele>
        <time>2019-11-11T07:20:49Z</time>
      </trkpt>
      <trkpt lat="49.39015" lon="1.05152">
        <ele>58.7</ele>
        <time>2019-11-11T07:20:50Z</time>
      </trkpt>
      <trkpt lat="49.39014" lon="1.05159">
        <ele>58.7</ele>
        <time>2019-11-11T07:20:51Z</time>
      </trkpt>
      <trkpt lat="49.39012" lon="1.05166">
        <ele>58.7</ele>
        <time>2019-11-11T07:20:52Z</time>
      </trkpt>
      <trkpt lat="49.3901" lon="1.05173">
        <ele>58.7</ele>
        <time>2019-11-11T07:20:53Z</time>
      </trkpt>
      <trkpt lat="49.39008" lon="1.05179">
        <ele>59.7</ele>
        <time>2019-11-11T07:20:54Z</time>
      </trkpt>
      <trkpt lat="49.39006" lon="1.05186">
        <ele>59.7</ele>
        <time>2019-11-11T07:20:55Z</time>
      </trkpt>
      <trkpt lat="49.39004" lon="1.05192">
        <ele>59.7</ele>
        <time>2019-11-11T07:20:56Z</time>
      </trkpt>
      <trkpt lat="49.39002" lon="1.05199">
        <ele>59.7</ele>
        <time>2019-11-11T07:20:57Z</time>
      </trkpt>
      <trkpt lat="49.39" lon="1.05206">
        <ele>59.7</ele>
        <time>2019-11-11T07:20:58Z</time>
      </trkpt>
      <trkpt lat="49.38998" lon="1.05213">
        <ele>59.7</ele>
        <time>2019-11-11T07:20:59Z</time>
      </trkpt>
      <trkpt lat="49.38996" lon="1.05219">
        <ele>59.7</ele>
        <time>2019-11-11T07:21:00Z</time>
      </trkpt>
      <trkpt lat="49.38993" lon="1.05226">
        <ele>59.7</ele>
        <time>2019-11-11T07:21:01Z</time>
      </trkpt>
      <trkpt lat="49.38991" lon="1.05234">
        <ele>59.7</ele>
        <time>2019-11-11T07:21:02Z</time>
      </trkpt>
      <trkpt lat="49.38989" lon="1.05241">
        <ele>59.7</ele>
        <time>2019-11-11T07:21:03Z</time>
      </trkpt>
      <trkpt lat="49.38987" lon="1.05248">
        <ele>59.7</ele>
        <time>2019-11-11T07:21:04Z</time>
      </trkpt>
      <trkpt lat="49.38985" lon="1.05254">
        <ele>59.7</ele>
        <time>2019-11-11T07:21:05Z</time>
      </trkpt>
      <trkpt lat="49.38983" lon="1.05261">
        <ele>59.7</ele>
        <time>2019-11-11T07:21:06Z</time>
      </trkpt>
      <trkpt lat="49.38981" lon="1.05267">
        <ele>59.7</ele>
        <time>2019-11-11T07:21:07Z</time>
      </trkpt>
      <trkpt lat="49.38979" lon="1.05273">
        <ele>59.7</ele>
        <time>2019-11-11T07:21:08Z</time>
      </trkpt>
      <trkpt lat="49.38977" lon="1.0528">
        <ele>59.7</ele>
        <time>2019-11-11T07:21:09Z</time>
      </trkpt>
      <trkpt lat="49.38976" lon="1.05286">
        <ele>59.7</ele>
        <time>2019-11-11T07:21:10Z</time>
      </trkpt>
      <trkpt lat="49.38974" lon="1.05293">
        <ele>59.7</ele>
        <time>2019-11-11T07:21:11Z</time>
      </trkpt>
      <trkpt lat="49.38972" lon="1.05299">
        <ele>59.7</ele>
        <time>2019-11-11T07:21:12Z</time>
      </trkpt>
      <trkpt lat="49.3897" lon="1.05305">
        <ele>59.7</ele>
        <time>2019-11-11T07:21:13Z</time>
      </trkpt>
      <trkpt lat="49.38969" lon="1.05312">
        <ele>59.7</ele>
        <time>2019-11-11T07:21:14Z</time>
      </trkpt>
      <trkpt lat="49.38967" lon="1.05318">
        <ele>59.7</ele>
        <time>2019-11-11T07:21:15Z</time>
      </trkpt>
      <trkpt lat="49.38965" lon="1.05324">
        <ele>59.7</ele>
        <time>2019-11-11T07:21:16Z</time>
      </trkpt>
      <trkpt lat="49.38963" lon="1.05331">
        <ele>59.7</ele>
        <time>2019-11-11T07:21:17Z</time>
      </trkpt>
      <trkpt lat="49.38961" lon="1.05337">
        <ele>59.7</ele>
        <time>2019-11-11T07:21:18Z</time>
      </trkpt>
      <trkpt lat="49.38959" lon="1.05343">
        <ele>59.7</ele>
        <time>2019-11-11T07:21:19Z</time>
      </trkpt>
      <trkpt lat="49.38957" lon="1.0535">
        <ele>59.7</ele>
        <time>2019-11-11T07:21:20Z</time>
      </trkpt>
      <trkpt lat="49.38956" lon="1.05357">
        <ele>59.7</ele>
        <time>2019-11-11T07:21:21Z</time>
      </trkpt>
      <trkpt lat="49.38954" lon="1.05363">
        <ele>59.7</ele>
        <time>2019-11-11T07:21:22Z</time>
      </trkpt>
      <trkpt lat="49.38952" lon="1.0537">
        <ele>59.7</ele>
        <time>2019-11-11T07:21:23Z</time>
      </trkpt>
      <trkpt lat="49.3895" lon="1.05376">
        <ele>61.7</ele>
        <time>2019-11-11T07:21:24Z</time>
      </trkpt>
      <trkpt lat="49.38948" lon="1.05383">
        <ele>61.7</ele>
        <time>2019-11-11T07:21:25Z</time>
      </trkpt>
      <trkpt lat="49.38946" lon="1.05389">
        <ele>61.7</ele>
        <time>2019-11-11T07:21:26Z</time>
      </trkpt>
      <trkpt lat="49.38944" lon="1.05396">
        <ele>61.7</ele>
        <time>2019-11-11T07:21:27Z</time>
      </trkpt>
      <trkpt lat="49.38942" lon="1.05403">
        <ele>61.7</ele>
        <time>2019-11-11T07:21:28Z</time>
      </trkpt>
      <trkpt lat="49.3894" lon="1.0541">
        <ele>61.7</ele>
        <time>2019-11-11T07:21:29Z</time>
      </trkpt>
      <trkpt lat="49.38938" lon="1.05417">
        <ele>61.7</ele>
        <time>2019-11-11T07:21:30Z</time>
      </trkpt>
      <trkpt lat="49.38936" lon="1.05423">
        <ele>61.7</ele>
        <time>2019-11-11T07:21:31Z</time>
      </trkpt>
      <trkpt lat="49.38934" lon="1.0543">
        <ele>61.7</ele>
        <time>2019-11-11T07:21:32Z</time>
      </trkpt>
      <trkpt lat="49.38932" lon="1.05437">
        <ele>61.7</ele>
        <time>2019-11-11T07:21:33Z</time>
      </trkpt>
      <trkpt lat="49.3893" lon="1.05443">
        <ele>61.7</ele>
        <time>2019-11-11T07:21:34Z</time>
      </trkpt>
      <trkpt lat="49.38928" lon="1.0545">
        <ele>61.7</ele>
        <time>2019-11-11T07:21:35Z</time>
      </trkpt>
      <trkpt lat="49.38927" lon="1.05457">
        <ele>61.7</ele>
        <time>2019-11-11T07:21:36Z</time>
      </trkpt>
      <trkpt lat="49.38925" lon="1.05464">
        <ele>61.7</ele>
        <time>2019-11-11T07:21:37Z</time>
      </trkpt>
      <trkpt lat="49.38924" lon="1.05471">
        <ele>61.7</ele>
        <time>2019-11-11T07:21:38Z</time>
      </trkpt>
      <trkpt lat="49.38922" lon="1.05478">
        <ele>61.7</ele>
        <time>2019-11-11T07:21:39Z</time>
      </trkpt>
      <trkpt lat="49.38921" lon="1.05485">
        <ele>61.7</ele>
        <time>2019-11-11T07:21:40Z</time>
      </trkpt>
      <trkpt lat="49.38919" lon="1.0549">
        <ele>61.7</ele>
        <time>2019-11-11T07:21:41Z</time>
      </trkpt>
      <trkpt lat="49.38918" lon="1.05497">
        <ele>61.7</ele>
        <time>2019-11-11T07:21:42Z</time>
      </trkpt>
      <trkpt lat="49.38916" lon="1.05503">
        <ele>61.7</ele>
        <time>2019-11-11T07:21:43Z</time>
      </trkpt>
      <trkpt lat="49.38915" lon="1.0551">
        <ele>62.8</ele>
        <time>2019-11-11T07:21:44Z</time>
      </trkpt>
      <trkpt lat="49.38915" lon="1.05517">
        <ele>62.8</ele>
        <time>2019-11-11T07:21:45Z</time>
      </trkpt>
      <trkpt lat="49.38914" lon="1.05524">
        <ele>62.8</ele>
        <time>2019-11-11T07:21:46Z</time>
      </trkpt>
      <trkpt lat="49.38914" lon="1.05531">
        <ele>62.8</ele>
        <time>2019-11-11T07:21:47Z</time>
      </trkpt>
      <trkpt lat="49.38914" lon="1.05538">
        <ele>62.8</ele>
        <time>2019-11-11T07:21:48Z</time>
      </trkpt>
      <trkpt lat="49.38914" lon="1.05545">
        <ele>62.8</ele>
        <time>2019-11-11T07:21:49Z</time>
      </trkpt>
      <trkpt lat="49.38915" lon="1.05552">
        <ele>62.8</ele>
        <time>2019-11-11T07:21:50Z</time>
      </trkpt>
      <trkpt lat="49.38916" lon="1.05558">
        <ele>62.8</ele>
        <time>2019-11-11T07:21:51Z</time>
      </trkpt>
      <trkpt lat="49.38918" lon="1.05565">
        <ele>62.8</ele>
        <time>2019-11-11T07:21:52Z</time>
      </trkpt>
      <trkpt lat="49.3892" lon="1.05571">
        <ele>62.8</ele>
        <time>2019-11-11T07:21:53Z</time>
      </trkpt>
      <trkpt lat="49.38923" lon="1.05578">
        <ele>62.8</ele>
        <time>2019-11-11T07:21:54Z</time>
      </trkpt>
      <trkpt lat="49.38925" lon="1.05584">
        <ele>62.8</ele>
        <time>2019-11-11T07:21:55Z</time>
      </trkpt>
      <trkpt lat="49.38927" lon="1.0559">
        <ele>62.8</ele>
        <time>2019-11-11T07:21:56Z</time>
      </trkpt>
      <trkpt lat="49.3893" lon="1.05596">
        <ele>62.8</ele>
        <time>2019-11-11T07:21:57Z</time>
      </trkpt>
      <trkpt lat="49.38934" lon="1.05601">
        <ele>62.8</ele>
        <time>2019-11-11T07:21:58Z</time>
      </trkpt>
      <trkpt lat="49.38938" lon="1.05605">
        <ele>62.8</ele>
        <time>2019-11-11T07:21:59Z</time>
      </trkpt>
      <trkpt lat="49.38942" lon="1.05609">
        <ele>62.8</ele>
        <time>2019-11-11T07:22:00Z</time>
      </trkpt>
      <trkpt lat="49.38947" lon="1.05613">
        <ele>62.8</ele>
        <time>2019-11-11T07:22:01Z</time>
      </trkpt>
      <trkpt lat="49.38951" lon="1.05616">
        <ele>62.8</ele>
        <time>2019-11-11T07:22:02Z</time>
      </trkpt>
      <trkpt lat="49.38956" lon="1.05619">
        <ele>62.8</ele>
        <time>2019-11-11T07:22:03Z</time>
      </trkpt>
      <trkpt lat="49.3896" lon="1.05623">
        <ele>62.8</ele>
        <time>2019-11-11T07:22:04Z</time>
      </trkpt>
      <trkpt lat="49.38965" lon="1.05626">
        <ele>62.8</ele>
        <time>2019-11-11T07:22:05Z</time>
      </trkpt>
      <trkpt lat="49.38969" lon="1.05629">
        <ele>62.8</ele>
        <time>2019-11-11T07:22:06Z</time>
      </trkpt>
      <trkpt lat="49.38974" lon="1.05632">
        <ele>62.8</ele>
        <time>2019-11-11T07:22:07Z</time>
      </trkpt>
      <trkpt lat="49.38979" lon="1.05636">
        <ele>63.7</ele>
        <time>2019-11-11T07:22:08Z</time>
      </trkpt>
      <trkpt lat="49.38983" lon="1.05639">
        <ele>63.7</ele>
        <time>2019-11-11T07:22:09Z</time>
      </trkpt>
      <trkpt lat="49.38988" lon="1.05642">
        <ele>63.7</ele>
        <time>2019-11-11T07:22:10Z</time>
      </trkpt>
      <trkpt lat="49.38992" lon="1.05645">
        <ele>63.7</ele>
        <time>2019-11-11T07:22:11Z</time>
      </trkpt>
      <trkpt lat="49.38997" lon="1.05649">
        <ele>63.7</ele>
        <time>2019-11-11T07:22:12Z</time>
      </trkpt>
      <trkpt lat="49.39001" lon="1.05652">
        <ele>63.7</ele>
        <time>2019-11-11T07:22:13Z</time>
      </trkpt>
      <trkpt lat="49.39006" lon="1.05655">
        <ele>63.7</ele>
        <time>2019-11-11T07:22:14Z</time>
      </trkpt>
      <trkpt lat="49.3901" lon="1.05659">
        <ele>63.7</ele>
        <time>2019-11-11T07:22:15Z</time>
      </trkpt>
      <trkpt lat="49.39015" lon="1.05662">
        <ele>63.7</ele>
        <time>2019-11-11T07:22:16Z</time>
      </trkpt>
      <trkpt lat="49.39019" lon="1.05665">
        <ele>63.7</ele>
        <time>2019-11-11T07:22:17Z</time>
      </trkpt>
      <trkpt lat="49.39024" lon="1.05668">
        <ele>63.7</ele>
        <time>2019-11-11T07:22:18Z</time>
      </trkpt>
      <trkpt lat="49.39028" lon="1.05671">
        <ele>63.7</ele>
        <time>2019-11-11T07:22:19Z</time>
      </trkpt>
      <trkpt lat="49.39033" lon="1.05674">
        <ele>63.7</ele>
        <time>2019-11-11T07:22:20Z</time>
      </trkpt>
      <trkpt lat="49.39038" lon="1.05678">
        <ele>63.7</ele>
        <time>2019-11-11T07:22:21Z</time>
      </trkpt>
      <trkpt lat="49.39042" lon="1.05681">
        <ele>63.7</ele>
        <time>2019-11-11T07:22:22Z</time>
      </trkpt>
      <trkpt lat="49.39047" lon="1.05684">
        <ele>63.7</ele>
        <time>2019-11-11T07:22:23Z</time>
      </trkpt>
      <trkpt lat="49.39051" lon="1.05688">
        <ele>63.7</ele>
        <time>2019-11-11T07:22:24Z</time>
      </trkpt>
      <trkpt lat="49.39056" lon="1.05691">
        <ele>63.7</ele>
        <time>2019-11-11T07:22:25Z</time>
      </trkpt>
      <trkpt lat="49.39061" lon="1.05694">
        <ele>63.7</ele>
        <time>2019-11-11T07:22:26Z</time>
      </trkpt>
      <trkpt lat="49.39065" lon="1.05697">
        <ele>63.7</ele>
        <time>2019-11-11T07:22:27Z</time>
      </trkpt>
      <trkpt lat="49.3907" lon="1.057">
        <ele>63.7</ele>
        <time>2019-11-11T07:22:28Z</time>
      </trkpt>
      <trkpt lat="49.39074" lon="1.05704">
        <ele>63.7</ele>
        <time>2019-11-11T07:22:29Z</time>
      </trkpt>
      <trkpt lat="49.39079" lon="1.05707">
        <ele>63.7</ele>
        <time>2019-11-11T07:22:30Z</time>
      </trkpt>
      <trkpt lat="49.39084" lon="1.0571">
        <ele>63.7</ele>
        <time>2019-11-11T07:22:31Z</time>
      </trkpt>
      <trkpt lat="49.39089" lon="1.05714">
        <ele>63.7</ele>
        <time>2019-11-11T07:22:32Z</time>
      </trkpt>
      <trkpt lat="49.39093" lon="1.05717">
        <ele>63.7</ele>
        <time>2019-11-11T07:22:33Z</time>
      </trkpt>
      <trkpt lat="49.39098" lon="1.0572">
        <ele>63.7</ele>
        <time>2019-11-11T07:22:34Z</time>
      </trkpt>
      <trkpt lat="49.39103" lon="1.05724">
        <ele>63.7</ele>
        <time>2019-11-11T07:22:35Z</time>
      </trkpt>
      <trkpt lat="49.39107" lon="1.05727">
        <ele>63.7</ele>
        <time>2019-11-11T07:22:36Z</time>
      </trkpt>
      <trkpt lat="49.39112" lon="1.0573">
        <ele>63.7</ele>
        <time>2019-11-11T07:22:37Z</time>
      </trkpt>
      <trkpt lat="49.39117" lon="1.05733">
        <ele>63.7</ele>
        <time>2019-11-11T07:22:38Z</time>
      </trkpt>
      <trkpt lat="49.39121" lon="1.05737">
        <ele>63.7</ele>
        <time>2019-11-11T07:22:39Z</time>
      </trkpt>
      <trkpt lat="49.39125" lon="1.0574">
        <ele>63.7</ele>
        <time>2019-11-11T07:22:40Z</time>
      </trkpt>
      <trkpt lat="49.3913" lon="1.05744">
        <ele>63.7</ele>
        <time>2019-11-11T07:22:41Z</time>
      </trkpt>
      <trkpt lat="49.39134" lon="1.05747">
        <ele>63.7</ele>
        <time>2019-11-11T07:22:42Z</time>
      </trkpt>
      <trkpt lat="49.39138" lon="1.0575">
        <ele>63.7</ele>
        <time>2019-11-11T07:22:43Z</time>
      </trkpt>
      <trkpt lat="49.39142" lon="1.05753">
        <ele>63.7</ele>
        <time>2019-11-11T07:22:44Z</time>
      </trkpt>
      <trkpt lat="49.39146" lon="1.05756">
        <ele>63.7</ele>
        <time>2019-11-11T07:22:45Z</time>
      </trkpt>
      <trkpt lat="49.39151" lon="1.05758">
        <ele>63.7</ele>
        <time>2019-11-11T07:22:46Z</time>
      </trkpt>
      <trkpt lat="49.39155" lon="1.05761">
        <ele>63.7</ele>
        <time>2019-11-11T07:22:47Z</time>
      </trkpt>
      <trkpt lat="49.39159" lon="1.05764">
        <ele>63.7</ele>
        <time>2019-11-11T07:22:48Z</time>
      </trkpt>
      <trkpt lat="49.39163" lon="1.05767">
        <ele>63.7</ele>
        <time>2019-11-11T07:22:49Z</time>
      </trkpt>
      <trkpt lat="49.39166" lon="1.0577">
        <ele>63.7</ele>
        <time>2019-11-11T07:22:50Z</time>
      </trkpt>
      <trkpt lat="49.3917" lon="1.05772">
        <ele>63.7</ele>
        <time>2019-11-11T07:22:51Z</time>
      </trkpt>
      <trkpt lat="49.39174" lon="1.05775">
        <ele>63.7</ele>
        <time>2019-11-11T07:22:52Z</time>
      </trkpt>
      <trkpt lat="49.39178" lon="1.05779">
        <ele>63.7</ele>
        <time>2019-11-11T07:22:53Z</time>
      </trkpt>
      <trkpt lat="49.3918" lon="1.05784">
        <ele>63.7</ele>
        <time>2019-11-11T07:22:54Z</time>
      </trkpt>
      <trkpt lat="49.39183" lon="1.0579">
        <ele>63.7</ele>
        <time>2019-11-11T07:22:55Z</time>
      </trkpt>
      <trkpt lat="49.39185" lon="1.05796">
        <ele>63.7</ele>
        <time>2019-11-11T07:22:56Z</time>
      </trkpt>
      <trkpt lat="49.39186" lon="1.05803">
        <ele>63.7</ele>
        <time>2019-11-11T07:22:57Z</time>
      </trkpt>
      <trkpt lat="49.39188" lon="1.05809">
        <ele>63.7</ele>
        <time>2019-11-11T07:22:58Z</time>
      </trkpt>
      <trkpt lat="49.39189" lon="1.05816">
        <ele>63.7</ele>
        <time>2019-11-11T07:22:59Z</time>
      </trkpt>
      <trkpt lat="49.3919" lon="1.05824">
        <ele>63.7</ele>
        <time>2019-11-11T07:23:00Z</time>
      </trkpt>
      <trkpt lat="49.39191" lon="1.05831">
        <ele>63.7</ele>
        <time>2019-11-11T07:23:01Z</time>
      </trkpt>
      <trkpt lat="49.39192" lon="1.05838">
        <ele>63.7</ele>
        <time>2019-11-11T07:23:02Z</time>
      </trkpt>
      <trkpt lat="49.39192" lon="1.05845">
        <ele>63.7</ele>
        <time>2019-11-11T07:23:03Z</time>
      </trkpt>
      <trkpt lat="49.39191" lon="1.05852">
        <ele>63.7</ele>
        <time>2019-11-11T07:23:04Z</time>
      </trkpt>
      <trkpt lat="49.39188" lon="1.05858">
        <ele>63.7</ele>
        <time>2019-11-11T07:23:05Z</time>
      </trkpt>
      <trkpt lat="49.39185" lon="1.05862">
        <ele>63.7</ele>
        <time>2019-11-11T07:23:06Z</time>
      </trkpt>
      <trkpt lat="49.3918" lon="1.05865">
        <ele>63.7</ele>
        <time>2019-11-11T07:23:07Z</time>
      </trkpt>
      <trkpt lat="49.39176" lon="1.05866">
        <ele>63.7</ele>
        <time>2019-11-11T07:23:08Z</time>
      </trkpt>
      <trkpt lat="49.39171" lon="1.05867">
        <ele>63.7</ele>
        <time>2019-11-11T07:23:09Z</time>
      </trkpt>
      <trkpt lat="49.39166" lon="1.05868">
        <ele>63.7</ele>
        <time>2019-11-11T07:23:10Z</time>
      </trkpt>
      <trkpt lat="49.39162" lon="1.05869">
        <ele>63.7</ele>
        <time>2019-11-11T07:23:11Z</time>
      </trkpt>
      <trkpt lat="49.39158" lon="1.05871">
        <ele>63.7</ele>
        <time>2019-11-11T07:23:12Z</time>
      </trkpt>
      <trkpt lat="49.39153" lon="1.05872">
        <ele>63.7</ele>
        <time>2019-11-11T07:23:13Z</time>
      </trkpt>
      <trkpt lat="49.39149" lon="1.05874">
        <ele>63.7</ele>
        <time>2019-11-11T07:23:14Z</time>
      </trkpt>
      <trkpt lat="49.39144" lon="1.05874">
        <ele>63.7</ele>
        <time>2019-11-11T07:23:15Z</time>
      </trkpt>
      <trkpt lat="49.3914" lon="1.05875">
        <ele>64.8</ele>
        <time>2019-11-11T07:23:16Z</time>
      </trkpt>
      <trkpt lat="49.39135" lon="1.05876">
        <ele>64.8</ele>
        <time>2019-11-11T07:23:17Z</time>
      </trkpt>
      <trkpt lat="49.39131" lon="1.05877">
        <ele>64.8</ele>
        <time>2019-11-11T07:23:18Z</time>
      </trkpt>
      <trkpt lat="49.39126" lon="1.05878">
        <ele>64.8</ele>
        <time>2019-11-11T07:23:19Z</time>
      </trkpt>
      <trkpt lat="49.39121" lon="1.0588">
        <ele>64.8</ele>
        <time>2019-11-11T07:23:20Z</time>
      </trkpt>
      <trkpt lat="49.39116" lon="1.05881">
        <ele>64.8</ele>
        <time>2019-11-11T07:23:21Z</time>
      </trkpt>
      <trkpt lat="49.39112" lon="1.05882">
        <ele>64.8</ele>
        <time>2019-11-11T07:23:22Z</time>
      </trkpt>
      <trkpt lat="49.39107" lon="1.05884">
        <ele>64.8</ele>
        <time>2019-11-11T07:23:23Z</time>
      </trkpt>
      <trkpt lat="49.39102" lon="1.05885">
        <ele>65.7</ele>
        <time>2019-11-11T07:23:24Z</time>
      </trkpt>
      <trkpt lat="49.39097" lon="1.05887">
        <ele>65.7</ele>
        <time>2019-11-11T07:23:25Z</time>
      </trkpt>
      <trkpt lat="49.39093" lon="1.05889">
        <ele>65.7</ele>
        <time>2019-11-11T07:23:26Z</time>
      </trkpt>
      <trkpt lat="49.39088" lon="1.0589">
        <ele>65.7</ele>
        <time>2019-11-11T07:23:27Z</time>
      </trkpt>
      <trkpt lat="49.39083" lon="1.05891">
        <ele>65.7</ele>
        <time>2019-11-11T07:23:28Z</time>
      </trkpt>
      <trkpt lat="49.39078" lon="1.05892">
        <ele>65.7</ele>
        <time>2019-11-11T07:23:29Z</time>
      </trkpt>
      <trkpt lat="49.39073" lon="1.05894">
        <ele>65.7</ele>
        <time>2019-11-11T07:23:30Z</time>
      </trkpt>
      <trkpt lat="49.39068" lon="1.05895">
        <ele>65.7</ele>
        <time>2019-11-11T07:23:31Z</time>
      </trkpt>
      <trkpt lat="49.39063" lon="1.05896">
        <ele>65.7</ele>
        <time>2019-11-11T07:23:32Z</time>
      </trkpt>
      <trkpt lat="49.39059" lon="1.05898">
        <ele>65.7</ele>
        <time>2019-11-11T07:23:33Z</time>
      </trkpt>
      <trkpt lat="49.39054" lon="1.059">
        <ele>65.7</ele>
        <time>2019-11-11T07:23:34Z</time>
      </trkpt>
      <trkpt lat="49.39049" lon="1.05901">
        <ele>65.7</ele>
        <time>2019-11-11T07:23:35Z</time>
      </trkpt>
      <trkpt lat="49.39045" lon="1.05903">
        <ele>65.7</ele>
        <time>2019-11-11T07:23:36Z</time>
      </trkpt>
      <trkpt lat="49.3904" lon="1.05904">
        <ele>65.7</ele>
        <time>2019-11-11T07:23:37Z</time>
      </trkpt>
      <trkpt lat="49.39036" lon="1.05906">
        <ele>65.7</ele>
        <time>2019-11-11T07:23:38Z</time>
      </trkpt>
      <trkpt lat="49.39031" lon="1.05908">
        <ele>65.7</ele>
        <time>2019-11-11T07:23:39Z</time>
      </trkpt>
      <trkpt lat="49.39026" lon="1.05909">
        <ele>65.7</ele>
        <time>2019-11-11T07:23:40Z</time>
      </trkpt>
      <trkpt lat="49.39021" lon="1.0591">
        <ele>65.7</ele>
        <time>2019-11-11T07:23:41Z</time>
      </trkpt>
      <trkpt lat="49.39016" lon="1.05911">
        <ele>65.7</ele>
        <time>2019-11-11T07:23:42Z</time>
      </trkpt>
      <trkpt lat="49.3901" lon="1.05912">
        <ele>65.7</ele>
        <time>2019-11-11T07:23:43Z</time>
      </trkpt>
      <trkpt lat="49.39006" lon="1.05914">
        <ele>65.7</ele>
        <time>2019-11-11T07:23:44Z</time>
      </trkpt>
      <trkpt lat="49.39001" lon="1.05915">
        <ele>65.7</ele>
        <time>2019-11-11T07:23:45Z</time>
      </trkpt>
      <trkpt lat="49.38996" lon="1.05916">
        <ele>65.7</ele>
        <time>2019-11-11T07:23:46Z</time>
      </trkpt>
      <trkpt lat="49.38991" lon="1.05918">
        <ele>65.7</ele>
        <time>2019-11-11T07:23:47Z</time>
      </trkpt>
      <trkpt lat="49.38986" lon="1.0592">
        <ele>65.7</ele>
        <time>2019-11-11T07:23:48Z</time>
      </trkpt>
      <trkpt lat="49.38982" lon="1.05922">
        <ele>65.7</ele>
        <time>2019-11-11T07:23:49Z</time>
      </trkpt>
      <trkpt lat="49.38977" lon="1.05924">
        <ele>65.7</ele>
        <time>2019-11-11T07:23:50Z</time>
      </trkpt>
      <trkpt lat="49.38972" lon="1.05925">
        <ele>65.7</ele>
        <time>2019-11-11T07:23:51Z</time>
      </trkpt>
      <trkpt lat="49.38967" lon="1.05927">
        <ele>65.7</ele>
        <time>2019-11-11T07:23:52Z</time>
      </trkpt>
      <trkpt lat="49.38962" lon="1.05928">
        <ele>65.7</ele>
        <time>2019-11-11T07:23:53Z</time>
      </trkpt>
      <trkpt lat="49.38957" lon="1.05929">
        <ele>65.7</ele>
        <time>2019-11-11T07:23:54Z</time>
      </trkpt>
      <trkpt lat="49.38952" lon="1.05931">
        <ele>65.7</ele>
        <time>2019-11-11T07:23:55Z</time>
      </trkpt>
      <trkpt lat="49.38947" lon="1.05932">
        <ele>65.7</ele>
        <time>2019-11-11T07:23:56Z</time>
      </trkpt>
      <trkpt lat="49.38942" lon="1.05933">
        <ele>65.7</ele>
        <time>2019-11-11T07:23:57Z</time>
      </trkpt>
      <trkpt lat="49.38937" lon="1.05935">
        <ele>65.7</ele>
        <time>2019-11-11T07:23:58Z</time>
      </trkpt>
      <trkpt lat="49.38933" lon="1.05936">
        <ele>65.7</ele>
        <time>2019-11-11T07:23:59Z</time>
      </trkpt>
      <trkpt lat="49.38928" lon="1.05938">
        <ele>65.7</ele>
        <time>2019-11-11T07:24:00Z</time>
      </trkpt>
      <trkpt lat="49.38923" lon="1.05939">
        <ele>65.7</ele>
        <time>2019-11-11T07:24:01Z</time>
      </trkpt>
      <trkpt lat="49.38919" lon="1.0594">
        <ele>65.7</ele>
        <time>2019-11-11T07:24:02Z</time>
      </trkpt>
      <trkpt lat="49.38914" lon="1.05941">
        <ele>65.7</ele>
        <time>2019-11-11T07:24:03Z</time>
      </trkpt>
      <trkpt lat="49.3891" lon="1.05942">
        <ele>65.7</ele>
        <time>2019-11-11T07:24:04Z</time>
      </trkpt>
      <trkpt lat="49.38906" lon="1.05943">
        <ele>65.7</ele>
        <time>2019-11-11T07:24:05Z</time>
      </trkpt>
      <trkpt lat="49.38902" lon="1.05946">
        <ele>65.7</ele>
        <time>2019-11-11T07:24:06Z</time>
      </trkpt>
      <trkpt lat="49.38899" lon="1.05948">
        <ele>65.7</ele>
        <time>2019-11-11T07:24:07Z</time>
      </trkpt>
      <trkpt lat="49.38895" lon="1.05951">
        <ele>65.7</ele>
        <time>2019-11-11T07:24:08Z</time>
      </trkpt>
      <trkpt lat="49.38891" lon="1.05952">
        <ele>65.7</ele>
        <time>2019-11-11T07:24:09Z</time>
      </trkpt>
      <trkpt lat="49.38887" lon="1.05954">
        <ele>65.7</ele>
        <time>2019-11-11T07:24:10Z</time>
      </trkpt>
      <trkpt lat="49.38882" lon="1.05955">
        <ele>65.7</ele>
        <time>2019-11-11T07:24:11Z</time>
      </trkpt>
      <trkpt lat="49.38879" lon="1.05956">
        <ele>65.7</ele>
        <time>2019-11-11T07:24:12Z</time>
      </trkpt>
      <trkpt lat="49.38875" lon="1.05956">
        <ele>65.7</ele>
        <time>2019-11-11T07:24:13Z</time>
      </trkpt>
      <trkpt lat="49.38872" lon="1.05957">
        <ele>65.7</ele>
        <time>2019-11-11T07:24:14Z</time>
      </trkpt>
      <trkpt lat="49.38869" lon="1.05958">
        <ele>65.7</ele>
        <time>2019-11-11T07:24:15Z</time>
      </trkpt>
      <trkpt lat="49.38866" lon="1.05958">
        <ele>64.8</ele>
        <time>2019-11-11T07:24:16Z</time>
      </trkpt>
      <trkpt lat="49.38863" lon="1.05959">
        <ele>64.8</ele>
        <time>2019-11-11T07:24:17Z</time>
      </trkpt>
      <trkpt lat="49.3886" lon="1.0596">
        <ele>64.8</ele>
        <time>2019-11-11T07:24:18Z</time>
      </trkpt>
      <trkpt lat="49.38858" lon="1.05963">
        <ele>64.8</ele>
        <time>2019-11-11T07:24:19Z</time>
      </trkpt>
      <trkpt lat="49.38857" lon="1.05966">
        <ele>64.8</ele>
        <time>2019-11-11T07:24:20Z</time>
      </trkpt>
      <trkpt lat="49.38858" lon="1.0597">
        <ele>64.8</ele>
        <time>2019-11-11T07:24:21Z</time>
      </trkpt>
      <trkpt lat="49.38859" lon="1.05975">
        <ele>64.8</ele>
        <time>2019-11-11T07:24:22Z</time>
      </trkpt>
      <trkpt lat="49.38859" lon="1.05981">
        <ele>64.8</ele>
        <time>2019-11-11T07:24:23Z</time>
      </trkpt>
      <trkpt lat="49.3886" lon="1.05987">
        <ele>64.8</ele>
        <time>2019-11-11T07:24:24Z</time>
      </trkpt>
      <trkpt lat="49.3886" lon="1.05993">
        <ele>64.8</ele>
        <time>2019-11-11T07:24:25Z</time>
      </trkpt>
      <trkpt lat="49.3886" lon="1.06">
        <ele>64.8</ele>
        <time>2019-11-11T07:24:26Z</time>
      </trkpt>
      <trkpt lat="49.38859" lon="1.06006">
        <ele>64.8</ele>
        <time>2019-11-11T07:24:27Z</time>
      </trkpt>
      <trkpt lat="49.38858" lon="1.06012">
        <ele>64.8</ele>
        <time>2019-11-11T07:24:28Z</time>
      </trkpt>
      <trkpt lat="49.38856" lon="1.06019">
        <ele>64.8</ele>
        <time>2019-11-11T07:24:29Z</time>
      </trkpt>
      <trkpt lat="49.38854" lon="1.06025">
        <ele>64.8</ele>
        <time>2019-11-11T07:24:30Z</time>
      </trkpt>
      <trkpt lat="49.38852" lon="1.06031">
        <ele>64.8</ele>
        <time>2019-11-11T07:24:31Z</time>
      </trkpt>
      <trkpt lat="49.3885" lon="1.06037">
        <ele>64.8</ele>
        <time>2019-11-11T07:24:32Z</time>
      </trkpt>
      <trkpt lat="49.38849" lon="1.06044">
        <ele>64.8</ele>
        <time>2019-11-11T07:24:33Z</time>
      </trkpt>
      <trkpt lat="49.38847" lon="1.0605">
        <ele>64.8</ele>
        <time>2019-11-11T07:24:34Z</time>
      </trkpt>
      <trkpt lat="49.38845" lon="1.06056">
        <ele>64.8</ele>
        <time>2019-11-11T07:24:35Z</time>
      </trkpt>
      <trkpt lat="49.38843" lon="1.06063">
        <ele>64.8</ele>
        <time>2019-11-11T07:24:36Z</time>
      </trkpt>
      <trkpt lat="49.38841" lon="1.06069">
        <ele>64.8</ele>
        <time>2019-11-11T07:24:37Z</time>
      </trkpt>
      <trkpt lat="49.38839" lon="1.06075">
        <ele>64.8</ele>
        <time>2019-11-11T07:24:38Z</time>
      </trkpt>
      <trkpt lat="49.38838" lon="1.06081">
        <ele>64.8</ele>
        <time>2019-11-11T07:24:39Z</time>
      </trkpt>
      <trkpt lat="49.38836" lon="1.06088">
        <ele>64.8</ele>
        <time>2019-11-11T07:24:40Z</time>
      </trkpt>
      <trkpt lat="49.38835" lon="1.06094">
        <ele>64.8</ele>
        <time>2019-11-11T07:24:41Z</time>
      </trkpt>
      <trkpt lat="49.38833" lon="1.061">
        <ele>64.8</ele>
        <time>2019-11-11T07:24:42Z</time>
      </trkpt>
      <trkpt lat="49.38831" lon="1.06107">
        <ele>64.8</ele>
        <time>2019-11-11T07:24:43Z</time>
      </trkpt>
      <trkpt lat="49.38829" lon="1.06113">
        <ele>64.8</ele>
        <time>2019-11-11T07:24:44Z</time>
      </trkpt>
      <trkpt lat="49.38828" lon="1.06119">
        <ele>64.8</ele>
        <time>2019-11-11T07:24:45Z</time>
      </trkpt>
      <trkpt lat="49.38826" lon="1.06125">
        <ele>64.8</ele>
        <time>2019-11-11T07:24:46Z</time>
      </trkpt>
      <trkpt lat="49.38824" lon="1.06131">
        <ele>64.8</ele>
        <time>2019-11-11T07:24:47Z</time>
      </trkpt>
      <trkpt lat="49.38822" lon="1.06137">
        <ele>64.8</ele>
        <time>2019-11-11T07:24:48Z</time>
      </trkpt>
      <trkpt lat="49.38821" lon="1.06142">
        <ele>64.8</ele>
        <time>2019-11-11T07:24:49Z</time>
      </trkpt>
      <trkpt lat="49.38819" lon="1.06148">
        <ele>64.8</ele>
        <time>2019-11-11T07:24:50Z</time>
      </trkpt>
      <trkpt lat="49.38818" lon="1.06154">
        <ele>64.8</ele>
        <time>2019-11-11T07:24:51Z</time>
      </trkpt>
      <trkpt lat="49.38817" lon="1.06159">
        <ele>64.8</ele>
        <time>2019-11-11T07:24:52Z</time>
      </trkpt>
      <trkpt lat="49.38816" lon="1.06164">
        <ele>64.8</ele>
        <time>2019-11-11T07:24:53Z</time>
      </trkpt>
      <trkpt lat="49.38815" lon="1.06169">
        <ele>64.8</ele>
        <time>2019-11-11T07:24:54Z</time>
      </trkpt>
      <trkpt lat="49.38814" lon="1.06173">
        <ele>64.8</ele>
        <time>2019-11-11T07:24:55Z</time>
      </trkpt>
      <trkpt lat="49.38813" lon="1.06177">
        <ele>64.8</ele>
        <time>2019-11-11T07:24:56Z</time>
      </trkpt>
      <trkpt lat="49.38812" lon="1.06181">
        <ele>64.8</ele>
        <time>2019-11-11T07:24:57Z</time>
      </trkpt>
      <trkpt lat="49.38811" lon="1.06184">
        <ele>64.8</ele>
        <time>2019-11-11T07:24:58Z</time>
      </trkpt>
      <trkpt lat="49.3881" lon="1.06188">
        <ele>64.8</ele>
        <time>2019-11-11T07:24:59Z</time>
      </trkpt>
      <trkpt lat="49.38809" lon="1.06191">
        <ele>64.8</ele>
        <time>2019-11-11T07:25:00Z</time>
      </trkpt>
      <trkpt lat="49.3881" lon="1.06195">
        <ele>64.8</ele>
        <time>2019-11-11T07:25:01Z</time>
      </trkpt>
      <trkpt lat="49.38811" lon="1.06199">
        <ele>64.8</ele>
        <time>2019-11-11T07:25:02Z</time>
      </trkpt>
      <trkpt lat="49.38812" lon="1.06203">
        <ele>64.8</ele>
        <time>2019-11-11T07:25:03Z</time>
      </trkpt>
      <trkpt lat="49.38813" lon="1.06207">
        <ele>63.7</ele>
        <time>2019-11-11T07:25:04Z</time>
      </trkpt>
      <trkpt lat="49.38815" lon="1.0621">
        <ele>63.7</ele>
        <time>2019-11-11T07:25:05Z</time>
      </trkpt>
      <trkpt lat="49.38817" lon="1.06213">
        <ele>63.7</ele>
        <time>2019-11-11T07:25:06Z</time>
      </trkpt>
      <trkpt lat="49.38818" lon="1.06216">
        <ele>63.7</ele>
        <time>2019-11-11T07:25:07Z</time>
      </trkpt>
      <trkpt lat="49.38818" lon="1.06218">
        <ele>63.7</ele>
        <time>2019-11-11T07:25:08Z</time>
      </trkpt>
      <trkpt lat="49.38819" lon="1.06219">
        <ele>63.7</ele>
        <time>2019-11-11T07:25:09Z</time>
      </trkpt>
      <trkpt lat="49.38819" lon="1.0622">
        <ele>63.7</ele>
        <time>2019-11-11T07:25:10Z</time>
      </trkpt>
      <trkpt lat="49.3882" lon="1.0622">
        <ele>63.7</ele>
        <time>2019-11-11T07:25:11Z</time>
      </trkpt>
      <trkpt lat="49.3882" lon="1.0622">
        <ele>62.8</ele>
        <time>2019-11-11T07:25:12Z</time>
      </trkpt>
      <trkpt lat="49.38814" lon="1.06191">
        <ele>62.8</ele>
        <time>2019-11-11T07:28:32Z</time>
      </trkpt>
      <trkpt lat="49.38815" lon="1.06193">
        <ele>63.7</ele>
        <time>2019-11-11T07:28:33Z</time>
      </trkpt>
      <trkpt lat="49.38815" lon="1.06194">
        <ele>63.7</ele>
        <time>2019-11-11T07:28:34Z</time>
      </trkpt>
      <trkpt lat="49.38816" lon="1.06195">
        <ele>63.7</ele>
        <time>2019-11-11T07:28:35Z</time>
      </trkpt>
      <trkpt lat="49.38816" lon="1.06197">
        <ele>63.7</ele>
        <time>2019-11-11T07:28:36Z</time>
      </trkpt>
      <trkpt lat="49.38817" lon="1.06199">
        <ele>63.7</ele>
        <time>2019-11-11T07:28:37Z</time>
      </trkpt>
      <trkpt lat="49.38817" lon="1.062">
        <ele>63.7</ele>
        <time>2019-11-11T07:28:38Z</time>
      </trkpt>
      <trkpt lat="49.38817" lon="1.06202">
        <ele>63.7</ele>
        <time>2019-11-11T07:28:39Z</time>
      </trkpt>
      <trkpt lat="49.38818" lon="1.06203">
        <ele>63.7</ele>
        <time>2019-11-11T07:28:40Z</time>
      </trkpt>
      <trkpt lat="49.38818" lon="1.06205">
        <ele>63.7</ele>
        <time>2019-11-11T07:28:41Z</time>
      </trkpt>
      <trkpt lat="49.38819" lon="1.06207">
        <ele>63.7</ele>
        <time>2019-11-11T07:28:42Z</time>
      </trkpt>
      <trkpt lat="49.38819" lon="1.06209">
        <ele>63.7</ele>
        <time>2019-11-11T07:28:43Z</time>
      </trkpt>
      <trkpt lat="49.3882" lon="1.0621">
        <ele>63.7</ele>
        <time>2019-11-11T07:28:44Z</time>
      </trkpt>
      <trkpt lat="49.3882" lon="1.06212">
        <ele>63.7</ele>
        <time>2019-11-11T07:28:45Z</time>
      </trkpt>
      <trkpt lat="49.38821" lon="1.06213">
        <ele>63.7</ele>
        <time>2019-11-11T07:28:46Z</time>
      </trkpt>
      <trkpt lat="49.38821" lon="1.06215">
        <ele>63.7</ele>
        <time>2019-11-11T07:28:47Z</time>
      </trkpt>
      <trkpt lat="49.38822" lon="1.06216">
        <ele>63.7</ele>
        <time>2019-11-11T07:28:48Z</time>
      </trkpt>
      <trkpt lat="49.38822" lon="1.06217">
        <ele>63.7</ele>
        <time>2019-11-11T07:28:49Z</time>
      </trkpt>
      <trkpt lat="49.38822" lon="1.06216">
        <ele>63.7</ele>
        <time>2019-11-11T07:28:50Z</time>
      </trkpt>
      <trkpt lat="49.38822" lon="1.06215">
        <ele>63.7</ele>
        <time>2019-11-11T07:28:51Z</time>
      </trkpt>
      <trkpt lat="49.38822" lon="1.06214">
        <ele>63.7</ele>
        <time>2019-11-11T07:28:52Z</time>
      </trkpt>
      <trkpt lat="49.38822" lon="1.06214">
        <ele>63.7</ele>
        <time>2019-11-11T07:28:53Z</time>
      </trkpt>
      <trkpt lat="49.38821" lon="1.06208">
        <ele>63.7</ele>
        <time>2019-11-11T07:29:01Z</time>
      </trkpt>
      <trkpt lat="49.38821" lon="1.06207">
        <ele>63.7</ele>
        <time>2019-11-11T07:29:02Z</time>
      </trkpt>
      <trkpt lat="49.3882" lon="1.06205">
        <ele>63.7</ele>
        <time>2019-11-11T07:29:03Z</time>
      </trkpt>
      <trkpt lat="49.3882" lon="1.06204">
        <ele>63.7</ele>
        <time>2019-11-11T07:29:04Z</time>
      </trkpt>
      <trkpt lat="49.3882" lon="1.06202">
        <ele>63.7</ele>
        <time>2019-11-11T07:29:05Z</time>
      </trkpt>
      <trkpt lat="49.38819" lon="1.06201">
        <ele>63.7</ele>
        <time>2019-11-11T07:29:06Z</time>
      </trkpt>
      <trkpt lat="49.38819" lon="1.06199">
        <ele>63.7</ele>
        <time>2019-11-11T07:29:07Z</time>
      </trkpt>
      <trkpt lat="49.38818" lon="1.06198">
        <ele>63.7</ele>
        <time>2019-11-11T07:29:08Z</time>
      </trkpt>
      <trkpt lat="49.38817" lon="1.06196">
        <ele>63.7</ele>
        <time>2019-11-11T07:29:09Z</time>
      </trkpt>
      <trkpt lat="49.38817" lon="1.06195">
        <ele>63.7</ele>
        <time>2019-11-11T07:29:10Z</time>
      </trkpt>
      <trkpt lat="49.38816" lon="1.06193">
        <ele>63.7</ele>
        <time>2019-11-11T07:29:11Z</time>
      </trkpt>
      <trkpt lat="49.38816" lon="1.06192">
        <ele>63.7</ele>
        <time>2019-11-11T07:29:12Z</time>
      </trkpt>
      <trkpt lat="49.38815" lon="1.0619">
        <ele>63.7</ele>
        <time>2019-11-11T07:29:13Z</time>
      </trkpt>
      <trkpt lat="49.38815" lon="1.06189">
        <ele>63.7</ele>
        <time>2019-11-11T07:29:14Z</time>
      </trkpt>
      <trkpt lat="49.38814" lon="1.06188">
        <ele>63.7</ele>
        <time>2019-11-11T07:29:15Z</time>
      </trkpt>
      <trkpt lat="49.38814" lon="1.06187">
        <ele>63.7</ele>
        <time>2019-11-11T07:29:16Z</time>
      </trkpt>
      <trkpt lat="49.38814" lon="1.06187">
        <ele>63.7</ele>
        <time>2019-11-11T07:29:17Z</time>
      </trkpt>
      <trkpt lat="49.38814" lon="1.06187">
        <ele>63.7</ele>
        <time>2019-11-11T07:29:18Z</time>
      </trkpt>
      <trkpt lat="49.38809" lon="1.06182">
        <ele>63.7</ele>
        <time>2019-11-11T07:30:35Z</time>
      </trkpt>
      <trkpt lat="49.38809" lon="1.0618">
        <ele>63.7</ele>
        <time>2019-11-11T07:30:36Z</time>
      </trkpt>
      <trkpt lat="49.3881" lon="1.06177">
        <ele>63.7</ele>
        <time>2019-11-11T07:30:37Z</time>
      </trkpt>
      <trkpt lat="49.38811" lon="1.06174">
        <ele>63.7</ele>
        <time>2019-11-11T07:30:38Z</time>
      </trkpt>
      <trkpt lat="49.38813" lon="1.06172">
        <ele>63.7</ele>
        <time>2019-11-11T07:30:39Z</time>
      </trkpt>
      <trkpt lat="49.38814" lon="1.06169">
        <ele>63.7</ele>
        <time>2019-11-11T07:30:40Z</time>
      </trkpt>
      <trkpt lat="49.38815" lon="1.06167">
        <ele>63.7</ele>
        <time>2019-11-11T07:30:41Z</time>
      </trkpt>
      <trkpt lat="49.38816" lon="1.06163">
        <ele>63.7</ele>
        <time>2019-11-11T07:30:42Z</time>
      </trkpt>
      <trkpt lat="49.38817" lon="1.0616">
        <ele>63.7</ele>
        <time>2019-11-11T07:30:43Z</time>
      </trkpt>
      <trkpt lat="49.38817" lon="1.06156">
        <ele>63.7</ele>
        <time>2019-11-11T07:30:44Z</time>
      </trkpt>
      <trkpt lat="49.38818" lon="1.06152">
        <ele>63.7</ele>
        <time>2019-11-11T07:30:45Z</time>
      </trkpt>
      <trkpt lat="49.3882" lon="1.06147">
        <ele>63.7</ele>
        <time>2019-11-11T07:30:46Z</time>
      </trkpt>
      <trkpt lat="49.38821" lon="1.06143">
        <ele>63.7</ele>
        <time>2019-11-11T07:30:47Z</time>
      </trkpt>
      <trkpt lat="49.38822" lon="1.06138">
        <ele>63.7</ele>
        <time>2019-11-11T07:30:48Z</time>
      </trkpt>
      <trkpt lat="49.38824" lon="1.06133">
        <ele>63.7</ele>
        <time>2019-11-11T07:30:49Z</time>
      </trkpt>
      <trkpt lat="49.38825" lon="1.06128">
        <ele>63.7</ele>
        <time>2019-11-11T07:30:50Z</time>
      </trkpt>
      <trkpt lat="49.38826" lon="1.06123">
        <ele>63.7</ele>
        <time>2019-11-11T07:30:51Z</time>
      </trkpt>
      <trkpt lat="49.38828" lon="1.06117">
        <ele>63.7</ele>
        <time>2019-11-11T07:30:52Z</time>
      </trkpt>
      <trkpt lat="49.38829" lon="1.06112">
        <ele>63.7</ele>
        <time>2019-11-11T07:30:53Z</time>
      </trkpt>
      <trkpt lat="49.38831" lon="1.06107">
        <ele>63.7</ele>
        <time>2019-11-11T07:30:54Z</time>
      </trkpt>
      <trkpt lat="49.38832" lon="1.06103">
        <ele>63.7</ele>
        <time>2019-11-11T07:30:55Z</time>
      </trkpt>
      <trkpt lat="49.38833" lon="1.06098">
        <ele>63.7</ele>
        <time>2019-11-11T07:30:56Z</time>
      </trkpt>
      <trkpt lat="49.38835" lon="1.06093">
        <ele>63.7</ele>
        <time>2019-11-11T07:30:57Z</time>
      </trkpt>
      <trkpt lat="49.38836" lon="1.06088">
        <ele>63.7</ele>
        <time>2019-11-11T07:30:58Z</time>
      </trkpt>
      <trkpt lat="49.38838" lon="1.06083">
        <ele>63.7</ele>
        <time>2019-11-11T07:30:59Z</time>
      </trkpt>
      <trkpt lat="49.38839" lon="1.06078">
        <ele>63.7</ele>
        <time>2019-11-11T07:31:00Z</time>
      </trkpt>
      <trkpt lat="49.3884" lon="1.06074">
        <ele>63.7</ele>
        <time>2019-11-11T07:31:01Z</time>
      </trkpt>
      <trkpt lat="49.38842" lon="1.06069">
        <ele>63.7</ele>
        <time>2019-11-11T07:31:02Z</time>
      </trkpt>
      <trkpt lat="49.38844" lon="1.06064">
        <ele>63.7</ele>
        <time>2019-11-11T07:31:03Z</time>
      </trkpt>
      <trkpt lat="49.38845" lon="1.06059">
        <ele>63.7</ele>
        <time>2019-11-11T07:31:04Z</time>
      </trkpt>
      <trkpt lat="49.38847" lon="1.06054">
        <ele>63.7</ele>
        <time>2019-11-11T07:31:05Z</time>
      </trkpt>
      <trkpt lat="49.38848" lon="1.06048">
        <ele>63.7</ele>
        <time>2019-11-11T07:31:06Z</time>
      </trkpt>
      <trkpt lat="49.3885" lon="1.06043">
        <ele>63.7</ele>
        <time>2019-11-11T07:31:07Z</time>
      </trkpt>
      <trkpt lat="49.38851" lon="1.06038">
        <ele>63.7</ele>
        <time>2019-11-11T07:31:08Z</time>
      </trkpt>
      <trkpt lat="49.38852" lon="1.06033">
        <ele>63.7</ele>
        <time>2019-11-11T07:31:09Z</time>
      </trkpt>
      <trkpt lat="49.38854" lon="1.06028">
        <ele>63.7</ele>
        <time>2019-11-11T07:31:10Z</time>
      </trkpt>
      <trkpt lat="49.38855" lon="1.06024">
        <ele>63.7</ele>
        <time>2019-11-11T07:31:11Z</time>
      </trkpt>
      <trkpt lat="49.38857" lon="1.06019">
        <ele>63.7</ele>
        <time>2019-11-11T07:31:12Z</time>
      </trkpt>
      <trkpt lat="49.38859" lon="1.06014">
        <ele>63.7</ele>
        <time>2019-11-11T07:31:13Z</time>
      </trkpt>
      <trkpt lat="49.3886" lon="1.06009">
        <ele>63.7</ele>
        <time>2019-11-11T07:31:14Z</time>
      </trkpt>
      <trkpt lat="49.38861" lon="1.06004">
        <ele>63.7</ele>
        <time>2019-11-11T07:31:15Z</time>
      </trkpt>
      <trkpt lat="49.38862" lon="1.06">
        <ele>63.7</ele>
        <time>2019-11-11T07:31:16Z</time>
      </trkpt>
      <trkpt lat="49.38862" lon="1.05995">
        <ele>63.7</ele>
        <time>2019-11-11T07:31:17Z</time>
      </trkpt>
      <trkpt lat="49.38862" lon="1.05991">
        <ele>63.7</ele>
        <time>2019-11-11T07:31:18Z</time>
      </trkpt>
      <trkpt lat="49.38861" lon="1.05986">
        <ele>63.7</ele>
        <time>2019-11-11T07:31:19Z</time>
      </trkpt>
      <trkpt lat="49.38861" lon="1.05983">
        <ele>63.7</ele>
        <time>2019-11-11T07:31:20Z</time>
      </trkpt>
      <trkpt lat="49.38861" lon="1.05979">
        <ele>63.7</ele>
        <time>2019-11-11T07:31:21Z</time>
      </trkpt>
      <trkpt lat="49.3886" lon="1.05976">
        <ele>63.7</ele>
        <time>2019-11-11T07:31:22Z</time>
      </trkpt>
      <trkpt lat="49.3886" lon="1.05973">
        <ele>63.7</ele>
        <time>2019-11-11T07:31:23Z</time>
      </trkpt>
      <trkpt lat="49.3886" lon="1.0597">
        <ele>63.7</ele>
        <time>2019-11-11T07:31:24Z</time>
      </trkpt>
      <trkpt lat="49.38861" lon="1.05968">
        <ele>63.7</ele>
        <time>2019-11-11T07:31:25Z</time>
      </trkpt>
      <trkpt lat="49.38861" lon="1.05968">
        <ele>63.7</ele>
        <time>2019-11-11T07:31:26Z</time>
      </trkpt>
      <trkpt lat="49.38861" lon="1.05967">
        <ele>63.7</ele>
        <time>2019-11-11T07:31:27Z</time>
      </trkpt>
      <trkpt lat="49.38858" lon="1.05963">
        <ele>63.7</ele>
        <time>2019-11-11T07:31:45Z</time>
      </trkpt>
      <trkpt lat="49.38857" lon="1.05962">
        <ele>63.7</ele>
        <time>2019-11-11T07:31:46Z</time>
      </trkpt>
      <trkpt lat="49.38855" lon="1.05961">
        <ele>63.7</ele>
        <time>2019-11-11T07:31:47Z</time>
      </trkpt>
      <trkpt lat="49.38852" lon="1.05961">
        <ele>63.7</ele>
        <time>2019-11-11T07:31:48Z</time>
      </trkpt>
      <trkpt lat="49.3885" lon="1.05962">
        <ele>63.7</ele>
        <time>2019-11-11T07:31:49Z</time>
      </trkpt>
      <trkpt lat="49.38847" lon="1.05962">
        <ele>63.7</ele>
        <time>2019-11-11T07:31:50Z</time>
      </trkpt>
      <trkpt lat="49.38844" lon="1.05963">
        <ele>63.7</ele>
        <time>2019-11-11T07:31:51Z</time>
      </trkpt>
      <trkpt lat="49.38841" lon="1.05963">
        <ele>63.7</ele>
        <time>2019-11-11T07:31:52Z</time>
      </trkpt>
      <trkpt lat="49.38838" lon="1.05963">
        <ele>63.7</ele>
        <time>2019-11-11T07:31:53Z</time>
      </trkpt>
      <trkpt lat="49.38835" lon="1.05963">
        <ele>63.7</ele>
        <time>2019-11-11T07:31:54Z</time>
      </trkpt>
      <trkpt lat="49.38831" lon="1.05963">
        <ele>63.7</ele>
        <time>2019-11-11T07:31:55Z</time>
      </trkpt>
      <trkpt lat="49.38828" lon="1.05964">
        <ele>63.7</ele>
        <time>2019-11-11T07:31:56Z</time>
      </trkpt>
      <trkpt lat="49.38824" lon="1.05965">
        <ele>63.7</ele>
        <time>2019-11-11T07:31:57Z</time>
      </trkpt>
      <trkpt lat="49.38821" lon="1.05967">
        <ele>63.7</ele>
        <time>2019-11-11T07:31:58Z</time>
      </trkpt>
      <trkpt lat="49.38818" lon="1.05968">
        <ele>63.7</ele>
        <time>2019-11-11T07:31:59Z</time>
      </trkpt>
      <trkpt lat="49.38814" lon="1.05969">
        <ele>63.7</ele>
        <time>2019-11-11T07:32:00Z</time>
      </trkpt>
      <trkpt lat="49.38811" lon="1.0597">
        <ele>64.8</ele>
        <time>2019-11-11T07:32:01Z</time>
      </trkpt>
      <trkpt lat="49.38807" lon="1.05971">
        <ele>64.8</ele>
        <time>2019-11-11T07:32:02Z</time>
      </trkpt>
      <trkpt lat="49.38804" lon="1.05972">
        <ele>64.8</ele>
        <time>2019-11-11T07:32:03Z</time>
      </trkpt>
      <trkpt lat="49.388" lon="1.05973">
        <ele>64.8</ele>
        <time>2019-11-11T07:32:04Z</time>
      </trkpt>
      <trkpt lat="49.38797" lon="1.05974">
        <ele>64.8</ele>
        <time>2019-11-11T07:32:05Z</time>
      </trkpt>
      <trkpt lat="49.38793" lon="1.05975">
        <ele>64.8</ele>
        <time>2019-11-11T07:32:06Z</time>
      </trkpt>
      <trkpt lat="49.3879" lon="1.05977">
        <ele>64.8</ele>
        <time>2019-11-11T07:32:07Z</time>
      </trkpt>
      <trkpt lat="49.38786" lon="1.05978">
        <ele>64.8</ele>
        <time>2019-11-11T07:32:08Z</time>
      </trkpt>
      <trkpt lat="49.38782" lon="1.05979">
        <ele>64.8</ele>
        <time>2019-11-11T07:32:09Z</time>
      </trkpt>
      <trkpt lat="49.38778" lon="1.0598">
        <ele>64.8</ele>
        <time>2019-11-11T07:32:10Z</time>
      </trkpt>
      <trkpt lat="49.38774" lon="1.05982">
        <ele>64.8</ele>
        <time>2019-11-11T07:32:11Z</time>
      </trkpt>
      <trkpt lat="49.3877" lon="1.05983">
        <ele>64.8</ele>
        <time>2019-11-11T07:32:12Z</time>
      </trkpt>
      <trkpt lat="49.38766" lon="1.05984">
        <ele>64.8</ele>
        <time>2019-11-11T07:32:13Z</time>
      </trkpt>
      <trkpt lat="49.38762" lon="1.05985">
        <ele>64.8</ele>
        <time>2019-11-11T07:32:14Z</time>
      </trkpt>
      <trkpt lat="49.38757" lon="1.05986">
        <ele>64.8</ele>
        <time>2019-11-11T07:32:15Z</time>
      </trkpt>
      <trkpt lat="49.38753" lon="1.05987">
        <ele>64.8</ele>
        <time>2019-11-11T07:32:16Z</time>
      </trkpt>
      <trkpt lat="49.38749" lon="1.05989">
        <ele>64.8</ele>
        <time>2019-11-11T07:32:17Z</time>
      </trkpt>
      <trkpt lat="49.38745" lon="1.0599">
        <ele>64.8</ele>
        <time>2019-11-11T07:32:18Z</time>
      </trkpt>
      <trkpt lat="49.38741" lon="1.05991">
        <ele>64.8</ele>
        <time>2019-11-11T07:32:19Z</time>
      </trkpt>
      <trkpt lat="49.38736" lon="1.05992">
        <ele>64.8</ele>
        <time>2019-11-11T07:32:20Z</time>
      </trkpt>
      <trkpt lat="49.38732" lon="1.05994">
        <ele>64.8</ele>
        <time>2019-11-11T07:32:21Z</time>
      </trkpt>
      <trkpt lat="49.38727" lon="1.05995">
        <ele>64.8</ele>
        <time>2019-11-11T07:32:22Z</time>
      </trkpt>
      <trkpt lat="49.38723" lon="1.05996">
        <ele>64.8</ele>
        <time>2019-11-11T07:32:23Z</time>
      </trkpt>
      <trkpt lat="49.38719" lon="1.05998">
        <ele>64.8</ele>
        <time>2019-11-11T07:32:24Z</time>
      </trkpt>
      <trkpt lat="49.38715" lon="1.05999">
        <ele>64.8</ele>
        <time>2019-11-11T07:32:25Z</time>
      </trkpt>
      <trkpt lat="49.38711" lon="1.06">
        <ele>64.8</ele>
        <time>2019-11-11T07:32:26Z</time>
      </trkpt>
      <trkpt lat="49.38706" lon="1.06001">
        <ele>64.8</ele>
        <time>2019-11-11T07:32:27Z</time>
      </trkpt>
      <trkpt lat="49.38702" lon="1.06003">
        <ele>64.8</ele>
        <time>2019-11-11T07:32:28Z</time>
      </trkpt>
      <trkpt lat="49.38698" lon="1.06004">
        <ele>64.8</ele>
        <time>2019-11-11T07:32:29Z</time>
      </trkpt>
      <trkpt lat="49.38693" lon="1.06006">
        <ele>64.8</ele>
        <time>2019-11-11T07:32:30Z</time>
      </trkpt>
      <trkpt lat="49.38689" lon="1.06007">
        <ele>64.8</ele>
        <time>2019-11-11T07:32:31Z</time>
      </trkpt>
      <trkpt lat="49.38685" lon="1.06008">
        <ele>64.8</ele>
        <time>2019-11-11T07:32:32Z</time>
      </trkpt>
      <trkpt lat="49.38681" lon="1.06009">
        <ele>64.8</ele>
        <time>2019-11-11T07:32:33Z</time>
      </trkpt>
      <trkpt lat="49.38677" lon="1.06011">
        <ele>64.8</ele>
        <time>2019-11-11T07:32:34Z</time>
      </trkpt>
      <trkpt lat="49.38672" lon="1.06012">
        <ele>64.8</ele>
        <time>2019-11-11T07:32:35Z</time>
      </trkpt>
      <trkpt lat="49.38668" lon="1.06014">
        <ele>64.8</ele>
        <time>2019-11-11T07:32:36Z</time>
      </trkpt>
      <trkpt lat="49.38664" lon="1.06015">
        <ele>64.8</ele>
        <time>2019-11-11T07:32:37Z</time>
      </trkpt>
      <trkpt lat="49.38659" lon="1.06016">
        <ele>64.8</ele>
        <time>2019-11-11T07:32:38Z</time>
      </trkpt>
      <trkpt lat="49.38655" lon="1.06017">
        <ele>64.8</ele>
        <time>2019-11-11T07:32:39Z</time>
      </trkpt>
      <trkpt lat="49.3865" lon="1.06019">
        <ele>64.8</ele>
        <time>2019-11-11T07:32:40Z</time>
      </trkpt>
      <trkpt lat="49.38646" lon="1.0602">
        <ele>64.8</ele>
        <time>2019-11-11T07:32:41Z</time>
      </trkpt>
      <trkpt lat="49.38642" lon="1.06022">
        <ele>64.8</ele>
        <time>2019-11-11T07:32:42Z</time>
      </trkpt>
      <trkpt lat="49.38638" lon="1.06023">
        <ele>64.8</ele>
        <time>2019-11-11T07:32:43Z</time>
      </trkpt>
      <trkpt lat="49.38634" lon="1.06024">
        <ele>64.8</ele>
        <time>2019-11-11T07:32:44Z</time>
      </trkpt>
      <trkpt lat="49.38629" lon="1.06025">
        <ele>64.8</ele>
        <time>2019-11-11T07:32:45Z</time>
      </trkpt>
      <trkpt lat="49.38625" lon="1.06027">
        <ele>64.8</ele>
        <time>2019-11-11T07:32:46Z</time>
      </trkpt>
      <trkpt lat="49.38621" lon="1.06028">
        <ele>64.8</ele>
        <time>2019-11-11T07:32:47Z</time>
      </trkpt>
      <trkpt lat="49.38616" lon="1.0603">
        <ele>64.8</ele>
        <time>2019-11-11T07:32:48Z</time>
      </trkpt>
      <trkpt lat="49.38612" lon="1.06031">
        <ele>64.8</ele>
        <time>2019-11-11T07:32:49Z</time>
      </trkpt>
      <trkpt lat="49.38608" lon="1.06032">
        <ele>64.8</ele>
        <time>2019-11-11T07:32:50Z</time>
      </trkpt>
      <trkpt lat="49.38604" lon="1.06033">
        <ele>64.8</ele>
        <time>2019-11-11T07:32:51Z</time>
      </trkpt>
      <trkpt lat="49.386" lon="1.06034">
        <ele>64.8</ele>
        <time>2019-11-11T07:32:52Z</time>
      </trkpt>
      <trkpt lat="49.38595" lon="1.06035">
        <ele>64.8</ele>
        <time>2019-11-11T07:32:53Z</time>
      </trkpt>
      <trkpt lat="49.38591" lon="1.06036">
        <ele>64.8</ele>
        <time>2019-11-11T07:32:54Z</time>
      </trkpt>
      <trkpt lat="49.38587" lon="1.06037">
        <ele>64.8</ele>
        <time>2019-11-11T07:32:55Z</time>
      </trkpt>
      <trkpt lat="49.38583" lon="1.06039">
        <ele>64.8</ele>
        <time>2019-11-11T07:32:56Z</time>
      </trkpt>
      <trkpt lat="49.38578" lon="1.0604">
        <ele>64.8</ele>
        <time>2019-11-11T07:32:57Z</time>
      </trkpt>
      <trkpt lat="49.38574" lon="1.06042">
        <ele>64.8</ele>
        <time>2019-11-11T07:32:58Z</time>
      </trkpt>
      <trkpt lat="49.38569" lon="1.06043">
        <ele>64.8</ele>
        <time>2019-11-11T07:32:59Z</time>
      </trkpt>
      <trkpt lat="49.38565" lon="1.06045">
        <ele>64.8</ele>
        <time>2019-11-11T07:33:00Z</time>
      </trkpt>
      <trkpt lat="49.3856" lon="1.06046">
        <ele>64.8</ele>
        <time>2019-11-11T07:33:01Z</time>
      </trkpt>
      <trkpt lat="49.38556" lon="1.06048">
        <ele>64.8</ele>
        <time>2019-11-11T07:33:02Z</time>
      </trkpt>
      <trkpt lat="49.38551" lon="1.06049">
        <ele>64.8</ele>
        <time>2019-11-11T07:33:03Z</time>
      </trkpt>
      <trkpt lat="49.38548" lon="1.06051">
        <ele>64.8</ele>
        <time>2019-11-11T07:33:04Z</time>
      </trkpt>
      <trkpt lat="49.38543" lon="1.06052">
        <ele>64.8</ele>
        <time>2019-11-11T07:33:05Z</time>
      </trkpt>
      <trkpt lat="49.38539" lon="1.06053">
        <ele>64.8</ele>
        <time>2019-11-11T07:33:06Z</time>
      </trkpt>
      <trkpt lat="49.38534" lon="1.06054">
        <ele>64.8</ele>
        <time>2019-11-11T07:33:07Z</time>
      </trkpt>
      <trkpt lat="49.3853" lon="1.06056">
        <ele>64.8</ele>
        <time>2019-11-11T07:33:08Z</time>
      </trkpt>
      <trkpt lat="49.38526" lon="1.06057">
        <ele>65.7</ele>
        <time>2019-11-11T07:33:09Z</time>
      </trkpt>
      <trkpt lat="49.38521" lon="1.06059">
        <ele>65.7</ele>
        <time>2019-11-11T07:33:10Z</time>
      </trkpt>
      <trkpt lat="49.38517" lon="1.06061">
        <ele>65.7</ele>
        <time>2019-11-11T07:33:11Z</time>
      </trkpt>
      <trkpt lat="49.38512" lon="1.06062">
        <ele>65.7</ele>
        <time>2019-11-11T07:33:12Z</time>
      </trkpt>
      <trkpt lat="49.38508" lon="1.06063">
        <ele>65.7</ele>
        <time>2019-11-11T07:33:13Z</time>
      </trkpt>
      <trkpt lat="49.38504" lon="1.06065">
        <ele>65.7</ele>
        <time>2019-11-11T07:33:14Z</time>
      </trkpt>
      <trkpt lat="49.385" lon="1.06066">
        <ele>65.7</ele>
        <time>2019-11-11T07:33:15Z</time>
      </trkpt>
      <trkpt lat="49.38495" lon="1.06067">
        <ele>65.7</ele>
        <time>2019-11-11T07:33:16Z</time>
      </trkpt>
      <trkpt lat="49.38491" lon="1.06069">
        <ele>65.7</ele>
        <time>2019-11-11T07:33:17Z</time>
      </trkpt>
      <trkpt lat="49.38486" lon="1.0607">
        <ele>65.7</ele>
        <time>2019-11-11T07:33:18Z</time>
      </trkpt>
      <trkpt lat="49.38482" lon="1.0607">
        <ele>65.7</ele>
        <time>2019-11-11T07:33:19Z</time>
      </trkpt>
      <trkpt lat="49.38478" lon="1.06071">
        <ele>65.7</ele>
        <time>2019-11-11T07:33:20Z</time>
      </trkpt>
      <trkpt lat="49.38474" lon="1.06072">
        <ele>65.7</ele>
        <time>2019-11-11T07:33:21Z</time>
      </trkpt>
      <trkpt lat="49.38469" lon="1.06074">
        <ele>65.7</ele>
        <time>2019-11-11T07:33:22Z</time>
      </trkpt>
      <trkpt lat="49.38464" lon="1.06075">
        <ele>65.7</ele>
        <time>2019-11-11T07:33:23Z</time>
      </trkpt>
      <trkpt lat="49.38459" lon="1.06076">
        <ele>65.7</ele>
        <time>2019-11-11T07:33:24Z</time>
      </trkpt>
      <trkpt lat="49.38455" lon="1.06077">
        <ele>64.8</ele>
        <time>2019-11-11T07:33:25Z</time>
      </trkpt>
      <trkpt lat="49.38451" lon="1.06079">
        <ele>64.8</ele>
        <time>2019-11-11T07:33:26Z</time>
      </trkpt>
      <trkpt lat="49.38446" lon="1.0608">
        <ele>64.8</ele>
        <time>2019-11-11T07:33:27Z</time>
      </trkpt>
      <trkpt lat="49.38442" lon="1.06081">
        <ele>64.8</ele>
        <time>2019-11-11T07:33:28Z</time>
      </trkpt>
      <trkpt lat="49.38438" lon="1.06083">
        <ele>64.8</ele>
        <time>2019-11-11T07:33:29Z</time>
      </trkpt>
      <trkpt lat="49.38434" lon="1.06085">
        <ele>64.8</ele>
        <time>2019-11-11T07:33:30Z</time>
      </trkpt>
      <trkpt lat="49.38429" lon="1.06087">
        <ele>64.8</ele>
        <time>2019-11-11T07:33:31Z</time>
      </trkpt>
      <trkpt lat="49.38425" lon="1.06088">
        <ele>64.8</ele>
        <time>2019-11-11T07:33:32Z</time>
      </trkpt>
      <trkpt lat="49.38421" lon="1.0609">
        <ele>64.8</ele>
        <time>2019-11-11T07:33:33Z</time>
      </trkpt>
      <trkpt lat="49.38417" lon="1.06091">
        <ele>64.8</ele>
        <time>2019-11-11T07:33:34Z</time>
      </trkpt>
      <trkpt lat="49.38413" lon="1.06092">
        <ele>64.8</ele>
        <time>2019-11-11T07:33:35Z</time>
      </trkpt>
      <trkpt lat="49.38409" lon="1.06094">
        <ele>64.8</ele>
        <time>2019-11-11T07:33:36Z</time>
      </trkpt>
      <trkpt lat="49.38405" lon="1.06095">
        <ele>64.8</ele>
        <time>2019-11-11T07:33:37Z</time>
      </trkpt>
      <trkpt lat="49.38401" lon="1.06096">
        <ele>64.8</ele>
        <time>2019-11-11T07:33:38Z</time>
      </trkpt>
      <trkpt lat="49.38397" lon="1.06097">
        <ele>64.8</ele>
        <time>2019-11-11T07:33:39Z</time>
      </trkpt>
      <trkpt lat="49.38392" lon="1.06098">
        <ele>64.8</ele>
        <time>2019-11-11T07:33:40Z</time>
      </trkpt>
      <trkpt lat="49.38388" lon="1.06099">
        <ele>64.8</ele>
        <time>2019-11-11T07:33:41Z</time>
      </trkpt>
      <trkpt lat="49.38384" lon="1.061">
        <ele>64.8</ele>
        <time>2019-11-11T07:33:42Z</time>
      </trkpt>
      <trkpt lat="49.38379" lon="1.06101">
        <ele>64.8</ele>
        <time>2019-11-11T07:33:43Z</time>
      </trkpt>
      <trkpt lat="49.38375" lon="1.06102">
        <ele>64.8</ele>
        <time>2019-11-11T07:33:44Z</time>
      </trkpt>
      <trkpt lat="49.38371" lon="1.06104">
        <ele>64.8</ele>
        <time>2019-11-11T07:33:45Z</time>
      </trkpt>
      <trkpt lat="49.38366" lon="1.06105">
        <ele>64.8</ele>
        <time>2019-11-11T07:33:46Z</time>
      </trkpt>
      <trkpt lat="49.38362" lon="1.06106">
        <ele>64.8</ele>
        <time>2019-11-11T07:33:47Z</time>
      </trkpt>
      <trkpt lat="49.38358" lon="1.06107">
        <ele>64.8</ele>
        <time>2019-11-11T07:33:48Z</time>
      </trkpt>
      <trkpt lat="49.38354" lon="1.06108">
        <ele>64.8</ele>
        <time>2019-11-11T07:33:49Z</time>
      </trkpt>
      <trkpt lat="49.38349" lon="1.06109">
        <ele>64.8</ele>
        <time>2019-11-11T07:33:50Z</time>
      </trkpt>
      <trkpt lat="49.38345" lon="1.06111">
        <ele>64.8</ele>
        <time>2019-11-11T07:33:51Z</time>
      </trkpt>
      <trkpt lat="49.38341" lon="1.06112">
        <ele>64.8</ele>
        <time>2019-11-11T07:33:52Z</time>
      </trkpt>
      <trkpt lat="49.38336" lon="1.06113">
        <ele>64.8</ele>
        <time>2019-11-11T07:33:53Z</time>
      </trkpt>
      <trkpt lat="49.38332" lon="1.06115">
        <ele>64.8</ele>
        <time>2019-11-11T07:33:54Z</time>
      </trkpt>
      <trkpt lat="49.38327" lon="1.06116">
        <ele>64.8</ele>
        <time>2019-11-11T07:33:55Z</time>
      </trkpt>
      <trkpt lat="49.38323" lon="1.06118">
        <ele>64.8</ele>
        <time>2019-11-11T07:33:56Z</time>
      </trkpt>
      <trkpt lat="49.38318" lon="1.06119">
        <ele>64.8</ele>
        <time>2019-11-11T07:33:57Z</time>
      </trkpt>
      <trkpt lat="49.38313" lon="1.06121">
        <ele>64.8</ele>
        <time>2019-11-11T07:33:58Z</time>
      </trkpt>
      <trkpt lat="49.38309" lon="1.06122">
        <ele>65.7</ele>
        <time>2019-11-11T07:33:59Z</time>
      </trkpt>
      <trkpt lat="49.38305" lon="1.06123">
        <ele>65.7</ele>
        <time>2019-11-11T07:34:00Z</time>
      </trkpt>
      <trkpt lat="49.38301" lon="1.06124">
        <ele>65.7</ele>
        <time>2019-11-11T07:34:01Z</time>
      </trkpt>
      <trkpt lat="49.38296" lon="1.06126">
        <ele>65.7</ele>
        <time>2019-11-11T07:34:02Z</time>
      </trkpt>
      <trkpt lat="49.38292" lon="1.06127">
        <ele>65.7</ele>
        <time>2019-11-11T07:34:03Z</time>
      </trkpt>
      <trkpt lat="49.38288" lon="1.06128">
        <ele>65.7</ele>
        <time>2019-11-11T07:34:04Z</time>
      </trkpt>
      <trkpt lat="49.38283" lon="1.06129">
        <ele>65.7</ele>
        <time>2019-11-11T07:34:05Z</time>
      </trkpt>
      <trkpt lat="49.38279" lon="1.0613">
        <ele>65.7</ele>
        <time>2019-11-11T07:34:06Z</time>
      </trkpt>
      <trkpt lat="49.38274" lon="1.06131">
        <ele>65.7</ele>
        <time>2019-11-11T07:34:07Z</time>
      </trkpt>
      <trkpt lat="49.3827" lon="1.06133">
        <ele>65.7</ele>
        <time>2019-11-11T07:34:08Z</time>
      </trkpt>
      <trkpt lat="49.38266" lon="1.06134">
        <ele>65.7</ele>
        <time>2019-11-11T07:34:09Z</time>
      </trkpt>
      <trkpt lat="49.38261" lon="1.06135">
        <ele>65.7</ele>
        <time>2019-11-11T07:34:10Z</time>
      </trkpt>
      <trkpt lat="49.38256" lon="1.06136">
        <ele>65.7</ele>
        <time>2019-11-11T07:34:11Z</time>
      </trkpt>
      <trkpt lat="49.38251" lon="1.06137">
        <ele>65.7</ele>
        <time>2019-11-11T07:34:12Z</time>
      </trkpt>
      <trkpt lat="49.38247" lon="1.06138">
        <ele>65.7</ele>
        <time>2019-11-11T07:34:13Z</time>
      </trkpt>
      <trkpt lat="49.38242" lon="1.0614">
        <ele>65.7</ele>
        <time>2019-11-11T07:34:14Z</time>
      </trkpt>
      <trkpt lat="49.38238" lon="1.06141">
        <ele>66.8</ele>
        <time>2019-11-11T07:34:15Z</time>
      </trkpt>
      <trkpt lat="49.38234" lon="1.06142">
        <ele>66.8</ele>
        <time>2019-11-11T07:34:16Z</time>
      </trkpt>
      <trkpt lat="49.38229" lon="1.06143">
        <ele>66.8</ele>
        <time>2019-11-11T07:34:17Z</time>
      </trkpt>
      <trkpt lat="49.38225" lon="1.06145">
        <ele>66.8</ele>
        <time>2019-11-11T07:34:18Z</time>
      </trkpt>
      <trkpt lat="49.38221" lon="1.06146">
        <ele>66.8</ele>
        <time>2019-11-11T07:34:19Z</time>
      </trkpt>
      <trkpt lat="49.38217" lon="1.06147">
        <ele>66.8</ele>
        <time>2019-11-11T07:34:20Z</time>
      </trkpt>
      <trkpt lat="49.38213" lon="1.06148">
        <ele>66.8</ele>
        <time>2019-11-11T07:34:21Z</time>
      </trkpt>
      <trkpt lat="49.38208" lon="1.0615">
        <ele>66.8</ele>
        <time>2019-11-11T07:34:22Z</time>
      </trkpt>
      <trkpt lat="49.38204" lon="1.06151">
        <ele>66.8</ele>
        <time>2019-11-11T07:34:23Z</time>
      </trkpt>
      <trkpt lat="49.38199" lon="1.06153">
        <ele>66.8</ele>
        <time>2019-11-11T07:34:24Z</time>
      </trkpt>
      <trkpt lat="49.38195" lon="1.06154">
        <ele>66.8</ele>
        <time>2019-11-11T07:34:25Z</time>
      </trkpt>
      <trkpt lat="49.3819" lon="1.06156">
        <ele>66.8</ele>
        <time>2019-11-11T07:34:26Z</time>
      </trkpt>
      <trkpt lat="49.38186" lon="1.06157">
        <ele>67.8</ele>
        <time>2019-11-11T07:34:27Z</time>
      </trkpt>
      <trkpt lat="49.38182" lon="1.06158">
        <ele>67.8</ele>
        <time>2019-11-11T07:34:28Z</time>
      </trkpt>
      <trkpt lat="49.38177" lon="1.06159">
        <ele>67.8</ele>
        <time>2019-11-11T07:34:29Z</time>
      </trkpt>
      <trkpt lat="49.38173" lon="1.06161">
        <ele>67.8</ele>
        <time>2019-11-11T07:34:30Z</time>
      </trkpt>
      <trkpt lat="49.38168" lon="1.06162">
        <ele>67.8</ele>
        <time>2019-11-11T07:34:31Z</time>
      </trkpt>
      <trkpt lat="49.38164" lon="1.06163">
        <ele>67.8</ele>
        <time>2019-11-11T07:34:32Z</time>
      </trkpt>
      <trkpt lat="49.38159" lon="1.06164">
        <ele>67.8</ele>
        <time>2019-11-11T07:34:33Z</time>
      </trkpt>
      <trkpt lat="49.38155" lon="1.06165">
        <ele>67.8</ele>
        <time>2019-11-11T07:34:34Z</time>
      </trkpt>
      <trkpt lat="49.3815" lon="1.06167">
        <ele>67.8</ele>
        <time>2019-11-11T07:34:35Z</time>
      </trkpt>
      <trkpt lat="49.38146" lon="1.06169">
        <ele>67.8</ele>
        <time>2019-11-11T07:34:36Z</time>
      </trkpt>
      <trkpt lat="49.38141" lon="1.0617">
        <ele>67.8</ele>
        <time>2019-11-11T07:34:37Z</time>
      </trkpt>
      <trkpt lat="49.38136" lon="1.06171">
        <ele>67.8</ele>
        <time>2019-11-11T07:34:38Z</time>
      </trkpt>
      <trkpt lat="49.38132" lon="1.06173">
        <ele>67.8</ele>
        <time>2019-11-11T07:34:39Z</time>
      </trkpt>
      <trkpt lat="49.38127" lon="1.06174">
        <ele>67.8</ele>
        <time>2019-11-11T07:34:40Z</time>
      </trkpt>
      <trkpt lat="49.38123" lon="1.06176">
        <ele>67.8</ele>
        <time>2019-11-11T07:34:41Z</time>
      </trkpt>
      <trkpt lat="49.38119" lon="1.06178">
        <ele>67.8</ele>
        <time>2019-11-11T07:34:42Z</time>
      </trkpt>
      <trkpt lat="49.38114" lon="1.06179">
        <ele>67.8</ele>
        <time>2019-11-11T07:34:43Z</time>
      </trkpt>
      <trkpt lat="49.38109" lon="1.06181">
        <ele>67.8</ele>
        <time>2019-11-11T07:34:44Z</time>
      </trkpt>
      <trkpt lat="49.38105" lon="1.06182">
        <ele>67.8</ele>
        <time>2019-11-11T07:34:45Z</time>
      </trkpt>
      <trkpt lat="49.381" lon="1.06183">
        <ele>67.8</ele>
        <time>2019-11-11T07:34:46Z</time>
      </trkpt>
      <trkpt lat="49.38096" lon="1.06185">
        <ele>67.8</ele>
        <time>2019-11-11T07:34:47Z</time>
      </trkpt>
      <trkpt lat="49.38091" lon="1.06186">
        <ele>67.8</ele>
        <time>2019-11-11T07:34:48Z</time>
      </trkpt>
      <trkpt lat="49.38086" lon="1.06188">
        <ele>67.8</ele>
        <time>2019-11-11T07:34:49Z</time>
      </trkpt>
      <trkpt lat="49.38081" lon="1.06189">
        <ele>67.8</ele>
        <time>2019-11-11T07:34:50Z</time>
      </trkpt>
      <trkpt lat="49.38077" lon="1.0619">
        <ele>67.8</ele>
        <time>2019-11-11T07:34:51Z</time>
      </trkpt>
      <trkpt lat="49.38072" lon="1.06192">
        <ele>67.8</ele>
        <time>2019-11-11T07:34:52Z</time>
      </trkpt>
      <trkpt lat="49.38067" lon="1.06193">
        <ele>67.8</ele>
        <time>2019-11-11T07:34:53Z</time>
      </trkpt>
      <trkpt lat="49.38062" lon="1.06194">
        <ele>67.8</ele>
        <time>2019-11-11T07:34:54Z</time>
      </trkpt>
      <trkpt lat="49.38058" lon="1.06196">
        <ele>67.8</ele>
        <time>2019-11-11T07:34:55Z</time>
      </trkpt>
      <trkpt lat="49.38053" lon="1.06197">
        <ele>67.8</ele>
        <time>2019-11-11T07:34:56Z</time>
      </trkpt>
      <trkpt lat="49.38048" lon="1.06198">
        <ele>67.8</ele>
        <time>2019-11-11T07:34:57Z</time>
      </trkpt>
      <trkpt lat="49.38044" lon="1.06199">
        <ele>67.8</ele>
        <time>2019-11-11T07:34:58Z</time>
      </trkpt>
      <trkpt lat="49.38039" lon="1.06201">
        <ele>67.8</ele>
        <time>2019-11-11T07:34:59Z</time>
      </trkpt>
      <trkpt lat="49.38035" lon="1.06202">
        <ele>67.8</ele>
        <time>2019-11-11T07:35:00Z</time>
      </trkpt>
      <trkpt lat="49.3803" lon="1.06204">
        <ele>67.8</ele>
        <time>2019-11-11T07:35:01Z</time>
      </trkpt>
      <trkpt lat="49.38026" lon="1.06205">
        <ele>67.8</ele>
        <time>2019-11-11T07:35:02Z</time>
      </trkpt>
      <trkpt lat="49.38021" lon="1.06206">
        <ele>67.8</ele>
        <time>2019-11-11T07:35:03Z</time>
      </trkpt>
      <trkpt lat="49.38017" lon="1.06208">
        <ele>67.8</ele>
        <time>2019-11-11T07:35:04Z</time>
      </trkpt>
      <trkpt lat="49.38012" lon="1.06209">
        <ele>67.8</ele>
        <time>2019-11-11T07:35:05Z</time>
      </trkpt>
      <trkpt lat="49.38008" lon="1.0621">
        <ele>67.8</ele>
        <time>2019-11-11T07:35:06Z</time>
      </trkpt>
      <trkpt lat="49.38003" lon="1.06212">
        <ele>67.8</ele>
        <time>2019-11-11T07:35:07Z</time>
      </trkpt>
      <trkpt lat="49.37999" lon="1.06213">
        <ele>67.8</ele>
        <time>2019-11-11T07:35:08Z</time>
      </trkpt>
      <trkpt lat="49.37995" lon="1.06215">
        <ele>67.8</ele>
        <time>2019-11-11T07:35:09Z</time>
      </trkpt>
      <trkpt lat="49.37992" lon="1.06216">
        <ele>67.8</ele>
        <time>2019-11-11T07:35:10Z</time>
      </trkpt>
      <trkpt lat="49.37989" lon="1.06217">
        <ele>67.8</ele>
        <time>2019-11-11T07:35:11Z</time>
      </trkpt>
      <trkpt lat="49.37986" lon="1.06217">
        <ele>67.8</ele>
        <time>2019-11-11T07:35:12Z</time>
      </trkpt>
      <trkpt lat="49.37983" lon="1.06217">
        <ele>67.8</ele>
        <time>2019-11-11T07:35:13Z</time>
      </trkpt>
      <trkpt lat="49.37981" lon="1.06215">
        <ele>67.8</ele>
        <time>2019-11-11T07:35:14Z</time>
      </trkpt>
      <trkpt lat="49.37979" lon="1.06213">
        <ele>67.8</ele>
        <time>2019-11-11T07:35:15Z</time>
      </trkpt>
      <trkpt lat="49.37979" lon="1.0621">
        <ele>67.8</ele>
        <time>2019-11-11T07:35:16Z</time>
      </trkpt>
      <trkpt lat="49.37979" lon="1.06206">
        <ele>66.8</ele>
        <time>2019-11-11T07:35:17Z</time>
      </trkpt>
      <trkpt lat="49.3798" lon="1.06201">
        <ele>66.8</ele>
        <time>2019-11-11T07:35:18Z</time>
      </trkpt>
      <trkpt lat="49.3798" lon="1.06196">
        <ele>66.8</ele>
        <time>2019-11-11T07:35:19Z</time>
      </trkpt>
      <trkpt lat="49.37981" lon="1.06191">
        <ele>66.8</ele>
        <time>2019-11-11T07:35:20Z</time>
      </trkpt>
      <trkpt lat="49.37982" lon="1.06186">
        <ele>66.8</ele>
        <time>2019-11-11T07:35:21Z</time>
      </trkpt>
      <trkpt lat="49.37983" lon="1.0618">
        <ele>66.8</ele>
        <time>2019-11-11T07:35:22Z</time>
      </trkpt>
      <trkpt lat="49.37983" lon="1.06174">
        <ele>66.8</ele>
        <time>2019-11-11T07:35:23Z</time>
      </trkpt>
      <trkpt lat="49.37984" lon="1.06167">
        <ele>66.8</ele>
        <time>2019-11-11T07:35:24Z</time>
      </trkpt>
      <trkpt lat="49.37985" lon="1.06161">
        <ele>66.8</ele>
        <time>2019-11-11T07:35:25Z</time>
      </trkpt>
      <trkpt lat="49.37986" lon="1.06155">
        <ele>66.8</ele>
        <time>2019-11-11T07:35:26Z</time>
      </trkpt>
      <trkpt lat="49.37987" lon="1.06149">
        <ele>66.8</ele>
        <time>2019-11-11T07:35:27Z</time>
      </trkpt>
      <trkpt lat="49.37988" lon="1.06142">
        <ele>66.8</ele>
        <time>2019-11-11T07:35:28Z</time>
      </trkpt>
      <trkpt lat="49.37989" lon="1.06135">
        <ele>66.8</ele>
        <time>2019-11-11T07:35:29Z</time>
      </trkpt>
      <trkpt lat="49.3799" lon="1.06129">
        <ele>66.8</ele>
        <time>2019-11-11T07:35:30Z</time>
      </trkpt>
      <trkpt lat="49.3799" lon="1.06122">
        <ele>66.8</ele>
        <time>2019-11-11T07:35:31Z</time>
      </trkpt>
      <trkpt lat="49.3799" lon="1.06116">
        <ele>66.8</ele>
        <time>2019-11-11T07:35:32Z</time>
      </trkpt>
      <trkpt lat="49.37991" lon="1.06109">
        <ele>66.8</ele>
        <time>2019-11-11T07:35:33Z</time>
      </trkpt>
      <trkpt lat="49.37992" lon="1.06104">
        <ele>66.8</ele>
        <time>2019-11-11T07:35:34Z</time>
      </trkpt>
      <trkpt lat="49.37992" lon="1.06098">
        <ele>66.8</ele>
        <time>2019-11-11T07:35:35Z</time>
      </trkpt>
      <trkpt lat="49.37994" lon="1.06091">
        <ele>66.8</ele>
        <time>2019-11-11T07:35:36Z</time>
      </trkpt>
      <trkpt lat="49.37995" lon="1.06084">
        <ele>66.8</ele>
        <time>2019-11-11T07:35:37Z</time>
      </trkpt>
      <trkpt lat="49.37999" lon="1.06078">
        <ele>66.8</ele>
        <time>2019-11-11T07:35:38Z</time>
      </trkpt>
      <trkpt lat="49.38002" lon="1.06072">
        <ele>65.7</ele>
        <time>2019-11-11T07:35:39Z</time>
      </trkpt>
      <trkpt lat="49.38005" lon="1.06067">
        <ele>65.7</ele>
        <time>2019-11-11T07:35:40Z</time>
      </trkpt>
      <trkpt lat="49.38008" lon="1.06061">
        <ele>65.7</ele>
        <time>2019-11-11T07:35:41Z</time>
      </trkpt>
      <trkpt lat="49.3801" lon="1.06056">
        <ele>65.7</ele>
        <time>2019-11-11T07:35:42Z</time>
      </trkpt>
      <trkpt lat="49.38013" lon="1.06051">
        <ele>64.8</ele>
        <time>2019-11-11T07:35:43Z</time>
      </trkpt>
      <trkpt lat="49.38016" lon="1.06048">
        <ele>64.8</ele>
        <time>2019-11-11T07:35:44Z</time>
      </trkpt>
      <trkpt lat="49.38019" lon="1.06045">
        <ele>64.8</ele>
        <time>2019-11-11T07:35:45Z</time>
      </trkpt>
      <trkpt lat="49.38022" lon="1.0604">
        <ele>64.8</ele>
        <time>2019-11-11T07:35:46Z</time>
      </trkpt>
      <trkpt lat="49.38024" lon="1.06035">
        <ele>64.8</ele>
        <time>2019-11-11T07:35:47Z</time>
      </trkpt>
      <trkpt lat="49.38025" lon="1.06029">
        <ele>64.8</ele>
        <time>2019-11-11T07:35:48Z</time>
      </trkpt>
      <trkpt lat="49.38027" lon="1.06024">
        <ele>64.8</ele>
        <time>2019-11-11T07:35:49Z</time>
      </trkpt>
      <trkpt lat="49.38029" lon="1.06018">
        <ele>64.8</ele>
        <time>2019-11-11T07:35:50Z</time>
      </trkpt>
      <trkpt lat="49.3803" lon="1.06011">
        <ele>64.8</ele>
        <time>2019-11-11T07:35:51Z</time>
      </trkpt>
      <trkpt lat="49.38032" lon="1.06005">
        <ele>64.8</ele>
        <time>2019-11-11T07:35:52Z</time>
      </trkpt>
      <trkpt lat="49.38033" lon="1.05998">
        <ele>64.8</ele>
        <time>2019-11-11T07:35:53Z</time>
      </trkpt>
      <trkpt lat="49.38033" lon="1.05991">
        <ele>64.8</ele>
        <time>2019-11-11T07:35:54Z</time>
      </trkpt>
      <trkpt lat="49.38034" lon="1.05984">
        <ele>64.8</ele>
        <time>2019-11-11T07:35:55Z</time>
      </trkpt>
      <trkpt lat="49.38034" lon="1.05977">
        <ele>64.8</ele>
        <time>2019-11-11T07:35:56Z</time>
      </trkpt>
      <trkpt lat="49.38035" lon="1.0597">
        <ele>64.8</ele>
        <time>2019-11-11T07:35:57Z</time>
      </trkpt>
      <trkpt lat="49.38035" lon="1.05964">
        <ele>64.8</ele>
        <time>2019-11-11T07:35:58Z</time>
      </trkpt>
      <trkpt lat="49.38034" lon="1.05957">
        <ele>64.8</ele>
        <time>2019-11-11T07:35:59Z</time>
      </trkpt>
      <trkpt lat="49.38032" lon="1.05951">
        <ele>64.8</ele>
        <time>2019-11-11T07:36:00Z</time>
      </trkpt>
      <trkpt lat="49.38031" lon="1.05946">
        <ele>64.8</ele>
        <time>2019-11-11T07:36:01Z</time>
      </trkpt>
      <trkpt lat="49.38029" lon="1.0594">
        <ele>64.8</ele>
        <time>2019-11-11T07:36:02Z</time>
      </trkpt>
      <trkpt lat="49.38027" lon="1.05935">
        <ele>64.8</ele>
        <time>2019-11-11T07:36:03Z</time>
      </trkpt>
      <trkpt lat="49.38024" lon="1.05931">
        <ele>64.8</ele>
        <time>2019-11-11T07:36:04Z</time>
      </trkpt>
      <trkpt lat="49.38021" lon="1.05928">
        <ele>64.8</ele>
        <time>2019-11-11T07:36:05Z</time>
      </trkpt>
      <trkpt lat="49.38017" lon="1.05924">
        <ele>64.8</ele>
        <time>2019-11-11T07:36:06Z</time>
      </trkpt>
      <trkpt lat="49.38015" lon="1.0592">
        <ele>64.8</ele>
        <time>2019-11-11T07:36:07Z</time>
      </trkpt>
      <trkpt lat="49.38014" lon="1.05915">
        <ele>64.8</ele>
        <time>2019-11-11T07:36:08Z</time>
      </trkpt>
      <trkpt lat="49.38013" lon="1.05909">
        <ele>64.8</ele>
        <time>2019-11-11T07:36:09Z</time>
      </trkpt>
      <trkpt lat="49.38011" lon="1.05903">
        <ele>64.8</ele>
        <time>2019-11-11T07:36:10Z</time>
      </trkpt>
      <trkpt lat="49.38011" lon="1.05898">
        <ele>64.8</ele>
        <time>2019-11-11T07:36:11Z</time>
      </trkpt>
      <trkpt lat="49.3801" lon="1.05893">
        <ele>64.8</ele>
        <time>2019-11-11T07:36:12Z</time>
      </trkpt>
      <trkpt lat="49.3801" lon="1.05887">
        <ele>64.8</ele>
        <time>2019-11-11T07:36:13Z</time>
      </trkpt>
      <trkpt lat="49.3801" lon="1.05881">
        <ele>64.8</ele>
        <time>2019-11-11T07:36:14Z</time>
      </trkpt>
      <trkpt lat="49.3801" lon="1.05876">
        <ele>64.8</ele>
        <time>2019-11-11T07:36:15Z</time>
      </trkpt>
      <trkpt lat="49.3801" lon="1.05868">
        <ele>64.8</ele>
        <time>2019-11-11T07:36:16Z</time>
      </trkpt>
      <trkpt lat="49.3801" lon="1.05861">
        <ele>64.8</ele>
        <time>2019-11-11T07:36:17Z</time>
      </trkpt>
      <trkpt lat="49.38009" lon="1.05855">
        <ele>64.8</ele>
        <time>2019-11-11T07:36:18Z</time>
      </trkpt>
      <trkpt lat="49.38007" lon="1.05849">
        <ele>65.7</ele>
        <time>2019-11-11T07:36:19Z</time>
      </trkpt>
      <trkpt lat="49.38005" lon="1.05844">
        <ele>65.7</ele>
        <time>2019-11-11T07:36:20Z</time>
      </trkpt>
      <trkpt lat="49.38001" lon="1.05839">
        <ele>65.7</ele>
        <time>2019-11-11T07:36:21Z</time>
      </trkpt>
      <trkpt lat="49.37998" lon="1.05836">
        <ele>65.7</ele>
        <time>2019-11-11T07:36:22Z</time>
      </trkpt>
      <trkpt lat="49.37994" lon="1.05833">
        <ele>65.7</ele>
        <time>2019-11-11T07:36:23Z</time>
      </trkpt>
      <trkpt lat="49.3799" lon="1.0583">
        <ele>65.7</ele>
        <time>2019-11-11T07:36:24Z</time>
      </trkpt>
      <trkpt lat="49.37986" lon="1.05828">
        <ele>65.7</ele>
        <time>2019-11-11T07:36:25Z</time>
      </trkpt>
      <trkpt lat="49.37982" lon="1.05825">
        <ele>65.7</ele>
        <time>2019-11-11T07:36:26Z</time>
      </trkpt>
      <trkpt lat="49.37979" lon="1.05823">
        <ele>65.7</ele>
        <time>2019-11-11T07:36:27Z</time>
      </trkpt>
      <trkpt lat="49.37975" lon="1.05821">
        <ele>65.7</ele>
        <time>2019-11-11T07:36:28Z</time>
      </trkpt>
      <trkpt lat="49.37971" lon="1.05818">
        <ele>65.7</ele>
        <time>2019-11-11T07:36:29Z</time>
      </trkpt>
      <trkpt lat="49.37967" lon="1.05815">
        <ele>65.7</ele>
        <time>2019-11-11T07:36:30Z</time>
      </trkpt>
      <trkpt lat="49.37963" lon="1.05813">
        <ele>65.7</ele>
        <time>2019-11-11T07:36:31Z</time>
      </trkpt>
      <trkpt lat="49.3796" lon="1.0581">
        <ele>65.7</ele>
        <time>2019-11-11T07:36:32Z</time>
      </trkpt>
      <trkpt lat="49.37957" lon="1.05807">
        <ele>65.7</ele>
        <time>2019-11-11T07:36:33Z</time>
      </trkpt>
      <trkpt lat="49.37955" lon="1.05803">
        <ele>65.7</ele>
        <time>2019-11-11T07:36:34Z</time>
      </trkpt>
      <trkpt lat="49.37955" lon="1.05799">
        <ele>65.7</ele>
        <time>2019-11-11T07:36:35Z</time>
      </trkpt>
      <trkpt lat="49.37956" lon="1.05795">
        <ele>65.7</ele>
        <time>2019-11-11T07:36:36Z</time>
      </trkpt>
      <trkpt lat="49.37958" lon="1.05791">
        <ele>65.7</ele>
        <time>2019-11-11T07:36:37Z</time>
      </trkpt>
      <trkpt lat="49.37959" lon="1.05788">
        <ele>65.7</ele>
        <time>2019-11-11T07:36:38Z</time>
      </trkpt>
      <trkpt lat="49.37961" lon="1.05784">
        <ele>65.7</ele>
        <time>2019-11-11T07:36:39Z</time>
      </trkpt>
      <trkpt lat="49.37963" lon="1.0578">
        <ele>65.7</ele>
        <time>2019-11-11T07:36:40Z</time>
      </trkpt>
      <trkpt lat="49.37963" lon="1.05776">
        <ele>65.7</ele>
        <time>2019-11-11T07:36:41Z</time>
      </trkpt>
      <trkpt lat="49.37963" lon="1.05771">
        <ele>65.7</ele>
        <time>2019-11-11T07:36:42Z</time>
      </trkpt>
      <trkpt lat="49.37963" lon="1.05765">
        <ele>66.8</ele>
        <time>2019-11-11T07:36:43Z</time>
      </trkpt>
      <trkpt lat="49.37963" lon="1.0576">
        <ele>66.8</ele>
        <time>2019-11-11T07:36:44Z</time>
      </trkpt>
      <trkpt lat="49.37964" lon="1.05754">
        <ele>66.8</ele>
        <time>2019-11-11T07:36:45Z</time>
      </trkpt>
      <trkpt lat="49.37965" lon="1.0575">
        <ele>66.8</ele>
        <time>2019-11-11T07:36:46Z</time>
      </trkpt>
      <trkpt lat="49.37966" lon="1.05746">
        <ele>66.8</ele>
        <time>2019-11-11T07:36:47Z</time>
      </trkpt>
      <trkpt lat="49.37967" lon="1.05741">
        <ele>66.8</ele>
        <time>2019-11-11T07:36:48Z</time>
      </trkpt>
      <trkpt lat="49.37968" lon="1.05735">
        <ele>66.8</ele>
        <time>2019-11-11T07:36:49Z</time>
      </trkpt>
      <trkpt lat="49.37968" lon="1.05728">
        <ele>66.8</ele>
        <time>2019-11-11T07:36:50Z</time>
      </trkpt>
      <trkpt lat="49.37969" lon="1.05722">
        <ele>66.8</ele>
        <time>2019-11-11T07:36:51Z</time>
      </trkpt>
      <trkpt lat="49.3797" lon="1.05716">
        <ele>66.8</ele>
        <time>2019-11-11T07:36:52Z</time>
      </trkpt>
      <trkpt lat="49.37971" lon="1.05709">
        <ele>66.8</ele>
        <time>2019-11-11T07:36:53Z</time>
      </trkpt>
      <trkpt lat="49.37971" lon="1.05703">
        <ele>66.8</ele>
        <time>2019-11-11T07:36:54Z</time>
      </trkpt>
      <trkpt lat="49.37972" lon="1.05696">
        <ele>67.8</ele>
        <time>2019-11-11T07:36:55Z</time>
      </trkpt>
      <trkpt lat="49.37972" lon="1.05689">
        <ele>67.8</ele>
        <time>2019-11-11T07:36:56Z</time>
      </trkpt>
      <trkpt lat="49.37971" lon="1.05682">
        <ele>67.8</ele>
        <time>2019-11-11T07:36:57Z</time>
      </trkpt>
      <trkpt lat="49.37971" lon="1.05675">
        <ele>67.8</ele>
        <time>2019-11-11T07:36:58Z</time>
      </trkpt>
      <trkpt lat="49.37973" lon="1.05668">
        <ele>67.8</ele>
        <time>2019-11-11T07:36:59Z</time>
      </trkpt>
      <trkpt lat="49.37975" lon="1.05662">
        <ele>67.8</ele>
        <time>2019-11-11T07:37:00Z</time>
      </trkpt>
      <trkpt lat="49.37977" lon="1.05657">
        <ele>67.8</ele>
        <time>2019-11-11T07:37:01Z</time>
      </trkpt>
      <trkpt lat="49.37979" lon="1.05651">
        <ele>67.8</ele>
        <time>2019-11-11T07:37:02Z</time>
      </trkpt>
      <trkpt lat="49.3798" lon="1.05646">
        <ele>67.8</ele>
        <time>2019-11-11T07:37:03Z</time>
      </trkpt>
      <trkpt lat="49.37981" lon="1.0564">
        <ele>67.8</ele>
        <time>2019-11-11T07:37:04Z</time>
      </trkpt>
      <trkpt lat="49.37982" lon="1.05635">
        <ele>66.8</ele>
        <time>2019-11-11T07:37:05Z</time>
      </trkpt>
      <trkpt lat="49.37984" lon="1.05629">
        <ele>66.8</ele>
        <time>2019-11-11T07:37:06Z</time>
      </trkpt>
      <trkpt lat="49.37985" lon="1.05625">
        <ele>66.8</ele>
        <time>2019-11-11T07:37:07Z</time>
      </trkpt>
      <trkpt lat="49.37987" lon="1.0562">
        <ele>66.8</ele>
        <time>2019-11-11T07:37:08Z</time>
      </trkpt>
      <trkpt lat="49.3799" lon="1.05616">
        <ele>66.8</ele>
        <time>2019-11-11T07:37:09Z</time>
      </trkpt>
      <trkpt lat="49.37993" lon="1.05613">
        <ele>66.8</ele>
        <time>2019-11-11T07:37:10Z</time>
      </trkpt>
      <trkpt lat="49.37995" lon="1.05609">
        <ele>66.8</ele>
        <time>2019-11-11T07:37:11Z</time>
      </trkpt>
      <trkpt lat="49.37998" lon="1.05605">
        <ele>66.8</ele>
        <time>2019-11-11T07:37:12Z</time>
      </trkpt>
      <trkpt lat="49.38" lon="1.05599">
        <ele>66.8</ele>
        <time>2019-11-11T07:37:13Z</time>
      </trkpt>
      <trkpt lat="49.38003" lon="1.05595">
        <ele>66.8</ele>
        <time>2019-11-11T07:37:14Z</time>
      </trkpt>
      <trkpt lat="49.38006" lon="1.05592">
        <ele>66.8</ele>
        <time>2019-11-11T07:37:15Z</time>
      </trkpt>
      <trkpt lat="49.38009" lon="1.05589">
        <ele>66.8</ele>
        <time>2019-11-11T07:37:16Z</time>
      </trkpt>
      <trkpt lat="49.38012" lon="1.05585">
        <ele>66.8</ele>
        <time>2019-11-11T07:37:17Z</time>
      </trkpt>
      <trkpt lat="49.38014" lon="1.0558">
        <ele>66.8</ele>
        <time>2019-11-11T07:37:18Z</time>
      </trkpt>
      <trkpt lat="49.38016" lon="1.05574">
        <ele>66.8</ele>
        <time>2019-11-11T07:37:19Z</time>
      </trkpt>
      <trkpt lat="49.38018" lon="1.05569">
        <ele>66.8</ele>
        <time>2019-11-11T07:37:20Z</time>
      </trkpt>
      <trkpt lat="49.3802" lon="1.05564">
        <ele>66.8</ele>
        <time>2019-11-11T07:37:21Z</time>
      </trkpt>
      <trkpt lat="49.38023" lon="1.05559">
        <ele>66.8</ele>
        <time>2019-11-11T07:37:22Z</time>
      </trkpt>
      <trkpt lat="49.38026" lon="1.05554">
        <ele>66.8</ele>
        <time>2019-11-11T07:37:23Z</time>
      </trkpt>
      <trkpt lat="49.38028" lon="1.0555">
        <ele>66.8</ele>
        <time>2019-11-11T07:37:24Z</time>
      </trkpt>
      <trkpt lat="49.3803" lon="1.05545">
        <ele>66.8</ele>
        <time>2019-11-11T07:37:25Z</time>
      </trkpt>
      <trkpt lat="49.38032" lon="1.0554">
        <ele>66.8</ele>
        <time>2019-11-11T07:37:26Z</time>
      </trkpt>
      <trkpt lat="49.38034" lon="1.05535">
        <ele>66.8</ele>
        <time>2019-11-11T07:37:27Z</time>
      </trkpt>
      <trkpt lat="49.38037" lon="1.0553">
        <ele>66.8</ele>
        <time>2019-11-11T07:37:28Z</time>
      </trkpt>
      <trkpt lat="49.38039" lon="1.05526">
        <ele>66.8</ele>
        <time>2019-11-11T07:37:29Z</time>
      </trkpt>
      <trkpt lat="49.38041" lon="1.05521">
        <ele>66.8</ele>
        <time>2019-11-11T07:37:30Z</time>
      </trkpt>
      <trkpt lat="49.38042" lon="1.05515">
        <ele>66.8</ele>
        <time>2019-11-11T07:37:31Z</time>
      </trkpt>
      <trkpt lat="49.38043" lon="1.0551">
        <ele>66.8</ele>
        <time>2019-11-11T07:37:32Z</time>
      </trkpt>
      <trkpt lat="49.38046" lon="1.05507">
        <ele>66.8</ele>
        <time>2019-11-11T07:37:33Z</time>
      </trkpt>
      <trkpt lat="49.38049" lon="1.05502">
        <ele>66.8</ele>
        <time>2019-11-11T07:37:34Z</time>
      </trkpt>
      <trkpt lat="49.38051" lon="1.05498">
        <ele>66.8</ele>
        <time>2019-11-11T07:37:35Z</time>
      </trkpt>
      <trkpt lat="49.38052" lon="1.05492">
        <ele>66.8</ele>
        <time>2019-11-11T07:37:36Z</time>
      </trkpt>
      <trkpt lat="49.38053" lon="1.05487">
        <ele>66.8</ele>
        <time>2019-11-11T07:37:37Z</time>
      </trkpt>
      <trkpt lat="49.38056" lon="1.05484">
        <ele>66.8</ele>
        <time>2019-11-11T07:37:38Z</time>
      </trkpt>
      <trkpt lat="49.38058" lon="1.05481">
        <ele>66.8</ele>
        <time>2019-11-11T07:37:39Z</time>
      </trkpt>
      <trkpt lat="49.38059" lon="1.05477">
        <ele>66.8</ele>
        <time>2019-11-11T07:37:40Z</time>
      </trkpt>
      <trkpt lat="49.38061" lon="1.05472">
        <ele>66.8</ele>
        <time>2019-11-11T07:37:41Z</time>
      </trkpt>
      <trkpt lat="49.38062" lon="1.05467">
        <ele>66.8</ele>
        <time>2019-11-11T07:37:42Z</time>
      </trkpt>
      <trkpt lat="49.38063" lon="1.05462">
        <ele>66.8</ele>
        <time>2019-11-11T07:37:43Z</time>
      </trkpt>
      <trkpt lat="49.38065" lon="1.05457">
        <ele>66.8</ele>
        <time>2019-11-11T07:37:44Z</time>
      </trkpt>
      <trkpt lat="49.38067" lon="1.05452">
        <ele>65.7</ele>
        <time>2019-11-11T07:37:45Z</time>
      </trkpt>
      <trkpt lat="49.38069" lon="1.05448">
        <ele>65.7</ele>
        <time>2019-11-11T07:37:46Z</time>
      </trkpt>
      <trkpt lat="49.38071" lon="1.05442">
        <ele>65.7</ele>
        <time>2019-11-11T07:37:47Z</time>
      </trkpt>
      <trkpt lat="49.38073" lon="1.05437">
        <ele>65.7</ele>
        <time>2019-11-11T07:37:48Z</time>
      </trkpt>
      <trkpt lat="49.38074" lon="1.05432">
        <ele>65.7</ele>
        <time>2019-11-11T07:37:49Z</time>
      </trkpt>
      <trkpt lat="49.38074" lon="1.05427">
        <ele>65.7</ele>
        <time>2019-11-11T07:37:50Z</time>
      </trkpt>
      <trkpt lat="49.38072" lon="1.05424">
        <ele>65.7</ele>
        <time>2019-11-11T07:37:51Z</time>
      </trkpt>
      <trkpt lat="49.3807" lon="1.05421">
        <ele>65.7</ele>
        <time>2019-11-11T07:37:52Z</time>
      </trkpt>
      <trkpt lat="49.38067" lon="1.05417">
        <ele>65.7</ele>
        <time>2019-11-11T07:37:53Z</time>
      </trkpt>
      <trkpt lat="49.38064" lon="1.05414">
        <ele>65.7</ele>
        <time>2019-11-11T07:37:54Z</time>
      </trkpt>
      <trkpt lat="49.38061" lon="1.05412">
        <ele>65.7</ele>
        <time>2019-11-11T07:37:55Z</time>
      </trkpt>
      <trkpt lat="49.38058" lon="1.05409">
        <ele>65.7</ele>
        <time>2019-11-11T07:37:56Z</time>
      </trkpt>
      <trkpt lat="49.38054" lon="1.05406">
        <ele>65.7</ele>
        <time>2019-11-11T07:37:57Z</time>
      </trkpt>
      <trkpt lat="49.38051" lon="1.05403">
        <ele>65.7</ele>
        <time>2019-11-11T07:37:58Z</time>
      </trkpt>
      <trkpt lat="49.38048" lon="1.05401">
        <ele>65.7</ele>
        <time>2019-11-11T07:37:59Z</time>
      </trkpt>
      <trkpt lat="49.38045" lon="1.05398">
        <ele>65.7</ele>
        <time>2019-11-11T07:38:00Z</time>
      </trkpt>
      <trkpt lat="49.38042" lon="1.05395">
        <ele>66.8</ele>
        <time>2019-11-11T07:38:01Z</time>
      </trkpt>
      <trkpt lat="49.38039" lon="1.05392">
        <ele>66.8</ele>
        <time>2019-11-11T07:38:02Z</time>
      </trkpt>
      <trkpt lat="49.38036" lon="1.05389">
        <ele>66.8</ele>
        <time>2019-11-11T07:38:03Z</time>
      </trkpt>
      <trkpt lat="49.38032" lon="1.05387">
        <ele>66.8</ele>
        <time>2019-11-11T07:38:04Z</time>
      </trkpt>
      <trkpt lat="49.38029" lon="1.05384">
        <ele>66.8</ele>
        <time>2019-11-11T07:38:05Z</time>
      </trkpt>
      <trkpt lat="49.38026" lon="1.05381">
        <ele>66.8</ele>
        <time>2019-11-11T07:38:06Z</time>
      </trkpt>
      <trkpt lat="49.38022" lon="1.05378">
        <ele>66.8</ele>
        <time>2019-11-11T07:38:07Z</time>
      </trkpt>
      <trkpt lat="49.38019" lon="1.05375">
        <ele>66.8</ele>
        <time>2019-11-11T07:38:08Z</time>
      </trkpt>
      <trkpt lat="49.38016" lon="1.05372">
        <ele>66.8</ele>
        <time>2019-11-11T07:38:09Z</time>
      </trkpt>
      <trkpt lat="49.38012" lon="1.05368">
        <ele>66.8</ele>
        <time>2019-11-11T07:38:10Z</time>
      </trkpt>
      <trkpt lat="49.38009" lon="1.05365">
        <ele>66.8</ele>
        <time>2019-11-11T07:38:11Z</time>
      </trkpt>
      <trkpt lat="49.38005" lon="1.05362">
        <ele>66.8</ele>
        <time>2019-11-11T07:38:12Z</time>
      </trkpt>
      <trkpt lat="49.38002" lon="1.0536">
        <ele>66.8</ele>
        <time>2019-11-11T07:38:13Z</time>
      </trkpt>
      <trkpt lat="49.37999" lon="1.05357">
        <ele>66.8</ele>
        <time>2019-11-11T07:38:14Z</time>
      </trkpt>
      <trkpt lat="49.37995" lon="1.05354">
        <ele>66.8</ele>
        <time>2019-11-11T07:38:15Z</time>
      </trkpt>
      <trkpt lat="49.37991" lon="1.05351">
        <ele>66.8</ele>
        <time>2019-11-11T07:38:16Z</time>
      </trkpt>
      <trkpt lat="49.37987" lon="1.05348">
        <ele>66.8</ele>
        <time>2019-11-11T07:38:17Z</time>
      </trkpt>
      <trkpt lat="49.37984" lon="1.05345">
        <ele>66.8</ele>
        <time>2019-11-11T07:38:18Z</time>
      </trkpt>
      <trkpt lat="49.3798" lon="1.05343">
        <ele>66.8</ele>
        <time>2019-11-11T07:38:19Z</time>
      </trkpt>
      <trkpt lat="49.37977" lon="1.0534">
        <ele>66.8</ele>
        <time>2019-11-11T07:38:20Z</time>
      </trkpt>
      <trkpt lat="49.37974" lon="1.05337">
        <ele>66.8</ele>
        <time>2019-11-11T07:38:21Z</time>
      </trkpt>
      <trkpt lat="49.37971" lon="1.05333">
        <ele>66.8</ele>
        <time>2019-11-11T07:38:22Z</time>
      </trkpt>
      <trkpt lat="49.37968" lon="1.0533">
        <ele>66.8</ele>
        <time>2019-11-11T07:38:23Z</time>
      </trkpt>
      <trkpt lat="49.37965" lon="1.05327">
        <ele>66.8</ele>
        <time>2019-11-11T07:38:24Z</time>
      </trkpt>
      <trkpt lat="49.37962" lon="1.05324">
        <ele>66.8</ele>
        <time>2019-11-11T07:38:25Z</time>
      </trkpt>
      <trkpt lat="49.37958" lon="1.05322">
        <ele>66.8</ele>
        <time>2019-11-11T07:38:26Z</time>
      </trkpt>
      <trkpt lat="49.37955" lon="1.05319">
        <ele>66.8</ele>
        <time>2019-11-11T07:38:27Z</time>
      </trkpt>
      <trkpt lat="49.37951" lon="1.05317">
        <ele>66.8</ele>
        <time>2019-11-11T07:38:28Z</time>
      </trkpt>
      <trkpt lat="49.37947" lon="1.05313">
        <ele>66.8</ele>
        <time>2019-11-11T07:38:29Z</time>
      </trkpt>
      <trkpt lat="49.37943" lon="1.0531">
        <ele>66.8</ele>
        <time>2019-11-11T07:38:30Z</time>
      </trkpt>
      <trkpt lat="49.3794" lon="1.05307">
        <ele>66.8</ele>
        <time>2019-11-11T07:38:31Z</time>
      </trkpt>
      <trkpt lat="49.37936" lon="1.05304">
        <ele>66.8</ele>
        <time>2019-11-11T07:38:32Z</time>
      </trkpt>
      <trkpt lat="49.37932" lon="1.053">
        <ele>66.8</ele>
        <time>2019-11-11T07:38:33Z</time>
      </trkpt>
      <trkpt lat="49.37929" lon="1.05298">
        <ele>66.8</ele>
        <time>2019-11-11T07:38:34Z</time>
      </trkpt>
      <trkpt lat="49.37925" lon="1.05294">
        <ele>66.8</ele>
        <time>2019-11-11T07:38:35Z</time>
      </trkpt>
      <trkpt lat="49.37922" lon="1.05291">
        <ele>66.8</ele>
        <time>2019-11-11T07:38:36Z</time>
      </trkpt>
      <trkpt lat="49.37918" lon="1.05288">
        <ele>66.8</ele>
        <time>2019-11-11T07:38:37Z</time>
      </trkpt>
      <trkpt lat="49.37914" lon="1.05286">
        <ele>66.8</ele>
        <time>2019-11-11T07:38:38Z</time>
      </trkpt>
      <trkpt lat="49.37911" lon="1.05283">
        <ele>66.8</ele>
        <time>2019-11-11T07:38:39Z</time>
      </trkpt>
      <trkpt lat="49.37907" lon="1.0528">
        <ele>66.8</ele>
        <time>2019-11-11T07:38:40Z</time>
      </trkpt>
      <trkpt lat="49.37903" lon="1.05278">
        <ele>66.8</ele>
        <time>2019-11-11T07:38:41Z</time>
      </trkpt>
      <trkpt lat="49.379" lon="1.05275">
        <ele>66.8</ele>
        <time>2019-11-11T07:38:42Z</time>
      </trkpt>
      <trkpt lat="49.37896" lon="1.05272">
        <ele>66.8</ele>
        <time>2019-11-11T07:38:43Z</time>
      </trkpt>
      <trkpt lat="49.37893" lon="1.0527">
        <ele>66.8</ele>
        <time>2019-11-11T07:38:44Z</time>
      </trkpt>
      <trkpt lat="49.37889" lon="1.05267">
        <ele>67.8</ele>
        <time>2019-11-11T07:38:45Z</time>
      </trkpt>
      <trkpt lat="49.37885" lon="1.05264">
        <ele>67.8</ele>
        <time>2019-11-11T07:38:46Z</time>
      </trkpt>
      <trkpt lat="49.37881" lon="1.05263">
        <ele>67.8</ele>
        <time>2019-11-11T07:38:47Z</time>
      </trkpt>
      <trkpt lat="49.37878" lon="1.05262">
        <ele>67.8</ele>
        <time>2019-11-11T07:38:48Z</time>
      </trkpt>
      <trkpt lat="49.37874" lon="1.05263">
        <ele>67.8</ele>
        <time>2019-11-11T07:38:49Z</time>
      </trkpt>
      <trkpt lat="49.37872" lon="1.05267">
        <ele>67.8</ele>
        <time>2019-11-11T07:38:50Z</time>
      </trkpt>
      <trkpt lat="49.37869" lon="1.05272">
        <ele>67.8</ele>
        <time>2019-11-11T07:38:51Z</time>
      </trkpt>
      <trkpt lat="49.37866" lon="1.05277">
        <ele>67.8</ele>
        <time>2019-11-11T07:38:52Z</time>
      </trkpt>
      <trkpt lat="49.37864" lon="1.05283">
        <ele>67.8</ele>
        <time>2019-11-11T07:38:53Z</time>
      </trkpt>
      <trkpt lat="49.37861" lon="1.05288">
        <ele>67.8</ele>
        <time>2019-11-11T07:38:54Z</time>
      </trkpt>
      <trkpt lat="49.3786" lon="1.05294">
        <ele>67.8</ele>
        <time>2019-11-11T07:38:55Z</time>
      </trkpt>
      <trkpt lat="49.37858" lon="1.053">
        <ele>67.8</ele>
        <time>2019-11-11T07:38:56Z</time>
      </trkpt>
      <trkpt lat="49.37855" lon="1.05306">
        <ele>67.8</ele>
        <time>2019-11-11T07:38:57Z</time>
      </trkpt>
      <trkpt lat="49.37853" lon="1.05311">
        <ele>67.8</ele>
        <time>2019-11-11T07:38:58Z</time>
      </trkpt>
      <trkpt lat="49.37851" lon="1.05317">
        <ele>67.8</ele>
        <time>2019-11-11T07:38:59Z</time>
      </trkpt>
      <trkpt lat="49.37849" lon="1.05322">
        <ele>67.8</ele>
        <time>2019-11-11T07:39:00Z</time>
      </trkpt>
      <trkpt lat="49.37847" lon="1.05328">
        <ele>67.8</ele>
        <time>2019-11-11T07:39:01Z</time>
      </trkpt>
      <trkpt lat="49.37845" lon="1.05333">
        <ele>67.8</ele>
        <time>2019-11-11T07:39:02Z</time>
      </trkpt>
      <trkpt lat="49.37843" lon="1.05339">
        <ele>67.8</ele>
        <time>2019-11-11T07:39:03Z</time>
      </trkpt>
      <trkpt lat="49.37841" lon="1.05345">
        <ele>67.8</ele>
        <time>2019-11-11T07:39:04Z</time>
      </trkpt>
      <trkpt lat="49.37839" lon="1.05351">
        <ele>67.8</ele>
        <time>2019-11-11T07:39:05Z</time>
      </trkpt>
      <trkpt lat="49.37837" lon="1.05357">
        <ele>67.8</ele>
        <time>2019-11-11T07:39:06Z</time>
      </trkpt>
      <trkpt lat="49.37835" lon="1.05363">
        <ele>67.8</ele>
        <time>2019-11-11T07:39:07Z</time>
      </trkpt>
      <trkpt lat="49.37833" lon="1.05369">
        <ele>67.8</ele>
        <time>2019-11-11T07:39:08Z</time>
      </trkpt>
      <trkpt lat="49.37831" lon="1.05375">
        <ele>67.8</ele>
        <time>2019-11-11T07:39:09Z</time>
      </trkpt>
      <trkpt lat="49.37829" lon="1.05381">
        <ele>67.8</ele>
        <time>2019-11-11T07:39:10Z</time>
      </trkpt>
      <trkpt lat="49.37827" lon="1.05387">
        <ele>67.8</ele>
        <time>2019-11-11T07:39:11Z</time>
      </trkpt>
      <trkpt lat="49.37825" lon="1.05393">
        <ele>67.8</ele>
        <time>2019-11-11T07:39:12Z</time>
      </trkpt>
      <trkpt lat="49.37823" lon="1.05399">
        <ele>67.8</ele>
        <time>2019-11-11T07:39:13Z</time>
      </trkpt>
      <trkpt lat="49.37821" lon="1.05405">
        <ele>67.8</ele>
        <time>2019-11-11T07:39:14Z</time>
      </trkpt>
      <trkpt lat="49.37819" lon="1.0541">
        <ele>67.8</ele>
        <time>2019-11-11T07:39:15Z</time>
      </trkpt>
      <trkpt lat="49.37817" lon="1.05416">
        <ele>67.8</ele>
        <time>2019-11-11T07:39:16Z</time>
      </trkpt>
      <trkpt lat="49.37815" lon="1.05422">
        <ele>67.8</ele>
        <time>2019-11-11T07:39:17Z</time>
      </trkpt>
      <trkpt lat="49.37813" lon="1.05428">
        <ele>67.8</ele>
        <time>2019-11-11T07:39:18Z</time>
      </trkpt>
      <trkpt lat="49.37811" lon="1.05434">
        <ele>67.8</ele>
        <time>2019-11-11T07:39:19Z</time>
      </trkpt>
      <trkpt lat="49.37809" lon="1.0544">
        <ele>67.8</ele>
        <time>2019-11-11T07:39:20Z</time>
      </trkpt>
      <trkpt lat="49.37807" lon="1.05446">
        <ele>67.8</ele>
        <time>2019-11-11T07:39:21Z</time>
      </trkpt>
      <trkpt lat="49.37805" lon="1.05451">
        <ele>67.8</ele>
        <time>2019-11-11T07:39:22Z</time>
      </trkpt>
      <trkpt lat="49.37803" lon="1.05457">
        <ele>67.8</ele>
        <time>2019-11-11T07:39:23Z</time>
      </trkpt>
      <trkpt lat="49.37801" lon="1.05463">
        <ele>67.8</ele>
        <time>2019-11-11T07:39:24Z</time>
      </trkpt>
      <trkpt lat="49.37799" lon="1.05468">
        <ele>67.8</ele>
        <time>2019-11-11T07:39:25Z</time>
      </trkpt>
      <trkpt lat="49.37797" lon="1.05474">
        <ele>67.8</ele>
        <time>2019-11-11T07:39:26Z</time>
      </trkpt>
      <trkpt lat="49.37795" lon="1.0548">
        <ele>67.8</ele>
        <time>2019-11-11T07:39:27Z</time>
      </trkpt>
      <trkpt lat="49.37793" lon="1.05486">
        <ele>67.8</ele>
        <time>2019-11-11T07:39:28Z</time>
      </trkpt>
      <trkpt lat="49.37791" lon="1.05492">
        <ele>68.7</ele>
        <time>2019-11-11T07:39:29Z</time>
      </trkpt>
      <trkpt lat="49.37789" lon="1.05498">
        <ele>68.7</ele>
        <time>2019-11-11T07:39:30Z</time>
      </trkpt>
      <trkpt lat="49.37787" lon="1.05504">
        <ele>68.7</ele>
        <time>2019-11-11T07:39:31Z</time>
      </trkpt>
      <trkpt lat="49.37785" lon="1.0551">
        <ele>68.7</ele>
        <time>2019-11-11T07:39:32Z</time>
      </trkpt>
      <trkpt lat="49.37782" lon="1.05516">
        <ele>68.7</ele>
        <time>2019-11-11T07:39:33Z</time>
      </trkpt>
      <trkpt lat="49.3778" lon="1.05522">
        <ele>68.7</ele>
        <time>2019-11-11T07:39:34Z</time>
      </trkpt>
      <trkpt lat="49.37778" lon="1.05528">
        <ele>69.8</ele>
        <time>2019-11-11T07:39:35Z</time>
      </trkpt>
      <trkpt lat="49.37776" lon="1.05534">
        <ele>69.8</ele>
        <time>2019-11-11T07:39:36Z</time>
      </trkpt>
      <trkpt lat="49.37774" lon="1.0554">
        <ele>69.8</ele>
        <time>2019-11-11T07:39:37Z</time>
      </trkpt>
      <trkpt lat="49.37772" lon="1.05546">
        <ele>69.8</ele>
        <time>2019-11-11T07:39:38Z</time>
      </trkpt>
      <trkpt lat="49.3777" lon="1.05553">
        <ele>69.8</ele>
        <time>2019-11-11T07:39:39Z</time>
      </trkpt>
      <trkpt lat="49.37768" lon="1.05559">
        <ele>69.8</ele>
        <time>2019-11-11T07:39:40Z</time>
      </trkpt>
      <trkpt lat="49.37766" lon="1.05565">
        <ele>69.8</ele>
        <time>2019-11-11T07:39:41Z</time>
      </trkpt>
      <trkpt lat="49.37764" lon="1.05571">
        <ele>69.8</ele>
        <time>2019-11-11T07:39:42Z</time>
      </trkpt>
      <trkpt lat="49.37762" lon="1.05577">
        <ele>69.8</ele>
        <time>2019-11-11T07:39:43Z</time>
      </trkpt>
      <trkpt lat="49.37759" lon="1.05583">
        <ele>69.8</ele>
        <time>2019-11-11T07:39:44Z</time>
      </trkpt>
      <trkpt lat="49.37757" lon="1.0559">
        <ele>69.8</ele>
        <time>2019-11-11T07:39:45Z</time>
      </trkpt>
      <trkpt lat="49.37755" lon="1.05596">
        <ele>69.8</ele>
        <time>2019-11-11T07:39:46Z</time>
      </trkpt>
      <trkpt lat="49.37753" lon="1.05602">
        <ele>70.7</ele>
        <time>2019-11-11T07:39:47Z</time>
      </trkpt>
      <trkpt lat="49.37751" lon="1.05608">
        <ele>70.7</ele>
        <time>2019-11-11T07:39:48Z</time>
      </trkpt>
      <trkpt lat="49.37749" lon="1.05615">
        <ele>70.7</ele>
        <time>2019-11-11T07:39:49Z</time>
      </trkpt>
      <trkpt lat="49.37747" lon="1.05621">
        <ele>70.7</ele>
        <time>2019-11-11T07:39:50Z</time>
      </trkpt>
      <trkpt lat="49.37745" lon="1.05627">
        <ele>70.7</ele>
        <time>2019-11-11T07:39:51Z</time>
      </trkpt>
      <trkpt lat="49.37743" lon="1.05634">
        <ele>70.7</ele>
        <time>2019-11-11T07:39:52Z</time>
      </trkpt>
      <trkpt lat="49.3774" lon="1.05639">
        <ele>70.7</ele>
        <time>2019-11-11T07:39:53Z</time>
      </trkpt>
      <trkpt lat="49.37738" lon="1.05644">
        <ele>70.7</ele>
        <time>2019-11-11T07:39:54Z</time>
      </trkpt>
      <trkpt lat="49.37735" lon="1.05645">
        <ele>70.7</ele>
        <time>2019-11-11T07:39:55Z</time>
      </trkpt>
      <trkpt lat="49.37732" lon="1.05644">
        <ele>70.7</ele>
        <time>2019-11-11T07:39:56Z</time>
      </trkpt>
      <trkpt lat="49.3773" lon="1.05643">
        <ele>70.7</ele>
        <time>2019-11-11T07:39:57Z</time>
      </trkpt>
      <trkpt lat="49.37729" lon="1.05641">
        <ele>70.7</ele>
        <time>2019-11-11T07:39:58Z</time>
      </trkpt>
      <trkpt lat="49.37727" lon="1.0564">
        <ele>70.7</ele>
        <time>2019-11-11T07:39:59Z</time>
      </trkpt>
      <trkpt lat="49.37724" lon="1.05638">
        <ele>70.7</ele>
        <time>2019-11-11T07:40:00Z</time>
      </trkpt>
      <trkpt lat="49.37721" lon="1.05638">
        <ele>70.7</ele>
        <time>2019-11-11T07:40:01Z</time>
      </trkpt>
      <trkpt lat="49.37718" lon="1.05637">
        <ele>70.7</ele>
        <time>2019-11-11T07:40:02Z</time>
      </trkpt>
      <trkpt lat="49.37715" lon="1.05635">
        <ele>70.7</ele>
        <time>2019-11-11T07:40:03Z</time>
      </trkpt>
      <trkpt lat="49.37712" lon="1.05632">
        <ele>70.7</ele>
        <time>2019-11-11T07:40:04Z</time>
      </trkpt>
      <trkpt lat="49.37708" lon="1.05629">
        <ele>70.7</ele>
        <time>2019-11-11T07:40:05Z</time>
      </trkpt>
      <trkpt lat="49.37704" lon="1.05627">
        <ele>70.7</ele>
        <time>2019-11-11T07:40:06Z</time>
      </trkpt>
      <trkpt lat="49.37701" lon="1.05624">
        <ele>70.7</ele>
        <time>2019-11-11T07:40:07Z</time>
      </trkpt>
      <trkpt lat="49.37698" lon="1.05622">
        <ele>70.7</ele>
        <time>2019-11-11T07:40:08Z</time>
      </trkpt>
      <trkpt lat="49.37694" lon="1.05618">
        <ele>70.7</ele>
        <time>2019-11-11T07:40:09Z</time>
      </trkpt>
      <trkpt lat="49.37691" lon="1.05616">
        <ele>70.7</ele>
        <time>2019-11-11T07:40:10Z</time>
      </trkpt>
      <trkpt lat="49.37688" lon="1.05613">
        <ele>70.7</ele>
        <time>2019-11-11T07:40:11Z</time>
      </trkpt>
      <trkpt lat="49.37684" lon="1.0561">
        <ele>70.7</ele>
        <time>2019-11-11T07:40:12Z</time>
      </trkpt>
      <trkpt lat="49.3768" lon="1.05607">
        <ele>70.7</ele>
        <time>2019-11-11T07:40:13Z</time>
      </trkpt>
      <trkpt lat="49.37677" lon="1.05605">
        <ele>70.7</ele>
        <time>2019-11-11T07:40:14Z</time>
      </trkpt>
      <trkpt lat="49.37673" lon="1.05602">
        <ele>70.7</ele>
        <time>2019-11-11T07:40:15Z</time>
      </trkpt>
      <trkpt lat="49.37669" lon="1.05598">
        <ele>70.7</ele>
        <time>2019-11-11T07:40:16Z</time>
      </trkpt>
      <trkpt lat="49.37666" lon="1.05596">
        <ele>70.7</ele>
        <time>2019-11-11T07:40:17Z</time>
      </trkpt>
      <trkpt lat="49.37662" lon="1.05593">
        <ele>70.7</ele>
        <time>2019-11-11T07:40:18Z</time>
      </trkpt>
      <trkpt lat="49.37658" lon="1.05589">
        <ele>70.7</ele>
        <time>2019-11-11T07:40:19Z</time>
      </trkpt>
      <trkpt lat="49.37654" lon="1.05586">
        <ele>70.7</ele>
        <time>2019-11-11T07:40:20Z</time>
      </trkpt>
      <trkpt lat="49.3765" lon="1.05583">
        <ele>70.7</ele>
        <time>2019-11-11T07:40:21Z</time>
      </trkpt>
      <trkpt lat="49.37646" lon="1.0558">
        <ele>70.7</ele>
        <time>2019-11-11T07:40:22Z</time>
      </trkpt>
      <trkpt lat="49.37641" lon="1.05577">
        <ele>70.7</ele>
        <time>2019-11-11T07:40:23Z</time>
      </trkpt>
      <trkpt lat="49.37637" lon="1.05574">
        <ele>70.7</ele>
        <time>2019-11-11T07:40:24Z</time>
      </trkpt>
      <trkpt lat="49.37633" lon="1.0557">
        <ele>70.7</ele>
        <time>2019-11-11T07:40:25Z</time>
      </trkpt>
      <trkpt lat="49.37628" lon="1.05566">
        <ele>70.7</ele>
        <time>2019-11-11T07:40:26Z</time>
      </trkpt>
      <trkpt lat="49.37624" lon="1.05563">
        <ele>70.7</ele>
        <time>2019-11-11T07:40:27Z</time>
      </trkpt>
      <trkpt lat="49.37619" lon="1.05559">
        <ele>70.7</ele>
        <time>2019-11-11T07:40:28Z</time>
      </trkpt>
      <trkpt lat="49.37615" lon="1.05555">
        <ele>70.7</ele>
        <time>2019-11-11T07:40:29Z</time>
      </trkpt>
      <trkpt lat="49.3761" lon="1.05552">
        <ele>70.7</ele>
        <time>2019-11-11T07:40:30Z</time>
      </trkpt>
      <trkpt lat="49.37606" lon="1.05548">
        <ele>70.7</ele>
        <time>2019-11-11T07:40:31Z</time>
      </trkpt>
      <trkpt lat="49.37601" lon="1.05545">
        <ele>70.7</ele>
        <time>2019-11-11T07:40:32Z</time>
      </trkpt>
      <trkpt lat="49.37596" lon="1.05541">
        <ele>70.7</ele>
        <time>2019-11-11T07:40:33Z</time>
      </trkpt>
      <trkpt lat="49.37591" lon="1.05537">
        <ele>70.7</ele>
        <time>2019-11-11T07:40:34Z</time>
      </trkpt>
      <trkpt lat="49.37586" lon="1.05533">
        <ele>69.8</ele>
        <time>2019-11-11T07:40:35Z</time>
      </trkpt>
      <trkpt lat="49.37581" lon="1.05529">
        <ele>69.8</ele>
        <time>2019-11-11T07:40:36Z</time>
      </trkpt>
      <trkpt lat="49.37575" lon="1.05525">
        <ele>69.8</ele>
        <time>2019-11-11T07:40:37Z</time>
      </trkpt>
      <trkpt lat="49.3757" lon="1.05521">
        <ele>69.8</ele>
        <time>2019-11-11T07:40:38Z</time>
      </trkpt>
      <trkpt lat="49.37564" lon="1.05516">
        <ele>68.7</ele>
        <time>2019-11-11T07:40:39Z</time>
      </trkpt>
      <trkpt lat="49.37559" lon="1.05511">
        <ele>68.7</ele>
        <time>2019-11-11T07:40:40Z</time>
      </trkpt>
      <trkpt lat="49.37554" lon="1.05507">
        <ele>68.7</ele>
        <time>2019-11-11T07:40:41Z</time>
      </trkpt>
      <trkpt lat="49.37549" lon="1.05504">
        <ele>68.7</ele>
        <time>2019-11-11T07:40:42Z</time>
      </trkpt>
      <trkpt lat="49.37544" lon="1.05501">
        <ele>67.8</ele>
        <time>2019-11-11T07:40:43Z</time>
      </trkpt>
      <trkpt lat="49.37539" lon="1.05498">
        <ele>67.8</ele>
        <time>2019-11-11T07:40:44Z</time>
      </trkpt>
      <trkpt lat="49.37534" lon="1.05495">
        <ele>67.8</ele>
        <time>2019-11-11T07:40:45Z</time>
      </trkpt>
      <trkpt lat="49.3753" lon="1.05492">
        <ele>67.8</ele>
        <time>2019-11-11T07:40:46Z</time>
      </trkpt>
      <trkpt lat="49.37526" lon="1.05489">
        <ele>67.8</ele>
        <time>2019-11-11T07:40:47Z</time>
      </trkpt>
      <trkpt lat="49.37521" lon="1.05487">
        <ele>67.8</ele>
        <time>2019-11-11T07:40:48Z</time>
      </trkpt>
      <trkpt lat="49.37518" lon="1.05484">
        <ele>67.8</ele>
        <time>2019-11-11T07:40:49Z</time>
      </trkpt>
      <trkpt lat="49.37514" lon="1.05482">
        <ele>67.8</ele>
        <time>2019-11-11T07:40:50Z</time>
      </trkpt>
      <trkpt lat="49.3751" lon="1.05481">
        <ele>67.8</ele>
        <time>2019-11-11T07:40:51Z</time>
      </trkpt>
      <trkpt lat="49.37506" lon="1.05479">
        <ele>67.8</ele>
        <time>2019-11-11T07:40:52Z</time>
      </trkpt>
      <trkpt lat="49.37503" lon="1.05476">
        <ele>67.8</ele>
        <time>2019-11-11T07:40:53Z</time>
      </trkpt>
      <trkpt lat="49.37499" lon="1.05473">
        <ele>67.8</ele>
        <time>2019-11-11T07:40:54Z</time>
      </trkpt>
      <trkpt lat="49.37495" lon="1.05471">
        <ele>68.7</ele>
        <time>2019-11-11T07:40:55Z</time>
      </trkpt>
      <trkpt lat="49.37492" lon="1.05468">
        <ele>68.7</ele>
        <time>2019-11-11T07:40:56Z</time>
      </trkpt>
      <trkpt lat="49.37488" lon="1.05466">
        <ele>69.8</ele>
        <time>2019-11-11T07:40:57Z</time>
      </trkpt>
      <trkpt lat="49.37484" lon="1.05463">
        <ele>69.8</ele>
        <time>2019-11-11T07:40:58Z</time>
      </trkpt>
      <trkpt lat="49.3748" lon="1.05461">
        <ele>69.8</ele>
        <time>2019-11-11T07:40:59Z</time>
      </trkpt>
      <trkpt lat="49.37476" lon="1.05458">
        <ele>69.8</ele>
        <time>2019-11-11T07:41:00Z</time>
      </trkpt>
      <trkpt lat="49.37472" lon="1.05456">
        <ele>69.8</ele>
        <time>2019-11-11T07:41:01Z</time>
      </trkpt>
      <trkpt lat="49.37468" lon="1.05453">
        <ele>69.8</ele>
        <time>2019-11-11T07:41:02Z</time>
      </trkpt>
      <trkpt lat="49.37464" lon="1.05451">
        <ele>70.7</ele>
        <time>2019-11-11T07:41:03Z</time>
      </trkpt>
      <trkpt lat="49.3746" lon="1.05448">
        <ele>70.7</ele>
        <time>2019-11-11T07:41:04Z</time>
      </trkpt>
      <trkpt lat="49.37456" lon="1.05445">
        <ele>70.7</ele>
        <time>2019-11-11T07:41:05Z</time>
      </trkpt>
      <trkpt lat="49.37453" lon="1.05442">
        <ele>70.7</ele>
        <time>2019-11-11T07:41:06Z</time>
      </trkpt>
      <trkpt lat="49.37449" lon="1.05439">
        <ele>71.8</ele>
        <time>2019-11-11T07:41:07Z</time>
      </trkpt>
      <trkpt lat="49.37445" lon="1.05437">
        <ele>71.8</ele>
        <time>2019-11-11T07:41:08Z</time>
      </trkpt>
      <trkpt lat="49.37442" lon="1.05434">
        <ele>71.8</ele>
        <time>2019-11-11T07:41:09Z</time>
      </trkpt>
      <trkpt lat="49.37438" lon="1.05431">
        <ele>71.8</ele>
        <time>2019-11-11T07:41:10Z</time>
      </trkpt>
      <trkpt lat="49.37434" lon="1.05428">
        <ele>71.8</ele>
        <time>2019-11-11T07:41:11Z</time>
      </trkpt>
      <trkpt lat="49.37431" lon="1.05425">
        <ele>71.8</ele>
        <time>2019-11-11T07:41:12Z</time>
      </trkpt>
      <trkpt lat="49.37427" lon="1.05422">
        <ele>72.7</ele>
        <time>2019-11-11T07:41:13Z</time>
      </trkpt>
      <trkpt lat="49.37423" lon="1.05419">
        <ele>72.7</ele>
        <time>2019-11-11T07:41:14Z</time>
      </trkpt>
      <trkpt lat="49.3742" lon="1.05416">
        <ele>72.7</ele>
        <time>2019-11-11T07:41:15Z</time>
      </trkpt>
      <trkpt lat="49.37416" lon="1.05413">
        <ele>72.7</ele>
        <time>2019-11-11T07:41:16Z</time>
      </trkpt>
      <trkpt lat="49.37412" lon="1.05411">
        <ele>72.7</ele>
        <time>2019-11-11T07:41:17Z</time>
      </trkpt>
      <trkpt lat="49.37408" lon="1.05408">
        <ele>72.7</ele>
        <time>2019-11-11T07:41:18Z</time>
      </trkpt>
      <trkpt lat="49.37405" lon="1.05405">
        <ele>72.7</ele>
        <time>2019-11-11T07:41:19Z</time>
      </trkpt>
      <trkpt lat="49.37401" lon="1.05402">
        <ele>72.7</ele>
        <time>2019-11-11T07:41:20Z</time>
      </trkpt>
      <trkpt lat="49.37398" lon="1.05399">
        <ele>72.7</ele>
        <time>2019-11-11T07:41:21Z</time>
      </trkpt>
      <trkpt lat="49.37394" lon="1.05396">
        <ele>72.7</ele>
        <time>2019-11-11T07:41:22Z</time>
      </trkpt>
      <trkpt lat="49.37391" lon="1.05393">
        <ele>72.7</ele>
        <time>2019-11-11T07:41:23Z</time>
      </trkpt>
      <trkpt lat="49.37388" lon="1.0539">
        <ele>72.7</ele>
        <time>2019-11-11T07:41:24Z</time>
      </trkpt>
      <trkpt lat="49.37385" lon="1.05387">
        <ele>72.7</ele>
        <time>2019-11-11T07:41:25Z</time>
      </trkpt>
      <trkpt lat="49.37381" lon="1.05384">
        <ele>72.7</ele>
        <time>2019-11-11T07:41:26Z</time>
      </trkpt>
      <trkpt lat="49.37377" lon="1.05381">
        <ele>72.7</ele>
        <time>2019-11-11T07:41:27Z</time>
      </trkpt>
      <trkpt lat="49.37374" lon="1.05379">
        <ele>72.7</ele>
        <time>2019-11-11T07:41:28Z</time>
      </trkpt>
      <trkpt lat="49.3737" lon="1.05376">
        <ele>73.8</ele>
        <time>2019-11-11T07:41:29Z</time>
      </trkpt>
      <trkpt lat="49.37367" lon="1.05374">
        <ele>73.8</ele>
        <time>2019-11-11T07:41:30Z</time>
      </trkpt>
      <trkpt lat="49.37363" lon="1.05371">
        <ele>73.8</ele>
        <time>2019-11-11T07:41:31Z</time>
      </trkpt>
      <trkpt lat="49.37359" lon="1.05368">
        <ele>73.8</ele>
        <time>2019-11-11T07:41:32Z</time>
      </trkpt>
      <trkpt lat="49.37355" lon="1.05366">
        <ele>73.8</ele>
        <time>2019-11-11T07:41:33Z</time>
      </trkpt>
      <trkpt lat="49.37351" lon="1.05363">
        <ele>73.8</ele>
        <time>2019-11-11T07:41:34Z</time>
      </trkpt>
      <trkpt lat="49.37347" lon="1.05361">
        <ele>74.7</ele>
        <time>2019-11-11T07:41:35Z</time>
      </trkpt>
      <trkpt lat="49.37343" lon="1.05358">
        <ele>74.7</ele>
        <time>2019-11-11T07:41:36Z</time>
      </trkpt>
      <trkpt lat="49.37339" lon="1.05356">
        <ele>74.7</ele>
        <time>2019-11-11T07:41:37Z</time>
      </trkpt>
      <trkpt lat="49.37336" lon="1.05353">
        <ele>74.7</ele>
        <time>2019-11-11T07:41:38Z</time>
      </trkpt>
      <trkpt lat="49.37332" lon="1.0535">
        <ele>74.7</ele>
        <time>2019-11-11T07:41:39Z</time>
      </trkpt>
      <trkpt lat="49.37328" lon="1.05347">
        <ele>74.7</ele>
        <time>2019-11-11T07:41:40Z</time>
      </trkpt>
      <trkpt lat="49.37324" lon="1.05345">
        <ele>74.7</ele>
        <time>2019-11-11T07:41:41Z</time>
      </trkpt>
      <trkpt lat="49.3732" lon="1.05342">
        <ele>74.7</ele>
        <time>2019-11-11T07:41:42Z</time>
      </trkpt>
      <trkpt lat="49.37316" lon="1.0534">
        <ele>74.7</ele>
        <time>2019-11-11T07:41:43Z</time>
      </trkpt>
      <trkpt lat="49.37312" lon="1.05337">
        <ele>74.7</ele>
        <time>2019-11-11T07:41:44Z</time>
      </trkpt>
      <trkpt lat="49.37309" lon="1.05335">
        <ele>75.7</ele>
        <time>2019-11-11T07:41:45Z</time>
      </trkpt>
      <trkpt lat="49.37305" lon="1.05332">
        <ele>75.7</ele>
        <time>2019-11-11T07:41:46Z</time>
      </trkpt>
      <trkpt lat="49.37301" lon="1.05329">
        <ele>75.7</ele>
        <time>2019-11-11T07:41:47Z</time>
      </trkpt>
      <trkpt lat="49.37297" lon="1.05327">
        <ele>75.7</ele>
        <time>2019-11-11T07:41:48Z</time>
      </trkpt>
      <trkpt lat="49.37293" lon="1.05324">
        <ele>75.7</ele>
        <time>2019-11-11T07:41:49Z</time>
      </trkpt>
      <trkpt lat="49.3729" lon="1.05321">
        <ele>75.7</ele>
        <time>2019-11-11T07:41:50Z</time>
      </trkpt>
      <trkpt lat="49.37286" lon="1.05317">
        <ele>75.7</ele>
        <time>2019-11-11T07:41:51Z</time>
      </trkpt>
      <trkpt lat="49.37282" lon="1.05314">
        <ele>75.7</ele>
        <time>2019-11-11T07:41:52Z</time>
      </trkpt>
      <trkpt lat="49.37278" lon="1.05311">
        <ele>75.7</ele>
        <time>2019-11-11T07:41:53Z</time>
      </trkpt>
      <trkpt lat="49.37274" lon="1.05308">
        <ele>75.7</ele>
        <time>2019-11-11T07:41:54Z</time>
      </trkpt>
      <trkpt lat="49.37271" lon="1.05306">
        <ele>76.8</ele>
        <time>2019-11-11T07:41:55Z</time>
      </trkpt>
      <trkpt lat="49.37266" lon="1.05304">
        <ele>76.8</ele>
        <time>2019-11-11T07:41:56Z</time>
      </trkpt>
      <trkpt lat="49.37262" lon="1.05302">
        <ele>76.8</ele>
        <time>2019-11-11T07:41:57Z</time>
      </trkpt>
      <trkpt lat="49.37258" lon="1.053">
        <ele>76.8</ele>
        <time>2019-11-11T07:41:58Z</time>
      </trkpt>
      <trkpt lat="49.37255" lon="1.05297">
        <ele>76.8</ele>
        <time>2019-11-11T07:41:59Z</time>
      </trkpt>
      <trkpt lat="49.37251" lon="1.05294">
        <ele>76.8</ele>
        <time>2019-11-11T07:42:00Z</time>
      </trkpt>
      <trkpt lat="49.37248" lon="1.05292">
        <ele>76.8</ele>
        <time>2019-11-11T07:42:01Z</time>
      </trkpt>
      <trkpt lat="49.37244" lon="1.05289">
        <ele>76.8</ele>
        <time>2019-11-11T07:42:02Z</time>
      </trkpt>
      <trkpt lat="49.3724" lon="1.05287">
        <ele>77.7</ele>
        <time>2019-11-11T07:42:03Z</time>
      </trkpt>
      <trkpt lat="49.37237" lon="1.05284">
        <ele>77.7</ele>
        <time>2019-11-11T07:42:04Z</time>
      </trkpt>
      <trkpt lat="49.37234" lon="1.05282">
        <ele>77.7</ele>
        <time>2019-11-11T07:42:05Z</time>
      </trkpt>
      <trkpt lat="49.3723" lon="1.05279">
        <ele>77.7</ele>
        <time>2019-11-11T07:42:06Z</time>
      </trkpt>
      <trkpt lat="49.37226" lon="1.05276">
        <ele>77.7</ele>
        <time>2019-11-11T07:42:07Z</time>
      </trkpt>
      <trkpt lat="49.37223" lon="1.05274">
        <ele>77.7</ele>
        <time>2019-11-11T07:42:08Z</time>
      </trkpt>
      <trkpt lat="49.37219" lon="1.05271">
        <ele>77.7</ele>
        <time>2019-11-11T07:42:09Z</time>
      </trkpt>
      <trkpt lat="49.37215" lon="1.05269">
        <ele>77.7</ele>
        <time>2019-11-11T07:42:10Z</time>
      </trkpt>
      <trkpt lat="49.37212" lon="1.05266">
        <ele>77.7</ele>
        <time>2019-11-11T07:42:11Z</time>
      </trkpt>
      <trkpt lat="49.37208" lon="1.05264">
        <ele>77.7</ele>
        <time>2019-11-11T07:42:12Z</time>
      </trkpt>
      <trkpt lat="49.37205" lon="1.05262">
        <ele>77.7</ele>
        <time>2019-11-11T07:42:13Z</time>
      </trkpt>
      <trkpt lat="49.37201" lon="1.0526">
        <ele>77.7</ele>
        <time>2019-11-11T07:42:14Z</time>
      </trkpt>
      <trkpt lat="49.37198" lon="1.05258">
        <ele>78.8</ele>
        <time>2019-11-11T07:42:15Z</time>
      </trkpt>
      <trkpt lat="49.37194" lon="1.05255">
        <ele>78.8</ele>
        <time>2019-11-11T07:42:16Z</time>
      </trkpt>
      <trkpt lat="49.37191" lon="1.05253">
        <ele>78.8</ele>
        <time>2019-11-11T07:42:17Z</time>
      </trkpt>
      <trkpt lat="49.37187" lon="1.05251">
        <ele>78.8</ele>
        <time>2019-11-11T07:42:18Z</time>
      </trkpt>
      <trkpt lat="49.37184" lon="1.05248">
        <ele>79.7</ele>
        <time>2019-11-11T07:42:19Z</time>
      </trkpt>
      <trkpt lat="49.3718" lon="1.05246">
        <ele>79.7</ele>
        <time>2019-11-11T07:42:20Z</time>
      </trkpt>
      <trkpt lat="49.37177" lon="1.05243">
        <ele>79.7</ele>
        <time>2019-11-11T07:42:21Z</time>
      </trkpt>
      <trkpt lat="49.37174" lon="1.05241">
        <ele>79.7</ele>
        <time>2019-11-11T07:42:22Z</time>
      </trkpt>
      <trkpt lat="49.3717" lon="1.05239">
        <ele>79.7</ele>
        <time>2019-11-11T07:42:23Z</time>
      </trkpt>
      <trkpt lat="49.37166" lon="1.05237">
        <ele>79.7</ele>
        <time>2019-11-11T07:42:24Z</time>
      </trkpt>
      <trkpt lat="49.37163" lon="1.05236">
        <ele>79.7</ele>
        <time>2019-11-11T07:42:25Z</time>
      </trkpt>
      <trkpt lat="49.37159" lon="1.05234">
        <ele>79.7</ele>
        <time>2019-11-11T07:42:26Z</time>
      </trkpt>
      <trkpt lat="49.37155" lon="1.05232">
        <ele>79.7</ele>
        <time>2019-11-11T07:42:27Z</time>
      </trkpt>
      <trkpt lat="49.37152" lon="1.0523">
        <ele>79.7</ele>
        <time>2019-11-11T07:42:28Z</time>
      </trkpt>
      <trkpt lat="49.37148" lon="1.05228">
        <ele>79.7</ele>
        <time>2019-11-11T07:42:29Z</time>
      </trkpt>
      <trkpt lat="49.37145" lon="1.05225">
        <ele>79.7</ele>
        <time>2019-11-11T07:42:30Z</time>
      </trkpt>
      <trkpt lat="49.37142" lon="1.05223">
        <ele>79.7</ele>
        <time>2019-11-11T07:42:31Z</time>
      </trkpt>
      <trkpt lat="49.37138" lon="1.0522">
        <ele>79.7</ele>
        <time>2019-11-11T07:42:32Z</time>
      </trkpt>
      <trkpt lat="49.37136" lon="1.05217">
        <ele>79.7</ele>
        <time>2019-11-11T07:42:33Z</time>
      </trkpt>
      <trkpt lat="49.37133" lon="1.05215">
        <ele>79.7</ele>
        <time>2019-11-11T07:42:34Z</time>
      </trkpt>
      <trkpt lat="49.3713" lon="1.05212">
        <ele>79.7</ele>
        <time>2019-11-11T07:42:35Z</time>
      </trkpt>
      <trkpt lat="49.37127" lon="1.0521">
        <ele>79.7</ele>
        <time>2019-11-11T07:42:36Z</time>
      </trkpt>
      <trkpt lat="49.37124" lon="1.05207">
        <ele>79.7</ele>
        <time>2019-11-11T07:42:37Z</time>
      </trkpt>
      <trkpt lat="49.37121" lon="1.05204">
        <ele>79.7</ele>
        <time>2019-11-11T07:42:38Z</time>
      </trkpt>
      <trkpt lat="49.37117" lon="1.05201">
        <ele>79.7</ele>
        <time>2019-11-11T07:42:39Z</time>
      </trkpt>
      <trkpt lat="49.37114" lon="1.05198">
        <ele>79.7</ele>
        <time>2019-11-11T07:42:40Z</time>
      </trkpt>
      <trkpt lat="49.37111" lon="1.05195">
        <ele>80.8</ele>
        <time>2019-11-11T07:42:41Z</time>
      </trkpt>
      <trkpt lat="49.37107" lon="1.05193">
        <ele>80.8</ele>
        <time>2019-11-11T07:42:42Z</time>
      </trkpt>
      <trkpt lat="49.37103" lon="1.0519">
        <ele>80.8</ele>
        <time>2019-11-11T07:42:43Z</time>
      </trkpt>
      <trkpt lat="49.371" lon="1.05187">
        <ele>80.8</ele>
        <time>2019-11-11T07:42:44Z</time>
      </trkpt>
      <trkpt lat="49.37096" lon="1.05185">
        <ele>80.8</ele>
        <time>2019-11-11T07:42:45Z</time>
      </trkpt>
      <trkpt lat="49.37093" lon="1.05182">
        <ele>80.8</ele>
        <time>2019-11-11T07:42:46Z</time>
      </trkpt>
      <trkpt lat="49.37089" lon="1.05179">
        <ele>80.8</ele>
        <time>2019-11-11T07:42:47Z</time>
      </trkpt>
      <trkpt lat="49.37086" lon="1.05176">
        <ele>80.8</ele>
        <time>2019-11-11T07:42:48Z</time>
      </trkpt>
      <trkpt lat="49.37082" lon="1.05174">
        <ele>80.8</ele>
        <time>2019-11-11T07:42:49Z</time>
      </trkpt>
      <trkpt lat="49.37078" lon="1.05171">
        <ele>80.8</ele>
        <time>2019-11-11T07:42:50Z</time>
      </trkpt>
      <trkpt lat="49.37075" lon="1.05169">
        <ele>81.7</ele>
        <time>2019-11-11T07:42:51Z</time>
      </trkpt>
      <trkpt lat="49.37071" lon="1.05167">
        <ele>81.7</ele>
        <time>2019-11-11T07:42:52Z</time>
      </trkpt>
      <trkpt lat="49.37067" lon="1.05164">
        <ele>81.7</ele>
        <time>2019-11-11T07:42:53Z</time>
      </trkpt>
      <trkpt lat="49.37064" lon="1.05161">
        <ele>81.7</ele>
        <time>2019-11-11T07:42:54Z</time>
      </trkpt>
      <trkpt lat="49.3706" lon="1.05159">
        <ele>81.7</ele>
        <time>2019-11-11T07:42:55Z</time>
      </trkpt>
      <trkpt lat="49.37057" lon="1.05156">
        <ele>81.7</ele>
        <time>2019-11-11T07:42:56Z</time>
      </trkpt>
      <trkpt lat="49.37053" lon="1.05154">
        <ele>82.8</ele>
        <time>2019-11-11T07:42:57Z</time>
      </trkpt>
      <trkpt lat="49.37049" lon="1.05151">
        <ele>82.8</ele>
        <time>2019-11-11T07:42:58Z</time>
      </trkpt>
      <trkpt lat="49.37045" lon="1.05148">
        <ele>82.8</ele>
        <time>2019-11-11T07:42:59Z</time>
      </trkpt>
      <trkpt lat="49.37042" lon="1.05145">
        <ele>82.8</ele>
        <time>2019-11-11T07:43:00Z</time>
      </trkpt>
      <trkpt lat="49.37038" lon="1.05141">
        <ele>82.8</ele>
        <time>2019-11-11T07:43:01Z</time>
      </trkpt>
      <trkpt lat="49.37035" lon="1.05139">
        <ele>82.8</ele>
        <time>2019-11-11T07:43:02Z</time>
      </trkpt>
      <trkpt lat="49.37032" lon="1.05135">
        <ele>82.8</ele>
        <time>2019-11-11T07:43:03Z</time>
      </trkpt>
      <trkpt lat="49.37028" lon="1.05132">
        <ele>82.8</ele>
        <time>2019-11-11T07:43:04Z</time>
      </trkpt>
      <trkpt lat="49.37024" lon="1.0513">
        <ele>82.8</ele>
        <time>2019-11-11T07:43:05Z</time>
      </trkpt>
      <trkpt lat="49.3702" lon="1.05128">
        <ele>82.8</ele>
        <time>2019-11-11T07:43:06Z</time>
      </trkpt>
      <trkpt lat="49.37016" lon="1.05126">
        <ele>82.8</ele>
        <time>2019-11-11T07:43:07Z</time>
      </trkpt>
      <trkpt lat="49.37013" lon="1.05123">
        <ele>82.8</ele>
        <time>2019-11-11T07:43:08Z</time>
      </trkpt>
      <trkpt lat="49.37009" lon="1.0512">
        <ele>83.7</ele>
        <time>2019-11-11T07:43:09Z</time>
      </trkpt>
      <trkpt lat="49.37005" lon="1.05118">
        <ele>83.7</ele>
        <time>2019-11-11T07:43:10Z</time>
      </trkpt>
      <trkpt lat="49.37002" lon="1.05116">
        <ele>83.7</ele>
        <time>2019-11-11T07:43:11Z</time>
      </trkpt>
      <trkpt lat="49.36998" lon="1.05113">
        <ele>83.7</ele>
        <time>2019-11-11T07:43:12Z</time>
      </trkpt>
      <trkpt lat="49.36994" lon="1.05111">
        <ele>83.7</ele>
        <time>2019-11-11T07:43:13Z</time>
      </trkpt>
      <trkpt lat="49.36991" lon="1.05109">
        <ele>83.7</ele>
        <time>2019-11-11T07:43:14Z</time>
      </trkpt>
      <trkpt lat="49.36987" lon="1.05106">
        <ele>83.7</ele>
        <time>2019-11-11T07:43:15Z</time>
      </trkpt>
      <trkpt lat="49.36984" lon="1.05104">
        <ele>83.7</ele>
        <time>2019-11-11T07:43:16Z</time>
      </trkpt>
      <trkpt lat="49.3698" lon="1.05101">
        <ele>83.7</ele>
        <time>2019-11-11T07:43:17Z</time>
      </trkpt>
      <trkpt lat="49.36977" lon="1.05098">
        <ele>83.7</ele>
        <time>2019-11-11T07:43:18Z</time>
      </trkpt>
      <trkpt lat="49.36974" lon="1.05095">
        <ele>83.7</ele>
        <time>2019-11-11T07:43:19Z</time>
      </trkpt>
      <trkpt lat="49.3697" lon="1.05093">
        <ele>83.7</ele>
        <time>2019-11-11T07:43:20Z</time>
      </trkpt>
      <trkpt lat="49.36967" lon="1.0509">
        <ele>83.7</ele>
        <time>2019-11-11T07:43:21Z</time>
      </trkpt>
      <trkpt lat="49.36963" lon="1.05087">
        <ele>83.7</ele>
        <time>2019-11-11T07:43:22Z</time>
      </trkpt>
      <trkpt lat="49.3696" lon="1.05083">
        <ele>83.7</ele>
        <time>2019-11-11T07:43:23Z</time>
      </trkpt>
      <trkpt lat="49.36957" lon="1.05081">
        <ele>83.7</ele>
        <time>2019-11-11T07:43:24Z</time>
      </trkpt>
      <trkpt lat="49.36954" lon="1.05077">
        <ele>83.7</ele>
        <time>2019-11-11T07:43:25Z</time>
      </trkpt>
      <trkpt lat="49.36951" lon="1.05074">
        <ele>83.7</ele>
        <time>2019-11-11T07:43:26Z</time>
      </trkpt>
      <trkpt lat="49.36948" lon="1.05072">
        <ele>83.7</ele>
        <time>2019-11-11T07:43:27Z</time>
      </trkpt>
      <trkpt lat="49.36945" lon="1.05068">
        <ele>83.7</ele>
        <time>2019-11-11T07:43:28Z</time>
      </trkpt>
      <trkpt lat="49.36942" lon="1.05065">
        <ele>83.7</ele>
        <time>2019-11-11T07:43:29Z</time>
      </trkpt>
      <trkpt lat="49.36938" lon="1.05062">
        <ele>83.7</ele>
        <time>2019-11-11T07:43:30Z</time>
      </trkpt>
      <trkpt lat="49.36935" lon="1.0506">
        <ele>83.7</ele>
        <time>2019-11-11T07:43:31Z</time>
      </trkpt>
      <trkpt lat="49.36931" lon="1.05056">
        <ele>83.7</ele>
        <time>2019-11-11T07:43:32Z</time>
      </trkpt>
      <trkpt lat="49.36928" lon="1.05053">
        <ele>83.7</ele>
        <time>2019-11-11T07:43:33Z</time>
      </trkpt>
      <trkpt lat="49.36925" lon="1.05051">
        <ele>83.7</ele>
        <time>2019-11-11T07:43:34Z</time>
      </trkpt>
      <trkpt lat="49.36921" lon="1.05048">
        <ele>83.7</ele>
        <time>2019-11-11T07:43:35Z</time>
      </trkpt>
      <trkpt lat="49.36918" lon="1.05045">
        <ele>83.7</ele>
        <time>2019-11-11T07:43:36Z</time>
      </trkpt>
      <trkpt lat="49.36915" lon="1.05042">
        <ele>84.7</ele>
        <time>2019-11-11T07:43:37Z</time>
      </trkpt>
      <trkpt lat="49.36912" lon="1.05039">
        <ele>84.7</ele>
        <time>2019-11-11T07:43:38Z</time>
      </trkpt>
      <trkpt lat="49.36908" lon="1.05035">
        <ele>84.7</ele>
        <time>2019-11-11T07:43:39Z</time>
      </trkpt>
      <trkpt lat="49.36905" lon="1.05032">
        <ele>84.7</ele>
        <time>2019-11-11T07:43:40Z</time>
      </trkpt>
      <trkpt lat="49.36901" lon="1.05028">
        <ele>84.7</ele>
        <time>2019-11-11T07:43:41Z</time>
      </trkpt>
      <trkpt lat="49.36898" lon="1.05025">
        <ele>84.7</ele>
        <time>2019-11-11T07:43:42Z</time>
      </trkpt>
      <trkpt lat="49.36895" lon="1.05022">
        <ele>84.7</ele>
        <time>2019-11-11T07:43:43Z</time>
      </trkpt>
      <trkpt lat="49.36891" lon="1.05019">
        <ele>84.7</ele>
        <time>2019-11-11T07:43:44Z</time>
      </trkpt>
      <trkpt lat="49.36888" lon="1.05016">
        <ele>84.7</ele>
        <time>2019-11-11T07:43:45Z</time>
      </trkpt>
      <trkpt lat="49.36885" lon="1.05014">
        <ele>84.7</ele>
        <time>2019-11-11T07:43:46Z</time>
      </trkpt>
      <trkpt lat="49.36881" lon="1.0501">
        <ele>84.7</ele>
        <time>2019-11-11T07:43:47Z</time>
      </trkpt>
      <trkpt lat="49.36878" lon="1.05007">
        <ele>84.7</ele>
        <time>2019-11-11T07:43:48Z</time>
      </trkpt>
      <trkpt lat="49.36874" lon="1.05004">
        <ele>84.7</ele>
        <time>2019-11-11T07:43:49Z</time>
      </trkpt>
      <trkpt lat="49.36871" lon="1.05001">
        <ele>84.7</ele>
        <time>2019-11-11T07:43:50Z</time>
      </trkpt>
      <trkpt lat="49.36867" lon="1.04998">
        <ele>84.7</ele>
        <time>2019-11-11T07:43:51Z</time>
      </trkpt>
      <trkpt lat="49.36864" lon="1.04995">
        <ele>84.7</ele>
        <time>2019-11-11T07:43:52Z</time>
      </trkpt>
      <trkpt lat="49.3686" lon="1.04992">
        <ele>84.7</ele>
        <time>2019-11-11T07:43:53Z</time>
      </trkpt>
      <trkpt lat="49.36857" lon="1.04988">
        <ele>84.7</ele>
        <time>2019-11-11T07:43:54Z</time>
      </trkpt>
      <trkpt lat="49.36853" lon="1.04985">
        <ele>85.8</ele>
        <time>2019-11-11T07:43:55Z</time>
      </trkpt>
      <trkpt lat="49.36849" lon="1.04982">
        <ele>85.8</ele>
        <time>2019-11-11T07:43:56Z</time>
      </trkpt>
      <trkpt lat="49.36846" lon="1.04979">
        <ele>85.8</ele>
        <time>2019-11-11T07:43:57Z</time>
      </trkpt>
      <trkpt lat="49.36842" lon="1.04976">
        <ele>85.8</ele>
        <time>2019-11-11T07:43:58Z</time>
      </trkpt>
      <trkpt lat="49.36839" lon="1.04972">
        <ele>85.8</ele>
        <time>2019-11-11T07:43:59Z</time>
      </trkpt>
      <trkpt lat="49.36835" lon="1.04969">
        <ele>85.8</ele>
        <time>2019-11-11T07:44:00Z</time>
      </trkpt>
      <trkpt lat="49.36831" lon="1.04966">
        <ele>85.8</ele>
        <time>2019-11-11T07:44:01Z</time>
      </trkpt>
      <trkpt lat="49.36827" lon="1.04963">
        <ele>85.8</ele>
        <time>2019-11-11T07:44:02Z</time>
      </trkpt>
      <trkpt lat="49.36824" lon="1.0496">
        <ele>85.8</ele>
        <time>2019-11-11T07:44:03Z</time>
      </trkpt>
      <trkpt lat="49.36821" lon="1.04956">
        <ele>85.8</ele>
        <time>2019-11-11T07:44:04Z</time>
      </trkpt>
      <trkpt lat="49.36818" lon="1.04953">
        <ele>85.8</ele>
        <time>2019-11-11T07:44:05Z</time>
      </trkpt>
      <trkpt lat="49.36814" lon="1.0495">
        <ele>85.8</ele>
        <time>2019-11-11T07:44:06Z</time>
      </trkpt>
      <trkpt lat="49.36812" lon="1.04947">
        <ele>85.8</ele>
        <time>2019-11-11T07:44:07Z</time>
      </trkpt>
      <trkpt lat="49.36808" lon="1.04944">
        <ele>85.8</ele>
        <time>2019-11-11T07:44:08Z</time>
      </trkpt>
      <trkpt lat="49.36805" lon="1.04941">
        <ele>84.7</ele>
        <time>2019-11-11T07:44:09Z</time>
      </trkpt>
      <trkpt lat="49.36802" lon="1.04938">
        <ele>84.7</ele>
        <time>2019-11-11T07:44:10Z</time>
      </trkpt>
      <trkpt lat="49.36799" lon="1.04935">
        <ele>84.7</ele>
        <time>2019-11-11T07:44:11Z</time>
      </trkpt>
      <trkpt lat="49.36796" lon="1.04932">
        <ele>84.7</ele>
        <time>2019-11-11T07:44:12Z</time>
      </trkpt>
      <trkpt lat="49.36793" lon="1.04928">
        <ele>84.7</ele>
        <time>2019-11-11T07:44:13Z</time>
      </trkpt>
      <trkpt lat="49.3679" lon="1.04925">
        <ele>84.7</ele>
        <time>2019-11-11T07:44:14Z</time>
      </trkpt>
      <trkpt lat="49.36786" lon="1.04922">
        <ele>84.7</ele>
        <time>2019-11-11T07:44:15Z</time>
      </trkpt>
      <trkpt lat="49.36783" lon="1.04919">
        <ele>84.7</ele>
        <time>2019-11-11T07:44:16Z</time>
      </trkpt>
      <trkpt lat="49.36779" lon="1.04915">
        <ele>84.7</ele>
        <time>2019-11-11T07:44:17Z</time>
      </trkpt>
      <trkpt lat="49.36776" lon="1.04912">
        <ele>84.7</ele>
        <time>2019-11-11T07:44:18Z</time>
      </trkpt>
      <trkpt lat="49.36772" lon="1.0491">
        <ele>84.7</ele>
        <time>2019-11-11T07:44:19Z</time>
      </trkpt>
      <trkpt lat="49.36769" lon="1.04907">
        <ele>84.7</ele>
        <time>2019-11-11T07:44:20Z</time>
      </trkpt>
      <trkpt lat="49.36765" lon="1.04904">
        <ele>84.7</ele>
        <time>2019-11-11T07:44:21Z</time>
      </trkpt>
      <trkpt lat="49.36762" lon="1.04901">
        <ele>84.7</ele>
        <time>2019-11-11T07:44:22Z</time>
      </trkpt>
      <trkpt lat="49.36758" lon="1.04898">
        <ele>84.7</ele>
        <time>2019-11-11T07:44:23Z</time>
      </trkpt>
      <trkpt lat="49.36755" lon="1.04895">
        <ele>84.7</ele>
        <time>2019-11-11T07:44:24Z</time>
      </trkpt>
      <trkpt lat="49.36752" lon="1.04891">
        <ele>85.8</ele>
        <time>2019-11-11T07:44:25Z</time>
      </trkpt>
      <trkpt lat="49.36748" lon="1.04887">
        <ele>85.8</ele>
        <time>2019-11-11T07:44:26Z</time>
      </trkpt>
      <trkpt lat="49.36745" lon="1.04884">
        <ele>85.8</ele>
        <time>2019-11-11T07:44:27Z</time>
      </trkpt>
      <trkpt lat="49.36741" lon="1.0488">
        <ele>85.8</ele>
        <time>2019-11-11T07:44:28Z</time>
      </trkpt>
      <trkpt lat="49.36738" lon="1.04877">
        <ele>85.8</ele>
        <time>2019-11-11T07:44:29Z</time>
      </trkpt>
      <trkpt lat="49.36735" lon="1.04873">
        <ele>85.8</ele>
        <time>2019-11-11T07:44:30Z</time>
      </trkpt>
      <trkpt lat="49.36731" lon="1.0487">
        <ele>85.8</ele>
        <time>2019-11-11T07:44:31Z</time>
      </trkpt>
      <trkpt lat="49.36727" lon="1.04867">
        <ele>85.8</ele>
        <time>2019-11-11T07:44:32Z</time>
      </trkpt>
      <trkpt lat="49.36724" lon="1.04864">
        <ele>85.8</ele>
        <time>2019-11-11T07:44:33Z</time>
      </trkpt>
      <trkpt lat="49.3672" lon="1.04861">
        <ele>85.8</ele>
        <time>2019-11-11T07:44:34Z</time>
      </trkpt>
      <trkpt lat="49.36717" lon="1.04858">
        <ele>85.8</ele>
        <time>2019-11-11T07:44:35Z</time>
      </trkpt>
      <trkpt lat="49.36713" lon="1.04856">
        <ele>85.8</ele>
        <time>2019-11-11T07:44:36Z</time>
      </trkpt>
      <trkpt lat="49.36709" lon="1.04854">
        <ele>85.8</ele>
        <time>2019-11-11T07:44:37Z</time>
      </trkpt>
      <trkpt lat="49.36706" lon="1.04852">
        <ele>85.8</ele>
        <time>2019-11-11T07:44:38Z</time>
      </trkpt>
      <trkpt lat="49.36702" lon="1.04849">
        <ele>85.8</ele>
        <time>2019-11-11T07:44:39Z</time>
      </trkpt>
      <trkpt lat="49.36699" lon="1.04845">
        <ele>85.8</ele>
        <time>2019-11-11T07:44:40Z</time>
      </trkpt>
      <trkpt lat="49.36696" lon="1.04842">
        <ele>85.8</ele>
        <time>2019-11-11T07:44:41Z</time>
      </trkpt>
      <trkpt lat="49.36693" lon="1.04837">
        <ele>85.8</ele>
        <time>2019-11-11T07:44:42Z</time>
      </trkpt>
      <trkpt lat="49.36689" lon="1.04833">
        <ele>85.8</ele>
        <time>2019-11-11T07:44:43Z</time>
      </trkpt>
      <trkpt lat="49.36686" lon="1.0483">
        <ele>85.8</ele>
        <time>2019-11-11T07:44:44Z</time>
      </trkpt>
      <trkpt lat="49.36683" lon="1.04826">
        <ele>85.8</ele>
        <time>2019-11-11T07:44:45Z</time>
      </trkpt>
      <trkpt lat="49.3668" lon="1.04822">
        <ele>85.8</ele>
        <time>2019-11-11T07:44:46Z</time>
      </trkpt>
      <trkpt lat="49.36677" lon="1.04819">
        <ele>85.8</ele>
        <time>2019-11-11T07:44:47Z</time>
      </trkpt>
      <trkpt lat="49.36674" lon="1.04816">
        <ele>85.8</ele>
        <time>2019-11-11T07:44:48Z</time>
      </trkpt>
      <trkpt lat="49.36671" lon="1.04813">
        <ele>85.8</ele>
        <time>2019-11-11T07:44:49Z</time>
      </trkpt>
      <trkpt lat="49.36667" lon="1.0481">
        <ele>85.8</ele>
        <time>2019-11-11T07:44:50Z</time>
      </trkpt>
      <trkpt lat="49.36664" lon="1.04807">
        <ele>85.8</ele>
        <time>2019-11-11T07:44:51Z</time>
      </trkpt>
      <trkpt lat="49.3666" lon="1.04804">
        <ele>85.8</ele>
        <time>2019-11-11T07:44:52Z</time>
      </trkpt>
      <trkpt lat="49.36657" lon="1.04801">
        <ele>85.8</ele>
        <time>2019-11-11T07:44:53Z</time>
      </trkpt>
      <trkpt lat="49.36653" lon="1.04798">
        <ele>85.8</ele>
        <time>2019-11-11T07:44:54Z</time>
      </trkpt>
      <trkpt lat="49.3665" lon="1.04795">
        <ele>85.8</ele>
        <time>2019-11-11T07:44:55Z</time>
      </trkpt>
      <trkpt lat="49.36646" lon="1.04791">
        <ele>85.8</ele>
        <time>2019-11-11T07:44:56Z</time>
      </trkpt>
      <trkpt lat="49.36643" lon="1.04787">
        <ele>85.8</ele>
        <time>2019-11-11T07:44:57Z</time>
      </trkpt>
      <trkpt lat="49.3664" lon="1.04784">
        <ele>85.8</ele>
        <time>2019-11-11T07:44:58Z</time>
      </trkpt>
      <trkpt lat="49.36636" lon="1.0478">
        <ele>85.8</ele>
        <time>2019-11-11T07:44:59Z</time>
      </trkpt>
      <trkpt lat="49.36633" lon="1.04777">
        <ele>85.8</ele>
        <time>2019-11-11T07:45:00Z</time>
      </trkpt>
      <trkpt lat="49.36629" lon="1.04774">
        <ele>85.8</ele>
        <time>2019-11-11T07:45:01Z</time>
      </trkpt>
      <trkpt lat="49.36625" lon="1.04771">
        <ele>85.8</ele>
        <time>2019-11-11T07:45:02Z</time>
      </trkpt>
      <trkpt lat="49.36622" lon="1.04768">
        <ele>86.7</ele>
        <time>2019-11-11T07:45:03Z</time>
      </trkpt>
      <trkpt lat="49.36618" lon="1.04764">
        <ele>86.7</ele>
        <time>2019-11-11T07:45:04Z</time>
      </trkpt>
      <trkpt lat="49.36615" lon="1.04762">
        <ele>86.7</ele>
        <time>2019-11-11T07:45:05Z</time>
      </trkpt>
      <trkpt lat="49.36612" lon="1.04759">
        <ele>86.7</ele>
        <time>2019-11-11T07:45:06Z</time>
      </trkpt>
      <trkpt lat="49.36608" lon="1.04757">
        <ele>86.7</ele>
        <time>2019-11-11T07:45:07Z</time>
      </trkpt>
      <trkpt lat="49.36604" lon="1.04754">
        <ele>86.7</ele>
        <time>2019-11-11T07:45:08Z</time>
      </trkpt>
      <trkpt lat="49.36601" lon="1.0475">
        <ele>86.7</ele>
        <time>2019-11-11T07:45:09Z</time>
      </trkpt>
      <trkpt lat="49.36598" lon="1.04747">
        <ele>86.7</ele>
        <time>2019-11-11T07:45:10Z</time>
      </trkpt>
      <trkpt lat="49.36594" lon="1.04744">
        <ele>86.7</ele>
        <time>2019-11-11T07:45:11Z</time>
      </trkpt>
      <trkpt lat="49.36591" lon="1.04741">
        <ele>86.7</ele>
        <time>2019-11-11T07:45:12Z</time>
      </trkpt>
      <trkpt lat="49.36587" lon="1.04738">
        <ele>86.7</ele>
        <time>2019-11-11T07:45:13Z</time>
      </trkpt>
      <trkpt lat="49.36584" lon="1.04735">
        <ele>86.7</ele>
        <time>2019-11-11T07:45:14Z</time>
      </trkpt>
      <trkpt lat="49.36581" lon="1.04731">
        <ele>86.7</ele>
        <time>2019-11-11T07:45:15Z</time>
      </trkpt>
      <trkpt lat="49.36578" lon="1.04727">
        <ele>86.7</ele>
        <time>2019-11-11T07:45:16Z</time>
      </trkpt>
      <trkpt lat="49.36574" lon="1.04724">
        <ele>86.7</ele>
        <time>2019-11-11T07:45:17Z</time>
      </trkpt>
      <trkpt lat="49.36571" lon="1.04721">
        <ele>86.7</ele>
        <time>2019-11-11T07:45:18Z</time>
      </trkpt>
      <trkpt lat="49.36568" lon="1.04717">
        <ele>86.7</ele>
        <time>2019-11-11T07:45:19Z</time>
      </trkpt>
      <trkpt lat="49.36564" lon="1.04714">
        <ele>86.7</ele>
        <time>2019-11-11T07:45:20Z</time>
      </trkpt>
      <trkpt lat="49.36561" lon="1.04711">
        <ele>86.7</ele>
        <time>2019-11-11T07:45:21Z</time>
      </trkpt>
      <trkpt lat="49.36557" lon="1.04707">
        <ele>86.7</ele>
        <time>2019-11-11T07:45:22Z</time>
      </trkpt>
      <trkpt lat="49.36553" lon="1.04704">
        <ele>87.8</ele>
        <time>2019-11-11T07:45:23Z</time>
      </trkpt>
      <trkpt lat="49.3655" lon="1.04701">
        <ele>87.8</ele>
        <time>2019-11-11T07:45:24Z</time>
      </trkpt>
      <trkpt lat="49.36546" lon="1.04698">
        <ele>87.8</ele>
        <time>2019-11-11T07:45:25Z</time>
      </trkpt>
      <trkpt lat="49.36542" lon="1.04695">
        <ele>87.8</ele>
        <time>2019-11-11T07:45:26Z</time>
      </trkpt>
      <trkpt lat="49.36539" lon="1.04692">
        <ele>87.8</ele>
        <time>2019-11-11T07:45:27Z</time>
      </trkpt>
      <trkpt lat="49.36535" lon="1.04689">
        <ele>87.8</ele>
        <time>2019-11-11T07:45:28Z</time>
      </trkpt>
      <trkpt lat="49.36532" lon="1.04686">
        <ele>87.8</ele>
        <time>2019-11-11T07:45:29Z</time>
      </trkpt>
      <trkpt lat="49.36528" lon="1.04683">
        <ele>87.8</ele>
        <time>2019-11-11T07:45:30Z</time>
      </trkpt>
      <trkpt lat="49.36524" lon="1.0468">
        <ele>87.8</ele>
        <time>2019-11-11T07:45:31Z</time>
      </trkpt>
      <trkpt lat="49.36521" lon="1.04676">
        <ele>87.8</ele>
        <time>2019-11-11T07:45:32Z</time>
      </trkpt>
      <trkpt lat="49.36518" lon="1.04671">
        <ele>87.8</ele>
        <time>2019-11-11T07:45:33Z</time>
      </trkpt>
      <trkpt lat="49.36515" lon="1.04667">
        <ele>87.8</ele>
        <time>2019-11-11T07:45:34Z</time>
      </trkpt>
      <trkpt lat="49.36511" lon="1.04663">
        <ele>87.8</ele>
        <time>2019-11-11T07:45:35Z</time>
      </trkpt>
      <trkpt lat="49.36508" lon="1.0466">
        <ele>87.8</ele>
        <time>2019-11-11T07:45:36Z</time>
      </trkpt>
      <trkpt lat="49.36505" lon="1.04659">
        <ele>87.8</ele>
        <time>2019-11-11T07:45:37Z</time>
      </trkpt>
      <trkpt lat="49.36501" lon="1.04656">
        <ele>87.8</ele>
        <time>2019-11-11T07:45:38Z</time>
      </trkpt>
      <trkpt lat="49.36498" lon="1.04654">
        <ele>87.8</ele>
        <time>2019-11-11T07:45:39Z</time>
      </trkpt>
      <trkpt lat="49.36494" lon="1.04652">
        <ele>87.8</ele>
        <time>2019-11-11T07:45:40Z</time>
      </trkpt>
      <trkpt lat="49.36491" lon="1.04648">
        <ele>87.8</ele>
        <time>2019-11-11T07:45:41Z</time>
      </trkpt>
      <trkpt lat="49.36487" lon="1.04646">
        <ele>87.8</ele>
        <time>2019-11-11T07:45:42Z</time>
      </trkpt>
      <trkpt lat="49.36484" lon="1.04642">
        <ele>87.8</ele>
        <time>2019-11-11T07:45:43Z</time>
      </trkpt>
      <trkpt lat="49.36481" lon="1.04639">
        <ele>87.8</ele>
        <time>2019-11-11T07:45:44Z</time>
      </trkpt>
      <trkpt lat="49.36477" lon="1.04636">
        <ele>87.8</ele>
        <time>2019-11-11T07:45:45Z</time>
      </trkpt>
      <trkpt lat="49.36474" lon="1.04633">
        <ele>87.8</ele>
        <time>2019-11-11T07:45:46Z</time>
      </trkpt>
      <trkpt lat="49.3647" lon="1.0463">
        <ele>87.8</ele>
        <time>2019-11-11T07:45:47Z</time>
      </trkpt>
      <trkpt lat="49.36467" lon="1.04627">
        <ele>87.8</ele>
        <time>2019-11-11T07:45:48Z</time>
      </trkpt>
      <trkpt lat="49.36463" lon="1.04624">
        <ele>87.8</ele>
        <time>2019-11-11T07:45:49Z</time>
      </trkpt>
      <trkpt lat="49.36459" lon="1.04621">
        <ele>87.8</ele>
        <time>2019-11-11T07:45:50Z</time>
      </trkpt>
      <trkpt lat="49.36456" lon="1.04618">
        <ele>87.8</ele>
        <time>2019-11-11T07:45:51Z</time>
      </trkpt>
      <trkpt lat="49.36453" lon="1.04613">
        <ele>87.8</ele>
        <time>2019-11-11T07:45:52Z</time>
      </trkpt>
      <trkpt lat="49.36449" lon="1.0461">
        <ele>88.7</ele>
        <time>2019-11-11T07:45:53Z</time>
      </trkpt>
      <trkpt lat="49.36446" lon="1.04607">
        <ele>88.7</ele>
        <time>2019-11-11T07:45:54Z</time>
      </trkpt>
      <trkpt lat="49.36442" lon="1.04603">
        <ele>88.7</ele>
        <time>2019-11-11T07:45:55Z</time>
      </trkpt>
      <trkpt lat="49.36438" lon="1.04599">
        <ele>88.7</ele>
        <time>2019-11-11T07:45:56Z</time>
      </trkpt>
      <trkpt lat="49.36434" lon="1.04596">
        <ele>88.7</ele>
        <time>2019-11-11T07:45:57Z</time>
      </trkpt>
      <trkpt lat="49.3643" lon="1.04592">
        <ele>88.7</ele>
        <time>2019-11-11T07:45:58Z</time>
      </trkpt>
      <trkpt lat="49.36427" lon="1.04589">
        <ele>88.7</ele>
        <time>2019-11-11T07:45:59Z</time>
      </trkpt>
      <trkpt lat="49.36423" lon="1.04585">
        <ele>88.7</ele>
        <time>2019-11-11T07:46:00Z</time>
      </trkpt>
      <trkpt lat="49.36419" lon="1.04582">
        <ele>88.7</ele>
        <time>2019-11-11T07:46:01Z</time>
      </trkpt>
      <trkpt lat="49.36415" lon="1.04579">
        <ele>88.7</ele>
        <time>2019-11-11T07:46:02Z</time>
      </trkpt>
      <trkpt lat="49.36412" lon="1.04575">
        <ele>88.7</ele>
        <time>2019-11-11T07:46:03Z</time>
      </trkpt>
      <trkpt lat="49.36408" lon="1.04572">
        <ele>88.7</ele>
        <time>2019-11-11T07:46:04Z</time>
      </trkpt>
      <trkpt lat="49.36404" lon="1.04569">
        <ele>88.7</ele>
        <time>2019-11-11T07:46:05Z</time>
      </trkpt>
      <trkpt lat="49.36401" lon="1.04566">
        <ele>88.7</ele>
        <time>2019-11-11T07:46:06Z</time>
      </trkpt>
      <trkpt lat="49.36398" lon="1.04563">
        <ele>88.7</ele>
        <time>2019-11-11T07:46:07Z</time>
      </trkpt>
      <trkpt lat="49.36394" lon="1.0456">
        <ele>88.7</ele>
        <time>2019-11-11T07:46:08Z</time>
      </trkpt>
      <trkpt lat="49.36391" lon="1.04557">
        <ele>88.7</ele>
        <time>2019-11-11T07:46:09Z</time>
      </trkpt>
      <trkpt lat="49.36387" lon="1.04554">
        <ele>88.7</ele>
        <time>2019-11-11T07:46:10Z</time>
      </trkpt>
      <trkpt lat="49.36384" lon="1.04551">
        <ele>88.7</ele>
        <time>2019-11-11T07:46:11Z</time>
      </trkpt>
      <trkpt lat="49.3638" lon="1.04548">
        <ele>88.7</ele>
        <time>2019-11-11T07:46:12Z</time>
      </trkpt>
      <trkpt lat="49.36377" lon="1.04545">
        <ele>88.7</ele>
        <time>2019-11-11T07:46:13Z</time>
      </trkpt>
      <trkpt lat="49.36373" lon="1.04542">
        <ele>88.7</ele>
        <time>2019-11-11T07:46:14Z</time>
      </trkpt>
      <trkpt lat="49.3637" lon="1.04539">
        <ele>88.7</ele>
        <time>2019-11-11T07:46:15Z</time>
      </trkpt>
      <trkpt lat="49.36366" lon="1.04536">
        <ele>88.7</ele>
        <time>2019-11-11T07:46:16Z</time>
      </trkpt>
      <trkpt lat="49.36362" lon="1.04533">
        <ele>88.7</ele>
        <time>2019-11-11T07:46:17Z</time>
      </trkpt>
      <trkpt lat="49.36359" lon="1.0453">
        <ele>88.7</ele>
        <time>2019-11-11T07:46:18Z</time>
      </trkpt>
      <trkpt lat="49.36355" lon="1.04527">
        <ele>88.7</ele>
        <time>2019-11-11T07:46:19Z</time>
      </trkpt>
      <trkpt lat="49.36352" lon="1.04523">
        <ele>88.7</ele>
        <time>2019-11-11T07:46:20Z</time>
      </trkpt>
      <trkpt lat="49.36349" lon="1.0452">
        <ele>88.7</ele>
        <time>2019-11-11T07:46:21Z</time>
      </trkpt>
      <trkpt lat="49.36345" lon="1.04518">
        <ele>88.7</ele>
        <time>2019-11-11T07:46:22Z</time>
      </trkpt>
      <trkpt lat="49.36342" lon="1.04514">
        <ele>88.7</ele>
        <time>2019-11-11T07:46:23Z</time>
      </trkpt>
      <trkpt lat="49.36338" lon="1.04511">
        <ele>88.7</ele>
        <time>2019-11-11T07:46:24Z</time>
      </trkpt>
      <trkpt lat="49.36335" lon="1.04508">
        <ele>88.7</ele>
        <time>2019-11-11T07:46:25Z</time>
      </trkpt>
      <trkpt lat="49.36331" lon="1.04504">
        <ele>88.7</ele>
        <time>2019-11-11T07:46:26Z</time>
      </trkpt>
      <trkpt lat="49.36328" lon="1.04501">
        <ele>88.7</ele>
        <time>2019-11-11T07:46:27Z</time>
      </trkpt>
      <trkpt lat="49.36324" lon="1.04498">
        <ele>88.7</ele>
        <time>2019-11-11T07:46:28Z</time>
      </trkpt>
      <trkpt lat="49.3632" lon="1.04494">
        <ele>88.7</ele>
        <time>2019-11-11T07:46:29Z</time>
      </trkpt>
      <trkpt lat="49.36317" lon="1.04491">
        <ele>88.7</ele>
        <time>2019-11-11T07:46:30Z</time>
      </trkpt>
      <trkpt lat="49.36313" lon="1.04488">
        <ele>88.7</ele>
        <time>2019-11-11T07:46:31Z</time>
      </trkpt>
      <trkpt lat="49.36309" lon="1.04485">
        <ele>88.7</ele>
        <time>2019-11-11T07:46:32Z</time>
      </trkpt>
      <trkpt lat="49.36305" lon="1.04483">
        <ele>88.7</ele>
        <time>2019-11-11T07:46:33Z</time>
      </trkpt>
      <trkpt lat="49.36301" lon="1.0448">
        <ele>88.7</ele>
        <time>2019-11-11T07:46:34Z</time>
      </trkpt>
      <trkpt lat="49.36298" lon="1.04477">
        <ele>88.7</ele>
        <time>2019-11-11T07:46:35Z</time>
      </trkpt>
      <trkpt lat="49.36294" lon="1.04474">
        <ele>88.7</ele>
        <time>2019-11-11T07:46:36Z</time>
      </trkpt>
      <trkpt lat="49.3629" lon="1.04472">
        <ele>88.7</ele>
        <time>2019-11-11T07:46:37Z</time>
      </trkpt>
      <trkpt lat="49.36286" lon="1.04469">
        <ele>88.7</ele>
        <time>2019-11-11T07:46:38Z</time>
      </trkpt>
      <trkpt lat="49.36283" lon="1.04466">
        <ele>88.7</ele>
        <time>2019-11-11T07:46:39Z</time>
      </trkpt>
      <trkpt lat="49.36279" lon="1.04463">
        <ele>88.7</ele>
        <time>2019-11-11T07:46:40Z</time>
      </trkpt>
      <trkpt lat="49.36275" lon="1.04459">
        <ele>88.7</ele>
        <time>2019-11-11T07:46:41Z</time>
      </trkpt>
      <trkpt lat="49.36271" lon="1.04456">
        <ele>88.7</ele>
        <time>2019-11-11T07:46:42Z</time>
      </trkpt>
      <trkpt lat="49.36268" lon="1.04452">
        <ele>88.7</ele>
        <time>2019-11-11T07:46:43Z</time>
      </trkpt>
      <trkpt lat="49.36264" lon="1.04449">
        <ele>88.7</ele>
        <time>2019-11-11T07:46:44Z</time>
      </trkpt>
      <trkpt lat="49.3626" lon="1.04446">
        <ele>89.8</ele>
        <time>2019-11-11T07:46:45Z</time>
      </trkpt>
      <trkpt lat="49.36256" lon="1.04443">
        <ele>89.8</ele>
        <time>2019-11-11T07:46:46Z</time>
      </trkpt>
      <trkpt lat="49.36253" lon="1.04439">
        <ele>89.8</ele>
        <time>2019-11-11T07:46:47Z</time>
      </trkpt>
      <trkpt lat="49.36249" lon="1.04436">
        <ele>89.8</ele>
        <time>2019-11-11T07:46:48Z</time>
      </trkpt>
      <trkpt lat="49.36245" lon="1.04434">
        <ele>89.8</ele>
        <time>2019-11-11T07:46:49Z</time>
      </trkpt>
      <trkpt lat="49.36242" lon="1.0443">
        <ele>89.8</ele>
        <time>2019-11-11T07:46:50Z</time>
      </trkpt>
      <trkpt lat="49.36238" lon="1.04427">
        <ele>89.8</ele>
        <time>2019-11-11T07:46:51Z</time>
      </trkpt>
      <trkpt lat="49.36235" lon="1.04424">
        <ele>89.8</ele>
        <time>2019-11-11T07:46:52Z</time>
      </trkpt>
      <trkpt lat="49.36231" lon="1.0442">
        <ele>89.8</ele>
        <time>2019-11-11T07:46:53Z</time>
      </trkpt>
      <trkpt lat="49.36228" lon="1.04416">
        <ele>89.8</ele>
        <time>2019-11-11T07:46:54Z</time>
      </trkpt>
      <trkpt lat="49.36224" lon="1.04413">
        <ele>89.8</ele>
        <time>2019-11-11T07:46:55Z</time>
      </trkpt>
      <trkpt lat="49.36221" lon="1.0441">
        <ele>89.8</ele>
        <time>2019-11-11T07:46:56Z</time>
      </trkpt>
      <trkpt lat="49.36217" lon="1.04406">
        <ele>89.8</ele>
        <time>2019-11-11T07:46:57Z</time>
      </trkpt>
      <trkpt lat="49.36214" lon="1.04403">
        <ele>89.8</ele>
        <time>2019-11-11T07:46:58Z</time>
      </trkpt>
      <trkpt lat="49.3621" lon="1.044">
        <ele>89.8</ele>
        <time>2019-11-11T07:46:59Z</time>
      </trkpt>
      <trkpt lat="49.36207" lon="1.04396">
        <ele>89.8</ele>
        <time>2019-11-11T07:47:00Z</time>
      </trkpt>
      <trkpt lat="49.36203" lon="1.04392">
        <ele>89.8</ele>
        <time>2019-11-11T07:47:01Z</time>
      </trkpt>
      <trkpt lat="49.362" lon="1.04388">
        <ele>89.8</ele>
        <time>2019-11-11T07:47:02Z</time>
      </trkpt>
      <trkpt lat="49.36197" lon="1.04384">
        <ele>89.8</ele>
        <time>2019-11-11T07:47:03Z</time>
      </trkpt>
      <trkpt lat="49.36193" lon="1.0438">
        <ele>89.8</ele>
        <time>2019-11-11T07:47:04Z</time>
      </trkpt>
      <trkpt lat="49.36189" lon="1.04378">
        <ele>89.8</ele>
        <time>2019-11-11T07:47:05Z</time>
      </trkpt>
      <trkpt lat="49.36184" lon="1.04377">
        <ele>89.8</ele>
        <time>2019-11-11T07:47:06Z</time>
      </trkpt>
      <trkpt lat="49.3618" lon="1.04378">
        <ele>89.8</ele>
        <time>2019-11-11T07:47:07Z</time>
      </trkpt>
      <trkpt lat="49.36176" lon="1.04381">
        <ele>89.8</ele>
        <time>2019-11-11T07:47:08Z</time>
      </trkpt>
      <trkpt lat="49.36173" lon="1.04384">
        <ele>89.8</ele>
        <time>2019-11-11T07:47:09Z</time>
      </trkpt>
      <trkpt lat="49.3617" lon="1.04388">
        <ele>89.8</ele>
        <time>2019-11-11T07:47:10Z</time>
      </trkpt>
      <trkpt lat="49.36167" lon="1.04391">
        <ele>89.8</ele>
        <time>2019-11-11T07:47:11Z</time>
      </trkpt>
      <trkpt lat="49.36164" lon="1.04394">
        <ele>89.8</ele>
        <time>2019-11-11T07:47:12Z</time>
      </trkpt>
      <trkpt lat="49.36161" lon="1.04395">
        <ele>87.8</ele>
        <time>2019-11-11T07:47:13Z</time>
      </trkpt>
      <trkpt lat="49.36157" lon="1.04395">
        <ele>87.8</ele>
        <time>2019-11-11T07:47:14Z</time>
      </trkpt>
      <trkpt lat="49.36154" lon="1.04393">
        <ele>87.8</ele>
        <time>2019-11-11T07:47:15Z</time>
      </trkpt>
      <trkpt lat="49.36152" lon="1.04389">
        <ele>87.8</ele>
        <time>2019-11-11T07:47:16Z</time>
      </trkpt>
      <trkpt lat="49.3615" lon="1.04384">
        <ele>87.8</ele>
        <time>2019-11-11T07:47:17Z</time>
      </trkpt>
      <trkpt lat="49.36149" lon="1.04379">
        <ele>87.8</ele>
        <time>2019-11-11T07:47:18Z</time>
      </trkpt>
      <trkpt lat="49.36147" lon="1.04374">
        <ele>87.8</ele>
        <time>2019-11-11T07:47:19Z</time>
      </trkpt>
      <trkpt lat="49.36146" lon="1.04369">
        <ele>87.8</ele>
        <time>2019-11-11T07:47:20Z</time>
      </trkpt>
      <trkpt lat="49.36144" lon="1.04364">
        <ele>87.8</ele>
        <time>2019-11-11T07:47:21Z</time>
      </trkpt>
      <trkpt lat="49.36142" lon="1.04359">
        <ele>87.8</ele>
        <time>2019-11-11T07:47:22Z</time>
      </trkpt>
      <trkpt lat="49.36141" lon="1.04353">
        <ele>87.8</ele>
        <time>2019-11-11T07:47:23Z</time>
      </trkpt>
      <trkpt lat="49.36139" lon="1.04347">
        <ele>87.8</ele>
        <time>2019-11-11T07:47:24Z</time>
      </trkpt>
      <trkpt lat="49.36137" lon="1.04341">
        <ele>87.8</ele>
        <time>2019-11-11T07:47:25Z</time>
      </trkpt>
      <trkpt lat="49.36136" lon="1.04335">
        <ele>87.8</ele>
        <time>2019-11-11T07:47:26Z</time>
      </trkpt>
      <trkpt lat="49.36134" lon="1.04329">
        <ele>87.8</ele>
        <time>2019-11-11T07:47:27Z</time>
      </trkpt>
      <trkpt lat="49.36132" lon="1.04323">
        <ele>87.8</ele>
        <time>2019-11-11T07:47:28Z</time>
      </trkpt>
      <trkpt lat="49.3613" lon="1.04317">
        <ele>87.8</ele>
        <time>2019-11-11T07:47:29Z</time>
      </trkpt>
      <trkpt lat="49.36129" lon="1.04312">
        <ele>87.8</ele>
        <time>2019-11-11T07:47:30Z</time>
      </trkpt>
      <trkpt lat="49.36127" lon="1.04306">
        <ele>87.8</ele>
        <time>2019-11-11T07:47:31Z</time>
      </trkpt>
      <trkpt lat="49.36125" lon="1.043">
        <ele>87.8</ele>
        <time>2019-11-11T07:47:32Z</time>
      </trkpt>
      <trkpt lat="49.36124" lon="1.04294">
        <ele>87.8</ele>
        <time>2019-11-11T07:47:33Z</time>
      </trkpt>
      <trkpt lat="49.36122" lon="1.04288">
        <ele>87.8</ele>
        <time>2019-11-11T07:47:34Z</time>
      </trkpt>
      <trkpt lat="49.3612" lon="1.04283">
        <ele>87.8</ele>
        <time>2019-11-11T07:47:35Z</time>
      </trkpt>
      <trkpt lat="49.36118" lon="1.04277">
        <ele>87.8</ele>
        <time>2019-11-11T07:47:36Z</time>
      </trkpt>
      <trkpt lat="49.36117" lon="1.04272">
        <ele>87.8</ele>
        <time>2019-11-11T07:47:37Z</time>
      </trkpt>
      <trkpt lat="49.36115" lon="1.04266">
        <ele>87.8</ele>
        <time>2019-11-11T07:47:38Z</time>
      </trkpt>
      <trkpt lat="49.36113" lon="1.04261">
        <ele>87.8</ele>
        <time>2019-11-11T07:47:39Z</time>
      </trkpt>
      <trkpt lat="49.36112" lon="1.04255">
        <ele>87.8</ele>
        <time>2019-11-11T07:47:40Z</time>
      </trkpt>
      <trkpt lat="49.3611" lon="1.0425">
        <ele>87.8</ele>
        <time>2019-11-11T07:47:41Z</time>
      </trkpt>
      <trkpt lat="49.36108" lon="1.04244">
        <ele>87.8</ele>
        <time>2019-11-11T07:47:42Z</time>
      </trkpt>
      <trkpt lat="49.36107" lon="1.04239">
        <ele>87.8</ele>
        <time>2019-11-11T07:47:43Z</time>
      </trkpt>
      <trkpt lat="49.36105" lon="1.04233">
        <ele>87.8</ele>
        <time>2019-11-11T07:47:44Z</time>
      </trkpt>
      <trkpt lat="49.36103" lon="1.04228">
        <ele>87.8</ele>
        <time>2019-11-11T07:47:45Z</time>
      </trkpt>
      <trkpt lat="49.36101" lon="1.04222">
        <ele>87.8</ele>
        <time>2019-11-11T07:47:46Z</time>
      </trkpt>
      <trkpt lat="49.361" lon="1.04217">
        <ele>87.8</ele>
        <time>2019-11-11T07:47:47Z</time>
      </trkpt>
      <trkpt lat="49.36098" lon="1.04211">
        <ele>87.8</ele>
        <time>2019-11-11T07:47:48Z</time>
      </trkpt>
      <trkpt lat="49.36096" lon="1.04206">
        <ele>87.8</ele>
        <time>2019-11-11T07:47:49Z</time>
      </trkpt>
      <trkpt lat="49.36095" lon="1.042">
        <ele>87.8</ele>
        <time>2019-11-11T07:47:50Z</time>
      </trkpt>
      <trkpt lat="49.36093" lon="1.04195">
        <ele>87.8</ele>
        <time>2019-11-11T07:47:51Z</time>
      </trkpt>
      <trkpt lat="49.36092" lon="1.04189">
        <ele>87.8</ele>
        <time>2019-11-11T07:47:52Z</time>
      </trkpt>
      <trkpt lat="49.3609" lon="1.04183">
        <ele>89.8</ele>
        <time>2019-11-11T07:47:53Z</time>
      </trkpt>
      <trkpt lat="49.36088" lon="1.04178">
        <ele>89.8</ele>
        <time>2019-11-11T07:47:54Z</time>
      </trkpt>
      <trkpt lat="49.36086" lon="1.04173">
        <ele>90.7</ele>
        <time>2019-11-11T07:47:55Z</time>
      </trkpt>
      <trkpt lat="49.36085" lon="1.04167">
        <ele>90.7</ele>
        <time>2019-11-11T07:47:56Z</time>
      </trkpt>
      <trkpt lat="49.36083" lon="1.04162">
        <ele>90.7</ele>
        <time>2019-11-11T07:47:57Z</time>
      </trkpt>
      <trkpt lat="49.36081" lon="1.04156">
        <ele>90.7</ele>
        <time>2019-11-11T07:47:58Z</time>
      </trkpt>
      <trkpt lat="49.3608" lon="1.04151">
        <ele>91.7</ele>
        <time>2019-11-11T07:47:59Z</time>
      </trkpt>
      <trkpt lat="49.36078" lon="1.04146">
        <ele>91.7</ele>
        <time>2019-11-11T07:48:00Z</time>
      </trkpt>
      <trkpt lat="49.36076" lon="1.04141">
        <ele>91.7</ele>
        <time>2019-11-11T07:48:01Z</time>
      </trkpt>
      <trkpt lat="49.36075" lon="1.04135">
        <ele>91.7</ele>
        <time>2019-11-11T07:48:02Z</time>
      </trkpt>
      <trkpt lat="49.36073" lon="1.0413">
        <ele>91.7</ele>
        <time>2019-11-11T07:48:03Z</time>
      </trkpt>
      <trkpt lat="49.36071" lon="1.04125">
        <ele>91.7</ele>
        <time>2019-11-11T07:48:04Z</time>
      </trkpt>
      <trkpt lat="49.36068" lon="1.04122">
        <ele>91.7</ele>
        <time>2019-11-11T07:48:05Z</time>
      </trkpt>
      <trkpt lat="49.36065" lon="1.04121">
        <ele>91.7</ele>
        <time>2019-11-11T07:48:06Z</time>
      </trkpt>
      <trkpt lat="49.36061" lon="1.04122">
        <ele>92.8</ele>
        <time>2019-11-11T07:48:07Z</time>
      </trkpt>
      <trkpt lat="49.36058" lon="1.04126">
        <ele>92.8</ele>
        <time>2019-11-11T07:48:08Z</time>
      </trkpt>
      <trkpt lat="49.36056" lon="1.04131">
        <ele>92.8</ele>
        <time>2019-11-11T07:48:09Z</time>
      </trkpt>
      <trkpt lat="49.36054" lon="1.04136">
        <ele>92.8</ele>
        <time>2019-11-11T07:48:10Z</time>
      </trkpt>
      <trkpt lat="49.36052" lon="1.04142">
        <ele>92.8</ele>
        <time>2019-11-11T07:48:11Z</time>
      </trkpt>
      <trkpt lat="49.3605" lon="1.04148">
        <ele>92.8</ele>
        <time>2019-11-11T07:48:12Z</time>
      </trkpt>
      <trkpt lat="49.36048" lon="1.04154">
        <ele>92.8</ele>
        <time>2019-11-11T07:48:13Z</time>
      </trkpt>
      <trkpt lat="49.36046" lon="1.0416">
        <ele>92.8</ele>
        <time>2019-11-11T07:48:14Z</time>
      </trkpt>
      <trkpt lat="49.36044" lon="1.04167">
        <ele>92.8</ele>
        <time>2019-11-11T07:48:15Z</time>
      </trkpt>
      <trkpt lat="49.36042" lon="1.04173">
        <ele>92.8</ele>
        <time>2019-11-11T07:48:16Z</time>
      </trkpt>
      <trkpt lat="49.36039" lon="1.04179">
        <ele>92.8</ele>
        <time>2019-11-11T07:48:17Z</time>
      </trkpt>
      <trkpt lat="49.36037" lon="1.04185">
        <ele>92.8</ele>
        <time>2019-11-11T07:48:18Z</time>
      </trkpt>
      <trkpt lat="49.36035" lon="1.04191">
        <ele>92.8</ele>
        <time>2019-11-11T07:48:19Z</time>
      </trkpt>
      <trkpt lat="49.36033" lon="1.04197">
        <ele>92.8</ele>
        <time>2019-11-11T07:48:20Z</time>
      </trkpt>
      <trkpt lat="49.36031" lon="1.04203">
        <ele>91.7</ele>
        <time>2019-11-11T07:48:21Z</time>
      </trkpt>
      <trkpt lat="49.36029" lon="1.04208">
        <ele>91.7</ele>
        <time>2019-11-11T07:48:22Z</time>
      </trkpt>
      <trkpt lat="49.36027" lon="1.04213">
        <ele>91.7</ele>
        <time>2019-11-11T07:48:23Z</time>
      </trkpt>
      <trkpt lat="49.36025" lon="1.04219">
        <ele>91.7</ele>
        <time>2019-11-11T07:48:24Z</time>
      </trkpt>
      <trkpt lat="49.36023" lon="1.04225">
        <ele>91.7</ele>
        <time>2019-11-11T07:48:25Z</time>
      </trkpt>
      <trkpt lat="49.36021" lon="1.0423">
        <ele>91.7</ele>
        <time>2019-11-11T07:48:26Z</time>
      </trkpt>
      <trkpt lat="49.36019" lon="1.04236">
        <ele>91.7</ele>
        <time>2019-11-11T07:48:27Z</time>
      </trkpt>
      <trkpt lat="49.36017" lon="1.04242">
        <ele>91.7</ele>
        <time>2019-11-11T07:48:28Z</time>
      </trkpt>
      <trkpt lat="49.36015" lon="1.04248">
        <ele>91.7</ele>
        <time>2019-11-11T07:48:29Z</time>
      </trkpt>
      <trkpt lat="49.36013" lon="1.04254">
        <ele>91.7</ele>
        <time>2019-11-11T07:48:30Z</time>
      </trkpt>
      <trkpt lat="49.36011" lon="1.04259">
        <ele>91.7</ele>
        <time>2019-11-11T07:48:31Z</time>
      </trkpt>
      <trkpt lat="49.36009" lon="1.04265">
        <ele>91.7</ele>
        <time>2019-11-11T07:48:32Z</time>
      </trkpt>
      <trkpt lat="49.36007" lon="1.04271">
        <ele>91.7</ele>
        <time>2019-11-11T07:48:33Z</time>
      </trkpt>
      <trkpt lat="49.36005" lon="1.04276">
        <ele>91.7</ele>
        <time>2019-11-11T07:48:34Z</time>
      </trkpt>
      <trkpt lat="49.36003" lon="1.04282">
        <ele>91.7</ele>
        <time>2019-11-11T07:48:35Z</time>
      </trkpt>
      <trkpt lat="49.36001" lon="1.04288">
        <ele>91.7</ele>
        <time>2019-11-11T07:48:36Z</time>
      </trkpt>
      <trkpt lat="49.35999" lon="1.04294">
        <ele>91.7</ele>
        <time>2019-11-11T07:48:37Z</time>
      </trkpt>
      <trkpt lat="49.35997" lon="1.04301">
        <ele>91.7</ele>
        <time>2019-11-11T07:48:38Z</time>
      </trkpt>
      <trkpt lat="49.35995" lon="1.04306">
        <ele>91.7</ele>
        <time>2019-11-11T07:48:39Z</time>
      </trkpt>
      <trkpt lat="49.35993" lon="1.04312">
        <ele>91.7</ele>
        <time>2019-11-11T07:48:40Z</time>
      </trkpt>
      <trkpt lat="49.35991" lon="1.04318">
        <ele>91.7</ele>
        <time>2019-11-11T07:48:41Z</time>
      </trkpt>
      <trkpt lat="49.35989" lon="1.04324">
        <ele>91.7</ele>
        <time>2019-11-11T07:48:42Z</time>
      </trkpt>
      <trkpt lat="49.35987" lon="1.0433">
        <ele>91.7</ele>
        <time>2019-11-11T07:48:43Z</time>
      </trkpt>
      <trkpt lat="49.35985" lon="1.04336">
        <ele>91.7</ele>
        <time>2019-11-11T07:48:44Z</time>
      </trkpt>
      <trkpt lat="49.35984" lon="1.04342">
        <ele>91.7</ele>
        <time>2019-11-11T07:48:45Z</time>
      </trkpt>
      <trkpt lat="49.35982" lon="1.04347">
        <ele>91.7</ele>
        <time>2019-11-11T07:48:46Z</time>
      </trkpt>
      <trkpt lat="49.3598" lon="1.04353">
        <ele>91.7</ele>
        <time>2019-11-11T07:48:47Z</time>
      </trkpt>
      <trkpt lat="49.35978" lon="1.04359">
        <ele>91.7</ele>
        <time>2019-11-11T07:48:48Z</time>
      </trkpt>
      <trkpt lat="49.35976" lon="1.04365">
        <ele>91.7</ele>
        <time>2019-11-11T07:48:49Z</time>
      </trkpt>
      <trkpt lat="49.35974" lon="1.04371">
        <ele>91.7</ele>
        <time>2019-11-11T07:48:50Z</time>
      </trkpt>
      <trkpt lat="49.35972" lon="1.04377">
        <ele>91.7</ele>
        <time>2019-11-11T07:48:51Z</time>
      </trkpt>
      <trkpt lat="49.3597" lon="1.04383">
        <ele>91.7</ele>
        <time>2019-11-11T07:48:52Z</time>
      </trkpt>
      <trkpt lat="49.35969" lon="1.04389">
        <ele>91.7</ele>
        <time>2019-11-11T07:48:53Z</time>
      </trkpt>
      <trkpt lat="49.35967" lon="1.04396">
        <ele>91.7</ele>
        <time>2019-11-11T07:48:54Z</time>
      </trkpt>
      <trkpt lat="49.35965" lon="1.04402">
        <ele>91.7</ele>
        <time>2019-11-11T07:48:55Z</time>
      </trkpt>
      <trkpt lat="49.35963" lon="1.04408">
        <ele>91.7</ele>
        <time>2019-11-11T07:48:56Z</time>
      </trkpt>
      <trkpt lat="49.35961" lon="1.04415">
        <ele>91.7</ele>
        <time>2019-11-11T07:48:57Z</time>
      </trkpt>
      <trkpt lat="49.35959" lon="1.04421">
        <ele>91.7</ele>
        <time>2019-11-11T07:48:58Z</time>
      </trkpt>
      <trkpt lat="49.35958" lon="1.04427">
        <ele>91.7</ele>
        <time>2019-11-11T07:48:59Z</time>
      </trkpt>
      <trkpt lat="49.35956" lon="1.04434">
        <ele>91.7</ele>
        <time>2019-11-11T07:49:00Z</time>
      </trkpt>
      <trkpt lat="49.35954" lon="1.0444">
        <ele>91.7</ele>
        <time>2019-11-11T07:49:01Z</time>
      </trkpt>
      <trkpt lat="49.35952" lon="1.04446">
        <ele>91.7</ele>
        <time>2019-11-11T07:49:02Z</time>
      </trkpt>
      <trkpt lat="49.3595" lon="1.04452">
        <ele>91.7</ele>
        <time>2019-11-11T07:49:03Z</time>
      </trkpt>
      <trkpt lat="49.35948" lon="1.04458">
        <ele>91.7</ele>
        <time>2019-11-11T07:49:04Z</time>
      </trkpt>
      <trkpt lat="49.35946" lon="1.04463">
        <ele>91.7</ele>
        <time>2019-11-11T07:49:05Z</time>
      </trkpt>
      <trkpt lat="49.35943" lon="1.04469">
        <ele>91.7</ele>
        <time>2019-11-11T07:49:06Z</time>
      </trkpt>
      <trkpt lat="49.35942" lon="1.04475">
        <ele>90.7</ele>
        <time>2019-11-11T07:49:07Z</time>
      </trkpt>
      <trkpt lat="49.3594" lon="1.04482">
        <ele>90.7</ele>
        <time>2019-11-11T07:49:08Z</time>
      </trkpt>
      <trkpt lat="49.35938" lon="1.04488">
        <ele>90.7</ele>
        <time>2019-11-11T07:49:09Z</time>
      </trkpt>
      <trkpt lat="49.35936" lon="1.04494">
        <ele>90.7</ele>
        <time>2019-11-11T07:49:10Z</time>
      </trkpt>
      <trkpt lat="49.35934" lon="1.04501">
        <ele>90.7</ele>
        <time>2019-11-11T07:49:11Z</time>
      </trkpt>
      <trkpt lat="49.35932" lon="1.04508">
        <ele>90.7</ele>
        <time>2019-11-11T07:49:12Z</time>
      </trkpt>
      <trkpt lat="49.3593" lon="1.04514">
        <ele>90.7</ele>
        <time>2019-11-11T07:49:13Z</time>
      </trkpt>
      <trkpt lat="49.35928" lon="1.04521">
        <ele>90.7</ele>
        <time>2019-11-11T07:49:14Z</time>
      </trkpt>
      <trkpt lat="49.35926" lon="1.04527">
        <ele>90.7</ele>
        <time>2019-11-11T07:49:15Z</time>
      </trkpt>
      <trkpt lat="49.35924" lon="1.04534">
        <ele>90.7</ele>
        <time>2019-11-11T07:49:16Z</time>
      </trkpt>
      <trkpt lat="49.35922" lon="1.0454">
        <ele>90.7</ele>
        <time>2019-11-11T07:49:17Z</time>
      </trkpt>
      <trkpt lat="49.35919" lon="1.04547">
        <ele>90.7</ele>
        <time>2019-11-11T07:49:18Z</time>
      </trkpt>
      <trkpt lat="49.35917" lon="1.04553">
        <ele>90.7</ele>
        <time>2019-11-11T07:49:19Z</time>
      </trkpt>
      <trkpt lat="49.35915" lon="1.04559">
        <ele>90.7</ele>
        <time>2019-11-11T07:49:20Z</time>
      </trkpt>
      <trkpt lat="49.35913" lon="1.04565">
        <ele>90.7</ele>
        <time>2019-11-11T07:49:21Z</time>
      </trkpt>
      <trkpt lat="49.35911" lon="1.04571">
        <ele>90.7</ele>
        <time>2019-11-11T07:49:22Z</time>
      </trkpt>
      <trkpt lat="49.35909" lon="1.04577">
        <ele>90.7</ele>
        <time>2019-11-11T07:49:23Z</time>
      </trkpt>
      <trkpt lat="49.35907" lon="1.04582">
        <ele>90.7</ele>
        <time>2019-11-11T07:49:24Z</time>
      </trkpt>
      <trkpt lat="49.35905" lon="1.04587">
        <ele>90.7</ele>
        <time>2019-11-11T07:49:25Z</time>
      </trkpt>
      <trkpt lat="49.35904" lon="1.04593">
        <ele>90.7</ele>
        <time>2019-11-11T07:49:26Z</time>
      </trkpt>
      <trkpt lat="49.35902" lon="1.04598">
        <ele>90.7</ele>
        <time>2019-11-11T07:49:27Z</time>
      </trkpt>
      <trkpt lat="49.359" lon="1.04603">
        <ele>90.7</ele>
        <time>2019-11-11T07:49:28Z</time>
      </trkpt>
      <trkpt lat="49.35897" lon="1.04607">
        <ele>90.7</ele>
        <time>2019-11-11T07:49:29Z</time>
      </trkpt>
      <trkpt lat="49.35894" lon="1.04609">
        <ele>90.7</ele>
        <time>2019-11-11T07:49:30Z</time>
      </trkpt>
      <trkpt lat="49.3589" lon="1.04609">
        <ele>90.7</ele>
        <time>2019-11-11T07:49:31Z</time>
      </trkpt>
      <trkpt lat="49.35886" lon="1.04606">
        <ele>90.7</ele>
        <time>2019-11-11T07:49:32Z</time>
      </trkpt>
      <trkpt lat="49.35882" lon="1.04604">
        <ele>90.7</ele>
        <time>2019-11-11T07:49:33Z</time>
      </trkpt>
      <trkpt lat="49.35878" lon="1.04601">
        <ele>90.7</ele>
        <time>2019-11-11T07:49:34Z</time>
      </trkpt>
      <trkpt lat="49.35874" lon="1.04598">
        <ele>90.7</ele>
        <time>2019-11-11T07:49:35Z</time>
      </trkpt>
      <trkpt lat="49.35871" lon="1.04596">
        <ele>90.7</ele>
        <time>2019-11-11T07:49:36Z</time>
      </trkpt>
      <trkpt lat="49.35867" lon="1.04594">
        <ele>90.7</ele>
        <time>2019-11-11T07:49:37Z</time>
      </trkpt>
      <trkpt lat="49.35863" lon="1.04591">
        <ele>90.7</ele>
        <time>2019-11-11T07:49:38Z</time>
      </trkpt>
      <trkpt lat="49.3586" lon="1.04589">
        <ele>90.7</ele>
        <time>2019-11-11T07:49:39Z</time>
      </trkpt>
      <trkpt lat="49.35856" lon="1.04586">
        <ele>90.7</ele>
        <time>2019-11-11T07:49:40Z</time>
      </trkpt>
      <trkpt lat="49.35853" lon="1.04583">
        <ele>90.7</ele>
        <time>2019-11-11T07:49:41Z</time>
      </trkpt>
      <trkpt lat="49.3585" lon="1.04581">
        <ele>90.7</ele>
        <time>2019-11-11T07:49:42Z</time>
      </trkpt>
      <trkpt lat="49.35847" lon="1.04578">
        <ele>90.7</ele>
        <time>2019-11-11T07:49:43Z</time>
      </trkpt>
      <trkpt lat="49.35843" lon="1.04575">
        <ele>90.7</ele>
        <time>2019-11-11T07:49:44Z</time>
      </trkpt>
      <trkpt lat="49.3584" lon="1.04572">
        <ele>90.7</ele>
        <time>2019-11-11T07:49:45Z</time>
      </trkpt>
      <trkpt lat="49.35837" lon="1.04569">
        <ele>90.7</ele>
        <time>2019-11-11T07:49:46Z</time>
      </trkpt>
      <trkpt lat="49.35834" lon="1.04566">
        <ele>90.7</ele>
        <time>2019-11-11T07:49:47Z</time>
      </trkpt>
      <trkpt lat="49.3583" lon="1.04563">
        <ele>90.7</ele>
        <time>2019-11-11T07:49:48Z</time>
      </trkpt>
      <trkpt lat="49.35827" lon="1.0456">
        <ele>90.7</ele>
        <time>2019-11-11T07:49:49Z</time>
      </trkpt>
      <trkpt lat="49.35824" lon="1.04558">
        <ele>90.7</ele>
        <time>2019-11-11T07:49:50Z</time>
      </trkpt>
      <trkpt lat="49.35821" lon="1.04555">
        <ele>91.7</ele>
        <time>2019-11-11T07:49:51Z</time>
      </trkpt>
      <trkpt lat="49.35818" lon="1.04553">
        <ele>91.7</ele>
        <time>2019-11-11T07:49:52Z</time>
      </trkpt>
      <trkpt lat="49.35815" lon="1.04551">
        <ele>91.7</ele>
        <time>2019-11-11T07:49:53Z</time>
      </trkpt>
      <trkpt lat="49.35812" lon="1.04548">
        <ele>91.7</ele>
        <time>2019-11-11T07:49:54Z</time>
      </trkpt>
      <trkpt lat="49.35809" lon="1.04546">
        <ele>91.7</ele>
        <time>2019-11-11T07:49:55Z</time>
      </trkpt>
      <trkpt lat="49.35806" lon="1.04543">
        <ele>91.7</ele>
        <time>2019-11-11T07:49:56Z</time>
      </trkpt>
      <trkpt lat="49.35803" lon="1.04541">
        <ele>91.7</ele>
        <time>2019-11-11T07:49:57Z</time>
      </trkpt>
      <trkpt lat="49.358" lon="1.04538">
        <ele>91.7</ele>
        <time>2019-11-11T07:49:58Z</time>
      </trkpt>
      <trkpt lat="49.35797" lon="1.04535">
        <ele>91.7</ele>
        <time>2019-11-11T07:49:59Z</time>
      </trkpt>
      <trkpt lat="49.35794" lon="1.04532">
        <ele>91.7</ele>
        <time>2019-11-11T07:50:00Z</time>
      </trkpt>
      <trkpt lat="49.3579" lon="1.04529">
        <ele>91.7</ele>
        <time>2019-11-11T07:50:01Z</time>
      </trkpt>
      <trkpt lat="49.35788" lon="1.04527">
        <ele>91.7</ele>
        <time>2019-11-11T07:50:02Z</time>
      </trkpt>
      <trkpt lat="49.35785" lon="1.04524">
        <ele>92.8</ele>
        <time>2019-11-11T07:50:03Z</time>
      </trkpt>
      <trkpt lat="49.35781" lon="1.04521">
        <ele>92.8</ele>
        <time>2019-11-11T07:50:04Z</time>
      </trkpt>
      <trkpt lat="49.35778" lon="1.04518">
        <ele>92.8</ele>
        <time>2019-11-11T07:50:05Z</time>
      </trkpt>
      <trkpt lat="49.35774" lon="1.04516">
        <ele>92.8</ele>
        <time>2019-11-11T07:50:06Z</time>
      </trkpt>
      <trkpt lat="49.35771" lon="1.04514">
        <ele>92.8</ele>
        <time>2019-11-11T07:50:07Z</time>
      </trkpt>
      <trkpt lat="49.35768" lon="1.04511">
        <ele>92.8</ele>
        <time>2019-11-11T07:50:08Z</time>
      </trkpt>
      <trkpt lat="49.35766" lon="1.04508">
        <ele>92.8</ele>
        <time>2019-11-11T07:50:09Z</time>
      </trkpt>
      <trkpt lat="49.35763" lon="1.04506">
        <ele>92.8</ele>
        <time>2019-11-11T07:50:10Z</time>
      </trkpt>
      <trkpt lat="49.35759" lon="1.04505">
        <ele>92.8</ele>
        <time>2019-11-11T07:50:11Z</time>
      </trkpt>
      <trkpt lat="49.35756" lon="1.04502">
        <ele>92.8</ele>
        <time>2019-11-11T07:50:12Z</time>
      </trkpt>
      <trkpt lat="49.35753" lon="1.045">
        <ele>92.8</ele>
        <time>2019-11-11T07:50:13Z</time>
      </trkpt>
      <trkpt lat="49.3575" lon="1.04497">
        <ele>92.8</ele>
        <time>2019-11-11T07:50:14Z</time>
      </trkpt>
      <trkpt lat="49.35747" lon="1.04495">
        <ele>92.8</ele>
        <time>2019-11-11T07:50:15Z</time>
      </trkpt>
      <trkpt lat="49.35743" lon="1.04492">
        <ele>92.8</ele>
        <time>2019-11-11T07:50:16Z</time>
      </trkpt>
      <trkpt lat="49.3574" lon="1.04489">
        <ele>93.7</ele>
        <time>2019-11-11T07:50:17Z</time>
      </trkpt>
      <trkpt lat="49.35737" lon="1.04486">
        <ele>93.7</ele>
        <time>2019-11-11T07:50:18Z</time>
      </trkpt>
      <trkpt lat="49.35733" lon="1.04483">
        <ele>93.7</ele>
        <time>2019-11-11T07:50:19Z</time>
      </trkpt>
      <trkpt lat="49.3573" lon="1.0448">
        <ele>93.7</ele>
        <time>2019-11-11T07:50:20Z</time>
      </trkpt>
      <trkpt lat="49.35727" lon="1.04477">
        <ele>93.7</ele>
        <time>2019-11-11T07:50:21Z</time>
      </trkpt>
      <trkpt lat="49.35723" lon="1.04474">
        <ele>93.7</ele>
        <time>2019-11-11T07:50:22Z</time>
      </trkpt>
      <trkpt lat="49.35719" lon="1.04471">
        <ele>93.7</ele>
        <time>2019-11-11T07:50:23Z</time>
      </trkpt>
      <trkpt lat="49.35716" lon="1.04468">
        <ele>93.7</ele>
        <time>2019-11-11T07:50:24Z</time>
      </trkpt>
      <trkpt lat="49.35712" lon="1.04465">
        <ele>93.7</ele>
        <time>2019-11-11T07:50:25Z</time>
      </trkpt>
      <trkpt lat="49.35709" lon="1.04462">
        <ele>93.7</ele>
        <time>2019-11-11T07:50:26Z</time>
      </trkpt>
      <trkpt lat="49.35706" lon="1.04459">
        <ele>94.8</ele>
        <time>2019-11-11T07:50:27Z</time>
      </trkpt>
      <trkpt lat="49.35703" lon="1.04456">
        <ele>94.8</ele>
        <time>2019-11-11T07:50:28Z</time>
      </trkpt>
      <trkpt lat="49.357" lon="1.04453">
        <ele>94.8</ele>
        <time>2019-11-11T07:50:29Z</time>
      </trkpt>
      <trkpt lat="49.35697" lon="1.04451">
        <ele>94.8</ele>
        <time>2019-11-11T07:50:30Z</time>
      </trkpt>
      <trkpt lat="49.35694" lon="1.04449">
        <ele>94.8</ele>
        <time>2019-11-11T07:50:31Z</time>
      </trkpt>
      <trkpt lat="49.35691" lon="1.04446">
        <ele>94.8</ele>
        <time>2019-11-11T07:50:32Z</time>
      </trkpt>
      <trkpt lat="49.35688" lon="1.04444">
        <ele>94.8</ele>
        <time>2019-11-11T07:50:33Z</time>
      </trkpt>
      <trkpt lat="49.35685" lon="1.04441">
        <ele>94.8</ele>
        <time>2019-11-11T07:50:34Z</time>
      </trkpt>
      <trkpt lat="49.35681" lon="1.04439">
        <ele>95.7</ele>
        <time>2019-11-11T07:50:35Z</time>
      </trkpt>
      <trkpt lat="49.35678" lon="1.04436">
        <ele>95.7</ele>
        <time>2019-11-11T07:50:36Z</time>
      </trkpt>
      <trkpt lat="49.35674" lon="1.04433">
        <ele>95.7</ele>
        <time>2019-11-11T07:50:37Z</time>
      </trkpt>
      <trkpt lat="49.35671" lon="1.0443">
        <ele>95.7</ele>
        <time>2019-11-11T07:50:38Z</time>
      </trkpt>
      <trkpt lat="49.35667" lon="1.04428">
        <ele>95.7</ele>
        <time>2019-11-11T07:50:39Z</time>
      </trkpt>
      <trkpt lat="49.35664" lon="1.04425">
        <ele>95.7</ele>
        <time>2019-11-11T07:50:40Z</time>
      </trkpt>
      <trkpt lat="49.3566" lon="1.04424">
        <ele>95.7</ele>
        <time>2019-11-11T07:50:41Z</time>
      </trkpt>
      <trkpt lat="49.35657" lon="1.04422">
        <ele>95.7</ele>
        <time>2019-11-11T07:50:42Z</time>
      </trkpt>
      <trkpt lat="49.35654" lon="1.04419">
        <ele>95.7</ele>
        <time>2019-11-11T07:50:43Z</time>
      </trkpt>
      <trkpt lat="49.35651" lon="1.04417">
        <ele>95.7</ele>
        <time>2019-11-11T07:50:44Z</time>
      </trkpt>
      <trkpt lat="49.35647" lon="1.04414">
        <ele>95.7</ele>
        <time>2019-11-11T07:50:45Z</time>
      </trkpt>
      <trkpt lat="49.35644" lon="1.04412">
        <ele>95.7</ele>
        <time>2019-11-11T07:50:46Z</time>
      </trkpt>
      <trkpt lat="49.35641" lon="1.0441">
        <ele>95.7</ele>
        <time>2019-11-11T07:50:47Z</time>
      </trkpt>
      <trkpt lat="49.35637" lon="1.04409">
        <ele>95.7</ele>
        <time>2019-11-11T07:50:48Z</time>
      </trkpt>
      <trkpt lat="49.35634" lon="1.04406">
        <ele>95.7</ele>
        <time>2019-11-11T07:50:49Z</time>
      </trkpt>
      <trkpt lat="49.35631" lon="1.04404">
        <ele>95.7</ele>
        <time>2019-11-11T07:50:50Z</time>
      </trkpt>
      <trkpt lat="49.35628" lon="1.04401">
        <ele>95.7</ele>
        <time>2019-11-11T07:50:51Z</time>
      </trkpt>
      <trkpt lat="49.35625" lon="1.04398">
        <ele>95.7</ele>
        <time>2019-11-11T07:50:52Z</time>
      </trkpt>
      <trkpt lat="49.35622" lon="1.04395">
        <ele>96.8</ele>
        <time>2019-11-11T07:50:53Z</time>
      </trkpt>
      <trkpt lat="49.35619" lon="1.04392">
        <ele>96.8</ele>
        <time>2019-11-11T07:50:54Z</time>
      </trkpt>
      <trkpt lat="49.35616" lon="1.04388">
        <ele>96.8</ele>
        <time>2019-11-11T07:50:55Z</time>
      </trkpt>
      <trkpt lat="49.35613" lon="1.04385">
        <ele>96.8</ele>
        <time>2019-11-11T07:50:56Z</time>
      </trkpt>
      <trkpt lat="49.3561" lon="1.04382">
        <ele>96.8</ele>
        <time>2019-11-11T07:50:57Z</time>
      </trkpt>
      <trkpt lat="49.35607" lon="1.04379">
        <ele>96.8</ele>
        <time>2019-11-11T07:50:58Z</time>
      </trkpt>
      <trkpt lat="49.35604" lon="1.04376">
        <ele>96.8</ele>
        <time>2019-11-11T07:50:59Z</time>
      </trkpt>
      <trkpt lat="49.35601" lon="1.04373">
        <ele>96.8</ele>
        <time>2019-11-11T07:51:00Z</time>
      </trkpt>
      <trkpt lat="49.35598" lon="1.0437">
        <ele>97.7</ele>
        <time>2019-11-11T07:51:01Z</time>
      </trkpt>
      <trkpt lat="49.35595" lon="1.04368">
        <ele>97.7</ele>
        <time>2019-11-11T07:51:02Z</time>
      </trkpt>
      <trkpt lat="49.35592" lon="1.04365">
        <ele>97.7</ele>
        <time>2019-11-11T07:51:03Z</time>
      </trkpt>
      <trkpt lat="49.35588" lon="1.04363">
        <ele>97.7</ele>
        <time>2019-11-11T07:51:04Z</time>
      </trkpt>
      <trkpt lat="49.35585" lon="1.04361">
        <ele>97.7</ele>
        <time>2019-11-11T07:51:05Z</time>
      </trkpt>
      <trkpt lat="49.35582" lon="1.04359">
        <ele>97.7</ele>
        <time>2019-11-11T07:51:06Z</time>
      </trkpt>
      <trkpt lat="49.35579" lon="1.04356">
        <ele>97.7</ele>
        <time>2019-11-11T07:51:07Z</time>
      </trkpt>
      <trkpt lat="49.35576" lon="1.04354">
        <ele>97.7</ele>
        <time>2019-11-11T07:51:08Z</time>
      </trkpt>
      <trkpt lat="49.35574" lon="1.04351">
        <ele>98.8</ele>
        <time>2019-11-11T07:51:09Z</time>
      </trkpt>
      <trkpt lat="49.35571" lon="1.04349">
        <ele>98.8</ele>
        <time>2019-11-11T07:51:10Z</time>
      </trkpt>
      <trkpt lat="49.35569" lon="1.04346">
        <ele>98.8</ele>
        <time>2019-11-11T07:51:11Z</time>
      </trkpt>
      <trkpt lat="49.35566" lon="1.04344">
        <ele>98.8</ele>
        <time>2019-11-11T07:51:12Z</time>
      </trkpt>
      <trkpt lat="49.35563" lon="1.04343">
        <ele>98.8</ele>
        <time>2019-11-11T07:51:13Z</time>
      </trkpt>
      <trkpt lat="49.3556" lon="1.0434">
        <ele>98.8</ele>
        <time>2019-11-11T07:51:14Z</time>
      </trkpt>
      <trkpt lat="49.35557" lon="1.04338">
        <ele>99.7</ele>
        <time>2019-11-11T07:51:15Z</time>
      </trkpt>
      <trkpt lat="49.35554" lon="1.04335">
        <ele>99.7</ele>
        <time>2019-11-11T07:51:16Z</time>
      </trkpt>
      <trkpt lat="49.35551" lon="1.04333">
        <ele>99.7</ele>
        <time>2019-11-11T07:51:17Z</time>
      </trkpt>
      <trkpt lat="49.35548" lon="1.04331">
        <ele>99.7</ele>
        <time>2019-11-11T07:51:18Z</time>
      </trkpt>
      <trkpt lat="49.35545" lon="1.04329">
        <ele>99.7</ele>
        <time>2019-11-11T07:51:19Z</time>
      </trkpt>
      <trkpt lat="49.35542" lon="1.04327">
        <ele>99.7</ele>
        <time>2019-11-11T07:51:20Z</time>
      </trkpt>
      <trkpt lat="49.35539" lon="1.04324">
        <ele>99.7</ele>
        <time>2019-11-11T07:51:21Z</time>
      </trkpt>
      <trkpt lat="49.35536" lon="1.04321">
        <ele>99.7</ele>
        <time>2019-11-11T07:51:22Z</time>
      </trkpt>
      <trkpt lat="49.35533" lon="1.04319">
        <ele>100.7</ele>
        <time>2019-11-11T07:51:23Z</time>
      </trkpt>
      <trkpt lat="49.3553" lon="1.04317">
        <ele>100.7</ele>
        <time>2019-11-11T07:51:24Z</time>
      </trkpt>
      <trkpt lat="49.35527" lon="1.04314">
        <ele>100.7</ele>
        <time>2019-11-11T07:51:25Z</time>
      </trkpt>
      <trkpt lat="49.35524" lon="1.04312">
        <ele>100.7</ele>
        <time>2019-11-11T07:51:26Z</time>
      </trkpt>
      <trkpt lat="49.35521" lon="1.04309">
        <ele>101.8</ele>
        <time>2019-11-11T07:51:27Z</time>
      </trkpt>
      <trkpt lat="49.35518" lon="1.04307">
        <ele>101.8</ele>
        <time>2019-11-11T07:51:28Z</time>
      </trkpt>
      <trkpt lat="49.35514" lon="1.04305">
        <ele>101.8</ele>
        <time>2019-11-11T07:51:29Z</time>
      </trkpt>
      <trkpt lat="49.35512" lon="1.04303">
        <ele>101.8</ele>
        <time>2019-11-11T07:51:30Z</time>
      </trkpt>
      <trkpt lat="49.35509" lon="1.043">
        <ele>102.7</ele>
        <time>2019-11-11T07:51:31Z</time>
      </trkpt>
      <trkpt lat="49.35506" lon="1.04297">
        <ele>102.7</ele>
        <time>2019-11-11T07:51:32Z</time>
      </trkpt>
      <trkpt lat="49.35503" lon="1.04295">
        <ele>102.7</ele>
        <time>2019-11-11T07:51:33Z</time>
      </trkpt>
      <trkpt lat="49.355" lon="1.04293">
        <ele>102.7</ele>
        <time>2019-11-11T07:51:34Z</time>
      </trkpt>
      <trkpt lat="49.35497" lon="1.04291">
        <ele>102.7</ele>
        <time>2019-11-11T07:51:35Z</time>
      </trkpt>
      <trkpt lat="49.35494" lon="1.04288">
        <ele>102.7</ele>
        <time>2019-11-11T07:51:36Z</time>
      </trkpt>
      <trkpt lat="49.35491" lon="1.04286">
        <ele>103.8</ele>
        <time>2019-11-11T07:51:37Z</time>
      </trkpt>
      <trkpt lat="49.35488" lon="1.04284">
        <ele>103.8</ele>
        <time>2019-11-11T07:51:38Z</time>
      </trkpt>
      <trkpt lat="49.35485" lon="1.04281">
        <ele>103.8</ele>
        <time>2019-11-11T07:51:39Z</time>
      </trkpt>
      <trkpt lat="49.35482" lon="1.04279">
        <ele>103.8</ele>
        <time>2019-11-11T07:51:40Z</time>
      </trkpt>
      <trkpt lat="49.35479" lon="1.04277">
        <ele>104.7</ele>
        <time>2019-11-11T07:51:41Z</time>
      </trkpt>
      <trkpt lat="49.35475" lon="1.04275">
        <ele>104.7</ele>
        <time>2019-11-11T07:51:42Z</time>
      </trkpt>
      <trkpt lat="49.35473" lon="1.04274">
        <ele>104.7</ele>
        <time>2019-11-11T07:51:43Z</time>
      </trkpt>
      <trkpt lat="49.3547" lon="1.04271">
        <ele>104.7</ele>
        <time>2019-11-11T07:51:44Z</time>
      </trkpt>
      <trkpt lat="49.35468" lon="1.04269">
        <ele>104.7</ele>
        <time>2019-11-11T07:51:45Z</time>
      </trkpt>
      <trkpt lat="49.35466" lon="1.04268">
        <ele>104.7</ele>
        <time>2019-11-11T07:51:46Z</time>
      </trkpt>
      <trkpt lat="49.35463" lon="1.04265">
        <ele>104.7</ele>
        <time>2019-11-11T07:51:47Z</time>
      </trkpt>
      <trkpt lat="49.3546" lon="1.04263">
        <ele>104.7</ele>
        <time>2019-11-11T07:51:48Z</time>
      </trkpt>
      <trkpt lat="49.35457" lon="1.04261">
        <ele>104.7</ele>
        <time>2019-11-11T07:51:49Z</time>
      </trkpt>
      <trkpt lat="49.35454" lon="1.04259">
        <ele>104.7</ele>
        <time>2019-11-11T07:51:50Z</time>
      </trkpt>
      <trkpt lat="49.35451" lon="1.04256">
        <ele>105.8</ele>
        <time>2019-11-11T07:51:51Z</time>
      </trkpt>
      <trkpt lat="49.35448" lon="1.04254">
        <ele>105.8</ele>
        <time>2019-11-11T07:51:52Z</time>
      </trkpt>
      <trkpt lat="49.35445" lon="1.04252">
        <ele>105.8</ele>
        <time>2019-11-11T07:51:53Z</time>
      </trkpt>
      <trkpt lat="49.35441" lon="1.0425">
        <ele>105.8</ele>
        <time>2019-11-11T07:51:54Z</time>
      </trkpt>
      <trkpt lat="49.35438" lon="1.04247">
        <ele>105.8</ele>
        <time>2019-11-11T07:51:55Z</time>
      </trkpt>
      <trkpt lat="49.35436" lon="1.04245">
        <ele>105.8</ele>
        <time>2019-11-11T07:51:56Z</time>
      </trkpt>
      <trkpt lat="49.35433" lon="1.04242">
        <ele>105.8</ele>
        <time>2019-11-11T07:51:57Z</time>
      </trkpt>
      <trkpt lat="49.3543" lon="1.0424">
        <ele>105.8</ele>
        <time>2019-11-11T07:51:58Z</time>
      </trkpt>
      <trkpt lat="49.35427" lon="1.04237">
        <ele>106.7</ele>
        <time>2019-11-11T07:51:59Z</time>
      </trkpt>
      <trkpt lat="49.35424" lon="1.04235">
        <ele>106.7</ele>
        <time>2019-11-11T07:52:00Z</time>
      </trkpt>
      <trkpt lat="49.35421" lon="1.04232">
        <ele>106.7</ele>
        <time>2019-11-11T07:52:01Z</time>
      </trkpt>
      <trkpt lat="49.35418" lon="1.04231">
        <ele>106.7</ele>
        <time>2019-11-11T07:52:02Z</time>
      </trkpt>
      <trkpt lat="49.35415" lon="1.04229">
        <ele>106.7</ele>
        <time>2019-11-11T07:52:03Z</time>
      </trkpt>
      <trkpt lat="49.35412" lon="1.04226">
        <ele>106.7</ele>
        <time>2019-11-11T07:52:04Z</time>
      </trkpt>
      <trkpt lat="49.35409" lon="1.04224">
        <ele>106.7</ele>
        <time>2019-11-11T07:52:05Z</time>
      </trkpt>
      <trkpt lat="49.35406" lon="1.04221">
        <ele>106.7</ele>
        <time>2019-11-11T07:52:06Z</time>
      </trkpt>
      <trkpt lat="49.35403" lon="1.04218">
        <ele>106.7</ele>
        <time>2019-11-11T07:52:07Z</time>
      </trkpt>
      <trkpt lat="49.354" lon="1.04216">
        <ele>106.7</ele>
        <time>2019-11-11T07:52:08Z</time>
      </trkpt>
      <trkpt lat="49.35397" lon="1.04213">
        <ele>106.7</ele>
        <time>2019-11-11T07:52:09Z</time>
      </trkpt>
      <trkpt lat="49.35394" lon="1.0421">
        <ele>106.7</ele>
        <time>2019-11-11T07:52:10Z</time>
      </trkpt>
      <trkpt lat="49.35391" lon="1.04208">
        <ele>107.7</ele>
        <time>2019-11-11T07:52:11Z</time>
      </trkpt>
      <trkpt lat="49.35388" lon="1.04205">
        <ele>107.7</ele>
        <time>2019-11-11T07:52:12Z</time>
      </trkpt>
      <trkpt lat="49.35385" lon="1.04203">
        <ele>107.7</ele>
        <time>2019-11-11T07:52:13Z</time>
      </trkpt>
      <trkpt lat="49.35382" lon="1.04201">
        <ele>107.7</ele>
        <time>2019-11-11T07:52:14Z</time>
      </trkpt>
      <trkpt lat="49.35379" lon="1.04198">
        <ele>108.8</ele>
        <time>2019-11-11T07:52:15Z</time>
      </trkpt>
      <trkpt lat="49.35376" lon="1.04195">
        <ele>108.8</ele>
        <time>2019-11-11T07:52:16Z</time>
      </trkpt>
      <trkpt lat="49.35373" lon="1.04192">
        <ele>108.8</ele>
        <time>2019-11-11T07:52:17Z</time>
      </trkpt>
      <trkpt lat="49.3537" lon="1.04189">
        <ele>108.8</ele>
        <time>2019-11-11T07:52:18Z</time>
      </trkpt>
      <trkpt lat="49.35367" lon="1.04186">
        <ele>108.8</ele>
        <time>2019-11-11T07:52:19Z</time>
      </trkpt>
      <trkpt lat="49.35364" lon="1.04184">
        <ele>108.8</ele>
        <time>2019-11-11T07:52:20Z</time>
      </trkpt>
      <trkpt lat="49.35361" lon="1.04181">
        <ele>108.8</ele>
        <time>2019-11-11T07:52:21Z</time>
      </trkpt>
      <trkpt lat="49.35357" lon="1.04179">
        <ele>108.8</ele>
        <time>2019-11-11T07:52:22Z</time>
      </trkpt>
      <trkpt lat="49.35354" lon="1.04176">
        <ele>108.8</ele>
        <time>2019-11-11T07:52:23Z</time>
      </trkpt>
      <trkpt lat="49.35351" lon="1.04174">
        <ele>108.8</ele>
        <time>2019-11-11T07:52:24Z</time>
      </trkpt>
      <trkpt lat="49.35347" lon="1.04173">
        <ele>108.8</ele>
        <time>2019-11-11T07:52:25Z</time>
      </trkpt>
      <trkpt lat="49.35344" lon="1.04173">
        <ele>108.8</ele>
        <time>2019-11-11T07:52:26Z</time>
      </trkpt>
      <trkpt lat="49.35341" lon="1.04174">
        <ele>108.8</ele>
        <time>2019-11-11T07:52:27Z</time>
      </trkpt>
      <trkpt lat="49.35339" lon="1.04176">
        <ele>108.8</ele>
        <time>2019-11-11T07:52:28Z</time>
      </trkpt>
      <trkpt lat="49.35337" lon="1.04179">
        <ele>109.7</ele>
        <time>2019-11-11T07:52:29Z</time>
      </trkpt>
      <trkpt lat="49.35335" lon="1.04182">
        <ele>109.7</ele>
        <time>2019-11-11T07:52:30Z</time>
      </trkpt>
      <trkpt lat="49.35334" lon="1.04186">
        <ele>109.7</ele>
        <time>2019-11-11T07:52:31Z</time>
      </trkpt>
      <trkpt lat="49.35333" lon="1.0419">
        <ele>109.7</ele>
        <time>2019-11-11T07:52:32Z</time>
      </trkpt>
      <trkpt lat="49.35331" lon="1.04193">
        <ele>109.7</ele>
        <time>2019-11-11T07:52:33Z</time>
      </trkpt>
      <trkpt lat="49.3533" lon="1.04197">
        <ele>109.7</ele>
        <time>2019-11-11T07:52:34Z</time>
      </trkpt>
      <trkpt lat="49.35328" lon="1.04201">
        <ele>109.7</ele>
        <time>2019-11-11T07:52:35Z</time>
      </trkpt>
      <trkpt lat="49.35327" lon="1.04205">
        <ele>109.7</ele>
        <time>2019-11-11T07:52:36Z</time>
      </trkpt>
      <trkpt lat="49.35325" lon="1.04209">
        <ele>109.7</ele>
        <time>2019-11-11T07:52:37Z</time>
      </trkpt>
      <trkpt lat="49.35323" lon="1.04213">
        <ele>109.7</ele>
        <time>2019-11-11T07:52:38Z</time>
      </trkpt>
      <trkpt lat="49.35321" lon="1.04218">
        <ele>109.7</ele>
        <time>2019-11-11T07:52:39Z</time>
      </trkpt>
      <trkpt lat="49.35319" lon="1.04222">
        <ele>109.7</ele>
        <time>2019-11-11T07:52:40Z</time>
      </trkpt>
      <trkpt lat="49.35317" lon="1.04227">
        <ele>109.7</ele>
        <time>2019-11-11T07:52:41Z</time>
      </trkpt>
      <trkpt lat="49.35315" lon="1.04232">
        <ele>109.7</ele>
        <time>2019-11-11T07:52:42Z</time>
      </trkpt>
      <trkpt lat="49.35314" lon="1.04238">
        <ele>109.7</ele>
        <time>2019-11-11T07:52:43Z</time>
      </trkpt>
      <trkpt lat="49.35312" lon="1.04243">
        <ele>109.7</ele>
        <time>2019-11-11T07:52:44Z</time>
      </trkpt>
      <trkpt lat="49.3531" lon="1.04248">
        <ele>109.7</ele>
        <time>2019-11-11T07:52:45Z</time>
      </trkpt>
      <trkpt lat="49.35308" lon="1.04253">
        <ele>109.7</ele>
        <time>2019-11-11T07:52:46Z</time>
      </trkpt>
      <trkpt lat="49.35307" lon="1.04259">
        <ele>109.7</ele>
        <time>2019-11-11T07:52:47Z</time>
      </trkpt>
      <trkpt lat="49.35305" lon="1.04264">
        <ele>109.7</ele>
        <time>2019-11-11T07:52:48Z</time>
      </trkpt>
      <trkpt lat="49.35303" lon="1.0427">
        <ele>109.7</ele>
        <time>2019-11-11T07:52:49Z</time>
      </trkpt>
      <trkpt lat="49.35301" lon="1.04275">
        <ele>109.7</ele>
        <time>2019-11-11T07:52:50Z</time>
      </trkpt>
      <trkpt lat="49.353" lon="1.04281">
        <ele>109.7</ele>
        <time>2019-11-11T07:52:51Z</time>
      </trkpt>
      <trkpt lat="49.35298" lon="1.04287">
        <ele>109.7</ele>
        <time>2019-11-11T07:52:52Z</time>
      </trkpt>
      <trkpt lat="49.35296" lon="1.04292">
        <ele>109.7</ele>
        <time>2019-11-11T07:52:53Z</time>
      </trkpt>
      <trkpt lat="49.35294" lon="1.04297">
        <ele>109.7</ele>
        <time>2019-11-11T07:52:54Z</time>
      </trkpt>
      <trkpt lat="49.35293" lon="1.04302">
        <ele>109.7</ele>
        <time>2019-11-11T07:52:55Z</time>
      </trkpt>
      <trkpt lat="49.35291" lon="1.04308">
        <ele>109.7</ele>
        <time>2019-11-11T07:52:56Z</time>
      </trkpt>
      <trkpt lat="49.35289" lon="1.04313">
        <ele>109.7</ele>
        <time>2019-11-11T07:52:57Z</time>
      </trkpt>
      <trkpt lat="49.35288" lon="1.04318">
        <ele>109.7</ele>
        <time>2019-11-11T07:52:58Z</time>
      </trkpt>
      <trkpt lat="49.35286" lon="1.04323">
        <ele>109.7</ele>
        <time>2019-11-11T07:52:59Z</time>
      </trkpt>
      <trkpt lat="49.35285" lon="1.04327">
        <ele>109.7</ele>
        <time>2019-11-11T07:53:00Z</time>
      </trkpt>
      <trkpt lat="49.35284" lon="1.04333">
        <ele>109.7</ele>
        <time>2019-11-11T07:53:01Z</time>
      </trkpt>
      <trkpt lat="49.35282" lon="1.04338">
        <ele>109.7</ele>
        <time>2019-11-11T07:53:02Z</time>
      </trkpt>
      <trkpt lat="49.35281" lon="1.04343">
        <ele>109.7</ele>
        <time>2019-11-11T07:53:03Z</time>
      </trkpt>
      <trkpt lat="49.35279" lon="1.04348">
        <ele>109.7</ele>
        <time>2019-11-11T07:53:04Z</time>
      </trkpt>
      <trkpt lat="49.35277" lon="1.04352">
        <ele>109.7</ele>
        <time>2019-11-11T07:53:05Z</time>
      </trkpt>
      <trkpt lat="49.35275" lon="1.04355">
        <ele>109.7</ele>
        <time>2019-11-11T07:53:06Z</time>
      </trkpt>
      <trkpt lat="49.35271" lon="1.04355">
        <ele>109.7</ele>
        <time>2019-11-11T07:53:07Z</time>
      </trkpt>
      <trkpt lat="49.35268" lon="1.04354">
        <ele>109.7</ele>
        <time>2019-11-11T07:53:08Z</time>
      </trkpt>
      <trkpt lat="49.35264" lon="1.04353">
        <ele>109.7</ele>
        <time>2019-11-11T07:53:09Z</time>
      </trkpt>
      <trkpt lat="49.35261" lon="1.04351">
        <ele>109.7</ele>
        <time>2019-11-11T07:53:10Z</time>
      </trkpt>
      <trkpt lat="49.35258" lon="1.04349">
        <ele>109.7</ele>
        <time>2019-11-11T07:53:11Z</time>
      </trkpt>
      <trkpt lat="49.35255" lon="1.04346">
        <ele>109.7</ele>
        <time>2019-11-11T07:53:12Z</time>
      </trkpt>
      <trkpt lat="49.35252" lon="1.04344">
        <ele>109.7</ele>
        <time>2019-11-11T07:53:13Z</time>
      </trkpt>
      <trkpt lat="49.35249" lon="1.04342">
        <ele>109.7</ele>
        <time>2019-11-11T07:53:14Z</time>
      </trkpt>
      <trkpt lat="49.35247" lon="1.0434">
        <ele>109.7</ele>
        <time>2019-11-11T07:53:15Z</time>
      </trkpt>
      <trkpt lat="49.35244" lon="1.04338">
        <ele>109.7</ele>
        <time>2019-11-11T07:53:16Z</time>
      </trkpt>
      <trkpt lat="49.35241" lon="1.04335">
        <ele>109.7</ele>
        <time>2019-11-11T07:53:17Z</time>
      </trkpt>
      <trkpt lat="49.35238" lon="1.04332">
        <ele>109.7</ele>
        <time>2019-11-11T07:53:18Z</time>
      </trkpt>
      <trkpt lat="49.35235" lon="1.0433">
        <ele>109.7</ele>
        <time>2019-11-11T07:53:19Z</time>
      </trkpt>
      <trkpt lat="49.35231" lon="1.04328">
        <ele>109.7</ele>
        <time>2019-11-11T07:53:20Z</time>
      </trkpt>
      <trkpt lat="49.35228" lon="1.04325">
        <ele>110.8</ele>
        <time>2019-11-11T07:53:21Z</time>
      </trkpt>
      <trkpt lat="49.35225" lon="1.04323">
        <ele>110.8</ele>
        <time>2019-11-11T07:53:22Z</time>
      </trkpt>
      <trkpt lat="49.35222" lon="1.0432">
        <ele>110.8</ele>
        <time>2019-11-11T07:53:23Z</time>
      </trkpt>
      <trkpt lat="49.35219" lon="1.04318">
        <ele>110.8</ele>
        <time>2019-11-11T07:53:24Z</time>
      </trkpt>
      <trkpt lat="49.35216" lon="1.04315">
        <ele>110.8</ele>
        <time>2019-11-11T07:53:25Z</time>
      </trkpt>
      <trkpt lat="49.35212" lon="1.04314">
        <ele>110.8</ele>
        <time>2019-11-11T07:53:26Z</time>
      </trkpt>
      <trkpt lat="49.35208" lon="1.04312">
        <ele>110.8</ele>
        <time>2019-11-11T07:53:27Z</time>
      </trkpt>
      <trkpt lat="49.35205" lon="1.04311">
        <ele>110.8</ele>
        <time>2019-11-11T07:53:28Z</time>
      </trkpt>
      <trkpt lat="49.35201" lon="1.0431">
        <ele>110.8</ele>
        <time>2019-11-11T07:53:29Z</time>
      </trkpt>
      <trkpt lat="49.35197" lon="1.04308">
        <ele>110.8</ele>
        <time>2019-11-11T07:53:30Z</time>
      </trkpt>
      <trkpt lat="49.35194" lon="1.04306">
        <ele>110.8</ele>
        <time>2019-11-11T07:53:31Z</time>
      </trkpt>
      <trkpt lat="49.35191" lon="1.04303">
        <ele>110.8</ele>
        <time>2019-11-11T07:53:32Z</time>
      </trkpt>
      <trkpt lat="49.35188" lon="1.043">
        <ele>111.7</ele>
        <time>2019-11-11T07:53:33Z</time>
      </trkpt>
      <trkpt lat="49.35184" lon="1.04298">
        <ele>111.7</ele>
        <time>2019-11-11T07:53:34Z</time>
      </trkpt>
      <trkpt lat="49.35181" lon="1.04295">
        <ele>111.7</ele>
        <time>2019-11-11T07:53:35Z</time>
      </trkpt>
      <trkpt lat="49.35178" lon="1.04293">
        <ele>111.7</ele>
        <time>2019-11-11T07:53:36Z</time>
      </trkpt>
      <trkpt lat="49.35175" lon="1.0429">
        <ele>111.7</ele>
        <time>2019-11-11T07:53:37Z</time>
      </trkpt>
      <trkpt lat="49.35172" lon="1.04288">
        <ele>111.7</ele>
        <time>2019-11-11T07:53:38Z</time>
      </trkpt>
      <trkpt lat="49.35169" lon="1.04285">
        <ele>111.7</ele>
        <time>2019-11-11T07:53:39Z</time>
      </trkpt>
      <trkpt lat="49.35166" lon="1.04283">
        <ele>111.7</ele>
        <time>2019-11-11T07:53:40Z</time>
      </trkpt>
      <trkpt lat="49.35162" lon="1.04281">
        <ele>111.7</ele>
        <time>2019-11-11T07:53:41Z</time>
      </trkpt>
      <trkpt lat="49.35159" lon="1.04279">
        <ele>111.7</ele>
        <time>2019-11-11T07:53:42Z</time>
      </trkpt>
      <trkpt lat="49.35156" lon="1.04276">
        <ele>111.7</ele>
        <time>2019-11-11T07:53:43Z</time>
      </trkpt>
      <trkpt lat="49.35152" lon="1.04274">
        <ele>111.7</ele>
        <time>2019-11-11T07:53:44Z</time>
      </trkpt>
      <trkpt lat="49.35149" lon="1.04272">
        <ele>111.7</ele>
        <time>2019-11-11T07:53:45Z</time>
      </trkpt>
      <trkpt lat="49.35146" lon="1.04269">
        <ele>111.7</ele>
        <time>2019-11-11T07:53:46Z</time>
      </trkpt>
      <trkpt lat="49.35143" lon="1.04267">
        <ele>111.7</ele>
        <time>2019-11-11T07:53:47Z</time>
      </trkpt>
      <trkpt lat="49.3514" lon="1.04264">
        <ele>111.7</ele>
        <time>2019-11-11T07:53:48Z</time>
      </trkpt>
      <trkpt lat="49.35136" lon="1.04262">
        <ele>111.7</ele>
        <time>2019-11-11T07:53:49Z</time>
      </trkpt>
      <trkpt lat="49.35133" lon="1.04259">
        <ele>111.7</ele>
        <time>2019-11-11T07:53:50Z</time>
      </trkpt>
      <trkpt lat="49.3513" lon="1.04257">
        <ele>111.7</ele>
        <time>2019-11-11T07:53:51Z</time>
      </trkpt>
      <trkpt lat="49.35127" lon="1.04254">
        <ele>111.7</ele>
        <time>2019-11-11T07:53:52Z</time>
      </trkpt>
      <trkpt lat="49.35123" lon="1.04252">
        <ele>111.7</ele>
        <time>2019-11-11T07:53:53Z</time>
      </trkpt>
      <trkpt lat="49.3512" lon="1.04249">
        <ele>111.7</ele>
        <time>2019-11-11T07:53:54Z</time>
      </trkpt>
      <trkpt lat="49.35117" lon="1.04247">
        <ele>111.7</ele>
        <time>2019-11-11T07:53:55Z</time>
      </trkpt>
      <trkpt lat="49.35114" lon="1.04245">
        <ele>111.7</ele>
        <time>2019-11-11T07:53:56Z</time>
      </trkpt>
      <trkpt lat="49.35111" lon="1.04243">
        <ele>111.7</ele>
        <time>2019-11-11T07:53:57Z</time>
      </trkpt>
      <trkpt lat="49.35107" lon="1.04241">
        <ele>111.7</ele>
        <time>2019-11-11T07:53:58Z</time>
      </trkpt>
      <trkpt lat="49.35104" lon="1.04239">
        <ele>111.7</ele>
        <time>2019-11-11T07:53:59Z</time>
      </trkpt>
      <trkpt lat="49.35101" lon="1.04236">
        <ele>111.7</ele>
        <time>2019-11-11T07:54:00Z</time>
      </trkpt>
      <trkpt lat="49.35098" lon="1.04234">
        <ele>111.7</ele>
        <time>2019-11-11T07:54:01Z</time>
      </trkpt>
      <trkpt lat="49.35095" lon="1.04231">
        <ele>111.7</ele>
        <time>2019-11-11T07:54:02Z</time>
      </trkpt>
      <trkpt lat="49.35092" lon="1.04229">
        <ele>111.7</ele>
        <time>2019-11-11T07:54:03Z</time>
      </trkpt>
      <trkpt lat="49.35088" lon="1.04227">
        <ele>111.7</ele>
        <time>2019-11-11T07:54:04Z</time>
      </trkpt>
      <trkpt lat="49.35085" lon="1.04226">
        <ele>111.7</ele>
        <time>2019-11-11T07:54:05Z</time>
      </trkpt>
      <trkpt lat="49.35082" lon="1.04225">
        <ele>111.7</ele>
        <time>2019-11-11T07:54:06Z</time>
      </trkpt>
      <trkpt lat="49.35079" lon="1.04223">
        <ele>111.7</ele>
        <time>2019-11-11T07:54:07Z</time>
      </trkpt>
      <trkpt lat="49.35075" lon="1.04221">
        <ele>111.7</ele>
        <time>2019-11-11T07:54:08Z</time>
      </trkpt>
      <trkpt lat="49.35072" lon="1.04219">
        <ele>111.7</ele>
        <time>2019-11-11T07:54:09Z</time>
      </trkpt>
      <trkpt lat="49.35069" lon="1.04216">
        <ele>111.7</ele>
        <time>2019-11-11T07:54:10Z</time>
      </trkpt>
      <trkpt lat="49.35066" lon="1.04214">
        <ele>111.7</ele>
        <time>2019-11-11T07:54:11Z</time>
      </trkpt>
      <trkpt lat="49.35063" lon="1.04212">
        <ele>111.7</ele>
        <time>2019-11-11T07:54:12Z</time>
      </trkpt>
      <trkpt lat="49.3506" lon="1.04209">
        <ele>112.8</ele>
        <time>2019-11-11T07:54:13Z</time>
      </trkpt>
      <trkpt lat="49.35057" lon="1.04206">
        <ele>112.8</ele>
        <time>2019-11-11T07:54:14Z</time>
      </trkpt>
      <trkpt lat="49.35054" lon="1.04204">
        <ele>112.8</ele>
        <time>2019-11-11T07:54:15Z</time>
      </trkpt>
      <trkpt lat="49.3505" lon="1.04201">
        <ele>112.8</ele>
        <time>2019-11-11T07:54:16Z</time>
      </trkpt>
      <trkpt lat="49.35048" lon="1.04198">
        <ele>112.8</ele>
        <time>2019-11-11T07:54:17Z</time>
      </trkpt>
      <trkpt lat="49.35045" lon="1.04194">
        <ele>112.8</ele>
        <time>2019-11-11T07:54:18Z</time>
      </trkpt>
      <trkpt lat="49.35042" lon="1.04192">
        <ele>112.8</ele>
        <time>2019-11-11T07:54:19Z</time>
      </trkpt>
      <trkpt lat="49.35039" lon="1.0419">
        <ele>112.8</ele>
        <time>2019-11-11T07:54:20Z</time>
      </trkpt>
      <trkpt lat="49.35036" lon="1.04188">
        <ele>112.8</ele>
        <time>2019-11-11T07:54:21Z</time>
      </trkpt>
      <trkpt lat="49.35032" lon="1.04186">
        <ele>112.8</ele>
        <time>2019-11-11T07:54:22Z</time>
      </trkpt>
      <trkpt lat="49.35029" lon="1.04184">
        <ele>112.8</ele>
        <time>2019-11-11T07:54:23Z</time>
      </trkpt>
      <trkpt lat="49.35026" lon="1.04182">
        <ele>112.8</ele>
        <time>2019-11-11T07:54:24Z</time>
      </trkpt>
      <trkpt lat="49.35023" lon="1.0418">
        <ele>112.8</ele>
        <time>2019-11-11T07:54:25Z</time>
      </trkpt>
      <trkpt lat="49.35019" lon="1.04178">
        <ele>112.8</ele>
        <time>2019-11-11T07:54:26Z</time>
      </trkpt>
      <trkpt lat="49.35015" lon="1.04177">
        <ele>112.8</ele>
        <time>2019-11-11T07:54:27Z</time>
      </trkpt>
      <trkpt lat="49.35012" lon="1.04175">
        <ele>112.8</ele>
        <time>2019-11-11T07:54:28Z</time>
      </trkpt>
      <trkpt lat="49.35008" lon="1.04172">
        <ele>112.8</ele>
        <time>2019-11-11T07:54:29Z</time>
      </trkpt>
      <trkpt lat="49.35005" lon="1.0417">
        <ele>112.8</ele>
        <time>2019-11-11T07:54:30Z</time>
      </trkpt>
      <trkpt lat="49.35002" lon="1.04168">
        <ele>112.8</ele>
        <time>2019-11-11T07:54:31Z</time>
      </trkpt>
      <trkpt lat="49.34998" lon="1.04165">
        <ele>112.8</ele>
        <time>2019-11-11T07:54:32Z</time>
      </trkpt>
      <trkpt lat="49.34995" lon="1.04163">
        <ele>112.8</ele>
        <time>2019-11-11T07:54:33Z</time>
      </trkpt>
      <trkpt lat="49.34992" lon="1.04162">
        <ele>112.8</ele>
        <time>2019-11-11T07:54:34Z</time>
      </trkpt>
      <trkpt lat="49.34989" lon="1.0416">
        <ele>112.8</ele>
        <time>2019-11-11T07:54:35Z</time>
      </trkpt>
      <trkpt lat="49.34987" lon="1.04158">
        <ele>112.8</ele>
        <time>2019-11-11T07:54:36Z</time>
      </trkpt>
      <trkpt lat="49.34984" lon="1.04156">
        <ele>112.8</ele>
        <time>2019-11-11T07:54:37Z</time>
      </trkpt>
      <trkpt lat="49.34981" lon="1.04154">
        <ele>112.8</ele>
        <time>2019-11-11T07:54:38Z</time>
      </trkpt>
      <trkpt lat="49.34977" lon="1.04152">
        <ele>112.8</ele>
        <time>2019-11-11T07:54:39Z</time>
      </trkpt>
      <trkpt lat="49.34975" lon="1.0415">
        <ele>112.8</ele>
        <time>2019-11-11T07:54:40Z</time>
      </trkpt>
      <trkpt lat="49.34972" lon="1.04148">
        <ele>112.8</ele>
        <time>2019-11-11T07:54:41Z</time>
      </trkpt>
      <trkpt lat="49.34969" lon="1.04146">
        <ele>112.8</ele>
        <time>2019-11-11T07:54:42Z</time>
      </trkpt>
      <trkpt lat="49.34966" lon="1.04144">
        <ele>112.8</ele>
        <time>2019-11-11T07:54:43Z</time>
      </trkpt>
      <trkpt lat="49.34963" lon="1.04142">
        <ele>112.8</ele>
        <time>2019-11-11T07:54:44Z</time>
      </trkpt>
      <trkpt lat="49.3496" lon="1.0414">
        <ele>114.8</ele>
        <time>2019-11-11T07:54:45Z</time>
      </trkpt>
      <trkpt lat="49.34957" lon="1.04138">
        <ele>114.8</ele>
        <time>2019-11-11T07:54:46Z</time>
      </trkpt>
      <trkpt lat="49.34954" lon="1.04137">
        <ele>114.8</ele>
        <time>2019-11-11T07:54:47Z</time>
      </trkpt>
      <trkpt lat="49.34951" lon="1.04135">
        <ele>114.8</ele>
        <time>2019-11-11T07:54:48Z</time>
      </trkpt>
      <trkpt lat="49.34948" lon="1.04133">
        <ele>114.8</ele>
        <time>2019-11-11T07:54:49Z</time>
      </trkpt>
      <trkpt lat="49.34946" lon="1.0413">
        <ele>114.8</ele>
        <time>2019-11-11T07:54:50Z</time>
      </trkpt>
      <trkpt lat="49.34943" lon="1.04128">
        <ele>114.8</ele>
        <time>2019-11-11T07:54:51Z</time>
      </trkpt>
      <trkpt lat="49.3494" lon="1.04125">
        <ele>114.8</ele>
        <time>2019-11-11T07:54:52Z</time>
      </trkpt>
      <trkpt lat="49.34937" lon="1.04123">
        <ele>114.8</ele>
        <time>2019-11-11T07:54:53Z</time>
      </trkpt>
      <trkpt lat="49.34934" lon="1.04121">
        <ele>114.8</ele>
        <time>2019-11-11T07:54:54Z</time>
      </trkpt>
      <trkpt lat="49.34931" lon="1.04118">
        <ele>114.8</ele>
        <time>2019-11-11T07:54:55Z</time>
      </trkpt>
      <trkpt lat="49.34928" lon="1.04116">
        <ele>114.8</ele>
        <time>2019-11-11T07:54:56Z</time>
      </trkpt>
      <trkpt lat="49.34924" lon="1.04115">
        <ele>114.8</ele>
        <time>2019-11-11T07:54:57Z</time>
      </trkpt>
      <trkpt lat="49.34921" lon="1.04113">
        <ele>114.8</ele>
        <time>2019-11-11T07:54:58Z</time>
      </trkpt>
      <trkpt lat="49.34918" lon="1.04111">
        <ele>114.8</ele>
        <time>2019-11-11T07:54:59Z</time>
      </trkpt>
      <trkpt lat="49.34915" lon="1.04108">
        <ele>114.8</ele>
        <time>2019-11-11T07:55:00Z</time>
      </trkpt>
      <trkpt lat="49.34912" lon="1.04107">
        <ele>114.8</ele>
        <time>2019-11-11T07:55:01Z</time>
      </trkpt>
      <trkpt lat="49.34908" lon="1.04106">
        <ele>114.8</ele>
        <time>2019-11-11T07:55:02Z</time>
      </trkpt>
      <trkpt lat="49.34905" lon="1.04104">
        <ele>114.8</ele>
        <time>2019-11-11T07:55:03Z</time>
      </trkpt>
      <trkpt lat="49.34901" lon="1.04102">
        <ele>114.8</ele>
        <time>2019-11-11T07:55:04Z</time>
      </trkpt>
      <trkpt lat="49.34898" lon="1.04099">
        <ele>115.7</ele>
        <time>2019-11-11T07:55:05Z</time>
      </trkpt>
      <trkpt lat="49.34895" lon="1.04097">
        <ele>115.7</ele>
        <time>2019-11-11T07:55:06Z</time>
      </trkpt>
      <trkpt lat="49.34892" lon="1.04095">
        <ele>115.7</ele>
        <time>2019-11-11T07:55:07Z</time>
      </trkpt>
      <trkpt lat="49.34889" lon="1.04093">
        <ele>115.7</ele>
        <time>2019-11-11T07:55:08Z</time>
      </trkpt>
      <trkpt lat="49.34886" lon="1.04089">
        <ele>115.7</ele>
        <time>2019-11-11T07:55:09Z</time>
      </trkpt>
      <trkpt lat="49.34884" lon="1.04087">
        <ele>115.7</ele>
        <time>2019-11-11T07:55:10Z</time>
      </trkpt>
      <trkpt lat="49.34882" lon="1.04086">
        <ele>115.7</ele>
        <time>2019-11-11T07:55:11Z</time>
      </trkpt>
      <trkpt lat="49.34879" lon="1.04084">
        <ele>115.7</ele>
        <time>2019-11-11T07:55:12Z</time>
      </trkpt>
      <trkpt lat="49.34877" lon="1.04081">
        <ele>115.7</ele>
        <time>2019-11-11T07:55:13Z</time>
      </trkpt>
      <trkpt lat="49.34876" lon="1.04077">
        <ele>115.7</ele>
        <time>2019-11-11T07:55:14Z</time>
      </trkpt>
      <trkpt lat="49.34876" lon="1.04072">
        <ele>115.7</ele>
        <time>2019-11-11T07:55:15Z</time>
      </trkpt>
      <trkpt lat="49.34876" lon="1.04068">
        <ele>115.7</ele>
        <time>2019-11-11T07:55:16Z</time>
      </trkpt>
      <trkpt lat="49.34877" lon="1.04064">
        <ele>115.7</ele>
        <time>2019-11-11T07:55:17Z</time>
      </trkpt>
      <trkpt lat="49.34878" lon="1.04059">
        <ele>115.7</ele>
        <time>2019-11-11T07:55:18Z</time>
      </trkpt>
      <trkpt lat="49.34878" lon="1.04055">
        <ele>115.7</ele>
        <time>2019-11-11T07:55:19Z</time>
      </trkpt>
      <trkpt lat="49.34879" lon="1.0405">
        <ele>115.7</ele>
        <time>2019-11-11T07:55:20Z</time>
      </trkpt>
      <trkpt lat="49.34879" lon="1.04046">
        <ele>115.7</ele>
        <time>2019-11-11T07:55:21Z</time>
      </trkpt>
      <trkpt lat="49.3488" lon="1.04041">
        <ele>115.7</ele>
        <time>2019-11-11T07:55:22Z</time>
      </trkpt>
      <trkpt lat="49.34881" lon="1.04037">
        <ele>115.7</ele>
        <time>2019-11-11T07:55:23Z</time>
      </trkpt>
      <trkpt lat="49.34882" lon="1.04032">
        <ele>115.7</ele>
        <time>2019-11-11T07:55:24Z</time>
      </trkpt>
      <trkpt lat="49.34882" lon="1.04028">
        <ele>115.7</ele>
        <time>2019-11-11T07:55:25Z</time>
      </trkpt>
      <trkpt lat="49.34883" lon="1.04023">
        <ele>115.7</ele>
        <time>2019-11-11T07:55:26Z</time>
      </trkpt>
      <trkpt lat="49.34884" lon="1.04018">
        <ele>115.7</ele>
        <time>2019-11-11T07:55:27Z</time>
      </trkpt>
      <trkpt lat="49.34885" lon="1.04013">
        <ele>115.7</ele>
        <time>2019-11-11T07:55:28Z</time>
      </trkpt>
      <trkpt lat="49.34885" lon="1.04008">
        <ele>116.7</ele>
        <time>2019-11-11T07:55:29Z</time>
      </trkpt>
      <trkpt lat="49.34886" lon="1.04003">
        <ele>116.7</ele>
        <time>2019-11-11T07:55:30Z</time>
      </trkpt>
      <trkpt lat="49.34886" lon="1.03998">
        <ele>116.7</ele>
        <time>2019-11-11T07:55:31Z</time>
      </trkpt>
      <trkpt lat="49.34887" lon="1.03993">
        <ele>116.7</ele>
        <time>2019-11-11T07:55:32Z</time>
      </trkpt>
      <trkpt lat="49.34888" lon="1.03987">
        <ele>116.7</ele>
        <time>2019-11-11T07:55:33Z</time>
      </trkpt>
      <trkpt lat="49.34888" lon="1.03982">
        <ele>116.7</ele>
        <time>2019-11-11T07:55:34Z</time>
      </trkpt>
      <trkpt lat="49.34889" lon="1.03977">
        <ele>116.7</ele>
        <time>2019-11-11T07:55:35Z</time>
      </trkpt>
      <trkpt lat="49.3489" lon="1.03971">
        <ele>116.7</ele>
        <time>2019-11-11T07:55:36Z</time>
      </trkpt>
      <trkpt lat="49.3489" lon="1.03966">
        <ele>116.7</ele>
        <time>2019-11-11T07:55:37Z</time>
      </trkpt>
      <trkpt lat="49.34891" lon="1.0396">
        <ele>116.7</ele>
        <time>2019-11-11T07:55:38Z</time>
      </trkpt>
      <trkpt lat="49.34892" lon="1.03955">
        <ele>117.8</ele>
        <time>2019-11-11T07:55:39Z</time>
      </trkpt>
      <trkpt lat="49.34893" lon="1.03949">
        <ele>117.8</ele>
        <time>2019-11-11T07:55:40Z</time>
      </trkpt>
      <trkpt lat="49.34893" lon="1.03944">
        <ele>117.8</ele>
        <time>2019-11-11T07:55:41Z</time>
      </trkpt>
      <trkpt lat="49.34894" lon="1.03938">
        <ele>117.8</ele>
        <time>2019-11-11T07:55:42Z</time>
      </trkpt>
      <trkpt lat="49.34895" lon="1.03933">
        <ele>117.8</ele>
        <time>2019-11-11T07:55:43Z</time>
      </trkpt>
      <trkpt lat="49.34895" lon="1.03927">
        <ele>117.8</ele>
        <time>2019-11-11T07:55:44Z</time>
      </trkpt>
      <trkpt lat="49.34896" lon="1.03922">
        <ele>117.8</ele>
        <time>2019-11-11T07:55:45Z</time>
      </trkpt>
      <trkpt lat="49.34897" lon="1.03916">
        <ele>117.8</ele>
        <time>2019-11-11T07:55:46Z</time>
      </trkpt>
      <trkpt lat="49.34897" lon="1.03911">
        <ele>118.7</ele>
        <time>2019-11-11T07:55:47Z</time>
      </trkpt>
      <trkpt lat="49.34898" lon="1.03906">
        <ele>118.7</ele>
        <time>2019-11-11T07:55:48Z</time>
      </trkpt>
      <trkpt lat="49.34899" lon="1.039">
        <ele>118.7</ele>
        <time>2019-11-11T07:55:49Z</time>
      </trkpt>
      <trkpt lat="49.34899" lon="1.03895">
        <ele>118.7</ele>
        <time>2019-11-11T07:55:50Z</time>
      </trkpt>
      <trkpt lat="49.349" lon="1.0389">
        <ele>119.8</ele>
        <time>2019-11-11T07:55:51Z</time>
      </trkpt>
      <trkpt lat="49.349" lon="1.03884">
        <ele>119.8</ele>
        <time>2019-11-11T07:55:52Z</time>
      </trkpt>
      <trkpt lat="49.34901" lon="1.03879">
        <ele>119.8</ele>
        <time>2019-11-11T07:55:53Z</time>
      </trkpt>
      <trkpt lat="49.34902" lon="1.03874">
        <ele>119.8</ele>
        <time>2019-11-11T07:55:54Z</time>
      </trkpt>
      <trkpt lat="49.34902" lon="1.03868">
        <ele>119.8</ele>
        <time>2019-11-11T07:55:55Z</time>
      </trkpt>
      <trkpt lat="49.34903" lon="1.03863">
        <ele>119.8</ele>
        <time>2019-11-11T07:55:56Z</time>
      </trkpt>
      <trkpt lat="49.34904" lon="1.03858">
        <ele>120.7</ele>
        <time>2019-11-11T07:55:57Z</time>
      </trkpt>
      <trkpt lat="49.34905" lon="1.03853">
        <ele>120.7</ele>
        <time>2019-11-11T07:55:58Z</time>
      </trkpt>
      <trkpt lat="49.34905" lon="1.03848">
        <ele>120.7</ele>
        <time>2019-11-11T07:55:59Z</time>
      </trkpt>
      <trkpt lat="49.34906" lon="1.03842">
        <ele>120.7</ele>
        <time>2019-11-11T07:56:00Z</time>
      </trkpt>
      <trkpt lat="49.34907" lon="1.03837">
        <ele>120.7</ele>
        <time>2019-11-11T07:56:01Z</time>
      </trkpt>
      <trkpt lat="49.34907" lon="1.03832">
        <ele>120.7</ele>
        <time>2019-11-11T07:56:02Z</time>
      </trkpt>
      <trkpt lat="49.34908" lon="1.03827">
        <ele>120.7</ele>
        <time>2019-11-11T07:56:03Z</time>
      </trkpt>
      <trkpt lat="49.34909" lon="1.03821">
        <ele>120.7</ele>
        <time>2019-11-11T07:56:04Z</time>
      </trkpt>
      <trkpt lat="49.34909" lon="1.03816">
        <ele>120.7</ele>
        <time>2019-11-11T07:56:05Z</time>
      </trkpt>
      <trkpt lat="49.34909" lon="1.0381">
        <ele>120.7</ele>
        <time>2019-11-11T07:56:06Z</time>
      </trkpt>
      <trkpt lat="49.34909" lon="1.03805">
        <ele>120.7</ele>
        <time>2019-11-11T07:56:07Z</time>
      </trkpt>
      <trkpt lat="49.3491" lon="1.03799">
        <ele>120.7</ele>
        <time>2019-11-11T07:56:08Z</time>
      </trkpt>
      <trkpt lat="49.3491" lon="1.03794">
        <ele>121.8</ele>
        <time>2019-11-11T07:56:09Z</time>
      </trkpt>
      <trkpt lat="49.3491" lon="1.03789">
        <ele>121.8</ele>
        <time>2019-11-11T07:56:10Z</time>
      </trkpt>
      <trkpt lat="49.3491" lon="1.03784">
        <ele>121.8</ele>
        <time>2019-11-11T07:56:11Z</time>
      </trkpt>
      <trkpt lat="49.3491" lon="1.03778">
        <ele>121.8</ele>
        <time>2019-11-11T07:56:12Z</time>
      </trkpt>
      <trkpt lat="49.34911" lon="1.03773">
        <ele>122.7</ele>
        <time>2019-11-11T07:56:13Z</time>
      </trkpt>
      <trkpt lat="49.34911" lon="1.03768">
        <ele>122.7</ele>
        <time>2019-11-11T07:56:14Z</time>
      </trkpt>
      <trkpt lat="49.34911" lon="1.03762">
        <ele>122.7</ele>
        <time>2019-11-11T07:56:15Z</time>
      </trkpt>
      <trkpt lat="49.34911" lon="1.03757">
        <ele>122.7</ele>
        <time>2019-11-11T07:56:16Z</time>
      </trkpt>
      <trkpt lat="49.34912" lon="1.03752">
        <ele>122.7</ele>
        <time>2019-11-11T07:56:17Z</time>
      </trkpt>
      <trkpt lat="49.34912" lon="1.03746">
        <ele>122.7</ele>
        <time>2019-11-11T07:56:18Z</time>
      </trkpt>
      <trkpt lat="49.34913" lon="1.03741">
        <ele>122.7</ele>
        <time>2019-11-11T07:56:19Z</time>
      </trkpt>
      <trkpt lat="49.34914" lon="1.03735">
        <ele>122.7</ele>
        <time>2019-11-11T07:56:20Z</time>
      </trkpt>
      <trkpt lat="49.34915" lon="1.0373">
        <ele>122.7</ele>
        <time>2019-11-11T07:56:21Z</time>
      </trkpt>
      <trkpt lat="49.34917" lon="1.03725">
        <ele>122.7</ele>
        <time>2019-11-11T07:56:22Z</time>
      </trkpt>
      <trkpt lat="49.34918" lon="1.0372">
        <ele>123.8</ele>
        <time>2019-11-11T07:56:23Z</time>
      </trkpt>
      <trkpt lat="49.34918" lon="1.03714">
        <ele>123.8</ele>
        <time>2019-11-11T07:56:24Z</time>
      </trkpt>
      <trkpt lat="49.34919" lon="1.03708">
        <ele>123.8</ele>
        <time>2019-11-11T07:56:25Z</time>
      </trkpt>
      <trkpt lat="49.34919" lon="1.03702">
        <ele>123.8</ele>
        <time>2019-11-11T07:56:26Z</time>
      </trkpt>
      <trkpt lat="49.34919" lon="1.03697">
        <ele>123.8</ele>
        <time>2019-11-11T07:56:27Z</time>
      </trkpt>
      <trkpt lat="49.34919" lon="1.03691">
        <ele>123.8</ele>
        <time>2019-11-11T07:56:28Z</time>
      </trkpt>
      <trkpt lat="49.3492" lon="1.03685">
        <ele>123.8</ele>
        <time>2019-11-11T07:56:29Z</time>
      </trkpt>
      <trkpt lat="49.3492" lon="1.0368">
        <ele>123.8</ele>
        <time>2019-11-11T07:56:30Z</time>
      </trkpt>
      <trkpt lat="49.3492" lon="1.03674">
        <ele>124.8</ele>
        <time>2019-11-11T07:56:31Z</time>
      </trkpt>
      <trkpt lat="49.3492" lon="1.03668">
        <ele>124.8</ele>
        <time>2019-11-11T07:56:32Z</time>
      </trkpt>
      <trkpt lat="49.3492" lon="1.03662">
        <ele>124.8</ele>
        <time>2019-11-11T07:56:33Z</time>
      </trkpt>
      <trkpt lat="49.3492" lon="1.03656">
        <ele>124.8</ele>
        <time>2019-11-11T07:56:34Z</time>
      </trkpt>
      <trkpt lat="49.3492" lon="1.0365">
        <ele>124.8</ele>
        <time>2019-11-11T07:56:35Z</time>
      </trkpt>
      <trkpt lat="49.3492" lon="1.03644">
        <ele>124.8</ele>
        <time>2019-11-11T07:56:36Z</time>
      </trkpt>
      <trkpt lat="49.34921" lon="1.03638">
        <ele>124.8</ele>
        <time>2019-11-11T07:56:37Z</time>
      </trkpt>
      <trkpt lat="49.34921" lon="1.03632">
        <ele>124.8</ele>
        <time>2019-11-11T07:56:38Z</time>
      </trkpt>
      <trkpt lat="49.34921" lon="1.03626">
        <ele>125.7</ele>
        <time>2019-11-11T07:56:39Z</time>
      </trkpt>
      <trkpt lat="49.34921" lon="1.03621">
        <ele>125.7</ele>
        <time>2019-11-11T07:56:40Z</time>
      </trkpt>
      <trkpt lat="49.34921" lon="1.03615">
        <ele>125.7</ele>
        <time>2019-11-11T07:56:41Z</time>
      </trkpt>
      <trkpt lat="49.34921" lon="1.03609">
        <ele>125.7</ele>
        <time>2019-11-11T07:56:42Z</time>
      </trkpt>
      <trkpt lat="49.34922" lon="1.03603">
        <ele>125.7</ele>
        <time>2019-11-11T07:56:43Z</time>
      </trkpt>
      <trkpt lat="49.34922" lon="1.03597">
        <ele>125.7</ele>
        <time>2019-11-11T07:56:44Z</time>
      </trkpt>
      <trkpt lat="49.34922" lon="1.03591">
        <ele>125.7</ele>
        <time>2019-11-11T07:56:45Z</time>
      </trkpt>
      <trkpt lat="49.34922" lon="1.03586">
        <ele>125.7</ele>
        <time>2019-11-11T07:56:46Z</time>
      </trkpt>
      <trkpt lat="49.34923" lon="1.0358">
        <ele>125.7</ele>
        <time>2019-11-11T07:56:47Z</time>
      </trkpt>
      <trkpt lat="49.34923" lon="1.03574">
        <ele>125.7</ele>
        <time>2019-11-11T07:56:48Z</time>
      </trkpt>
      <trkpt lat="49.34923" lon="1.03568">
        <ele>126.8</ele>
        <time>2019-11-11T07:56:49Z</time>
      </trkpt>
      <trkpt lat="49.34923" lon="1.03562">
        <ele>126.8</ele>
        <time>2019-11-11T07:56:50Z</time>
      </trkpt>
      <trkpt lat="49.34924" lon="1.03556">
        <ele>126.8</ele>
        <time>2019-11-11T07:56:51Z</time>
      </trkpt>
      <trkpt lat="49.34924" lon="1.03549">
        <ele>126.8</ele>
        <time>2019-11-11T07:56:52Z</time>
      </trkpt>
      <trkpt lat="49.34924" lon="1.03543">
        <ele>126.8</ele>
        <time>2019-11-11T07:56:53Z</time>
      </trkpt>
      <trkpt lat="49.34924" lon="1.03537">
        <ele>126.8</ele>
        <time>2019-11-11T07:56:54Z</time>
      </trkpt>
      <trkpt lat="49.34925" lon="1.0353">
        <ele>126.8</ele>
        <time>2019-11-11T07:56:55Z</time>
      </trkpt>
      <trkpt lat="49.34925" lon="1.03524">
        <ele>126.8</ele>
        <time>2019-11-11T07:56:56Z</time>
      </trkpt>
      <trkpt lat="49.34925" lon="1.03517">
        <ele>126.8</ele>
        <time>2019-11-11T07:56:57Z</time>
      </trkpt>
      <trkpt lat="49.34925" lon="1.03511">
        <ele>126.8</ele>
        <time>2019-11-11T07:56:58Z</time>
      </trkpt>
      <trkpt lat="49.34926" lon="1.03504">
        <ele>127.7</ele>
        <time>2019-11-11T07:56:59Z</time>
      </trkpt>
      <trkpt lat="49.34926" lon="1.03497">
        <ele>127.7</ele>
        <time>2019-11-11T07:57:00Z</time>
      </trkpt>
      <trkpt lat="49.34926" lon="1.03491">
        <ele>127.7</ele>
        <time>2019-11-11T07:57:01Z</time>
      </trkpt>
      <trkpt lat="49.34926" lon="1.03484">
        <ele>127.7</ele>
        <time>2019-11-11T07:57:02Z</time>
      </trkpt>
      <trkpt lat="49.34927" lon="1.03478">
        <ele>127.7</ele>
        <time>2019-11-11T07:57:03Z</time>
      </trkpt>
      <trkpt lat="49.34927" lon="1.03471">
        <ele>127.7</ele>
        <time>2019-11-11T07:57:04Z</time>
      </trkpt>
      <trkpt lat="49.34927" lon="1.03464">
        <ele>127.7</ele>
        <time>2019-11-11T07:57:05Z</time>
      </trkpt>
      <trkpt lat="49.34928" lon="1.03458">
        <ele>127.7</ele>
        <time>2019-11-11T07:57:06Z</time>
      </trkpt>
      <trkpt lat="49.34928" lon="1.03451">
        <ele>127.7</ele>
        <time>2019-11-11T07:57:07Z</time>
      </trkpt>
      <trkpt lat="49.34929" lon="1.03443">
        <ele>127.7</ele>
        <time>2019-11-11T07:57:08Z</time>
      </trkpt>
      <trkpt lat="49.34929" lon="1.03436">
        <ele>127.7</ele>
        <time>2019-11-11T07:57:09Z</time>
      </trkpt>
      <trkpt lat="49.3493" lon="1.03429">
        <ele>127.7</ele>
        <time>2019-11-11T07:57:10Z</time>
      </trkpt>
      <trkpt lat="49.3493" lon="1.03421">
        <ele>127.7</ele>
        <time>2019-11-11T07:57:11Z</time>
      </trkpt>
      <trkpt lat="49.34931" lon="1.03414">
        <ele>127.7</ele>
        <time>2019-11-11T07:57:12Z</time>
      </trkpt>
      <trkpt lat="49.34931" lon="1.03406">
        <ele>127.7</ele>
        <time>2019-11-11T07:57:13Z</time>
      </trkpt>
      <trkpt lat="49.34932" lon="1.03398">
        <ele>127.7</ele>
        <time>2019-11-11T07:57:14Z</time>
      </trkpt>
      <trkpt lat="49.34933" lon="1.0339">
        <ele>126.8</ele>
        <time>2019-11-11T07:57:15Z</time>
      </trkpt>
      <trkpt lat="49.34933" lon="1.03383">
        <ele>126.8</ele>
        <time>2019-11-11T07:57:16Z</time>
      </trkpt>
      <trkpt lat="49.34934" lon="1.03375">
        <ele>126.8</ele>
        <time>2019-11-11T07:57:17Z</time>
      </trkpt>
      <trkpt lat="49.34935" lon="1.03367">
        <ele>126.8</ele>
        <time>2019-11-11T07:57:18Z</time>
      </trkpt>
      <trkpt lat="49.34936" lon="1.03359">
        <ele>126.8</ele>
        <time>2019-11-11T07:57:19Z</time>
      </trkpt>
      <trkpt lat="49.34937" lon="1.03351">
        <ele>126.8</ele>
        <time>2019-11-11T07:57:20Z</time>
      </trkpt>
      <trkpt lat="49.34938" lon="1.03343">
        <ele>126.8</ele>
        <time>2019-11-11T07:57:21Z</time>
      </trkpt>
      <trkpt lat="49.34939" lon="1.03335">
        <ele>126.8</ele>
        <time>2019-11-11T07:57:22Z</time>
      </trkpt>
      <trkpt lat="49.3494" lon="1.03327">
        <ele>126.8</ele>
        <time>2019-11-11T07:57:23Z</time>
      </trkpt>
      <trkpt lat="49.34941" lon="1.03319">
        <ele>126.8</ele>
        <time>2019-11-11T07:57:24Z</time>
      </trkpt>
      <trkpt lat="49.34943" lon="1.03311">
        <ele>126.8</ele>
        <time>2019-11-11T07:57:25Z</time>
      </trkpt>
      <trkpt lat="49.34944" lon="1.03303">
        <ele>126.8</ele>
        <time>2019-11-11T07:57:26Z</time>
      </trkpt>
      <trkpt lat="49.34946" lon="1.03296">
        <ele>126.8</ele>
        <time>2019-11-11T07:57:27Z</time>
      </trkpt>
      <trkpt lat="49.34947" lon="1.03288">
        <ele>126.8</ele>
        <time>2019-11-11T07:57:28Z</time>
      </trkpt>
      <trkpt lat="49.34949" lon="1.0328">
        <ele>125.7</ele>
        <time>2019-11-11T07:57:29Z</time>
      </trkpt>
      <trkpt lat="49.3495" lon="1.03272">
        <ele>125.7</ele>
        <time>2019-11-11T07:57:30Z</time>
      </trkpt>
      <trkpt lat="49.34952" lon="1.03264">
        <ele>125.7</ele>
        <time>2019-11-11T07:57:31Z</time>
      </trkpt>
      <trkpt lat="49.34954" lon="1.03256">
        <ele>125.7</ele>
        <time>2019-11-11T07:57:32Z</time>
      </trkpt>
      <trkpt lat="49.34956" lon="1.03248">
        <ele>124.8</ele>
        <time>2019-11-11T07:57:33Z</time>
      </trkpt>
      <trkpt lat="49.34958" lon="1.03239">
        <ele>124.8</ele>
        <time>2019-11-11T07:57:34Z</time>
      </trkpt>
      <trkpt lat="49.3496" lon="1.03231">
        <ele>124.8</ele>
        <time>2019-11-11T07:57:35Z</time>
      </trkpt>
      <trkpt lat="49.34962" lon="1.03223">
        <ele>124.8</ele>
        <time>2019-11-11T07:57:36Z</time>
      </trkpt>
      <trkpt lat="49.34964" lon="1.03214">
        <ele>123.8</ele>
        <time>2019-11-11T07:57:37Z</time>
      </trkpt>
      <trkpt lat="49.34967" lon="1.03206">
        <ele>123.8</ele>
        <time>2019-11-11T07:57:38Z</time>
      </trkpt>
      <trkpt lat="49.34969" lon="1.03198">
        <ele>123.8</ele>
        <time>2019-11-11T07:57:39Z</time>
      </trkpt>
      <trkpt lat="49.34972" lon="1.03189">
        <ele>123.8</ele>
        <time>2019-11-11T07:57:40Z</time>
      </trkpt>
      <trkpt lat="49.34974" lon="1.03181">
        <ele>123.8</ele>
        <time>2019-11-11T07:57:41Z</time>
      </trkpt>
      <trkpt lat="49.34977" lon="1.03173">
        <ele>123.8</ele>
        <time>2019-11-11T07:57:42Z</time>
      </trkpt>
      <trkpt lat="49.3498" lon="1.03165">
        <ele>123.8</ele>
        <time>2019-11-11T07:57:43Z</time>
      </trkpt>
      <trkpt lat="49.34982" lon="1.03157">
        <ele>123.8</ele>
        <time>2019-11-11T07:57:44Z</time>
      </trkpt>
      <trkpt lat="49.34984" lon="1.03149">
        <ele>122.7</ele>
        <time>2019-11-11T07:57:45Z</time>
      </trkpt>
      <trkpt lat="49.34986" lon="1.03141">
        <ele>122.7</ele>
        <time>2019-11-11T07:57:46Z</time>
      </trkpt>
      <trkpt lat="49.34988" lon="1.03133">
        <ele>122.7</ele>
        <time>2019-11-11T07:57:47Z</time>
      </trkpt>
      <trkpt lat="49.34989" lon="1.03125">
        <ele>122.7</ele>
        <time>2019-11-11T07:57:48Z</time>
      </trkpt>
      <trkpt lat="49.34991" lon="1.03117">
        <ele>122.7</ele>
        <time>2019-11-11T07:57:49Z</time>
      </trkpt>
      <trkpt lat="49.34993" lon="1.0311">
        <ele>122.7</ele>
        <time>2019-11-11T07:57:50Z</time>
      </trkpt>
      <trkpt lat="49.34995" lon="1.03102">
        <ele>122.7</ele>
        <time>2019-11-11T07:57:51Z</time>
      </trkpt>
      <trkpt lat="49.34997" lon="1.03095">
        <ele>122.7</ele>
        <time>2019-11-11T07:57:52Z</time>
      </trkpt>
      <trkpt lat="49.35" lon="1.03088">
        <ele>122.7</ele>
        <time>2019-11-11T07:57:53Z</time>
      </trkpt>
      <trkpt lat="49.35002" lon="1.0308">
        <ele>122.7</ele>
        <time>2019-11-11T07:57:54Z</time>
      </trkpt>
      <trkpt lat="49.35004" lon="1.03073">
        <ele>122.7</ele>
        <time>2019-11-11T07:57:55Z</time>
      </trkpt>
      <trkpt lat="49.35007" lon="1.03066">
        <ele>122.7</ele>
        <time>2019-11-11T07:57:56Z</time>
      </trkpt>
      <trkpt lat="49.35009" lon="1.03059">
        <ele>122.7</ele>
        <time>2019-11-11T07:57:57Z</time>
      </trkpt>
      <trkpt lat="49.35011" lon="1.03052">
        <ele>122.7</ele>
        <time>2019-11-11T07:57:58Z</time>
      </trkpt>
      <trkpt lat="49.35013" lon="1.03045">
        <ele>122.7</ele>
        <time>2019-11-11T07:57:59Z</time>
      </trkpt>
      <trkpt lat="49.35016" lon="1.03038">
        <ele>122.7</ele>
        <time>2019-11-11T07:58:00Z</time>
      </trkpt>
      <trkpt lat="49.35018" lon="1.03032">
        <ele>122.7</ele>
        <time>2019-11-11T07:58:01Z</time>
      </trkpt>
      <trkpt lat="49.35021" lon="1.03026">
        <ele>122.7</ele>
        <time>2019-11-11T07:58:02Z</time>
      </trkpt>
      <trkpt lat="49.35023" lon="1.03019">
        <ele>122.7</ele>
        <time>2019-11-11T07:58:03Z</time>
      </trkpt>
      <trkpt lat="49.35026" lon="1.03013">
        <ele>122.7</ele>
        <time>2019-11-11T07:58:04Z</time>
      </trkpt>
      <trkpt lat="49.35029" lon="1.03007">
        <ele>121.8</ele>
        <time>2019-11-11T07:58:05Z</time>
      </trkpt>
      <trkpt lat="49.35031" lon="1.03001">
        <ele>121.8</ele>
        <time>2019-11-11T07:58:06Z</time>
      </trkpt>
      <trkpt lat="49.35034" lon="1.02995">
        <ele>121.8</ele>
        <time>2019-11-11T07:58:07Z</time>
      </trkpt>
      <trkpt lat="49.35037" lon="1.02989">
        <ele>121.8</ele>
        <time>2019-11-11T07:58:08Z</time>
      </trkpt>
      <trkpt lat="49.3504" lon="1.02984">
        <ele>121.8</ele>
        <time>2019-11-11T07:58:09Z</time>
      </trkpt>
      <trkpt lat="49.35043" lon="1.02978">
        <ele>121.8</ele>
        <time>2019-11-11T07:58:10Z</time>
      </trkpt>
      <trkpt lat="49.35046" lon="1.02973">
        <ele>121.8</ele>
        <time>2019-11-11T07:58:11Z</time>
      </trkpt>
      <trkpt lat="49.3505" lon="1.02969">
        <ele>121.8</ele>
        <time>2019-11-11T07:58:12Z</time>
      </trkpt>
      <trkpt lat="49.35051" lon="1.02964">
        <ele>121.8</ele>
        <time>2019-11-11T07:58:13Z</time>
      </trkpt>
      <trkpt lat="49.35052" lon="1.02958">
        <ele>121.8</ele>
        <time>2019-11-11T07:58:14Z</time>
      </trkpt>
      <trkpt lat="49.35051" lon="1.02953">
        <ele>120.7</ele>
        <time>2019-11-11T07:58:15Z</time>
      </trkpt>
      <trkpt lat="49.35049" lon="1.02949">
        <ele>120.7</ele>
        <time>2019-11-11T07:58:16Z</time>
      </trkpt>
      <trkpt lat="49.35047" lon="1.02945">
        <ele>120.7</ele>
        <time>2019-11-11T07:58:17Z</time>
      </trkpt>
      <trkpt lat="49.35044" lon="1.02942">
        <ele>120.7</ele>
        <time>2019-11-11T07:58:18Z</time>
      </trkpt>
      <trkpt lat="49.35042" lon="1.02939">
        <ele>120.7</ele>
        <time>2019-11-11T07:58:19Z</time>
      </trkpt>
      <trkpt lat="49.35039" lon="1.02937">
        <ele>120.7</ele>
        <time>2019-11-11T07:58:20Z</time>
      </trkpt>
      <trkpt lat="49.35036" lon="1.02936">
        <ele>120.7</ele>
        <time>2019-11-11T07:58:21Z</time>
      </trkpt>
      <trkpt lat="49.35032" lon="1.02936">
        <ele>120.7</ele>
        <time>2019-11-11T07:58:22Z</time>
      </trkpt>
      <trkpt lat="49.35029" lon="1.02936">
        <ele>120.7</ele>
        <time>2019-11-11T07:58:23Z</time>
      </trkpt>
      <trkpt lat="49.35025" lon="1.02936">
        <ele>120.7</ele>
        <time>2019-11-11T07:58:24Z</time>
      </trkpt>
      <trkpt lat="49.35022" lon="1.02936">
        <ele>120.7</ele>
        <time>2019-11-11T07:58:25Z</time>
      </trkpt>
      <trkpt lat="49.35018" lon="1.02936">
        <ele>120.7</ele>
        <time>2019-11-11T07:58:26Z</time>
      </trkpt>
      <trkpt lat="49.35015" lon="1.02935">
        <ele>120.7</ele>
        <time>2019-11-11T07:58:27Z</time>
      </trkpt>
      <trkpt lat="49.35012" lon="1.02934">
        <ele>120.7</ele>
        <time>2019-11-11T07:58:28Z</time>
      </trkpt>
      <trkpt lat="49.35009" lon="1.02933">
        <ele>120.7</ele>
        <time>2019-11-11T07:58:29Z</time>
      </trkpt>
      <trkpt lat="49.35006" lon="1.02931">
        <ele>120.7</ele>
        <time>2019-11-11T07:58:30Z</time>
      </trkpt>
      <trkpt lat="49.35003" lon="1.02929">
        <ele>120.7</ele>
        <time>2019-11-11T07:58:31Z</time>
      </trkpt>
      <trkpt lat="49.35" lon="1.02927">
        <ele>120.7</ele>
        <time>2019-11-11T07:58:32Z</time>
      </trkpt>
      <trkpt lat="49.34996" lon="1.02926">
        <ele>120.7</ele>
        <time>2019-11-11T07:58:33Z</time>
      </trkpt>
      <trkpt lat="49.34993" lon="1.02925">
        <ele>120.7</ele>
        <time>2019-11-11T07:58:34Z</time>
      </trkpt>
      <trkpt lat="49.34989" lon="1.02924">
        <ele>120.7</ele>
        <time>2019-11-11T07:58:35Z</time>
      </trkpt>
      <trkpt lat="49.34986" lon="1.02923">
        <ele>120.7</ele>
        <time>2019-11-11T07:58:36Z</time>
      </trkpt>
      <trkpt lat="49.34983" lon="1.02921">
        <ele>121.8</ele>
        <time>2019-11-11T07:58:37Z</time>
      </trkpt>
      <trkpt lat="49.3498" lon="1.02919">
        <ele>121.8</ele>
        <time>2019-11-11T07:58:38Z</time>
      </trkpt>
      <trkpt lat="49.34977" lon="1.02917">
        <ele>121.8</ele>
        <time>2019-11-11T07:58:39Z</time>
      </trkpt>
      <trkpt lat="49.34974" lon="1.02915">
        <ele>121.8</ele>
        <time>2019-11-11T07:58:40Z</time>
      </trkpt>
      <trkpt lat="49.34971" lon="1.02913">
        <ele>121.8</ele>
        <time>2019-11-11T07:58:41Z</time>
      </trkpt>
      <trkpt lat="49.34968" lon="1.02911">
        <ele>121.8</ele>
        <time>2019-11-11T07:58:42Z</time>
      </trkpt>
      <trkpt lat="49.34965" lon="1.0291">
        <ele>121.8</ele>
        <time>2019-11-11T07:58:43Z</time>
      </trkpt>
      <trkpt lat="49.34961" lon="1.02908">
        <ele>121.8</ele>
        <time>2019-11-11T07:58:44Z</time>
      </trkpt>
      <trkpt lat="49.34958" lon="1.02906">
        <ele>121.8</ele>
        <time>2019-11-11T07:58:45Z</time>
      </trkpt>
      <trkpt lat="49.34955" lon="1.02904">
        <ele>121.8</ele>
        <time>2019-11-11T07:58:46Z</time>
      </trkpt>
      <trkpt lat="49.34951" lon="1.02901">
        <ele>121.8</ele>
        <time>2019-11-11T07:58:47Z</time>
      </trkpt>
      <trkpt lat="49.34948" lon="1.02899">
        <ele>121.8</ele>
        <time>2019-11-11T07:58:48Z</time>
      </trkpt>
      <trkpt lat="49.34945" lon="1.02896">
        <ele>121.8</ele>
        <time>2019-11-11T07:58:49Z</time>
      </trkpt>
      <trkpt lat="49.34942" lon="1.02894">
        <ele>121.8</ele>
        <time>2019-11-11T07:58:50Z</time>
      </trkpt>
      <trkpt lat="49.34938" lon="1.02893">
        <ele>122.7</ele>
        <time>2019-11-11T07:58:51Z</time>
      </trkpt>
      <trkpt lat="49.34935" lon="1.02891">
        <ele>122.7</ele>
        <time>2019-11-11T07:58:52Z</time>
      </trkpt>
      <trkpt lat="49.34931" lon="1.02889">
        <ele>122.7</ele>
        <time>2019-11-11T07:58:53Z</time>
      </trkpt>
      <trkpt lat="49.34928" lon="1.02888">
        <ele>122.7</ele>
        <time>2019-11-11T07:58:54Z</time>
      </trkpt>
      <trkpt lat="49.34924" lon="1.02886">
        <ele>122.7</ele>
        <time>2019-11-11T07:58:55Z</time>
      </trkpt>
      <trkpt lat="49.3492" lon="1.02883">
        <ele>122.7</ele>
        <time>2019-11-11T07:58:56Z</time>
      </trkpt>
      <trkpt lat="49.34917" lon="1.02881">
        <ele>122.7</ele>
        <time>2019-11-11T07:58:57Z</time>
      </trkpt>
      <trkpt lat="49.34913" lon="1.02879">
        <ele>122.7</ele>
        <time>2019-11-11T07:58:58Z</time>
      </trkpt>
      <trkpt lat="49.34909" lon="1.02877">
        <ele>122.7</ele>
        <time>2019-11-11T07:58:59Z</time>
      </trkpt>
      <trkpt lat="49.34906" lon="1.02874">
        <ele>122.7</ele>
        <time>2019-11-11T07:59:00Z</time>
      </trkpt>
      <trkpt lat="49.34902" lon="1.02872">
        <ele>122.7</ele>
        <time>2019-11-11T07:59:01Z</time>
      </trkpt>
      <trkpt lat="49.34899" lon="1.02869">
        <ele>122.7</ele>
        <time>2019-11-11T07:59:02Z</time>
      </trkpt>
      <trkpt lat="49.34896" lon="1.02866">
        <ele>122.7</ele>
        <time>2019-11-11T07:59:03Z</time>
      </trkpt>
      <trkpt lat="49.34892" lon="1.02864">
        <ele>122.7</ele>
        <time>2019-11-11T07:59:04Z</time>
      </trkpt>
      <trkpt lat="49.34889" lon="1.02861">
        <ele>122.7</ele>
        <time>2019-11-11T07:59:05Z</time>
      </trkpt>
      <trkpt lat="49.34886" lon="1.02859">
        <ele>122.7</ele>
        <time>2019-11-11T07:59:06Z</time>
      </trkpt>
      <trkpt lat="49.34882" lon="1.02858">
        <ele>122.7</ele>
        <time>2019-11-11T07:59:07Z</time>
      </trkpt>
      <trkpt lat="49.34879" lon="1.02856">
        <ele>122.7</ele>
        <time>2019-11-11T07:59:08Z</time>
      </trkpt>
      <trkpt lat="49.34875" lon="1.02854">
        <ele>122.7</ele>
        <time>2019-11-11T07:59:09Z</time>
      </trkpt>
      <trkpt lat="49.34872" lon="1.02852">
        <ele>122.7</ele>
        <time>2019-11-11T07:59:10Z</time>
      </trkpt>
      <trkpt lat="49.34868" lon="1.0285">
        <ele>122.7</ele>
        <time>2019-11-11T07:59:11Z</time>
      </trkpt>
      <trkpt lat="49.34865" lon="1.02849">
        <ele>122.7</ele>
        <time>2019-11-11T07:59:12Z</time>
      </trkpt>
      <trkpt lat="49.34861" lon="1.02847">
        <ele>122.7</ele>
        <time>2019-11-11T07:59:13Z</time>
      </trkpt>
      <trkpt lat="49.34858" lon="1.02845">
        <ele>122.7</ele>
        <time>2019-11-11T07:59:14Z</time>
      </trkpt>
      <trkpt lat="49.34855" lon="1.02843">
        <ele>122.7</ele>
        <time>2019-11-11T07:59:15Z</time>
      </trkpt>
      <trkpt lat="49.34851" lon="1.02841">
        <ele>122.7</ele>
        <time>2019-11-11T07:59:16Z</time>
      </trkpt>
      <trkpt lat="49.34848" lon="1.02839">
        <ele>122.7</ele>
        <time>2019-11-11T07:59:17Z</time>
      </trkpt>
      <trkpt lat="49.34845" lon="1.02837">
        <ele>122.7</ele>
        <time>2019-11-11T07:59:18Z</time>
      </trkpt>
      <trkpt lat="49.34841" lon="1.02835">
        <ele>122.7</ele>
        <time>2019-11-11T07:59:19Z</time>
      </trkpt>
      <trkpt lat="49.34838" lon="1.02834">
        <ele>122.7</ele>
        <time>2019-11-11T07:59:20Z</time>
      </trkpt>
      <trkpt lat="49.34834" lon="1.02832">
        <ele>122.7</ele>
        <time>2019-11-11T07:59:21Z</time>
      </trkpt>
      <trkpt lat="49.34831" lon="1.0283">
        <ele>122.7</ele>
        <time>2019-11-11T07:59:22Z</time>
      </trkpt>
      <trkpt lat="49.34828" lon="1.02828">
        <ele>122.7</ele>
        <time>2019-11-11T07:59:23Z</time>
      </trkpt>
      <trkpt lat="49.34825" lon="1.02825">
        <ele>122.7</ele>
        <time>2019-11-11T07:59:24Z</time>
      </trkpt>
      <trkpt lat="49.34822" lon="1.02822">
        <ele>122.7</ele>
        <time>2019-11-11T07:59:25Z</time>
      </trkpt>
      <trkpt lat="49.34819" lon="1.02819">
        <ele>122.7</ele>
        <time>2019-11-11T07:59:26Z</time>
      </trkpt>
      <trkpt lat="49.34816" lon="1.02816">
        <ele>122.7</ele>
        <time>2019-11-11T07:59:27Z</time>
      </trkpt>
      <trkpt lat="49.34813" lon="1.02813">
        <ele>122.7</ele>
        <time>2019-11-11T07:59:28Z</time>
      </trkpt>
      <trkpt lat="49.34809" lon="1.0281">
        <ele>122.7</ele>
        <time>2019-11-11T07:59:29Z</time>
      </trkpt>
      <trkpt lat="49.34806" lon="1.02807">
        <ele>122.7</ele>
        <time>2019-11-11T07:59:30Z</time>
      </trkpt>
      <trkpt lat="49.34803" lon="1.02804">
        <ele>122.7</ele>
        <time>2019-11-11T07:59:31Z</time>
      </trkpt>
      <trkpt lat="49.348" lon="1.02801">
        <ele>122.7</ele>
        <time>2019-11-11T07:59:32Z</time>
      </trkpt>
      <trkpt lat="49.34797" lon="1.02798">
        <ele>122.7</ele>
        <time>2019-11-11T07:59:33Z</time>
      </trkpt>
      <trkpt lat="49.34794" lon="1.02795">
        <ele>122.7</ele>
        <time>2019-11-11T07:59:34Z</time>
      </trkpt>
      <trkpt lat="49.34791" lon="1.02793">
        <ele>122.7</ele>
        <time>2019-11-11T07:59:35Z</time>
      </trkpt>
      <trkpt lat="49.34788" lon="1.0279">
        <ele>122.7</ele>
        <time>2019-11-11T07:59:36Z</time>
      </trkpt>
      <trkpt lat="49.34784" lon="1.02788">
        <ele>123.8</ele>
        <time>2019-11-11T07:59:37Z</time>
      </trkpt>
      <trkpt lat="49.34781" lon="1.02787">
        <ele>123.8</ele>
        <time>2019-11-11T07:59:38Z</time>
      </trkpt>
      <trkpt lat="49.34777" lon="1.02785">
        <ele>123.8</ele>
        <time>2019-11-11T07:59:39Z</time>
      </trkpt>
      <trkpt lat="49.34774" lon="1.02783">
        <ele>123.8</ele>
        <time>2019-11-11T07:59:40Z</time>
      </trkpt>
      <trkpt lat="49.34771" lon="1.02781">
        <ele>123.8</ele>
        <time>2019-11-11T07:59:41Z</time>
      </trkpt>
      <trkpt lat="49.34767" lon="1.02778">
        <ele>123.8</ele>
        <time>2019-11-11T07:59:42Z</time>
      </trkpt>
      <trkpt lat="49.34764" lon="1.02775">
        <ele>123.8</ele>
        <time>2019-11-11T07:59:43Z</time>
      </trkpt>
      <trkpt lat="49.34761" lon="1.02772">
        <ele>123.8</ele>
        <time>2019-11-11T07:59:44Z</time>
      </trkpt>
      <trkpt lat="49.34758" lon="1.02769">
        <ele>123.8</ele>
        <time>2019-11-11T07:59:45Z</time>
      </trkpt>
      <trkpt lat="49.34755" lon="1.02766">
        <ele>123.8</ele>
        <time>2019-11-11T07:59:46Z</time>
      </trkpt>
      <trkpt lat="49.34752" lon="1.02764">
        <ele>123.8</ele>
        <time>2019-11-11T07:59:47Z</time>
      </trkpt>
      <trkpt lat="49.34748" lon="1.02762">
        <ele>123.8</ele>
        <time>2019-11-11T07:59:48Z</time>
      </trkpt>
      <trkpt lat="49.34745" lon="1.02759">
        <ele>123.8</ele>
        <time>2019-11-11T07:59:49Z</time>
      </trkpt>
      <trkpt lat="49.34741" lon="1.02757">
        <ele>123.8</ele>
        <time>2019-11-11T07:59:50Z</time>
      </trkpt>
      <trkpt lat="49.34738" lon="1.02755">
        <ele>123.8</ele>
        <time>2019-11-11T07:59:51Z</time>
      </trkpt>
      <trkpt lat="49.34734" lon="1.02753">
        <ele>123.8</ele>
        <time>2019-11-11T07:59:52Z</time>
      </trkpt>
      <trkpt lat="49.34731" lon="1.02751">
        <ele>124.8</ele>
        <time>2019-11-11T07:59:53Z</time>
      </trkpt>
      <trkpt lat="49.34727" lon="1.02749">
        <ele>124.8</ele>
        <time>2019-11-11T07:59:54Z</time>
      </trkpt>
      <trkpt lat="49.34724" lon="1.02747">
        <ele>124.8</ele>
        <time>2019-11-11T07:59:55Z</time>
      </trkpt>
      <trkpt lat="49.3472" lon="1.02744">
        <ele>124.8</ele>
        <time>2019-11-11T07:59:56Z</time>
      </trkpt>
      <trkpt lat="49.34717" lon="1.02742">
        <ele>124.8</ele>
        <time>2019-11-11T07:59:57Z</time>
      </trkpt>
      <trkpt lat="49.34714" lon="1.02739">
        <ele>124.8</ele>
        <time>2019-11-11T07:59:58Z</time>
      </trkpt>
      <trkpt lat="49.3471" lon="1.02737">
        <ele>124.8</ele>
        <time>2019-11-11T07:59:59Z</time>
      </trkpt>
      <trkpt lat="49.34707" lon="1.02734">
        <ele>124.8</ele>
        <time>2019-11-11T08:00:00Z</time>
      </trkpt>
      <trkpt lat="49.34704" lon="1.02732">
        <ele>124.8</ele>
        <time>2019-11-11T08:00:01Z</time>
      </trkpt>
      <trkpt lat="49.34701" lon="1.02729">
        <ele>124.8</ele>
        <time>2019-11-11T08:00:02Z</time>
      </trkpt>
      <trkpt lat="49.34698" lon="1.02727">
        <ele>124.8</ele>
        <time>2019-11-11T08:00:03Z</time>
      </trkpt>
      <trkpt lat="49.34695" lon="1.02724">
        <ele>124.8</ele>
        <time>2019-11-11T08:00:04Z</time>
      </trkpt>
      <trkpt lat="49.34692" lon="1.02721">
        <ele>124.8</ele>
        <time>2019-11-11T08:00:05Z</time>
      </trkpt>
      <trkpt lat="49.3469" lon="1.02718">
        <ele>124.8</ele>
        <time>2019-11-11T08:00:06Z</time>
      </trkpt>
      <trkpt lat="49.34688" lon="1.02715">
        <ele>124.8</ele>
        <time>2019-11-11T08:00:07Z</time>
      </trkpt>
      <trkpt lat="49.34685" lon="1.02712">
        <ele>124.8</ele>
        <time>2019-11-11T08:00:08Z</time>
      </trkpt>
      <trkpt lat="49.34682" lon="1.02709">
        <ele>124.8</ele>
        <time>2019-11-11T08:00:09Z</time>
      </trkpt>
      <trkpt lat="49.3468" lon="1.02706">
        <ele>124.8</ele>
        <time>2019-11-11T08:00:10Z</time>
      </trkpt>
      <trkpt lat="49.34677" lon="1.02704">
        <ele>124.8</ele>
        <time>2019-11-11T08:00:11Z</time>
      </trkpt>
      <trkpt lat="49.34674" lon="1.02702">
        <ele>124.8</ele>
        <time>2019-11-11T08:00:12Z</time>
      </trkpt>
      <trkpt lat="49.3467" lon="1.02701">
        <ele>124.8</ele>
        <time>2019-11-11T08:00:13Z</time>
      </trkpt>
      <trkpt lat="49.34667" lon="1.02699">
        <ele>124.8</ele>
        <time>2019-11-11T08:00:14Z</time>
      </trkpt>
      <trkpt lat="49.34664" lon="1.02697">
        <ele>124.8</ele>
        <time>2019-11-11T08:00:15Z</time>
      </trkpt>
      <trkpt lat="49.3466" lon="1.02694">
        <ele>124.8</ele>
        <time>2019-11-11T08:00:16Z</time>
      </trkpt>
      <trkpt lat="49.34658" lon="1.02691">
        <ele>125.7</ele>
        <time>2019-11-11T08:00:17Z</time>
      </trkpt>
      <trkpt lat="49.34655" lon="1.02687">
        <ele>125.7</ele>
        <time>2019-11-11T08:00:18Z</time>
      </trkpt>
      <trkpt lat="49.34652" lon="1.02683">
        <ele>125.7</ele>
        <time>2019-11-11T08:00:19Z</time>
      </trkpt>
      <trkpt lat="49.3465" lon="1.02679">
        <ele>125.7</ele>
        <time>2019-11-11T08:00:20Z</time>
      </trkpt>
      <trkpt lat="49.34647" lon="1.02676">
        <ele>125.7</ele>
        <time>2019-11-11T08:00:21Z</time>
      </trkpt>
      <trkpt lat="49.34643" lon="1.02673">
        <ele>125.7</ele>
        <time>2019-11-11T08:00:22Z</time>
      </trkpt>
      <trkpt lat="49.3464" lon="1.02671">
        <ele>125.7</ele>
        <time>2019-11-11T08:00:23Z</time>
      </trkpt>
      <trkpt lat="49.34637" lon="1.02668">
        <ele>125.7</ele>
        <time>2019-11-11T08:00:24Z</time>
      </trkpt>
      <trkpt lat="49.34633" lon="1.02665">
        <ele>125.7</ele>
        <time>2019-11-11T08:00:25Z</time>
      </trkpt>
      <trkpt lat="49.3463" lon="1.02662">
        <ele>125.7</ele>
        <time>2019-11-11T08:00:26Z</time>
      </trkpt>
      <trkpt lat="49.34626" lon="1.0266">
        <ele>125.7</ele>
        <time>2019-11-11T08:00:27Z</time>
      </trkpt>
      <trkpt lat="49.34623" lon="1.02657">
        <ele>125.7</ele>
        <time>2019-11-11T08:00:28Z</time>
      </trkpt>
      <trkpt lat="49.34619" lon="1.02654">
        <ele>125.7</ele>
        <time>2019-11-11T08:00:29Z</time>
      </trkpt>
      <trkpt lat="49.34616" lon="1.02651">
        <ele>125.7</ele>
        <time>2019-11-11T08:00:30Z</time>
      </trkpt>
      <trkpt lat="49.34613" lon="1.02648">
        <ele>125.7</ele>
        <time>2019-11-11T08:00:31Z</time>
      </trkpt>
      <trkpt lat="49.34609" lon="1.02645">
        <ele>125.7</ele>
        <time>2019-11-11T08:00:32Z</time>
      </trkpt>
      <trkpt lat="49.34605" lon="1.02642">
        <ele>125.7</ele>
        <time>2019-11-11T08:00:33Z</time>
      </trkpt>
      <trkpt lat="49.34601" lon="1.02639">
        <ele>125.7</ele>
        <time>2019-11-11T08:00:34Z</time>
      </trkpt>
      <trkpt lat="49.34597" lon="1.02636">
        <ele>125.7</ele>
        <time>2019-11-11T08:00:35Z</time>
      </trkpt>
      <trkpt lat="49.34594" lon="1.02634">
        <ele>125.7</ele>
        <time>2019-11-11T08:00:36Z</time>
      </trkpt>
      <trkpt lat="49.3459" lon="1.02632">
        <ele>125.7</ele>
        <time>2019-11-11T08:00:37Z</time>
      </trkpt>
      <trkpt lat="49.34586" lon="1.0263">
        <ele>125.7</ele>
        <time>2019-11-11T08:00:38Z</time>
      </trkpt>
      <trkpt lat="49.34582" lon="1.02628">
        <ele>125.7</ele>
        <time>2019-11-11T08:00:39Z</time>
      </trkpt>
      <trkpt lat="49.34578" lon="1.02627">
        <ele>125.7</ele>
        <time>2019-11-11T08:00:40Z</time>
      </trkpt>
      <trkpt lat="49.34575" lon="1.02625">
        <ele>125.7</ele>
        <time>2019-11-11T08:00:41Z</time>
      </trkpt>
      <trkpt lat="49.34571" lon="1.02623">
        <ele>125.7</ele>
        <time>2019-11-11T08:00:42Z</time>
      </trkpt>
      <trkpt lat="49.34567" lon="1.02621">
        <ele>125.7</ele>
        <time>2019-11-11T08:00:43Z</time>
      </trkpt>
      <trkpt lat="49.34563" lon="1.0262">
        <ele>125.7</ele>
        <time>2019-11-11T08:00:44Z</time>
      </trkpt>
      <trkpt lat="49.34559" lon="1.02619">
        <ele>125.7</ele>
        <time>2019-11-11T08:00:45Z</time>
      </trkpt>
      <trkpt lat="49.34555" lon="1.02619">
        <ele>125.7</ele>
        <time>2019-11-11T08:00:46Z</time>
      </trkpt>
      <trkpt lat="49.34551" lon="1.02618">
        <ele>125.7</ele>
        <time>2019-11-11T08:00:47Z</time>
      </trkpt>
      <trkpt lat="49.34547" lon="1.02617">
        <ele>125.7</ele>
        <time>2019-11-11T08:00:48Z</time>
      </trkpt>
      <trkpt lat="49.34543" lon="1.02616">
        <ele>125.7</ele>
        <time>2019-11-11T08:00:49Z</time>
      </trkpt>
      <trkpt lat="49.3454" lon="1.02614">
        <ele>125.7</ele>
        <time>2019-11-11T08:00:50Z</time>
      </trkpt>
      <trkpt lat="49.34536" lon="1.02612">
        <ele>125.7</ele>
        <time>2019-11-11T08:00:51Z</time>
      </trkpt>
      <trkpt lat="49.34533" lon="1.0261">
        <ele>125.7</ele>
        <time>2019-11-11T08:00:52Z</time>
      </trkpt>
      <trkpt lat="49.34529" lon="1.02608">
        <ele>125.7</ele>
        <time>2019-11-11T08:00:53Z</time>
      </trkpt>
      <trkpt lat="49.34526" lon="1.02606">
        <ele>125.7</ele>
        <time>2019-11-11T08:00:54Z</time>
      </trkpt>
      <trkpt lat="49.34523" lon="1.02604">
        <ele>125.7</ele>
        <time>2019-11-11T08:00:55Z</time>
      </trkpt>
      <trkpt lat="49.34519" lon="1.02602">
        <ele>125.7</ele>
        <time>2019-11-11T08:00:56Z</time>
      </trkpt>
      <trkpt lat="49.34516" lon="1.02601">
        <ele>125.7</ele>
        <time>2019-11-11T08:00:57Z</time>
      </trkpt>
      <trkpt lat="49.34512" lon="1.02598">
        <ele>125.7</ele>
        <time>2019-11-11T08:00:58Z</time>
      </trkpt>
      <trkpt lat="49.34509" lon="1.02596">
        <ele>125.7</ele>
        <time>2019-11-11T08:00:59Z</time>
      </trkpt>
      <trkpt lat="49.34505" lon="1.02594">
        <ele>125.7</ele>
        <time>2019-11-11T08:01:00Z</time>
      </trkpt>
      <trkpt lat="49.34501" lon="1.02592">
        <ele>125.7</ele>
        <time>2019-11-11T08:01:01Z</time>
      </trkpt>
      <trkpt lat="49.34498" lon="1.0259">
        <ele>125.7</ele>
        <time>2019-11-11T08:01:02Z</time>
      </trkpt>
      <trkpt lat="49.34495" lon="1.02588">
        <ele>125.7</ele>
        <time>2019-11-11T08:01:03Z</time>
      </trkpt>
      <trkpt lat="49.34492" lon="1.02587">
        <ele>125.7</ele>
        <time>2019-11-11T08:01:04Z</time>
      </trkpt>
      <trkpt lat="49.34489" lon="1.02585">
        <ele>125.7</ele>
        <time>2019-11-11T08:01:05Z</time>
      </trkpt>
      <trkpt lat="49.34487" lon="1.02582">
        <ele>125.7</ele>
        <time>2019-11-11T08:01:06Z</time>
      </trkpt>
      <trkpt lat="49.34484" lon="1.02579">
        <ele>125.7</ele>
        <time>2019-11-11T08:01:07Z</time>
      </trkpt>
      <trkpt lat="49.34483" lon="1.02575">
        <ele>125.7</ele>
        <time>2019-11-11T08:01:08Z</time>
      </trkpt>
      <trkpt lat="49.34482" lon="1.02572">
        <ele>125.7</ele>
        <time>2019-11-11T08:01:09Z</time>
      </trkpt>
      <trkpt lat="49.34482" lon="1.02568">
        <ele>125.7</ele>
        <time>2019-11-11T08:01:10Z</time>
      </trkpt>
      <trkpt lat="49.34481" lon="1.02564">
        <ele>125.7</ele>
        <time>2019-11-11T08:01:11Z</time>
      </trkpt>
      <trkpt lat="49.34479" lon="1.0256">
        <ele>125.7</ele>
        <time>2019-11-11T08:01:12Z</time>
      </trkpt>
      <trkpt lat="49.34478" lon="1.02556">
        <ele>125.7</ele>
        <time>2019-11-11T08:01:13Z</time>
      </trkpt>
      <trkpt lat="49.34475" lon="1.02552">
        <ele>125.7</ele>
        <time>2019-11-11T08:01:14Z</time>
      </trkpt>
      <trkpt lat="49.34472" lon="1.02549">
        <ele>125.7</ele>
        <time>2019-11-11T08:01:15Z</time>
      </trkpt>
      <trkpt lat="49.34469" lon="1.02547">
        <ele>125.7</ele>
        <time>2019-11-11T08:01:16Z</time>
      </trkpt>
      <trkpt lat="49.34465" lon="1.02544">
        <ele>125.7</ele>
        <time>2019-11-11T08:01:17Z</time>
      </trkpt>
      <trkpt lat="49.34461" lon="1.02542">
        <ele>125.7</ele>
        <time>2019-11-11T08:01:18Z</time>
      </trkpt>
      <trkpt lat="49.34457" lon="1.0254">
        <ele>125.7</ele>
        <time>2019-11-11T08:01:19Z</time>
      </trkpt>
      <trkpt lat="49.34453" lon="1.02538">
        <ele>125.7</ele>
        <time>2019-11-11T08:01:20Z</time>
      </trkpt>
      <trkpt lat="49.34449" lon="1.02536">
        <ele>125.7</ele>
        <time>2019-11-11T08:01:21Z</time>
      </trkpt>
      <trkpt lat="49.34445" lon="1.02533">
        <ele>125.7</ele>
        <time>2019-11-11T08:01:22Z</time>
      </trkpt>
      <trkpt lat="49.34441" lon="1.02531">
        <ele>125.7</ele>
        <time>2019-11-11T08:01:23Z</time>
      </trkpt>
      <trkpt lat="49.34437" lon="1.02529">
        <ele>125.7</ele>
        <time>2019-11-11T08:01:24Z</time>
      </trkpt>
      <trkpt lat="49.34433" lon="1.02526">
        <ele>125.7</ele>
        <time>2019-11-11T08:01:25Z</time>
      </trkpt>
      <trkpt lat="49.34429" lon="1.02524">
        <ele>125.7</ele>
        <time>2019-11-11T08:01:26Z</time>
      </trkpt>
      <trkpt lat="49.34425" lon="1.02521">
        <ele>125.7</ele>
        <time>2019-11-11T08:01:27Z</time>
      </trkpt>
      <trkpt lat="49.34421" lon="1.02519">
        <ele>125.7</ele>
        <time>2019-11-11T08:01:28Z</time>
      </trkpt>
      <trkpt lat="49.34417" lon="1.02516">
        <ele>125.7</ele>
        <time>2019-11-11T08:01:29Z</time>
      </trkpt>
      <trkpt lat="49.34413" lon="1.02514">
        <ele>125.7</ele>
        <time>2019-11-11T08:01:30Z</time>
      </trkpt>
      <trkpt lat="49.34409" lon="1.02511">
        <ele>125.7</ele>
        <time>2019-11-11T08:01:31Z</time>
      </trkpt>
      <trkpt lat="49.34405" lon="1.02508">
        <ele>125.7</ele>
        <time>2019-11-11T08:01:32Z</time>
      </trkpt>
      <trkpt lat="49.34401" lon="1.02506">
        <ele>125.7</ele>
        <time>2019-11-11T08:01:33Z</time>
      </trkpt>
      <trkpt lat="49.34397" lon="1.02503">
        <ele>125.7</ele>
        <time>2019-11-11T08:01:34Z</time>
      </trkpt>
      <trkpt lat="49.34393" lon="1.02501">
        <ele>125.7</ele>
        <time>2019-11-11T08:01:35Z</time>
      </trkpt>
      <trkpt lat="49.34389" lon="1.02498">
        <ele>125.7</ele>
        <time>2019-11-11T08:01:36Z</time>
      </trkpt>
      <trkpt lat="49.34386" lon="1.02495">
        <ele>125.7</ele>
        <time>2019-11-11T08:01:37Z</time>
      </trkpt>
      <trkpt lat="49.34382" lon="1.02493">
        <ele>125.7</ele>
        <time>2019-11-11T08:01:38Z</time>
      </trkpt>
      <trkpt lat="49.34378" lon="1.0249">
        <ele>125.7</ele>
        <time>2019-11-11T08:01:39Z</time>
      </trkpt>
      <trkpt lat="49.34374" lon="1.02488">
        <ele>125.7</ele>
        <time>2019-11-11T08:01:40Z</time>
      </trkpt>
      <trkpt lat="49.3437" lon="1.02485">
        <ele>125.7</ele>
        <time>2019-11-11T08:01:41Z</time>
      </trkpt>
      <trkpt lat="49.34366" lon="1.02482">
        <ele>125.7</ele>
        <time>2019-11-11T08:01:42Z</time>
      </trkpt>
      <trkpt lat="49.34362" lon="1.0248">
        <ele>125.7</ele>
        <time>2019-11-11T08:01:43Z</time>
      </trkpt>
      <trkpt lat="49.34357" lon="1.02477">
        <ele>125.7</ele>
        <time>2019-11-11T08:01:44Z</time>
      </trkpt>
      <trkpt lat="49.34353" lon="1.02474">
        <ele>125.7</ele>
        <time>2019-11-11T08:01:45Z</time>
      </trkpt>
      <trkpt lat="49.34349" lon="1.02472">
        <ele>125.7</ele>
        <time>2019-11-11T08:01:46Z</time>
      </trkpt>
      <trkpt lat="49.34345" lon="1.02469">
        <ele>125.7</ele>
        <time>2019-11-11T08:01:47Z</time>
      </trkpt>
      <trkpt lat="49.34341" lon="1.02467">
        <ele>125.7</ele>
        <time>2019-11-11T08:01:48Z</time>
      </trkpt>
      <trkpt lat="49.34337" lon="1.02464">
        <ele>125.7</ele>
        <time>2019-11-11T08:01:49Z</time>
      </trkpt>
      <trkpt lat="49.34333" lon="1.02461">
        <ele>125.7</ele>
        <time>2019-11-11T08:01:50Z</time>
      </trkpt>
      <trkpt lat="49.34329" lon="1.02458">
        <ele>125.7</ele>
        <time>2019-11-11T08:01:51Z</time>
      </trkpt>
      <trkpt lat="49.34325" lon="1.02456">
        <ele>125.7</ele>
        <time>2019-11-11T08:01:52Z</time>
      </trkpt>
      <trkpt lat="49.34321" lon="1.02453">
        <ele>125.7</ele>
        <time>2019-11-11T08:01:53Z</time>
      </trkpt>
      <trkpt lat="49.34317" lon="1.0245">
        <ele>125.7</ele>
        <time>2019-11-11T08:01:54Z</time>
      </trkpt>
      <trkpt lat="49.34313" lon="1.02447">
        <ele>125.7</ele>
        <time>2019-11-11T08:01:55Z</time>
      </trkpt>
      <trkpt lat="49.34309" lon="1.02444">
        <ele>125.7</ele>
        <time>2019-11-11T08:01:56Z</time>
      </trkpt>
      <trkpt lat="49.34305" lon="1.0244">
        <ele>125.7</ele>
        <time>2019-11-11T08:01:57Z</time>
      </trkpt>
      <trkpt lat="49.34301" lon="1.02437">
        <ele>125.7</ele>
        <time>2019-11-11T08:01:58Z</time>
      </trkpt>
      <trkpt lat="49.34296" lon="1.02433">
        <ele>125.7</ele>
        <time>2019-11-11T08:01:59Z</time>
      </trkpt>
      <trkpt lat="49.34292" lon="1.0243">
        <ele>125.7</ele>
        <time>2019-11-11T08:02:00Z</time>
      </trkpt>
      <trkpt lat="49.34288" lon="1.02426">
        <ele>124.8</ele>
        <time>2019-11-11T08:02:01Z</time>
      </trkpt>
      <trkpt lat="49.34284" lon="1.02421">
        <ele>124.8</ele>
        <time>2019-11-11T08:02:02Z</time>
      </trkpt>
      <trkpt lat="49.3428" lon="1.02417">
        <ele>124.8</ele>
        <time>2019-11-11T08:02:03Z</time>
      </trkpt>
      <trkpt lat="49.34276" lon="1.02413">
        <ele>124.8</ele>
        <time>2019-11-11T08:02:04Z</time>
      </trkpt>
      <trkpt lat="49.34273" lon="1.02408">
        <ele>124.8</ele>
        <time>2019-11-11T08:02:05Z</time>
      </trkpt>
      <trkpt lat="49.34269" lon="1.02404">
        <ele>124.8</ele>
        <time>2019-11-11T08:02:06Z</time>
      </trkpt>
      <trkpt lat="49.34265" lon="1.024">
        <ele>124.8</ele>
        <time>2019-11-11T08:02:07Z</time>
      </trkpt>
      <trkpt lat="49.3426" lon="1.02396">
        <ele>124.8</ele>
        <time>2019-11-11T08:02:08Z</time>
      </trkpt>
      <trkpt lat="49.34256" lon="1.02393">
        <ele>124.8</ele>
        <time>2019-11-11T08:02:09Z</time>
      </trkpt>
      <trkpt lat="49.34252" lon="1.0239">
        <ele>124.8</ele>
        <time>2019-11-11T08:02:10Z</time>
      </trkpt>
      <trkpt lat="49.34248" lon="1.02387">
        <ele>124.8</ele>
        <time>2019-11-11T08:02:11Z</time>
      </trkpt>
      <trkpt lat="49.34244" lon="1.02384">
        <ele>124.8</ele>
        <time>2019-11-11T08:02:12Z</time>
      </trkpt>
      <trkpt lat="49.34239" lon="1.02382">
        <ele>124.8</ele>
        <time>2019-11-11T08:02:13Z</time>
      </trkpt>
      <trkpt lat="49.34235" lon="1.02378">
        <ele>124.8</ele>
        <time>2019-11-11T08:02:14Z</time>
      </trkpt>
      <trkpt lat="49.3423" lon="1.02375">
        <ele>124.8</ele>
        <time>2019-11-11T08:02:15Z</time>
      </trkpt>
      <trkpt lat="49.34226" lon="1.02372">
        <ele>124.8</ele>
        <time>2019-11-11T08:02:16Z</time>
      </trkpt>
      <trkpt lat="49.34221" lon="1.02368">
        <ele>124.8</ele>
        <time>2019-11-11T08:02:17Z</time>
      </trkpt>
      <trkpt lat="49.34217" lon="1.02365">
        <ele>124.8</ele>
        <time>2019-11-11T08:02:18Z</time>
      </trkpt>
      <trkpt lat="49.34213" lon="1.02361">
        <ele>124.8</ele>
        <time>2019-11-11T08:02:19Z</time>
      </trkpt>
      <trkpt lat="49.34208" lon="1.02358">
        <ele>124.8</ele>
        <time>2019-11-11T08:02:20Z</time>
      </trkpt>
      <trkpt lat="49.34204" lon="1.02354">
        <ele>124.8</ele>
        <time>2019-11-11T08:02:21Z</time>
      </trkpt>
      <trkpt lat="49.34199" lon="1.02351">
        <ele>124.8</ele>
        <time>2019-11-11T08:02:22Z</time>
      </trkpt>
      <trkpt lat="49.34195" lon="1.02347">
        <ele>124.8</ele>
        <time>2019-11-11T08:02:23Z</time>
      </trkpt>
      <trkpt lat="49.3419" lon="1.02345">
        <ele>124.8</ele>
        <time>2019-11-11T08:02:24Z</time>
      </trkpt>
      <trkpt lat="49.34186" lon="1.02342">
        <ele>124.8</ele>
        <time>2019-11-11T08:02:25Z</time>
      </trkpt>
      <trkpt lat="49.34182" lon="1.0234">
        <ele>124.8</ele>
        <time>2019-11-11T08:02:26Z</time>
      </trkpt>
      <trkpt lat="49.34177" lon="1.02338">
        <ele>124.8</ele>
        <time>2019-11-11T08:02:27Z</time>
      </trkpt>
      <trkpt lat="49.34173" lon="1.02336">
        <ele>124.8</ele>
        <time>2019-11-11T08:02:28Z</time>
      </trkpt>
      <trkpt lat="49.34169" lon="1.02335">
        <ele>124.8</ele>
        <time>2019-11-11T08:02:29Z</time>
      </trkpt>
      <trkpt lat="49.34164" lon="1.02333">
        <ele>124.8</ele>
        <time>2019-11-11T08:02:30Z</time>
      </trkpt>
      <trkpt lat="49.3416" lon="1.02332">
        <ele>124.8</ele>
        <time>2019-11-11T08:02:31Z</time>
      </trkpt>
      <trkpt lat="49.34155" lon="1.02331">
        <ele>124.8</ele>
        <time>2019-11-11T08:02:32Z</time>
      </trkpt>
      <trkpt lat="49.34151" lon="1.0233">
        <ele>124.8</ele>
        <time>2019-11-11T08:02:33Z</time>
      </trkpt>
      <trkpt lat="49.34147" lon="1.02329">
        <ele>124.8</ele>
        <time>2019-11-11T08:02:34Z</time>
      </trkpt>
      <trkpt lat="49.34142" lon="1.02328">
        <ele>125.7</ele>
        <time>2019-11-11T08:02:35Z</time>
      </trkpt>
      <trkpt lat="49.34138" lon="1.02328">
        <ele>125.7</ele>
        <time>2019-11-11T08:02:36Z</time>
      </trkpt>
      <trkpt lat="49.34133" lon="1.02327">
        <ele>125.7</ele>
        <time>2019-11-11T08:02:37Z</time>
      </trkpt>
      <trkpt lat="49.34129" lon="1.02327">
        <ele>125.7</ele>
        <time>2019-11-11T08:02:38Z</time>
      </trkpt>
      <trkpt lat="49.34124" lon="1.02327">
        <ele>125.7</ele>
        <time>2019-11-11T08:02:39Z</time>
      </trkpt>
      <trkpt lat="49.3412" lon="1.02327">
        <ele>125.7</ele>
        <time>2019-11-11T08:02:40Z</time>
      </trkpt>
      <trkpt lat="49.34115" lon="1.02326">
        <ele>125.7</ele>
        <time>2019-11-11T08:02:41Z</time>
      </trkpt>
      <trkpt lat="49.3411" lon="1.02326">
        <ele>125.7</ele>
        <time>2019-11-11T08:02:42Z</time>
      </trkpt>
      <trkpt lat="49.34106" lon="1.02326">
        <ele>125.7</ele>
        <time>2019-11-11T08:02:43Z</time>
      </trkpt>
      <trkpt lat="49.34101" lon="1.02326">
        <ele>125.7</ele>
        <time>2019-11-11T08:02:44Z</time>
      </trkpt>
      <trkpt lat="49.34097" lon="1.02326">
        <ele>125.7</ele>
        <time>2019-11-11T08:02:45Z</time>
      </trkpt>
      <trkpt lat="49.34092" lon="1.02326">
        <ele>125.7</ele>
        <time>2019-11-11T08:02:46Z</time>
      </trkpt>
      <trkpt lat="49.34088" lon="1.02326">
        <ele>125.7</ele>
        <time>2019-11-11T08:02:47Z</time>
      </trkpt>
      <trkpt lat="49.34083" lon="1.02326">
        <ele>125.7</ele>
        <time>2019-11-11T08:02:48Z</time>
      </trkpt>
      <trkpt lat="49.34079" lon="1.02326">
        <ele>125.7</ele>
        <time>2019-11-11T08:02:49Z</time>
      </trkpt>
      <trkpt lat="49.34074" lon="1.02325">
        <ele>125.7</ele>
        <time>2019-11-11T08:02:50Z</time>
      </trkpt>
      <trkpt lat="49.34069" lon="1.02325">
        <ele>125.7</ele>
        <time>2019-11-11T08:02:51Z</time>
      </trkpt>
      <trkpt lat="49.34065" lon="1.02325">
        <ele>125.7</ele>
        <time>2019-11-11T08:02:52Z</time>
      </trkpt>
      <trkpt lat="49.3406" lon="1.02325">
        <ele>125.7</ele>
        <time>2019-11-11T08:02:53Z</time>
      </trkpt>
      <trkpt lat="49.34055" lon="1.02325">
        <ele>125.7</ele>
        <time>2019-11-11T08:02:54Z</time>
      </trkpt>
      <trkpt lat="49.34051" lon="1.02325">
        <ele>125.7</ele>
        <time>2019-11-11T08:02:55Z</time>
      </trkpt>
      <trkpt lat="49.34046" lon="1.02325">
        <ele>125.7</ele>
        <time>2019-11-11T08:02:56Z</time>
      </trkpt>
      <trkpt lat="49.34041" lon="1.02325">
        <ele>125.7</ele>
        <time>2019-11-11T08:02:57Z</time>
      </trkpt>
      <trkpt lat="49.34037" lon="1.02324">
        <ele>125.7</ele>
        <time>2019-11-11T08:02:58Z</time>
      </trkpt>
      <trkpt lat="49.34032" lon="1.02324">
        <ele>125.7</ele>
        <time>2019-11-11T08:02:59Z</time>
      </trkpt>
      <trkpt lat="49.34028" lon="1.02324">
        <ele>125.7</ele>
        <time>2019-11-11T08:03:00Z</time>
      </trkpt>
      <trkpt lat="49.34023" lon="1.02324">
        <ele>124.8</ele>
        <time>2019-11-11T08:03:01Z</time>
      </trkpt>
      <trkpt lat="49.34018" lon="1.02324">
        <ele>124.8</ele>
        <time>2019-11-11T08:03:02Z</time>
      </trkpt>
      <trkpt lat="49.34013" lon="1.02324">
        <ele>124.8</ele>
        <time>2019-11-11T08:03:03Z</time>
      </trkpt>
      <trkpt lat="49.34008" lon="1.02322">
        <ele>124.8</ele>
        <time>2019-11-11T08:03:04Z</time>
      </trkpt>
      <trkpt lat="49.34002" lon="1.02321">
        <ele>123.8</ele>
        <time>2019-11-11T08:03:05Z</time>
      </trkpt>
      <trkpt lat="49.33997" lon="1.02319">
        <ele>123.8</ele>
        <time>2019-11-11T08:03:06Z</time>
      </trkpt>
      <trkpt lat="49.33991" lon="1.02316">
        <ele>123.8</ele>
        <time>2019-11-11T08:03:07Z</time>
      </trkpt>
      <trkpt lat="49.33985" lon="1.02312">
        <ele>123.8</ele>
        <time>2019-11-11T08:03:08Z</time>
      </trkpt>
      <trkpt lat="49.33979" lon="1.02308">
        <ele>123.8</ele>
        <time>2019-11-11T08:03:09Z</time>
      </trkpt>
      <trkpt lat="49.33974" lon="1.02303">
        <ele>123.8</ele>
        <time>2019-11-11T08:03:10Z</time>
      </trkpt>
      <trkpt lat="49.33968" lon="1.02298">
        <ele>123.8</ele>
        <time>2019-11-11T08:03:11Z</time>
      </trkpt>
      <trkpt lat="49.33962" lon="1.02294">
        <ele>123.8</ele>
        <time>2019-11-11T08:03:12Z</time>
      </trkpt>
      <trkpt lat="49.33955" lon="1.02293">
        <ele>121.8</ele>
        <time>2019-11-11T08:03:13Z</time>
      </trkpt>
      <trkpt lat="49.33949" lon="1.02294">
        <ele>121.8</ele>
        <time>2019-11-11T08:03:14Z</time>
      </trkpt>
      <trkpt lat="49.33944" lon="1.02297">
        <ele>121.8</ele>
        <time>2019-11-11T08:03:15Z</time>
      </trkpt>
      <trkpt lat="49.33938" lon="1.02301">
        <ele>121.8</ele>
        <time>2019-11-11T08:03:16Z</time>
      </trkpt>
      <trkpt lat="49.33933" lon="1.02305">
        <ele>120.7</ele>
        <time>2019-11-11T08:03:17Z</time>
      </trkpt>
      <trkpt lat="49.33929" lon="1.0231">
        <ele>120.7</ele>
        <time>2019-11-11T08:03:18Z</time>
      </trkpt>
      <trkpt lat="49.33924" lon="1.02314">
        <ele>120.7</ele>
        <time>2019-11-11T08:03:19Z</time>
      </trkpt>
      <trkpt lat="49.3392" lon="1.02318">
        <ele>120.7</ele>
        <time>2019-11-11T08:03:20Z</time>
      </trkpt>
      <trkpt lat="49.33915" lon="1.02323">
        <ele>120.7</ele>
        <time>2019-11-11T08:03:21Z</time>
      </trkpt>
      <trkpt lat="49.33911" lon="1.02327">
        <ele>120.7</ele>
        <time>2019-11-11T08:03:22Z</time>
      </trkpt>
      <trkpt lat="49.33907" lon="1.02331">
        <ele>120.7</ele>
        <time>2019-11-11T08:03:23Z</time>
      </trkpt>
      <trkpt lat="49.33903" lon="1.02335">
        <ele>120.7</ele>
        <time>2019-11-11T08:03:24Z</time>
      </trkpt>
      <trkpt lat="49.33899" lon="1.02339">
        <ele>120.7</ele>
        <time>2019-11-11T08:03:25Z</time>
      </trkpt>
      <trkpt lat="49.33894" lon="1.02342">
        <ele>120.7</ele>
        <time>2019-11-11T08:03:26Z</time>
      </trkpt>
      <trkpt lat="49.3389" lon="1.02346">
        <ele>120.7</ele>
        <time>2019-11-11T08:03:27Z</time>
      </trkpt>
      <trkpt lat="49.33886" lon="1.0235">
        <ele>120.7</ele>
        <time>2019-11-11T08:03:28Z</time>
      </trkpt>
      <trkpt lat="49.33882" lon="1.02354">
        <ele>120.7</ele>
        <time>2019-11-11T08:03:29Z</time>
      </trkpt>
      <trkpt lat="49.33878" lon="1.02358">
        <ele>120.7</ele>
        <time>2019-11-11T08:03:30Z</time>
      </trkpt>
      <trkpt lat="49.33874" lon="1.02362">
        <ele>119.8</ele>
        <time>2019-11-11T08:03:31Z</time>
      </trkpt>
      <trkpt lat="49.3387" lon="1.02365">
        <ele>119.8</ele>
        <time>2019-11-11T08:03:32Z</time>
      </trkpt>
      <trkpt lat="49.33866" lon="1.02369">
        <ele>119.8</ele>
        <time>2019-11-11T08:03:33Z</time>
      </trkpt>
      <trkpt lat="49.33862" lon="1.02373">
        <ele>119.8</ele>
        <time>2019-11-11T08:03:34Z</time>
      </trkpt>
      <trkpt lat="49.33858" lon="1.02377">
        <ele>119.8</ele>
        <time>2019-11-11T08:03:35Z</time>
      </trkpt>
      <trkpt lat="49.33854" lon="1.02381">
        <ele>119.8</ele>
        <time>2019-11-11T08:03:36Z</time>
      </trkpt>
      <trkpt lat="49.3385" lon="1.02385">
        <ele>120.7</ele>
        <time>2019-11-11T08:03:37Z</time>
      </trkpt>
      <trkpt lat="49.33846" lon="1.02389">
        <ele>120.7</ele>
        <time>2019-11-11T08:03:38Z</time>
      </trkpt>
      <trkpt lat="49.33843" lon="1.02392">
        <ele>120.7</ele>
        <time>2019-11-11T08:03:39Z</time>
      </trkpt>
      <trkpt lat="49.33839" lon="1.02397">
        <ele>120.7</ele>
        <time>2019-11-11T08:03:40Z</time>
      </trkpt>
      <trkpt lat="49.33835" lon="1.024">
        <ele>120.7</ele>
        <time>2019-11-11T08:03:41Z</time>
      </trkpt>
      <trkpt lat="49.33831" lon="1.02404">
        <ele>120.7</ele>
        <time>2019-11-11T08:03:42Z</time>
      </trkpt>
      <trkpt lat="49.33827" lon="1.02408">
        <ele>120.7</ele>
        <time>2019-11-11T08:03:43Z</time>
      </trkpt>
      <trkpt lat="49.33823" lon="1.02412">
        <ele>120.7</ele>
        <time>2019-11-11T08:03:44Z</time>
      </trkpt>
      <trkpt lat="49.33819" lon="1.02416">
        <ele>120.7</ele>
        <time>2019-11-11T08:03:45Z</time>
      </trkpt>
      <trkpt lat="49.33815" lon="1.02419">
        <ele>120.7</ele>
        <time>2019-11-11T08:03:46Z</time>
      </trkpt>
      <trkpt lat="49.33811" lon="1.02423">
        <ele>120.7</ele>
        <time>2019-11-11T08:03:47Z</time>
      </trkpt>
      <trkpt lat="49.33807" lon="1.02427">
        <ele>120.7</ele>
        <time>2019-11-11T08:03:48Z</time>
      </trkpt>
      <trkpt lat="49.33803" lon="1.02431">
        <ele>120.7</ele>
        <time>2019-11-11T08:03:49Z</time>
      </trkpt>
      <trkpt lat="49.338" lon="1.02435">
        <ele>120.7</ele>
        <time>2019-11-11T08:03:50Z</time>
      </trkpt>
      <trkpt lat="49.33796" lon="1.02439">
        <ele>120.7</ele>
        <time>2019-11-11T08:03:51Z</time>
      </trkpt>
      <trkpt lat="49.33792" lon="1.02443">
        <ele>120.7</ele>
        <time>2019-11-11T08:03:52Z</time>
      </trkpt>
      <trkpt lat="49.33788" lon="1.02446">
        <ele>120.7</ele>
        <time>2019-11-11T08:03:53Z</time>
      </trkpt>
      <trkpt lat="49.33784" lon="1.0245">
        <ele>120.7</ele>
        <time>2019-11-11T08:03:54Z</time>
      </trkpt>
      <trkpt lat="49.3378" lon="1.02454">
        <ele>120.7</ele>
        <time>2019-11-11T08:03:55Z</time>
      </trkpt>
      <trkpt lat="49.33776" lon="1.02458">
        <ele>120.7</ele>
        <time>2019-11-11T08:03:56Z</time>
      </trkpt>
      <trkpt lat="49.33772" lon="1.02462">
        <ele>121.8</ele>
        <time>2019-11-11T08:03:57Z</time>
      </trkpt>
      <trkpt lat="49.33768" lon="1.02465">
        <ele>121.8</ele>
        <time>2019-11-11T08:03:58Z</time>
      </trkpt>
      <trkpt lat="49.33764" lon="1.02469">
        <ele>121.8</ele>
        <time>2019-11-11T08:03:59Z</time>
      </trkpt>
      <trkpt lat="49.3376" lon="1.02473">
        <ele>121.8</ele>
        <time>2019-11-11T08:04:00Z</time>
      </trkpt>
      <trkpt lat="49.33756" lon="1.02477">
        <ele>121.8</ele>
        <time>2019-11-11T08:04:01Z</time>
      </trkpt>
      <trkpt lat="49.33752" lon="1.0248">
        <ele>121.8</ele>
        <time>2019-11-11T08:04:02Z</time>
      </trkpt>
      <trkpt lat="49.33748" lon="1.02484">
        <ele>121.8</ele>
        <time>2019-11-11T08:04:03Z</time>
      </trkpt>
      <trkpt lat="49.33744" lon="1.02488">
        <ele>121.8</ele>
        <time>2019-11-11T08:04:04Z</time>
      </trkpt>
      <trkpt lat="49.3374" lon="1.02492">
        <ele>121.8</ele>
        <time>2019-11-11T08:04:05Z</time>
      </trkpt>
      <trkpt lat="49.33736" lon="1.02495">
        <ele>121.8</ele>
        <time>2019-11-11T08:04:06Z</time>
      </trkpt>
      <trkpt lat="49.33732" lon="1.02499">
        <ele>121.8</ele>
        <time>2019-11-11T08:04:07Z</time>
      </trkpt>
      <trkpt lat="49.33728" lon="1.02503">
        <ele>121.8</ele>
        <time>2019-11-11T08:04:08Z</time>
      </trkpt>
      <trkpt lat="49.33724" lon="1.02507">
        <ele>122.7</ele>
        <time>2019-11-11T08:04:09Z</time>
      </trkpt>
      <trkpt lat="49.3372" lon="1.02511">
        <ele>122.7</ele>
        <time>2019-11-11T08:04:10Z</time>
      </trkpt>
      <trkpt lat="49.33716" lon="1.02515">
        <ele>122.7</ele>
        <time>2019-11-11T08:04:11Z</time>
      </trkpt>
      <trkpt lat="49.33713" lon="1.02518">
        <ele>122.7</ele>
        <time>2019-11-11T08:04:12Z</time>
      </trkpt>
      <trkpt lat="49.33709" lon="1.02522">
        <ele>122.7</ele>
        <time>2019-11-11T08:04:13Z</time>
      </trkpt>
      <trkpt lat="49.33705" lon="1.02526">
        <ele>122.7</ele>
        <time>2019-11-11T08:04:14Z</time>
      </trkpt>
      <trkpt lat="49.33701" lon="1.0253">
        <ele>122.7</ele>
        <time>2019-11-11T08:04:15Z</time>
      </trkpt>
      <trkpt lat="49.33697" lon="1.02533">
        <ele>122.7</ele>
        <time>2019-11-11T08:04:16Z</time>
      </trkpt>
      <trkpt lat="49.33693" lon="1.02537">
        <ele>122.7</ele>
        <time>2019-11-11T08:04:17Z</time>
      </trkpt>
      <trkpt lat="49.33689" lon="1.02541">
        <ele>122.7</ele>
        <time>2019-11-11T08:04:18Z</time>
      </trkpt>
      <trkpt lat="49.33684" lon="1.02544">
        <ele>122.7</ele>
        <time>2019-11-11T08:04:19Z</time>
      </trkpt>
      <trkpt lat="49.3368" lon="1.02548">
        <ele>122.7</ele>
        <time>2019-11-11T08:04:20Z</time>
      </trkpt>
      <trkpt lat="49.33676" lon="1.02552">
        <ele>122.7</ele>
        <time>2019-11-11T08:04:21Z</time>
      </trkpt>
      <trkpt lat="49.33673" lon="1.02555">
        <ele>122.7</ele>
        <time>2019-11-11T08:04:22Z</time>
      </trkpt>
      <trkpt lat="49.33669" lon="1.02559">
        <ele>122.7</ele>
        <time>2019-11-11T08:04:23Z</time>
      </trkpt>
      <trkpt lat="49.33665" lon="1.02562">
        <ele>122.7</ele>
        <time>2019-11-11T08:04:24Z</time>
      </trkpt>
      <trkpt lat="49.33661" lon="1.02566">
        <ele>122.7</ele>
        <time>2019-11-11T08:04:25Z</time>
      </trkpt>
      <trkpt lat="49.33658" lon="1.02569">
        <ele>122.7</ele>
        <time>2019-11-11T08:04:26Z</time>
      </trkpt>
      <trkpt lat="49.33654" lon="1.02573">
        <ele>122.7</ele>
        <time>2019-11-11T08:04:27Z</time>
      </trkpt>
      <trkpt lat="49.33651" lon="1.02576">
        <ele>122.7</ele>
        <time>2019-11-11T08:04:28Z</time>
      </trkpt>
      <trkpt lat="49.33647" lon="1.0258">
        <ele>122.7</ele>
        <time>2019-11-11T08:04:29Z</time>
      </trkpt>
      <trkpt lat="49.33644" lon="1.02583">
        <ele>122.7</ele>
        <time>2019-11-11T08:04:30Z</time>
      </trkpt>
      <trkpt lat="49.3364" lon="1.02585">
        <ele>122.7</ele>
        <time>2019-11-11T08:04:31Z</time>
      </trkpt>
      <trkpt lat="49.33636" lon="1.02585">
        <ele>122.7</ele>
        <time>2019-11-11T08:04:32Z</time>
      </trkpt>
      <trkpt lat="49.33632" lon="1.02583">
        <ele>122.7</ele>
        <time>2019-11-11T08:04:33Z</time>
      </trkpt>
      <trkpt lat="49.33628" lon="1.0258">
        <ele>122.7</ele>
        <time>2019-11-11T08:04:34Z</time>
      </trkpt>
      <trkpt lat="49.33626" lon="1.02576">
        <ele>122.7</ele>
        <time>2019-11-11T08:04:35Z</time>
      </trkpt>
      <trkpt lat="49.33623" lon="1.02571">
        <ele>122.7</ele>
        <time>2019-11-11T08:04:36Z</time>
      </trkpt>
      <trkpt lat="49.3362" lon="1.02566">
        <ele>122.7</ele>
        <time>2019-11-11T08:04:37Z</time>
      </trkpt>
      <trkpt lat="49.33618" lon="1.02561">
        <ele>122.7</ele>
        <time>2019-11-11T08:04:38Z</time>
      </trkpt>
      <trkpt lat="49.33615" lon="1.02556">
        <ele>122.7</ele>
        <time>2019-11-11T08:04:39Z</time>
      </trkpt>
      <trkpt lat="49.33613" lon="1.02551">
        <ele>122.7</ele>
        <time>2019-11-11T08:04:40Z</time>
      </trkpt>
      <trkpt lat="49.3361" lon="1.02545">
        <ele>122.7</ele>
        <time>2019-11-11T08:04:41Z</time>
      </trkpt>
      <trkpt lat="49.33608" lon="1.0254">
        <ele>122.7</ele>
        <time>2019-11-11T08:04:42Z</time>
      </trkpt>
      <trkpt lat="49.33605" lon="1.02535">
        <ele>122.7</ele>
        <time>2019-11-11T08:04:43Z</time>
      </trkpt>
      <trkpt lat="49.33602" lon="1.0253">
        <ele>122.7</ele>
        <time>2019-11-11T08:04:44Z</time>
      </trkpt>
      <trkpt lat="49.336" lon="1.02525">
        <ele>122.7</ele>
        <time>2019-11-11T08:04:45Z</time>
      </trkpt>
      <trkpt lat="49.33597" lon="1.0252">
        <ele>122.7</ele>
        <time>2019-11-11T08:04:46Z</time>
      </trkpt>
      <trkpt lat="49.33594" lon="1.02514">
        <ele>122.7</ele>
        <time>2019-11-11T08:04:47Z</time>
      </trkpt>
      <trkpt lat="49.33592" lon="1.02509">
        <ele>122.7</ele>
        <time>2019-11-11T08:04:48Z</time>
      </trkpt>
      <trkpt lat="49.33589" lon="1.02504">
        <ele>122.7</ele>
        <time>2019-11-11T08:04:49Z</time>
      </trkpt>
      <trkpt lat="49.33586" lon="1.02498">
        <ele>122.7</ele>
        <time>2019-11-11T08:04:50Z</time>
      </trkpt>
      <trkpt lat="49.33584" lon="1.02493">
        <ele>122.7</ele>
        <time>2019-11-11T08:04:51Z</time>
      </trkpt>
      <trkpt lat="49.33581" lon="1.02488">
        <ele>122.7</ele>
        <time>2019-11-11T08:04:52Z</time>
      </trkpt>
      <trkpt lat="49.33578" lon="1.02483">
        <ele>123.8</ele>
        <time>2019-11-11T08:04:53Z</time>
      </trkpt>
      <trkpt lat="49.33575" lon="1.02477">
        <ele>123.8</ele>
        <time>2019-11-11T08:04:54Z</time>
      </trkpt>
      <trkpt lat="49.33573" lon="1.02472">
        <ele>123.8</ele>
        <time>2019-11-11T08:04:55Z</time>
      </trkpt>
      <trkpt lat="49.3357" lon="1.02467">
        <ele>123.8</ele>
        <time>2019-11-11T08:04:56Z</time>
      </trkpt>
      <trkpt lat="49.33567" lon="1.02462">
        <ele>123.8</ele>
        <time>2019-11-11T08:04:57Z</time>
      </trkpt>
      <trkpt lat="49.33564" lon="1.02456">
        <ele>123.8</ele>
        <time>2019-11-11T08:04:58Z</time>
      </trkpt>
      <trkpt lat="49.33562" lon="1.02451">
        <ele>124.8</ele>
        <time>2019-11-11T08:04:59Z</time>
      </trkpt>
      <trkpt lat="49.33559" lon="1.02446">
        <ele>124.8</ele>
        <time>2019-11-11T08:05:00Z</time>
      </trkpt>
      <trkpt lat="49.33556" lon="1.0244">
        <ele>124.8</ele>
        <time>2019-11-11T08:05:01Z</time>
      </trkpt>
      <trkpt lat="49.33554" lon="1.02435">
        <ele>124.8</ele>
        <time>2019-11-11T08:05:02Z</time>
      </trkpt>
      <trkpt lat="49.33551" lon="1.0243">
        <ele>124.8</ele>
        <time>2019-11-11T08:05:03Z</time>
      </trkpt>
      <trkpt lat="49.33548" lon="1.02424">
        <ele>124.8</ele>
        <time>2019-11-11T08:05:04Z</time>
      </trkpt>
      <trkpt lat="49.33545" lon="1.02419">
        <ele>124.8</ele>
        <time>2019-11-11T08:05:05Z</time>
      </trkpt>
      <trkpt lat="49.33542" lon="1.02413">
        <ele>124.8</ele>
        <time>2019-11-11T08:05:06Z</time>
      </trkpt>
      <trkpt lat="49.3354" lon="1.02408">
        <ele>124.8</ele>
        <time>2019-11-11T08:05:07Z</time>
      </trkpt>
      <trkpt lat="49.33537" lon="1.02402">
        <ele>124.8</ele>
        <time>2019-11-11T08:05:08Z</time>
      </trkpt>
      <trkpt lat="49.33534" lon="1.02397">
        <ele>124.8</ele>
        <time>2019-11-11T08:05:09Z</time>
      </trkpt>
      <trkpt lat="49.33532" lon="1.02392">
        <ele>124.8</ele>
        <time>2019-11-11T08:05:10Z</time>
      </trkpt>
      <trkpt lat="49.33529" lon="1.02386">
        <ele>124.8</ele>
        <time>2019-11-11T08:05:11Z</time>
      </trkpt>
      <trkpt lat="49.33526" lon="1.02381">
        <ele>124.8</ele>
        <time>2019-11-11T08:05:12Z</time>
      </trkpt>
      <trkpt lat="49.33523" lon="1.02376">
        <ele>124.8</ele>
        <time>2019-11-11T08:05:13Z</time>
      </trkpt>
      <trkpt lat="49.3352" lon="1.0237">
        <ele>124.8</ele>
        <time>2019-11-11T08:05:14Z</time>
      </trkpt>
      <trkpt lat="49.33518" lon="1.02365">
        <ele>125.7</ele>
        <time>2019-11-11T08:05:15Z</time>
      </trkpt>
      <trkpt lat="49.33515" lon="1.0236">
        <ele>125.7</ele>
        <time>2019-11-11T08:05:16Z</time>
      </trkpt>
      <trkpt lat="49.33512" lon="1.02354">
        <ele>125.7</ele>
        <time>2019-11-11T08:05:17Z</time>
      </trkpt>
      <trkpt lat="49.33509" lon="1.02349">
        <ele>125.7</ele>
        <time>2019-11-11T08:05:18Z</time>
      </trkpt>
      <trkpt lat="49.33507" lon="1.02343">
        <ele>125.7</ele>
        <time>2019-11-11T08:05:19Z</time>
      </trkpt>
      <trkpt lat="49.33504" lon="1.02338">
        <ele>125.7</ele>
        <time>2019-11-11T08:05:20Z</time>
      </trkpt>
      <trkpt lat="49.33501" lon="1.02333">
        <ele>125.7</ele>
        <time>2019-11-11T08:05:21Z</time>
      </trkpt>
      <trkpt lat="49.33498" lon="1.02327">
        <ele>125.7</ele>
        <time>2019-11-11T08:05:22Z</time>
      </trkpt>
      <trkpt lat="49.33495" lon="1.02322">
        <ele>125.7</ele>
        <time>2019-11-11T08:05:23Z</time>
      </trkpt>
      <trkpt lat="49.33493" lon="1.02316">
        <ele>125.7</ele>
        <time>2019-11-11T08:05:24Z</time>
      </trkpt>
      <trkpt lat="49.3349" lon="1.02311">
        <ele>125.7</ele>
        <time>2019-11-11T08:05:25Z</time>
      </trkpt>
      <trkpt lat="49.33487" lon="1.02306">
        <ele>125.7</ele>
        <time>2019-11-11T08:05:26Z</time>
      </trkpt>
      <trkpt lat="49.33484" lon="1.023">
        <ele>125.7</ele>
        <time>2019-11-11T08:05:27Z</time>
      </trkpt>
      <trkpt lat="49.33481" lon="1.02295">
        <ele>125.7</ele>
        <time>2019-11-11T08:05:28Z</time>
      </trkpt>
      <trkpt lat="49.33479" lon="1.02289">
        <ele>125.7</ele>
        <time>2019-11-11T08:05:29Z</time>
      </trkpt>
      <trkpt lat="49.33476" lon="1.02284">
        <ele>125.7</ele>
        <time>2019-11-11T08:05:30Z</time>
      </trkpt>
      <trkpt lat="49.33473" lon="1.02278">
        <ele>125.7</ele>
        <time>2019-11-11T08:05:31Z</time>
      </trkpt>
      <trkpt lat="49.3347" lon="1.02273">
        <ele>125.7</ele>
        <time>2019-11-11T08:05:32Z</time>
      </trkpt>
      <trkpt lat="49.33467" lon="1.02268">
        <ele>125.7</ele>
        <time>2019-11-11T08:05:33Z</time>
      </trkpt>
      <trkpt lat="49.33464" lon="1.02262">
        <ele>125.7</ele>
        <time>2019-11-11T08:05:34Z</time>
      </trkpt>
      <trkpt lat="49.33461" lon="1.02257">
        <ele>125.7</ele>
        <time>2019-11-11T08:05:35Z</time>
      </trkpt>
      <trkpt lat="49.33458" lon="1.02251">
        <ele>125.7</ele>
        <time>2019-11-11T08:05:36Z</time>
      </trkpt>
      <trkpt lat="49.33455" lon="1.02246">
        <ele>125.7</ele>
        <time>2019-11-11T08:05:37Z</time>
      </trkpt>
      <trkpt lat="49.33452" lon="1.02241">
        <ele>125.7</ele>
        <time>2019-11-11T08:05:38Z</time>
      </trkpt>
      <trkpt lat="49.33449" lon="1.02235">
        <ele>125.7</ele>
        <time>2019-11-11T08:05:39Z</time>
      </trkpt>
      <trkpt lat="49.33446" lon="1.0223">
        <ele>125.7</ele>
        <time>2019-11-11T08:05:40Z</time>
      </trkpt>
      <trkpt lat="49.33443" lon="1.02224">
        <ele>125.7</ele>
        <time>2019-11-11T08:05:41Z</time>
      </trkpt>
      <trkpt lat="49.3344" lon="1.02219">
        <ele>125.7</ele>
        <time>2019-11-11T08:05:42Z</time>
      </trkpt>
      <trkpt lat="49.33437" lon="1.02213">
        <ele>125.7</ele>
        <time>2019-11-11T08:05:43Z</time>
      </trkpt>
      <trkpt lat="49.33434" lon="1.02207">
        <ele>125.7</ele>
        <time>2019-11-11T08:05:44Z</time>
      </trkpt>
      <trkpt lat="49.33431" lon="1.02201">
        <ele>125.7</ele>
        <time>2019-11-11T08:05:45Z</time>
      </trkpt>
      <trkpt lat="49.33428" lon="1.02196">
        <ele>125.7</ele>
        <time>2019-11-11T08:05:46Z</time>
      </trkpt>
      <trkpt lat="49.33425" lon="1.0219">
        <ele>125.7</ele>
        <time>2019-11-11T08:05:47Z</time>
      </trkpt>
      <trkpt lat="49.33422" lon="1.02184">
        <ele>125.7</ele>
        <time>2019-11-11T08:05:48Z</time>
      </trkpt>
      <trkpt lat="49.3342" lon="1.02178">
        <ele>125.7</ele>
        <time>2019-11-11T08:05:49Z</time>
      </trkpt>
      <trkpt lat="49.33417" lon="1.02172">
        <ele>125.7</ele>
        <time>2019-11-11T08:05:50Z</time>
      </trkpt>
      <trkpt lat="49.33414" lon="1.02167">
        <ele>125.7</ele>
        <time>2019-11-11T08:05:51Z</time>
      </trkpt>
      <trkpt lat="49.33412" lon="1.02161">
        <ele>125.7</ele>
        <time>2019-11-11T08:05:52Z</time>
      </trkpt>
      <trkpt lat="49.33409" lon="1.02155">
        <ele>125.7</ele>
        <time>2019-11-11T08:05:53Z</time>
      </trkpt>
      <trkpt lat="49.33406" lon="1.0215">
        <ele>125.7</ele>
        <time>2019-11-11T08:05:54Z</time>
      </trkpt>
      <trkpt lat="49.33403" lon="1.02144">
        <ele>125.7</ele>
        <time>2019-11-11T08:05:55Z</time>
      </trkpt>
      <trkpt lat="49.334" lon="1.02139">
        <ele>125.7</ele>
        <time>2019-11-11T08:05:56Z</time>
      </trkpt>
      <trkpt lat="49.33397" lon="1.02134">
        <ele>125.7</ele>
        <time>2019-11-11T08:05:57Z</time>
      </trkpt>
      <trkpt lat="49.33394" lon="1.02129">
        <ele>125.7</ele>
        <time>2019-11-11T08:05:58Z</time>
      </trkpt>
      <trkpt lat="49.33391" lon="1.02124">
        <ele>125.7</ele>
        <time>2019-11-11T08:05:59Z</time>
      </trkpt>
      <trkpt lat="49.33388" lon="1.02118">
        <ele>125.7</ele>
        <time>2019-11-11T08:06:00Z</time>
      </trkpt>
      <trkpt lat="49.33385" lon="1.02112">
        <ele>125.7</ele>
        <time>2019-11-11T08:06:01Z</time>
      </trkpt>
      <trkpt lat="49.33383" lon="1.02107">
        <ele>125.7</ele>
        <time>2019-11-11T08:06:02Z</time>
      </trkpt>
      <trkpt lat="49.3338" lon="1.02101">
        <ele>125.7</ele>
        <time>2019-11-11T08:06:03Z</time>
      </trkpt>
      <trkpt lat="49.33377" lon="1.02095">
        <ele>125.7</ele>
        <time>2019-11-11T08:06:04Z</time>
      </trkpt>
      <trkpt lat="49.33374" lon="1.02089">
        <ele>125.7</ele>
        <time>2019-11-11T08:06:05Z</time>
      </trkpt>
      <trkpt lat="49.33371" lon="1.02083">
        <ele>125.7</ele>
        <time>2019-11-11T08:06:06Z</time>
      </trkpt>
      <trkpt lat="49.33368" lon="1.02077">
        <ele>125.7</ele>
        <time>2019-11-11T08:06:07Z</time>
      </trkpt>
      <trkpt lat="49.33365" lon="1.02071">
        <ele>125.7</ele>
        <time>2019-11-11T08:06:08Z</time>
      </trkpt>
      <trkpt lat="49.33362" lon="1.02065">
        <ele>125.7</ele>
        <time>2019-11-11T08:06:09Z</time>
      </trkpt>
      <trkpt lat="49.33359" lon="1.0206">
        <ele>125.7</ele>
        <time>2019-11-11T08:06:10Z</time>
      </trkpt>
      <trkpt lat="49.33356" lon="1.02054">
        <ele>125.7</ele>
        <time>2019-11-11T08:06:11Z</time>
      </trkpt>
      <trkpt lat="49.33353" lon="1.02048">
        <ele>125.7</ele>
        <time>2019-11-11T08:06:12Z</time>
      </trkpt>
      <trkpt lat="49.3335" lon="1.02042">
        <ele>126.8</ele>
        <time>2019-11-11T08:06:13Z</time>
      </trkpt>
      <trkpt lat="49.33347" lon="1.02036">
        <ele>126.8</ele>
        <time>2019-11-11T08:06:14Z</time>
      </trkpt>
      <trkpt lat="49.33344" lon="1.0203">
        <ele>126.8</ele>
        <time>2019-11-11T08:06:15Z</time>
      </trkpt>
      <trkpt lat="49.33341" lon="1.02025">
        <ele>126.8</ele>
        <time>2019-11-11T08:06:16Z</time>
      </trkpt>
      <trkpt lat="49.33338" lon="1.02019">
        <ele>126.8</ele>
        <time>2019-11-11T08:06:17Z</time>
      </trkpt>
      <trkpt lat="49.33335" lon="1.02013">
        <ele>126.8</ele>
        <time>2019-11-11T08:06:18Z</time>
      </trkpt>
      <trkpt lat="49.33332" lon="1.02008">
        <ele>126.8</ele>
        <time>2019-11-11T08:06:19Z</time>
      </trkpt>
      <trkpt lat="49.33329" lon="1.02002">
        <ele>126.8</ele>
        <time>2019-11-11T08:06:20Z</time>
      </trkpt>
      <trkpt lat="49.33326" lon="1.01996">
        <ele>126.8</ele>
        <time>2019-11-11T08:06:21Z</time>
      </trkpt>
      <trkpt lat="49.33323" lon="1.0199">
        <ele>126.8</ele>
        <time>2019-11-11T08:06:22Z</time>
      </trkpt>
      <trkpt lat="49.3332" lon="1.01985">
        <ele>126.8</ele>
        <time>2019-11-11T08:06:23Z</time>
      </trkpt>
      <trkpt lat="49.33317" lon="1.01981">
        <ele>126.8</ele>
        <time>2019-11-11T08:06:24Z</time>
      </trkpt>
      <trkpt lat="49.33314" lon="1.01976">
        <ele>126.8</ele>
        <time>2019-11-11T08:06:25Z</time>
      </trkpt>
      <trkpt lat="49.3331" lon="1.01971">
        <ele>126.8</ele>
        <time>2019-11-11T08:06:26Z</time>
      </trkpt>
      <trkpt lat="49.33307" lon="1.01967">
        <ele>126.8</ele>
        <time>2019-11-11T08:06:27Z</time>
      </trkpt>
      <trkpt lat="49.33303" lon="1.01963">
        <ele>126.8</ele>
        <time>2019-11-11T08:06:28Z</time>
      </trkpt>
      <trkpt lat="49.333" lon="1.0196">
        <ele>126.8</ele>
        <time>2019-11-11T08:06:29Z</time>
      </trkpt>
      <trkpt lat="49.33296" lon="1.01957">
        <ele>126.8</ele>
        <time>2019-11-11T08:06:30Z</time>
      </trkpt>
      <trkpt lat="49.33292" lon="1.01954">
        <ele>126.8</ele>
        <time>2019-11-11T08:06:31Z</time>
      </trkpt>
      <trkpt lat="49.33288" lon="1.01951">
        <ele>126.8</ele>
        <time>2019-11-11T08:06:32Z</time>
      </trkpt>
      <trkpt lat="49.33285" lon="1.01948">
        <ele>126.8</ele>
        <time>2019-11-11T08:06:33Z</time>
      </trkpt>
      <trkpt lat="49.33282" lon="1.01944">
        <ele>126.8</ele>
        <time>2019-11-11T08:06:34Z</time>
      </trkpt>
      <trkpt lat="49.33279" lon="1.0194">
        <ele>126.8</ele>
        <time>2019-11-11T08:06:35Z</time>
      </trkpt>
      <trkpt lat="49.33276" lon="1.01935">
        <ele>126.8</ele>
        <time>2019-11-11T08:06:36Z</time>
      </trkpt>
      <trkpt lat="49.33273" lon="1.01931">
        <ele>126.8</ele>
        <time>2019-11-11T08:06:37Z</time>
      </trkpt>
      <trkpt lat="49.3327" lon="1.01927">
        <ele>126.8</ele>
        <time>2019-11-11T08:06:38Z</time>
      </trkpt>
      <trkpt lat="49.33267" lon="1.01922">
        <ele>126.8</ele>
        <time>2019-11-11T08:06:39Z</time>
      </trkpt>
      <trkpt lat="49.33265" lon="1.01917">
        <ele>126.8</ele>
        <time>2019-11-11T08:06:40Z</time>
      </trkpt>
      <trkpt lat="49.33262" lon="1.01912">
        <ele>126.8</ele>
        <time>2019-11-11T08:06:41Z</time>
      </trkpt>
      <trkpt lat="49.33259" lon="1.01907">
        <ele>126.8</ele>
        <time>2019-11-11T08:06:42Z</time>
      </trkpt>
      <trkpt lat="49.33256" lon="1.01903">
        <ele>126.8</ele>
        <time>2019-11-11T08:06:43Z</time>
      </trkpt>
      <trkpt lat="49.33254" lon="1.01898">
        <ele>126.8</ele>
        <time>2019-11-11T08:06:44Z</time>
      </trkpt>
      <trkpt lat="49.33251" lon="1.01893">
        <ele>126.8</ele>
        <time>2019-11-11T08:06:45Z</time>
      </trkpt>
      <trkpt lat="49.33248" lon="1.01888">
        <ele>126.8</ele>
        <time>2019-11-11T08:06:46Z</time>
      </trkpt>
      <trkpt lat="49.33246" lon="1.01883">
        <ele>126.8</ele>
        <time>2019-11-11T08:06:47Z</time>
      </trkpt>
      <trkpt lat="49.33243" lon="1.01878">
        <ele>126.8</ele>
        <time>2019-11-11T08:06:48Z</time>
      </trkpt>
      <trkpt lat="49.33241" lon="1.01873">
        <ele>126.8</ele>
        <time>2019-11-11T08:06:49Z</time>
      </trkpt>
      <trkpt lat="49.33238" lon="1.01868">
        <ele>126.8</ele>
        <time>2019-11-11T08:06:50Z</time>
      </trkpt>
      <trkpt lat="49.33236" lon="1.01863">
        <ele>126.8</ele>
        <time>2019-11-11T08:06:51Z</time>
      </trkpt>
      <trkpt lat="49.33233" lon="1.01858">
        <ele>126.8</ele>
        <time>2019-11-11T08:06:52Z</time>
      </trkpt>
      <trkpt lat="49.33231" lon="1.01853">
        <ele>126.8</ele>
        <time>2019-11-11T08:06:53Z</time>
      </trkpt>
      <trkpt lat="49.33228" lon="1.01848">
        <ele>126.8</ele>
        <time>2019-11-11T08:06:54Z</time>
      </trkpt>
      <trkpt lat="49.33225" lon="1.01845">
        <ele>126.8</ele>
        <time>2019-11-11T08:06:55Z</time>
      </trkpt>
      <trkpt lat="49.33222" lon="1.01841">
        <ele>126.8</ele>
        <time>2019-11-11T08:06:56Z</time>
      </trkpt>
      <trkpt lat="49.33219" lon="1.01837">
        <ele>126.8</ele>
        <time>2019-11-11T08:06:57Z</time>
      </trkpt>
      <trkpt lat="49.33217" lon="1.01832">
        <ele>126.8</ele>
        <time>2019-11-11T08:06:58Z</time>
      </trkpt>
      <trkpt lat="49.33215" lon="1.01827">
        <ele>126.8</ele>
        <time>2019-11-11T08:06:59Z</time>
      </trkpt>
      <trkpt lat="49.33213" lon="1.01822">
        <ele>126.8</ele>
        <time>2019-11-11T08:07:00Z</time>
      </trkpt>
      <trkpt lat="49.3321" lon="1.01818">
        <ele>126.8</ele>
        <time>2019-11-11T08:07:01Z</time>
      </trkpt>
      <trkpt lat="49.33208" lon="1.01814">
        <ele>126.8</ele>
        <time>2019-11-11T08:07:02Z</time>
      </trkpt>
      <trkpt lat="49.33204" lon="1.01811">
        <ele>127.7</ele>
        <time>2019-11-11T08:07:03Z</time>
      </trkpt>
      <trkpt lat="49.33202" lon="1.01807">
        <ele>127.7</ele>
        <time>2019-11-11T08:07:04Z</time>
      </trkpt>
      <trkpt lat="49.33199" lon="1.01802">
        <ele>127.7</ele>
        <time>2019-11-11T08:07:05Z</time>
      </trkpt>
      <trkpt lat="49.33197" lon="1.01796">
        <ele>127.7</ele>
        <time>2019-11-11T08:07:06Z</time>
      </trkpt>
      <trkpt lat="49.33196" lon="1.01791">
        <ele>127.7</ele>
        <time>2019-11-11T08:07:07Z</time>
      </trkpt>
      <trkpt lat="49.33195" lon="1.01786">
        <ele>127.7</ele>
        <time>2019-11-11T08:07:08Z</time>
      </trkpt>
      <trkpt lat="49.33193" lon="1.01781">
        <ele>127.7</ele>
        <time>2019-11-11T08:07:09Z</time>
      </trkpt>
      <trkpt lat="49.33191" lon="1.01776">
        <ele>127.7</ele>
        <time>2019-11-11T08:07:10Z</time>
      </trkpt>
      <trkpt lat="49.33189" lon="1.01772">
        <ele>127.7</ele>
        <time>2019-11-11T08:07:11Z</time>
      </trkpt>
      <trkpt lat="49.33187" lon="1.01767">
        <ele>127.7</ele>
        <time>2019-11-11T08:07:12Z</time>
      </trkpt>
      <trkpt lat="49.33185" lon="1.01762">
        <ele>127.7</ele>
        <time>2019-11-11T08:07:13Z</time>
      </trkpt>
      <trkpt lat="49.33183" lon="1.01757">
        <ele>127.7</ele>
        <time>2019-11-11T08:07:14Z</time>
      </trkpt>
      <trkpt lat="49.33181" lon="1.01752">
        <ele>127.7</ele>
        <time>2019-11-11T08:07:15Z</time>
      </trkpt>
      <trkpt lat="49.33179" lon="1.01746">
        <ele>127.7</ele>
        <time>2019-11-11T08:07:16Z</time>
      </trkpt>
      <trkpt lat="49.33177" lon="1.01741">
        <ele>127.7</ele>
        <time>2019-11-11T08:07:17Z</time>
      </trkpt>
      <trkpt lat="49.33175" lon="1.01736">
        <ele>127.7</ele>
        <time>2019-11-11T08:07:18Z</time>
      </trkpt>
      <trkpt lat="49.33173" lon="1.01731">
        <ele>127.7</ele>
        <time>2019-11-11T08:07:19Z</time>
      </trkpt>
      <trkpt lat="49.33171" lon="1.01726">
        <ele>127.7</ele>
        <time>2019-11-11T08:07:20Z</time>
      </trkpt>
      <trkpt lat="49.3317" lon="1.01721">
        <ele>127.7</ele>
        <time>2019-11-11T08:07:21Z</time>
      </trkpt>
      <trkpt lat="49.33168" lon="1.01716">
        <ele>127.7</ele>
        <time>2019-11-11T08:07:22Z</time>
      </trkpt>
      <trkpt lat="49.33166" lon="1.0171">
        <ele>127.7</ele>
        <time>2019-11-11T08:07:23Z</time>
      </trkpt>
      <trkpt lat="49.33165" lon="1.01705">
        <ele>127.7</ele>
        <time>2019-11-11T08:07:24Z</time>
      </trkpt>
      <trkpt lat="49.33163" lon="1.017">
        <ele>127.7</ele>
        <time>2019-11-11T08:07:25Z</time>
      </trkpt>
      <trkpt lat="49.33162" lon="1.01694">
        <ele>127.7</ele>
        <time>2019-11-11T08:07:26Z</time>
      </trkpt>
      <trkpt lat="49.33161" lon="1.01689">
        <ele>127.7</ele>
        <time>2019-11-11T08:07:27Z</time>
      </trkpt>
      <trkpt lat="49.3316" lon="1.01684">
        <ele>127.7</ele>
        <time>2019-11-11T08:07:28Z</time>
      </trkpt>
      <trkpt lat="49.33158" lon="1.01679">
        <ele>127.7</ele>
        <time>2019-11-11T08:07:29Z</time>
      </trkpt>
      <trkpt lat="49.33157" lon="1.01674">
        <ele>127.7</ele>
        <time>2019-11-11T08:07:30Z</time>
      </trkpt>
      <trkpt lat="49.33156" lon="1.01669">
        <ele>126.8</ele>
        <time>2019-11-11T08:07:31Z</time>
      </trkpt>
      <trkpt lat="49.33155" lon="1.01665">
        <ele>126.8</ele>
        <time>2019-11-11T08:07:32Z</time>
      </trkpt>
      <trkpt lat="49.33154" lon="1.0166">
        <ele>126.8</ele>
        <time>2019-11-11T08:07:33Z</time>
      </trkpt>
      <trkpt lat="49.33154" lon="1.01656">
        <ele>126.8</ele>
        <time>2019-11-11T08:07:34Z</time>
      </trkpt>
      <trkpt lat="49.33153" lon="1.01653">
        <ele>126.8</ele>
        <time>2019-11-11T08:07:35Z</time>
      </trkpt>
      <trkpt lat="49.33151" lon="1.01649">
        <ele>126.8</ele>
        <time>2019-11-11T08:07:36Z</time>
      </trkpt>
      <trkpt lat="49.33149" lon="1.01645">
        <ele>126.8</ele>
        <time>2019-11-11T08:07:37Z</time>
      </trkpt>
      <trkpt lat="49.33147" lon="1.01641">
        <ele>126.8</ele>
        <time>2019-11-11T08:07:38Z</time>
      </trkpt>
      <trkpt lat="49.33145" lon="1.01637">
        <ele>126.8</ele>
        <time>2019-11-11T08:07:39Z</time>
      </trkpt>
      <trkpt lat="49.33142" lon="1.01632">
        <ele>126.8</ele>
        <time>2019-11-11T08:07:40Z</time>
      </trkpt>
      <trkpt lat="49.3314" lon="1.01627">
        <ele>126.8</ele>
        <time>2019-11-11T08:07:41Z</time>
      </trkpt>
      <trkpt lat="49.33139" lon="1.01622">
        <ele>126.8</ele>
        <time>2019-11-11T08:07:42Z</time>
      </trkpt>
      <trkpt lat="49.33138" lon="1.01616">
        <ele>126.8</ele>
        <time>2019-11-11T08:07:43Z</time>
      </trkpt>
      <trkpt lat="49.33138" lon="1.0161">
        <ele>126.8</ele>
        <time>2019-11-11T08:07:44Z</time>
      </trkpt>
      <trkpt lat="49.33138" lon="1.01604">
        <ele>126.8</ele>
        <time>2019-11-11T08:07:45Z</time>
      </trkpt>
      <trkpt lat="49.33139" lon="1.01598">
        <ele>126.8</ele>
        <time>2019-11-11T08:07:46Z</time>
      </trkpt>
      <trkpt lat="49.3314" lon="1.01593">
        <ele>126.8</ele>
        <time>2019-11-11T08:07:47Z</time>
      </trkpt>
      <trkpt lat="49.33142" lon="1.01587">
        <ele>126.8</ele>
        <time>2019-11-11T08:07:48Z</time>
      </trkpt>
      <trkpt lat="49.33143" lon="1.01582">
        <ele>126.8</ele>
        <time>2019-11-11T08:07:49Z</time>
      </trkpt>
      <trkpt lat="49.33145" lon="1.01577">
        <ele>126.8</ele>
        <time>2019-11-11T08:07:50Z</time>
      </trkpt>
      <trkpt lat="49.33147" lon="1.01572">
        <ele>126.8</ele>
        <time>2019-11-11T08:07:51Z</time>
      </trkpt>
      <trkpt lat="49.33149" lon="1.01568">
        <ele>126.8</ele>
        <time>2019-11-11T08:07:52Z</time>
      </trkpt>
      <trkpt lat="49.3315" lon="1.01563">
        <ele>125.7</ele>
        <time>2019-11-11T08:07:53Z</time>
      </trkpt>
      <trkpt lat="49.33152" lon="1.01559">
        <ele>125.7</ele>
        <time>2019-11-11T08:07:54Z</time>
      </trkpt>
      <trkpt lat="49.33154" lon="1.01554">
        <ele>125.7</ele>
        <time>2019-11-11T08:07:55Z</time>
      </trkpt>
      <trkpt lat="49.33155" lon="1.01549">
        <ele>125.7</ele>
        <time>2019-11-11T08:07:56Z</time>
      </trkpt>
      <trkpt lat="49.33158" lon="1.01544">
        <ele>125.7</ele>
        <time>2019-11-11T08:07:57Z</time>
      </trkpt>
      <trkpt lat="49.3316" lon="1.0154">
        <ele>125.7</ele>
        <time>2019-11-11T08:07:58Z</time>
      </trkpt>
      <trkpt lat="49.33163" lon="1.01536">
        <ele>125.7</ele>
        <time>2019-11-11T08:07:59Z</time>
      </trkpt>
      <trkpt lat="49.33166" lon="1.01532">
        <ele>125.7</ele>
        <time>2019-11-11T08:08:00Z</time>
      </trkpt>
      <trkpt lat="49.33169" lon="1.01528">
        <ele>125.7</ele>
        <time>2019-11-11T08:08:01Z</time>
      </trkpt>
      <trkpt lat="49.33172" lon="1.01523">
        <ele>125.7</ele>
        <time>2019-11-11T08:08:02Z</time>
      </trkpt>
      <trkpt lat="49.33175" lon="1.01518">
        <ele>125.7</ele>
        <time>2019-11-11T08:08:03Z</time>
      </trkpt>
      <trkpt lat="49.33179" lon="1.01514">
        <ele>125.7</ele>
        <time>2019-11-11T08:08:04Z</time>
      </trkpt>
      <trkpt lat="49.33182" lon="1.01511">
        <ele>125.7</ele>
        <time>2019-11-11T08:08:05Z</time>
      </trkpt>
      <trkpt lat="49.33185" lon="1.01509">
        <ele>125.7</ele>
        <time>2019-11-11T08:08:06Z</time>
      </trkpt>
      <trkpt lat="49.33188" lon="1.01506">
        <ele>125.7</ele>
        <time>2019-11-11T08:08:07Z</time>
      </trkpt>
      <trkpt lat="49.33191" lon="1.01502">
        <ele>125.7</ele>
        <time>2019-11-11T08:08:08Z</time>
      </trkpt>
      <trkpt lat="49.33194" lon="1.01498">
        <ele>126.8</ele>
        <time>2019-11-11T08:08:09Z</time>
      </trkpt>
      <trkpt lat="49.33197" lon="1.01493">
        <ele>126.8</ele>
        <time>2019-11-11T08:08:10Z</time>
      </trkpt>
      <trkpt lat="49.33199" lon="1.0149">
        <ele>126.8</ele>
        <time>2019-11-11T08:08:11Z</time>
      </trkpt>
      <trkpt lat="49.33201" lon="1.01486">
        <ele>126.8</ele>
        <time>2019-11-11T08:08:12Z</time>
      </trkpt>
      <trkpt lat="49.33204" lon="1.01481">
        <ele>126.8</ele>
        <time>2019-11-11T08:08:13Z</time>
      </trkpt>
      <trkpt lat="49.33206" lon="1.01475">
        <ele>126.8</ele>
        <time>2019-11-11T08:08:14Z</time>
      </trkpt>
      <trkpt lat="49.33209" lon="1.0147">
        <ele>126.8</ele>
        <time>2019-11-11T08:08:15Z</time>
      </trkpt>
      <trkpt lat="49.33212" lon="1.01465">
        <ele>126.8</ele>
        <time>2019-11-11T08:08:16Z</time>
      </trkpt>
      <trkpt lat="49.33214" lon="1.0146">
        <ele>126.8</ele>
        <time>2019-11-11T08:08:17Z</time>
      </trkpt>
      <trkpt lat="49.33217" lon="1.01455">
        <ele>126.8</ele>
        <time>2019-11-11T08:08:18Z</time>
      </trkpt>
      <trkpt lat="49.3322" lon="1.01451">
        <ele>126.8</ele>
        <time>2019-11-11T08:08:19Z</time>
      </trkpt>
      <trkpt lat="49.33223" lon="1.01446">
        <ele>126.8</ele>
        <time>2019-11-11T08:08:20Z</time>
      </trkpt>
      <trkpt lat="49.33226" lon="1.01441">
        <ele>126.8</ele>
        <time>2019-11-11T08:08:21Z</time>
      </trkpt>
      <trkpt lat="49.33229" lon="1.01436">
        <ele>126.8</ele>
        <time>2019-11-11T08:08:22Z</time>
      </trkpt>
      <trkpt lat="49.33231" lon="1.01433">
        <ele>126.8</ele>
        <time>2019-11-11T08:08:23Z</time>
      </trkpt>
      <trkpt lat="49.33234" lon="1.01428">
        <ele>126.8</ele>
        <time>2019-11-11T08:08:24Z</time>
      </trkpt>
      <trkpt lat="49.33236" lon="1.01424">
        <ele>126.8</ele>
        <time>2019-11-11T08:08:25Z</time>
      </trkpt>
      <trkpt lat="49.33239" lon="1.01419">
        <ele>126.8</ele>
        <time>2019-11-11T08:08:26Z</time>
      </trkpt>
      <trkpt lat="49.33242" lon="1.01415">
        <ele>126.8</ele>
        <time>2019-11-11T08:08:27Z</time>
      </trkpt>
      <trkpt lat="49.33244" lon="1.0141">
        <ele>126.8</ele>
        <time>2019-11-11T08:08:28Z</time>
      </trkpt>
      <trkpt lat="49.33247" lon="1.01405">
        <ele>126.8</ele>
        <time>2019-11-11T08:08:29Z</time>
      </trkpt>
      <trkpt lat="49.3325" lon="1.014">
        <ele>126.8</ele>
        <time>2019-11-11T08:08:30Z</time>
      </trkpt>
      <trkpt lat="49.33253" lon="1.01396">
        <ele>126.8</ele>
        <time>2019-11-11T08:08:31Z</time>
      </trkpt>
      <trkpt lat="49.33256" lon="1.01391">
        <ele>126.8</ele>
        <time>2019-11-11T08:08:32Z</time>
      </trkpt>
      <trkpt lat="49.33259" lon="1.01387">
        <ele>126.8</ele>
        <time>2019-11-11T08:08:33Z</time>
      </trkpt>
      <trkpt lat="49.33262" lon="1.01383">
        <ele>126.8</ele>
        <time>2019-11-11T08:08:34Z</time>
      </trkpt>
      <trkpt lat="49.33265" lon="1.01379">
        <ele>126.8</ele>
        <time>2019-11-11T08:08:35Z</time>
      </trkpt>
      <trkpt lat="49.33267" lon="1.01376">
        <ele>126.8</ele>
        <time>2019-11-11T08:08:36Z</time>
      </trkpt>
      <trkpt lat="49.3327" lon="1.01372">
        <ele>126.8</ele>
        <time>2019-11-11T08:08:37Z</time>
      </trkpt>
      <trkpt lat="49.33273" lon="1.01369">
        <ele>126.8</ele>
        <time>2019-11-11T08:08:38Z</time>
      </trkpt>
      <trkpt lat="49.33276" lon="1.01365">
        <ele>126.8</ele>
        <time>2019-11-11T08:08:39Z</time>
      </trkpt>
      <trkpt lat="49.33277" lon="1.0136">
        <ele>126.8</ele>
        <time>2019-11-11T08:08:40Z</time>
      </trkpt>
      <trkpt lat="49.33276" lon="1.01356">
        <ele>126.8</ele>
        <time>2019-11-11T08:08:41Z</time>
      </trkpt>
      <trkpt lat="49.33275" lon="1.0135">
        <ele>126.8</ele>
        <time>2019-11-11T08:08:42Z</time>
      </trkpt>
      <trkpt lat="49.33274" lon="1.01345">
        <ele>126.8</ele>
        <time>2019-11-11T08:08:43Z</time>
      </trkpt>
      <trkpt lat="49.33272" lon="1.01339">
        <ele>126.8</ele>
        <time>2019-11-11T08:08:44Z</time>
      </trkpt>
      <trkpt lat="49.3327" lon="1.01333">
        <ele>126.8</ele>
        <time>2019-11-11T08:08:45Z</time>
      </trkpt>
      <trkpt lat="49.33268" lon="1.01328">
        <ele>126.8</ele>
        <time>2019-11-11T08:08:46Z</time>
      </trkpt>
      <trkpt lat="49.33266" lon="1.01322">
        <ele>126.8</ele>
        <time>2019-11-11T08:08:47Z</time>
      </trkpt>
      <trkpt lat="49.33264" lon="1.01316">
        <ele>126.8</ele>
        <time>2019-11-11T08:08:48Z</time>
      </trkpt>
      <trkpt lat="49.33262" lon="1.0131">
        <ele>126.8</ele>
        <time>2019-11-11T08:08:49Z</time>
      </trkpt>
      <trkpt lat="49.3326" lon="1.01304">
        <ele>126.8</ele>
        <time>2019-11-11T08:08:50Z</time>
      </trkpt>
      <trkpt lat="49.33259" lon="1.01297">
        <ele>126.8</ele>
        <time>2019-11-11T08:08:51Z</time>
      </trkpt>
      <trkpt lat="49.33257" lon="1.0129">
        <ele>126.8</ele>
        <time>2019-11-11T08:08:52Z</time>
      </trkpt>
      <trkpt lat="49.33255" lon="1.01284">
        <ele>126.8</ele>
        <time>2019-11-11T08:08:53Z</time>
      </trkpt>
      <trkpt lat="49.33253" lon="1.01278">
        <ele>126.8</ele>
        <time>2019-11-11T08:08:54Z</time>
      </trkpt>
      <trkpt lat="49.33251" lon="1.01272">
        <ele>125.7</ele>
        <time>2019-11-11T08:08:55Z</time>
      </trkpt>
      <trkpt lat="49.33249" lon="1.01266">
        <ele>125.7</ele>
        <time>2019-11-11T08:08:56Z</time>
      </trkpt>
      <trkpt lat="49.33247" lon="1.0126">
        <ele>125.7</ele>
        <time>2019-11-11T08:08:57Z</time>
      </trkpt>
      <trkpt lat="49.33245" lon="1.01254">
        <ele>125.7</ele>
        <time>2019-11-11T08:08:58Z</time>
      </trkpt>
      <trkpt lat="49.33243" lon="1.01247">
        <ele>125.7</ele>
        <time>2019-11-11T08:08:59Z</time>
      </trkpt>
      <trkpt lat="49.3324" lon="1.01241">
        <ele>125.7</ele>
        <time>2019-11-11T08:09:00Z</time>
      </trkpt>
      <trkpt lat="49.33238" lon="1.01235">
        <ele>125.7</ele>
        <time>2019-11-11T08:09:01Z</time>
      </trkpt>
      <trkpt lat="49.33236" lon="1.01229">
        <ele>125.7</ele>
        <time>2019-11-11T08:09:02Z</time>
      </trkpt>
      <trkpt lat="49.33234" lon="1.01223">
        <ele>125.7</ele>
        <time>2019-11-11T08:09:03Z</time>
      </trkpt>
      <trkpt lat="49.33232" lon="1.01216">
        <ele>125.7</ele>
        <time>2019-11-11T08:09:04Z</time>
      </trkpt>
      <trkpt lat="49.3323" lon="1.0121">
        <ele>125.7</ele>
        <time>2019-11-11T08:09:05Z</time>
      </trkpt>
      <trkpt lat="49.33229" lon="1.01205">
        <ele>125.7</ele>
        <time>2019-11-11T08:09:06Z</time>
      </trkpt>
      <trkpt lat="49.33226" lon="1.01199">
        <ele>125.7</ele>
        <time>2019-11-11T08:09:07Z</time>
      </trkpt>
      <trkpt lat="49.33224" lon="1.01193">
        <ele>125.7</ele>
        <time>2019-11-11T08:09:08Z</time>
      </trkpt>
      <trkpt lat="49.33222" lon="1.01187">
        <ele>125.7</ele>
        <time>2019-11-11T08:09:09Z</time>
      </trkpt>
      <trkpt lat="49.3322" lon="1.0118">
        <ele>125.7</ele>
        <time>2019-11-11T08:09:10Z</time>
      </trkpt>
      <trkpt lat="49.33218" lon="1.01174">
        <ele>125.7</ele>
        <time>2019-11-11T08:09:11Z</time>
      </trkpt>
      <trkpt lat="49.33216" lon="1.01169">
        <ele>125.7</ele>
        <time>2019-11-11T08:09:12Z</time>
      </trkpt>
      <trkpt lat="49.33215" lon="1.01163">
        <ele>124.8</ele>
        <time>2019-11-11T08:09:13Z</time>
      </trkpt>
      <trkpt lat="49.33213" lon="1.01157">
        <ele>124.8</ele>
        <time>2019-11-11T08:09:14Z</time>
      </trkpt>
      <trkpt lat="49.33211" lon="1.01152">
        <ele>124.8</ele>
        <time>2019-11-11T08:09:15Z</time>
      </trkpt>
      <trkpt lat="49.33209" lon="1.01146">
        <ele>124.8</ele>
        <time>2019-11-11T08:09:16Z</time>
      </trkpt>
      <trkpt lat="49.33207" lon="1.01141">
        <ele>124.8</ele>
        <time>2019-11-11T08:09:17Z</time>
      </trkpt>
      <trkpt lat="49.33205" lon="1.01136">
        <ele>124.8</ele>
        <time>2019-11-11T08:09:18Z</time>
      </trkpt>
      <trkpt lat="49.33202" lon="1.0113">
        <ele>123.8</ele>
        <time>2019-11-11T08:09:19Z</time>
      </trkpt>
      <trkpt lat="49.332" lon="1.01125">
        <ele>123.8</ele>
        <time>2019-11-11T08:09:20Z</time>
      </trkpt>
      <trkpt lat="49.33199" lon="1.01119">
        <ele>123.8</ele>
        <time>2019-11-11T08:09:21Z</time>
      </trkpt>
      <trkpt lat="49.33197" lon="1.01113">
        <ele>123.8</ele>
        <time>2019-11-11T08:09:22Z</time>
      </trkpt>
      <trkpt lat="49.33195" lon="1.01106">
        <ele>123.8</ele>
        <time>2019-11-11T08:09:23Z</time>
      </trkpt>
      <trkpt lat="49.33194" lon="1.011">
        <ele>123.8</ele>
        <time>2019-11-11T08:09:24Z</time>
      </trkpt>
      <trkpt lat="49.33192" lon="1.01094">
        <ele>123.8</ele>
        <time>2019-11-11T08:09:25Z</time>
      </trkpt>
      <trkpt lat="49.3319" lon="1.01087">
        <ele>123.8</ele>
        <time>2019-11-11T08:09:26Z</time>
      </trkpt>
      <trkpt lat="49.33189" lon="1.01081">
        <ele>123.8</ele>
        <time>2019-11-11T08:09:27Z</time>
      </trkpt>
      <trkpt lat="49.33187" lon="1.01075">
        <ele>123.8</ele>
        <time>2019-11-11T08:09:28Z</time>
      </trkpt>
      <trkpt lat="49.33185" lon="1.0107">
        <ele>123.8</ele>
        <time>2019-11-11T08:09:29Z</time>
      </trkpt>
      <trkpt lat="49.33182" lon="1.01064">
        <ele>123.8</ele>
        <time>2019-11-11T08:09:30Z</time>
      </trkpt>
      <trkpt lat="49.3318" lon="1.01058">
        <ele>123.8</ele>
        <time>2019-11-11T08:09:31Z</time>
      </trkpt>
      <trkpt lat="49.33178" lon="1.01053">
        <ele>123.8</ele>
        <time>2019-11-11T08:09:32Z</time>
      </trkpt>
      <trkpt lat="49.33175" lon="1.01047">
        <ele>122.7</ele>
        <time>2019-11-11T08:09:33Z</time>
      </trkpt>
      <trkpt lat="49.33173" lon="1.01042">
        <ele>122.7</ele>
        <time>2019-11-11T08:09:34Z</time>
      </trkpt>
      <trkpt lat="49.3317" lon="1.01037">
        <ele>122.7</ele>
        <time>2019-11-11T08:09:35Z</time>
      </trkpt>
      <trkpt lat="49.33168" lon="1.01033">
        <ele>122.7</ele>
        <time>2019-11-11T08:09:36Z</time>
      </trkpt>
      <trkpt lat="49.33165" lon="1.01028">
        <ele>122.7</ele>
        <time>2019-11-11T08:09:37Z</time>
      </trkpt>
      <trkpt lat="49.33162" lon="1.01024">
        <ele>122.7</ele>
        <time>2019-11-11T08:09:38Z</time>
      </trkpt>
      <trkpt lat="49.3316" lon="1.01021">
        <ele>122.7</ele>
        <time>2019-11-11T08:09:39Z</time>
      </trkpt>
      <trkpt lat="49.33157" lon="1.01018">
        <ele>122.7</ele>
        <time>2019-11-11T08:09:40Z</time>
      </trkpt>
      <trkpt lat="49.33153" lon="1.01015">
        <ele>122.7</ele>
        <time>2019-11-11T08:09:41Z</time>
      </trkpt>
      <trkpt lat="49.3315" lon="1.01012">
        <ele>122.7</ele>
        <time>2019-11-11T08:09:42Z</time>
      </trkpt>
      <trkpt lat="49.33146" lon="1.01008">
        <ele>122.7</ele>
        <time>2019-11-11T08:09:43Z</time>
      </trkpt>
      <trkpt lat="49.33143" lon="1.01004">
        <ele>122.7</ele>
        <time>2019-11-11T08:09:44Z</time>
      </trkpt>
      <trkpt lat="49.33139" lon="1.01001">
        <ele>121.8</ele>
        <time>2019-11-11T08:09:45Z</time>
      </trkpt>
      <trkpt lat="49.33135" lon="1.00998">
        <ele>121.8</ele>
        <time>2019-11-11T08:09:46Z</time>
      </trkpt>
      <trkpt lat="49.33131" lon="1.00994">
        <ele>121.8</ele>
        <time>2019-11-11T08:09:47Z</time>
      </trkpt>
      <trkpt lat="49.33127" lon="1.0099">
        <ele>121.8</ele>
        <time>2019-11-11T08:09:48Z</time>
      </trkpt>
      <trkpt lat="49.33124" lon="1.00984">
        <ele>120.7</ele>
        <time>2019-11-11T08:09:49Z</time>
      </trkpt>
      <trkpt lat="49.3312" lon="1.00978">
        <ele>120.7</ele>
        <time>2019-11-11T08:09:50Z</time>
      </trkpt>
      <trkpt lat="49.33117" lon="1.00973">
        <ele>119.8</ele>
        <time>2019-11-11T08:09:51Z</time>
      </trkpt>
      <trkpt lat="49.33113" lon="1.00968">
        <ele>119.8</ele>
        <time>2019-11-11T08:09:52Z</time>
      </trkpt>
      <trkpt lat="49.33108" lon="1.00965">
        <ele>119.8</ele>
        <time>2019-11-11T08:09:53Z</time>
      </trkpt>
      <trkpt lat="49.33103" lon="1.00962">
        <ele>119.8</ele>
        <time>2019-11-11T08:09:54Z</time>
      </trkpt>
      <trkpt lat="49.33099" lon="1.00959">
        <ele>118.7</ele>
        <time>2019-11-11T08:09:55Z</time>
      </trkpt>
      <trkpt lat="49.33094" lon="1.00955">
        <ele>118.7</ele>
        <time>2019-11-11T08:09:56Z</time>
      </trkpt>
      <trkpt lat="49.33091" lon="1.00952">
        <ele>118.7</ele>
        <time>2019-11-11T08:09:57Z</time>
      </trkpt>
      <trkpt lat="49.33087" lon="1.00948">
        <ele>118.7</ele>
        <time>2019-11-11T08:09:58Z</time>
      </trkpt>
      <trkpt lat="49.33084" lon="1.00944">
        <ele>117.8</ele>
        <time>2019-11-11T08:09:59Z</time>
      </trkpt>
      <trkpt lat="49.33081" lon="1.00941">
        <ele>117.8</ele>
        <time>2019-11-11T08:10:00Z</time>
      </trkpt>
      <trkpt lat="49.33078" lon="1.00937">
        <ele>117.8</ele>
        <time>2019-11-11T08:10:01Z</time>
      </trkpt>
      <trkpt lat="49.33077" lon="1.00934">
        <ele>117.8</ele>
        <time>2019-11-11T08:10:02Z</time>
      </trkpt>
      <trkpt lat="49.33075" lon="1.0093">
        <ele>117.8</ele>
        <time>2019-11-11T08:10:03Z</time>
      </trkpt>
      <trkpt lat="49.33073" lon="1.00925">
        <ele>117.8</ele>
        <time>2019-11-11T08:10:04Z</time>
      </trkpt>
      <trkpt lat="49.33072" lon="1.00921">
        <ele>117.8</ele>
        <time>2019-11-11T08:10:05Z</time>
      </trkpt>
      <trkpt lat="49.3307" lon="1.00917">
        <ele>117.8</ele>
        <time>2019-11-11T08:10:06Z</time>
      </trkpt>
      <trkpt lat="49.33069" lon="1.00913">
        <ele>117.8</ele>
        <time>2019-11-11T08:10:07Z</time>
      </trkpt>
      <trkpt lat="49.33068" lon="1.00909">
        <ele>117.8</ele>
        <time>2019-11-11T08:10:08Z</time>
      </trkpt>
      <trkpt lat="49.33067" lon="1.00905">
        <ele>117.8</ele>
        <time>2019-11-11T08:10:09Z</time>
      </trkpt>
      <trkpt lat="49.33066" lon="1.00901">
        <ele>117.8</ele>
        <time>2019-11-11T08:10:10Z</time>
      </trkpt>
      <trkpt lat="49.33065" lon="1.00898">
        <ele>117.8</ele>
        <time>2019-11-11T08:10:11Z</time>
      </trkpt>
      <trkpt lat="49.33064" lon="1.00894">
        <ele>117.8</ele>
        <time>2019-11-11T08:10:12Z</time>
      </trkpt>
      <trkpt lat="49.33062" lon="1.00891">
        <ele>116.7</ele>
        <time>2019-11-11T08:10:13Z</time>
      </trkpt>
      <trkpt lat="49.33061" lon="1.00888">
        <ele>116.7</ele>
        <time>2019-11-11T08:10:14Z</time>
      </trkpt>
      <trkpt lat="49.33059" lon="1.00885">
        <ele>116.7</ele>
        <time>2019-11-11T08:10:15Z</time>
      </trkpt>
      <trkpt lat="49.33057" lon="1.00881">
        <ele>116.7</ele>
        <time>2019-11-11T08:10:16Z</time>
      </trkpt>
      <trkpt lat="49.33056" lon="1.00878">
        <ele>116.7</ele>
        <time>2019-11-11T08:10:17Z</time>
      </trkpt>
      <trkpt lat="49.33056" lon="1.00874">
        <ele>116.7</ele>
        <time>2019-11-11T08:10:18Z</time>
      </trkpt>
      <trkpt lat="49.33056" lon="1.00869">
        <ele>116.7</ele>
        <time>2019-11-11T08:10:19Z</time>
      </trkpt>
      <trkpt lat="49.33056" lon="1.00864">
        <ele>116.7</ele>
        <time>2019-11-11T08:10:20Z</time>
      </trkpt>
      <trkpt lat="49.33055" lon="1.00858">
        <ele>116.7</ele>
        <time>2019-11-11T08:10:21Z</time>
      </trkpt>
      <trkpt lat="49.33054" lon="1.00853">
        <ele>116.7</ele>
        <time>2019-11-11T08:10:22Z</time>
      </trkpt>
      <trkpt lat="49.33053" lon="1.00849">
        <ele>116.7</ele>
        <time>2019-11-11T08:10:23Z</time>
      </trkpt>
      <trkpt lat="49.33051" lon="1.00844">
        <ele>116.7</ele>
        <time>2019-11-11T08:10:24Z</time>
      </trkpt>
      <trkpt lat="49.3305" lon="1.0084">
        <ele>116.7</ele>
        <time>2019-11-11T08:10:25Z</time>
      </trkpt>
      <trkpt lat="49.33049" lon="1.00835">
        <ele>116.7</ele>
        <time>2019-11-11T08:10:26Z</time>
      </trkpt>
      <trkpt lat="49.33048" lon="1.00831">
        <ele>116.7</ele>
        <time>2019-11-11T08:10:27Z</time>
      </trkpt>
      <trkpt lat="49.33046" lon="1.00828">
        <ele>116.7</ele>
        <time>2019-11-11T08:10:28Z</time>
      </trkpt>
      <trkpt lat="49.33044" lon="1.00824">
        <ele>116.7</ele>
        <time>2019-11-11T08:10:29Z</time>
      </trkpt>
      <trkpt lat="49.33042" lon="1.00821">
        <ele>116.7</ele>
        <time>2019-11-11T08:10:30Z</time>
      </trkpt>
      <trkpt lat="49.3304" lon="1.00817">
        <ele>115.7</ele>
        <time>2019-11-11T08:10:31Z</time>
      </trkpt>
      <trkpt lat="49.33038" lon="1.00814">
        <ele>115.7</ele>
        <time>2019-11-11T08:10:32Z</time>
      </trkpt>
      <trkpt lat="49.33036" lon="1.0081">
        <ele>115.7</ele>
        <time>2019-11-11T08:10:33Z</time>
      </trkpt>
      <trkpt lat="49.33034" lon="1.00805">
        <ele>115.7</ele>
        <time>2019-11-11T08:10:34Z</time>
      </trkpt>
      <trkpt lat="49.33032" lon="1.00801">
        <ele>115.7</ele>
        <time>2019-11-11T08:10:35Z</time>
      </trkpt>
      <trkpt lat="49.3303" lon="1.00797">
        <ele>115.7</ele>
        <time>2019-11-11T08:10:36Z</time>
      </trkpt>
      <trkpt lat="49.33027" lon="1.00793">
        <ele>115.7</ele>
        <time>2019-11-11T08:10:37Z</time>
      </trkpt>
      <trkpt lat="49.33024" lon="1.00789">
        <ele>115.7</ele>
        <time>2019-11-11T08:10:38Z</time>
      </trkpt>
      <trkpt lat="49.33022" lon="1.00785">
        <ele>115.7</ele>
        <time>2019-11-11T08:10:39Z</time>
      </trkpt>
      <trkpt lat="49.33019" lon="1.00781">
        <ele>115.7</ele>
        <time>2019-11-11T08:10:40Z</time>
      </trkpt>
      <trkpt lat="49.33016" lon="1.00776">
        <ele>115.7</ele>
        <time>2019-11-11T08:10:41Z</time>
      </trkpt>
      <trkpt lat="49.33014" lon="1.00772">
        <ele>115.7</ele>
        <time>2019-11-11T08:10:42Z</time>
      </trkpt>
      <trkpt lat="49.33011" lon="1.00767">
        <ele>115.7</ele>
        <time>2019-11-11T08:10:43Z</time>
      </trkpt>
      <trkpt lat="49.33008" lon="1.00762">
        <ele>115.7</ele>
        <time>2019-11-11T08:10:44Z</time>
      </trkpt>
      <trkpt lat="49.33004" lon="1.00758">
        <ele>114.8</ele>
        <time>2019-11-11T08:10:45Z</time>
      </trkpt>
      <trkpt lat="49.33001" lon="1.00754">
        <ele>114.8</ele>
        <time>2019-11-11T08:10:46Z</time>
      </trkpt>
      <trkpt lat="49.32999" lon="1.00751">
        <ele>114.8</ele>
        <time>2019-11-11T08:10:47Z</time>
      </trkpt>
      <trkpt lat="49.32996" lon="1.00749">
        <ele>114.8</ele>
        <time>2019-11-11T08:10:48Z</time>
      </trkpt>
      <trkpt lat="49.32993" lon="1.00746">
        <ele>113.7</ele>
        <time>2019-11-11T08:10:49Z</time>
      </trkpt>
      <trkpt lat="49.3299" lon="1.00743">
        <ele>113.7</ele>
        <time>2019-11-11T08:10:50Z</time>
      </trkpt>
      <trkpt lat="49.32987" lon="1.00741">
        <ele>113.7</ele>
        <time>2019-11-11T08:10:51Z</time>
      </trkpt>
      <trkpt lat="49.32984" lon="1.0074">
        <ele>113.7</ele>
        <time>2019-11-11T08:10:52Z</time>
      </trkpt>
      <trkpt lat="49.32981" lon="1.00739">
        <ele>113.7</ele>
        <time>2019-11-11T08:10:53Z</time>
      </trkpt>
      <trkpt lat="49.32978" lon="1.00739">
        <ele>113.7</ele>
        <time>2019-11-11T08:10:54Z</time>
      </trkpt>
      <trkpt lat="49.32975" lon="1.00738">
        <ele>113.7</ele>
        <time>2019-11-11T08:10:55Z</time>
      </trkpt>
      <trkpt lat="49.32972" lon="1.00737">
        <ele>113.7</ele>
        <time>2019-11-11T08:10:56Z</time>
      </trkpt>
      <trkpt lat="49.3297" lon="1.00736">
        <ele>113.7</ele>
        <time>2019-11-11T08:10:57Z</time>
      </trkpt>
      <trkpt lat="49.32968" lon="1.00734">
        <ele>113.7</ele>
        <time>2019-11-11T08:10:58Z</time>
      </trkpt>
      <trkpt lat="49.32965" lon="1.00731">
        <ele>113.7</ele>
        <time>2019-11-11T08:10:59Z</time>
      </trkpt>
      <trkpt lat="49.32963" lon="1.00729">
        <ele>113.7</ele>
        <time>2019-11-11T08:11:00Z</time>
      </trkpt>
      <trkpt lat="49.3296" lon="1.00726">
        <ele>113.7</ele>
        <time>2019-11-11T08:11:01Z</time>
      </trkpt>
      <trkpt lat="49.32958" lon="1.00723">
        <ele>113.7</ele>
        <time>2019-11-11T08:11:02Z</time>
      </trkpt>
      <trkpt lat="49.32955" lon="1.00721">
        <ele>113.7</ele>
        <time>2019-11-11T08:11:03Z</time>
      </trkpt>
      <trkpt lat="49.32952" lon="1.00718">
        <ele>113.7</ele>
        <time>2019-11-11T08:11:04Z</time>
      </trkpt>
      <trkpt lat="49.3295" lon="1.00715">
        <ele>113.7</ele>
        <time>2019-11-11T08:11:05Z</time>
      </trkpt>
      <trkpt lat="49.32948" lon="1.00711">
        <ele>113.7</ele>
        <time>2019-11-11T08:11:06Z</time>
      </trkpt>
      <trkpt lat="49.32946" lon="1.00707">
        <ele>113.7</ele>
        <time>2019-11-11T08:11:07Z</time>
      </trkpt>
      <trkpt lat="49.32944" lon="1.00704">
        <ele>113.7</ele>
        <time>2019-11-11T08:11:08Z</time>
      </trkpt>
      <trkpt lat="49.32942" lon="1.007">
        <ele>113.7</ele>
        <time>2019-11-11T08:11:09Z</time>
      </trkpt>
      <trkpt lat="49.3294" lon="1.00695">
        <ele>113.7</ele>
        <time>2019-11-11T08:11:10Z</time>
      </trkpt>
      <trkpt lat="49.32938" lon="1.00691">
        <ele>113.7</ele>
        <time>2019-11-11T08:11:11Z</time>
      </trkpt>
      <trkpt lat="49.32935" lon="1.00687">
        <ele>113.7</ele>
        <time>2019-11-11T08:11:12Z</time>
      </trkpt>
      <trkpt lat="49.32933" lon="1.00683">
        <ele>113.7</ele>
        <time>2019-11-11T08:11:13Z</time>
      </trkpt>
      <trkpt lat="49.3293" lon="1.00677">
        <ele>113.7</ele>
        <time>2019-11-11T08:11:14Z</time>
      </trkpt>
      <trkpt lat="49.32928" lon="1.00672">
        <ele>113.7</ele>
        <time>2019-11-11T08:11:15Z</time>
      </trkpt>
      <trkpt lat="49.32925" lon="1.00668">
        <ele>113.7</ele>
        <time>2019-11-11T08:11:16Z</time>
      </trkpt>
      <trkpt lat="49.32922" lon="1.00665">
        <ele>112.8</ele>
        <time>2019-11-11T08:11:17Z</time>
      </trkpt>
      <trkpt lat="49.32919" lon="1.00663">
        <ele>112.8</ele>
        <time>2019-11-11T08:11:18Z</time>
      </trkpt>
      <trkpt lat="49.32917" lon="1.00661">
        <ele>112.8</ele>
        <time>2019-11-11T08:11:19Z</time>
      </trkpt>
      <trkpt lat="49.32913" lon="1.0066">
        <ele>112.8</ele>
        <time>2019-11-11T08:11:20Z</time>
      </trkpt>
      <trkpt lat="49.32911" lon="1.00658">
        <ele>112.8</ele>
        <time>2019-11-11T08:11:21Z</time>
      </trkpt>
      <trkpt lat="49.32908" lon="1.00656">
        <ele>112.8</ele>
        <time>2019-11-11T08:11:22Z</time>
      </trkpt>
      <trkpt lat="49.32906" lon="1.00652">
        <ele>112.8</ele>
        <time>2019-11-11T08:11:23Z</time>
      </trkpt>
      <trkpt lat="49.32904" lon="1.00648">
        <ele>112.8</ele>
        <time>2019-11-11T08:11:24Z</time>
      </trkpt>
      <trkpt lat="49.32902" lon="1.00642">
        <ele>112.8</ele>
        <time>2019-11-11T08:11:25Z</time>
      </trkpt>
      <trkpt lat="49.329" lon="1.00637">
        <ele>112.8</ele>
        <time>2019-11-11T08:11:26Z</time>
      </trkpt>
      <trkpt lat="49.32899" lon="1.00632">
        <ele>112.8</ele>
        <time>2019-11-11T08:11:27Z</time>
      </trkpt>
      <trkpt lat="49.32898" lon="1.00627">
        <ele>112.8</ele>
        <time>2019-11-11T08:11:28Z</time>
      </trkpt>
      <trkpt lat="49.32896" lon="1.00622">
        <ele>111.7</ele>
        <time>2019-11-11T08:11:29Z</time>
      </trkpt>
      <trkpt lat="49.32895" lon="1.00617">
        <ele>111.7</ele>
        <time>2019-11-11T08:11:30Z</time>
      </trkpt>
      <trkpt lat="49.32893" lon="1.00612">
        <ele>111.7</ele>
        <time>2019-11-11T08:11:31Z</time>
      </trkpt>
      <trkpt lat="49.32891" lon="1.00608">
        <ele>111.7</ele>
        <time>2019-11-11T08:11:32Z</time>
      </trkpt>
      <trkpt lat="49.32889" lon="1.00603">
        <ele>111.7</ele>
        <time>2019-11-11T08:11:33Z</time>
      </trkpt>
      <trkpt lat="49.32887" lon="1.00598">
        <ele>111.7</ele>
        <time>2019-11-11T08:11:34Z</time>
      </trkpt>
      <trkpt lat="49.32885" lon="1.00594">
        <ele>110.8</ele>
        <time>2019-11-11T08:11:35Z</time>
      </trkpt>
      <trkpt lat="49.32883" lon="1.0059">
        <ele>110.8</ele>
        <time>2019-11-11T08:11:36Z</time>
      </trkpt>
      <trkpt lat="49.32882" lon="1.00586">
        <ele>110.8</ele>
        <time>2019-11-11T08:11:37Z</time>
      </trkpt>
      <trkpt lat="49.32881" lon="1.00581">
        <ele>110.8</ele>
        <time>2019-11-11T08:11:38Z</time>
      </trkpt>
      <trkpt lat="49.3288" lon="1.00576">
        <ele>110.8</ele>
        <time>2019-11-11T08:11:39Z</time>
      </trkpt>
      <trkpt lat="49.32879" lon="1.00571">
        <ele>110.8</ele>
        <time>2019-11-11T08:11:40Z</time>
      </trkpt>
      <trkpt lat="49.32878" lon="1.00565">
        <ele>109.7</ele>
        <time>2019-11-11T08:11:41Z</time>
      </trkpt>
      <trkpt lat="49.32878" lon="1.00559">
        <ele>109.7</ele>
        <time>2019-11-11T08:11:42Z</time>
      </trkpt>
      <trkpt lat="49.32879" lon="1.00552">
        <ele>109.7</ele>
        <time>2019-11-11T08:11:43Z</time>
      </trkpt>
      <trkpt lat="49.3288" lon="1.00544">
        <ele>109.7</ele>
        <time>2019-11-11T08:11:44Z</time>
      </trkpt>
      <trkpt lat="49.32882" lon="1.00538">
        <ele>108.8</ele>
        <time>2019-11-11T08:11:45Z</time>
      </trkpt>
      <trkpt lat="49.32884" lon="1.00532">
        <ele>108.8</ele>
        <time>2019-11-11T08:11:46Z</time>
      </trkpt>
      <trkpt lat="49.32885" lon="1.00524">
        <ele>107.7</ele>
        <time>2019-11-11T08:11:47Z</time>
      </trkpt>
      <trkpt lat="49.32886" lon="1.00516">
        <ele>107.7</ele>
        <time>2019-11-11T08:11:48Z</time>
      </trkpt>
      <trkpt lat="49.32886" lon="1.00508">
        <ele>106.7</ele>
        <time>2019-11-11T08:11:49Z</time>
      </trkpt>
      <trkpt lat="49.32886" lon="1.005">
        <ele>106.7</ele>
        <time>2019-11-11T08:11:50Z</time>
      </trkpt>
      <trkpt lat="49.32887" lon="1.00493">
        <ele>105.8</ele>
        <time>2019-11-11T08:11:51Z</time>
      </trkpt>
      <trkpt lat="49.32888" lon="1.00487">
        <ele>105.8</ele>
        <time>2019-11-11T08:11:52Z</time>
      </trkpt>
      <trkpt lat="49.32888" lon="1.00481">
        <ele>104.7</ele>
        <time>2019-11-11T08:11:53Z</time>
      </trkpt>
      <trkpt lat="49.32886" lon="1.00477">
        <ele>104.7</ele>
        <time>2019-11-11T08:11:54Z</time>
      </trkpt>
      <trkpt lat="49.32884" lon="1.00472">
        <ele>103.8</ele>
        <time>2019-11-11T08:11:55Z</time>
      </trkpt>
      <trkpt lat="49.32882" lon="1.00468">
        <ele>103.8</ele>
        <time>2019-11-11T08:11:56Z</time>
      </trkpt>
      <trkpt lat="49.32879" lon="1.00465">
        <ele>103.8</ele>
        <time>2019-11-11T08:11:57Z</time>
      </trkpt>
      <trkpt lat="49.32876" lon="1.00462">
        <ele>103.8</ele>
        <time>2019-11-11T08:11:58Z</time>
      </trkpt>
      <trkpt lat="49.32872" lon="1.00459">
        <ele>102.7</ele>
        <time>2019-11-11T08:11:59Z</time>
      </trkpt>
      <trkpt lat="49.32869" lon="1.00456">
        <ele>102.7</ele>
        <time>2019-11-11T08:12:00Z</time>
      </trkpt>
      <trkpt lat="49.32867" lon="1.00452">
        <ele>102.7</ele>
        <time>2019-11-11T08:12:01Z</time>
      </trkpt>
      <trkpt lat="49.32864" lon="1.00446">
        <ele>102.7</ele>
        <time>2019-11-11T08:12:02Z</time>
      </trkpt>
      <trkpt lat="49.32863" lon="1.00442">
        <ele>101.8</ele>
        <time>2019-11-11T08:12:03Z</time>
      </trkpt>
      <trkpt lat="49.32862" lon="1.00437">
        <ele>101.8</ele>
        <time>2019-11-11T08:12:04Z</time>
      </trkpt>
      <trkpt lat="49.32862" lon="1.00432">
        <ele>101.8</ele>
        <time>2019-11-11T08:12:05Z</time>
      </trkpt>
      <trkpt lat="49.32862" lon="1.00427">
        <ele>101.8</ele>
        <time>2019-11-11T08:12:06Z</time>
      </trkpt>
      <trkpt lat="49.32862" lon="1.00421">
        <ele>101.8</ele>
        <time>2019-11-11T08:12:07Z</time>
      </trkpt>
      <trkpt lat="49.3286" lon="1.00417">
        <ele>101.8</ele>
        <time>2019-11-11T08:12:08Z</time>
      </trkpt>
      <trkpt lat="49.32858" lon="1.00412">
        <ele>101.8</ele>
        <time>2019-11-11T08:12:09Z</time>
      </trkpt>
      <trkpt lat="49.32856" lon="1.00409">
        <ele>101.8</ele>
        <time>2019-11-11T08:12:10Z</time>
      </trkpt>
      <trkpt lat="49.32854" lon="1.00406">
        <ele>98.8</ele>
        <time>2019-11-11T08:12:11Z</time>
      </trkpt>
      <trkpt lat="49.32852" lon="1.00403">
        <ele>98.8</ele>
        <time>2019-11-11T08:12:12Z</time>
      </trkpt>
      <trkpt lat="49.3285" lon="1.004">
        <ele>97.7</ele>
        <time>2019-11-11T08:12:13Z</time>
      </trkpt>
      <trkpt lat="49.32848" lon="1.00397">
        <ele>97.7</ele>
        <time>2019-11-11T08:12:14Z</time>
      </trkpt>
      <trkpt lat="49.32846" lon="1.00394">
        <ele>97.7</ele>
        <time>2019-11-11T08:12:15Z</time>
      </trkpt>
      <trkpt lat="49.32844" lon="1.00392">
        <ele>97.7</ele>
        <time>2019-11-11T08:12:16Z</time>
      </trkpt>
      <trkpt lat="49.32842" lon="1.0039">
        <ele>96.8</ele>
        <time>2019-11-11T08:12:17Z</time>
      </trkpt>
      <trkpt lat="49.32839" lon="1.00388">
        <ele>96.8</ele>
        <time>2019-11-11T08:12:18Z</time>
      </trkpt>
      <trkpt lat="49.32836" lon="1.00388">
        <ele>95.7</ele>
        <time>2019-11-11T08:12:19Z</time>
      </trkpt>
      <trkpt lat="49.32834" lon="1.00388">
        <ele>95.7</ele>
        <time>2019-11-11T08:12:20Z</time>
      </trkpt>
      <trkpt lat="49.32832" lon="1.00387">
        <ele>95.7</ele>
        <time>2019-11-11T08:12:21Z</time>
      </trkpt>
      <trkpt lat="49.32829" lon="1.00384">
        <ele>95.7</ele>
        <time>2019-11-11T08:12:22Z</time>
      </trkpt>
      <trkpt lat="49.32827" lon="1.00381">
        <ele>95.7</ele>
        <time>2019-11-11T08:12:23Z</time>
      </trkpt>
      <trkpt lat="49.32825" lon="1.00379">
        <ele>95.7</ele>
        <time>2019-11-11T08:12:24Z</time>
      </trkpt>
      <trkpt lat="49.32822" lon="1.00376">
        <ele>94.8</ele>
        <time>2019-11-11T08:12:25Z</time>
      </trkpt>
      <trkpt lat="49.32819" lon="1.00373">
        <ele>94.8</ele>
        <time>2019-11-11T08:12:26Z</time>
      </trkpt>
      <trkpt lat="49.32816" lon="1.00371">
        <ele>94.8</ele>
        <time>2019-11-11T08:12:27Z</time>
      </trkpt>
      <trkpt lat="49.32813" lon="1.0037">
        <ele>94.8</ele>
        <time>2019-11-11T08:12:28Z</time>
      </trkpt>
      <trkpt lat="49.3281" lon="1.0037">
        <ele>94.8</ele>
        <time>2019-11-11T08:12:29Z</time>
      </trkpt>
      <trkpt lat="49.32806" lon="1.00369">
        <ele>94.8</ele>
        <time>2019-11-11T08:12:30Z</time>
      </trkpt>
      <trkpt lat="49.32804" lon="1.00369">
        <ele>94.8</ele>
        <time>2019-11-11T08:12:31Z</time>
      </trkpt>
      <trkpt lat="49.32801" lon="1.00369">
        <ele>94.8</ele>
        <time>2019-11-11T08:12:32Z</time>
      </trkpt>
      <trkpt lat="49.32799" lon="1.00369">
        <ele>92.8</ele>
        <time>2019-11-11T08:12:33Z</time>
      </trkpt>
      <trkpt lat="49.32796" lon="1.0037">
        <ele>92.8</ele>
        <time>2019-11-11T08:12:34Z</time>
      </trkpt>
      <trkpt lat="49.32793" lon="1.0037">
        <ele>92.8</ele>
        <time>2019-11-11T08:12:35Z</time>
      </trkpt>
      <trkpt lat="49.3279" lon="1.0037">
        <ele>92.8</ele>
        <time>2019-11-11T08:12:36Z</time>
      </trkpt>
      <trkpt lat="49.32787" lon="1.0037">
        <ele>92.8</ele>
        <time>2019-11-11T08:12:37Z</time>
      </trkpt>
      <trkpt lat="49.32784" lon="1.00369">
        <ele>92.8</ele>
        <time>2019-11-11T08:12:38Z</time>
      </trkpt>
      <trkpt lat="49.32781" lon="1.00369">
        <ele>92.8</ele>
        <time>2019-11-11T08:12:39Z</time>
      </trkpt>
      <trkpt lat="49.32778" lon="1.00369">
        <ele>92.8</ele>
        <time>2019-11-11T08:12:40Z</time>
      </trkpt>
      <trkpt lat="49.32775" lon="1.00369">
        <ele>91.7</ele>
        <time>2019-11-11T08:12:41Z</time>
      </trkpt>
      <trkpt lat="49.32772" lon="1.00369">
        <ele>91.7</ele>
        <time>2019-11-11T08:12:42Z</time>
      </trkpt>
      <trkpt lat="49.32769" lon="1.00369">
        <ele>91.7</ele>
        <time>2019-11-11T08:12:43Z</time>
      </trkpt>
      <trkpt lat="49.32767" lon="1.00369">
        <ele>91.7</ele>
        <time>2019-11-11T08:12:44Z</time>
      </trkpt>
      <trkpt lat="49.32765" lon="1.0037">
        <ele>91.7</ele>
        <time>2019-11-11T08:12:45Z</time>
      </trkpt>
      <trkpt lat="49.32763" lon="1.0037">
        <ele>91.7</ele>
        <time>2019-11-11T08:12:46Z</time>
      </trkpt>
      <trkpt lat="49.32762" lon="1.00371">
        <ele>91.7</ele>
        <time>2019-11-11T08:12:47Z</time>
      </trkpt>
      <trkpt lat="49.3276" lon="1.00372">
        <ele>91.7</ele>
        <time>2019-11-11T08:12:48Z</time>
      </trkpt>
      <trkpt lat="49.32757" lon="1.00373">
        <ele>91.7</ele>
        <time>2019-11-11T08:12:49Z</time>
      </trkpt>
      <trkpt lat="49.32755" lon="1.00374">
        <ele>91.7</ele>
        <time>2019-11-11T08:12:50Z</time>
      </trkpt>
      <trkpt lat="49.32752" lon="1.00374">
        <ele>91.7</ele>
        <time>2019-11-11T08:12:51Z</time>
      </trkpt>
      <trkpt lat="49.32749" lon="1.00374">
        <ele>91.7</ele>
        <time>2019-11-11T08:12:52Z</time>
      </trkpt>
      <trkpt lat="49.32746" lon="1.00374">
        <ele>91.7</ele>
        <time>2019-11-11T08:12:53Z</time>
      </trkpt>
      <trkpt lat="49.32743" lon="1.00374">
        <ele>91.7</ele>
        <time>2019-11-11T08:12:54Z</time>
      </trkpt>
      <trkpt lat="49.3274" lon="1.00374">
        <ele>91.7</ele>
        <time>2019-11-11T08:12:55Z</time>
      </trkpt>
      <trkpt lat="49.32737" lon="1.00374">
        <ele>91.7</ele>
        <time>2019-11-11T08:12:56Z</time>
      </trkpt>
      <trkpt lat="49.32734" lon="1.00373">
        <ele>90.7</ele>
        <time>2019-11-11T08:12:57Z</time>
      </trkpt>
      <trkpt lat="49.32731" lon="1.00373">
        <ele>90.7</ele>
        <time>2019-11-11T08:12:58Z</time>
      </trkpt>
      <trkpt lat="49.32728" lon="1.00373">
        <ele>90.7</ele>
        <time>2019-11-11T08:12:59Z</time>
      </trkpt>
      <trkpt lat="49.32725" lon="1.00373">
        <ele>90.7</ele>
        <time>2019-11-11T08:13:00Z</time>
      </trkpt>
      <trkpt lat="49.32721" lon="1.00374">
        <ele>88.7</ele>
        <time>2019-11-11T08:13:01Z</time>
      </trkpt>
      <trkpt lat="49.32717" lon="1.00375">
        <ele>88.7</ele>
        <time>2019-11-11T08:13:02Z</time>
      </trkpt>
      <trkpt lat="49.32712" lon="1.00376">
        <ele>88.7</ele>
        <time>2019-11-11T08:13:03Z</time>
      </trkpt>
      <trkpt lat="49.32708" lon="1.00378">
        <ele>88.7</ele>
        <time>2019-11-11T08:13:04Z</time>
      </trkpt>
      <trkpt lat="49.32703" lon="1.00381">
        <ele>87.8</ele>
        <time>2019-11-11T08:13:05Z</time>
      </trkpt>
      <trkpt lat="49.32699" lon="1.00383">
        <ele>87.8</ele>
        <time>2019-11-11T08:13:06Z</time>
      </trkpt>
      <trkpt lat="49.32695" lon="1.00386">
        <ele>87.8</ele>
        <time>2019-11-11T08:13:07Z</time>
      </trkpt>
      <trkpt lat="49.32693" lon="1.00388">
        <ele>87.8</ele>
        <time>2019-11-11T08:13:08Z</time>
      </trkpt>
      <trkpt lat="49.32692" lon="1.0039">
        <ele>87.8</ele>
        <time>2019-11-11T08:13:09Z</time>
      </trkpt>
      <trkpt lat="49.32691" lon="1.0039">
        <ele>87.8</ele>
        <time>2019-11-11T08:13:10Z</time>
      </trkpt>
      <trkpt lat="49.32689" lon="1.00389">
        <ele>87.8</ele>
        <time>2019-11-11T08:13:11Z</time>
      </trkpt>
      <trkpt lat="49.32686" lon="1.00389">
        <ele>87.8</ele>
        <time>2019-11-11T08:13:12Z</time>
      </trkpt>
      <trkpt lat="49.32684" lon="1.00387">
        <ele>87.8</ele>
        <time>2019-11-11T08:13:13Z</time>
      </trkpt>
      <trkpt lat="49.32682" lon="1.00386">
        <ele>87.8</ele>
        <time>2019-11-11T08:13:14Z</time>
      </trkpt>
      <trkpt lat="49.32679" lon="1.00384">
        <ele>87.8</ele>
        <time>2019-11-11T08:13:15Z</time>
      </trkpt>
      <trkpt lat="49.32676" lon="1.00384">
        <ele>87.8</ele>
        <time>2019-11-11T08:13:16Z</time>
      </trkpt>
      <trkpt lat="49.32673" lon="1.00383">
        <ele>86.7</ele>
        <time>2019-11-11T08:13:17Z</time>
      </trkpt>
      <trkpt lat="49.32671" lon="1.00381">
        <ele>86.7</ele>
        <time>2019-11-11T08:13:18Z</time>
      </trkpt>
      <trkpt lat="49.32668" lon="1.0038">
        <ele>86.7</ele>
        <time>2019-11-11T08:13:19Z</time>
      </trkpt>
      <trkpt lat="49.32665" lon="1.00379">
        <ele>86.7</ele>
        <time>2019-11-11T08:13:20Z</time>
      </trkpt>
      <trkpt lat="49.32663" lon="1.00379">
        <ele>86.7</ele>
        <time>2019-11-11T08:13:21Z</time>
      </trkpt>
      <trkpt lat="49.3266" lon="1.00379">
        <ele>86.7</ele>
        <time>2019-11-11T08:13:22Z</time>
      </trkpt>
      <trkpt lat="49.32658" lon="1.00379">
        <ele>86.7</ele>
        <time>2019-11-11T08:13:23Z</time>
      </trkpt>
      <trkpt lat="49.32656" lon="1.0038">
        <ele>86.7</ele>
        <time>2019-11-11T08:13:24Z</time>
      </trkpt>
      <trkpt lat="49.32655" lon="1.0038">
        <ele>86.7</ele>
        <time>2019-11-11T08:13:25Z</time>
      </trkpt>
      <trkpt lat="49.32654" lon="1.00381">
        <ele>86.7</ele>
        <time>2019-11-11T08:13:26Z</time>
      </trkpt>
      <trkpt lat="49.32653" lon="1.00382">
        <ele>87.8</ele>
        <time>2019-11-11T08:13:27Z</time>
      </trkpt>
      <trkpt lat="49.32652" lon="1.00383">
        <ele>87.8</ele>
        <time>2019-11-11T08:13:28Z</time>
      </trkpt>
      <trkpt lat="49.32652" lon="1.00383">
        <ele>87.8</ele>
        <time>2019-11-11T08:13:29Z</time>
      </trkpt>
      <trkpt lat="49.32651" lon="1.00383">
        <ele>87.8</ele>
        <time>2019-11-11T08:13:30Z</time>
      </trkpt>
      <trkpt lat="49.3265" lon="1.00383">
        <ele>87.8</ele>
        <time>2019-11-11T08:13:31Z</time>
      </trkpt>
      <trkpt lat="49.32649" lon="1.00383">
        <ele>87.8</ele>
        <time>2019-11-11T08:13:32Z</time>
      </trkpt>
      <trkpt lat="49.32647" lon="1.00383">
        <ele>87.8</ele>
        <time>2019-11-11T08:13:33Z</time>
      </trkpt>
      <trkpt lat="49.32646" lon="1.00383">
        <ele>87.8</ele>
        <time>2019-11-11T08:13:34Z</time>
      </trkpt>
      <trkpt lat="49.32644" lon="1.00383">
        <ele>89.8</ele>
        <time>2019-11-11T08:13:35Z</time>
      </trkpt>
      <trkpt lat="49.32643" lon="1.00384">
        <ele>89.8</ele>
        <time>2019-11-11T08:13:36Z</time>
      </trkpt>
      <trkpt lat="49.32641" lon="1.00383">
        <ele>89.8</ele>
        <time>2019-11-11T08:13:37Z</time>
      </trkpt>
      <trkpt lat="49.3264" lon="1.00383">
        <ele>89.8</ele>
        <time>2019-11-11T08:13:38Z</time>
      </trkpt>
      <trkpt lat="49.32638" lon="1.00381">
        <ele>89.8</ele>
        <time>2019-11-11T08:13:39Z</time>
      </trkpt>
      <trkpt lat="49.32637" lon="1.00378">
        <ele>89.8</ele>
        <time>2019-11-11T08:13:40Z</time>
      </trkpt>
      <trkpt lat="49.32635" lon="1.00375">
        <ele>89.8</ele>
        <time>2019-11-11T08:13:41Z</time>
      </trkpt>
      <trkpt lat="49.32633" lon="1.00372">
        <ele>89.8</ele>
        <time>2019-11-11T08:13:42Z</time>
      </trkpt>
      <trkpt lat="49.32632" lon="1.00368">
        <ele>89.8</ele>
        <time>2019-11-11T08:13:43Z</time>
      </trkpt>
      <trkpt lat="49.3263" lon="1.00365">
        <ele>89.8</ele>
        <time>2019-11-11T08:13:44Z</time>
      </trkpt>
      <trkpt lat="49.32629" lon="1.00362">
        <ele>88.7</ele>
        <time>2019-11-11T08:13:45Z</time>
      </trkpt>
      <trkpt lat="49.32627" lon="1.0036">
        <ele>88.7</ele>
        <time>2019-11-11T08:13:46Z</time>
      </trkpt>
      <trkpt lat="49.32624" lon="1.00358">
        <ele>88.7</ele>
        <time>2019-11-11T08:13:47Z</time>
      </trkpt>
      <trkpt lat="49.32622" lon="1.00355">
        <ele>88.7</ele>
        <time>2019-11-11T08:13:48Z</time>
      </trkpt>
      <trkpt lat="49.32619" lon="1.00352">
        <ele>87.8</ele>
        <time>2019-11-11T08:13:49Z</time>
      </trkpt>
      <trkpt lat="49.32617" lon="1.0035">
        <ele>87.8</ele>
        <time>2019-11-11T08:13:50Z</time>
      </trkpt>
      <trkpt lat="49.32614" lon="1.00348">
        <ele>87.8</ele>
        <time>2019-11-11T08:13:51Z</time>
      </trkpt>
      <trkpt lat="49.32611" lon="1.00348">
        <ele>87.8</ele>
        <time>2019-11-11T08:13:52Z</time>
      </trkpt>
      <trkpt lat="49.32608" lon="1.00348">
        <ele>86.7</ele>
        <time>2019-11-11T08:13:53Z</time>
      </trkpt>
      <trkpt lat="49.32605" lon="1.00348">
        <ele>86.7</ele>
        <time>2019-11-11T08:13:54Z</time>
      </trkpt>
      <trkpt lat="49.32602" lon="1.00347">
        <ele>85.8</ele>
        <time>2019-11-11T08:13:55Z</time>
      </trkpt>
      <trkpt lat="49.326" lon="1.00348">
        <ele>85.8</ele>
        <time>2019-11-11T08:13:56Z</time>
      </trkpt>
      <trkpt lat="49.32598" lon="1.0035">
        <ele>84.7</ele>
        <time>2019-11-11T08:13:57Z</time>
      </trkpt>
      <trkpt lat="49.32595" lon="1.00352">
        <ele>84.7</ele>
        <time>2019-11-11T08:13:58Z</time>
      </trkpt>
      <trkpt lat="49.32593" lon="1.00353">
        <ele>84.7</ele>
        <time>2019-11-11T08:13:59Z</time>
      </trkpt>
      <trkpt lat="49.3259" lon="1.00356">
        <ele>84.7</ele>
        <time>2019-11-11T08:14:00Z</time>
      </trkpt>
      <trkpt lat="49.32588" lon="1.00359">
        <ele>83.7</ele>
        <time>2019-11-11T08:14:01Z</time>
      </trkpt>
      <trkpt lat="49.32586" lon="1.00362">
        <ele>83.7</ele>
        <time>2019-11-11T08:14:02Z</time>
      </trkpt>
      <trkpt lat="49.32584" lon="1.00365">
        <ele>83.7</ele>
        <time>2019-11-11T08:14:03Z</time>
      </trkpt>
      <trkpt lat="49.32582" lon="1.00369">
        <ele>83.7</ele>
        <time>2019-11-11T08:14:04Z</time>
      </trkpt>
      <trkpt lat="49.32579" lon="1.00372">
        <ele>82.8</ele>
        <time>2019-11-11T08:14:05Z</time>
      </trkpt>
      <trkpt lat="49.32577" lon="1.00376">
        <ele>82.8</ele>
        <time>2019-11-11T08:14:06Z</time>
      </trkpt>
      <trkpt lat="49.32575" lon="1.00379">
        <ele>82.8</ele>
        <time>2019-11-11T08:14:07Z</time>
      </trkpt>
      <trkpt lat="49.32573" lon="1.00383">
        <ele>82.8</ele>
        <time>2019-11-11T08:14:08Z</time>
      </trkpt>
      <trkpt lat="49.32572" lon="1.00386">
        <ele>81.7</ele>
        <time>2019-11-11T08:14:09Z</time>
      </trkpt>
      <trkpt lat="49.3257" lon="1.00388">
        <ele>81.7</ele>
        <time>2019-11-11T08:14:10Z</time>
      </trkpt>
      <trkpt lat="49.32568" lon="1.00391">
        <ele>81.7</ele>
        <time>2019-11-11T08:14:11Z</time>
      </trkpt>
      <trkpt lat="49.32567" lon="1.00394">
        <ele>81.7</ele>
        <time>2019-11-11T08:14:12Z</time>
      </trkpt>
      <trkpt lat="49.32565" lon="1.00397">
        <ele>80.8</ele>
        <time>2019-11-11T08:14:13Z</time>
      </trkpt>
      <trkpt lat="49.32563" lon="1.00401">
        <ele>80.8</ele>
        <time>2019-11-11T08:14:14Z</time>
      </trkpt>
      <trkpt lat="49.3256" lon="1.00405">
        <ele>80.8</ele>
        <time>2019-11-11T08:14:15Z</time>
      </trkpt>
      <trkpt lat="49.32558" lon="1.0041">
        <ele>80.8</ele>
        <time>2019-11-11T08:14:16Z</time>
      </trkpt>
      <trkpt lat="49.32556" lon="1.00415">
        <ele>79.7</ele>
        <time>2019-11-11T08:14:17Z</time>
      </trkpt>
      <trkpt lat="49.32555" lon="1.0042">
        <ele>79.7</ele>
        <time>2019-11-11T08:14:18Z</time>
      </trkpt>
      <trkpt lat="49.32554" lon="1.00424">
        <ele>79.7</ele>
        <time>2019-11-11T08:14:19Z</time>
      </trkpt>
      <trkpt lat="49.32552" lon="1.00427">
        <ele>79.7</ele>
        <time>2019-11-11T08:14:20Z</time>
      </trkpt>
      <trkpt lat="49.32549" lon="1.0043">
        <ele>79.7</ele>
        <time>2019-11-11T08:14:21Z</time>
      </trkpt>
      <trkpt lat="49.32546" lon="1.00432">
        <ele>79.7</ele>
        <time>2019-11-11T08:14:22Z</time>
      </trkpt>
      <trkpt lat="49.32543" lon="1.00435">
        <ele>78.8</ele>
        <time>2019-11-11T08:14:23Z</time>
      </trkpt>
      <trkpt lat="49.32541" lon="1.00437">
        <ele>78.8</ele>
        <time>2019-11-11T08:14:24Z</time>
      </trkpt>
      <trkpt lat="49.3254" lon="1.0044">
        <ele>77.7</ele>
        <time>2019-11-11T08:14:25Z</time>
      </trkpt>
      <trkpt lat="49.32539" lon="1.00443">
        <ele>77.7</ele>
        <time>2019-11-11T08:14:26Z</time>
      </trkpt>
      <trkpt lat="49.32538" lon="1.00447">
        <ele>77.7</ele>
        <time>2019-11-11T08:14:27Z</time>
      </trkpt>
      <trkpt lat="49.32536" lon="1.0045">
        <ele>77.7</ele>
        <time>2019-11-11T08:14:28Z</time>
      </trkpt>
      <trkpt lat="49.32534" lon="1.00454">
        <ele>77.7</ele>
        <time>2019-11-11T08:14:29Z</time>
      </trkpt>
      <trkpt lat="49.32532" lon="1.00458">
        <ele>77.7</ele>
        <time>2019-11-11T08:14:30Z</time>
      </trkpt>
      <trkpt lat="49.3253" lon="1.00462">
        <ele>76.8</ele>
        <time>2019-11-11T08:14:31Z</time>
      </trkpt>
      <trkpt lat="49.32528" lon="1.00465">
        <ele>76.8</ele>
        <time>2019-11-11T08:14:32Z</time>
      </trkpt>
      <trkpt lat="49.32526" lon="1.00469">
        <ele>76.8</ele>
        <time>2019-11-11T08:14:33Z</time>
      </trkpt>
      <trkpt lat="49.32524" lon="1.00472">
        <ele>76.8</ele>
        <time>2019-11-11T08:14:34Z</time>
      </trkpt>
      <trkpt lat="49.32521" lon="1.00475">
        <ele>76.8</ele>
        <time>2019-11-11T08:14:35Z</time>
      </trkpt>
      <trkpt lat="49.32517" lon="1.00479">
        <ele>76.8</ele>
        <time>2019-11-11T08:14:36Z</time>
      </trkpt>
      <trkpt lat="49.32514" lon="1.00481">
        <ele>75.7</ele>
        <time>2019-11-11T08:14:37Z</time>
      </trkpt>
      <trkpt lat="49.3251" lon="1.00482">
        <ele>75.7</ele>
        <time>2019-11-11T08:14:38Z</time>
      </trkpt>
      <trkpt lat="49.32507" lon="1.00484">
        <ele>74.7</ele>
        <time>2019-11-11T08:14:39Z</time>
      </trkpt>
      <trkpt lat="49.32504" lon="1.00487">
        <ele>74.7</ele>
        <time>2019-11-11T08:14:40Z</time>
      </trkpt>
      <trkpt lat="49.32502" lon="1.0049">
        <ele>74.7</ele>
        <time>2019-11-11T08:14:41Z</time>
      </trkpt>
      <trkpt lat="49.325" lon="1.00493">
        <ele>74.7</ele>
        <time>2019-11-11T08:14:42Z</time>
      </trkpt>
      <trkpt lat="49.32498" lon="1.00496">
        <ele>74.7</ele>
        <time>2019-11-11T08:14:43Z</time>
      </trkpt>
      <trkpt lat="49.32496" lon="1.00498">
        <ele>74.7</ele>
        <time>2019-11-11T08:14:44Z</time>
      </trkpt>
      <trkpt lat="49.32495" lon="1.00499">
        <ele>74.7</ele>
        <time>2019-11-11T08:14:45Z</time>
      </trkpt>
      <trkpt lat="49.32494" lon="1.00499">
        <ele>74.7</ele>
        <time>2019-11-11T08:14:46Z</time>
      </trkpt>
      <trkpt lat="49.32493" lon="1.00497">
        <ele>74.7</ele>
        <time>2019-11-11T08:14:47Z</time>
      </trkpt>
      <trkpt lat="49.32492" lon="1.00496">
        <ele>74.7</ele>
        <time>2019-11-11T08:14:48Z</time>
      </trkpt>
      <trkpt lat="49.32492" lon="1.00494">
        <ele>74.7</ele>
        <time>2019-11-11T08:14:49Z</time>
      </trkpt>
      <trkpt lat="49.32492" lon="1.00491">
        <ele>74.7</ele>
        <time>2019-11-11T08:14:50Z</time>
      </trkpt>
      <trkpt lat="49.32491" lon="1.00489">
        <ele>71.8</ele>
        <time>2019-11-11T08:14:51Z</time>
      </trkpt>
      <trkpt lat="49.32491" lon="1.00487">
        <ele>71.8</ele>
        <time>2019-11-11T08:14:52Z</time>
      </trkpt>
      <trkpt lat="49.32491" lon="1.00487">
        <ele>70.7</ele>
        <time>2019-11-11T08:14:53Z</time>
      </trkpt>
      <trkpt lat="49.32491" lon="1.00486">
        <ele>70.7</ele>
        <time>2019-11-11T08:14:54Z</time>
      </trkpt>
      <trkpt lat="49.32491" lon="1.00485">
        <ele>70.7</ele>
        <time>2019-11-11T08:14:55Z</time>
      </trkpt>
      <trkpt lat="49.32492" lon="1.00485">
        <ele>70.7</ele>
        <time>2019-11-11T08:14:56Z</time>
      </trkpt>
      <trkpt lat="49.32494" lon="1.00474">
        <ele>69.8</ele>
        <time>2019-11-11T08:15:50Z</time>
      </trkpt>
      <trkpt lat="49.32493" lon="1.0047">
        <ele>69.8</ele>
        <time>2019-11-11T08:15:51Z</time>
      </trkpt>
      <trkpt lat="49.32491" lon="1.00464">
        <ele>69.8</ele>
        <time>2019-11-11T08:15:52Z</time>
      </trkpt>
      <trkpt lat="49.32489" lon="1.00458">
        <ele>69.8</ele>
        <time>2019-11-11T08:15:53Z</time>
      </trkpt>
      <trkpt lat="49.32487" lon="1.00452">
        <ele>69.8</ele>
        <time>2019-11-11T08:15:54Z</time>
      </trkpt>
      <trkpt lat="49.32485" lon="1.00445">
        <ele>69.8</ele>
        <time>2019-11-11T08:15:55Z</time>
      </trkpt>
      <trkpt lat="49.32483" lon="1.00439">
        <ele>69.8</ele>
        <time>2019-11-11T08:15:56Z</time>
      </trkpt>
      <trkpt lat="49.32481" lon="1.00433">
        <ele>63.7</ele>
        <time>2019-11-11T08:15:57Z</time>
      </trkpt>
      <trkpt lat="49.32479" lon="1.00425">
        <ele>63.7</ele>
        <time>2019-11-11T08:15:58Z</time>
      </trkpt>
      <trkpt lat="49.32477" lon="1.00417">
        <ele>63.7</ele>
        <time>2019-11-11T08:15:59Z</time>
      </trkpt>
      <trkpt lat="49.32475" lon="1.00409">
        <ele>63.7</ele>
        <time>2019-11-11T08:16:00Z</time>
      </trkpt>
      <trkpt lat="49.32473" lon="1.00401">
        <ele>63.7</ele>
        <time>2019-11-11T08:16:01Z</time>
      </trkpt>
      <trkpt lat="49.32471" lon="1.00394">
        <ele>63.7</ele>
        <time>2019-11-11T08:16:02Z</time>
      </trkpt>
      <trkpt lat="49.3247" lon="1.00387">
        <ele>59.7</ele>
        <time>2019-11-11T08:16:03Z</time>
      </trkpt>
      <trkpt lat="49.32468" lon="1.00382">
        <ele>59.7</ele>
        <time>2019-11-11T08:16:04Z</time>
      </trkpt>
      <trkpt lat="49.32466" lon="1.00378">
        <ele>59.7</ele>
        <time>2019-11-11T08:16:05Z</time>
      </trkpt>
      <trkpt lat="49.32465" lon="1.00375">
        <ele>59.7</ele>
        <time>2019-11-11T08:16:06Z</time>
      </trkpt>
      <trkpt lat="49.32464" lon="1.00372">
        <ele>59.7</ele>
        <time>2019-11-11T08:16:07Z</time>
      </trkpt>
      <trkpt lat="49.32463" lon="1.00369">
        <ele>59.7</ele>
        <time>2019-11-11T08:16:08Z</time>
      </trkpt>
      <trkpt lat="49.32463" lon="1.00366">
        <ele>59.7</ele>
        <time>2019-11-11T08:16:09Z</time>
      </trkpt>
      <trkpt lat="49.32463" lon="1.00362">
        <ele>59.7</ele>
        <time>2019-11-11T08:16:10Z</time>
      </trkpt>
      <trkpt lat="49.32463" lon="1.00358">
        <ele>59.7</ele>
        <time>2019-11-11T08:16:11Z</time>
      </trkpt>
      <trkpt lat="49.32463" lon="1.00354">
        <ele>59.7</ele>
        <time>2019-11-11T08:16:12Z</time>
      </trkpt>
      <trkpt lat="49.32463" lon="1.00349">
        <ele>59.7</ele>
        <time>2019-11-11T08:16:13Z</time>
      </trkpt>
      <trkpt lat="49.32463" lon="1.00345">
        <ele>59.7</ele>
        <time>2019-11-11T08:16:14Z</time>
      </trkpt>
      <trkpt lat="49.32464" lon="1.00342">
        <ele>59.7</ele>
        <time>2019-11-11T08:16:15Z</time>
      </trkpt>
      <trkpt lat="49.32464" lon="1.00338">
        <ele>59.7</ele>
        <time>2019-11-11T08:16:16Z</time>
      </trkpt>
      <trkpt lat="49.32464" lon="1.00334">
        <ele>59.7</ele>
        <time>2019-11-11T08:16:17Z</time>
      </trkpt>
      <trkpt lat="49.32465" lon="1.00329">
        <ele>59.7</ele>
        <time>2019-11-11T08:16:18Z</time>
      </trkpt>
      <trkpt lat="49.32465" lon="1.00323">
        <ele>59.7</ele>
        <time>2019-11-11T08:16:19Z</time>
      </trkpt>
      <trkpt lat="49.32466" lon="1.00318">
        <ele>59.7</ele>
        <time>2019-11-11T08:16:20Z</time>
      </trkpt>
      <trkpt lat="49.32467" lon="1.00312">
        <ele>59.7</ele>
        <time>2019-11-11T08:16:21Z</time>
      </trkpt>
      <trkpt lat="49.32467" lon="1.00306">
        <ele>59.7</ele>
        <time>2019-11-11T08:16:22Z</time>
      </trkpt>
      <trkpt lat="49.32468" lon="1.00299">
        <ele>58.7</ele>
        <time>2019-11-11T08:16:23Z</time>
      </trkpt>
      <trkpt lat="49.32469" lon="1.00293">
        <ele>58.7</ele>
        <time>2019-11-11T08:16:24Z</time>
      </trkpt>
      <trkpt lat="49.3247" lon="1.00285">
        <ele>58.7</ele>
        <time>2019-11-11T08:16:25Z</time>
      </trkpt>
      <trkpt lat="49.32471" lon="1.00278">
        <ele>58.7</ele>
        <time>2019-11-11T08:16:26Z</time>
      </trkpt>
      <trkpt lat="49.32473" lon="1.00272">
        <ele>57.8</ele>
        <time>2019-11-11T08:16:27Z</time>
      </trkpt>
      <trkpt lat="49.32474" lon="1.00266">
        <ele>57.8</ele>
        <time>2019-11-11T08:16:28Z</time>
      </trkpt>
      <trkpt lat="49.32475" lon="1.00259">
        <ele>57.8</ele>
        <time>2019-11-11T08:16:29Z</time>
      </trkpt>
      <trkpt lat="49.32476" lon="1.00251">
        <ele>57.8</ele>
        <time>2019-11-11T08:16:30Z</time>
      </trkpt>
      <trkpt lat="49.32478" lon="1.00244">
        <ele>56.7</ele>
        <time>2019-11-11T08:16:31Z</time>
      </trkpt>
      <trkpt lat="49.32479" lon="1.00237">
        <ele>56.7</ele>
        <time>2019-11-11T08:16:32Z</time>
      </trkpt>
      <trkpt lat="49.3248" lon="1.0023">
        <ele>56.7</ele>
        <time>2019-11-11T08:16:33Z</time>
      </trkpt>
      <trkpt lat="49.3248" lon="1.00226">
        <ele>56.7</ele>
        <time>2019-11-11T08:16:34Z</time>
      </trkpt>
      <trkpt lat="49.32479" lon="1.00222">
        <ele>56.7</ele>
        <time>2019-11-11T08:16:35Z</time>
      </trkpt>
      <trkpt lat="49.32479" lon="1.0022">
        <ele>56.7</ele>
        <time>2019-11-11T08:16:36Z</time>
      </trkpt>
      <trkpt lat="49.32479" lon="1.00217">
        <ele>56.7</ele>
        <time>2019-11-11T08:16:37Z</time>
      </trkpt>
      <trkpt lat="49.3248" lon="1.00215">
        <ele>56.7</ele>
        <time>2019-11-11T08:16:38Z</time>
      </trkpt>
      <trkpt lat="49.32481" lon="1.00212">
        <ele>57.8</ele>
        <time>2019-11-11T08:16:39Z</time>
      </trkpt>
      <trkpt lat="49.32481" lon="1.00209">
        <ele>57.8</ele>
        <time>2019-11-11T08:16:40Z</time>
      </trkpt>
      <trkpt lat="49.32481" lon="1.00206">
        <ele>58.7</ele>
        <time>2019-11-11T08:16:41Z</time>
      </trkpt>
      <trkpt lat="49.32481" lon="1.00202">
        <ele>58.7</ele>
        <time>2019-11-11T08:16:42Z</time>
      </trkpt>
      <trkpt lat="49.32481" lon="1.00199">
        <ele>58.7</ele>
        <time>2019-11-11T08:16:43Z</time>
      </trkpt>
      <trkpt lat="49.32481" lon="1.00197">
        <ele>58.7</ele>
        <time>2019-11-11T08:16:44Z</time>
      </trkpt>
      <trkpt lat="49.32481" lon="1.00194">
        <ele>60.8</ele>
        <time>2019-11-11T08:16:45Z</time>
      </trkpt>
      <trkpt lat="49.32481" lon="1.00191">
        <ele>60.8</ele>
        <time>2019-11-11T08:16:46Z</time>
      </trkpt>
      <trkpt lat="49.32481" lon="1.00188">
        <ele>60.8</ele>
        <time>2019-11-11T08:16:47Z</time>
      </trkpt>
      <trkpt lat="49.32481" lon="1.00185">
        <ele>60.8</ele>
        <time>2019-11-11T08:16:48Z</time>
      </trkpt>
      <trkpt lat="49.3248" lon="1.00183">
        <ele>62.8</ele>
        <time>2019-11-11T08:16:49Z</time>
      </trkpt>
      <trkpt lat="49.3248" lon="1.0018">
        <ele>62.8</ele>
        <time>2019-11-11T08:16:50Z</time>
      </trkpt>
      <trkpt lat="49.32479" lon="1.00177">
        <ele>62.8</ele>
        <time>2019-11-11T08:16:51Z</time>
      </trkpt>
      <trkpt lat="49.32478" lon="1.00174">
        <ele>62.8</ele>
        <time>2019-11-11T08:16:52Z</time>
      </trkpt>
      <trkpt lat="49.32477" lon="1.00171">
        <ele>63.7</ele>
        <time>2019-11-11T08:16:53Z</time>
      </trkpt>
      <trkpt lat="49.32477" lon="1.00169">
        <ele>63.7</ele>
        <time>2019-11-11T08:16:54Z</time>
      </trkpt>
      <trkpt lat="49.32476" lon="1.00166">
        <ele>63.7</ele>
        <time>2019-11-11T08:16:55Z</time>
      </trkpt>
      <trkpt lat="49.32476" lon="1.00163">
        <ele>63.7</ele>
        <time>2019-11-11T08:16:56Z</time>
      </trkpt>
      <trkpt lat="49.32476" lon="1.0016">
        <ele>63.7</ele>
        <time>2019-11-11T08:16:57Z</time>
      </trkpt>
      <trkpt lat="49.32475" lon="1.00157">
        <ele>63.7</ele>
        <time>2019-11-11T08:16:58Z</time>
      </trkpt>
      <trkpt lat="49.32474" lon="1.00154">
        <ele>63.7</ele>
        <time>2019-11-11T08:16:59Z</time>
      </trkpt>
      <trkpt lat="49.32474" lon="1.0015">
        <ele>63.7</ele>
        <time>2019-11-11T08:17:00Z</time>
      </trkpt>
      <trkpt lat="49.32473" lon="1.00146">
        <ele>63.7</ele>
        <time>2019-11-11T08:17:01Z</time>
      </trkpt>
      <trkpt lat="49.32473" lon="1.00142">
        <ele>63.7</ele>
        <time>2019-11-11T08:17:02Z</time>
      </trkpt>
      <trkpt lat="49.32473" lon="1.00138">
        <ele>62.8</ele>
        <time>2019-11-11T08:17:03Z</time>
      </trkpt>
      <trkpt lat="49.32474" lon="1.00132">
        <ele>62.8</ele>
        <time>2019-11-11T08:17:04Z</time>
      </trkpt>
      <trkpt lat="49.32474" lon="1.00127">
        <ele>61.7</ele>
        <time>2019-11-11T08:17:05Z</time>
      </trkpt>
      <trkpt lat="49.32474" lon="1.00122">
        <ele>61.7</ele>
        <time>2019-11-11T08:17:06Z</time>
      </trkpt>
      <trkpt lat="49.32475" lon="1.00117">
        <ele>61.7</ele>
        <time>2019-11-11T08:17:07Z</time>
      </trkpt>
      <trkpt lat="49.32474" lon="1.00113">
        <ele>61.7</ele>
        <time>2019-11-11T08:17:08Z</time>
      </trkpt>
      <trkpt lat="49.32473" lon="1.00109">
        <ele>60.8</ele>
        <time>2019-11-11T08:17:09Z</time>
      </trkpt>
      <trkpt lat="49.32472" lon="1.00106">
        <ele>60.8</ele>
        <time>2019-11-11T08:17:10Z</time>
      </trkpt>
      <trkpt lat="49.32471" lon="1.00103">
        <ele>60.8</ele>
        <time>2019-11-11T08:17:11Z</time>
      </trkpt>
      <trkpt lat="49.32471" lon="1.00099">
        <ele>60.8</ele>
        <time>2019-11-11T08:17:12Z</time>
      </trkpt>
      <trkpt lat="49.3247" lon="1.00096">
        <ele>59.7</ele>
        <time>2019-11-11T08:17:13Z</time>
      </trkpt>
      <trkpt lat="49.32471" lon="1.00092">
        <ele>59.7</ele>
        <time>2019-11-11T08:17:14Z</time>
      </trkpt>
      <trkpt lat="49.32471" lon="1.00088">
        <ele>59.7</ele>
        <time>2019-11-11T08:17:15Z</time>
      </trkpt>
      <trkpt lat="49.32471" lon="1.00084">
        <ele>59.7</ele>
        <time>2019-11-11T08:17:16Z</time>
      </trkpt>
      <trkpt lat="49.32471" lon="1.00081">
        <ele>58.7</ele>
        <time>2019-11-11T08:17:17Z</time>
      </trkpt>
      <trkpt lat="49.32471" lon="1.00078">
        <ele>58.7</ele>
        <time>2019-11-11T08:17:18Z</time>
      </trkpt>
      <trkpt lat="49.32472" lon="1.00076">
        <ele>57.8</ele>
        <time>2019-11-11T08:17:19Z</time>
      </trkpt>
      <trkpt lat="49.32472" lon="1.00074">
        <ele>57.8</ele>
        <time>2019-11-11T08:17:20Z</time>
      </trkpt>
      <trkpt lat="49.32473" lon="1.00072">
        <ele>56.7</ele>
        <time>2019-11-11T08:17:21Z</time>
      </trkpt>
      <trkpt lat="49.32473" lon="1.00071">
        <ele>56.7</ele>
        <time>2019-11-11T08:17:22Z</time>
      </trkpt>
      <trkpt lat="49.32473" lon="1.0007">
        <ele>56.7</ele>
        <time>2019-11-11T08:17:23Z</time>
      </trkpt>
      <trkpt lat="49.32474" lon="1.00069">
        <ele>56.7</ele>
        <time>2019-11-11T08:17:24Z</time>
      </trkpt>
      <trkpt lat="49.32474" lon="1.00068">
        <ele>55.8</ele>
        <time>2019-11-11T08:17:25Z</time>
      </trkpt>
      <trkpt lat="49.32478" lon="1.00054">
        <ele>55.8</ele>
        <time>2019-11-11T08:17:42Z</time>
      </trkpt>
      <trkpt lat="49.32478" lon="1.00052">
        <ele>54.7</ele>
        <time>2019-11-11T08:17:43Z</time>
      </trkpt>
      <trkpt lat="49.32477" lon="1.0005">
        <ele>54.7</ele>
        <time>2019-11-11T08:17:44Z</time>
      </trkpt>
      <trkpt lat="49.32476" lon="1.00049">
        <ele>54.7</ele>
        <time>2019-11-11T08:17:45Z</time>
      </trkpt>
      <trkpt lat="49.32475" lon="1.00048">
        <ele>54.7</ele>
        <time>2019-11-11T08:17:46Z</time>
      </trkpt>
      <trkpt lat="49.32475" lon="1.00046">
        <ele>54.7</ele>
        <time>2019-11-11T08:17:47Z</time>
      </trkpt>
      <trkpt lat="49.32474" lon="1.00044">
        <ele>54.7</ele>
        <time>2019-11-11T08:17:48Z</time>
      </trkpt>
      <trkpt lat="49.32475" lon="1.00043">
        <ele>53.8</ele>
        <time>2019-11-11T08:17:49Z</time>
      </trkpt>
      <trkpt lat="49.32474" lon="1.00042">
        <ele>53.8</ele>
        <time>2019-11-11T08:17:50Z</time>
      </trkpt>
      <trkpt lat="49.3247" lon="1.00036">
        <ele>53.8</ele>
        <time>2019-11-11T08:18:01Z</time>
      </trkpt>
      <trkpt lat="49.32469" lon="1.00036">
        <ele>53.8</ele>
        <time>2019-11-11T08:18:02Z</time>
      </trkpt>
      <trkpt lat="49.32467" lon="1.00036">
        <ele>53.8</ele>
        <time>2019-11-11T08:18:03Z</time>
      </trkpt>
      <trkpt lat="49.32466" lon="1.00036">
        <ele>53.8</ele>
        <time>2019-11-11T08:18:04Z</time>
      </trkpt>
      <trkpt lat="49.32464" lon="1.00035">
        <ele>54.7</ele>
        <time>2019-11-11T08:18:05Z</time>
      </trkpt>
      <trkpt lat="49.32463" lon="1.00035">
        <ele>54.7</ele>
        <time>2019-11-11T08:18:06Z</time>
      </trkpt>
      <trkpt lat="49.32461" lon="1.00035">
        <ele>54.7</ele>
        <time>2019-11-11T08:18:07Z</time>
      </trkpt>
      <trkpt lat="49.32459" lon="1.00035">
        <ele>54.7</ele>
        <time>2019-11-11T08:18:08Z</time>
      </trkpt>
      <trkpt lat="49.32458" lon="1.00034">
        <ele>55.8</ele>
        <time>2019-11-11T08:18:09Z</time>
      </trkpt>
      <trkpt lat="49.32456" lon="1.00033">
        <ele>55.8</ele>
        <time>2019-11-11T08:18:10Z</time>
      </trkpt>
      <trkpt lat="49.32455" lon="1.00031">
        <ele>56.7</ele>
        <time>2019-11-11T08:18:11Z</time>
      </trkpt>
      <trkpt lat="49.32455" lon="1.00031">
        <ele>56.7</ele>
        <time>2019-11-11T08:18:12Z</time>
      </trkpt>
      <trkpt lat="49.32454" lon="1.00031">
        <ele>56.7</ele>
        <time>2019-11-11T08:18:13Z</time>
      </trkpt>
      <trkpt lat="49.32454" lon="1.00031">
        <ele>56.7</ele>
        <time>2019-11-11T08:18:14Z</time>
      </trkpt>
      <trkpt lat="49.32454" lon="1.00031">
        <ele>56.7</ele>
        <time>2019-11-11T08:18:15Z</time>
      </trkpt>
      <trkpt lat="49.32445" lon="1.00024">
        <ele>56.7</ele>
        <time>2019-11-11T08:18:51Z</time>
      </trkpt>
      <trkpt lat="49.32443" lon="1.00021">
        <ele>57.8</ele>
        <time>2019-11-11T08:18:52Z</time>
      </trkpt>
      <trkpt lat="49.32442" lon="1.00017">
        <ele>57.8</ele>
        <time>2019-11-11T08:18:53Z</time>
      </trkpt>
      <trkpt lat="49.32441" lon="1.00013">
        <ele>57.8</ele>
        <time>2019-11-11T08:18:54Z</time>
      </trkpt>
      <trkpt lat="49.3244" lon="1.00011">
        <ele>57.8</ele>
        <time>2019-11-11T08:18:55Z</time>
      </trkpt>
      <trkpt lat="49.32439" lon="1.00009">
        <ele>57.8</ele>
        <time>2019-11-11T08:18:56Z</time>
      </trkpt>
      <trkpt lat="49.32437" lon="1.00008">
        <ele>57.8</ele>
        <time>2019-11-11T08:18:57Z</time>
      </trkpt>
      <trkpt lat="49.32436" lon="1.00005">
        <ele>57.8</ele>
        <time>2019-11-11T08:18:58Z</time>
      </trkpt>
      <trkpt lat="49.32436" lon="1.00002">
        <ele>57.8</ele>
        <time>2019-11-11T08:18:59Z</time>
      </trkpt>
      <trkpt lat="49.32435" lon="1">
        <ele>57.8</ele>
        <time>2019-11-11T08:19:00Z</time>
      </trkpt>
      <trkpt lat="49.32434" lon="0.99996">
        <ele>57.8</ele>
        <time>2019-11-11T08:19:01Z</time>
      </trkpt>
      <trkpt lat="49.32433" lon="0.99991">
        <ele>57.8</ele>
        <time>2019-11-11T08:19:02Z</time>
      </trkpt>
      <trkpt lat="49.32432" lon="0.99987">
        <ele>57.8</ele>
        <time>2019-11-11T08:19:03Z</time>
      </trkpt>
      <trkpt lat="49.32431" lon="0.99984">
        <ele>57.8</ele>
        <time>2019-11-11T08:19:04Z</time>
      </trkpt>
      <trkpt lat="49.3243" lon="0.9998">
        <ele>57.8</ele>
        <time>2019-11-11T08:19:05Z</time>
      </trkpt>
      <trkpt lat="49.3243" lon="0.99976">
        <ele>57.8</ele>
        <time>2019-11-11T08:19:06Z</time>
      </trkpt>
      <trkpt lat="49.3243" lon="0.99971">
        <ele>56.7</ele>
        <time>2019-11-11T08:19:07Z</time>
      </trkpt>
      <trkpt lat="49.3243" lon="0.99966">
        <ele>56.7</ele>
        <time>2019-11-11T08:19:08Z</time>
      </trkpt>
      <trkpt lat="49.3243" lon="0.99961">
        <ele>55.8</ele>
        <time>2019-11-11T08:19:09Z</time>
      </trkpt>
      <trkpt lat="49.32428" lon="0.99955">
        <ele>55.8</ele>
        <time>2019-11-11T08:19:10Z</time>
      </trkpt>
      <trkpt lat="49.32426" lon="0.99951">
        <ele>54.7</ele>
        <time>2019-11-11T08:19:11Z</time>
      </trkpt>
      <trkpt lat="49.32424" lon="0.99948">
        <ele>54.7</ele>
        <time>2019-11-11T08:19:12Z</time>
      </trkpt>
      <trkpt lat="49.32423" lon="0.99945">
        <ele>54.7</ele>
        <time>2019-11-11T08:19:13Z</time>
      </trkpt>
      <trkpt lat="49.32422" lon="0.99942">
        <ele>54.7</ele>
        <time>2019-11-11T08:19:14Z</time>
      </trkpt>
      <trkpt lat="49.32421" lon="0.9994">
        <ele>53.8</ele>
        <time>2019-11-11T08:19:15Z</time>
      </trkpt>
      <trkpt lat="49.32419" lon="0.99939">
        <ele>53.8</ele>
        <time>2019-11-11T08:19:16Z</time>
      </trkpt>
      <trkpt lat="49.32418" lon="0.99939">
        <ele>53.8</ele>
        <time>2019-11-11T08:19:17Z</time>
      </trkpt>
      <trkpt lat="49.32417" lon="0.99938">
        <ele>53.8</ele>
        <time>2019-11-11T08:19:18Z</time>
      </trkpt>
      <trkpt lat="49.32417" lon="0.99936">
        <ele>53.8</ele>
        <time>2019-11-11T08:19:19Z</time>
      </trkpt>
      <trkpt lat="49.32416" lon="0.99934">
        <ele>53.8</ele>
        <time>2019-11-11T08:19:20Z</time>
      </trkpt>
      <trkpt lat="49.32416" lon="0.99931">
        <ele>53.8</ele>
        <time>2019-11-11T08:19:21Z</time>
      </trkpt>
      <trkpt lat="49.32415" lon="0.99928">
        <ele>53.8</ele>
        <time>2019-11-11T08:19:22Z</time>
      </trkpt>
      <trkpt lat="49.32416" lon="0.99925">
        <ele>53.8</ele>
        <time>2019-11-11T08:19:23Z</time>
      </trkpt>
      <trkpt lat="49.32416" lon="0.99923">
        <ele>53.8</ele>
        <time>2019-11-11T08:19:24Z</time>
      </trkpt>
      <trkpt lat="49.32417" lon="0.9992">
        <ele>53.8</ele>
        <time>2019-11-11T08:19:25Z</time>
      </trkpt>
      <trkpt lat="49.32418" lon="0.99918">
        <ele>53.8</ele>
        <time>2019-11-11T08:19:26Z</time>
      </trkpt>
      <trkpt lat="49.32418" lon="0.99916">
        <ele>53.8</ele>
        <time>2019-11-11T08:19:27Z</time>
      </trkpt>
      <trkpt lat="49.32419" lon="0.99915">
        <ele>53.8</ele>
        <time>2019-11-11T08:19:28Z</time>
      </trkpt>
      <trkpt lat="49.32418" lon="0.99912">
        <ele>52.7</ele>
        <time>2019-11-11T08:19:29Z</time>
      </trkpt>
      <trkpt lat="49.32417" lon="0.9991">
        <ele>52.7</ele>
        <time>2019-11-11T08:19:30Z</time>
      </trkpt>
      <trkpt lat="49.32416" lon="0.99908">
        <ele>52.7</ele>
        <time>2019-11-11T08:19:31Z</time>
      </trkpt>
      <trkpt lat="49.32415" lon="0.99905">
        <ele>52.7</ele>
        <time>2019-11-11T08:19:32Z</time>
      </trkpt>
      <trkpt lat="49.32413" lon="0.99903">
        <ele>52.7</ele>
        <time>2019-11-11T08:19:33Z</time>
      </trkpt>
      <trkpt lat="49.32413" lon="0.999">
        <ele>52.7</ele>
        <time>2019-11-11T08:19:34Z</time>
      </trkpt>
      <trkpt lat="49.32412" lon="0.99897">
        <ele>52.7</ele>
        <time>2019-11-11T08:19:35Z</time>
      </trkpt>
      <trkpt lat="49.32411" lon="0.99893">
        <ele>52.7</ele>
        <time>2019-11-11T08:19:36Z</time>
      </trkpt>
      <trkpt lat="49.32409" lon="0.99888">
        <ele>52.7</ele>
        <time>2019-11-11T08:19:37Z</time>
      </trkpt>
      <trkpt lat="49.32407" lon="0.99884">
        <ele>52.7</ele>
        <time>2019-11-11T08:19:38Z</time>
      </trkpt>
      <trkpt lat="49.32405" lon="0.99879">
        <ele>51.8</ele>
        <time>2019-11-11T08:19:39Z</time>
      </trkpt>
      <trkpt lat="49.32403" lon="0.99876">
        <ele>51.8</ele>
        <time>2019-11-11T08:19:40Z</time>
      </trkpt>
      <trkpt lat="49.32401" lon="0.99871">
        <ele>51.8</ele>
        <time>2019-11-11T08:19:41Z</time>
      </trkpt>
      <trkpt lat="49.324" lon="0.99866">
        <ele>51.8</ele>
        <time>2019-11-11T08:19:42Z</time>
      </trkpt>
      <trkpt lat="49.32399" lon="0.99861">
        <ele>51.8</ele>
        <time>2019-11-11T08:19:43Z</time>
      </trkpt>
      <trkpt lat="49.32397" lon="0.99857">
        <ele>51.8</ele>
        <time>2019-11-11T08:19:44Z</time>
      </trkpt>
      <trkpt lat="49.32396" lon="0.99852">
        <ele>50.8</ele>
        <time>2019-11-11T08:19:45Z</time>
      </trkpt>
      <trkpt lat="49.32394" lon="0.99847">
        <ele>50.8</ele>
        <time>2019-11-11T08:19:46Z</time>
      </trkpt>
      <trkpt lat="49.32393" lon="0.99842">
        <ele>50.8</ele>
        <time>2019-11-11T08:19:47Z</time>
      </trkpt>
      <trkpt lat="49.32392" lon="0.99838">
        <ele>50.8</ele>
        <time>2019-11-11T08:19:48Z</time>
      </trkpt>
      <trkpt lat="49.3239" lon="0.99835">
        <ele>50.8</ele>
        <time>2019-11-11T08:19:49Z</time>
      </trkpt>
      <trkpt lat="49.32389" lon="0.99832">
        <ele>50.8</ele>
        <time>2019-11-11T08:19:50Z</time>
      </trkpt>
      <trkpt lat="49.32387" lon="0.99828">
        <ele>50.8</ele>
        <time>2019-11-11T08:19:51Z</time>
      </trkpt>
      <trkpt lat="49.32386" lon="0.99824">
        <ele>50.8</ele>
        <time>2019-11-11T08:19:52Z</time>
      </trkpt>
      <trkpt lat="49.32384" lon="0.99821">
        <ele>50.8</ele>
        <time>2019-11-11T08:19:53Z</time>
      </trkpt>
      <trkpt lat="49.32383" lon="0.99817">
        <ele>50.8</ele>
        <time>2019-11-11T08:19:54Z</time>
      </trkpt>
      <trkpt lat="49.32382" lon="0.99814">
        <ele>49.7</ele>
        <time>2019-11-11T08:19:55Z</time>
      </trkpt>
      <trkpt lat="49.32382" lon="0.9981">
        <ele>49.7</ele>
        <time>2019-11-11T08:19:56Z</time>
      </trkpt>
      <trkpt lat="49.32382" lon="0.99807">
        <ele>49.7</ele>
        <time>2019-11-11T08:19:57Z</time>
      </trkpt>
      <trkpt lat="49.32382" lon="0.99803">
        <ele>49.7</ele>
        <time>2019-11-11T08:19:58Z</time>
      </trkpt>
      <trkpt lat="49.32383" lon="0.99801">
        <ele>48.8</ele>
        <time>2019-11-11T08:19:59Z</time>
      </trkpt>
      <trkpt lat="49.32384" lon="0.99798">
        <ele>48.8</ele>
        <time>2019-11-11T08:20:00Z</time>
      </trkpt>
      <trkpt lat="49.32385" lon="0.99795">
        <ele>48.8</ele>
        <time>2019-11-11T08:20:01Z</time>
      </trkpt>
      <trkpt lat="49.32386" lon="0.99793">
        <ele>48.8</ele>
        <time>2019-11-11T08:20:02Z</time>
      </trkpt>
      <trkpt lat="49.32387" lon="0.99791">
        <ele>48.8</ele>
        <time>2019-11-11T08:20:03Z</time>
      </trkpt>
      <trkpt lat="49.32388" lon="0.99789">
        <ele>48.8</ele>
        <time>2019-11-11T08:20:04Z</time>
      </trkpt>
      <trkpt lat="49.32388" lon="0.99786">
        <ele>48.8</ele>
        <time>2019-11-11T08:20:05Z</time>
      </trkpt>
      <trkpt lat="49.32388" lon="0.99784">
        <ele>48.8</ele>
        <time>2019-11-11T08:20:06Z</time>
      </trkpt>
      <trkpt lat="49.32387" lon="0.99782">
        <ele>45.7</ele>
        <time>2019-11-11T08:20:07Z</time>
      </trkpt>
      <trkpt lat="49.32386" lon="0.99779">
        <ele>45.7</ele>
        <time>2019-11-11T08:20:08Z</time>
      </trkpt>
      <trkpt lat="49.32385" lon="0.99776">
        <ele>45.7</ele>
        <time>2019-11-11T08:20:09Z</time>
      </trkpt>
      <trkpt lat="49.32384" lon="0.99773">
        <ele>45.7</ele>
        <time>2019-11-11T08:20:10Z</time>
      </trkpt>
      <trkpt lat="49.32383" lon="0.9977">
        <ele>45.7</ele>
        <time>2019-11-11T08:20:11Z</time>
      </trkpt>
      <trkpt lat="49.32381" lon="0.99767">
        <ele>45.7</ele>
        <time>2019-11-11T08:20:12Z</time>
      </trkpt>
      <trkpt lat="49.32379" lon="0.99765">
        <ele>45.7</ele>
        <time>2019-11-11T08:20:13Z</time>
      </trkpt>
      <trkpt lat="49.32377" lon="0.99763">
        <ele>45.7</ele>
        <time>2019-11-11T08:20:14Z</time>
      </trkpt>
      <trkpt lat="49.32376" lon="0.99762">
        <ele>45.7</ele>
        <time>2019-11-11T08:20:15Z</time>
      </trkpt>
      <trkpt lat="49.32374" lon="0.99761">
        <ele>45.7</ele>
        <time>2019-11-11T08:20:16Z</time>
      </trkpt>
      <trkpt lat="49.32374" lon="0.99759">
        <ele>46.8</ele>
        <time>2019-11-11T08:20:17Z</time>
      </trkpt>
      <trkpt lat="49.32373" lon="0.99757">
        <ele>46.8</ele>
        <time>2019-11-11T08:20:18Z</time>
      </trkpt>
      <trkpt lat="49.32372" lon="0.99755">
        <ele>46.8</ele>
        <time>2019-11-11T08:20:19Z</time>
      </trkpt>
      <trkpt lat="49.32371" lon="0.99753">
        <ele>46.8</ele>
        <time>2019-11-11T08:20:20Z</time>
      </trkpt>
      <trkpt lat="49.32371" lon="0.99751">
        <ele>46.8</ele>
        <time>2019-11-11T08:20:21Z</time>
      </trkpt>
      <trkpt lat="49.3237" lon="0.9975">
        <ele>46.8</ele>
        <time>2019-11-11T08:20:22Z</time>
      </trkpt>
      <trkpt lat="49.3237" lon="0.9975">
        <ele>46.8</ele>
        <time>2019-11-11T08:20:23Z</time>
      </trkpt>
      <trkpt lat="49.32369" lon="0.9975">
        <ele>46.8</ele>
        <time>2019-11-11T08:20:24Z</time>
      </trkpt>
      <trkpt lat="49.32369" lon="0.9975">
        <ele>46.8</ele>
        <time>2019-11-11T08:20:25Z</time>
      </trkpt>
      <trkpt lat="49.32368" lon="0.9975">
        <ele>46.8</ele>
        <time>2019-11-11T08:20:26Z</time>
      </trkpt>
      <trkpt lat="49.32368" lon="0.9975">
        <ele>46.8</ele>
        <time>2019-11-11T08:20:27Z</time>
      </trkpt>
      <trkpt lat="49.32366" lon="0.99751">
        <ele>46.8</ele>
        <time>2019-11-11T08:20:28Z</time>
      </trkpt>
      <trkpt lat="49.32365" lon="0.99751">
        <ele>46.8</ele>
        <time>2019-11-11T08:20:29Z</time>
      </trkpt>
      <trkpt lat="49.32364" lon="0.99751">
        <ele>46.8</ele>
        <time>2019-11-11T08:20:30Z</time>
      </trkpt>
      <trkpt lat="49.32364" lon="0.99751">
        <ele>46.8</ele>
        <time>2019-11-11T08:20:31Z</time>
      </trkpt>
      <trkpt lat="49.32364" lon="0.99751">
        <ele>46.8</ele>
        <time>2019-11-11T08:20:32Z</time>
      </trkpt>
      <trkpt lat="49.32363" lon="0.99751">
        <ele>46.8</ele>
        <time>2019-11-11T08:20:33Z</time>
      </trkpt>
      <trkpt lat="49.32363" lon="0.99751">
        <ele>46.8</ele>
        <time>2019-11-11T08:20:34Z</time>
      </trkpt>
      <trkpt lat="49.3236" lon="0.99747">
        <ele>48.8</ele>
        <time>2019-11-11T08:20:38Z</time>
      </trkpt>
      <trkpt lat="49.32359" lon="0.99745">
        <ele>48.8</ele>
        <time>2019-11-11T08:20:39Z</time>
      </trkpt>
      <trkpt lat="49.32358" lon="0.99743">
        <ele>48.8</ele>
        <time>2019-11-11T08:20:40Z</time>
      </trkpt>
      <trkpt lat="49.32357" lon="0.99741">
        <ele>48.8</ele>
        <time>2019-11-11T08:20:41Z</time>
      </trkpt>
      <trkpt lat="49.32355" lon="0.9974">
        <ele>48.8</ele>
        <time>2019-11-11T08:20:42Z</time>
      </trkpt>
      <trkpt lat="49.32354" lon="0.99738">
        <ele>48.8</ele>
        <time>2019-11-11T08:20:43Z</time>
      </trkpt>
      <trkpt lat="49.32352" lon="0.99736">
        <ele>48.8</ele>
        <time>2019-11-11T08:20:44Z</time>
      </trkpt>
      <trkpt lat="49.3235" lon="0.99733">
        <ele>48.8</ele>
        <time>2019-11-11T08:20:45Z</time>
      </trkpt>
      <trkpt lat="49.32348" lon="0.9973">
        <ele>48.8</ele>
        <time>2019-11-11T08:20:46Z</time>
      </trkpt>
      <trkpt lat="49.32345" lon="0.99728">
        <ele>48.8</ele>
        <time>2019-11-11T08:20:47Z</time>
      </trkpt>
      <trkpt lat="49.32343" lon="0.99725">
        <ele>48.8</ele>
        <time>2019-11-11T08:20:48Z</time>
      </trkpt>
      <trkpt lat="49.3234" lon="0.99723">
        <ele>48.8</ele>
        <time>2019-11-11T08:20:49Z</time>
      </trkpt>
      <trkpt lat="49.32338" lon="0.9972">
        <ele>48.8</ele>
        <time>2019-11-11T08:20:50Z</time>
      </trkpt>
      <trkpt lat="49.32335" lon="0.99717">
        <ele>48.8</ele>
        <time>2019-11-11T08:20:51Z</time>
      </trkpt>
      <trkpt lat="49.32332" lon="0.99715">
        <ele>48.8</ele>
        <time>2019-11-11T08:20:52Z</time>
      </trkpt>
      <trkpt lat="49.32329" lon="0.99712">
        <ele>48.8</ele>
        <time>2019-11-11T08:20:53Z</time>
      </trkpt>
      <trkpt lat="49.32327" lon="0.9971">
        <ele>48.8</ele>
        <time>2019-11-11T08:20:54Z</time>
      </trkpt>
      <trkpt lat="49.32324" lon="0.99709">
        <ele>48.8</ele>
        <time>2019-11-11T08:20:55Z</time>
      </trkpt>
      <trkpt lat="49.32322" lon="0.99707">
        <ele>48.8</ele>
        <time>2019-11-11T08:20:56Z</time>
      </trkpt>
      <trkpt lat="49.3232" lon="0.99705">
        <ele>48.8</ele>
        <time>2019-11-11T08:20:57Z</time>
      </trkpt>
      <trkpt lat="49.32317" lon="0.99702">
        <ele>48.8</ele>
        <time>2019-11-11T08:20:58Z</time>
      </trkpt>
      <trkpt lat="49.32315" lon="0.99698">
        <ele>48.8</ele>
        <time>2019-11-11T08:20:59Z</time>
      </trkpt>
      <trkpt lat="49.32312" lon="0.99694">
        <ele>48.8</ele>
        <time>2019-11-11T08:21:00Z</time>
      </trkpt>
      <trkpt lat="49.32309" lon="0.99691">
        <ele>48.8</ele>
        <time>2019-11-11T08:21:01Z</time>
      </trkpt>
      <trkpt lat="49.32306" lon="0.99688">
        <ele>48.8</ele>
        <time>2019-11-11T08:21:02Z</time>
      </trkpt>
      <trkpt lat="49.32302" lon="0.99685">
        <ele>47.7</ele>
        <time>2019-11-11T08:21:03Z</time>
      </trkpt>
      <trkpt lat="49.32298" lon="0.99683">
        <ele>47.7</ele>
        <time>2019-11-11T08:21:04Z</time>
      </trkpt>
      <trkpt lat="49.32295" lon="0.9968">
        <ele>47.7</ele>
        <time>2019-11-11T08:21:05Z</time>
      </trkpt>
      <trkpt lat="49.32291" lon="0.99677">
        <ele>47.7</ele>
        <time>2019-11-11T08:21:06Z</time>
      </trkpt>
      <trkpt lat="49.32289" lon="0.99674">
        <ele>47.7</ele>
        <time>2019-11-11T08:21:07Z</time>
      </trkpt>
      <trkpt lat="49.32286" lon="0.9967">
        <ele>47.7</ele>
        <time>2019-11-11T08:21:08Z</time>
      </trkpt>
      <trkpt lat="49.32282" lon="0.99667">
        <ele>47.7</ele>
        <time>2019-11-11T08:21:09Z</time>
      </trkpt>
      <trkpt lat="49.32278" lon="0.99665">
        <ele>47.7</ele>
        <time>2019-11-11T08:21:10Z</time>
      </trkpt>
      <trkpt lat="49.32275" lon="0.99662">
        <ele>47.7</ele>
        <time>2019-11-11T08:21:11Z</time>
      </trkpt>
      <trkpt lat="49.32271" lon="0.9966">
        <ele>47.7</ele>
        <time>2019-11-11T08:21:12Z</time>
      </trkpt>
      <trkpt lat="49.32267" lon="0.99657">
        <ele>45.7</ele>
        <time>2019-11-11T08:21:13Z</time>
      </trkpt>
      <trkpt lat="49.32263" lon="0.99656">
        <ele>45.7</ele>
        <time>2019-11-11T08:21:14Z</time>
      </trkpt>
      <trkpt lat="49.32259" lon="0.99654">
        <ele>45.7</ele>
        <time>2019-11-11T08:21:15Z</time>
      </trkpt>
      <trkpt lat="49.32256" lon="0.99652">
        <ele>45.7</ele>
        <time>2019-11-11T08:21:16Z</time>
      </trkpt>
      <trkpt lat="49.32252" lon="0.9965">
        <ele>44.8</ele>
        <time>2019-11-11T08:21:17Z</time>
      </trkpt>
      <trkpt lat="49.32248" lon="0.99648">
        <ele>44.8</ele>
        <time>2019-11-11T08:21:18Z</time>
      </trkpt>
      <trkpt lat="49.32245" lon="0.99646">
        <ele>44.8</ele>
        <time>2019-11-11T08:21:19Z</time>
      </trkpt>
      <trkpt lat="49.32242" lon="0.99646">
        <ele>44.8</ele>
        <time>2019-11-11T08:21:20Z</time>
      </trkpt>
      <trkpt lat="49.32239" lon="0.99645">
        <ele>43.7</ele>
        <time>2019-11-11T08:21:21Z</time>
      </trkpt>
      <trkpt lat="49.32238" lon="0.99643">
        <ele>43.7</ele>
        <time>2019-11-11T08:21:22Z</time>
      </trkpt>
      <trkpt lat="49.32237" lon="0.9964">
        <ele>43.7</ele>
        <time>2019-11-11T08:21:23Z</time>
      </trkpt>
      <trkpt lat="49.32235" lon="0.99637">
        <ele>43.7</ele>
        <time>2019-11-11T08:21:24Z</time>
      </trkpt>
      <trkpt lat="49.32233" lon="0.99634">
        <ele>41.8</ele>
        <time>2019-11-11T08:21:25Z</time>
      </trkpt>
      <trkpt lat="49.32232" lon="0.99631">
        <ele>41.8</ele>
        <time>2019-11-11T08:21:26Z</time>
      </trkpt>
      <trkpt lat="49.3223" lon="0.99628">
        <ele>40.7</ele>
        <time>2019-11-11T08:21:27Z</time>
      </trkpt>
      <trkpt lat="49.32228" lon="0.99625">
        <ele>40.7</ele>
        <time>2019-11-11T08:21:28Z</time>
      </trkpt>
      <trkpt lat="49.32226" lon="0.99621">
        <ele>39.8</ele>
        <time>2019-11-11T08:21:29Z</time>
      </trkpt>
      <trkpt lat="49.32224" lon="0.99617">
        <ele>39.8</ele>
        <time>2019-11-11T08:21:30Z</time>
      </trkpt>
      <trkpt lat="49.32223" lon="0.99614">
        <ele>37.8</ele>
        <time>2019-11-11T08:21:31Z</time>
      </trkpt>
      <trkpt lat="49.32221" lon="0.99611">
        <ele>37.8</ele>
        <time>2019-11-11T08:21:32Z</time>
      </trkpt>
      <trkpt lat="49.3222" lon="0.99607">
        <ele>37.8</ele>
        <time>2019-11-11T08:21:33Z</time>
      </trkpt>
      <trkpt lat="49.32218" lon="0.99602">
        <ele>37.8</ele>
        <time>2019-11-11T08:21:34Z</time>
      </trkpt>
      <trkpt lat="49.32217" lon="0.99598">
        <ele>37.8</ele>
        <time>2019-11-11T08:21:35Z</time>
      </trkpt>
      <trkpt lat="49.32215" lon="0.99595">
        <ele>37.8</ele>
        <time>2019-11-11T08:21:36Z</time>
      </trkpt>
      <trkpt lat="49.32214" lon="0.99593">
        <ele>32.8</ele>
        <time>2019-11-11T08:21:37Z</time>
      </trkpt>
      <trkpt lat="49.32213" lon="0.99589">
        <ele>32.8</ele>
        <time>2019-11-11T08:21:38Z</time>
      </trkpt>
      <trkpt lat="49.32211" lon="0.99586">
        <ele>30.8</ele>
        <time>2019-11-11T08:21:39Z</time>
      </trkpt>
      <trkpt lat="49.3221" lon="0.99583">
        <ele>30.8</ele>
        <time>2019-11-11T08:21:40Z</time>
      </trkpt>
      <trkpt lat="49.32209" lon="0.99581">
        <ele>28.8</ele>
        <time>2019-11-11T08:21:41Z</time>
      </trkpt>
      <trkpt lat="49.32207" lon="0.99578">
        <ele>28.8</ele>
        <time>2019-11-11T08:21:42Z</time>
      </trkpt>
      <trkpt lat="49.32204" lon="0.99576">
        <ele>27.7</ele>
        <time>2019-11-11T08:21:43Z</time>
      </trkpt>
      <trkpt lat="49.32201" lon="0.99574">
        <ele>27.7</ele>
        <time>2019-11-11T08:21:44Z</time>
      </trkpt>
      <trkpt lat="49.32198" lon="0.99573">
        <ele>27.7</ele>
        <time>2019-11-11T08:21:45Z</time>
      </trkpt>
      <trkpt lat="49.32195" lon="0.99573">
        <ele>27.7</ele>
        <time>2019-11-11T08:21:46Z</time>
      </trkpt>
      <trkpt lat="49.32192" lon="0.99573">
        <ele>27.7</ele>
        <time>2019-11-11T08:21:47Z</time>
      </trkpt>
      <trkpt lat="49.32188" lon="0.99572">
        <ele>27.7</ele>
        <time>2019-11-11T08:21:48Z</time>
      </trkpt>
      <trkpt lat="49.32184" lon="0.99572">
        <ele>27.7</ele>
        <time>2019-11-11T08:21:49Z</time>
      </trkpt>
      <trkpt lat="49.32181" lon="0.99572">
        <ele>27.7</ele>
        <time>2019-11-11T08:21:50Z</time>
      </trkpt>
      <trkpt lat="49.32178" lon="0.99571">
        <ele>27.7</ele>
        <time>2019-11-11T08:21:51Z</time>
      </trkpt>
      <trkpt lat="49.32175" lon="0.9957">
        <ele>27.7</ele>
        <time>2019-11-11T08:21:52Z</time>
      </trkpt>
      <trkpt lat="49.32171" lon="0.99569">
        <ele>26.7</ele>
        <time>2019-11-11T08:21:53Z</time>
      </trkpt>
      <trkpt lat="49.32167" lon="0.99566">
        <ele>26.7</ele>
        <time>2019-11-11T08:21:54Z</time>
      </trkpt>
      <trkpt lat="49.32163" lon="0.99564">
        <ele>25.8</ele>
        <time>2019-11-11T08:21:55Z</time>
      </trkpt>
      <trkpt lat="49.32159" lon="0.99563">
        <ele>25.8</ele>
        <time>2019-11-11T08:21:56Z</time>
      </trkpt>
      <trkpt lat="49.32154" lon="0.99561">
        <ele>25.8</ele>
        <time>2019-11-11T08:21:57Z</time>
      </trkpt>
      <trkpt lat="49.3215" lon="0.9956">
        <ele>25.8</ele>
        <time>2019-11-11T08:21:58Z</time>
      </trkpt>
      <trkpt lat="49.32147" lon="0.99558">
        <ele>24.7</ele>
        <time>2019-11-11T08:21:59Z</time>
      </trkpt>
      <trkpt lat="49.32144" lon="0.99556">
        <ele>24.7</ele>
        <time>2019-11-11T08:22:00Z</time>
      </trkpt>
      <trkpt lat="49.32142" lon="0.99553">
        <ele>23.8</ele>
        <time>2019-11-11T08:22:01Z</time>
      </trkpt>
      <trkpt lat="49.32139" lon="0.9955">
        <ele>23.8</ele>
        <time>2019-11-11T08:22:02Z</time>
      </trkpt>
      <trkpt lat="49.32136" lon="0.99546">
        <ele>21.8</ele>
        <time>2019-11-11T08:22:03Z</time>
      </trkpt>
      <trkpt lat="49.32133" lon="0.99545">
        <ele>21.8</ele>
        <time>2019-11-11T08:22:04Z</time>
      </trkpt>
      <trkpt lat="49.32129" lon="0.99544">
        <ele>21.8</ele>
        <time>2019-11-11T08:22:05Z</time>
      </trkpt>
      <trkpt lat="49.32126" lon="0.99543">
        <ele>21.8</ele>
        <time>2019-11-11T08:22:06Z</time>
      </trkpt>
      <trkpt lat="49.32125" lon="0.99543">
        <ele>20.7</ele>
        <time>2019-11-11T08:22:07Z</time>
      </trkpt>
      <trkpt lat="49.32124" lon="0.99542">
        <ele>20.7</ele>
        <time>2019-11-11T08:22:08Z</time>
      </trkpt>
      <trkpt lat="49.32124" lon="0.99542">
        <ele>20.7</ele>
        <time>2019-11-11T08:22:09Z</time>
      </trkpt>
      <trkpt lat="49.32123" lon="0.99542">
        <ele>20.7</ele>
        <time>2019-11-11T08:22:10Z</time>
      </trkpt>
      <trkpt lat="49.32115" lon="0.99538">
        <ele>19.8</ele>
        <time>2019-11-11T08:22:58Z</time>
      </trkpt>
      <trkpt lat="49.32112" lon="0.99536">
        <ele>19.8</ele>
        <time>2019-11-11T08:22:59Z</time>
      </trkpt>
      <trkpt lat="49.32109" lon="0.99534">
        <ele>19.8</ele>
        <time>2019-11-11T08:23:00Z</time>
      </trkpt>
      <trkpt lat="49.32105" lon="0.99532">
        <ele>19.8</ele>
        <time>2019-11-11T08:23:01Z</time>
      </trkpt>
      <trkpt lat="49.32101" lon="0.99529">
        <ele>19.8</ele>
        <time>2019-11-11T08:23:02Z</time>
      </trkpt>
      <trkpt lat="49.32099" lon="0.99526">
        <ele>19.8</ele>
        <time>2019-11-11T08:23:03Z</time>
      </trkpt>
      <trkpt lat="49.32096" lon="0.99523">
        <ele>19.8</ele>
        <time>2019-11-11T08:23:04Z</time>
      </trkpt>
      <trkpt lat="49.32094" lon="0.9952">
        <ele>19.8</ele>
        <time>2019-11-11T08:23:05Z</time>
      </trkpt>
      <trkpt lat="49.32092" lon="0.99519">
        <ele>19.8</ele>
        <time>2019-11-11T08:23:06Z</time>
      </trkpt>
      <trkpt lat="49.3209" lon="0.99518">
        <ele>19.8</ele>
        <time>2019-11-11T08:23:07Z</time>
      </trkpt>
      <trkpt lat="49.32088" lon="0.99517">
        <ele>19.8</ele>
        <time>2019-11-11T08:23:08Z</time>
      </trkpt>
      <trkpt lat="49.32085" lon="0.99516">
        <ele>18.7</ele>
        <time>2019-11-11T08:23:09Z</time>
      </trkpt>
      <trkpt lat="49.32082" lon="0.99515">
        <ele>18.7</ele>
        <time>2019-11-11T08:23:10Z</time>
      </trkpt>
      <trkpt lat="49.3208" lon="0.99514">
        <ele>18.7</ele>
        <time>2019-11-11T08:23:11Z</time>
      </trkpt>
      <trkpt lat="49.32077" lon="0.99513">
        <ele>18.7</ele>
        <time>2019-11-11T08:23:12Z</time>
      </trkpt>
      <trkpt lat="49.32075" lon="0.99512">
        <ele>18.7</ele>
        <time>2019-11-11T08:23:13Z</time>
      </trkpt>
      <trkpt lat="49.32074" lon="0.99511">
        <ele>18.7</ele>
        <time>2019-11-11T08:23:14Z</time>
      </trkpt>
      <trkpt lat="49.32073" lon="0.9951">
        <ele>18.7</ele>
        <time>2019-11-11T08:23:15Z</time>
      </trkpt>
      <trkpt lat="49.32073" lon="0.9951">
        <ele>18.7</ele>
        <time>2019-11-11T08:23:16Z</time>
      </trkpt>
      <trkpt lat="49.32073" lon="0.9951">
        <ele>17.7</ele>
        <time>2019-11-11T08:23:17Z</time>
      </trkpt>
      <trkpt lat="49.32073" lon="0.9951">
        <ele>17.7</ele>
        <time>2019-11-11T08:23:18Z</time>
      </trkpt>
      <trkpt lat="49.32072" lon="0.9951">
        <ele>17.7</ele>
        <time>2019-11-11T08:23:19Z</time>
      </trkpt>
      <trkpt lat="49.32072" lon="0.99509">
        <ele>17.7</ele>
        <time>2019-11-11T08:23:20Z</time>
      </trkpt>
      <trkpt lat="49.3207" lon="0.99507">
        <ele>17.7</ele>
        <time>2019-11-11T08:23:21Z</time>
      </trkpt>
      <trkpt lat="49.32069" lon="0.99504">
        <ele>17.7</ele>
        <time>2019-11-11T08:23:22Z</time>
      </trkpt>
      <trkpt lat="49.32066" lon="0.99501">
        <ele>17.7</ele>
        <time>2019-11-11T08:23:23Z</time>
      </trkpt>
      <trkpt lat="49.32062" lon="0.99498">
        <ele>17.7</ele>
        <time>2019-11-11T08:23:24Z</time>
      </trkpt>
      <trkpt lat="49.32058" lon="0.99495">
        <ele>17.7</ele>
        <time>2019-11-11T08:23:25Z</time>
      </trkpt>
      <trkpt lat="49.32053" lon="0.99493">
        <ele>17.7</ele>
        <time>2019-11-11T08:23:26Z</time>
      </trkpt>
      <trkpt lat="49.32047" lon="0.9949">
        <ele>17.7</ele>
        <time>2019-11-11T08:23:27Z</time>
      </trkpt>
      <trkpt lat="49.32041" lon="0.99487">
        <ele>17.7</ele>
        <time>2019-11-11T08:23:28Z</time>
      </trkpt>
      <trkpt lat="49.32035" lon="0.99483">
        <ele>17.7</ele>
        <time>2019-11-11T08:23:29Z</time>
      </trkpt>
      <trkpt lat="49.32028" lon="0.9948">
        <ele>17.7</ele>
        <time>2019-11-11T08:23:30Z</time>
      </trkpt>
      <trkpt lat="49.32021" lon="0.99477">
        <ele>17.7</ele>
        <time>2019-11-11T08:23:31Z</time>
      </trkpt>
      <trkpt lat="49.32015" lon="0.99474">
        <ele>17.7</ele>
        <time>2019-11-11T08:23:32Z</time>
      </trkpt>
      <trkpt lat="49.32008" lon="0.9947">
        <ele>17.7</ele>
        <time>2019-11-11T08:23:33Z</time>
      </trkpt>
      <trkpt lat="49.32002" lon="0.99467">
        <ele>17.7</ele>
        <time>2019-11-11T08:23:34Z</time>
      </trkpt>
      <trkpt lat="49.31995" lon="0.99463">
        <ele>16.8</ele>
        <time>2019-11-11T08:23:35Z</time>
      </trkpt>
      <trkpt lat="49.31988" lon="0.9946">
        <ele>16.8</ele>
        <time>2019-11-11T08:23:36Z</time>
      </trkpt>
      <trkpt lat="49.31982" lon="0.99457">
        <ele>16.8</ele>
        <time>2019-11-11T08:23:37Z</time>
      </trkpt>
      <trkpt lat="49.31975" lon="0.99453">
        <ele>16.8</ele>
        <time>2019-11-11T08:23:38Z</time>
      </trkpt>
      <trkpt lat="49.31968" lon="0.99449">
        <ele>15.7</ele>
        <time>2019-11-11T08:23:39Z</time>
      </trkpt>
      <trkpt lat="49.31962" lon="0.99445">
        <ele>15.7</ele>
        <time>2019-11-11T08:23:40Z</time>
      </trkpt>
      <trkpt lat="49.31955" lon="0.99441">
        <ele>15.7</ele>
        <time>2019-11-11T08:23:41Z</time>
      </trkpt>
      <trkpt lat="49.31948" lon="0.99437">
        <ele>15.7</ele>
        <time>2019-11-11T08:23:42Z</time>
      </trkpt>
      <trkpt lat="49.31942" lon="0.99433">
        <ele>14.8</ele>
        <time>2019-11-11T08:23:43Z</time>
      </trkpt>
      <trkpt lat="49.31935" lon="0.99429">
        <ele>14.8</ele>
        <time>2019-11-11T08:23:44Z</time>
      </trkpt>
      <trkpt lat="49.31929" lon="0.99426">
        <ele>14.8</ele>
        <time>2019-11-11T08:23:45Z</time>
      </trkpt>
      <trkpt lat="49.31923" lon="0.99422">
        <ele>14.8</ele>
        <time>2019-11-11T08:23:46Z</time>
      </trkpt>
      <trkpt lat="49.31916" lon="0.99418">
        <ele>13.7</ele>
        <time>2019-11-11T08:23:47Z</time>
      </trkpt>
      <trkpt lat="49.3191" lon="0.99414">
        <ele>13.7</ele>
        <time>2019-11-11T08:23:48Z</time>
      </trkpt>
      <trkpt lat="49.31904" lon="0.9941">
        <ele>13.7</ele>
        <time>2019-11-11T08:23:49Z</time>
      </trkpt>
      <trkpt lat="49.31898" lon="0.99404">
        <ele>13.7</ele>
        <time>2019-11-11T08:23:50Z</time>
      </trkpt>
      <trkpt lat="49.31894" lon="0.99399">
        <ele>13.7</ele>
        <time>2019-11-11T08:23:51Z</time>
      </trkpt>
      <trkpt lat="49.3189" lon="0.99393">
        <ele>13.7</ele>
        <time>2019-11-11T08:23:52Z</time>
      </trkpt>
      <trkpt lat="49.31889" lon="0.99388">
        <ele>12.8</ele>
        <time>2019-11-11T08:23:53Z</time>
      </trkpt>
      <trkpt lat="49.31888" lon="0.99383">
        <ele>12.8</ele>
        <time>2019-11-11T08:23:54Z</time>
      </trkpt>
      <trkpt lat="49.31889" lon="0.99377">
        <ele>11.7</ele>
        <time>2019-11-11T08:23:55Z</time>
      </trkpt>
      <trkpt lat="49.3189" lon="0.9937">
        <ele>11.7</ele>
        <time>2019-11-11T08:23:56Z</time>
      </trkpt>
      <trkpt lat="49.3189" lon="0.99363">
        <ele>11.7</ele>
        <time>2019-11-11T08:23:57Z</time>
      </trkpt>
      <trkpt lat="49.3189" lon="0.99356">
        <ele>11.7</ele>
        <time>2019-11-11T08:23:58Z</time>
      </trkpt>
      <trkpt lat="49.31889" lon="0.99348">
        <ele>10.7</ele>
        <time>2019-11-11T08:23:59Z</time>
      </trkpt>
      <trkpt lat="49.31886" lon="0.99341">
        <ele>10.7</ele>
        <time>2019-11-11T08:24:00Z</time>
      </trkpt>
      <trkpt lat="49.31882" lon="0.99334">
        <ele>10.7</ele>
        <time>2019-11-11T08:24:01Z</time>
      </trkpt>
      <trkpt lat="49.31877" lon="0.9933">
        <ele>10.7</ele>
        <time>2019-11-11T08:24:02Z</time>
      </trkpt>
      <trkpt lat="49.31871" lon="0.99327">
        <ele>10.7</ele>
        <time>2019-11-11T08:24:03Z</time>
      </trkpt>
      <trkpt lat="49.31865" lon="0.99327">
        <ele>10.7</ele>
        <time>2019-11-11T08:24:04Z</time>
      </trkpt>
      <trkpt lat="49.3186" lon="0.99329">
        <ele>10.7</ele>
        <time>2019-11-11T08:24:05Z</time>
      </trkpt>
      <trkpt lat="49.31854" lon="0.99331">
        <ele>10.7</ele>
        <time>2019-11-11T08:24:06Z</time>
      </trkpt>
      <trkpt lat="49.31849" lon="0.99332">
        <ele>10.7</ele>
        <time>2019-11-11T08:24:07Z</time>
      </trkpt>
      <trkpt lat="49.31844" lon="0.99332">
        <ele>10.7</ele>
        <time>2019-11-11T08:24:08Z</time>
      </trkpt>
      <trkpt lat="49.31839" lon="0.99334">
        <ele>10.7</ele>
        <time>2019-11-11T08:24:09Z</time>
      </trkpt>
      <trkpt lat="49.31836" lon="0.99338">
        <ele>10.7</ele>
        <time>2019-11-11T08:24:10Z</time>
      </trkpt>
      <trkpt lat="49.31832" lon="0.99343">
        <ele>10.7</ele>
        <time>2019-11-11T08:24:11Z</time>
      </trkpt>
      <trkpt lat="49.31829" lon="0.99349">
        <ele>10.7</ele>
        <time>2019-11-11T08:24:12Z</time>
      </trkpt>
      <trkpt lat="49.31827" lon="0.99356">
        <ele>10.7</ele>
        <time>2019-11-11T08:24:13Z</time>
      </trkpt>
      <trkpt lat="49.31825" lon="0.99364">
        <ele>10.7</ele>
        <time>2019-11-11T08:24:14Z</time>
      </trkpt>
      <trkpt lat="49.31822" lon="0.99371">
        <ele>10.7</ele>
        <time>2019-11-11T08:24:15Z</time>
      </trkpt>
      <trkpt lat="49.31818" lon="0.99376">
        <ele>10.7</ele>
        <time>2019-11-11T08:24:16Z</time>
      </trkpt>
      <trkpt lat="49.31813" lon="0.9938">
        <ele>10.7</ele>
        <time>2019-11-11T08:24:17Z</time>
      </trkpt>
      <trkpt lat="49.31808" lon="0.99382">
        <ele>10.7</ele>
        <time>2019-11-11T08:24:18Z</time>
      </trkpt>
      <trkpt lat="49.31802" lon="0.99385">
        <ele>10.7</ele>
        <time>2019-11-11T08:24:19Z</time>
      </trkpt>
      <trkpt lat="49.31797" lon="0.99387">
        <ele>10.7</ele>
        <time>2019-11-11T08:24:20Z</time>
      </trkpt>
      <trkpt lat="49.31791" lon="0.9939">
        <ele>10.7</ele>
        <time>2019-11-11T08:24:21Z</time>
      </trkpt>
      <trkpt lat="49.31785" lon="0.99393">
        <ele>10.7</ele>
        <time>2019-11-11T08:24:22Z</time>
      </trkpt>
      <trkpt lat="49.31779" lon="0.99395">
        <ele>10.7</ele>
        <time>2019-11-11T08:24:23Z</time>
      </trkpt>
      <trkpt lat="49.31774" lon="0.99398">
        <ele>10.7</ele>
        <time>2019-11-11T08:24:24Z</time>
      </trkpt>
      <trkpt lat="49.31768" lon="0.99401">
        <ele>10.7</ele>
        <time>2019-11-11T08:24:25Z</time>
      </trkpt>
      <trkpt lat="49.31763" lon="0.99405">
        <ele>10.7</ele>
        <time>2019-11-11T08:24:26Z</time>
      </trkpt>
      <trkpt lat="49.31757" lon="0.99409">
        <ele>10.7</ele>
        <time>2019-11-11T08:24:27Z</time>
      </trkpt>
      <trkpt lat="49.31752" lon="0.99412">
        <ele>10.7</ele>
        <time>2019-11-11T08:24:28Z</time>
      </trkpt>
      <trkpt lat="49.31747" lon="0.99416">
        <ele>9.8</ele>
        <time>2019-11-11T08:24:29Z</time>
      </trkpt>
      <trkpt lat="49.31742" lon="0.99421">
        <ele>9.8</ele>
        <time>2019-11-11T08:24:30Z</time>
      </trkpt>
      <trkpt lat="49.31736" lon="0.99425">
        <ele>9.8</ele>
        <time>2019-11-11T08:24:31Z</time>
      </trkpt>
      <trkpt lat="49.31731" lon="0.9943">
        <ele>9.8</ele>
        <time>2019-11-11T08:24:32Z</time>
      </trkpt>
      <trkpt lat="49.31726" lon="0.99435">
        <ele>9.8</ele>
        <time>2019-11-11T08:24:33Z</time>
      </trkpt>
      <trkpt lat="49.31721" lon="0.99439">
        <ele>9.8</ele>
        <time>2019-11-11T08:24:34Z</time>
      </trkpt>
      <trkpt lat="49.31716" lon="0.99443">
        <ele>8.7</ele>
        <time>2019-11-11T08:24:35Z</time>
      </trkpt>
      <trkpt lat="49.3171" lon="0.99447">
        <ele>8.7</ele>
        <time>2019-11-11T08:24:36Z</time>
      </trkpt>
      <trkpt lat="49.31705" lon="0.99451">
        <ele>8.7</ele>
        <time>2019-11-11T08:24:37Z</time>
      </trkpt>
      <trkpt lat="49.317" lon="0.99455">
        <ele>8.7</ele>
        <time>2019-11-11T08:24:38Z</time>
      </trkpt>
      <trkpt lat="49.31695" lon="0.99459">
        <ele>8.7</ele>
        <time>2019-11-11T08:24:39Z</time>
      </trkpt>
      <trkpt lat="49.31689" lon="0.99463">
        <ele>8.7</ele>
        <time>2019-11-11T08:24:40Z</time>
      </trkpt>
      <trkpt lat="49.31684" lon="0.99467">
        <ele>8.7</ele>
        <time>2019-11-11T08:24:41Z</time>
      </trkpt>
      <trkpt lat="49.31678" lon="0.9947">
        <ele>8.7</ele>
        <time>2019-11-11T08:24:42Z</time>
      </trkpt>
      <trkpt lat="49.31672" lon="0.99473">
        <ele>8.7</ele>
        <time>2019-11-11T08:24:43Z</time>
      </trkpt>
      <trkpt lat="49.31666" lon="0.99476">
        <ele>8.7</ele>
        <time>2019-11-11T08:24:44Z</time>
      </trkpt>
      <trkpt lat="49.3166" lon="0.99479">
        <ele>8.7</ele>
        <time>2019-11-11T08:24:45Z</time>
      </trkpt>
      <trkpt lat="49.31654" lon="0.99481">
        <ele>8.7</ele>
        <time>2019-11-11T08:24:46Z</time>
      </trkpt>
      <trkpt lat="49.31648" lon="0.99482">
        <ele>8.7</ele>
        <time>2019-11-11T08:24:47Z</time>
      </trkpt>
      <trkpt lat="49.31642" lon="0.99483">
        <ele>8.7</ele>
        <time>2019-11-11T08:24:48Z</time>
      </trkpt>
      <trkpt lat="49.31636" lon="0.99482">
        <ele>8.7</ele>
        <time>2019-11-11T08:24:49Z</time>
      </trkpt>
      <trkpt lat="49.3163" lon="0.99481">
        <ele>8.7</ele>
        <time>2019-11-11T08:24:50Z</time>
      </trkpt>
      <trkpt lat="49.31624" lon="0.9948">
        <ele>8.7</ele>
        <time>2019-11-11T08:24:51Z</time>
      </trkpt>
      <trkpt lat="49.31617" lon="0.99479">
        <ele>8.7</ele>
        <time>2019-11-11T08:24:52Z</time>
      </trkpt>
      <trkpt lat="49.31611" lon="0.9948">
        <ele>8.7</ele>
        <time>2019-11-11T08:24:53Z</time>
      </trkpt>
      <trkpt lat="49.31605" lon="0.99481">
        <ele>8.7</ele>
        <time>2019-11-11T08:24:54Z</time>
      </trkpt>
      <trkpt lat="49.31599" lon="0.99483">
        <ele>8.7</ele>
        <time>2019-11-11T08:24:55Z</time>
      </trkpt>
      <trkpt lat="49.31593" lon="0.99487">
        <ele>8.7</ele>
        <time>2019-11-11T08:24:56Z</time>
      </trkpt>
      <trkpt lat="49.31587" lon="0.99491">
        <ele>8.7</ele>
        <time>2019-11-11T08:24:57Z</time>
      </trkpt>
      <trkpt lat="49.31582" lon="0.99495">
        <ele>8.7</ele>
        <time>2019-11-11T08:24:58Z</time>
      </trkpt>
      <trkpt lat="49.31576" lon="0.99498">
        <ele>8.7</ele>
        <time>2019-11-11T08:24:59Z</time>
      </trkpt>
      <trkpt lat="49.3157" lon="0.99501">
        <ele>8.7</ele>
        <time>2019-11-11T08:25:00Z</time>
      </trkpt>
      <trkpt lat="49.31564" lon="0.99503">
        <ele>8.7</ele>
        <time>2019-11-11T08:25:01Z</time>
      </trkpt>
      <trkpt lat="49.31558" lon="0.99506">
        <ele>8.7</ele>
        <time>2019-11-11T08:25:02Z</time>
      </trkpt>
      <trkpt lat="49.31552" lon="0.99508">
        <ele>8.7</ele>
        <time>2019-11-11T08:25:03Z</time>
      </trkpt>
      <trkpt lat="49.31546" lon="0.9951">
        <ele>8.7</ele>
        <time>2019-11-11T08:25:04Z</time>
      </trkpt>
      <trkpt lat="49.3154" lon="0.99512">
        <ele>8.7</ele>
        <time>2019-11-11T08:25:05Z</time>
      </trkpt>
      <trkpt lat="49.31534" lon="0.99513">
        <ele>8.7</ele>
        <time>2019-11-11T08:25:06Z</time>
      </trkpt>
      <trkpt lat="49.31528" lon="0.99514">
        <ele>8.7</ele>
        <time>2019-11-11T08:25:07Z</time>
      </trkpt>
      <trkpt lat="49.31522" lon="0.99516">
        <ele>8.7</ele>
        <time>2019-11-11T08:25:08Z</time>
      </trkpt>
      <trkpt lat="49.31516" lon="0.99518">
        <ele>7.8</ele>
        <time>2019-11-11T08:25:09Z</time>
      </trkpt>
      <trkpt lat="49.3151" lon="0.9952">
        <ele>7.8</ele>
        <time>2019-11-11T08:25:10Z</time>
      </trkpt>
      <trkpt lat="49.31504" lon="0.99523">
        <ele>7.8</ele>
        <time>2019-11-11T08:25:11Z</time>
      </trkpt>
      <trkpt lat="49.31498" lon="0.99526">
        <ele>7.8</ele>
        <time>2019-11-11T08:25:12Z</time>
      </trkpt>
      <trkpt lat="49.31492" lon="0.99529">
        <ele>7.8</ele>
        <time>2019-11-11T08:25:13Z</time>
      </trkpt>
      <trkpt lat="49.31486" lon="0.99531">
        <ele>7.8</ele>
        <time>2019-11-11T08:25:14Z</time>
      </trkpt>
      <trkpt lat="49.3148" lon="0.99532">
        <ele>7.8</ele>
        <time>2019-11-11T08:25:15Z</time>
      </trkpt>
      <trkpt lat="49.31473" lon="0.99533">
        <ele>7.8</ele>
        <time>2019-11-11T08:25:16Z</time>
      </trkpt>
      <trkpt lat="49.31467" lon="0.99534">
        <ele>7.8</ele>
        <time>2019-11-11T08:25:17Z</time>
      </trkpt>
      <trkpt lat="49.31461" lon="0.99536">
        <ele>7.8</ele>
        <time>2019-11-11T08:25:18Z</time>
      </trkpt>
      <trkpt lat="49.31455" lon="0.99539">
        <ele>6.7</ele>
        <time>2019-11-11T08:25:19Z</time>
      </trkpt>
      <trkpt lat="49.31449" lon="0.99542">
        <ele>6.7</ele>
        <time>2019-11-11T08:25:20Z</time>
      </trkpt>
      <trkpt lat="49.31443" lon="0.99545">
        <ele>6.7</ele>
        <time>2019-11-11T08:25:21Z</time>
      </trkpt>
      <trkpt lat="49.31437" lon="0.99547">
        <ele>6.7</ele>
        <time>2019-11-11T08:25:22Z</time>
      </trkpt>
      <trkpt lat="49.31431" lon="0.99548">
        <ele>5.8</ele>
        <time>2019-11-11T08:25:23Z</time>
      </trkpt>
      <trkpt lat="49.31424" lon="0.9955">
        <ele>5.8</ele>
        <time>2019-11-11T08:25:24Z</time>
      </trkpt>
      <trkpt lat="49.31418" lon="0.99552">
        <ele>5.8</ele>
        <time>2019-11-11T08:25:25Z</time>
      </trkpt>
      <trkpt lat="49.31412" lon="0.99554">
        <ele>5.8</ele>
        <time>2019-11-11T08:25:26Z</time>
      </trkpt>
      <trkpt lat="49.31406" lon="0.99556">
        <ele>5.8</ele>
        <time>2019-11-11T08:25:27Z</time>
      </trkpt>
      <trkpt lat="49.314" lon="0.99559">
        <ele>5.8</ele>
        <time>2019-11-11T08:25:28Z</time>
      </trkpt>
      <trkpt lat="49.31394" lon="0.99562">
        <ele>5.8</ele>
        <time>2019-11-11T08:25:29Z</time>
      </trkpt>
      <trkpt lat="49.31388" lon="0.99565">
        <ele>5.8</ele>
        <time>2019-11-11T08:25:30Z</time>
      </trkpt>
      <trkpt lat="49.31382" lon="0.99567">
        <ele>5.8</ele>
        <time>2019-11-11T08:25:31Z</time>
      </trkpt>
      <trkpt lat="49.31376" lon="0.99568">
        <ele>5.8</ele>
        <time>2019-11-11T08:25:32Z</time>
      </trkpt>
      <trkpt lat="49.3137" lon="0.9957">
        <ele>5.8</ele>
        <time>2019-11-11T08:25:33Z</time>
      </trkpt>
      <trkpt lat="49.31364" lon="0.99571">
        <ele>5.8</ele>
        <time>2019-11-11T08:25:34Z</time>
      </trkpt>
      <trkpt lat="49.31358" lon="0.99572">
        <ele>5.8</ele>
        <time>2019-11-11T08:25:35Z</time>
      </trkpt>
      <trkpt lat="49.31352" lon="0.99574">
        <ele>5.8</ele>
        <time>2019-11-11T08:25:36Z</time>
      </trkpt>
      <trkpt lat="49.31345" lon="0.99575">
        <ele>5.8</ele>
        <time>2019-11-11T08:25:37Z</time>
      </trkpt>
      <trkpt lat="49.31339" lon="0.99577">
        <ele>5.8</ele>
        <time>2019-11-11T08:25:38Z</time>
      </trkpt>
      <trkpt lat="49.31333" lon="0.99578">
        <ele>5.8</ele>
        <time>2019-11-11T08:25:39Z</time>
      </trkpt>
      <trkpt lat="49.31327" lon="0.99581">
        <ele>5.8</ele>
        <time>2019-11-11T08:25:40Z</time>
      </trkpt>
      <trkpt lat="49.3132" lon="0.99583">
        <ele>5.8</ele>
        <time>2019-11-11T08:25:41Z</time>
      </trkpt>
      <trkpt lat="49.31314" lon="0.99586">
        <ele>5.8</ele>
        <time>2019-11-11T08:25:42Z</time>
      </trkpt>
      <trkpt lat="49.31308" lon="0.99589">
        <ele>5.8</ele>
        <time>2019-11-11T08:25:43Z</time>
      </trkpt>
      <trkpt lat="49.31302" lon="0.99592">
        <ele>5.8</ele>
        <time>2019-11-11T08:25:44Z</time>
      </trkpt>
      <trkpt lat="49.31297" lon="0.99596">
        <ele>5.8</ele>
        <time>2019-11-11T08:25:45Z</time>
      </trkpt>
      <trkpt lat="49.31291" lon="0.996">
        <ele>5.8</ele>
        <time>2019-11-11T08:25:46Z</time>
      </trkpt>
      <trkpt lat="49.31286" lon="0.99603">
        <ele>4.7</ele>
        <time>2019-11-11T08:25:47Z</time>
      </trkpt>
      <trkpt lat="49.31281" lon="0.99607">
        <ele>4.7</ele>
        <time>2019-11-11T08:25:48Z</time>
      </trkpt>
      <trkpt lat="49.31275" lon="0.9961">
        <ele>4.7</ele>
        <time>2019-11-11T08:25:49Z</time>
      </trkpt>
      <trkpt lat="49.3127" lon="0.99612">
        <ele>4.7</ele>
        <time>2019-11-11T08:25:50Z</time>
      </trkpt>
      <trkpt lat="49.31264" lon="0.99614">
        <ele>4.7</ele>
        <time>2019-11-11T08:25:51Z</time>
      </trkpt>
      <trkpt lat="49.31259" lon="0.99616">
        <ele>4.7</ele>
        <time>2019-11-11T08:25:52Z</time>
      </trkpt>
      <trkpt lat="49.31254" lon="0.99616">
        <ele>3.8</ele>
        <time>2019-11-11T08:25:53Z</time>
      </trkpt>
      <trkpt lat="49.3125" lon="0.99617">
        <ele>3.8</ele>
        <time>2019-11-11T08:25:54Z</time>
      </trkpt>
      <trkpt lat="49.31245" lon="0.99617">
        <ele>3.8</ele>
        <time>2019-11-11T08:25:55Z</time>
      </trkpt>
      <trkpt lat="49.31241" lon="0.99618">
        <ele>3.8</ele>
        <time>2019-11-11T08:25:56Z</time>
      </trkpt>
      <trkpt lat="49.31238" lon="0.99619">
        <ele>3.8</ele>
        <time>2019-11-11T08:25:57Z</time>
      </trkpt>
      <trkpt lat="49.31237" lon="0.99623">
        <ele>3.8</ele>
        <time>2019-11-11T08:25:58Z</time>
      </trkpt>
      <trkpt lat="49.31236" lon="0.99627">
        <ele>3.8</ele>
        <time>2019-11-11T08:25:59Z</time>
      </trkpt>
      <trkpt lat="49.31235" lon="0.99631">
        <ele>3.8</ele>
        <time>2019-11-11T08:26:00Z</time>
      </trkpt>
      <trkpt lat="49.31233" lon="0.99633">
        <ele>3.8</ele>
        <time>2019-11-11T08:26:01Z</time>
      </trkpt>
      <trkpt lat="49.3123" lon="0.99633">
        <ele>3.8</ele>
        <time>2019-11-11T08:26:02Z</time>
      </trkpt>
      <trkpt lat="49.31228" lon="0.99634">
        <ele>3.8</ele>
        <time>2019-11-11T08:26:03Z</time>
      </trkpt>
      <trkpt lat="49.31226" lon="0.99634">
        <ele>3.8</ele>
        <time>2019-11-11T08:26:04Z</time>
      </trkpt>
      <trkpt lat="49.31224" lon="0.99634">
        <ele>3.8</ele>
        <time>2019-11-11T08:26:05Z</time>
      </trkpt>
      <trkpt lat="49.31223" lon="0.99635">
        <ele>3.8</ele>
        <time>2019-11-11T08:26:06Z</time>
      </trkpt>
      <trkpt lat="49.31223" lon="0.99636">
        <ele>3.8</ele>
        <time>2019-11-11T08:26:07Z</time>
      </trkpt>
      <trkpt lat="49.31223" lon="0.99636">
        <ele>3.8</ele>
        <time>2019-11-11T08:26:08Z</time>
      </trkpt>
      <trkpt lat="49.31227" lon="0.99658">
        <ele>3.8</ele>
        <time>2019-11-11T08:28:53Z</time>
      </trkpt>
      <trkpt lat="49.31227" lon="0.99659">
        <ele>3.8</ele>
        <time>2019-11-11T08:28:54Z</time>
      </trkpt>
      <trkpt lat="49.31226" lon="0.99659">
        <ele>3.8</ele>
        <time>2019-11-11T08:28:55Z</time>
      </trkpt>
      <trkpt lat="49.31225" lon="0.99659">
        <ele>3.8</ele>
        <time>2019-11-11T08:28:56Z</time>
      </trkpt>
      <trkpt lat="49.31225" lon="0.99659">
        <ele>3.8</ele>
        <time>2019-11-11T08:28:57Z</time>
      </trkpt>
      <trkpt lat="49.31223" lon="0.99659">
        <ele>3.8</ele>
        <time>2019-11-11T08:28:58Z</time>
      </trkpt>
      <trkpt lat="49.31221" lon="0.99659">
        <ele>3.8</ele>
        <time>2019-11-11T08:28:59Z</time>
      </trkpt>
      <trkpt lat="49.3122" lon="0.9966">
        <ele>3.8</ele>
        <time>2019-11-11T08:29:00Z</time>
      </trkpt>
      <trkpt lat="49.31218" lon="0.99661">
        <ele>3.8</ele>
        <time>2019-11-11T08:29:01Z</time>
      </trkpt>
      <trkpt lat="49.31216" lon="0.99663">
        <ele>3.8</ele>
        <time>2019-11-11T08:29:02Z</time>
      </trkpt>
      <trkpt lat="49.31211" lon="0.99668">
        <ele>3.8</ele>
        <time>2019-11-11T08:29:03Z</time>
      </trkpt>
      <trkpt lat="49.31211" lon="0.99668">
        <ele>3.8</ele>
        <time>2019-11-11T08:29:04Z</time>
      </trkpt>
      <trkpt lat="49.31206" lon="0.99672">
        <ele>3.8</ele>
        <time>2019-11-11T08:29:05Z</time>
      </trkpt>
      <trkpt lat="49.31203" lon="0.99675">
        <ele>3.8</ele>
        <time>2019-11-11T08:29:06Z</time>
      </trkpt>
      <trkpt lat="49.31203" lon="0.99675">
        <ele>3.8</ele>
        <time>2019-11-11T08:29:07Z</time>
      </trkpt>
      <trkpt lat="49.31198" lon="0.9968">
        <ele>3.8</ele>
        <time>2019-11-11T08:29:08Z</time>
      </trkpt>
      <trkpt lat="49.31195" lon="0.99683">
        <ele>3.8</ele>
        <time>2019-11-11T08:29:09Z</time>
      </trkpt>
      <trkpt lat="49.31195" lon="0.99683">
        <ele>3.8</ele>
        <time>2019-11-11T08:29:10Z</time>
      </trkpt>
      <trkpt lat="49.31192" lon="0.99685">
        <ele>3.8</ele>
        <time>2019-11-11T08:29:11Z</time>
      </trkpt>
      <trkpt lat="49.31188" lon="0.99687">
        <ele>3.8</ele>
        <time>2019-11-11T08:29:12Z</time>
      </trkpt>
      <trkpt lat="49.31186" lon="0.9969">
        <ele>4.7</ele>
        <time>2019-11-11T08:29:13Z</time>
      </trkpt>
      <trkpt lat="49.3118" lon="0.99695">
        <ele>4.7</ele>
        <time>2019-11-11T08:29:14Z</time>
      </trkpt>
      <trkpt lat="49.3118" lon="0.99695">
        <ele>4.7</ele>
        <time>2019-11-11T08:29:15Z</time>
      </trkpt>
      <trkpt lat="49.31177" lon="0.99698">
        <ele>4.7</ele>
        <time>2019-11-11T08:29:16Z</time>
      </trkpt>
      <trkpt lat="49.31174" lon="0.997">
        <ele>4.7</ele>
        <time>2019-11-11T08:29:17Z</time>
      </trkpt>
      <trkpt lat="49.31171" lon="0.99703">
        <ele>4.7</ele>
        <time>2019-11-11T08:29:18Z</time>
      </trkpt>
      <trkpt lat="49.31168" lon="0.99705">
        <ele>5.8</ele>
        <time>2019-11-11T08:29:19Z</time>
      </trkpt>
      <trkpt lat="49.31166" lon="0.99707">
        <ele>5.8</ele>
        <time>2019-11-11T08:29:20Z</time>
      </trkpt>
      <trkpt lat="49.31163" lon="0.9971">
        <ele>5.8</ele>
        <time>2019-11-11T08:29:21Z</time>
      </trkpt>
      <trkpt lat="49.31161" lon="0.99712">
        <ele>5.8</ele>
        <time>2019-11-11T08:29:22Z</time>
      </trkpt>
      <trkpt lat="49.31158" lon="0.99714">
        <ele>5.8</ele>
        <time>2019-11-11T08:29:23Z</time>
      </trkpt>
      <trkpt lat="49.31156" lon="0.99716">
        <ele>5.8</ele>
        <time>2019-11-11T08:29:24Z</time>
      </trkpt>
      <trkpt lat="49.31153" lon="0.99719">
        <ele>5.8</ele>
        <time>2019-11-11T08:29:25Z</time>
      </trkpt>
      <trkpt lat="49.31151" lon="0.99721">
        <ele>5.8</ele>
        <time>2019-11-11T08:29:26Z</time>
      </trkpt>
      <trkpt lat="49.31149" lon="0.99723">
        <ele>7.8</ele>
        <time>2019-11-11T08:29:27Z</time>
      </trkpt>
      <trkpt lat="49.31147" lon="0.99726">
        <ele>7.8</ele>
        <time>2019-11-11T08:29:28Z</time>
      </trkpt>
      <trkpt lat="49.31145" lon="0.99728">
        <ele>8.7</ele>
        <time>2019-11-11T08:29:29Z</time>
      </trkpt>
      <trkpt lat="49.3114" lon="0.99733">
        <ele>8.7</ele>
        <time>2019-11-11T08:29:30Z</time>
      </trkpt>
      <trkpt lat="49.3114" lon="0.99733">
        <ele>8.7</ele>
        <time>2019-11-11T08:29:31Z</time>
      </trkpt>
      <trkpt lat="49.31138" lon="0.99736">
        <ele>8.7</ele>
        <time>2019-11-11T08:29:32Z</time>
      </trkpt>
      <trkpt lat="49.31133" lon="0.99742">
        <ele>9.8</ele>
        <time>2019-11-11T08:29:33Z</time>
      </trkpt>
      <trkpt lat="49.31133" lon="0.99742">
        <ele>9.8</ele>
        <time>2019-11-11T08:29:34Z</time>
      </trkpt>
      <trkpt lat="49.31131" lon="0.99744">
        <ele>9.8</ele>
        <time>2019-11-11T08:29:35Z</time>
      </trkpt>
      <trkpt lat="49.31126" lon="0.9975">
        <ele>9.8</ele>
        <time>2019-11-11T08:29:36Z</time>
      </trkpt>
      <trkpt lat="49.31126" lon="0.9975">
        <ele>10.7</ele>
        <time>2019-11-11T08:29:37Z</time>
      </trkpt>
      <trkpt lat="49.31124" lon="0.99753">
        <ele>10.7</ele>
        <time>2019-11-11T08:29:38Z</time>
      </trkpt>
      <trkpt lat="49.31122" lon="0.99756">
        <ele>10.7</ele>
        <time>2019-11-11T08:29:39Z</time>
      </trkpt>
      <trkpt lat="49.31119" lon="0.99759">
        <ele>10.7</ele>
        <time>2019-11-11T08:29:40Z</time>
      </trkpt>
      <trkpt lat="49.31117" lon="0.99762">
        <ele>11.7</ele>
        <time>2019-11-11T08:29:41Z</time>
      </trkpt>
      <trkpt lat="49.31115" lon="0.99765">
        <ele>11.7</ele>
        <time>2019-11-11T08:29:42Z</time>
      </trkpt>
      <trkpt lat="49.31112" lon="0.99769">
        <ele>11.7</ele>
        <time>2019-11-11T08:29:43Z</time>
      </trkpt>
      <trkpt lat="49.3111" lon="0.99772">
        <ele>11.7</ele>
        <time>2019-11-11T08:29:44Z</time>
      </trkpt>
      <trkpt lat="49.31108" lon="0.99775">
        <ele>11.7</ele>
        <time>2019-11-11T08:29:45Z</time>
      </trkpt>
      <trkpt lat="49.31106" lon="0.99778">
        <ele>11.7</ele>
        <time>2019-11-11T08:29:46Z</time>
      </trkpt>
      <trkpt lat="49.31101" lon="0.99785">
        <ele>11.7</ele>
        <time>2019-11-11T08:29:47Z</time>
      </trkpt>
      <trkpt lat="49.31101" lon="0.99785">
        <ele>11.7</ele>
        <time>2019-11-11T08:29:48Z</time>
      </trkpt>
      <trkpt lat="49.31099" lon="0.99789">
        <ele>11.7</ele>
        <time>2019-11-11T08:29:49Z</time>
      </trkpt>
      <trkpt lat="49.31096" lon="0.99793">
        <ele>11.7</ele>
        <time>2019-11-11T08:29:50Z</time>
      </trkpt>
      <trkpt lat="49.31094" lon="0.99797">
        <ele>11.7</ele>
        <time>2019-11-11T08:29:51Z</time>
      </trkpt>
      <trkpt lat="49.31091" lon="0.99801">
        <ele>11.7</ele>
        <time>2019-11-11T08:29:52Z</time>
      </trkpt>
      <trkpt lat="49.31089" lon="0.99804">
        <ele>11.7</ele>
        <time>2019-11-11T08:29:53Z</time>
      </trkpt>
      <trkpt lat="49.31086" lon="0.99808">
        <ele>11.7</ele>
        <time>2019-11-11T08:29:54Z</time>
      </trkpt>
      <trkpt lat="49.31084" lon="0.99812">
        <ele>11.7</ele>
        <time>2019-11-11T08:29:55Z</time>
      </trkpt>
      <trkpt lat="49.31078" lon="0.9982">
        <ele>11.7</ele>
        <time>2019-11-11T08:29:56Z</time>
      </trkpt>
      <trkpt lat="49.31078" lon="0.9982">
        <ele>11.7</ele>
        <time>2019-11-11T08:29:57Z</time>
      </trkpt>
      <trkpt lat="49.31075" lon="0.99824">
        <ele>11.7</ele>
        <time>2019-11-11T08:29:58Z</time>
      </trkpt>
      <trkpt lat="49.31073" lon="0.99828">
        <ele>11.7</ele>
        <time>2019-11-11T08:29:59Z</time>
      </trkpt>
      <trkpt lat="49.3107" lon="0.99833">
        <ele>11.7</ele>
        <time>2019-11-11T08:30:00Z</time>
      </trkpt>
      <trkpt lat="49.31065" lon="0.99841">
        <ele>11.7</ele>
        <time>2019-11-11T08:30:01Z</time>
      </trkpt>
      <trkpt lat="49.31065" lon="0.99841">
        <ele>11.7</ele>
        <time>2019-11-11T08:30:02Z</time>
      </trkpt>
      <trkpt lat="49.31059" lon="0.99849">
        <ele>11.7</ele>
        <time>2019-11-11T08:30:03Z</time>
      </trkpt>
      <trkpt lat="49.31059" lon="0.99849">
        <ele>11.7</ele>
        <time>2019-11-11T08:30:04Z</time>
      </trkpt>
      <trkpt lat="49.31056" lon="0.99854">
        <ele>11.7</ele>
        <time>2019-11-11T08:30:05Z</time>
      </trkpt>
      <trkpt lat="49.31053" lon="0.99858">
        <ele>11.7</ele>
        <time>2019-11-11T08:30:06Z</time>
      </trkpt>
      <trkpt lat="49.31051" lon="0.99862">
        <ele>11.7</ele>
        <time>2019-11-11T08:30:07Z</time>
      </trkpt>
      <trkpt lat="49.31048" lon="0.99866">
        <ele>11.7</ele>
        <time>2019-11-11T08:30:08Z</time>
      </trkpt>
      <trkpt lat="49.31045" lon="0.99871">
        <ele>11.7</ele>
        <time>2019-11-11T08:30:09Z</time>
      </trkpt>
      <trkpt lat="49.31042" lon="0.99875">
        <ele>11.7</ele>
        <time>2019-11-11T08:30:10Z</time>
      </trkpt>
      <trkpt lat="49.31039" lon="0.99879">
        <ele>12.8</ele>
        <time>2019-11-11T08:30:11Z</time>
      </trkpt>
      <trkpt lat="49.31036" lon="0.99884">
        <ele>12.8</ele>
        <time>2019-11-11T08:30:12Z</time>
      </trkpt>
      <trkpt lat="49.31034" lon="0.99888">
        <ele>12.8</ele>
        <time>2019-11-11T08:30:13Z</time>
      </trkpt>
      <trkpt lat="49.31031" lon="0.99892">
        <ele>12.8</ele>
        <time>2019-11-11T08:30:14Z</time>
      </trkpt>
      <trkpt lat="49.31028" lon="0.99897">
        <ele>12.8</ele>
        <time>2019-11-11T08:30:15Z</time>
      </trkpt>
      <trkpt lat="49.31025" lon="0.99901">
        <ele>12.8</ele>
        <time>2019-11-11T08:30:16Z</time>
      </trkpt>
      <trkpt lat="49.31022" lon="0.99906">
        <ele>12.8</ele>
        <time>2019-11-11T08:30:17Z</time>
      </trkpt>
      <trkpt lat="49.31019" lon="0.9991">
        <ele>12.8</ele>
        <time>2019-11-11T08:30:18Z</time>
      </trkpt>
      <trkpt lat="49.31016" lon="0.99915">
        <ele>12.8</ele>
        <time>2019-11-11T08:30:19Z</time>
      </trkpt>
      <trkpt lat="49.31013" lon="0.99919">
        <ele>12.8</ele>
        <time>2019-11-11T08:30:20Z</time>
      </trkpt>
      <trkpt lat="49.3101" lon="0.99924">
        <ele>12.8</ele>
        <time>2019-11-11T08:30:21Z</time>
      </trkpt>
      <trkpt lat="49.31007" lon="0.99928">
        <ele>12.8</ele>
        <time>2019-11-11T08:30:22Z</time>
      </trkpt>
      <trkpt lat="49.31004" lon="0.99933">
        <ele>12.8</ele>
        <time>2019-11-11T08:30:23Z</time>
      </trkpt>
      <trkpt lat="49.31001" lon="0.99937">
        <ele>12.8</ele>
        <time>2019-11-11T08:30:24Z</time>
      </trkpt>
      <trkpt lat="49.30995" lon="0.99946">
        <ele>12.8</ele>
        <time>2019-11-11T08:30:25Z</time>
      </trkpt>
      <trkpt lat="49.30992" lon="0.99951">
        <ele>12.8</ele>
        <time>2019-11-11T08:30:26Z</time>
      </trkpt>
      <trkpt lat="49.30992" lon="0.99951">
        <ele>12.8</ele>
        <time>2019-11-11T08:30:27Z</time>
      </trkpt>
      <trkpt lat="49.30989" lon="0.99956">
        <ele>12.8</ele>
        <time>2019-11-11T08:30:28Z</time>
      </trkpt>
      <trkpt lat="49.30986" lon="0.9996">
        <ele>12.8</ele>
        <time>2019-11-11T08:30:29Z</time>
      </trkpt>
      <trkpt lat="49.30983" lon="0.99965">
        <ele>12.8</ele>
        <time>2019-11-11T08:30:30Z</time>
      </trkpt>
      <trkpt lat="49.30977" lon="0.99974">
        <ele>12.8</ele>
        <time>2019-11-11T08:30:31Z</time>
      </trkpt>
      <trkpt lat="49.30977" lon="0.99974">
        <ele>12.8</ele>
        <time>2019-11-11T08:30:32Z</time>
      </trkpt>
      <trkpt lat="49.30974" lon="0.99979">
        <ele>12.8</ele>
        <time>2019-11-11T08:30:33Z</time>
      </trkpt>
      <trkpt lat="49.30968" lon="0.99988">
        <ele>12.8</ele>
        <time>2019-11-11T08:30:34Z</time>
      </trkpt>
      <trkpt lat="49.30968" lon="0.99988">
        <ele>12.8</ele>
        <time>2019-11-11T08:30:35Z</time>
      </trkpt>
      <trkpt lat="49.30965" lon="0.99993">
        <ele>12.8</ele>
        <time>2019-11-11T08:30:36Z</time>
      </trkpt>
      <trkpt lat="49.30962" lon="0.99997">
        <ele>12.8</ele>
        <time>2019-11-11T08:30:37Z</time>
      </trkpt>
      <trkpt lat="49.30959" lon="1.00002">
        <ele>12.8</ele>
        <time>2019-11-11T08:30:38Z</time>
      </trkpt>
      <trkpt lat="49.30952" lon="1.00012">
        <ele>12.8</ele>
        <time>2019-11-11T08:30:39Z</time>
      </trkpt>
      <trkpt lat="49.30952" lon="1.00012">
        <ele>12.8</ele>
        <time>2019-11-11T08:30:40Z</time>
      </trkpt>
      <trkpt lat="49.30949" lon="1.00016">
        <ele>12.8</ele>
        <time>2019-11-11T08:30:41Z</time>
      </trkpt>
      <trkpt lat="49.30946" lon="1.00021">
        <ele>12.8</ele>
        <time>2019-11-11T08:30:42Z</time>
      </trkpt>
      <trkpt lat="49.30943" lon="1.00026">
        <ele>12.8</ele>
        <time>2019-11-11T08:30:43Z</time>
      </trkpt>
      <trkpt lat="49.3094" lon="1.00031">
        <ele>12.8</ele>
        <time>2019-11-11T08:30:44Z</time>
      </trkpt>
      <trkpt lat="49.30937" lon="1.00035">
        <ele>12.8</ele>
        <time>2019-11-11T08:30:45Z</time>
      </trkpt>
      <trkpt lat="49.30934" lon="1.0004">
        <ele>12.8</ele>
        <time>2019-11-11T08:30:46Z</time>
      </trkpt>
      <trkpt lat="49.30931" lon="1.00045">
        <ele>12.8</ele>
        <time>2019-11-11T08:30:47Z</time>
      </trkpt>
      <trkpt lat="49.30928" lon="1.00049">
        <ele>12.8</ele>
        <time>2019-11-11T08:30:48Z</time>
      </trkpt>
      <trkpt lat="49.30925" lon="1.00054">
        <ele>12.8</ele>
        <time>2019-11-11T08:30:49Z</time>
      </trkpt>
      <trkpt lat="49.30923" lon="1.00058">
        <ele>12.8</ele>
        <time>2019-11-11T08:30:50Z</time>
      </trkpt>
      <trkpt lat="49.3092" lon="1.00063">
        <ele>12.8</ele>
        <time>2019-11-11T08:30:51Z</time>
      </trkpt>
      <trkpt lat="49.30918" lon="1.00069">
        <ele>12.8</ele>
        <time>2019-11-11T08:30:52Z</time>
      </trkpt>
      <trkpt lat="49.30915" lon="1.00074">
        <ele>12.8</ele>
        <time>2019-11-11T08:30:53Z</time>
      </trkpt>
      <trkpt lat="49.30912" lon="1.0008">
        <ele>12.8</ele>
        <time>2019-11-11T08:30:54Z</time>
      </trkpt>
      <trkpt lat="49.30909" lon="1.00086">
        <ele>11.7</ele>
        <time>2019-11-11T08:30:55Z</time>
      </trkpt>
      <trkpt lat="49.30906" lon="1.00092">
        <ele>11.7</ele>
        <time>2019-11-11T08:30:56Z</time>
      </trkpt>
      <trkpt lat="49.30903" lon="1.00098">
        <ele>11.7</ele>
        <time>2019-11-11T08:30:57Z</time>
      </trkpt>
      <trkpt lat="49.309" lon="1.00104">
        <ele>11.7</ele>
        <time>2019-11-11T08:30:58Z</time>
      </trkpt>
      <trkpt lat="49.30893" lon="1.00115">
        <ele>11.7</ele>
        <time>2019-11-11T08:30:59Z</time>
      </trkpt>
      <trkpt lat="49.3089" lon="1.0012">
        <ele>11.7</ele>
        <time>2019-11-11T08:31:00Z</time>
      </trkpt>
      <trkpt lat="49.30887" lon="1.00125">
        <ele>11.7</ele>
        <time>2019-11-11T08:31:01Z</time>
      </trkpt>
      <trkpt lat="49.30884" lon="1.0013">
        <ele>11.7</ele>
        <time>2019-11-11T08:31:02Z</time>
      </trkpt>
      <trkpt lat="49.30881" lon="1.00135">
        <ele>10.7</ele>
        <time>2019-11-11T08:31:03Z</time>
      </trkpt>
      <trkpt lat="49.30881" lon="1.00135">
        <ele>10.7</ele>
        <time>2019-11-11T08:31:04Z</time>
      </trkpt>
      <trkpt lat="49.30878" lon="1.00139">
        <ele>10.7</ele>
        <time>2019-11-11T08:31:05Z</time>
      </trkpt>
      <trkpt lat="49.30875" lon="1.00143">
        <ele>10.7</ele>
        <time>2019-11-11T08:31:06Z</time>
      </trkpt>
      <trkpt lat="49.30873" lon="1.00147">
        <ele>10.7</ele>
        <time>2019-11-11T08:31:07Z</time>
      </trkpt>
      <trkpt lat="49.3087" lon="1.00151">
        <ele>10.7</ele>
        <time>2019-11-11T08:31:08Z</time>
      </trkpt>
      <trkpt lat="49.30868" lon="1.00155">
        <ele>10.7</ele>
        <time>2019-11-11T08:31:09Z</time>
      </trkpt>
      <trkpt lat="49.30866" lon="1.00159">
        <ele>10.7</ele>
        <time>2019-11-11T08:31:10Z</time>
      </trkpt>
      <trkpt lat="49.30864" lon="1.00161">
        <ele>10.7</ele>
        <time>2019-11-11T08:31:11Z</time>
      </trkpt>
      <trkpt lat="49.30862" lon="1.00164">
        <ele>10.7</ele>
        <time>2019-11-11T08:31:12Z</time>
      </trkpt>
      <trkpt lat="49.3086" lon="1.00167">
        <ele>10.7</ele>
        <time>2019-11-11T08:31:13Z</time>
      </trkpt>
      <trkpt lat="49.30858" lon="1.00169">
        <ele>10.7</ele>
        <time>2019-11-11T08:31:14Z</time>
      </trkpt>
      <trkpt lat="49.30856" lon="1.00172">
        <ele>10.7</ele>
        <time>2019-11-11T08:31:15Z</time>
      </trkpt>
      <trkpt lat="49.30854" lon="1.00176">
        <ele>10.7</ele>
        <time>2019-11-11T08:31:16Z</time>
      </trkpt>
      <trkpt lat="49.30852" lon="1.0018">
        <ele>10.7</ele>
        <time>2019-11-11T08:31:17Z</time>
      </trkpt>
      <trkpt lat="49.30847" lon="1.00189">
        <ele>10.7</ele>
        <time>2019-11-11T08:31:18Z</time>
      </trkpt>
      <trkpt lat="49.30847" lon="1.00189">
        <ele>10.7</ele>
        <time>2019-11-11T08:31:19Z</time>
      </trkpt>
      <trkpt lat="49.30844" lon="1.00195">
        <ele>10.7</ele>
        <time>2019-11-11T08:31:20Z</time>
      </trkpt>
      <trkpt lat="49.30841" lon="1.00201">
        <ele>9.8</ele>
        <time>2019-11-11T08:31:21Z</time>
      </trkpt>
      <trkpt lat="49.30838" lon="1.00208">
        <ele>9.8</ele>
        <time>2019-11-11T08:31:22Z</time>
      </trkpt>
      <trkpt lat="49.30834" lon="1.00215">
        <ele>9.8</ele>
        <time>2019-11-11T08:31:23Z</time>
      </trkpt>
      <trkpt lat="49.30829" lon="1.00223">
        <ele>9.8</ele>
        <time>2019-11-11T08:31:24Z</time>
      </trkpt>
      <trkpt lat="49.30825" lon="1.0023">
        <ele>8.7</ele>
        <time>2019-11-11T08:31:25Z</time>
      </trkpt>
      <trkpt lat="49.30821" lon="1.00236">
        <ele>8.7</ele>
        <time>2019-11-11T08:31:26Z</time>
      </trkpt>
      <trkpt lat="49.30813" lon="1.00249">
        <ele>7.8</ele>
        <time>2019-11-11T08:31:27Z</time>
      </trkpt>
      <trkpt lat="49.30813" lon="1.00249">
        <ele>7.8</ele>
        <time>2019-11-11T08:31:28Z</time>
      </trkpt>
      <trkpt lat="49.30806" lon="1.00262">
        <ele>7.8</ele>
        <time>2019-11-11T08:31:29Z</time>
      </trkpt>
      <trkpt lat="49.30803" lon="1.00267">
        <ele>7.8</ele>
        <time>2019-11-11T08:31:30Z</time>
      </trkpt>
      <trkpt lat="49.30801" lon="1.00272">
        <ele>6.7</ele>
        <time>2019-11-11T08:31:31Z</time>
      </trkpt>
      <trkpt lat="49.30801" lon="1.00272">
        <ele>6.7</ele>
        <time>2019-11-11T08:31:32Z</time>
      </trkpt>
      <trkpt lat="49.30799" lon="1.00276">
        <ele>5.8</ele>
        <time>2019-11-11T08:31:33Z</time>
      </trkpt>
      <trkpt lat="49.30798" lon="1.0028">
        <ele>5.8</ele>
        <time>2019-11-11T08:31:34Z</time>
      </trkpt>
      <trkpt lat="49.30797" lon="1.00282">
        <ele>4.7</ele>
        <time>2019-11-11T08:31:35Z</time>
      </trkpt>
      <trkpt lat="49.30797" lon="1.00283">
        <ele>4.7</ele>
        <time>2019-11-11T08:31:36Z</time>
      </trkpt>
      <trkpt lat="49.30797" lon="1.00283">
        <ele>4.7</ele>
        <time>2019-11-11T08:31:37Z</time>
      </trkpt>
      <trkpt lat="49.30797" lon="1.00283">
        <ele>4.7</ele>
        <time>2019-11-11T08:31:38Z</time>
      </trkpt>
      <trkpt lat="49.30793" lon="1.00283">
        <ele>4.7</ele>
        <time>2019-11-11T08:32:24Z</time>
      </trkpt>
      <trkpt lat="49.30791" lon="1.00281">
        <ele>3.8</ele>
        <time>2019-11-11T08:32:25Z</time>
      </trkpt>
      <trkpt lat="49.3079" lon="1.00279">
        <ele>3.8</ele>
        <time>2019-11-11T08:32:26Z</time>
      </trkpt>
      <trkpt lat="49.30788" lon="1.00277">
        <ele>3.8</ele>
        <time>2019-11-11T08:32:27Z</time>
      </trkpt>
      <trkpt lat="49.30787" lon="1.00275">
        <ele>3.8</ele>
        <time>2019-11-11T08:32:28Z</time>
      </trkpt>
      <trkpt lat="49.30787" lon="1.00275">
        <ele>3.8</ele>
        <time>2019-11-11T08:32:29Z</time>
      </trkpt>
      <trkpt lat="49.30787" lon="1.00274">
        <ele>3.8</ele>
        <time>2019-11-11T08:32:30Z</time>
      </trkpt>
      <trkpt lat="49.30784" lon="1.00272">
        <ele>3.8</ele>
        <time>2019-11-11T08:32:34Z</time>
      </trkpt>
      <trkpt lat="49.30783" lon="1.0027">
        <ele>3.8</ele>
        <time>2019-11-11T08:32:35Z</time>
      </trkpt>
      <trkpt lat="49.30781" lon="1.00269">
        <ele>3.8</ele>
        <time>2019-11-11T08:32:36Z</time>
      </trkpt>
      <trkpt lat="49.30779" lon="1.00269">
        <ele>3.8</ele>
        <time>2019-11-11T08:32:37Z</time>
      </trkpt>
      <trkpt lat="49.30776" lon="1.00269">
        <ele>3.8</ele>
        <time>2019-11-11T08:32:38Z</time>
      </trkpt>
      <trkpt lat="49.30775" lon="1.00267">
        <ele>4.7</ele>
        <time>2019-11-11T08:32:39Z</time>
      </trkpt>
      <trkpt lat="49.30774" lon="1.00264">
        <ele>4.7</ele>
        <time>2019-11-11T08:32:40Z</time>
      </trkpt>
      <trkpt lat="49.30772" lon="1.00261">
        <ele>4.7</ele>
        <time>2019-11-11T08:32:41Z</time>
      </trkpt>
      <trkpt lat="49.30771" lon="1.00257">
        <ele>4.7</ele>
        <time>2019-11-11T08:32:42Z</time>
      </trkpt>
      <trkpt lat="49.3077" lon="1.00252">
        <ele>4.7</ele>
        <time>2019-11-11T08:32:43Z</time>
      </trkpt>
      <trkpt lat="49.30769" lon="1.00247">
        <ele>4.7</ele>
        <time>2019-11-11T08:32:44Z</time>
      </trkpt>
      <trkpt lat="49.30769" lon="1.00242">
        <ele>4.7</ele>
        <time>2019-11-11T08:32:45Z</time>
      </trkpt>
      <trkpt lat="49.3077" lon="1.00237">
        <ele>4.7</ele>
        <time>2019-11-11T08:32:46Z</time>
      </trkpt>
      <trkpt lat="49.30771" lon="1.00232">
        <ele>4.7</ele>
        <time>2019-11-11T08:32:47Z</time>
      </trkpt>
      <trkpt lat="49.30772" lon="1.00227">
        <ele>4.7</ele>
        <time>2019-11-11T08:32:48Z</time>
      </trkpt>
      <trkpt lat="49.30773" lon="1.00223">
        <ele>4.7</ele>
        <time>2019-11-11T08:32:49Z</time>
      </trkpt>
      <trkpt lat="49.30774" lon="1.00218">
        <ele>4.7</ele>
        <time>2019-11-11T08:32:50Z</time>
      </trkpt>
      <trkpt lat="49.30776" lon="1.00214">
        <ele>3.8</ele>
        <time>2019-11-11T08:32:51Z</time>
      </trkpt>
      <trkpt lat="49.30777" lon="1.0021">
        <ele>3.8</ele>
        <time>2019-11-11T08:32:52Z</time>
      </trkpt>
      <trkpt lat="49.30778" lon="1.00206">
        <ele>3.8</ele>
        <time>2019-11-11T08:32:53Z</time>
      </trkpt>
      <trkpt lat="49.30779" lon="1.00201">
        <ele>3.8</ele>
        <time>2019-11-11T08:32:54Z</time>
      </trkpt>
      <trkpt lat="49.30781" lon="1.00197">
        <ele>3.8</ele>
        <time>2019-11-11T08:32:55Z</time>
      </trkpt>
      <trkpt lat="49.30782" lon="1.00193">
        <ele>3.8</ele>
        <time>2019-11-11T08:32:56Z</time>
      </trkpt>
      <trkpt lat="49.30783" lon="1.00189">
        <ele>3.8</ele>
        <time>2019-11-11T08:32:57Z</time>
      </trkpt>
      <trkpt lat="49.30785" lon="1.00184">
        <ele>3.8</ele>
        <time>2019-11-11T08:32:58Z</time>
      </trkpt>
      <trkpt lat="49.30786" lon="1.00178">
        <ele>3.8</ele>
        <time>2019-11-11T08:32:59Z</time>
      </trkpt>
      <trkpt lat="49.30788" lon="1.00173">
        <ele>3.8</ele>
        <time>2019-11-11T08:33:00Z</time>
      </trkpt>
      <trkpt lat="49.30789" lon="1.00168">
        <ele>3.8</ele>
        <time>2019-11-11T08:33:01Z</time>
      </trkpt>
      <trkpt lat="49.30791" lon="1.00162">
        <ele>3.8</ele>
        <time>2019-11-11T08:33:02Z</time>
      </trkpt>
      <trkpt lat="49.30793" lon="1.00157">
        <ele>3.8</ele>
        <time>2019-11-11T08:33:03Z</time>
      </trkpt>
      <trkpt lat="49.30795" lon="1.00152">
        <ele>3.8</ele>
        <time>2019-11-11T08:33:04Z</time>
      </trkpt>
      <trkpt lat="49.30797" lon="1.00146">
        <ele>3.8</ele>
        <time>2019-11-11T08:33:05Z</time>
      </trkpt>
      <trkpt lat="49.30798" lon="1.00141">
        <ele>3.8</ele>
        <time>2019-11-11T08:33:06Z</time>
      </trkpt>
      <trkpt lat="49.308" lon="1.00135">
        <ele>3.8</ele>
        <time>2019-11-11T08:33:07Z</time>
      </trkpt>
      <trkpt lat="49.30801" lon="1.00129">
        <ele>3.8</ele>
        <time>2019-11-11T08:33:08Z</time>
      </trkpt>
      <trkpt lat="49.30803" lon="1.00123">
        <ele>3.8</ele>
        <time>2019-11-11T08:33:09Z</time>
      </trkpt>
      <trkpt lat="49.30804" lon="1.00117">
        <ele>3.8</ele>
        <time>2019-11-11T08:33:10Z</time>
      </trkpt>
      <trkpt lat="49.30806" lon="1.00111">
        <ele>3.8</ele>
        <time>2019-11-11T08:33:11Z</time>
      </trkpt>
      <trkpt lat="49.30807" lon="1.00105">
        <ele>3.8</ele>
        <time>2019-11-11T08:33:12Z</time>
      </trkpt>
      <trkpt lat="49.30809" lon="1.001">
        <ele>3.8</ele>
        <time>2019-11-11T08:33:13Z</time>
      </trkpt>
      <trkpt lat="49.30811" lon="1.00094">
        <ele>3.8</ele>
        <time>2019-11-11T08:33:14Z</time>
      </trkpt>
      <trkpt lat="49.30812" lon="1.00088">
        <ele>3.8</ele>
        <time>2019-11-11T08:33:15Z</time>
      </trkpt>
      <trkpt lat="49.30814" lon="1.00083">
        <ele>3.8</ele>
        <time>2019-11-11T08:33:16Z</time>
      </trkpt>
      <trkpt lat="49.30816" lon="1.00078">
        <ele>3.8</ele>
        <time>2019-11-11T08:33:17Z</time>
      </trkpt>
      <trkpt lat="49.30817" lon="1.00073">
        <ele>3.8</ele>
        <time>2019-11-11T08:33:18Z</time>
      </trkpt>
      <trkpt lat="49.30818" lon="1.00068">
        <ele>2.7</ele>
        <time>2019-11-11T08:33:19Z</time>
      </trkpt>
      <trkpt lat="49.3082" lon="1.00063">
        <ele>2.7</ele>
        <time>2019-11-11T08:33:20Z</time>
      </trkpt>
      <trkpt lat="49.30822" lon="1.00059">
        <ele>2.7</ele>
        <time>2019-11-11T08:33:21Z</time>
      </trkpt>
      <trkpt lat="49.30822" lon="1.00054">
        <ele>2.7</ele>
        <time>2019-11-11T08:33:22Z</time>
      </trkpt>
      <trkpt lat="49.30823" lon="1.00049">
        <ele>2.7</ele>
        <time>2019-11-11T08:33:23Z</time>
      </trkpt>
      <trkpt lat="49.30823" lon="1.00044">
        <ele>2.7</ele>
        <time>2019-11-11T08:33:24Z</time>
      </trkpt>
      <trkpt lat="49.30824" lon="1.00039">
        <ele>2.7</ele>
        <time>2019-11-11T08:33:25Z</time>
      </trkpt>
      <trkpt lat="49.30826" lon="1.00034">
        <ele>2.7</ele>
        <time>2019-11-11T08:33:26Z</time>
      </trkpt>
      <trkpt lat="49.30828" lon="1.00029">
        <ele>2.7</ele>
        <time>2019-11-11T08:33:27Z</time>
      </trkpt>
      <trkpt lat="49.3083" lon="1.00025">
        <ele>2.7</ele>
        <time>2019-11-11T08:33:28Z</time>
      </trkpt>
      <trkpt lat="49.30831" lon="1.00019">
        <ele>2.7</ele>
        <time>2019-11-11T08:33:29Z</time>
      </trkpt>
      <trkpt lat="49.30832" lon="1.00013">
        <ele>2.7</ele>
        <time>2019-11-11T08:33:30Z</time>
      </trkpt>
      <trkpt lat="49.30833" lon="1.00008">
        <ele>2.7</ele>
        <time>2019-11-11T08:33:31Z</time>
      </trkpt>
      <trkpt lat="49.30834" lon="1.00002">
        <ele>2.7</ele>
        <time>2019-11-11T08:33:32Z</time>
      </trkpt>
      <trkpt lat="49.30835" lon="0.99995">
        <ele>2.7</ele>
        <time>2019-11-11T08:33:33Z</time>
      </trkpt>
      <trkpt lat="49.30836" lon="0.9999">
        <ele>2.7</ele>
        <time>2019-11-11T08:33:34Z</time>
      </trkpt>
      <trkpt lat="49.30836" lon="0.99984">
        <ele>2.7</ele>
        <time>2019-11-11T08:33:35Z</time>
      </trkpt>
      <trkpt lat="49.30837" lon="0.99978">
        <ele>2.7</ele>
        <time>2019-11-11T08:33:36Z</time>
      </trkpt>
      <trkpt lat="49.30838" lon="0.99972">
        <ele>2.7</ele>
        <time>2019-11-11T08:33:37Z</time>
      </trkpt>
      <trkpt lat="49.30838" lon="0.99966">
        <ele>2.7</ele>
        <time>2019-11-11T08:33:38Z</time>
      </trkpt>
      <trkpt lat="49.30837" lon="0.9996">
        <ele>2.7</ele>
        <time>2019-11-11T08:33:39Z</time>
      </trkpt>
      <trkpt lat="49.30835" lon="0.99955">
        <ele>2.7</ele>
        <time>2019-11-11T08:33:40Z</time>
      </trkpt>
      <trkpt lat="49.30832" lon="0.99951">
        <ele>2.7</ele>
        <time>2019-11-11T08:33:41Z</time>
      </trkpt>
      <trkpt lat="49.3083" lon="0.99946">
        <ele>2.7</ele>
        <time>2019-11-11T08:33:42Z</time>
      </trkpt>
      <trkpt lat="49.30827" lon="0.99942">
        <ele>2.7</ele>
        <time>2019-11-11T08:33:43Z</time>
      </trkpt>
      <trkpt lat="49.30824" lon="0.99938">
        <ele>2.7</ele>
        <time>2019-11-11T08:33:44Z</time>
      </trkpt>
      <trkpt lat="49.30822" lon="0.99934">
        <ele>2.7</ele>
        <time>2019-11-11T08:33:45Z</time>
      </trkpt>
      <trkpt lat="49.30819" lon="0.9993">
        <ele>2.7</ele>
        <time>2019-11-11T08:33:46Z</time>
      </trkpt>
      <trkpt lat="49.30816" lon="0.99926">
        <ele>2.7</ele>
        <time>2019-11-11T08:33:47Z</time>
      </trkpt>
      <trkpt lat="49.30813" lon="0.99921">
        <ele>2.7</ele>
        <time>2019-11-11T08:33:48Z</time>
      </trkpt>
      <trkpt lat="49.30809" lon="0.99917">
        <ele>2.7</ele>
        <time>2019-11-11T08:33:49Z</time>
      </trkpt>
      <trkpt lat="49.30805" lon="0.99914">
        <ele>2.7</ele>
        <time>2019-11-11T08:33:50Z</time>
      </trkpt>
      <trkpt lat="49.30802" lon="0.99909">
        <ele>2.7</ele>
        <time>2019-11-11T08:33:51Z</time>
      </trkpt>
      <trkpt lat="49.30799" lon="0.99905">
        <ele>2.7</ele>
        <time>2019-11-11T08:33:52Z</time>
      </trkpt>
      <trkpt lat="49.30795" lon="0.99901">
        <ele>2.7</ele>
        <time>2019-11-11T08:33:53Z</time>
      </trkpt>
      <trkpt lat="49.30792" lon="0.99898">
        <ele>2.7</ele>
        <time>2019-11-11T08:33:54Z</time>
      </trkpt>
      <trkpt lat="49.30789" lon="0.99894">
        <ele>2.7</ele>
        <time>2019-11-11T08:33:55Z</time>
      </trkpt>
      <trkpt lat="49.30786" lon="0.9989">
        <ele>2.7</ele>
        <time>2019-11-11T08:33:56Z</time>
      </trkpt>
      <trkpt lat="49.30782" lon="0.99887">
        <ele>2.7</ele>
        <time>2019-11-11T08:33:57Z</time>
      </trkpt>
      <trkpt lat="49.30779" lon="0.99883">
        <ele>2.7</ele>
        <time>2019-11-11T08:33:58Z</time>
      </trkpt>
      <trkpt lat="49.30776" lon="0.9988">
        <ele>2.7</ele>
        <time>2019-11-11T08:33:59Z</time>
      </trkpt>
      <trkpt lat="49.30772" lon="0.99876">
        <ele>2.7</ele>
        <time>2019-11-11T08:34:00Z</time>
      </trkpt>
      <trkpt lat="49.30769" lon="0.99873">
        <ele>2.7</ele>
        <time>2019-11-11T08:34:01Z</time>
      </trkpt>
      <trkpt lat="49.30765" lon="0.99869">
        <ele>2.7</ele>
        <time>2019-11-11T08:34:02Z</time>
      </trkpt>
      <trkpt lat="49.30761" lon="0.99866">
        <ele>2.7</ele>
        <time>2019-11-11T08:34:03Z</time>
      </trkpt>
      <trkpt lat="49.30758" lon="0.99863">
        <ele>2.7</ele>
        <time>2019-11-11T08:34:04Z</time>
      </trkpt>
      <trkpt lat="49.30754" lon="0.99859">
        <ele>2.7</ele>
        <time>2019-11-11T08:34:05Z</time>
      </trkpt>
      <trkpt lat="49.30751" lon="0.99856">
        <ele>2.7</ele>
        <time>2019-11-11T08:34:06Z</time>
      </trkpt>
      <trkpt lat="49.30747" lon="0.99852">
        <ele>2.7</ele>
        <time>2019-11-11T08:34:07Z</time>
      </trkpt>
      <trkpt lat="49.30743" lon="0.99849">
        <ele>2.7</ele>
        <time>2019-11-11T08:34:08Z</time>
      </trkpt>
      <trkpt lat="49.3074" lon="0.99845">
        <ele>2.7</ele>
        <time>2019-11-11T08:34:09Z</time>
      </trkpt>
      <trkpt lat="49.30736" lon="0.99841">
        <ele>2.7</ele>
        <time>2019-11-11T08:34:10Z</time>
      </trkpt>
      <trkpt lat="49.30732" lon="0.99838">
        <ele>2.7</ele>
        <time>2019-11-11T08:34:11Z</time>
      </trkpt>
      <trkpt lat="49.30728" lon="0.99835">
        <ele>2.7</ele>
        <time>2019-11-11T08:34:12Z</time>
      </trkpt>
      <trkpt lat="49.30725" lon="0.99831">
        <ele>2.7</ele>
        <time>2019-11-11T08:34:13Z</time>
      </trkpt>
      <trkpt lat="49.30721" lon="0.99828">
        <ele>2.7</ele>
        <time>2019-11-11T08:34:14Z</time>
      </trkpt>
      <trkpt lat="49.30718" lon="0.99825">
        <ele>2.7</ele>
        <time>2019-11-11T08:34:15Z</time>
      </trkpt>
      <trkpt lat="49.30715" lon="0.99822">
        <ele>2.7</ele>
        <time>2019-11-11T08:34:16Z</time>
      </trkpt>
      <trkpt lat="49.30712" lon="0.9982">
        <ele>2.7</ele>
        <time>2019-11-11T08:34:17Z</time>
      </trkpt>
      <trkpt lat="49.3071" lon="0.99818">
        <ele>2.7</ele>
        <time>2019-11-11T08:34:18Z</time>
      </trkpt>
      <trkpt lat="49.30707" lon="0.99815">
        <ele>2.7</ele>
        <time>2019-11-11T08:34:19Z</time>
      </trkpt>
      <trkpt lat="49.30705" lon="0.99812">
        <ele>2.7</ele>
        <time>2019-11-11T08:34:20Z</time>
      </trkpt>
      <trkpt lat="49.30703" lon="0.9981">
        <ele>2.7</ele>
        <time>2019-11-11T08:34:21Z</time>
      </trkpt>
      <trkpt lat="49.30702" lon="0.99808">
        <ele>2.7</ele>
        <time>2019-11-11T08:34:22Z</time>
      </trkpt>
      <trkpt lat="49.30701" lon="0.99807">
        <ele>2.7</ele>
        <time>2019-11-11T08:34:23Z</time>
      </trkpt>
      <trkpt lat="49.307" lon="0.99806">
        <ele>2.7</ele>
        <time>2019-11-11T08:34:24Z</time>
      </trkpt>
      <trkpt lat="49.30698" lon="0.99804">
        <ele>2.7</ele>
        <time>2019-11-11T08:34:25Z</time>
      </trkpt>
      <trkpt lat="49.30696" lon="0.99802">
        <ele>2.7</ele>
        <time>2019-11-11T08:34:26Z</time>
      </trkpt>
      <trkpt lat="49.30694" lon="0.99798">
        <ele>2.7</ele>
        <time>2019-11-11T08:34:27Z</time>
      </trkpt>
      <trkpt lat="49.30691" lon="0.99795">
        <ele>2.7</ele>
        <time>2019-11-11T08:34:28Z</time>
      </trkpt>
      <trkpt lat="49.30688" lon="0.99791">
        <ele>2.7</ele>
        <time>2019-11-11T08:34:29Z</time>
      </trkpt>
      <trkpt lat="49.30684" lon="0.99788">
        <ele>2.7</ele>
        <time>2019-11-11T08:34:30Z</time>
      </trkpt>
      <trkpt lat="49.3068" lon="0.99784">
        <ele>2.7</ele>
        <time>2019-11-11T08:34:31Z</time>
      </trkpt>
      <trkpt lat="49.30676" lon="0.99781">
        <ele>2.7</ele>
        <time>2019-11-11T08:34:32Z</time>
      </trkpt>
      <trkpt lat="49.30672" lon="0.99779">
        <ele>2.7</ele>
        <time>2019-11-11T08:34:33Z</time>
      </trkpt>
      <trkpt lat="49.30668" lon="0.99777">
        <ele>2.7</ele>
        <time>2019-11-11T08:34:34Z</time>
      </trkpt>
      <trkpt lat="49.30664" lon="0.99776">
        <ele>2.7</ele>
        <time>2019-11-11T08:34:35Z</time>
      </trkpt>
      <trkpt lat="49.3066" lon="0.99773">
        <ele>2.7</ele>
        <time>2019-11-11T08:34:36Z</time>
      </trkpt>
      <trkpt lat="49.30656" lon="0.9977">
        <ele>2.7</ele>
        <time>2019-11-11T08:34:37Z</time>
      </trkpt>
      <trkpt lat="49.30652" lon="0.99767">
        <ele>2.7</ele>
        <time>2019-11-11T08:34:38Z</time>
      </trkpt>
      <trkpt lat="49.30648" lon="0.99764">
        <ele>2.7</ele>
        <time>2019-11-11T08:34:39Z</time>
      </trkpt>
      <trkpt lat="49.30643" lon="0.99761">
        <ele>2.7</ele>
        <time>2019-11-11T08:34:40Z</time>
      </trkpt>
      <trkpt lat="49.30639" lon="0.99759">
        <ele>2.7</ele>
        <time>2019-11-11T08:34:41Z</time>
      </trkpt>
      <trkpt lat="49.30635" lon="0.99756">
        <ele>2.7</ele>
        <time>2019-11-11T08:34:42Z</time>
      </trkpt>
      <trkpt lat="49.3063" lon="0.99753">
        <ele>2.7</ele>
        <time>2019-11-11T08:34:43Z</time>
      </trkpt>
      <trkpt lat="49.30626" lon="0.9975">
        <ele>2.7</ele>
        <time>2019-11-11T08:34:44Z</time>
      </trkpt>
      <trkpt lat="49.30622" lon="0.99747">
        <ele>2.7</ele>
        <time>2019-11-11T08:34:45Z</time>
      </trkpt>
      <trkpt lat="49.30617" lon="0.99745">
        <ele>2.7</ele>
        <time>2019-11-11T08:34:46Z</time>
      </trkpt>
      <trkpt lat="49.30613" lon="0.99742">
        <ele>3.8</ele>
        <time>2019-11-11T08:34:47Z</time>
      </trkpt>
      <trkpt lat="49.30608" lon="0.9974">
        <ele>3.8</ele>
        <time>2019-11-11T08:34:48Z</time>
      </trkpt>
      <trkpt lat="49.30603" lon="0.99738">
        <ele>3.8</ele>
        <time>2019-11-11T08:34:49Z</time>
      </trkpt>
      <trkpt lat="49.30599" lon="0.99736">
        <ele>3.8</ele>
        <time>2019-11-11T08:34:50Z</time>
      </trkpt>
      <trkpt lat="49.30594" lon="0.99734">
        <ele>3.8</ele>
        <time>2019-11-11T08:34:51Z</time>
      </trkpt>
      <trkpt lat="49.3059" lon="0.99732">
        <ele>3.8</ele>
        <time>2019-11-11T08:34:52Z</time>
      </trkpt>
      <trkpt lat="49.30585" lon="0.9973">
        <ele>3.8</ele>
        <time>2019-11-11T08:34:53Z</time>
      </trkpt>
      <trkpt lat="49.30581" lon="0.99729">
        <ele>3.8</ele>
        <time>2019-11-11T08:34:54Z</time>
      </trkpt>
      <trkpt lat="49.30576" lon="0.99727">
        <ele>3.8</ele>
        <time>2019-11-11T08:34:55Z</time>
      </trkpt>
      <trkpt lat="49.30571" lon="0.99726">
        <ele>3.8</ele>
        <time>2019-11-11T08:34:56Z</time>
      </trkpt>
      <trkpt lat="49.30567" lon="0.99725">
        <ele>3.8</ele>
        <time>2019-11-11T08:34:57Z</time>
      </trkpt>
      <trkpt lat="49.30562" lon="0.99724">
        <ele>3.8</ele>
        <time>2019-11-11T08:34:58Z</time>
      </trkpt>
      <trkpt lat="49.30558" lon="0.99723">
        <ele>3.8</ele>
        <time>2019-11-11T08:34:59Z</time>
      </trkpt>
      <trkpt lat="49.30553" lon="0.99721">
        <ele>3.8</ele>
        <time>2019-11-11T08:35:00Z</time>
      </trkpt>
      <trkpt lat="49.30548" lon="0.9972">
        <ele>3.8</ele>
        <time>2019-11-11T08:35:01Z</time>
      </trkpt>
      <trkpt lat="49.30543" lon="0.99719">
        <ele>3.8</ele>
        <time>2019-11-11T08:35:02Z</time>
      </trkpt>
      <trkpt lat="49.30538" lon="0.99719">
        <ele>3.8</ele>
        <time>2019-11-11T08:35:03Z</time>
      </trkpt>
      <trkpt lat="49.30533" lon="0.99718">
        <ele>3.8</ele>
        <time>2019-11-11T08:35:04Z</time>
      </trkpt>
      <trkpt lat="49.30528" lon="0.99718">
        <ele>3.8</ele>
        <time>2019-11-11T08:35:05Z</time>
      </trkpt>
      <trkpt lat="49.30523" lon="0.99717">
        <ele>3.8</ele>
        <time>2019-11-11T08:35:06Z</time>
      </trkpt>
      <trkpt lat="49.30518" lon="0.99718">
        <ele>3.8</ele>
        <time>2019-11-11T08:35:07Z</time>
      </trkpt>
      <trkpt lat="49.30514" lon="0.99718">
        <ele>3.8</ele>
        <time>2019-11-11T08:35:08Z</time>
      </trkpt>
      <trkpt lat="49.30509" lon="0.99718">
        <ele>3.8</ele>
        <time>2019-11-11T08:35:09Z</time>
      </trkpt>
      <trkpt lat="49.30504" lon="0.99719">
        <ele>3.8</ele>
        <time>2019-11-11T08:35:10Z</time>
      </trkpt>
      <trkpt lat="49.30499" lon="0.99719">
        <ele>3.8</ele>
        <time>2019-11-11T08:35:11Z</time>
      </trkpt>
      <trkpt lat="49.30494" lon="0.9972">
        <ele>3.8</ele>
        <time>2019-11-11T08:35:12Z</time>
      </trkpt>
      <trkpt lat="49.30489" lon="0.9972">
        <ele>3.8</ele>
        <time>2019-11-11T08:35:13Z</time>
      </trkpt>
      <trkpt lat="49.30484" lon="0.9972">
        <ele>3.8</ele>
        <time>2019-11-11T08:35:14Z</time>
      </trkpt>
      <trkpt lat="49.30479" lon="0.9972">
        <ele>3.8</ele>
        <time>2019-11-11T08:35:15Z</time>
      </trkpt>
      <trkpt lat="49.30474" lon="0.9972">
        <ele>3.8</ele>
        <time>2019-11-11T08:35:16Z</time>
      </trkpt>
      <trkpt lat="49.30469" lon="0.9972">
        <ele>3.8</ele>
        <time>2019-11-11T08:35:17Z</time>
      </trkpt>
      <trkpt lat="49.30464" lon="0.99721">
        <ele>3.8</ele>
        <time>2019-11-11T08:35:18Z</time>
      </trkpt>
      <trkpt lat="49.30459" lon="0.99721">
        <ele>3.8</ele>
        <time>2019-11-11T08:35:19Z</time>
      </trkpt>
      <trkpt lat="49.30454" lon="0.99722">
        <ele>3.8</ele>
        <time>2019-11-11T08:35:20Z</time>
      </trkpt>
      <trkpt lat="49.30448" lon="0.99722">
        <ele>3.8</ele>
        <time>2019-11-11T08:35:21Z</time>
      </trkpt>
      <trkpt lat="49.30444" lon="0.99724">
        <ele>3.8</ele>
        <time>2019-11-11T08:35:22Z</time>
      </trkpt>
      <trkpt lat="49.30439" lon="0.99725">
        <ele>3.8</ele>
        <time>2019-11-11T08:35:23Z</time>
      </trkpt>
      <trkpt lat="49.30435" lon="0.99726">
        <ele>3.8</ele>
        <time>2019-11-11T08:35:24Z</time>
      </trkpt>
      <trkpt lat="49.30431" lon="0.99728">
        <ele>3.8</ele>
        <time>2019-11-11T08:35:25Z</time>
      </trkpt>
      <trkpt lat="49.30427" lon="0.99729">
        <ele>3.8</ele>
        <time>2019-11-11T08:35:26Z</time>
      </trkpt>
      <trkpt lat="49.30423" lon="0.99731">
        <ele>3.8</ele>
        <time>2019-11-11T08:35:27Z</time>
      </trkpt>
      <trkpt lat="49.30419" lon="0.99732">
        <ele>3.8</ele>
        <time>2019-11-11T08:35:28Z</time>
      </trkpt>
      <trkpt lat="49.30416" lon="0.99733">
        <ele>3.8</ele>
        <time>2019-11-11T08:35:29Z</time>
      </trkpt>
      <trkpt lat="49.30412" lon="0.99734">
        <ele>3.8</ele>
        <time>2019-11-11T08:35:30Z</time>
      </trkpt>
      <trkpt lat="49.30409" lon="0.99735">
        <ele>2.7</ele>
        <time>2019-11-11T08:35:31Z</time>
      </trkpt>
      <trkpt lat="49.30406" lon="0.99733">
        <ele>2.7</ele>
        <time>2019-11-11T08:35:32Z</time>
      </trkpt>
      <trkpt lat="49.30403" lon="0.99731">
        <ele>2.7</ele>
        <time>2019-11-11T08:35:33Z</time>
      </trkpt>
      <trkpt lat="49.30402" lon="0.99726">
        <ele>2.7</ele>
        <time>2019-11-11T08:35:34Z</time>
      </trkpt>
      <trkpt lat="49.30401" lon="0.9972">
        <ele>2.7</ele>
        <time>2019-11-11T08:35:35Z</time>
      </trkpt>
      <trkpt lat="49.30401" lon="0.99715">
        <ele>2.7</ele>
        <time>2019-11-11T08:35:36Z</time>
      </trkpt>
      <trkpt lat="49.30401" lon="0.9971">
        <ele>2.7</ele>
        <time>2019-11-11T08:35:37Z</time>
      </trkpt>
      <trkpt lat="49.304" lon="0.99706">
        <ele>2.7</ele>
        <time>2019-11-11T08:35:38Z</time>
      </trkpt>
      <trkpt lat="49.304" lon="0.99703">
        <ele>2.7</ele>
        <time>2019-11-11T08:35:39Z</time>
      </trkpt>
      <trkpt lat="49.30399" lon="0.99699">
        <ele>2.7</ele>
        <time>2019-11-11T08:35:40Z</time>
      </trkpt>
      <trkpt lat="49.30399" lon="0.99696">
        <ele>2.7</ele>
        <time>2019-11-11T08:35:41Z</time>
      </trkpt>
      <trkpt lat="49.30398" lon="0.99693">
        <ele>2.7</ele>
        <time>2019-11-11T08:35:42Z</time>
      </trkpt>
      <trkpt lat="49.30397" lon="0.99689">
        <ele>2.7</ele>
        <time>2019-11-11T08:35:43Z</time>
      </trkpt>
      <trkpt lat="49.30397" lon="0.99685">
        <ele>2.7</ele>
        <time>2019-11-11T08:35:44Z</time>
      </trkpt>
      <trkpt lat="49.30397" lon="0.9968">
        <ele>4.7</ele>
        <time>2019-11-11T08:35:45Z</time>
      </trkpt>
      <trkpt lat="49.30396" lon="0.99675">
        <ele>4.7</ele>
        <time>2019-11-11T08:35:46Z</time>
      </trkpt>
      <trkpt lat="49.30395" lon="0.99671">
        <ele>4.7</ele>
        <time>2019-11-11T08:35:47Z</time>
      </trkpt>
      <trkpt lat="49.30393" lon="0.99668">
        <ele>4.7</ele>
        <time>2019-11-11T08:35:48Z</time>
      </trkpt>
      <trkpt lat="49.30391" lon="0.99667">
        <ele>3.8</ele>
        <time>2019-11-11T08:35:49Z</time>
      </trkpt>
      <trkpt lat="49.30388" lon="0.99666">
        <ele>3.8</ele>
        <time>2019-11-11T08:35:50Z</time>
      </trkpt>
      <trkpt lat="49.30385" lon="0.99665">
        <ele>3.8</ele>
        <time>2019-11-11T08:35:51Z</time>
      </trkpt>
      <trkpt lat="49.30382" lon="0.99664">
        <ele>3.8</ele>
        <time>2019-11-11T08:35:52Z</time>
      </trkpt>
      <trkpt lat="49.30379" lon="0.99663">
        <ele>3.8</ele>
        <time>2019-11-11T08:35:53Z</time>
      </trkpt>
      <trkpt lat="49.30375" lon="0.99662">
        <ele>3.8</ele>
        <time>2019-11-11T08:35:54Z</time>
      </trkpt>
      <trkpt lat="49.30372" lon="0.99661">
        <ele>3.8</ele>
        <time>2019-11-11T08:35:55Z</time>
      </trkpt>
      <trkpt lat="49.30368" lon="0.9966">
        <ele>3.8</ele>
        <time>2019-11-11T08:35:56Z</time>
      </trkpt>
      <trkpt lat="49.30364" lon="0.99659">
        <ele>3.8</ele>
        <time>2019-11-11T08:35:57Z</time>
      </trkpt>
      <trkpt lat="49.30361" lon="0.99658">
        <ele>3.8</ele>
        <time>2019-11-11T08:35:58Z</time>
      </trkpt>
      <trkpt lat="49.30357" lon="0.99657">
        <ele>3.8</ele>
        <time>2019-11-11T08:35:59Z</time>
      </trkpt>
      <trkpt lat="49.30353" lon="0.99655">
        <ele>3.8</ele>
        <time>2019-11-11T08:36:00Z</time>
      </trkpt>
      <trkpt lat="49.3035" lon="0.99654">
        <ele>3.8</ele>
        <time>2019-11-11T08:36:01Z</time>
      </trkpt>
      <trkpt lat="49.30346" lon="0.99653">
        <ele>3.8</ele>
        <time>2019-11-11T08:36:02Z</time>
      </trkpt>
      <trkpt lat="49.30342" lon="0.99652">
        <ele>3.8</ele>
        <time>2019-11-11T08:36:03Z</time>
      </trkpt>
      <trkpt lat="49.30338" lon="0.99651">
        <ele>3.8</ele>
        <time>2019-11-11T08:36:04Z</time>
      </trkpt>
      <trkpt lat="49.30334" lon="0.9965">
        <ele>3.8</ele>
        <time>2019-11-11T08:36:05Z</time>
      </trkpt>
      <trkpt lat="49.3033" lon="0.99648">
        <ele>3.8</ele>
        <time>2019-11-11T08:36:06Z</time>
      </trkpt>
      <trkpt lat="49.30326" lon="0.99647">
        <ele>3.8</ele>
        <time>2019-11-11T08:36:07Z</time>
      </trkpt>
      <trkpt lat="49.30323" lon="0.99646">
        <ele>3.8</ele>
        <time>2019-11-11T08:36:08Z</time>
      </trkpt>
      <trkpt lat="49.30319" lon="0.99645">
        <ele>3.8</ele>
        <time>2019-11-11T08:36:09Z</time>
      </trkpt>
      <trkpt lat="49.30315" lon="0.99644">
        <ele>3.8</ele>
        <time>2019-11-11T08:36:10Z</time>
      </trkpt>
      <trkpt lat="49.30311" lon="0.99643">
        <ele>3.8</ele>
        <time>2019-11-11T08:36:11Z</time>
      </trkpt>
      <trkpt lat="49.30307" lon="0.99641">
        <ele>3.8</ele>
        <time>2019-11-11T08:36:12Z</time>
      </trkpt>
      <trkpt lat="49.30303" lon="0.9964">
        <ele>3.8</ele>
        <time>2019-11-11T08:36:13Z</time>
      </trkpt>
      <trkpt lat="49.30299" lon="0.99638">
        <ele>3.8</ele>
        <time>2019-11-11T08:36:14Z</time>
      </trkpt>
      <trkpt lat="49.30295" lon="0.99637">
        <ele>3.8</ele>
        <time>2019-11-11T08:36:15Z</time>
      </trkpt>
      <trkpt lat="49.30291" lon="0.99636">
        <ele>3.8</ele>
        <time>2019-11-11T08:36:16Z</time>
      </trkpt>
      <trkpt lat="49.30287" lon="0.99634">
        <ele>3.8</ele>
        <time>2019-11-11T08:36:17Z</time>
      </trkpt>
      <trkpt lat="49.30283" lon="0.99633">
        <ele>3.8</ele>
        <time>2019-11-11T08:36:18Z</time>
      </trkpt>
      <trkpt lat="49.30279" lon="0.99632">
        <ele>3.8</ele>
        <time>2019-11-11T08:36:19Z</time>
      </trkpt>
      <trkpt lat="49.30275" lon="0.9963">
        <ele>3.8</ele>
        <time>2019-11-11T08:36:20Z</time>
      </trkpt>
      <trkpt lat="49.30271" lon="0.99629">
        <ele>3.8</ele>
        <time>2019-11-11T08:36:21Z</time>
      </trkpt>
      <trkpt lat="49.30268" lon="0.99628">
        <ele>3.8</ele>
        <time>2019-11-11T08:36:22Z</time>
      </trkpt>
      <trkpt lat="49.30264" lon="0.99626">
        <ele>3.8</ele>
        <time>2019-11-11T08:36:23Z</time>
      </trkpt>
      <trkpt lat="49.30261" lon="0.99624">
        <ele>3.8</ele>
        <time>2019-11-11T08:36:24Z</time>
      </trkpt>
      <trkpt lat="49.30257" lon="0.99623">
        <ele>3.8</ele>
        <time>2019-11-11T08:36:25Z</time>
      </trkpt>
      <trkpt lat="49.30253" lon="0.99622">
        <ele>3.8</ele>
        <time>2019-11-11T08:36:26Z</time>
      </trkpt>
      <trkpt lat="49.30249" lon="0.99621">
        <ele>3.8</ele>
        <time>2019-11-11T08:36:27Z</time>
      </trkpt>
      <trkpt lat="49.30245" lon="0.9962">
        <ele>3.8</ele>
        <time>2019-11-11T08:36:28Z</time>
      </trkpt>
      <trkpt lat="49.30241" lon="0.99619">
        <ele>3.8</ele>
        <time>2019-11-11T08:36:29Z</time>
      </trkpt>
      <trkpt lat="49.30238" lon="0.99618">
        <ele>3.8</ele>
        <time>2019-11-11T08:36:30Z</time>
      </trkpt>
      <trkpt lat="49.30234" lon="0.99617">
        <ele>3.8</ele>
        <time>2019-11-11T08:36:31Z</time>
      </trkpt>
      <trkpt lat="49.3023" lon="0.99615">
        <ele>3.8</ele>
        <time>2019-11-11T08:36:32Z</time>
      </trkpt>
      <trkpt lat="49.30226" lon="0.99614">
        <ele>3.8</ele>
        <time>2019-11-11T08:36:33Z</time>
      </trkpt>
      <trkpt lat="49.30222" lon="0.99613">
        <ele>3.8</ele>
        <time>2019-11-11T08:36:34Z</time>
      </trkpt>
      <trkpt lat="49.30218" lon="0.99612">
        <ele>3.8</ele>
        <time>2019-11-11T08:36:35Z</time>
      </trkpt>
      <trkpt lat="49.30214" lon="0.99611">
        <ele>3.8</ele>
        <time>2019-11-11T08:36:36Z</time>
      </trkpt>
      <trkpt lat="49.30211" lon="0.99609">
        <ele>3.8</ele>
        <time>2019-11-11T08:36:37Z</time>
      </trkpt>
      <trkpt lat="49.30208" lon="0.99608">
        <ele>3.8</ele>
        <time>2019-11-11T08:36:38Z</time>
      </trkpt>
      <trkpt lat="49.30206" lon="0.99608">
        <ele>3.8</ele>
        <time>2019-11-11T08:36:39Z</time>
      </trkpt>
      <trkpt lat="49.30203" lon="0.99607">
        <ele>3.8</ele>
        <time>2019-11-11T08:36:40Z</time>
      </trkpt>
      <trkpt lat="49.30201" lon="0.99606">
        <ele>3.8</ele>
        <time>2019-11-11T08:36:41Z</time>
      </trkpt>
      <trkpt lat="49.30199" lon="0.99606">
        <ele>3.8</ele>
        <time>2019-11-11T08:36:42Z</time>
      </trkpt>
      <trkpt lat="49.30197" lon="0.99605">
        <ele>3.8</ele>
        <time>2019-11-11T08:36:43Z</time>
      </trkpt>
      <trkpt lat="49.30196" lon="0.99605">
        <ele>3.8</ele>
        <time>2019-11-11T08:36:44Z</time>
      </trkpt>
      <trkpt lat="49.30196" lon="0.99605">
        <ele>3.8</ele>
        <time>2019-11-11T08:36:45Z</time>
      </trkpt>
      <trkpt lat="49.30188" lon="0.99608">
        <ele>3.8</ele>
        <time>2019-11-11T08:37:14Z</time>
      </trkpt>
      <trkpt lat="49.30185" lon="0.99608">
        <ele>3.8</ele>
        <time>2019-11-11T08:37:15Z</time>
      </trkpt>
      <trkpt lat="49.30183" lon="0.99607">
        <ele>3.8</ele>
        <time>2019-11-11T08:37:16Z</time>
      </trkpt>
      <trkpt lat="49.3018" lon="0.99607">
        <ele>3.8</ele>
        <time>2019-11-11T08:37:17Z</time>
      </trkpt>
      <trkpt lat="49.30178" lon="0.99607">
        <ele>3.8</ele>
        <time>2019-11-11T08:37:18Z</time>
      </trkpt>
      <trkpt lat="49.30176" lon="0.99606">
        <ele>3.8</ele>
        <time>2019-11-11T08:37:19Z</time>
      </trkpt>
      <trkpt lat="49.30173" lon="0.99605">
        <ele>3.8</ele>
        <time>2019-11-11T08:37:20Z</time>
      </trkpt>
      <trkpt lat="49.30169" lon="0.99604">
        <ele>3.8</ele>
        <time>2019-11-11T08:37:21Z</time>
      </trkpt>
      <trkpt lat="49.30166" lon="0.99604">
        <ele>3.8</ele>
        <time>2019-11-11T08:37:22Z</time>
      </trkpt>
      <trkpt lat="49.30162" lon="0.99604">
        <ele>3.8</ele>
        <time>2019-11-11T08:37:23Z</time>
      </trkpt>
      <trkpt lat="49.30159" lon="0.99604">
        <ele>3.8</ele>
        <time>2019-11-11T08:37:24Z</time>
      </trkpt>
      <trkpt lat="49.30155" lon="0.99606">
        <ele>3.8</ele>
        <time>2019-11-11T08:37:25Z</time>
      </trkpt>
      <trkpt lat="49.30152" lon="0.99607">
        <ele>3.8</ele>
        <time>2019-11-11T08:37:26Z</time>
      </trkpt>
      <trkpt lat="49.30148" lon="0.99609">
        <ele>3.8</ele>
        <time>2019-11-11T08:37:27Z</time>
      </trkpt>
      <trkpt lat="49.30144" lon="0.99611">
        <ele>3.8</ele>
        <time>2019-11-11T08:37:28Z</time>
      </trkpt>
      <trkpt lat="49.3014" lon="0.99613">
        <ele>3.8</ele>
        <time>2019-11-11T08:37:29Z</time>
      </trkpt>
      <trkpt lat="49.30137" lon="0.99615">
        <ele>3.8</ele>
        <time>2019-11-11T08:37:30Z</time>
      </trkpt>
      <trkpt lat="49.30133" lon="0.99617">
        <ele>3.8</ele>
        <time>2019-11-11T08:37:31Z</time>
      </trkpt>
      <trkpt lat="49.30129" lon="0.9962">
        <ele>3.8</ele>
        <time>2019-11-11T08:37:32Z</time>
      </trkpt>
      <trkpt lat="49.30125" lon="0.99622">
        <ele>3.8</ele>
        <time>2019-11-11T08:37:33Z</time>
      </trkpt>
      <trkpt lat="49.30121" lon="0.99625">
        <ele>3.8</ele>
        <time>2019-11-11T08:37:34Z</time>
      </trkpt>
      <trkpt lat="49.30118" lon="0.99627">
        <ele>3.8</ele>
        <time>2019-11-11T08:37:35Z</time>
      </trkpt>
      <trkpt lat="49.30114" lon="0.99629">
        <ele>3.8</ele>
        <time>2019-11-11T08:37:36Z</time>
      </trkpt>
      <trkpt lat="49.3011" lon="0.99631">
        <ele>4.7</ele>
        <time>2019-11-11T08:37:37Z</time>
      </trkpt>
      <trkpt lat="49.30106" lon="0.99633">
        <ele>4.7</ele>
        <time>2019-11-11T08:37:38Z</time>
      </trkpt>
      <trkpt lat="49.30103" lon="0.99635">
        <ele>4.7</ele>
        <time>2019-11-11T08:37:39Z</time>
      </trkpt>
      <trkpt lat="49.30099" lon="0.99636">
        <ele>4.7</ele>
        <time>2019-11-11T08:37:40Z</time>
      </trkpt>
      <trkpt lat="49.30095" lon="0.99634">
        <ele>4.7</ele>
        <time>2019-11-11T08:37:41Z</time>
      </trkpt>
      <trkpt lat="49.30092" lon="0.9963">
        <ele>4.7</ele>
        <time>2019-11-11T08:37:42Z</time>
      </trkpt>
      <trkpt lat="49.3009" lon="0.99626">
        <ele>4.7</ele>
        <time>2019-11-11T08:37:43Z</time>
      </trkpt>
      <trkpt lat="49.30087" lon="0.99621">
        <ele>4.7</ele>
        <time>2019-11-11T08:37:44Z</time>
      </trkpt>
      <trkpt lat="49.30085" lon="0.99616">
        <ele>4.7</ele>
        <time>2019-11-11T08:37:45Z</time>
      </trkpt>
      <trkpt lat="49.30082" lon="0.99611">
        <ele>4.7</ele>
        <time>2019-11-11T08:37:46Z</time>
      </trkpt>
      <trkpt lat="49.30079" lon="0.99607">
        <ele>4.7</ele>
        <time>2019-11-11T08:37:47Z</time>
      </trkpt>
      <trkpt lat="49.30076" lon="0.99604">
        <ele>4.7</ele>
        <time>2019-11-11T08:37:48Z</time>
      </trkpt>
      <trkpt lat="49.30072" lon="0.996">
        <ele>2.7</ele>
        <time>2019-11-11T08:37:49Z</time>
      </trkpt>
      <trkpt lat="49.30069" lon="0.99596">
        <ele>2.7</ele>
        <time>2019-11-11T08:37:50Z</time>
      </trkpt>
      <trkpt lat="49.30065" lon="0.99593">
        <ele>2.7</ele>
        <time>2019-11-11T08:37:51Z</time>
      </trkpt>
      <trkpt lat="49.30061" lon="0.9959">
        <ele>2.7</ele>
        <time>2019-11-11T08:37:52Z</time>
      </trkpt>
      <trkpt lat="49.30057" lon="0.99587">
        <ele>2.7</ele>
        <time>2019-11-11T08:37:53Z</time>
      </trkpt>
      <trkpt lat="49.30053" lon="0.99585">
        <ele>2.7</ele>
        <time>2019-11-11T08:37:54Z</time>
      </trkpt>
      <trkpt lat="49.30049" lon="0.99582">
        <ele>2.7</ele>
        <time>2019-11-11T08:37:55Z</time>
      </trkpt>
      <trkpt lat="49.30045" lon="0.99579">
        <ele>2.7</ele>
        <time>2019-11-11T08:37:56Z</time>
      </trkpt>
      <trkpt lat="49.30041" lon="0.99576">
        <ele>2.7</ele>
        <time>2019-11-11T08:37:57Z</time>
      </trkpt>
      <trkpt lat="49.30037" lon="0.99574">
        <ele>2.7</ele>
        <time>2019-11-11T08:37:58Z</time>
      </trkpt>
      <trkpt lat="49.30033" lon="0.99571">
        <ele>3.8</ele>
        <time>2019-11-11T08:37:59Z</time>
      </trkpt>
      <trkpt lat="49.30029" lon="0.99569">
        <ele>3.8</ele>
        <time>2019-11-11T08:38:00Z</time>
      </trkpt>
      <trkpt lat="49.30024" lon="0.99567">
        <ele>3.8</ele>
        <time>2019-11-11T08:38:01Z</time>
      </trkpt>
      <trkpt lat="49.3002" lon="0.99566">
        <ele>3.8</ele>
        <time>2019-11-11T08:38:02Z</time>
      </trkpt>
      <trkpt lat="49.30015" lon="0.99564">
        <ele>3.8</ele>
        <time>2019-11-11T08:38:03Z</time>
      </trkpt>
      <trkpt lat="49.3001" lon="0.99563">
        <ele>3.8</ele>
        <time>2019-11-11T08:38:04Z</time>
      </trkpt>
      <trkpt lat="49.30005" lon="0.99561">
        <ele>4.7</ele>
        <time>2019-11-11T08:38:05Z</time>
      </trkpt>
      <trkpt lat="49.3" lon="0.9956">
        <ele>4.7</ele>
        <time>2019-11-11T08:38:06Z</time>
      </trkpt>
      <trkpt lat="49.29995" lon="0.99559">
        <ele>4.7</ele>
        <time>2019-11-11T08:38:07Z</time>
      </trkpt>
      <trkpt lat="49.2999" lon="0.99558">
        <ele>4.7</ele>
        <time>2019-11-11T08:38:08Z</time>
      </trkpt>
      <trkpt lat="49.29985" lon="0.99557">
        <ele>5.8</ele>
        <time>2019-11-11T08:38:09Z</time>
      </trkpt>
      <trkpt lat="49.2998" lon="0.99557">
        <ele>5.8</ele>
        <time>2019-11-11T08:38:10Z</time>
      </trkpt>
      <trkpt lat="49.29976" lon="0.99557">
        <ele>5.8</ele>
        <time>2019-11-11T08:38:11Z</time>
      </trkpt>
      <trkpt lat="49.29971" lon="0.99557">
        <ele>5.8</ele>
        <time>2019-11-11T08:38:12Z</time>
      </trkpt>
      <trkpt lat="49.29966" lon="0.99558">
        <ele>5.8</ele>
        <time>2019-11-11T08:38:13Z</time>
      </trkpt>
      <trkpt lat="49.29961" lon="0.99559">
        <ele>5.8</ele>
        <time>2019-11-11T08:38:14Z</time>
      </trkpt>
      <trkpt lat="49.29956" lon="0.9956">
        <ele>5.8</ele>
        <time>2019-11-11T08:38:15Z</time>
      </trkpt>
      <trkpt lat="49.29951" lon="0.99562">
        <ele>5.8</ele>
        <time>2019-11-11T08:38:16Z</time>
      </trkpt>
      <trkpt lat="49.29946" lon="0.99564">
        <ele>5.8</ele>
        <time>2019-11-11T08:38:17Z</time>
      </trkpt>
      <trkpt lat="49.29942" lon="0.99566">
        <ele>5.8</ele>
        <time>2019-11-11T08:38:18Z</time>
      </trkpt>
      <trkpt lat="49.29937" lon="0.99568">
        <ele>5.8</ele>
        <time>2019-11-11T08:38:19Z</time>
      </trkpt>
      <trkpt lat="49.29932" lon="0.99571">
        <ele>5.8</ele>
        <time>2019-11-11T08:38:20Z</time>
      </trkpt>
      <trkpt lat="49.29928" lon="0.99574">
        <ele>5.8</ele>
        <time>2019-11-11T08:38:21Z</time>
      </trkpt>
      <trkpt lat="49.29923" lon="0.99577">
        <ele>5.8</ele>
        <time>2019-11-11T08:38:22Z</time>
      </trkpt>
      <trkpt lat="49.29919" lon="0.9958">
        <ele>5.8</ele>
        <time>2019-11-11T08:38:23Z</time>
      </trkpt>
      <trkpt lat="49.29914" lon="0.99583">
        <ele>5.8</ele>
        <time>2019-11-11T08:38:24Z</time>
      </trkpt>
      <trkpt lat="49.2991" lon="0.99586">
        <ele>5.8</ele>
        <time>2019-11-11T08:38:25Z</time>
      </trkpt>
      <trkpt lat="49.29905" lon="0.9959">
        <ele>5.8</ele>
        <time>2019-11-11T08:38:26Z</time>
      </trkpt>
      <trkpt lat="49.29901" lon="0.99593">
        <ele>5.8</ele>
        <time>2019-11-11T08:38:27Z</time>
      </trkpt>
      <trkpt lat="49.29896" lon="0.99596">
        <ele>5.8</ele>
        <time>2019-11-11T08:38:28Z</time>
      </trkpt>
      <trkpt lat="49.29892" lon="0.99599">
        <ele>5.8</ele>
        <time>2019-11-11T08:38:29Z</time>
      </trkpt>
      <trkpt lat="49.29888" lon="0.99602">
        <ele>5.8</ele>
        <time>2019-11-11T08:38:30Z</time>
      </trkpt>
      <trkpt lat="49.29884" lon="0.99605">
        <ele>5.8</ele>
        <time>2019-11-11T08:38:31Z</time>
      </trkpt>
      <trkpt lat="49.2988" lon="0.99608">
        <ele>5.8</ele>
        <time>2019-11-11T08:38:32Z</time>
      </trkpt>
      <trkpt lat="49.29876" lon="0.99612">
        <ele>5.8</ele>
        <time>2019-11-11T08:38:33Z</time>
      </trkpt>
      <trkpt lat="49.29871" lon="0.99615">
        <ele>5.8</ele>
        <time>2019-11-11T08:38:34Z</time>
      </trkpt>
      <trkpt lat="49.29867" lon="0.99618">
        <ele>5.8</ele>
        <time>2019-11-11T08:38:35Z</time>
      </trkpt>
      <trkpt lat="49.29863" lon="0.99622">
        <ele>5.8</ele>
        <time>2019-11-11T08:38:36Z</time>
      </trkpt>
      <trkpt lat="49.29858" lon="0.99625">
        <ele>5.8</ele>
        <time>2019-11-11T08:38:37Z</time>
      </trkpt>
      <trkpt lat="49.29854" lon="0.99629">
        <ele>5.8</ele>
        <time>2019-11-11T08:38:38Z</time>
      </trkpt>
      <trkpt lat="49.2985" lon="0.99633">
        <ele>5.8</ele>
        <time>2019-11-11T08:38:39Z</time>
      </trkpt>
      <trkpt lat="49.29845" lon="0.99636">
        <ele>5.8</ele>
        <time>2019-11-11T08:38:40Z</time>
      </trkpt>
      <trkpt lat="49.29841" lon="0.9964">
        <ele>5.8</ele>
        <time>2019-11-11T08:38:41Z</time>
      </trkpt>
      <trkpt lat="49.29837" lon="0.99645">
        <ele>5.8</ele>
        <time>2019-11-11T08:38:42Z</time>
      </trkpt>
      <trkpt lat="49.29833" lon="0.99649">
        <ele>5.8</ele>
        <time>2019-11-11T08:38:43Z</time>
      </trkpt>
      <trkpt lat="49.29829" lon="0.99654">
        <ele>5.8</ele>
        <time>2019-11-11T08:38:44Z</time>
      </trkpt>
      <trkpt lat="49.29825" lon="0.99658">
        <ele>5.8</ele>
        <time>2019-11-11T08:38:45Z</time>
      </trkpt>
      <trkpt lat="49.29821" lon="0.99662">
        <ele>5.8</ele>
        <time>2019-11-11T08:38:46Z</time>
      </trkpt>
      <trkpt lat="49.29817" lon="0.99667">
        <ele>5.8</ele>
        <time>2019-11-11T08:38:47Z</time>
      </trkpt>
      <trkpt lat="49.29813" lon="0.99672">
        <ele>5.8</ele>
        <time>2019-11-11T08:38:48Z</time>
      </trkpt>
      <trkpt lat="49.29809" lon="0.99677">
        <ele>5.8</ele>
        <time>2019-11-11T08:38:49Z</time>
      </trkpt>
      <trkpt lat="49.29805" lon="0.99682">
        <ele>5.8</ele>
        <time>2019-11-11T08:38:50Z</time>
      </trkpt>
      <trkpt lat="49.29801" lon="0.99687">
        <ele>4.7</ele>
        <time>2019-11-11T08:38:51Z</time>
      </trkpt>
      <trkpt lat="49.29797" lon="0.99692">
        <ele>4.7</ele>
        <time>2019-11-11T08:38:52Z</time>
      </trkpt>
      <trkpt lat="49.29793" lon="0.99696">
        <ele>4.7</ele>
        <time>2019-11-11T08:38:53Z</time>
      </trkpt>
      <trkpt lat="49.29789" lon="0.99701">
        <ele>4.7</ele>
        <time>2019-11-11T08:38:54Z</time>
      </trkpt>
      <trkpt lat="49.29785" lon="0.99706">
        <ele>4.7</ele>
        <time>2019-11-11T08:38:55Z</time>
      </trkpt>
      <trkpt lat="49.29782" lon="0.9971">
        <ele>4.7</ele>
        <time>2019-11-11T08:38:56Z</time>
      </trkpt>
      <trkpt lat="49.29778" lon="0.99715">
        <ele>4.7</ele>
        <time>2019-11-11T08:38:57Z</time>
      </trkpt>
      <trkpt lat="49.29774" lon="0.9972">
        <ele>4.7</ele>
        <time>2019-11-11T08:38:58Z</time>
      </trkpt>
      <trkpt lat="49.2977" lon="0.99725">
        <ele>4.7</ele>
        <time>2019-11-11T08:38:59Z</time>
      </trkpt>
      <trkpt lat="49.29767" lon="0.99731">
        <ele>4.7</ele>
        <time>2019-11-11T08:39:00Z</time>
      </trkpt>
      <trkpt lat="49.29763" lon="0.99736">
        <ele>4.7</ele>
        <time>2019-11-11T08:39:01Z</time>
      </trkpt>
      <trkpt lat="49.29759" lon="0.99741">
        <ele>4.7</ele>
        <time>2019-11-11T08:39:02Z</time>
      </trkpt>
      <trkpt lat="49.29756" lon="0.99746">
        <ele>4.7</ele>
        <time>2019-11-11T08:39:03Z</time>
      </trkpt>
      <trkpt lat="49.29752" lon="0.99751">
        <ele>4.7</ele>
        <time>2019-11-11T08:39:04Z</time>
      </trkpt>
      <trkpt lat="49.29748" lon="0.99756">
        <ele>4.7</ele>
        <time>2019-11-11T08:39:05Z</time>
      </trkpt>
      <trkpt lat="49.29744" lon="0.99761">
        <ele>4.7</ele>
        <time>2019-11-11T08:39:06Z</time>
      </trkpt>
      <trkpt lat="49.2974" lon="0.99766">
        <ele>4.7</ele>
        <time>2019-11-11T08:39:07Z</time>
      </trkpt>
      <trkpt lat="49.29737" lon="0.99771">
        <ele>4.7</ele>
        <time>2019-11-11T08:39:08Z</time>
      </trkpt>
      <trkpt lat="49.29733" lon="0.99776">
        <ele>4.7</ele>
        <time>2019-11-11T08:39:09Z</time>
      </trkpt>
      <trkpt lat="49.29729" lon="0.99781">
        <ele>4.7</ele>
        <time>2019-11-11T08:39:10Z</time>
      </trkpt>
      <trkpt lat="49.29725" lon="0.99786">
        <ele>4.7</ele>
        <time>2019-11-11T08:39:11Z</time>
      </trkpt>
      <trkpt lat="49.29721" lon="0.99791">
        <ele>4.7</ele>
        <time>2019-11-11T08:39:12Z</time>
      </trkpt>
      <trkpt lat="49.29717" lon="0.99795">
        <ele>4.7</ele>
        <time>2019-11-11T08:39:13Z</time>
      </trkpt>
      <trkpt lat="49.29714" lon="0.99801">
        <ele>4.7</ele>
        <time>2019-11-11T08:39:14Z</time>
      </trkpt>
      <trkpt lat="49.2971" lon="0.99807">
        <ele>4.7</ele>
        <time>2019-11-11T08:39:15Z</time>
      </trkpt>
      <trkpt lat="49.29707" lon="0.99812">
        <ele>4.7</ele>
        <time>2019-11-11T08:39:16Z</time>
      </trkpt>
      <trkpt lat="49.29703" lon="0.99817">
        <ele>4.7</ele>
        <time>2019-11-11T08:39:17Z</time>
      </trkpt>
      <trkpt lat="49.297" lon="0.99822">
        <ele>4.7</ele>
        <time>2019-11-11T08:39:18Z</time>
      </trkpt>
      <trkpt lat="49.29696" lon="0.99827">
        <ele>4.7</ele>
        <time>2019-11-11T08:39:19Z</time>
      </trkpt>
      <trkpt lat="49.29693" lon="0.99832">
        <ele>4.7</ele>
        <time>2019-11-11T08:39:20Z</time>
      </trkpt>
      <trkpt lat="49.29689" lon="0.99838">
        <ele>4.7</ele>
        <time>2019-11-11T08:39:21Z</time>
      </trkpt>
      <trkpt lat="49.29686" lon="0.99843">
        <ele>4.7</ele>
        <time>2019-11-11T08:39:22Z</time>
      </trkpt>
      <trkpt lat="49.29682" lon="0.99849">
        <ele>4.7</ele>
        <time>2019-11-11T08:39:23Z</time>
      </trkpt>
      <trkpt lat="49.29679" lon="0.99854">
        <ele>4.7</ele>
        <time>2019-11-11T08:39:24Z</time>
      </trkpt>
      <trkpt lat="49.29675" lon="0.9986">
        <ele>4.7</ele>
        <time>2019-11-11T08:39:25Z</time>
      </trkpt>
      <trkpt lat="49.29672" lon="0.99866">
        <ele>4.7</ele>
        <time>2019-11-11T08:39:26Z</time>
      </trkpt>
      <trkpt lat="49.29668" lon="0.99872">
        <ele>4.7</ele>
        <time>2019-11-11T08:39:27Z</time>
      </trkpt>
      <trkpt lat="49.29665" lon="0.99878">
        <ele>4.7</ele>
        <time>2019-11-11T08:39:28Z</time>
      </trkpt>
      <trkpt lat="49.29662" lon="0.99884">
        <ele>4.7</ele>
        <time>2019-11-11T08:39:29Z</time>
      </trkpt>
      <trkpt lat="49.29659" lon="0.9989">
        <ele>4.7</ele>
        <time>2019-11-11T08:39:30Z</time>
      </trkpt>
      <trkpt lat="49.29655" lon="0.99897">
        <ele>4.7</ele>
        <time>2019-11-11T08:39:31Z</time>
      </trkpt>
      <trkpt lat="49.29652" lon="0.99903">
        <ele>4.7</ele>
        <time>2019-11-11T08:39:32Z</time>
      </trkpt>
      <trkpt lat="49.29649" lon="0.99909">
        <ele>4.7</ele>
        <time>2019-11-11T08:39:33Z</time>
      </trkpt>
      <trkpt lat="49.29647" lon="0.99916">
        <ele>4.7</ele>
        <time>2019-11-11T08:39:34Z</time>
      </trkpt>
      <trkpt lat="49.29644" lon="0.99922">
        <ele>4.7</ele>
        <time>2019-11-11T08:39:35Z</time>
      </trkpt>
      <trkpt lat="49.29641" lon="0.99929">
        <ele>4.7</ele>
        <time>2019-11-11T08:39:36Z</time>
      </trkpt>
      <trkpt lat="49.29638" lon="0.99935">
        <ele>4.7</ele>
        <time>2019-11-11T08:39:37Z</time>
      </trkpt>
      <trkpt lat="49.29635" lon="0.99942">
        <ele>4.7</ele>
        <time>2019-11-11T08:39:38Z</time>
      </trkpt>
      <trkpt lat="49.29632" lon="0.99948">
        <ele>4.7</ele>
        <time>2019-11-11T08:39:39Z</time>
      </trkpt>
      <trkpt lat="49.2963" lon="0.99955">
        <ele>4.7</ele>
        <time>2019-11-11T08:39:40Z</time>
      </trkpt>
      <trkpt lat="49.29627" lon="0.99962">
        <ele>4.7</ele>
        <time>2019-11-11T08:39:41Z</time>
      </trkpt>
      <trkpt lat="49.29625" lon="0.99969">
        <ele>4.7</ele>
        <time>2019-11-11T08:39:42Z</time>
      </trkpt>
      <trkpt lat="49.29623" lon="0.99976">
        <ele>3.8</ele>
        <time>2019-11-11T08:39:43Z</time>
      </trkpt>
      <trkpt lat="49.2962" lon="0.99983">
        <ele>3.8</ele>
        <time>2019-11-11T08:39:44Z</time>
      </trkpt>
      <trkpt lat="49.29618" lon="0.9999">
        <ele>3.8</ele>
        <time>2019-11-11T08:39:45Z</time>
      </trkpt>
      <trkpt lat="49.29616" lon="0.99997">
        <ele>3.8</ele>
        <time>2019-11-11T08:39:46Z</time>
      </trkpt>
      <trkpt lat="49.29613" lon="1.00004">
        <ele>3.8</ele>
        <time>2019-11-11T08:39:47Z</time>
      </trkpt>
      <trkpt lat="49.29611" lon="1.00012">
        <ele>3.8</ele>
        <time>2019-11-11T08:39:48Z</time>
      </trkpt>
      <trkpt lat="49.29609" lon="1.00019">
        <ele>3.8</ele>
        <time>2019-11-11T08:39:49Z</time>
      </trkpt>
      <trkpt lat="49.29607" lon="1.00026">
        <ele>3.8</ele>
        <time>2019-11-11T08:39:50Z</time>
      </trkpt>
      <trkpt lat="49.29605" lon="1.00033">
        <ele>3.8</ele>
        <time>2019-11-11T08:39:51Z</time>
      </trkpt>
      <trkpt lat="49.29603" lon="1.0004">
        <ele>3.8</ele>
        <time>2019-11-11T08:39:52Z</time>
      </trkpt>
      <trkpt lat="49.29601" lon="1.00047">
        <ele>4.7</ele>
        <time>2019-11-11T08:39:53Z</time>
      </trkpt>
      <trkpt lat="49.29599" lon="1.00054">
        <ele>4.7</ele>
        <time>2019-11-11T08:39:54Z</time>
      </trkpt>
      <trkpt lat="49.29597" lon="1.00061">
        <ele>4.7</ele>
        <time>2019-11-11T08:39:55Z</time>
      </trkpt>
      <trkpt lat="49.29595" lon="1.00068">
        <ele>4.7</ele>
        <time>2019-11-11T08:39:56Z</time>
      </trkpt>
      <trkpt lat="49.29593" lon="1.00075">
        <ele>4.7</ele>
        <time>2019-11-11T08:39:57Z</time>
      </trkpt>
      <trkpt lat="49.29591" lon="1.00082">
        <ele>4.7</ele>
        <time>2019-11-11T08:39:58Z</time>
      </trkpt>
      <trkpt lat="49.29589" lon="1.00089">
        <ele>4.7</ele>
        <time>2019-11-11T08:39:59Z</time>
      </trkpt>
      <trkpt lat="49.29588" lon="1.00097">
        <ele>4.7</ele>
        <time>2019-11-11T08:40:00Z</time>
      </trkpt>
      <trkpt lat="49.29587" lon="1.00104">
        <ele>4.7</ele>
        <time>2019-11-11T08:40:01Z</time>
      </trkpt>
      <trkpt lat="49.29585" lon="1.00111">
        <ele>4.7</ele>
        <time>2019-11-11T08:40:02Z</time>
      </trkpt>
      <trkpt lat="49.29583" lon="1.00119">
        <ele>4.7</ele>
        <time>2019-11-11T08:40:03Z</time>
      </trkpt>
      <trkpt lat="49.29582" lon="1.00126">
        <ele>4.7</ele>
        <time>2019-11-11T08:40:04Z</time>
      </trkpt>
      <trkpt lat="49.2958" lon="1.00133">
        <ele>4.7</ele>
        <time>2019-11-11T08:40:05Z</time>
      </trkpt>
      <trkpt lat="49.29578" lon="1.0014">
        <ele>4.7</ele>
        <time>2019-11-11T08:40:06Z</time>
      </trkpt>
      <trkpt lat="49.29577" lon="1.00148">
        <ele>4.7</ele>
        <time>2019-11-11T08:40:07Z</time>
      </trkpt>
      <trkpt lat="49.29575" lon="1.00155">
        <ele>4.7</ele>
        <time>2019-11-11T08:40:08Z</time>
      </trkpt>
      <trkpt lat="49.29573" lon="1.00163">
        <ele>4.7</ele>
        <time>2019-11-11T08:40:09Z</time>
      </trkpt>
      <trkpt lat="49.29572" lon="1.0017">
        <ele>4.7</ele>
        <time>2019-11-11T08:40:10Z</time>
      </trkpt>
      <trkpt lat="49.2957" lon="1.00178">
        <ele>4.7</ele>
        <time>2019-11-11T08:40:11Z</time>
      </trkpt>
      <trkpt lat="49.29568" lon="1.00185">
        <ele>4.7</ele>
        <time>2019-11-11T08:40:12Z</time>
      </trkpt>
      <trkpt lat="49.29567" lon="1.00192">
        <ele>3.8</ele>
        <time>2019-11-11T08:40:13Z</time>
      </trkpt>
      <trkpt lat="49.29565" lon="1.00199">
        <ele>3.8</ele>
        <time>2019-11-11T08:40:14Z</time>
      </trkpt>
      <trkpt lat="49.29564" lon="1.00205">
        <ele>3.8</ele>
        <time>2019-11-11T08:40:15Z</time>
      </trkpt>
      <trkpt lat="49.29562" lon="1.00212">
        <ele>3.8</ele>
        <time>2019-11-11T08:40:16Z</time>
      </trkpt>
      <trkpt lat="49.29561" lon="1.00218">
        <ele>3.8</ele>
        <time>2019-11-11T08:40:17Z</time>
      </trkpt>
      <trkpt lat="49.29559" lon="1.00224">
        <ele>3.8</ele>
        <time>2019-11-11T08:40:18Z</time>
      </trkpt>
      <trkpt lat="49.29558" lon="1.0023">
        <ele>3.8</ele>
        <time>2019-11-11T08:40:19Z</time>
      </trkpt>
      <trkpt lat="49.29557" lon="1.00236">
        <ele>3.8</ele>
        <time>2019-11-11T08:40:20Z</time>
      </trkpt>
      <trkpt lat="49.29555" lon="1.00243">
        <ele>3.8</ele>
        <time>2019-11-11T08:40:21Z</time>
      </trkpt>
      <trkpt lat="49.29554" lon="1.00249">
        <ele>3.8</ele>
        <time>2019-11-11T08:40:22Z</time>
      </trkpt>
      <trkpt lat="49.29553" lon="1.00256">
        <ele>3.8</ele>
        <time>2019-11-11T08:40:23Z</time>
      </trkpt>
      <trkpt lat="49.29552" lon="1.00262">
        <ele>3.8</ele>
        <time>2019-11-11T08:40:24Z</time>
      </trkpt>
      <trkpt lat="49.2955" lon="1.00268">
        <ele>4.7</ele>
        <time>2019-11-11T08:40:25Z</time>
      </trkpt>
      <trkpt lat="49.29549" lon="1.00274">
        <ele>4.7</ele>
        <time>2019-11-11T08:40:26Z</time>
      </trkpt>
      <trkpt lat="49.29548" lon="1.0028">
        <ele>4.7</ele>
        <time>2019-11-11T08:40:27Z</time>
      </trkpt>
      <trkpt lat="49.29547" lon="1.00286">
        <ele>4.7</ele>
        <time>2019-11-11T08:40:28Z</time>
      </trkpt>
      <trkpt lat="49.29545" lon="1.00292">
        <ele>4.7</ele>
        <time>2019-11-11T08:40:29Z</time>
      </trkpt>
      <trkpt lat="49.29544" lon="1.00299">
        <ele>4.7</ele>
        <time>2019-11-11T08:40:30Z</time>
      </trkpt>
      <trkpt lat="49.29543" lon="1.00306">
        <ele>4.7</ele>
        <time>2019-11-11T08:40:31Z</time>
      </trkpt>
      <trkpt lat="49.29541" lon="1.00313">
        <ele>4.7</ele>
        <time>2019-11-11T08:40:32Z</time>
      </trkpt>
      <trkpt lat="49.2954" lon="1.0032">
        <ele>4.7</ele>
        <time>2019-11-11T08:40:33Z</time>
      </trkpt>
      <trkpt lat="49.29538" lon="1.00327">
        <ele>4.7</ele>
        <time>2019-11-11T08:40:34Z</time>
      </trkpt>
      <trkpt lat="49.29537" lon="1.00334">
        <ele>4.7</ele>
        <time>2019-11-11T08:40:35Z</time>
      </trkpt>
      <trkpt lat="49.29535" lon="1.00341">
        <ele>4.7</ele>
        <time>2019-11-11T08:40:36Z</time>
      </trkpt>
      <trkpt lat="49.29534" lon="1.00348">
        <ele>4.7</ele>
        <time>2019-11-11T08:40:37Z</time>
      </trkpt>
      <trkpt lat="49.29532" lon="1.00355">
        <ele>4.7</ele>
        <time>2019-11-11T08:40:38Z</time>
      </trkpt>
      <trkpt lat="49.29531" lon="1.00362">
        <ele>4.7</ele>
        <time>2019-11-11T08:40:39Z</time>
      </trkpt>
      <trkpt lat="49.29529" lon="1.00368">
        <ele>4.7</ele>
        <time>2019-11-11T08:40:40Z</time>
      </trkpt>
      <trkpt lat="49.29528" lon="1.00375">
        <ele>4.7</ele>
        <time>2019-11-11T08:40:41Z</time>
      </trkpt>
      <trkpt lat="49.29526" lon="1.00382">
        <ele>4.7</ele>
        <time>2019-11-11T08:40:42Z</time>
      </trkpt>
      <trkpt lat="49.29525" lon="1.00388">
        <ele>4.7</ele>
        <time>2019-11-11T08:40:43Z</time>
      </trkpt>
      <trkpt lat="49.29523" lon="1.00395">
        <ele>4.7</ele>
        <time>2019-11-11T08:40:44Z</time>
      </trkpt>
      <trkpt lat="49.29521" lon="1.00402">
        <ele>4.7</ele>
        <time>2019-11-11T08:40:45Z</time>
      </trkpt>
      <trkpt lat="49.29519" lon="1.00408">
        <ele>4.7</ele>
        <time>2019-11-11T08:40:46Z</time>
      </trkpt>
      <trkpt lat="49.29517" lon="1.00415">
        <ele>4.7</ele>
        <time>2019-11-11T08:40:47Z</time>
      </trkpt>
      <trkpt lat="49.29515" lon="1.00421">
        <ele>4.7</ele>
        <time>2019-11-11T08:40:48Z</time>
      </trkpt>
      <trkpt lat="49.29513" lon="1.00428">
        <ele>4.7</ele>
        <time>2019-11-11T08:40:49Z</time>
      </trkpt>
      <trkpt lat="49.29511" lon="1.00435">
        <ele>4.7</ele>
        <time>2019-11-11T08:40:50Z</time>
      </trkpt>
      <trkpt lat="49.29509" lon="1.00442">
        <ele>4.7</ele>
        <time>2019-11-11T08:40:51Z</time>
      </trkpt>
      <trkpt lat="49.29506" lon="1.00448">
        <ele>4.7</ele>
        <time>2019-11-11T08:40:52Z</time>
      </trkpt>
      <trkpt lat="49.29504" lon="1.00455">
        <ele>4.7</ele>
        <time>2019-11-11T08:40:53Z</time>
      </trkpt>
      <trkpt lat="49.29502" lon="1.00461">
        <ele>4.7</ele>
        <time>2019-11-11T08:40:54Z</time>
      </trkpt>
      <trkpt lat="49.29499" lon="1.00468">
        <ele>4.7</ele>
        <time>2019-11-11T08:40:55Z</time>
      </trkpt>
      <trkpt lat="49.29497" lon="1.00474">
        <ele>4.7</ele>
        <time>2019-11-11T08:40:56Z</time>
      </trkpt>
      <trkpt lat="49.29495" lon="1.0048">
        <ele>4.7</ele>
        <time>2019-11-11T08:40:57Z</time>
      </trkpt>
      <trkpt lat="49.29492" lon="1.00486">
        <ele>4.7</ele>
        <time>2019-11-11T08:40:58Z</time>
      </trkpt>
      <trkpt lat="49.2949" lon="1.00492">
        <ele>4.7</ele>
        <time>2019-11-11T08:40:59Z</time>
      </trkpt>
      <trkpt lat="49.29489" lon="1.00498">
        <ele>4.7</ele>
        <time>2019-11-11T08:41:00Z</time>
      </trkpt>
      <trkpt lat="49.29486" lon="1.00505">
        <ele>4.7</ele>
        <time>2019-11-11T08:41:01Z</time>
      </trkpt>
      <trkpt lat="49.29484" lon="1.00511">
        <ele>4.7</ele>
        <time>2019-11-11T08:41:02Z</time>
      </trkpt>
      <trkpt lat="49.29482" lon="1.00516">
        <ele>4.7</ele>
        <time>2019-11-11T08:41:03Z</time>
      </trkpt>
      <trkpt lat="49.29481" lon="1.00522">
        <ele>4.7</ele>
        <time>2019-11-11T08:41:04Z</time>
      </trkpt>
      <trkpt lat="49.29481" lon="1.00528">
        <ele>4.7</ele>
        <time>2019-11-11T08:41:05Z</time>
      </trkpt>
      <trkpt lat="49.29483" lon="1.00534">
        <ele>4.7</ele>
        <time>2019-11-11T08:41:06Z</time>
      </trkpt>
      <trkpt lat="49.29485" lon="1.00539">
        <ele>4.7</ele>
        <time>2019-11-11T08:41:07Z</time>
      </trkpt>
      <trkpt lat="49.29488" lon="1.00543">
        <ele>4.7</ele>
        <time>2019-11-11T08:41:08Z</time>
      </trkpt>
      <trkpt lat="49.29492" lon="1.00546">
        <ele>4.7</ele>
        <time>2019-11-11T08:41:09Z</time>
      </trkpt>
      <trkpt lat="49.29495" lon="1.00549">
        <ele>4.7</ele>
        <time>2019-11-11T08:41:10Z</time>
      </trkpt>
      <trkpt lat="49.29499" lon="1.00551">
        <ele>4.7</ele>
        <time>2019-11-11T08:41:11Z</time>
      </trkpt>
      <trkpt lat="49.29503" lon="1.00552">
        <ele>4.7</ele>
        <time>2019-11-11T08:41:12Z</time>
      </trkpt>
      <trkpt lat="49.29507" lon="1.00553">
        <ele>4.7</ele>
        <time>2019-11-11T08:41:13Z</time>
      </trkpt>
      <trkpt lat="49.29511" lon="1.00555">
        <ele>4.7</ele>
        <time>2019-11-11T08:41:14Z</time>
      </trkpt>
      <trkpt lat="49.29515" lon="1.00556">
        <ele>5.8</ele>
        <time>2019-11-11T08:41:15Z</time>
      </trkpt>
      <trkpt lat="49.29518" lon="1.00558">
        <ele>5.8</ele>
        <time>2019-11-11T08:41:16Z</time>
      </trkpt>
      <trkpt lat="49.29522" lon="1.00559">
        <ele>5.8</ele>
        <time>2019-11-11T08:41:17Z</time>
      </trkpt>
      <trkpt lat="49.29526" lon="1.0056">
        <ele>5.8</ele>
        <time>2019-11-11T08:41:18Z</time>
      </trkpt>
      <trkpt lat="49.29529" lon="1.00561">
        <ele>5.8</ele>
        <time>2019-11-11T08:41:19Z</time>
      </trkpt>
      <trkpt lat="49.29533" lon="1.00563">
        <ele>5.8</ele>
        <time>2019-11-11T08:41:20Z</time>
      </trkpt>
      <trkpt lat="49.29536" lon="1.00564">
        <ele>6.7</ele>
        <time>2019-11-11T08:41:21Z</time>
      </trkpt>
      <trkpt lat="49.2954" lon="1.00566">
        <ele>6.7</ele>
        <time>2019-11-11T08:41:22Z</time>
      </trkpt>
      <trkpt lat="49.29543" lon="1.00567">
        <ele>6.7</ele>
        <time>2019-11-11T08:41:23Z</time>
      </trkpt>
      <trkpt lat="49.29546" lon="1.00568">
        <ele>6.7</ele>
        <time>2019-11-11T08:41:24Z</time>
      </trkpt>
      <trkpt lat="49.29548" lon="1.00568">
        <ele>7.8</ele>
        <time>2019-11-11T08:41:25Z</time>
      </trkpt>
      <trkpt lat="49.2955" lon="1.00569">
        <ele>7.8</ele>
        <time>2019-11-11T08:41:26Z</time>
      </trkpt>
      <trkpt lat="49.29552" lon="1.00568">
        <ele>7.8</ele>
        <time>2019-11-11T08:41:27Z</time>
      </trkpt>
      <trkpt lat="49.29553" lon="1.00568">
        <ele>7.8</ele>
        <time>2019-11-11T08:41:28Z</time>
      </trkpt>
      <trkpt lat="49.29554" lon="1.00567">
        <ele>7.8</ele>
        <time>2019-11-11T08:41:29Z</time>
      </trkpt>
      <trkpt lat="49.29554" lon="1.00566">
        <ele>7.8</ele>
        <time>2019-11-11T08:41:30Z</time>
      </trkpt>
      <trkpt lat="49.29556" lon="1.0056">
        <ele>7.8</ele>
        <time>2019-11-11T08:41:42Z</time>
      </trkpt>
      <trkpt lat="49.29554" lon="1.00556">
        <ele>7.8</ele>
        <time>2019-11-11T08:41:43Z</time>
      </trkpt>
      <trkpt lat="49.29552" lon="1.00553">
        <ele>7.8</ele>
        <time>2019-11-11T08:41:44Z</time>
      </trkpt>
      <trkpt lat="49.29548" lon="1.00551">
        <ele>8.7</ele>
        <time>2019-11-11T08:41:45Z</time>
      </trkpt>
      <trkpt lat="49.29544" lon="1.00548">
        <ele>8.7</ele>
        <time>2019-11-11T08:41:46Z</time>
      </trkpt>
      <trkpt lat="49.29541" lon="1.00546">
        <ele>8.7</ele>
        <time>2019-11-11T08:41:47Z</time>
      </trkpt>
      <trkpt lat="49.29537" lon="1.00544">
        <ele>8.7</ele>
        <time>2019-11-11T08:41:48Z</time>
      </trkpt>
      <trkpt lat="49.29533" lon="1.00541">
        <ele>9.8</ele>
        <time>2019-11-11T08:41:49Z</time>
      </trkpt>
      <trkpt lat="49.29529" lon="1.00539">
        <ele>9.8</ele>
        <time>2019-11-11T08:41:50Z</time>
      </trkpt>
      <trkpt lat="49.29526" lon="1.00537">
        <ele>9.8</ele>
        <time>2019-11-11T08:41:51Z</time>
      </trkpt>
      <trkpt lat="49.29522" lon="1.00534">
        <ele>9.8</ele>
        <time>2019-11-11T08:41:52Z</time>
      </trkpt>
      <trkpt lat="49.29518" lon="1.00532">
        <ele>10.7</ele>
        <time>2019-11-11T08:41:53Z</time>
      </trkpt>
      <trkpt lat="49.29514" lon="1.0053">
        <ele>10.7</ele>
        <time>2019-11-11T08:41:54Z</time>
      </trkpt>
      <trkpt lat="49.2951" lon="1.00527">
        <ele>10.7</ele>
        <time>2019-11-11T08:41:55Z</time>
      </trkpt>
      <trkpt lat="49.29506" lon="1.00524">
        <ele>10.7</ele>
        <time>2019-11-11T08:41:56Z</time>
      </trkpt>
      <trkpt lat="49.29502" lon="1.00522">
        <ele>11.7</ele>
        <time>2019-11-11T08:41:57Z</time>
      </trkpt>
      <trkpt lat="49.29498" lon="1.00519">
        <ele>11.7</ele>
        <time>2019-11-11T08:41:58Z</time>
      </trkpt>
      <trkpt lat="49.29494" lon="1.00517">
        <ele>11.7</ele>
        <time>2019-11-11T08:41:59Z</time>
      </trkpt>
      <trkpt lat="49.2949" lon="1.00514">
        <ele>11.7</ele>
        <time>2019-11-11T08:42:00Z</time>
      </trkpt>
      <trkpt lat="49.29486" lon="1.00512">
        <ele>11.7</ele>
        <time>2019-11-11T08:42:01Z</time>
      </trkpt>
      <trkpt lat="49.29483" lon="1.00509">
        <ele>11.7</ele>
        <time>2019-11-11T08:42:02Z</time>
      </trkpt>
      <trkpt lat="49.29479" lon="1.00507">
        <ele>11.7</ele>
        <time>2019-11-11T08:42:03Z</time>
      </trkpt>
      <trkpt lat="49.29475" lon="1.00504">
        <ele>11.7</ele>
        <time>2019-11-11T08:42:04Z</time>
      </trkpt>
      <trkpt lat="49.29471" lon="1.00502">
        <ele>11.7</ele>
        <time>2019-11-11T08:42:05Z</time>
      </trkpt>
      <trkpt lat="49.29467" lon="1.005">
        <ele>11.7</ele>
        <time>2019-11-11T08:42:06Z</time>
      </trkpt>
      <trkpt lat="49.29463" lon="1.00497">
        <ele>11.7</ele>
        <time>2019-11-11T08:42:07Z</time>
      </trkpt>
      <trkpt lat="49.29459" lon="1.00495">
        <ele>11.7</ele>
        <time>2019-11-11T08:42:08Z</time>
      </trkpt>
      <trkpt lat="49.29455" lon="1.00492">
        <ele>11.7</ele>
        <time>2019-11-11T08:42:09Z</time>
      </trkpt>
      <trkpt lat="49.29451" lon="1.0049">
        <ele>11.7</ele>
        <time>2019-11-11T08:42:10Z</time>
      </trkpt>
      <trkpt lat="49.29447" lon="1.00487">
        <ele>13.7</ele>
        <time>2019-11-11T08:42:11Z</time>
      </trkpt>
      <trkpt lat="49.29443" lon="1.00484">
        <ele>13.7</ele>
        <time>2019-11-11T08:42:12Z</time>
      </trkpt>
      <trkpt lat="49.29439" lon="1.00482">
        <ele>13.7</ele>
        <time>2019-11-11T08:42:13Z</time>
      </trkpt>
      <trkpt lat="49.29435" lon="1.00479">
        <ele>13.7</ele>
        <time>2019-11-11T08:42:14Z</time>
      </trkpt>
      <trkpt lat="49.29431" lon="1.00476">
        <ele>13.7</ele>
        <time>2019-11-11T08:42:15Z</time>
      </trkpt>
      <trkpt lat="49.29427" lon="1.00474">
        <ele>13.7</ele>
        <time>2019-11-11T08:42:16Z</time>
      </trkpt>
      <trkpt lat="49.29422" lon="1.00471">
        <ele>13.7</ele>
        <time>2019-11-11T08:42:17Z</time>
      </trkpt>
      <trkpt lat="49.29418" lon="1.00468">
        <ele>13.7</ele>
        <time>2019-11-11T08:42:18Z</time>
      </trkpt>
      <trkpt lat="49.29414" lon="1.00466">
        <ele>14.8</ele>
        <time>2019-11-11T08:42:19Z</time>
      </trkpt>
      <trkpt lat="49.29409" lon="1.00463">
        <ele>14.8</ele>
        <time>2019-11-11T08:42:20Z</time>
      </trkpt>
      <trkpt lat="49.29405" lon="1.0046">
        <ele>14.8</ele>
        <time>2019-11-11T08:42:21Z</time>
      </trkpt>
      <trkpt lat="49.294" lon="1.00457">
        <ele>14.8</ele>
        <time>2019-11-11T08:42:22Z</time>
      </trkpt>
      <trkpt lat="49.29396" lon="1.00454">
        <ele>14.8</ele>
        <time>2019-11-11T08:42:23Z</time>
      </trkpt>
      <trkpt lat="49.29391" lon="1.00451">
        <ele>14.8</ele>
        <time>2019-11-11T08:42:24Z</time>
      </trkpt>
      <trkpt lat="49.29386" lon="1.00448">
        <ele>14.8</ele>
        <time>2019-11-11T08:42:25Z</time>
      </trkpt>
      <trkpt lat="49.29382" lon="1.00445">
        <ele>14.8</ele>
        <time>2019-11-11T08:42:26Z</time>
      </trkpt>
      <trkpt lat="49.29377" lon="1.00442">
        <ele>14.8</ele>
        <time>2019-11-11T08:42:27Z</time>
      </trkpt>
      <trkpt lat="49.29372" lon="1.00439">
        <ele>14.8</ele>
        <time>2019-11-11T08:42:28Z</time>
      </trkpt>
      <trkpt lat="49.29367" lon="1.00436">
        <ele>14.8</ele>
        <time>2019-11-11T08:42:29Z</time>
      </trkpt>
      <trkpt lat="49.29362" lon="1.00433">
        <ele>14.8</ele>
        <time>2019-11-11T08:42:30Z</time>
      </trkpt>
      <trkpt lat="49.29358" lon="1.0043">
        <ele>14.8</ele>
        <time>2019-11-11T08:42:31Z</time>
      </trkpt>
      <trkpt lat="49.29352" lon="1.00427">
        <ele>14.8</ele>
        <time>2019-11-11T08:42:32Z</time>
      </trkpt>
      <trkpt lat="49.29347" lon="1.00424">
        <ele>14.8</ele>
        <time>2019-11-11T08:42:33Z</time>
      </trkpt>
      <trkpt lat="49.29342" lon="1.00421">
        <ele>14.8</ele>
        <time>2019-11-11T08:42:34Z</time>
      </trkpt>
      <trkpt lat="49.29337" lon="1.00418">
        <ele>13.7</ele>
        <time>2019-11-11T08:42:35Z</time>
      </trkpt>
      <trkpt lat="49.29332" lon="1.00415">
        <ele>13.7</ele>
        <time>2019-11-11T08:42:36Z</time>
      </trkpt>
      <trkpt lat="49.29327" lon="1.00412">
        <ele>13.7</ele>
        <time>2019-11-11T08:42:37Z</time>
      </trkpt>
      <trkpt lat="49.29322" lon="1.00409">
        <ele>13.7</ele>
        <time>2019-11-11T08:42:38Z</time>
      </trkpt>
      <trkpt lat="49.29317" lon="1.00405">
        <ele>13.7</ele>
        <time>2019-11-11T08:42:39Z</time>
      </trkpt>
      <trkpt lat="49.29311" lon="1.00402">
        <ele>13.7</ele>
        <time>2019-11-11T08:42:40Z</time>
      </trkpt>
      <trkpt lat="49.29306" lon="1.00398">
        <ele>13.7</ele>
        <time>2019-11-11T08:42:41Z</time>
      </trkpt>
      <trkpt lat="49.293" lon="1.00395">
        <ele>13.7</ele>
        <time>2019-11-11T08:42:42Z</time>
      </trkpt>
      <trkpt lat="49.29295" lon="1.00391">
        <ele>13.7</ele>
        <time>2019-11-11T08:42:43Z</time>
      </trkpt>
      <trkpt lat="49.29289" lon="1.00387">
        <ele>13.7</ele>
        <time>2019-11-11T08:42:44Z</time>
      </trkpt>
      <trkpt lat="49.29283" lon="1.00384">
        <ele>13.7</ele>
        <time>2019-11-11T08:42:45Z</time>
      </trkpt>
      <trkpt lat="49.29277" lon="1.0038">
        <ele>13.7</ele>
        <time>2019-11-11T08:42:46Z</time>
      </trkpt>
      <trkpt lat="49.29271" lon="1.00376">
        <ele>11.7</ele>
        <time>2019-11-11T08:42:47Z</time>
      </trkpt>
      <trkpt lat="49.29265" lon="1.00373">
        <ele>11.7</ele>
        <time>2019-11-11T08:42:48Z</time>
      </trkpt>
      <trkpt lat="49.29259" lon="1.00369">
        <ele>11.7</ele>
        <time>2019-11-11T08:42:49Z</time>
      </trkpt>
      <trkpt lat="49.29253" lon="1.00366">
        <ele>11.7</ele>
        <time>2019-11-11T08:42:50Z</time>
      </trkpt>
      <trkpt lat="49.29246" lon="1.00363">
        <ele>10.7</ele>
        <time>2019-11-11T08:42:51Z</time>
      </trkpt>
      <trkpt lat="49.2924" lon="1.00361">
        <ele>10.7</ele>
        <time>2019-11-11T08:42:52Z</time>
      </trkpt>
      <trkpt lat="49.29233" lon="1.00358">
        <ele>9.8</ele>
        <time>2019-11-11T08:42:53Z</time>
      </trkpt>
      <trkpt lat="49.29227" lon="1.00357">
        <ele>9.8</ele>
        <time>2019-11-11T08:42:54Z</time>
      </trkpt>
      <trkpt lat="49.29221" lon="1.00355">
        <ele>8.7</ele>
        <time>2019-11-11T08:42:55Z</time>
      </trkpt>
      <trkpt lat="49.29216" lon="1.00354">
        <ele>8.7</ele>
        <time>2019-11-11T08:42:56Z</time>
      </trkpt>
      <trkpt lat="49.29212" lon="1.00352">
        <ele>8.7</ele>
        <time>2019-11-11T08:42:57Z</time>
      </trkpt>
      <trkpt lat="49.2921" lon="1.0035">
        <ele>8.7</ele>
        <time>2019-11-11T08:42:58Z</time>
      </trkpt>
      <trkpt lat="49.29208" lon="1.00347">
        <ele>6.7</ele>
        <time>2019-11-11T08:42:59Z</time>
      </trkpt>
      <trkpt lat="49.29209" lon="1.00345">
        <ele>6.7</ele>
        <time>2019-11-11T08:43:00Z</time>
      </trkpt>
      <trkpt lat="49.29212" lon="1.00344">
        <ele>6.7</ele>
        <time>2019-11-11T08:43:01Z</time>
      </trkpt>
      <trkpt lat="49.29214" lon="1.00345">
        <ele>6.7</ele>
        <time>2019-11-11T08:43:02Z</time>
      </trkpt>
      <trkpt lat="49.2922" lon="1.00347">
        <ele>6.7</ele>
        <time>2019-11-11T08:43:03Z</time>
      </trkpt>
      <trkpt lat="49.29223" lon="1.00348">
        <ele>6.7</ele>
        <time>2019-11-11T08:43:04Z</time>
      </trkpt>
      <trkpt lat="49.29226" lon="1.0035">
        <ele>6.7</ele>
        <time>2019-11-11T08:43:05Z</time>
      </trkpt>
      <trkpt lat="49.2923" lon="1.00351">
        <ele>6.7</ele>
        <time>2019-11-11T08:43:06Z</time>
      </trkpt>
      <trkpt lat="49.29233" lon="1.00352">
        <ele>6.7</ele>
        <time>2019-11-11T08:43:07Z</time>
      </trkpt>
      <trkpt lat="49.29236" lon="1.00353">
        <ele>6.7</ele>
        <time>2019-11-11T08:43:08Z</time>
      </trkpt>
      <trkpt lat="49.29239" lon="1.00355">
        <ele>6.7</ele>
        <time>2019-11-11T08:43:09Z</time>
      </trkpt>
      <trkpt lat="49.29242" lon="1.00356">
        <ele>6.7</ele>
        <time>2019-11-11T08:43:10Z</time>
      </trkpt>
      <trkpt lat="49.29246" lon="1.00357">
        <ele>6.7</ele>
        <time>2019-11-11T08:43:11Z</time>
      </trkpt>
      <trkpt lat="49.2925" lon="1.00359">
        <ele>6.7</ele>
        <time>2019-11-11T08:43:12Z</time>
      </trkpt>
      <trkpt lat="49.29254" lon="1.00361">
        <ele>6.7</ele>
        <time>2019-11-11T08:43:13Z</time>
      </trkpt>
      <trkpt lat="49.29258" lon="1.00362">
        <ele>6.7</ele>
        <time>2019-11-11T08:43:14Z</time>
      </trkpt>
      <trkpt lat="49.29261" lon="1.00364">
        <ele>6.7</ele>
        <time>2019-11-11T08:43:15Z</time>
      </trkpt>
      <trkpt lat="49.29265" lon="1.00365">
        <ele>6.7</ele>
        <time>2019-11-11T08:43:16Z</time>
      </trkpt>
      <trkpt lat="49.29268" lon="1.00365">
        <ele>5.8</ele>
        <time>2019-11-11T08:43:17Z</time>
      </trkpt>
      <trkpt lat="49.29271" lon="1.00364">
        <ele>5.8</ele>
        <time>2019-11-11T08:43:18Z</time>
      </trkpt>
      <trkpt lat="49.29274" lon="1.00363">
        <ele>5.8</ele>
        <time>2019-11-11T08:43:19Z</time>
      </trkpt>
      <trkpt lat="49.29278" lon="1.00364">
        <ele>5.8</ele>
        <time>2019-11-11T08:43:20Z</time>
      </trkpt>
      <trkpt lat="49.29281" lon="1.00365">
        <ele>5.8</ele>
        <time>2019-11-11T08:43:21Z</time>
      </trkpt>
      <trkpt lat="49.29285" lon="1.00366">
        <ele>5.8</ele>
        <time>2019-11-11T08:43:22Z</time>
      </trkpt>
      <trkpt lat="49.29288" lon="1.00368">
        <ele>5.8</ele>
        <time>2019-11-11T08:43:23Z</time>
      </trkpt>
      <trkpt lat="49.29291" lon="1.0037">
        <ele>5.8</ele>
        <time>2019-11-11T08:43:24Z</time>
      </trkpt>
      <trkpt lat="49.29294" lon="1.00372">
        <ele>5.8</ele>
        <time>2019-11-11T08:43:25Z</time>
      </trkpt>
      <trkpt lat="49.29298" lon="1.00374">
        <ele>5.8</ele>
        <time>2019-11-11T08:43:26Z</time>
      </trkpt>
      <trkpt lat="49.29301" lon="1.00376">
        <ele>5.8</ele>
        <time>2019-11-11T08:43:27Z</time>
      </trkpt>
      <trkpt lat="49.29304" lon="1.00378">
        <ele>5.8</ele>
        <time>2019-11-11T08:43:28Z</time>
      </trkpt>
      <trkpt lat="49.29308" lon="1.0038">
        <ele>5.8</ele>
        <time>2019-11-11T08:43:29Z</time>
      </trkpt>
      <trkpt lat="49.29311" lon="1.00382">
        <ele>5.8</ele>
        <time>2019-11-11T08:43:30Z</time>
      </trkpt>
      <trkpt lat="49.29315" lon="1.00384">
        <ele>5.8</ele>
        <time>2019-11-11T08:43:31Z</time>
      </trkpt>
      <trkpt lat="49.29318" lon="1.00385">
        <ele>5.8</ele>
        <time>2019-11-11T08:43:32Z</time>
      </trkpt>
      <trkpt lat="49.29322" lon="1.00387">
        <ele>5.8</ele>
        <time>2019-11-11T08:43:33Z</time>
      </trkpt>
      <trkpt lat="49.29325" lon="1.00389">
        <ele>5.8</ele>
        <time>2019-11-11T08:43:34Z</time>
      </trkpt>
      <trkpt lat="49.29327" lon="1.00391">
        <ele>5.8</ele>
        <time>2019-11-11T08:43:35Z</time>
      </trkpt>
      <trkpt lat="49.29329" lon="1.00393">
        <ele>5.8</ele>
        <time>2019-11-11T08:43:36Z</time>
      </trkpt>
      <trkpt lat="49.2933" lon="1.00396">
        <ele>5.8</ele>
        <time>2019-11-11T08:43:37Z</time>
      </trkpt>
      <trkpt lat="49.29331" lon="1.00399">
        <ele>5.8</ele>
        <time>2019-11-11T08:43:38Z</time>
      </trkpt>
      <trkpt lat="49.29331" lon="1.00402">
        <ele>4.7</ele>
        <time>2019-11-11T08:43:39Z</time>
      </trkpt>
      <trkpt lat="49.29331" lon="1.00405">
        <ele>4.7</ele>
        <time>2019-11-11T08:43:40Z</time>
      </trkpt>
      <trkpt lat="49.29332" lon="1.00407">
        <ele>4.7</ele>
        <time>2019-11-11T08:43:41Z</time>
      </trkpt>
      <trkpt lat="49.29332" lon="1.00409">
        <ele>4.7</ele>
        <time>2019-11-11T08:43:42Z</time>
      </trkpt>
      <trkpt lat="49.29333" lon="1.0041">
        <ele>4.7</ele>
        <time>2019-11-11T08:43:43Z</time>
      </trkpt>
      <trkpt lat="49.29333" lon="1.0041">
        <ele>4.7</ele>
        <time>2019-11-11T08:43:44Z</time>
      </trkpt>
      <trkpt lat="49.29333" lon="1.0041">
        <ele>4.7</ele>
        <time>2019-11-11T08:43:45Z</time>
      </trkpt>
      <trkpt lat="49.29335" lon="1.00404">
        <ele>4.7</ele>
        <time>2019-11-11T08:43:52Z</time>
      </trkpt>
      <trkpt lat="49.29334" lon="1.00401">
        <ele>5.8</ele>
        <time>2019-11-11T08:43:53Z</time>
      </trkpt>
      <trkpt lat="49.29333" lon="1.00399">
        <ele>5.8</ele>
        <time>2019-11-11T08:43:54Z</time>
      </trkpt>
      <trkpt lat="49.29331" lon="1.00398">
        <ele>5.8</ele>
        <time>2019-11-11T08:43:55Z</time>
      </trkpt>
      <trkpt lat="49.29329" lon="1.00396">
        <ele>5.8</ele>
        <time>2019-11-11T08:43:56Z</time>
      </trkpt>
      <trkpt lat="49.29326" lon="1.00394">
        <ele>5.8</ele>
        <time>2019-11-11T08:43:57Z</time>
      </trkpt>
      <trkpt lat="49.29322" lon="1.00391">
        <ele>5.8</ele>
        <time>2019-11-11T08:43:58Z</time>
      </trkpt>
      <trkpt lat="49.29319" lon="1.00389">
        <ele>5.8</ele>
        <time>2019-11-11T08:43:59Z</time>
      </trkpt>
      <trkpt lat="49.29315" lon="1.00386">
        <ele>5.8</ele>
        <time>2019-11-11T08:44:00Z</time>
      </trkpt>
      <trkpt lat="49.29311" lon="1.00383">
        <ele>5.8</ele>
        <time>2019-11-11T08:44:01Z</time>
      </trkpt>
      <trkpt lat="49.29307" lon="1.00381">
        <ele>5.8</ele>
        <time>2019-11-11T08:44:02Z</time>
      </trkpt>
      <trkpt lat="49.29303" lon="1.00378">
        <ele>5.8</ele>
        <time>2019-11-11T08:44:03Z</time>
      </trkpt>
      <trkpt lat="49.29299" lon="1.00375">
        <ele>5.8</ele>
        <time>2019-11-11T08:44:04Z</time>
      </trkpt>
      <trkpt lat="49.29294" lon="1.00372">
        <ele>5.8</ele>
        <time>2019-11-11T08:44:05Z</time>
      </trkpt>
      <trkpt lat="49.2929" lon="1.00368">
        <ele>5.8</ele>
        <time>2019-11-11T08:44:06Z</time>
      </trkpt>
      <trkpt lat="49.29286" lon="1.00365">
        <ele>5.8</ele>
        <time>2019-11-11T08:44:07Z</time>
      </trkpt>
      <trkpt lat="49.29283" lon="1.00362">
        <ele>5.8</ele>
        <time>2019-11-11T08:44:08Z</time>
      </trkpt>
      <trkpt lat="49.29279" lon="1.00361">
        <ele>5.8</ele>
        <time>2019-11-11T08:44:09Z</time>
      </trkpt>
      <trkpt lat="49.29276" lon="1.00361">
        <ele>5.8</ele>
        <time>2019-11-11T08:44:10Z</time>
      </trkpt>
      <trkpt lat="49.29273" lon="1.00362">
        <ele>5.8</ele>
        <time>2019-11-11T08:44:11Z</time>
      </trkpt>
      <trkpt lat="49.29272" lon="1.00364">
        <ele>5.8</ele>
        <time>2019-11-11T08:44:12Z</time>
      </trkpt>
      <trkpt lat="49.29271" lon="1.00367">
        <ele>5.8</ele>
        <time>2019-11-11T08:44:13Z</time>
      </trkpt>
      <trkpt lat="49.2927" lon="1.0037">
        <ele>5.8</ele>
        <time>2019-11-11T08:44:14Z</time>
      </trkpt>
      <trkpt lat="49.29269" lon="1.00372">
        <ele>5.8</ele>
        <time>2019-11-11T08:44:15Z</time>
      </trkpt>
      <trkpt lat="49.29269" lon="1.00374">
        <ele>5.8</ele>
        <time>2019-11-11T08:44:16Z</time>
      </trkpt>
      <trkpt lat="49.29269" lon="1.00376">
        <ele>5.8</ele>
        <time>2019-11-11T08:44:17Z</time>
      </trkpt>
      <trkpt lat="49.29268" lon="1.00378">
        <ele>5.8</ele>
        <time>2019-11-11T08:44:18Z</time>
      </trkpt>
      <trkpt lat="49.29268" lon="1.00379">
        <ele>5.8</ele>
        <time>2019-11-11T08:44:19Z</time>
      </trkpt>
      <trkpt lat="49.29268" lon="1.0038">
        <ele>5.8</ele>
        <time>2019-11-11T08:44:20Z</time>
      </trkpt>
      <trkpt lat="49.29268" lon="1.00381">
        <ele>5.8</ele>
        <time>2019-11-11T08:44:21Z</time>
      </trkpt>
      <trkpt lat="49.29268" lon="1.00383">
        <ele>5.8</ele>
        <time>2019-11-11T08:44:22Z</time>
      </trkpt>
      <trkpt lat="49.29268" lon="1.00384">
        <ele>5.8</ele>
        <time>2019-11-11T08:44:23Z</time>
      </trkpt>
      <trkpt lat="49.29268" lon="1.00385">
        <ele>5.8</ele>
        <time>2019-11-11T08:44:24Z</time>
      </trkpt>
      <trkpt lat="49.29268" lon="1.00386">
        <ele>5.8</ele>
        <time>2019-11-11T08:44:25Z</time>
      </trkpt>
      <trkpt lat="49.29268" lon="1.00387">
        <ele>5.8</ele>
        <time>2019-11-11T08:44:26Z</time>
      </trkpt>
      <trkpt lat="49.29269" lon="1.00388">
        <ele>5.8</ele>
        <time>2019-11-11T08:44:27Z</time>
      </trkpt>
      <trkpt lat="49.29269" lon="1.0039">
        <ele>5.8</ele>
        <time>2019-11-11T08:44:28Z</time>
      </trkpt>
      <trkpt lat="49.29269" lon="1.00392">
        <ele>5.8</ele>
        <time>2019-11-11T08:44:29Z</time>
      </trkpt>
      <trkpt lat="49.2927" lon="1.00394">
        <ele>5.8</ele>
        <time>2019-11-11T08:44:30Z</time>
      </trkpt>
      <trkpt lat="49.29272" lon="1.00396">
        <ele>5.8</ele>
        <time>2019-11-11T08:44:31Z</time>
      </trkpt>
      <trkpt lat="49.29275" lon="1.00398">
        <ele>5.8</ele>
        <time>2019-11-11T08:44:32Z</time>
      </trkpt>
      <trkpt lat="49.29279" lon="1.004">
        <ele>5.8</ele>
        <time>2019-11-11T08:44:33Z</time>
      </trkpt>
      <trkpt lat="49.29283" lon="1.00403">
        <ele>5.8</ele>
        <time>2019-11-11T08:44:34Z</time>
      </trkpt>
      <trkpt lat="49.29287" lon="1.00406">
        <ele>5.8</ele>
        <time>2019-11-11T08:44:35Z</time>
      </trkpt>
      <trkpt lat="49.29291" lon="1.00409">
        <ele>5.8</ele>
        <time>2019-11-11T08:44:36Z</time>
      </trkpt>
      <trkpt lat="49.29295" lon="1.00413">
        <ele>5.8</ele>
        <time>2019-11-11T08:44:37Z</time>
      </trkpt>
      <trkpt lat="49.29299" lon="1.00416">
        <ele>5.8</ele>
        <time>2019-11-11T08:44:38Z</time>
      </trkpt>
      <trkpt lat="49.29303" lon="1.0042">
        <ele>5.8</ele>
        <time>2019-11-11T08:44:39Z</time>
      </trkpt>
      <trkpt lat="49.29308" lon="1.00423">
        <ele>5.8</ele>
        <time>2019-11-11T08:44:40Z</time>
      </trkpt>
      <trkpt lat="49.29313" lon="1.00427">
        <ele>5.8</ele>
        <time>2019-11-11T08:44:41Z</time>
      </trkpt>
      <trkpt lat="49.29317" lon="1.00431">
        <ele>5.8</ele>
        <time>2019-11-11T08:44:42Z</time>
      </trkpt>
      <trkpt lat="49.29321" lon="1.00436">
        <ele>5.8</ele>
        <time>2019-11-11T08:44:43Z</time>
      </trkpt>
      <trkpt lat="49.29323" lon="1.00442">
        <ele>5.8</ele>
        <time>2019-11-11T08:44:44Z</time>
      </trkpt>
      <trkpt lat="49.29323" lon="1.00449">
        <ele>5.8</ele>
        <time>2019-11-11T08:44:45Z</time>
      </trkpt>
      <trkpt lat="49.29322" lon="1.00456">
        <ele>5.8</ele>
        <time>2019-11-11T08:44:46Z</time>
      </trkpt>
      <trkpt lat="49.29321" lon="1.00463">
        <ele>5.8</ele>
        <time>2019-11-11T08:44:47Z</time>
      </trkpt>
      <trkpt lat="49.29319" lon="1.0047">
        <ele>5.8</ele>
        <time>2019-11-11T08:44:48Z</time>
      </trkpt>
      <trkpt lat="49.29317" lon="1.00477">
        <ele>5.8</ele>
        <time>2019-11-11T08:44:49Z</time>
      </trkpt>
      <trkpt lat="49.29315" lon="1.00484">
        <ele>5.8</ele>
        <time>2019-11-11T08:44:50Z</time>
      </trkpt>
      <trkpt lat="49.29313" lon="1.00492">
        <ele>6.7</ele>
        <time>2019-11-11T08:44:51Z</time>
      </trkpt>
      <trkpt lat="49.29311" lon="1.00499">
        <ele>6.7</ele>
        <time>2019-11-11T08:44:52Z</time>
      </trkpt>
      <trkpt lat="49.29309" lon="1.00506">
        <ele>6.7</ele>
        <time>2019-11-11T08:44:53Z</time>
      </trkpt>
      <trkpt lat="49.29306" lon="1.00513">
        <ele>6.7</ele>
        <time>2019-11-11T08:44:54Z</time>
      </trkpt>
      <trkpt lat="49.29304" lon="1.00521">
        <ele>6.7</ele>
        <time>2019-11-11T08:44:55Z</time>
      </trkpt>
      <trkpt lat="49.29302" lon="1.00528">
        <ele>6.7</ele>
        <time>2019-11-11T08:44:56Z</time>
      </trkpt>
      <trkpt lat="49.29301" lon="1.00536">
        <ele>6.7</ele>
        <time>2019-11-11T08:44:57Z</time>
      </trkpt>
      <trkpt lat="49.293" lon="1.00543">
        <ele>6.7</ele>
        <time>2019-11-11T08:44:58Z</time>
      </trkpt>
      <trkpt lat="49.29299" lon="1.00551">
        <ele>6.7</ele>
        <time>2019-11-11T08:44:59Z</time>
      </trkpt>
      <trkpt lat="49.29298" lon="1.00559">
        <ele>6.7</ele>
        <time>2019-11-11T08:45:00Z</time>
      </trkpt>
      <trkpt lat="49.29297" lon="1.00567">
        <ele>6.7</ele>
        <time>2019-11-11T08:45:01Z</time>
      </trkpt>
      <trkpt lat="49.29296" lon="1.00575">
        <ele>6.7</ele>
        <time>2019-11-11T08:45:02Z</time>
      </trkpt>
      <trkpt lat="49.29295" lon="1.00584">
        <ele>6.7</ele>
        <time>2019-11-11T08:45:03Z</time>
      </trkpt>
      <trkpt lat="49.29293" lon="1.00592">
        <ele>6.7</ele>
        <time>2019-11-11T08:45:04Z</time>
      </trkpt>
      <trkpt lat="49.29291" lon="1.006">
        <ele>6.7</ele>
        <time>2019-11-11T08:45:05Z</time>
      </trkpt>
      <trkpt lat="49.2929" lon="1.00609">
        <ele>6.7</ele>
        <time>2019-11-11T08:45:06Z</time>
      </trkpt>
      <trkpt lat="49.29288" lon="1.00617">
        <ele>6.7</ele>
        <time>2019-11-11T08:45:07Z</time>
      </trkpt>
      <trkpt lat="49.29286" lon="1.00625">
        <ele>6.7</ele>
        <time>2019-11-11T08:45:08Z</time>
      </trkpt>
      <trkpt lat="49.29285" lon="1.00633">
        <ele>6.7</ele>
        <time>2019-11-11T08:45:09Z</time>
      </trkpt>
      <trkpt lat="49.29283" lon="1.00641">
        <ele>6.7</ele>
        <time>2019-11-11T08:45:10Z</time>
      </trkpt>
      <trkpt lat="49.29281" lon="1.00649">
        <ele>6.7</ele>
        <time>2019-11-11T08:45:11Z</time>
      </trkpt>
      <trkpt lat="49.2928" lon="1.00657">
        <ele>6.7</ele>
        <time>2019-11-11T08:45:12Z</time>
      </trkpt>
      <trkpt lat="49.29279" lon="1.00665">
        <ele>6.7</ele>
        <time>2019-11-11T08:45:13Z</time>
      </trkpt>
      <trkpt lat="49.29277" lon="1.00674">
        <ele>6.7</ele>
        <time>2019-11-11T08:45:14Z</time>
      </trkpt>
      <trkpt lat="49.29276" lon="1.00682">
        <ele>6.7</ele>
        <time>2019-11-11T08:45:15Z</time>
      </trkpt>
      <trkpt lat="49.29275" lon="1.0069">
        <ele>6.7</ele>
        <time>2019-11-11T08:45:16Z</time>
      </trkpt>
      <trkpt lat="49.29273" lon="1.00699">
        <ele>6.7</ele>
        <time>2019-11-11T08:45:17Z</time>
      </trkpt>
      <trkpt lat="49.29272" lon="1.00707">
        <ele>6.7</ele>
        <time>2019-11-11T08:45:18Z</time>
      </trkpt>
      <trkpt lat="49.29271" lon="1.00715">
        <ele>6.7</ele>
        <time>2019-11-11T08:45:19Z</time>
      </trkpt>
      <trkpt lat="49.2927" lon="1.00724">
        <ele>6.7</ele>
        <time>2019-11-11T08:45:20Z</time>
      </trkpt>
      <trkpt lat="49.29269" lon="1.00732">
        <ele>6.7</ele>
        <time>2019-11-11T08:45:21Z</time>
      </trkpt>
      <trkpt lat="49.29268" lon="1.0074">
        <ele>6.7</ele>
        <time>2019-11-11T08:45:22Z</time>
      </trkpt>
      <trkpt lat="49.29268" lon="1.00749">
        <ele>6.7</ele>
        <time>2019-11-11T08:45:23Z</time>
      </trkpt>
      <trkpt lat="49.29267" lon="1.00757">
        <ele>6.7</ele>
        <time>2019-11-11T08:45:24Z</time>
      </trkpt>
      <trkpt lat="49.29266" lon="1.00766">
        <ele>6.7</ele>
        <time>2019-11-11T08:45:25Z</time>
      </trkpt>
      <trkpt lat="49.29265" lon="1.00774">
        <ele>6.7</ele>
        <time>2019-11-11T08:45:26Z</time>
      </trkpt>
      <trkpt lat="49.29264" lon="1.00782">
        <ele>6.7</ele>
        <time>2019-11-11T08:45:27Z</time>
      </trkpt>
      <trkpt lat="49.29263" lon="1.00791">
        <ele>6.7</ele>
        <time>2019-11-11T08:45:28Z</time>
      </trkpt>
      <trkpt lat="49.29262" lon="1.00799">
        <ele>6.7</ele>
        <time>2019-11-11T08:45:29Z</time>
      </trkpt>
      <trkpt lat="49.29262" lon="1.00807">
        <ele>6.7</ele>
        <time>2019-11-11T08:45:30Z</time>
      </trkpt>
      <trkpt lat="49.29261" lon="1.00815">
        <ele>7.8</ele>
        <time>2019-11-11T08:45:31Z</time>
      </trkpt>
      <trkpt lat="49.2926" lon="1.00823">
        <ele>7.8</ele>
        <time>2019-11-11T08:45:32Z</time>
      </trkpt>
      <trkpt lat="49.29258" lon="1.0083">
        <ele>7.8</ele>
        <time>2019-11-11T08:45:33Z</time>
      </trkpt>
      <trkpt lat="49.29257" lon="1.00836">
        <ele>7.8</ele>
        <time>2019-11-11T08:45:34Z</time>
      </trkpt>
      <trkpt lat="49.29255" lon="1.00841">
        <ele>6.7</ele>
        <time>2019-11-11T08:45:35Z</time>
      </trkpt>
      <trkpt lat="49.29252" lon="1.00847">
        <ele>6.7</ele>
        <time>2019-11-11T08:45:36Z</time>
      </trkpt>
      <trkpt lat="49.29251" lon="1.00854">
        <ele>6.7</ele>
        <time>2019-11-11T08:45:37Z</time>
      </trkpt>
      <trkpt lat="49.29249" lon="1.0086">
        <ele>6.7</ele>
        <time>2019-11-11T08:45:38Z</time>
      </trkpt>
      <trkpt lat="49.29247" lon="1.00867">
        <ele>6.7</ele>
        <time>2019-11-11T08:45:39Z</time>
      </trkpt>
      <trkpt lat="49.29246" lon="1.00874">
        <ele>6.7</ele>
        <time>2019-11-11T08:45:40Z</time>
      </trkpt>
      <trkpt lat="49.29244" lon="1.0088">
        <ele>6.7</ele>
        <time>2019-11-11T08:45:41Z</time>
      </trkpt>
      <trkpt lat="49.29244" lon="1.00887">
        <ele>6.7</ele>
        <time>2019-11-11T08:45:42Z</time>
      </trkpt>
      <trkpt lat="49.29245" lon="1.00893">
        <ele>6.7</ele>
        <time>2019-11-11T08:45:43Z</time>
      </trkpt>
      <trkpt lat="49.29247" lon="1.00899">
        <ele>6.7</ele>
        <time>2019-11-11T08:45:44Z</time>
      </trkpt>
      <trkpt lat="49.2925" lon="1.00905">
        <ele>5.8</ele>
        <time>2019-11-11T08:45:45Z</time>
      </trkpt>
      <trkpt lat="49.29252" lon="1.00912">
        <ele>5.8</ele>
        <time>2019-11-11T08:45:46Z</time>
      </trkpt>
      <trkpt lat="49.29254" lon="1.00918">
        <ele>5.8</ele>
        <time>2019-11-11T08:45:47Z</time>
      </trkpt>
      <trkpt lat="49.29256" lon="1.00924">
        <ele>5.8</ele>
        <time>2019-11-11T08:45:48Z</time>
      </trkpt>
      <trkpt lat="49.29258" lon="1.00928">
        <ele>5.8</ele>
        <time>2019-11-11T08:45:49Z</time>
      </trkpt>
      <trkpt lat="49.29261" lon="1.00931">
        <ele>5.8</ele>
        <time>2019-11-11T08:45:50Z</time>
      </trkpt>
      <trkpt lat="49.29265" lon="1.00932">
        <ele>5.8</ele>
        <time>2019-11-11T08:45:51Z</time>
      </trkpt>
      <trkpt lat="49.29268" lon="1.00933">
        <ele>5.8</ele>
        <time>2019-11-11T08:45:52Z</time>
      </trkpt>
      <trkpt lat="49.29273" lon="1.00935">
        <ele>5.8</ele>
        <time>2019-11-11T08:45:53Z</time>
      </trkpt>
      <trkpt lat="49.29276" lon="1.00937">
        <ele>5.8</ele>
        <time>2019-11-11T08:45:54Z</time>
      </trkpt>
      <trkpt lat="49.29276" lon="1.00944">
        <ele>5.8</ele>
        <time>2019-11-11T08:45:55Z</time>
      </trkpt>
      <trkpt lat="49.29275" lon="1.00951">
        <ele>5.8</ele>
        <time>2019-11-11T08:45:56Z</time>
      </trkpt>
      <trkpt lat="49.29274" lon="1.00958">
        <ele>5.8</ele>
        <time>2019-11-11T08:45:57Z</time>
      </trkpt>
      <trkpt lat="49.29273" lon="1.00966">
        <ele>5.8</ele>
        <time>2019-11-11T08:45:58Z</time>
      </trkpt>
      <trkpt lat="49.29272" lon="1.00973">
        <ele>5.8</ele>
        <time>2019-11-11T08:45:59Z</time>
      </trkpt>
      <trkpt lat="49.29271" lon="1.0098">
        <ele>5.8</ele>
        <time>2019-11-11T08:46:00Z</time>
      </trkpt>
      <trkpt lat="49.2927" lon="1.00987">
        <ele>5.8</ele>
        <time>2019-11-11T08:46:01Z</time>
      </trkpt>
      <trkpt lat="49.29269" lon="1.00994">
        <ele>5.8</ele>
        <time>2019-11-11T08:46:02Z</time>
      </trkpt>
      <trkpt lat="49.29268" lon="1.01001">
        <ele>5.8</ele>
        <time>2019-11-11T08:46:03Z</time>
      </trkpt>
      <trkpt lat="49.29268" lon="1.01006">
        <ele>5.8</ele>
        <time>2019-11-11T08:46:04Z</time>
      </trkpt>
      <trkpt lat="49.29267" lon="1.01011">
        <ele>5.8</ele>
        <time>2019-11-11T08:46:05Z</time>
      </trkpt>
      <trkpt lat="49.29265" lon="1.01017">
        <ele>5.8</ele>
        <time>2019-11-11T08:46:06Z</time>
      </trkpt>
      <trkpt lat="49.29265" lon="1.01022">
        <ele>5.8</ele>
        <time>2019-11-11T08:46:07Z</time>
      </trkpt>
      <trkpt lat="49.29265" lon="1.01026">
        <ele>5.8</ele>
        <time>2019-11-11T08:46:08Z</time>
      </trkpt>
      <trkpt lat="49.29265" lon="1.01029">
        <ele>5.8</ele>
        <time>2019-11-11T08:46:09Z</time>
      </trkpt>
      <trkpt lat="49.29265" lon="1.01033">
        <ele>5.8</ele>
        <time>2019-11-11T08:46:10Z</time>
      </trkpt>
      <trkpt lat="49.29265" lon="1.01037">
        <ele>5.8</ele>
        <time>2019-11-11T08:46:11Z</time>
      </trkpt>
      <trkpt lat="49.29264" lon="1.01043">
        <ele>5.8</ele>
        <time>2019-11-11T08:46:12Z</time>
      </trkpt>
      <trkpt lat="49.29264" lon="1.01051">
        <ele>5.8</ele>
        <time>2019-11-11T08:46:13Z</time>
      </trkpt>
      <trkpt lat="49.29263" lon="1.01058">
        <ele>5.8</ele>
        <time>2019-11-11T08:46:14Z</time>
      </trkpt>
      <trkpt lat="49.29263" lon="1.01066">
        <ele>5.8</ele>
        <time>2019-11-11T08:46:15Z</time>
      </trkpt>
      <trkpt lat="49.29263" lon="1.01074">
        <ele>5.8</ele>
        <time>2019-11-11T08:46:16Z</time>
      </trkpt>
      <trkpt lat="49.29262" lon="1.01082">
        <ele>5.8</ele>
        <time>2019-11-11T08:46:17Z</time>
      </trkpt>
      <trkpt lat="49.29262" lon="1.01089">
        <ele>5.8</ele>
        <time>2019-11-11T08:46:18Z</time>
      </trkpt>
      <trkpt lat="49.29261" lon="1.01097">
        <ele>5.8</ele>
        <time>2019-11-11T08:46:19Z</time>
      </trkpt>
      <trkpt lat="49.29261" lon="1.01104">
        <ele>5.8</ele>
        <time>2019-11-11T08:46:20Z</time>
      </trkpt>
      <trkpt lat="49.29261" lon="1.01112">
        <ele>5.8</ele>
        <time>2019-11-11T08:46:21Z</time>
      </trkpt>
      <trkpt lat="49.2926" lon="1.01119">
        <ele>5.8</ele>
        <time>2019-11-11T08:46:22Z</time>
      </trkpt>
      <trkpt lat="49.2926" lon="1.01127">
        <ele>5.8</ele>
        <time>2019-11-11T08:46:23Z</time>
      </trkpt>
      <trkpt lat="49.29259" lon="1.01134">
        <ele>5.8</ele>
        <time>2019-11-11T08:46:24Z</time>
      </trkpt>
      <trkpt lat="49.29259" lon="1.01141">
        <ele>5.8</ele>
        <time>2019-11-11T08:46:25Z</time>
      </trkpt>
      <trkpt lat="49.29259" lon="1.01148">
        <ele>5.8</ele>
        <time>2019-11-11T08:46:26Z</time>
      </trkpt>
      <trkpt lat="49.29258" lon="1.01155">
        <ele>5.8</ele>
        <time>2019-11-11T08:46:27Z</time>
      </trkpt>
      <trkpt lat="49.29258" lon="1.01163">
        <ele>5.8</ele>
        <time>2019-11-11T08:46:28Z</time>
      </trkpt>
      <trkpt lat="49.29258" lon="1.0117">
        <ele>5.8</ele>
        <time>2019-11-11T08:46:29Z</time>
      </trkpt>
      <trkpt lat="49.29258" lon="1.01177">
        <ele>5.8</ele>
        <time>2019-11-11T08:46:30Z</time>
      </trkpt>
      <trkpt lat="49.29257" lon="1.01184">
        <ele>5.8</ele>
        <time>2019-11-11T08:46:31Z</time>
      </trkpt>
      <trkpt lat="49.29257" lon="1.01192">
        <ele>5.8</ele>
        <time>2019-11-11T08:46:32Z</time>
      </trkpt>
      <trkpt lat="49.29257" lon="1.01199">
        <ele>5.8</ele>
        <time>2019-11-11T08:46:33Z</time>
      </trkpt>
      <trkpt lat="49.29256" lon="1.01206">
        <ele>5.8</ele>
        <time>2019-11-11T08:46:34Z</time>
      </trkpt>
      <trkpt lat="49.29256" lon="1.01214">
        <ele>5.8</ele>
        <time>2019-11-11T08:46:35Z</time>
      </trkpt>
      <trkpt lat="49.29256" lon="1.01221">
        <ele>5.8</ele>
        <time>2019-11-11T08:46:36Z</time>
      </trkpt>
      <trkpt lat="49.29255" lon="1.01229">
        <ele>5.8</ele>
        <time>2019-11-11T08:46:37Z</time>
      </trkpt>
      <trkpt lat="49.29255" lon="1.01236">
        <ele>5.8</ele>
        <time>2019-11-11T08:46:38Z</time>
      </trkpt>
      <trkpt lat="49.29255" lon="1.01244">
        <ele>5.8</ele>
        <time>2019-11-11T08:46:39Z</time>
      </trkpt>
      <trkpt lat="49.29255" lon="1.0125">
        <ele>5.8</ele>
        <time>2019-11-11T08:46:40Z</time>
      </trkpt>
      <trkpt lat="49.29255" lon="1.01257">
        <ele>5.8</ele>
        <time>2019-11-11T08:46:41Z</time>
      </trkpt>
      <trkpt lat="49.29254" lon="1.01263">
        <ele>5.8</ele>
        <time>2019-11-11T08:46:42Z</time>
      </trkpt>
      <trkpt lat="49.29252" lon="1.01268">
        <ele>5.8</ele>
        <time>2019-11-11T08:46:43Z</time>
      </trkpt>
      <trkpt lat="49.2925" lon="1.01272">
        <ele>5.8</ele>
        <time>2019-11-11T08:46:44Z</time>
      </trkpt>
      <trkpt lat="49.29249" lon="1.01277">
        <ele>4.7</ele>
        <time>2019-11-11T08:46:45Z</time>
      </trkpt>
      <trkpt lat="49.29249" lon="1.01283">
        <ele>4.7</ele>
        <time>2019-11-11T08:46:46Z</time>
      </trkpt>
      <trkpt lat="49.29249" lon="1.0129">
        <ele>5.8</ele>
        <time>2019-11-11T08:46:47Z</time>
      </trkpt>
      <trkpt lat="49.29249" lon="1.01297">
        <ele>5.8</ele>
        <time>2019-11-11T08:46:48Z</time>
      </trkpt>
      <trkpt lat="49.29249" lon="1.01303">
        <ele>5.8</ele>
        <time>2019-11-11T08:46:49Z</time>
      </trkpt>
      <trkpt lat="49.29249" lon="1.0131">
        <ele>5.8</ele>
        <time>2019-11-11T08:46:50Z</time>
      </trkpt>
      <trkpt lat="49.29249" lon="1.01316">
        <ele>5.8</ele>
        <time>2019-11-11T08:46:51Z</time>
      </trkpt>
      <trkpt lat="49.29249" lon="1.01321">
        <ele>5.8</ele>
        <time>2019-11-11T08:46:52Z</time>
      </trkpt>
      <trkpt lat="49.29249" lon="1.01327">
        <ele>5.8</ele>
        <time>2019-11-11T08:46:53Z</time>
      </trkpt>
      <trkpt lat="49.29249" lon="1.01332">
        <ele>5.8</ele>
        <time>2019-11-11T08:46:54Z</time>
      </trkpt>
      <trkpt lat="49.29249" lon="1.01335">
        <ele>5.8</ele>
        <time>2019-11-11T08:46:55Z</time>
      </trkpt>
      <trkpt lat="49.2925" lon="1.01339">
        <ele>5.8</ele>
        <time>2019-11-11T08:46:56Z</time>
      </trkpt>
      <trkpt lat="49.2925" lon="1.01343">
        <ele>5.8</ele>
        <time>2019-11-11T08:46:57Z</time>
      </trkpt>
      <trkpt lat="49.2925" lon="1.01347">
        <ele>5.8</ele>
        <time>2019-11-11T08:46:58Z</time>
      </trkpt>
      <trkpt lat="49.2925" lon="1.01353">
        <ele>5.8</ele>
        <time>2019-11-11T08:46:59Z</time>
      </trkpt>
      <trkpt lat="49.2925" lon="1.01358">
        <ele>5.8</ele>
        <time>2019-11-11T08:47:00Z</time>
      </trkpt>
      <trkpt lat="49.29249" lon="1.01363">
        <ele>5.8</ele>
        <time>2019-11-11T08:47:01Z</time>
      </trkpt>
      <trkpt lat="49.29249" lon="1.01367">
        <ele>5.8</ele>
        <time>2019-11-11T08:47:02Z</time>
      </trkpt>
      <trkpt lat="49.29249" lon="1.01373">
        <ele>5.8</ele>
        <time>2019-11-11T08:47:03Z</time>
      </trkpt>
      <trkpt lat="49.29249" lon="1.01379">
        <ele>5.8</ele>
        <time>2019-11-11T08:47:04Z</time>
      </trkpt>
      <trkpt lat="49.29249" lon="1.01387">
        <ele>5.8</ele>
        <time>2019-11-11T08:47:05Z</time>
      </trkpt>
      <trkpt lat="49.2925" lon="1.01394">
        <ele>5.8</ele>
        <time>2019-11-11T08:47:06Z</time>
      </trkpt>
      <trkpt lat="49.29249" lon="1.01402">
        <ele>5.8</ele>
        <time>2019-11-11T08:47:07Z</time>
      </trkpt>
      <trkpt lat="49.29249" lon="1.0141">
        <ele>5.8</ele>
        <time>2019-11-11T08:47:08Z</time>
      </trkpt>
      <trkpt lat="49.29249" lon="1.01417">
        <ele>5.8</ele>
        <time>2019-11-11T08:47:09Z</time>
      </trkpt>
      <trkpt lat="49.29249" lon="1.01425">
        <ele>5.8</ele>
        <time>2019-11-11T08:47:10Z</time>
      </trkpt>
      <trkpt lat="49.29249" lon="1.01433">
        <ele>5.8</ele>
        <time>2019-11-11T08:47:11Z</time>
      </trkpt>
      <trkpt lat="49.29249" lon="1.01441">
        <ele>5.8</ele>
        <time>2019-11-11T08:47:12Z</time>
      </trkpt>
      <trkpt lat="49.29249" lon="1.01449">
        <ele>5.8</ele>
        <time>2019-11-11T08:47:13Z</time>
      </trkpt>
      <trkpt lat="49.29249" lon="1.01457">
        <ele>5.8</ele>
        <time>2019-11-11T08:47:14Z</time>
      </trkpt>
      <trkpt lat="49.29249" lon="1.01465">
        <ele>5.8</ele>
        <time>2019-11-11T08:47:15Z</time>
      </trkpt>
      <trkpt lat="49.29249" lon="1.01473">
        <ele>5.8</ele>
        <time>2019-11-11T08:47:16Z</time>
      </trkpt>
      <trkpt lat="49.29249" lon="1.01482">
        <ele>5.8</ele>
        <time>2019-11-11T08:47:17Z</time>
      </trkpt>
      <trkpt lat="49.29249" lon="1.0149">
        <ele>5.8</ele>
        <time>2019-11-11T08:47:18Z</time>
      </trkpt>
      <trkpt lat="49.29249" lon="1.01498">
        <ele>5.8</ele>
        <time>2019-11-11T08:47:19Z</time>
      </trkpt>
      <trkpt lat="49.29249" lon="1.01506">
        <ele>5.8</ele>
        <time>2019-11-11T08:47:20Z</time>
      </trkpt>
      <trkpt lat="49.29249" lon="1.01513">
        <ele>5.8</ele>
        <time>2019-11-11T08:47:21Z</time>
      </trkpt>
      <trkpt lat="49.29249" lon="1.01521">
        <ele>5.8</ele>
        <time>2019-11-11T08:47:22Z</time>
      </trkpt>
      <trkpt lat="49.29249" lon="1.0153">
        <ele>5.8</ele>
        <time>2019-11-11T08:47:23Z</time>
      </trkpt>
      <trkpt lat="49.29249" lon="1.01538">
        <ele>5.8</ele>
        <time>2019-11-11T08:47:24Z</time>
      </trkpt>
      <trkpt lat="49.29249" lon="1.01546">
        <ele>5.8</ele>
        <time>2019-11-11T08:47:25Z</time>
      </trkpt>
      <trkpt lat="49.29249" lon="1.01554">
        <ele>5.8</ele>
        <time>2019-11-11T08:47:26Z</time>
      </trkpt>
      <trkpt lat="49.29248" lon="1.01562">
        <ele>5.8</ele>
        <time>2019-11-11T08:47:27Z</time>
      </trkpt>
      <trkpt lat="49.29248" lon="1.0157">
        <ele>5.8</ele>
        <time>2019-11-11T08:47:28Z</time>
      </trkpt>
      <trkpt lat="49.29248" lon="1.01578">
        <ele>5.8</ele>
        <time>2019-11-11T08:47:29Z</time>
      </trkpt>
      <trkpt lat="49.29247" lon="1.01586">
        <ele>5.8</ele>
        <time>2019-11-11T08:47:30Z</time>
      </trkpt>
      <trkpt lat="49.29247" lon="1.01594">
        <ele>5.8</ele>
        <time>2019-11-11T08:47:31Z</time>
      </trkpt>
      <trkpt lat="49.29247" lon="1.01602">
        <ele>5.8</ele>
        <time>2019-11-11T08:47:32Z</time>
      </trkpt>
      <trkpt lat="49.29247" lon="1.0161">
        <ele>5.8</ele>
        <time>2019-11-11T08:47:33Z</time>
      </trkpt>
      <trkpt lat="49.29246" lon="1.01618">
        <ele>5.8</ele>
        <time>2019-11-11T08:47:34Z</time>
      </trkpt>
      <trkpt lat="49.29246" lon="1.01626">
        <ele>5.8</ele>
        <time>2019-11-11T08:47:35Z</time>
      </trkpt>
      <trkpt lat="49.29246" lon="1.01635">
        <ele>5.8</ele>
        <time>2019-11-11T08:47:36Z</time>
      </trkpt>
      <trkpt lat="49.29245" lon="1.01643">
        <ele>5.8</ele>
        <time>2019-11-11T08:47:37Z</time>
      </trkpt>
      <trkpt lat="49.29245" lon="1.01651">
        <ele>5.8</ele>
        <time>2019-11-11T08:47:38Z</time>
      </trkpt>
      <trkpt lat="49.29245" lon="1.01659">
        <ele>5.8</ele>
        <time>2019-11-11T08:47:39Z</time>
      </trkpt>
      <trkpt lat="49.29244" lon="1.01667">
        <ele>5.8</ele>
        <time>2019-11-11T08:47:40Z</time>
      </trkpt>
      <trkpt lat="49.29244" lon="1.01676">
        <ele>5.8</ele>
        <time>2019-11-11T08:47:41Z</time>
      </trkpt>
      <trkpt lat="49.29244" lon="1.01684">
        <ele>5.8</ele>
        <time>2019-11-11T08:47:42Z</time>
      </trkpt>
      <trkpt lat="49.29243" lon="1.01693">
        <ele>5.8</ele>
        <time>2019-11-11T08:47:43Z</time>
      </trkpt>
      <trkpt lat="49.29243" lon="1.01701">
        <ele>5.8</ele>
        <time>2019-11-11T08:47:44Z</time>
      </trkpt>
      <trkpt lat="49.29243" lon="1.0171">
        <ele>5.8</ele>
        <time>2019-11-11T08:47:45Z</time>
      </trkpt>
      <trkpt lat="49.29242" lon="1.01718">
        <ele>5.8</ele>
        <time>2019-11-11T08:47:46Z</time>
      </trkpt>
      <trkpt lat="49.29242" lon="1.01727">
        <ele>5.8</ele>
        <time>2019-11-11T08:47:47Z</time>
      </trkpt>
      <trkpt lat="49.29242" lon="1.01736">
        <ele>5.8</ele>
        <time>2019-11-11T08:47:48Z</time>
      </trkpt>
      <trkpt lat="49.29242" lon="1.01744">
        <ele>5.8</ele>
        <time>2019-11-11T08:47:49Z</time>
      </trkpt>
      <trkpt lat="49.29241" lon="1.01752">
        <ele>5.8</ele>
        <time>2019-11-11T08:47:50Z</time>
      </trkpt>
      <trkpt lat="49.29241" lon="1.01761">
        <ele>5.8</ele>
        <time>2019-11-11T08:47:51Z</time>
      </trkpt>
      <trkpt lat="49.2924" lon="1.01769">
        <ele>5.8</ele>
        <time>2019-11-11T08:47:52Z</time>
      </trkpt>
      <trkpt lat="49.2924" lon="1.01778">
        <ele>5.8</ele>
        <time>2019-11-11T08:47:53Z</time>
      </trkpt>
      <trkpt lat="49.2924" lon="1.01786">
        <ele>5.8</ele>
        <time>2019-11-11T08:47:54Z</time>
      </trkpt>
      <trkpt lat="49.2924" lon="1.01794">
        <ele>5.8</ele>
        <time>2019-11-11T08:47:55Z</time>
      </trkpt>
      <trkpt lat="49.29239" lon="1.01803">
        <ele>5.8</ele>
        <time>2019-11-11T08:47:56Z</time>
      </trkpt>
      <trkpt lat="49.29239" lon="1.01811">
        <ele>5.8</ele>
        <time>2019-11-11T08:47:57Z</time>
      </trkpt>
      <trkpt lat="49.29239" lon="1.0182">
        <ele>5.8</ele>
        <time>2019-11-11T08:47:58Z</time>
      </trkpt>
      <trkpt lat="49.29238" lon="1.01828">
        <ele>5.8</ele>
        <time>2019-11-11T08:47:59Z</time>
      </trkpt>
      <trkpt lat="49.29238" lon="1.01836">
        <ele>5.8</ele>
        <time>2019-11-11T08:48:00Z</time>
      </trkpt>
      <trkpt lat="49.29237" lon="1.01845">
        <ele>5.8</ele>
        <time>2019-11-11T08:48:01Z</time>
      </trkpt>
      <trkpt lat="49.29237" lon="1.01853">
        <ele>5.8</ele>
        <time>2019-11-11T08:48:02Z</time>
      </trkpt>
      <trkpt lat="49.29237" lon="1.01861">
        <ele>5.8</ele>
        <time>2019-11-11T08:48:03Z</time>
      </trkpt>
      <trkpt lat="49.29236" lon="1.01869">
        <ele>5.8</ele>
        <time>2019-11-11T08:48:04Z</time>
      </trkpt>
      <trkpt lat="49.29236" lon="1.01877">
        <ele>5.8</ele>
        <time>2019-11-11T08:48:05Z</time>
      </trkpt>
      <trkpt lat="49.29236" lon="1.01886">
        <ele>5.8</ele>
        <time>2019-11-11T08:48:06Z</time>
      </trkpt>
      <trkpt lat="49.29236" lon="1.01894">
        <ele>5.8</ele>
        <time>2019-11-11T08:48:07Z</time>
      </trkpt>
      <trkpt lat="49.29235" lon="1.01902">
        <ele>5.8</ele>
        <time>2019-11-11T08:48:08Z</time>
      </trkpt>
      <trkpt lat="49.29235" lon="1.0191">
        <ele>5.8</ele>
        <time>2019-11-11T08:48:09Z</time>
      </trkpt>
      <trkpt lat="49.29235" lon="1.01918">
        <ele>5.8</ele>
        <time>2019-11-11T08:48:10Z</time>
      </trkpt>
      <trkpt lat="49.29234" lon="1.01927">
        <ele>5.8</ele>
        <time>2019-11-11T08:48:11Z</time>
      </trkpt>
      <trkpt lat="49.29234" lon="1.01935">
        <ele>5.8</ele>
        <time>2019-11-11T08:48:12Z</time>
      </trkpt>
      <trkpt lat="49.29233" lon="1.01943">
        <ele>5.8</ele>
        <time>2019-11-11T08:48:13Z</time>
      </trkpt>
      <trkpt lat="49.29233" lon="1.01951">
        <ele>5.8</ele>
        <time>2019-11-11T08:48:14Z</time>
      </trkpt>
      <trkpt lat="49.29233" lon="1.01959">
        <ele>5.8</ele>
        <time>2019-11-11T08:48:15Z</time>
      </trkpt>
      <trkpt lat="49.29233" lon="1.01968">
        <ele>5.8</ele>
        <time>2019-11-11T08:48:16Z</time>
      </trkpt>
      <trkpt lat="49.29232" lon="1.01976">
        <ele>5.8</ele>
        <time>2019-11-11T08:48:17Z</time>
      </trkpt>
      <trkpt lat="49.29232" lon="1.01984">
        <ele>5.8</ele>
        <time>2019-11-11T08:48:18Z</time>
      </trkpt>
      <trkpt lat="49.29232" lon="1.01993">
        <ele>5.8</ele>
        <time>2019-11-11T08:48:19Z</time>
      </trkpt>
      <trkpt lat="49.29231" lon="1.02001">
        <ele>5.8</ele>
        <time>2019-11-11T08:48:20Z</time>
      </trkpt>
      <trkpt lat="49.29231" lon="1.0201">
        <ele>5.8</ele>
        <time>2019-11-11T08:48:21Z</time>
      </trkpt>
      <trkpt lat="49.29231" lon="1.02018">
        <ele>5.8</ele>
        <time>2019-11-11T08:48:22Z</time>
      </trkpt>
      <trkpt lat="49.2923" lon="1.02027">
        <ele>5.8</ele>
        <time>2019-11-11T08:48:23Z</time>
      </trkpt>
      <trkpt lat="49.2923" lon="1.02035">
        <ele>5.8</ele>
        <time>2019-11-11T08:48:24Z</time>
      </trkpt>
      <trkpt lat="49.2923" lon="1.02043">
        <ele>5.8</ele>
        <time>2019-11-11T08:48:25Z</time>
      </trkpt>
      <trkpt lat="49.29229" lon="1.02052">
        <ele>5.8</ele>
        <time>2019-11-11T08:48:26Z</time>
      </trkpt>
      <trkpt lat="49.29229" lon="1.0206">
        <ele>5.8</ele>
        <time>2019-11-11T08:48:27Z</time>
      </trkpt>
      <trkpt lat="49.29228" lon="1.02069">
        <ele>5.8</ele>
        <time>2019-11-11T08:48:28Z</time>
      </trkpt>
      <trkpt lat="49.29228" lon="1.02077">
        <ele>6.7</ele>
        <time>2019-11-11T08:48:29Z</time>
      </trkpt>
      <trkpt lat="49.29228" lon="1.02085">
        <ele>6.7</ele>
        <time>2019-11-11T08:48:30Z</time>
      </trkpt>
      <trkpt lat="49.29227" lon="1.02093">
        <ele>6.7</ele>
        <time>2019-11-11T08:48:31Z</time>
      </trkpt>
      <trkpt lat="49.29227" lon="1.02102">
        <ele>6.7</ele>
        <time>2019-11-11T08:48:32Z</time>
      </trkpt>
      <trkpt lat="49.29226" lon="1.0211">
        <ele>6.7</ele>
        <time>2019-11-11T08:48:33Z</time>
      </trkpt>
      <trkpt lat="49.29226" lon="1.02118">
        <ele>6.7</ele>
        <time>2019-11-11T08:48:34Z</time>
      </trkpt>
      <trkpt lat="49.29226" lon="1.02127">
        <ele>6.7</ele>
        <time>2019-11-11T08:48:35Z</time>
      </trkpt>
      <trkpt lat="49.29225" lon="1.02135">
        <ele>6.7</ele>
        <time>2019-11-11T08:48:36Z</time>
      </trkpt>
      <trkpt lat="49.29225" lon="1.02143">
        <ele>6.7</ele>
        <time>2019-11-11T08:48:37Z</time>
      </trkpt>
      <trkpt lat="49.29225" lon="1.02151">
        <ele>6.7</ele>
        <time>2019-11-11T08:48:38Z</time>
      </trkpt>
      <trkpt lat="49.29224" lon="1.02159">
        <ele>6.7</ele>
        <time>2019-11-11T08:48:39Z</time>
      </trkpt>
      <trkpt lat="49.29224" lon="1.02167">
        <ele>6.7</ele>
        <time>2019-11-11T08:48:40Z</time>
      </trkpt>
      <trkpt lat="49.29224" lon="1.02175">
        <ele>6.7</ele>
        <time>2019-11-11T08:48:41Z</time>
      </trkpt>
      <trkpt lat="49.29224" lon="1.02183">
        <ele>6.7</ele>
        <time>2019-11-11T08:48:42Z</time>
      </trkpt>
      <trkpt lat="49.29223" lon="1.02192">
        <ele>6.7</ele>
        <time>2019-11-11T08:48:43Z</time>
      </trkpt>
      <trkpt lat="49.29223" lon="1.022">
        <ele>6.7</ele>
        <time>2019-11-11T08:48:44Z</time>
      </trkpt>
      <trkpt lat="49.29223" lon="1.02208">
        <ele>6.7</ele>
        <time>2019-11-11T08:48:45Z</time>
      </trkpt>
      <trkpt lat="49.29222" lon="1.02217">
        <ele>6.7</ele>
        <time>2019-11-11T08:48:46Z</time>
      </trkpt>
      <trkpt lat="49.29222" lon="1.02225">
        <ele>6.7</ele>
        <time>2019-11-11T08:48:47Z</time>
      </trkpt>
      <trkpt lat="49.29222" lon="1.02233">
        <ele>6.7</ele>
        <time>2019-11-11T08:48:48Z</time>
      </trkpt>
      <trkpt lat="49.29222" lon="1.02241">
        <ele>6.7</ele>
        <time>2019-11-11T08:48:49Z</time>
      </trkpt>
      <trkpt lat="49.29222" lon="1.02248">
        <ele>6.7</ele>
        <time>2019-11-11T08:48:50Z</time>
      </trkpt>
      <trkpt lat="49.29222" lon="1.02257">
        <ele>5.8</ele>
        <time>2019-11-11T08:48:51Z</time>
      </trkpt>
      <trkpt lat="49.29222" lon="1.02265">
        <ele>5.8</ele>
        <time>2019-11-11T08:48:52Z</time>
      </trkpt>
      <trkpt lat="49.29221" lon="1.02273">
        <ele>5.8</ele>
        <time>2019-11-11T08:48:53Z</time>
      </trkpt>
      <trkpt lat="49.29221" lon="1.02281">
        <ele>5.8</ele>
        <time>2019-11-11T08:48:54Z</time>
      </trkpt>
      <trkpt lat="49.29221" lon="1.02289">
        <ele>5.8</ele>
        <time>2019-11-11T08:48:55Z</time>
      </trkpt>
      <trkpt lat="49.29221" lon="1.02297">
        <ele>5.8</ele>
        <time>2019-11-11T08:48:56Z</time>
      </trkpt>
      <trkpt lat="49.29221" lon="1.02305">
        <ele>5.8</ele>
        <time>2019-11-11T08:48:57Z</time>
      </trkpt>
      <trkpt lat="49.29221" lon="1.02313">
        <ele>5.8</ele>
        <time>2019-11-11T08:48:58Z</time>
      </trkpt>
      <trkpt lat="49.29221" lon="1.02321">
        <ele>5.8</ele>
        <time>2019-11-11T08:48:59Z</time>
      </trkpt>
      <trkpt lat="49.29221" lon="1.02329">
        <ele>5.8</ele>
        <time>2019-11-11T08:49:00Z</time>
      </trkpt>
      <trkpt lat="49.2922" lon="1.02337">
        <ele>5.8</ele>
        <time>2019-11-11T08:49:01Z</time>
      </trkpt>
      <trkpt lat="49.2922" lon="1.02345">
        <ele>5.8</ele>
        <time>2019-11-11T08:49:02Z</time>
      </trkpt>
      <trkpt lat="49.2922" lon="1.02353">
        <ele>5.8</ele>
        <time>2019-11-11T08:49:03Z</time>
      </trkpt>
      <trkpt lat="49.2922" lon="1.02361">
        <ele>5.8</ele>
        <time>2019-11-11T08:49:04Z</time>
      </trkpt>
      <trkpt lat="49.29221" lon="1.02369">
        <ele>5.8</ele>
        <time>2019-11-11T08:49:05Z</time>
      </trkpt>
      <trkpt lat="49.29221" lon="1.02377">
        <ele>5.8</ele>
        <time>2019-11-11T08:49:06Z</time>
      </trkpt>
      <trkpt lat="49.29221" lon="1.02386">
        <ele>5.8</ele>
        <time>2019-11-11T08:49:07Z</time>
      </trkpt>
      <trkpt lat="49.29222" lon="1.02394">
        <ele>5.8</ele>
        <time>2019-11-11T08:49:08Z</time>
      </trkpt>
      <trkpt lat="49.29224" lon="1.02402">
        <ele>5.8</ele>
        <time>2019-11-11T08:49:09Z</time>
      </trkpt>
      <trkpt lat="49.29225" lon="1.02411">
        <ele>5.8</ele>
        <time>2019-11-11T08:49:10Z</time>
      </trkpt>
      <trkpt lat="49.29226" lon="1.02419">
        <ele>5.8</ele>
        <time>2019-11-11T08:49:11Z</time>
      </trkpt>
      <trkpt lat="49.29227" lon="1.02428">
        <ele>5.8</ele>
        <time>2019-11-11T08:49:12Z</time>
      </trkpt>
      <trkpt lat="49.29228" lon="1.02437">
        <ele>5.8</ele>
        <time>2019-11-11T08:49:13Z</time>
      </trkpt>
      <trkpt lat="49.29228" lon="1.02446">
        <ele>5.8</ele>
        <time>2019-11-11T08:49:14Z</time>
      </trkpt>
      <trkpt lat="49.29228" lon="1.02455">
        <ele>4.7</ele>
        <time>2019-11-11T08:49:15Z</time>
      </trkpt>
      <trkpt lat="49.29229" lon="1.02464">
        <ele>4.7</ele>
        <time>2019-11-11T08:49:16Z</time>
      </trkpt>
      <trkpt lat="49.29228" lon="1.02472">
        <ele>4.7</ele>
        <time>2019-11-11T08:49:17Z</time>
      </trkpt>
      <trkpt lat="49.29228" lon="1.02481">
        <ele>4.7</ele>
        <time>2019-11-11T08:49:18Z</time>
      </trkpt>
      <trkpt lat="49.29228" lon="1.02489">
        <ele>5.8</ele>
        <time>2019-11-11T08:49:19Z</time>
      </trkpt>
      <trkpt lat="49.29229" lon="1.02496">
        <ele>5.8</ele>
        <time>2019-11-11T08:49:20Z</time>
      </trkpt>
      <trkpt lat="49.2923" lon="1.02504">
        <ele>5.8</ele>
        <time>2019-11-11T08:49:21Z</time>
      </trkpt>
      <trkpt lat="49.2923" lon="1.02512">
        <ele>5.8</ele>
        <time>2019-11-11T08:49:22Z</time>
      </trkpt>
      <trkpt lat="49.29232" lon="1.02521">
        <ele>5.8</ele>
        <time>2019-11-11T08:49:23Z</time>
      </trkpt>
      <trkpt lat="49.29233" lon="1.02529">
        <ele>5.8</ele>
        <time>2019-11-11T08:49:24Z</time>
      </trkpt>
      <trkpt lat="49.29235" lon="1.02538">
        <ele>5.8</ele>
        <time>2019-11-11T08:49:25Z</time>
      </trkpt>
      <trkpt lat="49.29236" lon="1.02547">
        <ele>5.8</ele>
        <time>2019-11-11T08:49:26Z</time>
      </trkpt>
      <trkpt lat="49.29236" lon="1.02556">
        <ele>5.8</ele>
        <time>2019-11-11T08:49:27Z</time>
      </trkpt>
      <trkpt lat="49.29236" lon="1.02565">
        <ele>5.8</ele>
        <time>2019-11-11T08:49:28Z</time>
      </trkpt>
      <trkpt lat="49.29236" lon="1.02574">
        <ele>5.8</ele>
        <time>2019-11-11T08:49:29Z</time>
      </trkpt>
      <trkpt lat="49.29236" lon="1.02583">
        <ele>5.8</ele>
        <time>2019-11-11T08:49:30Z</time>
      </trkpt>
      <trkpt lat="49.29236" lon="1.02592">
        <ele>5.8</ele>
        <time>2019-11-11T08:49:31Z</time>
      </trkpt>
      <trkpt lat="49.29236" lon="1.02601">
        <ele>5.8</ele>
        <time>2019-11-11T08:49:32Z</time>
      </trkpt>
      <trkpt lat="49.29235" lon="1.02609">
        <ele>5.8</ele>
        <time>2019-11-11T08:49:33Z</time>
      </trkpt>
      <trkpt lat="49.29235" lon="1.02618">
        <ele>5.8</ele>
        <time>2019-11-11T08:49:34Z</time>
      </trkpt>
      <trkpt lat="49.29235" lon="1.02627">
        <ele>5.8</ele>
        <time>2019-11-11T08:49:35Z</time>
      </trkpt>
      <trkpt lat="49.29236" lon="1.02635">
        <ele>5.8</ele>
        <time>2019-11-11T08:49:36Z</time>
      </trkpt>
      <trkpt lat="49.29238" lon="1.02644">
        <ele>5.8</ele>
        <time>2019-11-11T08:49:37Z</time>
      </trkpt>
      <trkpt lat="49.29239" lon="1.02652">
        <ele>5.8</ele>
        <time>2019-11-11T08:49:38Z</time>
      </trkpt>
      <trkpt lat="49.2924" lon="1.02661">
        <ele>5.8</ele>
        <time>2019-11-11T08:49:39Z</time>
      </trkpt>
      <trkpt lat="49.29241" lon="1.0267">
        <ele>5.8</ele>
        <time>2019-11-11T08:49:40Z</time>
      </trkpt>
      <trkpt lat="49.29242" lon="1.02679">
        <ele>5.8</ele>
        <time>2019-11-11T08:49:41Z</time>
      </trkpt>
      <trkpt lat="49.29244" lon="1.02687">
        <ele>5.8</ele>
        <time>2019-11-11T08:49:42Z</time>
      </trkpt>
      <trkpt lat="49.29246" lon="1.02695">
        <ele>5.8</ele>
        <time>2019-11-11T08:49:43Z</time>
      </trkpt>
      <trkpt lat="49.29247" lon="1.02704">
        <ele>5.8</ele>
        <time>2019-11-11T08:49:44Z</time>
      </trkpt>
      <trkpt lat="49.29247" lon="1.02712">
        <ele>5.8</ele>
        <time>2019-11-11T08:49:45Z</time>
      </trkpt>
      <trkpt lat="49.29247" lon="1.02721">
        <ele>5.8</ele>
        <time>2019-11-11T08:49:46Z</time>
      </trkpt>
      <trkpt lat="49.29247" lon="1.02729">
        <ele>5.8</ele>
        <time>2019-11-11T08:49:47Z</time>
      </trkpt>
      <trkpt lat="49.29246" lon="1.02738">
        <ele>5.8</ele>
        <time>2019-11-11T08:49:48Z</time>
      </trkpt>
      <trkpt lat="49.29246" lon="1.02746">
        <ele>5.8</ele>
        <time>2019-11-11T08:49:49Z</time>
      </trkpt>
      <trkpt lat="49.29245" lon="1.02755">
        <ele>5.8</ele>
        <time>2019-11-11T08:49:50Z</time>
      </trkpt>
      <trkpt lat="49.29245" lon="1.02764">
        <ele>5.8</ele>
        <time>2019-11-11T08:49:51Z</time>
      </trkpt>
      <trkpt lat="49.29245" lon="1.02772">
        <ele>5.8</ele>
        <time>2019-11-11T08:49:52Z</time>
      </trkpt>
      <trkpt lat="49.29245" lon="1.02781">
        <ele>5.8</ele>
        <time>2019-11-11T08:49:53Z</time>
      </trkpt>
      <trkpt lat="49.29246" lon="1.02789">
        <ele>5.8</ele>
        <time>2019-11-11T08:49:54Z</time>
      </trkpt>
      <trkpt lat="49.29248" lon="1.02796">
        <ele>5.8</ele>
        <time>2019-11-11T08:49:55Z</time>
      </trkpt>
      <trkpt lat="49.2925" lon="1.02804">
        <ele>5.8</ele>
        <time>2019-11-11T08:49:56Z</time>
      </trkpt>
      <trkpt lat="49.29252" lon="1.02811">
        <ele>5.8</ele>
        <time>2019-11-11T08:49:57Z</time>
      </trkpt>
      <trkpt lat="49.29255" lon="1.02818">
        <ele>5.8</ele>
        <time>2019-11-11T08:49:58Z</time>
      </trkpt>
      <trkpt lat="49.29258" lon="1.02826">
        <ele>6.7</ele>
        <time>2019-11-11T08:49:59Z</time>
      </trkpt>
      <trkpt lat="49.2926" lon="1.02834">
        <ele>6.7</ele>
        <time>2019-11-11T08:50:00Z</time>
      </trkpt>
      <trkpt lat="49.29262" lon="1.02842">
        <ele>6.7</ele>
        <time>2019-11-11T08:50:01Z</time>
      </trkpt>
      <trkpt lat="49.29263" lon="1.02851">
        <ele>6.7</ele>
        <time>2019-11-11T08:50:02Z</time>
      </trkpt>
      <trkpt lat="49.29263" lon="1.0286">
        <ele>6.7</ele>
        <time>2019-11-11T08:50:03Z</time>
      </trkpt>
      <trkpt lat="49.29263" lon="1.02869">
        <ele>6.7</ele>
        <time>2019-11-11T08:50:04Z</time>
      </trkpt>
      <trkpt lat="49.29262" lon="1.02877">
        <ele>6.7</ele>
        <time>2019-11-11T08:50:05Z</time>
      </trkpt>
      <trkpt lat="49.29262" lon="1.02886">
        <ele>6.7</ele>
        <time>2019-11-11T08:50:06Z</time>
      </trkpt>
      <trkpt lat="49.29263" lon="1.02894">
        <ele>6.7</ele>
        <time>2019-11-11T08:50:07Z</time>
      </trkpt>
      <trkpt lat="49.29264" lon="1.02903">
        <ele>6.7</ele>
        <time>2019-11-11T08:50:08Z</time>
      </trkpt>
      <trkpt lat="49.29265" lon="1.02911">
        <ele>6.7</ele>
        <time>2019-11-11T08:50:09Z</time>
      </trkpt>
      <trkpt lat="49.29267" lon="1.02919">
        <ele>6.7</ele>
        <time>2019-11-11T08:50:10Z</time>
      </trkpt>
      <trkpt lat="49.29268" lon="1.02927">
        <ele>6.7</ele>
        <time>2019-11-11T08:50:11Z</time>
      </trkpt>
      <trkpt lat="49.29269" lon="1.02936">
        <ele>6.7</ele>
        <time>2019-11-11T08:50:12Z</time>
      </trkpt>
      <trkpt lat="49.2927" lon="1.02944">
        <ele>6.7</ele>
        <time>2019-11-11T08:50:13Z</time>
      </trkpt>
      <trkpt lat="49.29271" lon="1.02953">
        <ele>6.7</ele>
        <time>2019-11-11T08:50:14Z</time>
      </trkpt>
      <trkpt lat="49.29272" lon="1.02962">
        <ele>6.7</ele>
        <time>2019-11-11T08:50:15Z</time>
      </trkpt>
      <trkpt lat="49.29274" lon="1.0297">
        <ele>6.7</ele>
        <time>2019-11-11T08:50:16Z</time>
      </trkpt>
      <trkpt lat="49.29275" lon="1.02978">
        <ele>5.8</ele>
        <time>2019-11-11T08:50:17Z</time>
      </trkpt>
      <trkpt lat="49.29276" lon="1.02986">
        <ele>5.8</ele>
        <time>2019-11-11T08:50:18Z</time>
      </trkpt>
      <trkpt lat="49.29275" lon="1.02995">
        <ele>5.8</ele>
        <time>2019-11-11T08:50:19Z</time>
      </trkpt>
      <trkpt lat="49.29273" lon="1.03003">
        <ele>5.8</ele>
        <time>2019-11-11T08:50:20Z</time>
      </trkpt>
      <trkpt lat="49.29272" lon="1.03012">
        <ele>5.8</ele>
        <time>2019-11-11T08:50:21Z</time>
      </trkpt>
      <trkpt lat="49.29271" lon="1.03021">
        <ele>5.8</ele>
        <time>2019-11-11T08:50:22Z</time>
      </trkpt>
      <trkpt lat="49.29272" lon="1.03029">
        <ele>5.8</ele>
        <time>2019-11-11T08:50:23Z</time>
      </trkpt>
      <trkpt lat="49.29275" lon="1.03038">
        <ele>5.8</ele>
        <time>2019-11-11T08:50:24Z</time>
      </trkpt>
      <trkpt lat="49.29278" lon="1.03046">
        <ele>5.8</ele>
        <time>2019-11-11T08:50:25Z</time>
      </trkpt>
      <trkpt lat="49.29281" lon="1.03054">
        <ele>5.8</ele>
        <time>2019-11-11T08:50:26Z</time>
      </trkpt>
      <trkpt lat="49.29285" lon="1.03061">
        <ele>5.8</ele>
        <time>2019-11-11T08:50:27Z</time>
      </trkpt>
      <trkpt lat="49.29289" lon="1.03068">
        <ele>5.8</ele>
        <time>2019-11-11T08:50:28Z</time>
      </trkpt>
      <trkpt lat="49.29292" lon="1.03076">
        <ele>5.8</ele>
        <time>2019-11-11T08:50:29Z</time>
      </trkpt>
      <trkpt lat="49.29295" lon="1.03083">
        <ele>5.8</ele>
        <time>2019-11-11T08:50:30Z</time>
      </trkpt>
      <trkpt lat="49.29298" lon="1.03091">
        <ele>5.8</ele>
        <time>2019-11-11T08:50:31Z</time>
      </trkpt>
      <trkpt lat="49.293" lon="1.031">
        <ele>5.8</ele>
        <time>2019-11-11T08:50:32Z</time>
      </trkpt>
      <trkpt lat="49.29302" lon="1.03109">
        <ele>4.7</ele>
        <time>2019-11-11T08:50:33Z</time>
      </trkpt>
      <trkpt lat="49.29304" lon="1.03118">
        <ele>4.7</ele>
        <time>2019-11-11T08:50:34Z</time>
      </trkpt>
      <trkpt lat="49.29306" lon="1.03127">
        <ele>4.7</ele>
        <time>2019-11-11T08:50:35Z</time>
      </trkpt>
      <trkpt lat="49.29308" lon="1.03137">
        <ele>4.7</ele>
        <time>2019-11-11T08:50:36Z</time>
      </trkpt>
      <trkpt lat="49.2931" lon="1.03146">
        <ele>4.7</ele>
        <time>2019-11-11T08:50:37Z</time>
      </trkpt>
      <trkpt lat="49.29312" lon="1.03155">
        <ele>4.7</ele>
        <time>2019-11-11T08:50:38Z</time>
      </trkpt>
      <trkpt lat="49.29314" lon="1.03163">
        <ele>4.7</ele>
        <time>2019-11-11T08:50:39Z</time>
      </trkpt>
      <trkpt lat="49.29316" lon="1.03172">
        <ele>4.7</ele>
        <time>2019-11-11T08:50:40Z</time>
      </trkpt>
      <trkpt lat="49.29317" lon="1.0318">
        <ele>4.7</ele>
        <time>2019-11-11T08:50:41Z</time>
      </trkpt>
      <trkpt lat="49.29319" lon="1.03189">
        <ele>4.7</ele>
        <time>2019-11-11T08:50:42Z</time>
      </trkpt>
      <trkpt lat="49.2932" lon="1.03197">
        <ele>4.7</ele>
        <time>2019-11-11T08:50:43Z</time>
      </trkpt>
      <trkpt lat="49.29322" lon="1.03206">
        <ele>4.7</ele>
        <time>2019-11-11T08:50:44Z</time>
      </trkpt>
      <trkpt lat="49.29323" lon="1.03214">
        <ele>4.7</ele>
        <time>2019-11-11T08:50:45Z</time>
      </trkpt>
      <trkpt lat="49.29325" lon="1.03222">
        <ele>4.7</ele>
        <time>2019-11-11T08:50:46Z</time>
      </trkpt>
      <trkpt lat="49.29326" lon="1.03231">
        <ele>4.7</ele>
        <time>2019-11-11T08:50:47Z</time>
      </trkpt>
      <trkpt lat="49.29328" lon="1.03239">
        <ele>4.7</ele>
        <time>2019-11-11T08:50:48Z</time>
      </trkpt>
      <trkpt lat="49.2933" lon="1.03247">
        <ele>4.7</ele>
        <time>2019-11-11T08:50:49Z</time>
      </trkpt>
      <trkpt lat="49.29332" lon="1.03255">
        <ele>4.7</ele>
        <time>2019-11-11T08:50:50Z</time>
      </trkpt>
      <trkpt lat="49.29334" lon="1.03263">
        <ele>4.7</ele>
        <time>2019-11-11T08:50:51Z</time>
      </trkpt>
      <trkpt lat="49.29336" lon="1.03271">
        <ele>4.7</ele>
        <time>2019-11-11T08:50:52Z</time>
      </trkpt>
      <trkpt lat="49.29338" lon="1.03279">
        <ele>4.7</ele>
        <time>2019-11-11T08:50:53Z</time>
      </trkpt>
      <trkpt lat="49.2934" lon="1.03287">
        <ele>4.7</ele>
        <time>2019-11-11T08:50:54Z</time>
      </trkpt>
      <trkpt lat="49.29342" lon="1.03295">
        <ele>5.8</ele>
        <time>2019-11-11T08:50:55Z</time>
      </trkpt>
      <trkpt lat="49.29345" lon="1.03303">
        <ele>5.8</ele>
        <time>2019-11-11T08:50:56Z</time>
      </trkpt>
      <trkpt lat="49.29347" lon="1.03311">
        <ele>5.8</ele>
        <time>2019-11-11T08:50:57Z</time>
      </trkpt>
      <trkpt lat="49.29349" lon="1.03319">
        <ele>5.8</ele>
        <time>2019-11-11T08:50:58Z</time>
      </trkpt>
      <trkpt lat="49.29351" lon="1.03328">
        <ele>5.8</ele>
        <time>2019-11-11T08:50:59Z</time>
      </trkpt>
      <trkpt lat="49.29353" lon="1.03336">
        <ele>5.8</ele>
        <time>2019-11-11T08:51:00Z</time>
      </trkpt>
      <trkpt lat="49.29355" lon="1.03345">
        <ele>4.7</ele>
        <time>2019-11-11T08:51:01Z</time>
      </trkpt>
      <trkpt lat="49.29357" lon="1.03354">
        <ele>4.7</ele>
        <time>2019-11-11T08:51:02Z</time>
      </trkpt>
      <trkpt lat="49.29358" lon="1.03363">
        <ele>4.7</ele>
        <time>2019-11-11T08:51:03Z</time>
      </trkpt>
      <trkpt lat="49.2936" lon="1.03372">
        <ele>4.7</ele>
        <time>2019-11-11T08:51:04Z</time>
      </trkpt>
      <trkpt lat="49.29361" lon="1.03381">
        <ele>4.7</ele>
        <time>2019-11-11T08:51:05Z</time>
      </trkpt>
      <trkpt lat="49.29362" lon="1.0339">
        <ele>4.7</ele>
        <time>2019-11-11T08:51:06Z</time>
      </trkpt>
      <trkpt lat="49.29364" lon="1.03399">
        <ele>4.7</ele>
        <time>2019-11-11T08:51:07Z</time>
      </trkpt>
      <trkpt lat="49.29365" lon="1.03408">
        <ele>4.7</ele>
        <time>2019-11-11T08:51:08Z</time>
      </trkpt>
      <trkpt lat="49.29366" lon="1.03416">
        <ele>4.7</ele>
        <time>2019-11-11T08:51:09Z</time>
      </trkpt>
      <trkpt lat="49.29367" lon="1.03425">
        <ele>4.7</ele>
        <time>2019-11-11T08:51:10Z</time>
      </trkpt>
      <trkpt lat="49.29368" lon="1.03433">
        <ele>4.7</ele>
        <time>2019-11-11T08:51:11Z</time>
      </trkpt>
      <trkpt lat="49.29369" lon="1.03442">
        <ele>4.7</ele>
        <time>2019-11-11T08:51:12Z</time>
      </trkpt>
      <trkpt lat="49.29371" lon="1.0345">
        <ele>4.7</ele>
        <time>2019-11-11T08:51:13Z</time>
      </trkpt>
      <trkpt lat="49.29372" lon="1.03459">
        <ele>4.7</ele>
        <time>2019-11-11T08:51:14Z</time>
      </trkpt>
      <trkpt lat="49.29373" lon="1.03468">
        <ele>4.7</ele>
        <time>2019-11-11T08:51:15Z</time>
      </trkpt>
      <trkpt lat="49.29375" lon="1.03476">
        <ele>4.7</ele>
        <time>2019-11-11T08:51:16Z</time>
      </trkpt>
      <trkpt lat="49.29376" lon="1.03484">
        <ele>4.7</ele>
        <time>2019-11-11T08:51:17Z</time>
      </trkpt>
      <trkpt lat="49.29378" lon="1.03492">
        <ele>4.7</ele>
        <time>2019-11-11T08:51:18Z</time>
      </trkpt>
      <trkpt lat="49.2938" lon="1.035">
        <ele>4.7</ele>
        <time>2019-11-11T08:51:19Z</time>
      </trkpt>
      <trkpt lat="49.29382" lon="1.03508">
        <ele>4.7</ele>
        <time>2019-11-11T08:51:20Z</time>
      </trkpt>
      <trkpt lat="49.29383" lon="1.03515">
        <ele>4.7</ele>
        <time>2019-11-11T08:51:21Z</time>
      </trkpt>
      <trkpt lat="49.29385" lon="1.03523">
        <ele>4.7</ele>
        <time>2019-11-11T08:51:22Z</time>
      </trkpt>
      <trkpt lat="49.29387" lon="1.03529">
        <ele>4.7</ele>
        <time>2019-11-11T08:51:23Z</time>
      </trkpt>
      <trkpt lat="49.2939" lon="1.03534">
        <ele>4.7</ele>
        <time>2019-11-11T08:51:24Z</time>
      </trkpt>
      <trkpt lat="49.29392" lon="1.0354">
        <ele>4.7</ele>
        <time>2019-11-11T08:51:25Z</time>
      </trkpt>
      <trkpt lat="49.29394" lon="1.03547">
        <ele>4.7</ele>
        <time>2019-11-11T08:51:26Z</time>
      </trkpt>
      <trkpt lat="49.29395" lon="1.03554">
        <ele>4.7</ele>
        <time>2019-11-11T08:51:27Z</time>
      </trkpt>
      <trkpt lat="49.29395" lon="1.03562">
        <ele>4.7</ele>
        <time>2019-11-11T08:51:28Z</time>
      </trkpt>
      <trkpt lat="49.29394" lon="1.0357">
        <ele>5.8</ele>
        <time>2019-11-11T08:51:29Z</time>
      </trkpt>
      <trkpt lat="49.29393" lon="1.03579">
        <ele>5.8</ele>
        <time>2019-11-11T08:51:30Z</time>
      </trkpt>
      <trkpt lat="49.29393" lon="1.03588">
        <ele>5.8</ele>
        <time>2019-11-11T08:51:31Z</time>
      </trkpt>
      <trkpt lat="49.29393" lon="1.03597">
        <ele>5.8</ele>
        <time>2019-11-11T08:51:32Z</time>
      </trkpt>
      <trkpt lat="49.29393" lon="1.03607">
        <ele>5.8</ele>
        <time>2019-11-11T08:51:33Z</time>
      </trkpt>
      <trkpt lat="49.29393" lon="1.03616">
        <ele>5.8</ele>
        <time>2019-11-11T08:51:34Z</time>
      </trkpt>
      <trkpt lat="49.29394" lon="1.03626">
        <ele>5.8</ele>
        <time>2019-11-11T08:51:35Z</time>
      </trkpt>
      <trkpt lat="49.29394" lon="1.03635">
        <ele>5.8</ele>
        <time>2019-11-11T08:51:36Z</time>
      </trkpt>
      <trkpt lat="49.29395" lon="1.03644">
        <ele>5.8</ele>
        <time>2019-11-11T08:51:37Z</time>
      </trkpt>
      <trkpt lat="49.29395" lon="1.03652">
        <ele>5.8</ele>
        <time>2019-11-11T08:51:38Z</time>
      </trkpt>
      <trkpt lat="49.29394" lon="1.03661">
        <ele>5.8</ele>
        <time>2019-11-11T08:51:39Z</time>
      </trkpt>
      <trkpt lat="49.29395" lon="1.0367">
        <ele>5.8</ele>
        <time>2019-11-11T08:51:40Z</time>
      </trkpt>
      <trkpt lat="49.29395" lon="1.03679">
        <ele>6.7</ele>
        <time>2019-11-11T08:51:41Z</time>
      </trkpt>
      <trkpt lat="49.29395" lon="1.03687">
        <ele>6.7</ele>
        <time>2019-11-11T08:51:42Z</time>
      </trkpt>
      <trkpt lat="49.29395" lon="1.03696">
        <ele>6.7</ele>
        <time>2019-11-11T08:51:43Z</time>
      </trkpt>
      <trkpt lat="49.29396" lon="1.03705">
        <ele>6.7</ele>
        <time>2019-11-11T08:51:44Z</time>
      </trkpt>
      <trkpt lat="49.29396" lon="1.03714">
        <ele>6.7</ele>
        <time>2019-11-11T08:51:45Z</time>
      </trkpt>
      <trkpt lat="49.29396" lon="1.03723">
        <ele>6.7</ele>
        <time>2019-11-11T08:51:46Z</time>
      </trkpt>
      <trkpt lat="49.29397" lon="1.03732">
        <ele>6.7</ele>
        <time>2019-11-11T08:51:47Z</time>
      </trkpt>
      <trkpt lat="49.29397" lon="1.03742">
        <ele>6.7</ele>
        <time>2019-11-11T08:51:48Z</time>
      </trkpt>
      <trkpt lat="49.29398" lon="1.03751">
        <ele>5.8</ele>
        <time>2019-11-11T08:51:49Z</time>
      </trkpt>
      <trkpt lat="49.29399" lon="1.0376">
        <ele>5.8</ele>
        <time>2019-11-11T08:51:50Z</time>
      </trkpt>
      <trkpt lat="49.294" lon="1.03769">
        <ele>5.8</ele>
        <time>2019-11-11T08:51:51Z</time>
      </trkpt>
      <trkpt lat="49.294" lon="1.03778">
        <ele>5.8</ele>
        <time>2019-11-11T08:51:52Z</time>
      </trkpt>
      <trkpt lat="49.29401" lon="1.03787">
        <ele>5.8</ele>
        <time>2019-11-11T08:51:53Z</time>
      </trkpt>
      <trkpt lat="49.29402" lon="1.03796">
        <ele>5.8</ele>
        <time>2019-11-11T08:51:54Z</time>
      </trkpt>
      <trkpt lat="49.29403" lon="1.03805">
        <ele>4.7</ele>
        <time>2019-11-11T08:51:55Z</time>
      </trkpt>
      <trkpt lat="49.29403" lon="1.03814">
        <ele>4.7</ele>
        <time>2019-11-11T08:51:56Z</time>
      </trkpt>
      <trkpt lat="49.29404" lon="1.03823">
        <ele>4.7</ele>
        <time>2019-11-11T08:51:57Z</time>
      </trkpt>
      <trkpt lat="49.29405" lon="1.03832">
        <ele>4.7</ele>
        <time>2019-11-11T08:51:58Z</time>
      </trkpt>
      <trkpt lat="49.29405" lon="1.03841">
        <ele>4.7</ele>
        <time>2019-11-11T08:51:59Z</time>
      </trkpt>
      <trkpt lat="49.29406" lon="1.0385">
        <ele>4.7</ele>
        <time>2019-11-11T08:52:00Z</time>
      </trkpt>
      <trkpt lat="49.29406" lon="1.03859">
        <ele>4.7</ele>
        <time>2019-11-11T08:52:01Z</time>
      </trkpt>
      <trkpt lat="49.29407" lon="1.03868">
        <ele>4.7</ele>
        <time>2019-11-11T08:52:02Z</time>
      </trkpt>
      <trkpt lat="49.29408" lon="1.03877">
        <ele>4.7</ele>
        <time>2019-11-11T08:52:03Z</time>
      </trkpt>
      <trkpt lat="49.29409" lon="1.03886">
        <ele>4.7</ele>
        <time>2019-11-11T08:52:04Z</time>
      </trkpt>
      <trkpt lat="49.29409" lon="1.03895">
        <ele>4.7</ele>
        <time>2019-11-11T08:52:05Z</time>
      </trkpt>
      <trkpt lat="49.2941" lon="1.03904">
        <ele>4.7</ele>
        <time>2019-11-11T08:52:06Z</time>
      </trkpt>
      <trkpt lat="49.29411" lon="1.03912">
        <ele>4.7</ele>
        <time>2019-11-11T08:52:07Z</time>
      </trkpt>
      <trkpt lat="49.29411" lon="1.03921">
        <ele>4.7</ele>
        <time>2019-11-11T08:52:08Z</time>
      </trkpt>
      <trkpt lat="49.29412" lon="1.03929">
        <ele>4.7</ele>
        <time>2019-11-11T08:52:09Z</time>
      </trkpt>
      <trkpt lat="49.29413" lon="1.03938">
        <ele>4.7</ele>
        <time>2019-11-11T08:52:10Z</time>
      </trkpt>
      <trkpt lat="49.29413" lon="1.03945">
        <ele>4.7</ele>
        <time>2019-11-11T08:52:11Z</time>
      </trkpt>
      <trkpt lat="49.29414" lon="1.03953">
        <ele>4.7</ele>
        <time>2019-11-11T08:52:12Z</time>
      </trkpt>
      <trkpt lat="49.29415" lon="1.0396">
        <ele>4.7</ele>
        <time>2019-11-11T08:52:13Z</time>
      </trkpt>
      <trkpt lat="49.29416" lon="1.03967">
        <ele>4.7</ele>
        <time>2019-11-11T08:52:14Z</time>
      </trkpt>
      <trkpt lat="49.29416" lon="1.03974">
        <ele>4.7</ele>
        <time>2019-11-11T08:52:15Z</time>
      </trkpt>
      <trkpt lat="49.29416" lon="1.0398">
        <ele>4.7</ele>
        <time>2019-11-11T08:52:16Z</time>
      </trkpt>
      <trkpt lat="49.29416" lon="1.03986">
        <ele>4.7</ele>
        <time>2019-11-11T08:52:17Z</time>
      </trkpt>
      <trkpt lat="49.29416" lon="1.03992">
        <ele>4.7</ele>
        <time>2019-11-11T08:52:18Z</time>
      </trkpt>
      <trkpt lat="49.29417" lon="1.03997">
        <ele>4.7</ele>
        <time>2019-11-11T08:52:19Z</time>
      </trkpt>
      <trkpt lat="49.29417" lon="1.04002">
        <ele>4.7</ele>
        <time>2019-11-11T08:52:20Z</time>
      </trkpt>
      <trkpt lat="49.29418" lon="1.04005">
        <ele>4.7</ele>
        <time>2019-11-11T08:52:21Z</time>
      </trkpt>
      <trkpt lat="49.29419" lon="1.04008">
        <ele>4.7</ele>
        <time>2019-11-11T08:52:22Z</time>
      </trkpt>
      <trkpt lat="49.2942" lon="1.04012">
        <ele>4.7</ele>
        <time>2019-11-11T08:52:23Z</time>
      </trkpt>
      <trkpt lat="49.29421" lon="1.04017">
        <ele>4.7</ele>
        <time>2019-11-11T08:52:24Z</time>
      </trkpt>
      <trkpt lat="49.29421" lon="1.04022">
        <ele>4.7</ele>
        <time>2019-11-11T08:52:25Z</time>
      </trkpt>
      <trkpt lat="49.29422" lon="1.04028">
        <ele>4.7</ele>
        <time>2019-11-11T08:52:26Z</time>
      </trkpt>
      <trkpt lat="49.29422" lon="1.04034">
        <ele>4.7</ele>
        <time>2019-11-11T08:52:27Z</time>
      </trkpt>
      <trkpt lat="49.29423" lon="1.0404">
        <ele>4.7</ele>
        <time>2019-11-11T08:52:28Z</time>
      </trkpt>
      <trkpt lat="49.29424" lon="1.04047">
        <ele>4.7</ele>
        <time>2019-11-11T08:52:29Z</time>
      </trkpt>
      <trkpt lat="49.29424" lon="1.04054">
        <ele>4.7</ele>
        <time>2019-11-11T08:52:30Z</time>
      </trkpt>
      <trkpt lat="49.29425" lon="1.04061">
        <ele>4.7</ele>
        <time>2019-11-11T08:52:31Z</time>
      </trkpt>
      <trkpt lat="49.29426" lon="1.04068">
        <ele>4.7</ele>
        <time>2019-11-11T08:52:32Z</time>
      </trkpt>
      <trkpt lat="49.29427" lon="1.04074">
        <ele>4.7</ele>
        <time>2019-11-11T08:52:33Z</time>
      </trkpt>
      <trkpt lat="49.29427" lon="1.0408">
        <ele>4.7</ele>
        <time>2019-11-11T08:52:34Z</time>
      </trkpt>
      <trkpt lat="49.29428" lon="1.04087">
        <ele>4.7</ele>
        <time>2019-11-11T08:52:35Z</time>
      </trkpt>
      <trkpt lat="49.29429" lon="1.04094">
        <ele>4.7</ele>
        <time>2019-11-11T08:52:36Z</time>
      </trkpt>
      <trkpt lat="49.2943" lon="1.04101">
        <ele>4.7</ele>
        <time>2019-11-11T08:52:37Z</time>
      </trkpt>
      <trkpt lat="49.2943" lon="1.04107">
        <ele>4.7</ele>
        <time>2019-11-11T08:52:38Z</time>
      </trkpt>
      <trkpt lat="49.29431" lon="1.04114">
        <ele>4.7</ele>
        <time>2019-11-11T08:52:39Z</time>
      </trkpt>
      <trkpt lat="49.29432" lon="1.04121">
        <ele>4.7</ele>
        <time>2019-11-11T08:52:40Z</time>
      </trkpt>
      <trkpt lat="49.29432" lon="1.04129">
        <ele>4.7</ele>
        <time>2019-11-11T08:52:41Z</time>
      </trkpt>
      <trkpt lat="49.29433" lon="1.04136">
        <ele>4.7</ele>
        <time>2019-11-11T08:52:42Z</time>
      </trkpt>
      <trkpt lat="49.29433" lon="1.04144">
        <ele>4.7</ele>
        <time>2019-11-11T08:52:43Z</time>
      </trkpt>
      <trkpt lat="49.29434" lon="1.04152">
        <ele>4.7</ele>
        <time>2019-11-11T08:52:44Z</time>
      </trkpt>
      <trkpt lat="49.29434" lon="1.0416">
        <ele>4.7</ele>
        <time>2019-11-11T08:52:45Z</time>
      </trkpt>
      <trkpt lat="49.29435" lon="1.04167">
        <ele>4.7</ele>
        <time>2019-11-11T08:52:46Z</time>
      </trkpt>
      <trkpt lat="49.29435" lon="1.04175">
        <ele>4.7</ele>
        <time>2019-11-11T08:52:47Z</time>
      </trkpt>
      <trkpt lat="49.29435" lon="1.04183">
        <ele>4.7</ele>
        <time>2019-11-11T08:52:48Z</time>
      </trkpt>
      <trkpt lat="49.29436" lon="1.04191">
        <ele>4.7</ele>
        <time>2019-11-11T08:52:49Z</time>
      </trkpt>
      <trkpt lat="49.29436" lon="1.04199">
        <ele>4.7</ele>
        <time>2019-11-11T08:52:50Z</time>
      </trkpt>
      <trkpt lat="49.29436" lon="1.04208">
        <ele>4.7</ele>
        <time>2019-11-11T08:52:51Z</time>
      </trkpt>
      <trkpt lat="49.29437" lon="1.04216">
        <ele>4.7</ele>
        <time>2019-11-11T08:52:52Z</time>
      </trkpt>
      <trkpt lat="49.29437" lon="1.04224">
        <ele>4.7</ele>
        <time>2019-11-11T08:52:53Z</time>
      </trkpt>
      <trkpt lat="49.29438" lon="1.04232">
        <ele>4.7</ele>
        <time>2019-11-11T08:52:54Z</time>
      </trkpt>
      <trkpt lat="49.29439" lon="1.0424">
        <ele>4.7</ele>
        <time>2019-11-11T08:52:55Z</time>
      </trkpt>
      <trkpt lat="49.2944" lon="1.04248">
        <ele>4.7</ele>
        <time>2019-11-11T08:52:56Z</time>
      </trkpt>
      <trkpt lat="49.29441" lon="1.04256">
        <ele>4.7</ele>
        <time>2019-11-11T08:52:57Z</time>
      </trkpt>
      <trkpt lat="49.29441" lon="1.04264">
        <ele>4.7</ele>
        <time>2019-11-11T08:52:58Z</time>
      </trkpt>
      <trkpt lat="49.29442" lon="1.04272">
        <ele>4.7</ele>
        <time>2019-11-11T08:52:59Z</time>
      </trkpt>
      <trkpt lat="49.29443" lon="1.0428">
        <ele>4.7</ele>
        <time>2019-11-11T08:53:00Z</time>
      </trkpt>
      <trkpt lat="49.29444" lon="1.04288">
        <ele>4.7</ele>
        <time>2019-11-11T08:53:01Z</time>
      </trkpt>
      <trkpt lat="49.29445" lon="1.04297">
        <ele>4.7</ele>
        <time>2019-11-11T08:53:02Z</time>
      </trkpt>
      <trkpt lat="49.29446" lon="1.04304">
        <ele>5.8</ele>
        <time>2019-11-11T08:53:03Z</time>
      </trkpt>
      <trkpt lat="49.29447" lon="1.04312">
        <ele>5.8</ele>
        <time>2019-11-11T08:53:04Z</time>
      </trkpt>
      <trkpt lat="49.29447" lon="1.04319">
        <ele>5.8</ele>
        <time>2019-11-11T08:53:05Z</time>
      </trkpt>
      <trkpt lat="49.29448" lon="1.04326">
        <ele>5.8</ele>
        <time>2019-11-11T08:53:06Z</time>
      </trkpt>
      <trkpt lat="49.29449" lon="1.04333">
        <ele>4.7</ele>
        <time>2019-11-11T08:53:07Z</time>
      </trkpt>
      <trkpt lat="49.2945" lon="1.0434">
        <ele>4.7</ele>
        <time>2019-11-11T08:53:08Z</time>
      </trkpt>
      <trkpt lat="49.29451" lon="1.04347">
        <ele>4.7</ele>
        <time>2019-11-11T08:53:09Z</time>
      </trkpt>
      <trkpt lat="49.29451" lon="1.04353">
        <ele>4.7</ele>
        <time>2019-11-11T08:53:10Z</time>
      </trkpt>
      <trkpt lat="49.29452" lon="1.04359">
        <ele>4.7</ele>
        <time>2019-11-11T08:53:11Z</time>
      </trkpt>
      <trkpt lat="49.29453" lon="1.04365">
        <ele>4.7</ele>
        <time>2019-11-11T08:53:12Z</time>
      </trkpt>
      <trkpt lat="49.29453" lon="1.04371">
        <ele>4.7</ele>
        <time>2019-11-11T08:53:13Z</time>
      </trkpt>
      <trkpt lat="49.29454" lon="1.04376">
        <ele>4.7</ele>
        <time>2019-11-11T08:53:14Z</time>
      </trkpt>
      <trkpt lat="49.29454" lon="1.0438">
        <ele>4.7</ele>
        <time>2019-11-11T08:53:15Z</time>
      </trkpt>
      <trkpt lat="49.29455" lon="1.04384">
        <ele>4.7</ele>
        <time>2019-11-11T08:53:16Z</time>
      </trkpt>
      <trkpt lat="49.29455" lon="1.04387">
        <ele>4.7</ele>
        <time>2019-11-11T08:53:17Z</time>
      </trkpt>
      <trkpt lat="49.29455" lon="1.0439">
        <ele>4.7</ele>
        <time>2019-11-11T08:53:18Z</time>
      </trkpt>
      <trkpt lat="49.29455" lon="1.04393">
        <ele>4.7</ele>
        <time>2019-11-11T08:53:19Z</time>
      </trkpt>
      <trkpt lat="49.29454" lon="1.04396">
        <ele>4.7</ele>
        <time>2019-11-11T08:53:20Z</time>
      </trkpt>
      <trkpt lat="49.29454" lon="1.04398">
        <ele>4.7</ele>
        <time>2019-11-11T08:53:21Z</time>
      </trkpt>
      <trkpt lat="49.29454" lon="1.044">
        <ele>4.7</ele>
        <time>2019-11-11T08:53:22Z</time>
      </trkpt>
      <trkpt lat="49.29454" lon="1.044">
        <ele>4.7</ele>
        <time>2019-11-11T08:53:23Z</time>
      </trkpt>
      <trkpt lat="49.29452" lon="1.04405">
        <ele>4.7</ele>
        <time>2019-11-11T08:54:43Z</time>
      </trkpt>
      <trkpt lat="49.29451" lon="1.04408">
        <ele>3.8</ele>
        <time>2019-11-11T08:54:44Z</time>
      </trkpt>
      <trkpt lat="49.29449" lon="1.0441">
        <ele>3.8</ele>
        <time>2019-11-11T08:54:45Z</time>
      </trkpt>
      <trkpt lat="49.29447" lon="1.04411">
        <ele>3.8</ele>
        <time>2019-11-11T08:54:46Z</time>
      </trkpt>
      <trkpt lat="49.29444" lon="1.04413">
        <ele>4.7</ele>
        <time>2019-11-11T08:54:47Z</time>
      </trkpt>
      <trkpt lat="49.29441" lon="1.04414">
        <ele>4.7</ele>
        <time>2019-11-11T08:54:48Z</time>
      </trkpt>
      <trkpt lat="49.29437" lon="1.04416">
        <ele>4.7</ele>
        <time>2019-11-11T08:54:49Z</time>
      </trkpt>
      <trkpt lat="49.29433" lon="1.04418">
        <ele>4.7</ele>
        <time>2019-11-11T08:54:50Z</time>
      </trkpt>
      <trkpt lat="49.2943" lon="1.0442">
        <ele>5.8</ele>
        <time>2019-11-11T08:54:51Z</time>
      </trkpt>
      <trkpt lat="49.29426" lon="1.04422">
        <ele>5.8</ele>
        <time>2019-11-11T08:54:52Z</time>
      </trkpt>
      <trkpt lat="49.29422" lon="1.04424">
        <ele>5.8</ele>
        <time>2019-11-11T08:54:53Z</time>
      </trkpt>
      <trkpt lat="49.29418" lon="1.04426">
        <ele>5.8</ele>
        <time>2019-11-11T08:54:54Z</time>
      </trkpt>
      <trkpt lat="49.29414" lon="1.04428">
        <ele>5.8</ele>
        <time>2019-11-11T08:54:55Z</time>
      </trkpt>
      <trkpt lat="49.2941" lon="1.0443">
        <ele>5.8</ele>
        <time>2019-11-11T08:54:56Z</time>
      </trkpt>
      <trkpt lat="49.29406" lon="1.04432">
        <ele>5.8</ele>
        <time>2019-11-11T08:54:57Z</time>
      </trkpt>
      <trkpt lat="49.29402" lon="1.04434">
        <ele>5.8</ele>
        <time>2019-11-11T08:54:58Z</time>
      </trkpt>
      <trkpt lat="49.29398" lon="1.04436">
        <ele>7.8</ele>
        <time>2019-11-11T08:54:59Z</time>
      </trkpt>
      <trkpt lat="49.29394" lon="1.04438">
        <ele>7.8</ele>
        <time>2019-11-11T08:55:00Z</time>
      </trkpt>
      <trkpt lat="49.2939" lon="1.04441">
        <ele>7.8</ele>
        <time>2019-11-11T08:55:01Z</time>
      </trkpt>
      <trkpt lat="49.29386" lon="1.04443">
        <ele>7.8</ele>
        <time>2019-11-11T08:55:02Z</time>
      </trkpt>
      <trkpt lat="49.29382" lon="1.04445">
        <ele>7.8</ele>
        <time>2019-11-11T08:55:03Z</time>
      </trkpt>
      <trkpt lat="49.29378" lon="1.04447">
        <ele>7.8</ele>
        <time>2019-11-11T08:55:04Z</time>
      </trkpt>
      <trkpt lat="49.29373" lon="1.04449">
        <ele>7.8</ele>
        <time>2019-11-11T08:55:05Z</time>
      </trkpt>
      <trkpt lat="49.29369" lon="1.04451">
        <ele>7.8</ele>
        <time>2019-11-11T08:55:06Z</time>
      </trkpt>
      <trkpt lat="49.29365" lon="1.04453">
        <ele>6.7</ele>
        <time>2019-11-11T08:55:07Z</time>
      </trkpt>
      <trkpt lat="49.29361" lon="1.04455">
        <ele>6.7</ele>
        <time>2019-11-11T08:55:08Z</time>
      </trkpt>
      <trkpt lat="49.29356" lon="1.04458">
        <ele>6.7</ele>
        <time>2019-11-11T08:55:09Z</time>
      </trkpt>
      <trkpt lat="49.29352" lon="1.0446">
        <ele>6.7</ele>
        <time>2019-11-11T08:55:10Z</time>
      </trkpt>
      <trkpt lat="49.29348" lon="1.04462">
        <ele>6.7</ele>
        <time>2019-11-11T08:55:11Z</time>
      </trkpt>
      <trkpt lat="49.29344" lon="1.04464">
        <ele>6.7</ele>
        <time>2019-11-11T08:55:12Z</time>
      </trkpt>
      <trkpt lat="49.2934" lon="1.04466">
        <ele>7.8</ele>
        <time>2019-11-11T08:55:13Z</time>
      </trkpt>
      <trkpt lat="49.29336" lon="1.04468">
        <ele>7.8</ele>
        <time>2019-11-11T08:55:14Z</time>
      </trkpt>
      <trkpt lat="49.29332" lon="1.0447">
        <ele>8.7</ele>
        <time>2019-11-11T08:55:15Z</time>
      </trkpt>
      <trkpt lat="49.29328" lon="1.04473">
        <ele>8.7</ele>
        <time>2019-11-11T08:55:16Z</time>
      </trkpt>
      <trkpt lat="49.29323" lon="1.04475">
        <ele>8.7</ele>
        <time>2019-11-11T08:55:17Z</time>
      </trkpt>
      <trkpt lat="49.29319" lon="1.04477">
        <ele>8.7</ele>
        <time>2019-11-11T08:55:18Z</time>
      </trkpt>
      <trkpt lat="49.29315" lon="1.04479">
        <ele>8.7</ele>
        <time>2019-11-11T08:55:19Z</time>
      </trkpt>
      <trkpt lat="49.29311" lon="1.04481">
        <ele>8.7</ele>
        <time>2019-11-11T08:55:20Z</time>
      </trkpt>
      <trkpt lat="49.29307" lon="1.04483">
        <ele>8.7</ele>
        <time>2019-11-11T08:55:21Z</time>
      </trkpt>
      <trkpt lat="49.29302" lon="1.04486">
        <ele>8.7</ele>
        <time>2019-11-11T08:55:22Z</time>
      </trkpt>
      <trkpt lat="49.29298" lon="1.04488">
        <ele>8.7</ele>
        <time>2019-11-11T08:55:23Z</time>
      </trkpt>
      <trkpt lat="49.29294" lon="1.04491">
        <ele>8.7</ele>
        <time>2019-11-11T08:55:24Z</time>
      </trkpt>
      <trkpt lat="49.29289" lon="1.04493">
        <ele>8.7</ele>
        <time>2019-11-11T08:55:25Z</time>
      </trkpt>
      <trkpt lat="49.29285" lon="1.04495">
        <ele>8.7</ele>
        <time>2019-11-11T08:55:26Z</time>
      </trkpt>
      <trkpt lat="49.29281" lon="1.04497">
        <ele>8.7</ele>
        <time>2019-11-11T08:55:27Z</time>
      </trkpt>
      <trkpt lat="49.29276" lon="1.04499">
        <ele>8.7</ele>
        <time>2019-11-11T08:55:28Z</time>
      </trkpt>
      <trkpt lat="49.29272" lon="1.04501">
        <ele>7.8</ele>
        <time>2019-11-11T08:55:29Z</time>
      </trkpt>
      <trkpt lat="49.29267" lon="1.04504">
        <ele>7.8</ele>
        <time>2019-11-11T08:55:30Z</time>
      </trkpt>
      <trkpt lat="49.29263" lon="1.04506">
        <ele>7.8</ele>
        <time>2019-11-11T08:55:31Z</time>
      </trkpt>
      <trkpt lat="49.29259" lon="1.04508">
        <ele>7.8</ele>
        <time>2019-11-11T08:55:32Z</time>
      </trkpt>
      <trkpt lat="49.29254" lon="1.0451">
        <ele>7.8</ele>
        <time>2019-11-11T08:55:33Z</time>
      </trkpt>
      <trkpt lat="49.2925" lon="1.04513">
        <ele>7.8</ele>
        <time>2019-11-11T08:55:34Z</time>
      </trkpt>
      <trkpt lat="49.29246" lon="1.04515">
        <ele>7.8</ele>
        <time>2019-11-11T08:55:35Z</time>
      </trkpt>
      <trkpt lat="49.29241" lon="1.04517">
        <ele>7.8</ele>
        <time>2019-11-11T08:55:36Z</time>
      </trkpt>
      <trkpt lat="49.29237" lon="1.04519">
        <ele>7.8</ele>
        <time>2019-11-11T08:55:37Z</time>
      </trkpt>
      <trkpt lat="49.29233" lon="1.04522">
        <ele>7.8</ele>
        <time>2019-11-11T08:55:38Z</time>
      </trkpt>
      <trkpt lat="49.29228" lon="1.04524">
        <ele>7.8</ele>
        <time>2019-11-11T08:55:39Z</time>
      </trkpt>
      <trkpt lat="49.29224" lon="1.04526">
        <ele>7.8</ele>
        <time>2019-11-11T08:55:40Z</time>
      </trkpt>
      <trkpt lat="49.2922" lon="1.04528">
        <ele>7.8</ele>
        <time>2019-11-11T08:55:41Z</time>
      </trkpt>
      <trkpt lat="49.29215" lon="1.0453">
        <ele>7.8</ele>
        <time>2019-11-11T08:55:42Z</time>
      </trkpt>
      <trkpt lat="49.29211" lon="1.04532">
        <ele>7.8</ele>
        <time>2019-11-11T08:55:43Z</time>
      </trkpt>
      <trkpt lat="49.29206" lon="1.04535">
        <ele>7.8</ele>
        <time>2019-11-11T08:55:44Z</time>
      </trkpt>
      <trkpt lat="49.29202" lon="1.04537">
        <ele>8.7</ele>
        <time>2019-11-11T08:55:45Z</time>
      </trkpt>
      <trkpt lat="49.29198" lon="1.04539">
        <ele>8.7</ele>
        <time>2019-11-11T08:55:46Z</time>
      </trkpt>
      <trkpt lat="49.29193" lon="1.04541">
        <ele>8.7</ele>
        <time>2019-11-11T08:55:47Z</time>
      </trkpt>
      <trkpt lat="49.29189" lon="1.04544">
        <ele>8.7</ele>
        <time>2019-11-11T08:55:48Z</time>
      </trkpt>
      <trkpt lat="49.29185" lon="1.04546">
        <ele>8.7</ele>
        <time>2019-11-11T08:55:49Z</time>
      </trkpt>
      <trkpt lat="49.2918" lon="1.04548">
        <ele>8.7</ele>
        <time>2019-11-11T08:55:50Z</time>
      </trkpt>
      <trkpt lat="49.29176" lon="1.0455">
        <ele>8.7</ele>
        <time>2019-11-11T08:55:51Z</time>
      </trkpt>
      <trkpt lat="49.29172" lon="1.04552">
        <ele>8.7</ele>
        <time>2019-11-11T08:55:52Z</time>
      </trkpt>
      <trkpt lat="49.29167" lon="1.04554">
        <ele>8.7</ele>
        <time>2019-11-11T08:55:53Z</time>
      </trkpt>
      <trkpt lat="49.29163" lon="1.04557">
        <ele>8.7</ele>
        <time>2019-11-11T08:55:54Z</time>
      </trkpt>
      <trkpt lat="49.29158" lon="1.04559">
        <ele>8.7</ele>
        <time>2019-11-11T08:55:55Z</time>
      </trkpt>
      <trkpt lat="49.29154" lon="1.04561">
        <ele>8.7</ele>
        <time>2019-11-11T08:55:56Z</time>
      </trkpt>
      <trkpt lat="49.29149" lon="1.04563">
        <ele>8.7</ele>
        <time>2019-11-11T08:55:57Z</time>
      </trkpt>
      <trkpt lat="49.29145" lon="1.04566">
        <ele>8.7</ele>
        <time>2019-11-11T08:55:58Z</time>
      </trkpt>
      <trkpt lat="49.29141" lon="1.04568">
        <ele>8.7</ele>
        <time>2019-11-11T08:55:59Z</time>
      </trkpt>
      <trkpt lat="49.29137" lon="1.0457">
        <ele>8.7</ele>
        <time>2019-11-11T08:56:00Z</time>
      </trkpt>
      <trkpt lat="49.29133" lon="1.04572">
        <ele>8.7</ele>
        <time>2019-11-11T08:56:01Z</time>
      </trkpt>
      <trkpt lat="49.29129" lon="1.04575">
        <ele>8.7</ele>
        <time>2019-11-11T08:56:02Z</time>
      </trkpt>
      <trkpt lat="49.29125" lon="1.04577">
        <ele>8.7</ele>
        <time>2019-11-11T08:56:03Z</time>
      </trkpt>
      <trkpt lat="49.29122" lon="1.04579">
        <ele>8.7</ele>
        <time>2019-11-11T08:56:04Z</time>
      </trkpt>
      <trkpt lat="49.29118" lon="1.04581">
        <ele>8.7</ele>
        <time>2019-11-11T08:56:05Z</time>
      </trkpt>
      <trkpt lat="49.29116" lon="1.04582">
        <ele>8.7</ele>
        <time>2019-11-11T08:56:06Z</time>
      </trkpt>
      <trkpt lat="49.29113" lon="1.04583">
        <ele>8.7</ele>
        <time>2019-11-11T08:56:07Z</time>
      </trkpt>
      <trkpt lat="49.29111" lon="1.04583">
        <ele>8.7</ele>
        <time>2019-11-11T08:56:08Z</time>
      </trkpt>
      <trkpt lat="49.29109" lon="1.04582">
        <ele>7.8</ele>
        <time>2019-11-11T08:56:09Z</time>
      </trkpt>
      <trkpt lat="49.29108" lon="1.04582">
        <ele>7.8</ele>
        <time>2019-11-11T08:56:10Z</time>
      </trkpt>
      <trkpt lat="49.29106" lon="1.04582">
        <ele>7.8</ele>
        <time>2019-11-11T08:56:11Z</time>
      </trkpt>
      <trkpt lat="49.29104" lon="1.04582">
        <ele>7.8</ele>
        <time>2019-11-11T08:56:12Z</time>
      </trkpt>
      <trkpt lat="49.29102" lon="1.04583">
        <ele>7.8</ele>
        <time>2019-11-11T08:56:13Z</time>
      </trkpt>
      <trkpt lat="49.291" lon="1.04584">
        <ele>7.8</ele>
        <time>2019-11-11T08:56:14Z</time>
      </trkpt>
      <trkpt lat="49.29097" lon="1.04585">
        <ele>7.8</ele>
        <time>2019-11-11T08:56:15Z</time>
      </trkpt>
      <trkpt lat="49.29095" lon="1.04587">
        <ele>7.8</ele>
        <time>2019-11-11T08:56:16Z</time>
      </trkpt>
      <trkpt lat="49.29092" lon="1.04589">
        <ele>7.8</ele>
        <time>2019-11-11T08:56:17Z</time>
      </trkpt>
      <trkpt lat="49.29089" lon="1.04592">
        <ele>7.8</ele>
        <time>2019-11-11T08:56:18Z</time>
      </trkpt>
      <trkpt lat="49.29087" lon="1.04595">
        <ele>7.8</ele>
        <time>2019-11-11T08:56:19Z</time>
      </trkpt>
      <trkpt lat="49.29084" lon="1.04598">
        <ele>7.8</ele>
        <time>2019-11-11T08:56:20Z</time>
      </trkpt>
      <trkpt lat="49.29081" lon="1.04601">
        <ele>8.7</ele>
        <time>2019-11-11T08:56:21Z</time>
      </trkpt>
      <trkpt lat="49.29078" lon="1.04604">
        <ele>8.7</ele>
        <time>2019-11-11T08:56:22Z</time>
      </trkpt>
      <trkpt lat="49.29076" lon="1.04606">
        <ele>9.8</ele>
        <time>2019-11-11T08:56:23Z</time>
      </trkpt>
      <trkpt lat="49.29073" lon="1.04608">
        <ele>9.8</ele>
        <time>2019-11-11T08:56:24Z</time>
      </trkpt>
      <trkpt lat="49.29071" lon="1.0461">
        <ele>9.8</ele>
        <time>2019-11-11T08:56:25Z</time>
      </trkpt>
      <trkpt lat="49.29068" lon="1.04611">
        <ele>9.8</ele>
        <time>2019-11-11T08:56:26Z</time>
      </trkpt>
      <trkpt lat="49.29064" lon="1.04612">
        <ele>9.8</ele>
        <time>2019-11-11T08:56:27Z</time>
      </trkpt>
      <trkpt lat="49.29061" lon="1.04613">
        <ele>9.8</ele>
        <time>2019-11-11T08:56:28Z</time>
      </trkpt>
      <trkpt lat="49.29057" lon="1.04614">
        <ele>9.8</ele>
        <time>2019-11-11T08:56:29Z</time>
      </trkpt>
      <trkpt lat="49.29053" lon="1.04615">
        <ele>9.8</ele>
        <time>2019-11-11T08:56:30Z</time>
      </trkpt>
      <trkpt lat="49.2905" lon="1.04617">
        <ele>8.7</ele>
        <time>2019-11-11T08:56:31Z</time>
      </trkpt>
      <trkpt lat="49.29046" lon="1.04619">
        <ele>8.7</ele>
        <time>2019-11-11T08:56:32Z</time>
      </trkpt>
      <trkpt lat="49.29042" lon="1.04622">
        <ele>8.7</ele>
        <time>2019-11-11T08:56:33Z</time>
      </trkpt>
      <trkpt lat="49.29038" lon="1.04624">
        <ele>8.7</ele>
        <time>2019-11-11T08:56:34Z</time>
      </trkpt>
      <trkpt lat="49.29034" lon="1.04627">
        <ele>9.8</ele>
        <time>2019-11-11T08:56:35Z</time>
      </trkpt>
      <trkpt lat="49.2903" lon="1.04629">
        <ele>9.8</ele>
        <time>2019-11-11T08:56:36Z</time>
      </trkpt>
      <trkpt lat="49.29026" lon="1.04631">
        <ele>9.8</ele>
        <time>2019-11-11T08:56:37Z</time>
      </trkpt>
      <trkpt lat="49.29022" lon="1.04633">
        <ele>9.8</ele>
        <time>2019-11-11T08:56:38Z</time>
      </trkpt>
      <trkpt lat="49.29018" lon="1.04635">
        <ele>8.7</ele>
        <time>2019-11-11T08:56:39Z</time>
      </trkpt>
      <trkpt lat="49.29014" lon="1.04636">
        <ele>8.7</ele>
        <time>2019-11-11T08:56:40Z</time>
      </trkpt>
      <trkpt lat="49.2901" lon="1.04638">
        <ele>8.7</ele>
        <time>2019-11-11T08:56:41Z</time>
      </trkpt>
      <trkpt lat="49.29006" lon="1.0464">
        <ele>8.7</ele>
        <time>2019-11-11T08:56:42Z</time>
      </trkpt>
      <trkpt lat="49.29002" lon="1.04642">
        <ele>8.7</ele>
        <time>2019-11-11T08:56:43Z</time>
      </trkpt>
      <trkpt lat="49.28997" lon="1.04644">
        <ele>8.7</ele>
        <time>2019-11-11T08:56:44Z</time>
      </trkpt>
      <trkpt lat="49.28993" lon="1.04646">
        <ele>8.7</ele>
        <time>2019-11-11T08:56:45Z</time>
      </trkpt>
      <trkpt lat="49.28989" lon="1.04648">
        <ele>8.7</ele>
        <time>2019-11-11T08:56:46Z</time>
      </trkpt>
      <trkpt lat="49.28985" lon="1.0465">
        <ele>9.8</ele>
        <time>2019-11-11T08:56:47Z</time>
      </trkpt>
      <trkpt lat="49.28981" lon="1.04652">
        <ele>9.8</ele>
        <time>2019-11-11T08:56:48Z</time>
      </trkpt>
      <trkpt lat="49.28977" lon="1.04655">
        <ele>9.8</ele>
        <time>2019-11-11T08:56:49Z</time>
      </trkpt>
      <trkpt lat="49.28973" lon="1.04657">
        <ele>9.8</ele>
        <time>2019-11-11T08:56:50Z</time>
      </trkpt>
      <trkpt lat="49.28969" lon="1.04659">
        <ele>9.8</ele>
        <time>2019-11-11T08:56:51Z</time>
      </trkpt>
      <trkpt lat="49.28965" lon="1.04662">
        <ele>9.8</ele>
        <time>2019-11-11T08:56:52Z</time>
      </trkpt>
      <trkpt lat="49.28961" lon="1.04664">
        <ele>9.8</ele>
        <time>2019-11-11T08:56:53Z</time>
      </trkpt>
      <trkpt lat="49.28957" lon="1.04666">
        <ele>9.8</ele>
        <time>2019-11-11T08:56:54Z</time>
      </trkpt>
      <trkpt lat="49.28953" lon="1.04668">
        <ele>9.8</ele>
        <time>2019-11-11T08:56:55Z</time>
      </trkpt>
      <trkpt lat="49.28949" lon="1.04669">
        <ele>9.8</ele>
        <time>2019-11-11T08:56:56Z</time>
      </trkpt>
      <trkpt lat="49.28945" lon="1.04671">
        <ele>9.8</ele>
        <time>2019-11-11T08:56:57Z</time>
      </trkpt>
      <trkpt lat="49.28941" lon="1.04673">
        <ele>9.8</ele>
        <time>2019-11-11T08:56:58Z</time>
      </trkpt>
      <trkpt lat="49.28937" lon="1.04675">
        <ele>9.8</ele>
        <time>2019-11-11T08:56:59Z</time>
      </trkpt>
      <trkpt lat="49.28933" lon="1.04677">
        <ele>9.8</ele>
        <time>2019-11-11T08:57:00Z</time>
      </trkpt>
      <trkpt lat="49.28929" lon="1.04679">
        <ele>9.8</ele>
        <time>2019-11-11T08:57:01Z</time>
      </trkpt>
      <trkpt lat="49.28925" lon="1.04681">
        <ele>9.8</ele>
        <time>2019-11-11T08:57:02Z</time>
      </trkpt>
      <trkpt lat="49.28921" lon="1.04683">
        <ele>9.8</ele>
        <time>2019-11-11T08:57:03Z</time>
      </trkpt>
      <trkpt lat="49.28917" lon="1.04685">
        <ele>9.8</ele>
        <time>2019-11-11T08:57:04Z</time>
      </trkpt>
      <trkpt lat="49.28913" lon="1.04687">
        <ele>9.8</ele>
        <time>2019-11-11T08:57:05Z</time>
      </trkpt>
      <trkpt lat="49.28909" lon="1.04688">
        <ele>9.8</ele>
        <time>2019-11-11T08:57:06Z</time>
      </trkpt>
      <trkpt lat="49.28905" lon="1.0469">
        <ele>9.8</ele>
        <time>2019-11-11T08:57:07Z</time>
      </trkpt>
      <trkpt lat="49.28901" lon="1.04692">
        <ele>9.8</ele>
        <time>2019-11-11T08:57:08Z</time>
      </trkpt>
      <trkpt lat="49.28897" lon="1.04694">
        <ele>10.7</ele>
        <time>2019-11-11T08:57:09Z</time>
      </trkpt>
      <trkpt lat="49.28894" lon="1.04696">
        <ele>10.7</ele>
        <time>2019-11-11T08:57:10Z</time>
      </trkpt>
      <trkpt lat="49.2889" lon="1.04697">
        <ele>10.7</ele>
        <time>2019-11-11T08:57:11Z</time>
      </trkpt>
      <trkpt lat="49.28886" lon="1.04699">
        <ele>10.7</ele>
        <time>2019-11-11T08:57:12Z</time>
      </trkpt>
      <trkpt lat="49.28882" lon="1.047">
        <ele>9.8</ele>
        <time>2019-11-11T08:57:13Z</time>
      </trkpt>
      <trkpt lat="49.28877" lon="1.04702">
        <ele>9.8</ele>
        <time>2019-11-11T08:57:14Z</time>
      </trkpt>
      <trkpt lat="49.28873" lon="1.04704">
        <ele>9.8</ele>
        <time>2019-11-11T08:57:15Z</time>
      </trkpt>
      <trkpt lat="49.28869" lon="1.04705">
        <ele>9.8</ele>
        <time>2019-11-11T08:57:16Z</time>
      </trkpt>
      <trkpt lat="49.28865" lon="1.04706">
        <ele>9.8</ele>
        <time>2019-11-11T08:57:17Z</time>
      </trkpt>
      <trkpt lat="49.2886" lon="1.04708">
        <ele>9.8</ele>
        <time>2019-11-11T08:57:18Z</time>
      </trkpt>
      <trkpt lat="49.28856" lon="1.04709">
        <ele>9.8</ele>
        <time>2019-11-11T08:57:19Z</time>
      </trkpt>
      <trkpt lat="49.28852" lon="1.04711">
        <ele>9.8</ele>
        <time>2019-11-11T08:57:20Z</time>
      </trkpt>
      <trkpt lat="49.28848" lon="1.04712">
        <ele>9.8</ele>
        <time>2019-11-11T08:57:21Z</time>
      </trkpt>
      <trkpt lat="49.28843" lon="1.04713">
        <ele>9.8</ele>
        <time>2019-11-11T08:57:22Z</time>
      </trkpt>
      <trkpt lat="49.28839" lon="1.04715">
        <ele>9.8</ele>
        <time>2019-11-11T08:57:23Z</time>
      </trkpt>
      <trkpt lat="49.28835" lon="1.04716">
        <ele>9.8</ele>
        <time>2019-11-11T08:57:24Z</time>
      </trkpt>
      <trkpt lat="49.2883" lon="1.04717">
        <ele>9.8</ele>
        <time>2019-11-11T08:57:25Z</time>
      </trkpt>
      <trkpt lat="49.28826" lon="1.04719">
        <ele>9.8</ele>
        <time>2019-11-11T08:57:26Z</time>
      </trkpt>
      <trkpt lat="49.28822" lon="1.04721">
        <ele>9.8</ele>
        <time>2019-11-11T08:57:27Z</time>
      </trkpt>
      <trkpt lat="49.28818" lon="1.04723">
        <ele>9.8</ele>
        <time>2019-11-11T08:57:28Z</time>
      </trkpt>
      <trkpt lat="49.28813" lon="1.04725">
        <ele>9.8</ele>
        <time>2019-11-11T08:57:29Z</time>
      </trkpt>
      <trkpt lat="49.28809" lon="1.04726">
        <ele>9.8</ele>
        <time>2019-11-11T08:57:30Z</time>
      </trkpt>
      <trkpt lat="49.28805" lon="1.04727">
        <ele>10.7</ele>
        <time>2019-11-11T08:57:31Z</time>
      </trkpt>
      <trkpt lat="49.288" lon="1.04729">
        <ele>10.7</ele>
        <time>2019-11-11T08:57:32Z</time>
      </trkpt>
      <trkpt lat="49.28796" lon="1.0473">
        <ele>10.7</ele>
        <time>2019-11-11T08:57:33Z</time>
      </trkpt>
      <trkpt lat="49.28792" lon="1.04731">
        <ele>10.7</ele>
        <time>2019-11-11T08:57:34Z</time>
      </trkpt>
      <trkpt lat="49.28787" lon="1.04732">
        <ele>10.7</ele>
        <time>2019-11-11T08:57:35Z</time>
      </trkpt>
      <trkpt lat="49.28783" lon="1.04733">
        <ele>10.7</ele>
        <time>2019-11-11T08:57:36Z</time>
      </trkpt>
      <trkpt lat="49.28778" lon="1.04734">
        <ele>10.7</ele>
        <time>2019-11-11T08:57:37Z</time>
      </trkpt>
      <trkpt lat="49.28774" lon="1.04735">
        <ele>10.7</ele>
        <time>2019-11-11T08:57:38Z</time>
      </trkpt>
      <trkpt lat="49.2877" lon="1.04735">
        <ele>10.7</ele>
        <time>2019-11-11T08:57:39Z</time>
      </trkpt>
      <trkpt lat="49.28765" lon="1.04736">
        <ele>10.7</ele>
        <time>2019-11-11T08:57:40Z</time>
      </trkpt>
      <trkpt lat="49.28761" lon="1.04737">
        <ele>10.7</ele>
        <time>2019-11-11T08:57:41Z</time>
      </trkpt>
      <trkpt lat="49.28757" lon="1.04738">
        <ele>10.7</ele>
        <time>2019-11-11T08:57:42Z</time>
      </trkpt>
      <trkpt lat="49.28752" lon="1.04739">
        <ele>10.7</ele>
        <time>2019-11-11T08:57:43Z</time>
      </trkpt>
      <trkpt lat="49.28748" lon="1.0474">
        <ele>10.7</ele>
        <time>2019-11-11T08:57:44Z</time>
      </trkpt>
      <trkpt lat="49.28744" lon="1.04741">
        <ele>11.7</ele>
        <time>2019-11-11T08:57:45Z</time>
      </trkpt>
      <trkpt lat="49.2874" lon="1.04743">
        <ele>11.7</ele>
        <time>2019-11-11T08:57:46Z</time>
      </trkpt>
      <trkpt lat="49.28736" lon="1.04744">
        <ele>11.7</ele>
        <time>2019-11-11T08:57:47Z</time>
      </trkpt>
      <trkpt lat="49.28731" lon="1.04746">
        <ele>11.7</ele>
        <time>2019-11-11T08:57:48Z</time>
      </trkpt>
      <trkpt lat="49.28727" lon="1.04747">
        <ele>11.7</ele>
        <time>2019-11-11T08:57:49Z</time>
      </trkpt>
      <trkpt lat="49.28723" lon="1.04749">
        <ele>11.7</ele>
        <time>2019-11-11T08:57:50Z</time>
      </trkpt>
      <trkpt lat="49.28719" lon="1.04751">
        <ele>11.7</ele>
        <time>2019-11-11T08:57:51Z</time>
      </trkpt>
      <trkpt lat="49.28715" lon="1.04752">
        <ele>11.7</ele>
        <time>2019-11-11T08:57:52Z</time>
      </trkpt>
      <trkpt lat="49.2871" lon="1.04754">
        <ele>11.7</ele>
        <time>2019-11-11T08:57:53Z</time>
      </trkpt>
      <trkpt lat="49.28706" lon="1.04756">
        <ele>11.7</ele>
        <time>2019-11-11T08:57:54Z</time>
      </trkpt>
      <trkpt lat="49.28703" lon="1.04759">
        <ele>11.7</ele>
        <time>2019-11-11T08:57:55Z</time>
      </trkpt>
      <trkpt lat="49.28699" lon="1.04762">
        <ele>11.7</ele>
        <time>2019-11-11T08:57:56Z</time>
      </trkpt>
      <trkpt lat="49.28695" lon="1.04764">
        <ele>11.7</ele>
        <time>2019-11-11T08:57:57Z</time>
      </trkpt>
      <trkpt lat="49.28691" lon="1.04767">
        <ele>11.7</ele>
        <time>2019-11-11T08:57:58Z</time>
      </trkpt>
      <trkpt lat="49.28687" lon="1.04769">
        <ele>11.7</ele>
        <time>2019-11-11T08:57:59Z</time>
      </trkpt>
      <trkpt lat="49.28683" lon="1.04771">
        <ele>11.7</ele>
        <time>2019-11-11T08:58:00Z</time>
      </trkpt>
      <trkpt lat="49.28679" lon="1.04774">
        <ele>11.7</ele>
        <time>2019-11-11T08:58:01Z</time>
      </trkpt>
      <trkpt lat="49.28675" lon="1.04777">
        <ele>11.7</ele>
        <time>2019-11-11T08:58:02Z</time>
      </trkpt>
      <trkpt lat="49.28671" lon="1.0478">
        <ele>11.7</ele>
        <time>2019-11-11T08:58:03Z</time>
      </trkpt>
      <trkpt lat="49.28667" lon="1.04783">
        <ele>11.7</ele>
        <time>2019-11-11T08:58:04Z</time>
      </trkpt>
      <trkpt lat="49.28663" lon="1.04785">
        <ele>11.7</ele>
        <time>2019-11-11T08:58:05Z</time>
      </trkpt>
      <trkpt lat="49.28659" lon="1.04788">
        <ele>11.7</ele>
        <time>2019-11-11T08:58:06Z</time>
      </trkpt>
      <trkpt lat="49.28655" lon="1.04791">
        <ele>11.7</ele>
        <time>2019-11-11T08:58:07Z</time>
      </trkpt>
      <trkpt lat="49.28651" lon="1.04794">
        <ele>11.7</ele>
        <time>2019-11-11T08:58:08Z</time>
      </trkpt>
      <trkpt lat="49.28647" lon="1.04797">
        <ele>11.7</ele>
        <time>2019-11-11T08:58:09Z</time>
      </trkpt>
      <trkpt lat="49.28643" lon="1.048">
        <ele>11.7</ele>
        <time>2019-11-11T08:58:10Z</time>
      </trkpt>
      <trkpt lat="49.28639" lon="1.04803">
        <ele>11.7</ele>
        <time>2019-11-11T08:58:11Z</time>
      </trkpt>
      <trkpt lat="49.28635" lon="1.04806">
        <ele>11.7</ele>
        <time>2019-11-11T08:58:12Z</time>
      </trkpt>
      <trkpt lat="49.28631" lon="1.04809">
        <ele>11.7</ele>
        <time>2019-11-11T08:58:13Z</time>
      </trkpt>
      <trkpt lat="49.28628" lon="1.04813">
        <ele>11.7</ele>
        <time>2019-11-11T08:58:14Z</time>
      </trkpt>
      <trkpt lat="49.28624" lon="1.04816">
        <ele>11.7</ele>
        <time>2019-11-11T08:58:15Z</time>
      </trkpt>
      <trkpt lat="49.28619" lon="1.04819">
        <ele>11.7</ele>
        <time>2019-11-11T08:58:16Z</time>
      </trkpt>
      <trkpt lat="49.28615" lon="1.04822">
        <ele>11.7</ele>
        <time>2019-11-11T08:58:17Z</time>
      </trkpt>
      <trkpt lat="49.28612" lon="1.04825">
        <ele>11.7</ele>
        <time>2019-11-11T08:58:18Z</time>
      </trkpt>
      <trkpt lat="49.28608" lon="1.04828">
        <ele>11.7</ele>
        <time>2019-11-11T08:58:19Z</time>
      </trkpt>
      <trkpt lat="49.28603" lon="1.04831">
        <ele>11.7</ele>
        <time>2019-11-11T08:58:20Z</time>
      </trkpt>
      <trkpt lat="49.28599" lon="1.04834">
        <ele>11.7</ele>
        <time>2019-11-11T08:58:21Z</time>
      </trkpt>
      <trkpt lat="49.28595" lon="1.04837">
        <ele>11.7</ele>
        <time>2019-11-11T08:58:22Z</time>
      </trkpt>
      <trkpt lat="49.28592" lon="1.0484">
        <ele>11.7</ele>
        <time>2019-11-11T08:58:23Z</time>
      </trkpt>
      <trkpt lat="49.28588" lon="1.04843">
        <ele>11.7</ele>
        <time>2019-11-11T08:58:24Z</time>
      </trkpt>
      <trkpt lat="49.28584" lon="1.04846">
        <ele>11.7</ele>
        <time>2019-11-11T08:58:25Z</time>
      </trkpt>
      <trkpt lat="49.2858" lon="1.04849">
        <ele>11.7</ele>
        <time>2019-11-11T08:58:26Z</time>
      </trkpt>
      <trkpt lat="49.28576" lon="1.04852">
        <ele>11.7</ele>
        <time>2019-11-11T08:58:27Z</time>
      </trkpt>
      <trkpt lat="49.28572" lon="1.04855">
        <ele>11.7</ele>
        <time>2019-11-11T08:58:28Z</time>
      </trkpt>
      <trkpt lat="49.28568" lon="1.04858">
        <ele>11.7</ele>
        <time>2019-11-11T08:58:29Z</time>
      </trkpt>
      <trkpt lat="49.28564" lon="1.04862">
        <ele>11.7</ele>
        <time>2019-11-11T08:58:30Z</time>
      </trkpt>
      <trkpt lat="49.2856" lon="1.04865">
        <ele>12.8</ele>
        <time>2019-11-11T08:58:31Z</time>
      </trkpt>
      <trkpt lat="49.28556" lon="1.04868">
        <ele>12.8</ele>
        <time>2019-11-11T08:58:32Z</time>
      </trkpt>
      <trkpt lat="49.28552" lon="1.04871">
        <ele>12.8</ele>
        <time>2019-11-11T08:58:33Z</time>
      </trkpt>
      <trkpt lat="49.28548" lon="1.04874">
        <ele>12.8</ele>
        <time>2019-11-11T08:58:34Z</time>
      </trkpt>
      <trkpt lat="49.28544" lon="1.04877">
        <ele>12.8</ele>
        <time>2019-11-11T08:58:35Z</time>
      </trkpt>
      <trkpt lat="49.2854" lon="1.0488">
        <ele>12.8</ele>
        <time>2019-11-11T08:58:36Z</time>
      </trkpt>
      <trkpt lat="49.28536" lon="1.04883">
        <ele>12.8</ele>
        <time>2019-11-11T08:58:37Z</time>
      </trkpt>
      <trkpt lat="49.28532" lon="1.04886">
        <ele>12.8</ele>
        <time>2019-11-11T08:58:38Z</time>
      </trkpt>
      <trkpt lat="49.28528" lon="1.04889">
        <ele>12.8</ele>
        <time>2019-11-11T08:58:39Z</time>
      </trkpt>
      <trkpt lat="49.28524" lon="1.04892">
        <ele>12.8</ele>
        <time>2019-11-11T08:58:40Z</time>
      </trkpt>
      <trkpt lat="49.2852" lon="1.04894">
        <ele>12.8</ele>
        <time>2019-11-11T08:58:41Z</time>
      </trkpt>
      <trkpt lat="49.28516" lon="1.04897">
        <ele>12.8</ele>
        <time>2019-11-11T08:58:42Z</time>
      </trkpt>
      <trkpt lat="49.28512" lon="1.04899">
        <ele>13.7</ele>
        <time>2019-11-11T08:58:43Z</time>
      </trkpt>
      <trkpt lat="49.28508" lon="1.04902">
        <ele>13.7</ele>
        <time>2019-11-11T08:58:44Z</time>
      </trkpt>
      <trkpt lat="49.28504" lon="1.04904">
        <ele>13.7</ele>
        <time>2019-11-11T08:58:45Z</time>
      </trkpt>
      <trkpt lat="49.28499" lon="1.04907">
        <ele>13.7</ele>
        <time>2019-11-11T08:58:46Z</time>
      </trkpt>
      <trkpt lat="49.28495" lon="1.04909">
        <ele>13.7</ele>
        <time>2019-11-11T08:58:47Z</time>
      </trkpt>
      <trkpt lat="49.28491" lon="1.04911">
        <ele>13.7</ele>
        <time>2019-11-11T08:58:48Z</time>
      </trkpt>
      <trkpt lat="49.28487" lon="1.04913">
        <ele>13.7</ele>
        <time>2019-11-11T08:58:49Z</time>
      </trkpt>
      <trkpt lat="49.28483" lon="1.04914">
        <ele>13.7</ele>
        <time>2019-11-11T08:58:50Z</time>
      </trkpt>
      <trkpt lat="49.28478" lon="1.04915">
        <ele>13.7</ele>
        <time>2019-11-11T08:58:51Z</time>
      </trkpt>
      <trkpt lat="49.28474" lon="1.04916">
        <ele>13.7</ele>
        <time>2019-11-11T08:58:52Z</time>
      </trkpt>
      <trkpt lat="49.2847" lon="1.04917">
        <ele>14.8</ele>
        <time>2019-11-11T08:58:53Z</time>
      </trkpt>
      <trkpt lat="49.28466" lon="1.04918">
        <ele>14.8</ele>
        <time>2019-11-11T08:58:54Z</time>
      </trkpt>
      <trkpt lat="49.28462" lon="1.04919">
        <ele>14.8</ele>
        <time>2019-11-11T08:58:55Z</time>
      </trkpt>
      <trkpt lat="49.28458" lon="1.04919">
        <ele>14.8</ele>
        <time>2019-11-11T08:58:56Z</time>
      </trkpt>
      <trkpt lat="49.28454" lon="1.0492">
        <ele>14.8</ele>
        <time>2019-11-11T08:58:57Z</time>
      </trkpt>
      <trkpt lat="49.2845" lon="1.0492">
        <ele>14.8</ele>
        <time>2019-11-11T08:58:58Z</time>
      </trkpt>
      <trkpt lat="49.28446" lon="1.04921">
        <ele>14.8</ele>
        <time>2019-11-11T08:58:59Z</time>
      </trkpt>
      <trkpt lat="49.28442" lon="1.04922">
        <ele>14.8</ele>
        <time>2019-11-11T08:59:00Z</time>
      </trkpt>
      <trkpt lat="49.28438" lon="1.04922">
        <ele>14.8</ele>
        <time>2019-11-11T08:59:01Z</time>
      </trkpt>
      <trkpt lat="49.28435" lon="1.04923">
        <ele>14.8</ele>
        <time>2019-11-11T08:59:02Z</time>
      </trkpt>
      <trkpt lat="49.28432" lon="1.04923">
        <ele>14.8</ele>
        <time>2019-11-11T08:59:03Z</time>
      </trkpt>
      <trkpt lat="49.28429" lon="1.04924">
        <ele>14.8</ele>
        <time>2019-11-11T08:59:04Z</time>
      </trkpt>
      <trkpt lat="49.28427" lon="1.04924">
        <ele>14.8</ele>
        <time>2019-11-11T08:59:05Z</time>
      </trkpt>
      <trkpt lat="49.28424" lon="1.04925">
        <ele>14.8</ele>
        <time>2019-11-11T08:59:06Z</time>
      </trkpt>
      <trkpt lat="49.28421" lon="1.04925">
        <ele>14.8</ele>
        <time>2019-11-11T08:59:07Z</time>
      </trkpt>
      <trkpt lat="49.28418" lon="1.04926">
        <ele>14.8</ele>
        <time>2019-11-11T08:59:08Z</time>
      </trkpt>
      <trkpt lat="49.28415" lon="1.04926">
        <ele>14.8</ele>
        <time>2019-11-11T08:59:09Z</time>
      </trkpt>
      <trkpt lat="49.28412" lon="1.04927">
        <ele>14.8</ele>
        <time>2019-11-11T08:59:10Z</time>
      </trkpt>
      <trkpt lat="49.28409" lon="1.04928">
        <ele>14.8</ele>
        <time>2019-11-11T08:59:11Z</time>
      </trkpt>
      <trkpt lat="49.28406" lon="1.04928">
        <ele>14.8</ele>
        <time>2019-11-11T08:59:12Z</time>
      </trkpt>
      <trkpt lat="49.28403" lon="1.04929">
        <ele>14.8</ele>
        <time>2019-11-11T08:59:13Z</time>
      </trkpt>
      <trkpt lat="49.284" lon="1.04929">
        <ele>14.8</ele>
        <time>2019-11-11T08:59:14Z</time>
      </trkpt>
      <trkpt lat="49.28397" lon="1.0493">
        <ele>15.7</ele>
        <time>2019-11-11T08:59:15Z</time>
      </trkpt>
      <trkpt lat="49.28394" lon="1.04931">
        <ele>15.7</ele>
        <time>2019-11-11T08:59:16Z</time>
      </trkpt>
      <trkpt lat="49.28391" lon="1.04931">
        <ele>15.7</ele>
        <time>2019-11-11T08:59:17Z</time>
      </trkpt>
      <trkpt lat="49.28388" lon="1.04932">
        <ele>15.7</ele>
        <time>2019-11-11T08:59:18Z</time>
      </trkpt>
      <trkpt lat="49.28384" lon="1.04932">
        <ele>15.7</ele>
        <time>2019-11-11T08:59:19Z</time>
      </trkpt>
      <trkpt lat="49.28381" lon="1.04933">
        <ele>15.7</ele>
        <time>2019-11-11T08:59:20Z</time>
      </trkpt>
      <trkpt lat="49.28378" lon="1.04934">
        <ele>15.7</ele>
        <time>2019-11-11T08:59:21Z</time>
      </trkpt>
      <trkpt lat="49.28375" lon="1.04934">
        <ele>15.7</ele>
        <time>2019-11-11T08:59:22Z</time>
      </trkpt>
      <trkpt lat="49.28372" lon="1.04935">
        <ele>15.7</ele>
        <time>2019-11-11T08:59:23Z</time>
      </trkpt>
      <trkpt lat="49.28368" lon="1.04936">
        <ele>15.7</ele>
        <time>2019-11-11T08:59:24Z</time>
      </trkpt>
      <trkpt lat="49.28365" lon="1.04937">
        <ele>15.7</ele>
        <time>2019-11-11T08:59:25Z</time>
      </trkpt>
      <trkpt lat="49.28362" lon="1.04937">
        <ele>15.7</ele>
        <time>2019-11-11T08:59:26Z</time>
      </trkpt>
      <trkpt lat="49.28359" lon="1.04938">
        <ele>16.8</ele>
        <time>2019-11-11T08:59:27Z</time>
      </trkpt>
      <trkpt lat="49.28356" lon="1.04939">
        <ele>16.8</ele>
        <time>2019-11-11T08:59:28Z</time>
      </trkpt>
      <trkpt lat="49.28352" lon="1.04939">
        <ele>16.8</ele>
        <time>2019-11-11T08:59:29Z</time>
      </trkpt>
      <trkpt lat="49.28349" lon="1.0494">
        <ele>16.8</ele>
        <time>2019-11-11T08:59:30Z</time>
      </trkpt>
      <trkpt lat="49.28345" lon="1.04941">
        <ele>16.8</ele>
        <time>2019-11-11T08:59:31Z</time>
      </trkpt>
      <trkpt lat="49.28342" lon="1.04942">
        <ele>16.8</ele>
        <time>2019-11-11T08:59:32Z</time>
      </trkpt>
      <trkpt lat="49.28338" lon="1.04942">
        <ele>16.8</ele>
        <time>2019-11-11T08:59:33Z</time>
      </trkpt>
      <trkpt lat="49.28335" lon="1.04943">
        <ele>16.8</ele>
        <time>2019-11-11T08:59:34Z</time>
      </trkpt>
      <trkpt lat="49.28331" lon="1.04944">
        <ele>17.7</ele>
        <time>2019-11-11T08:59:35Z</time>
      </trkpt>
      <trkpt lat="49.28328" lon="1.04945">
        <ele>17.7</ele>
        <time>2019-11-11T08:59:36Z</time>
      </trkpt>
      <trkpt lat="49.28324" lon="1.04946">
        <ele>17.7</ele>
        <time>2019-11-11T08:59:37Z</time>
      </trkpt>
      <trkpt lat="49.28321" lon="1.04947">
        <ele>17.7</ele>
        <time>2019-11-11T08:59:38Z</time>
      </trkpt>
      <trkpt lat="49.28317" lon="1.04948">
        <ele>17.7</ele>
        <time>2019-11-11T08:59:39Z</time>
      </trkpt>
      <trkpt lat="49.28314" lon="1.04949">
        <ele>17.7</ele>
        <time>2019-11-11T08:59:40Z</time>
      </trkpt>
      <trkpt lat="49.2831" lon="1.0495">
        <ele>18.7</ele>
        <time>2019-11-11T08:59:41Z</time>
      </trkpt>
      <trkpt lat="49.28307" lon="1.04951">
        <ele>18.7</ele>
        <time>2019-11-11T08:59:42Z</time>
      </trkpt>
      <trkpt lat="49.28303" lon="1.04952">
        <ele>18.7</ele>
        <time>2019-11-11T08:59:43Z</time>
      </trkpt>
      <trkpt lat="49.283" lon="1.04953">
        <ele>18.7</ele>
        <time>2019-11-11T08:59:44Z</time>
      </trkpt>
      <trkpt lat="49.28296" lon="1.04954">
        <ele>18.7</ele>
        <time>2019-11-11T08:59:45Z</time>
      </trkpt>
      <trkpt lat="49.28293" lon="1.04955">
        <ele>18.7</ele>
        <time>2019-11-11T08:59:46Z</time>
      </trkpt>
      <trkpt lat="49.2829" lon="1.04955">
        <ele>18.7</ele>
        <time>2019-11-11T08:59:47Z</time>
      </trkpt>
      <trkpt lat="49.28286" lon="1.04956">
        <ele>18.7</ele>
        <time>2019-11-11T08:59:48Z</time>
      </trkpt>
      <trkpt lat="49.28283" lon="1.04957">
        <ele>18.7</ele>
        <time>2019-11-11T08:59:49Z</time>
      </trkpt>
      <trkpt lat="49.2828" lon="1.04959">
        <ele>18.7</ele>
        <time>2019-11-11T08:59:50Z</time>
      </trkpt>
      <trkpt lat="49.28276" lon="1.0496">
        <ele>18.7</ele>
        <time>2019-11-11T08:59:51Z</time>
      </trkpt>
      <trkpt lat="49.28273" lon="1.04961">
        <ele>18.7</ele>
        <time>2019-11-11T08:59:52Z</time>
      </trkpt>
      <trkpt lat="49.28269" lon="1.04962">
        <ele>18.7</ele>
        <time>2019-11-11T08:59:53Z</time>
      </trkpt>
      <trkpt lat="49.28266" lon="1.04963">
        <ele>18.7</ele>
        <time>2019-11-11T08:59:54Z</time>
      </trkpt>
      <trkpt lat="49.28262" lon="1.04964">
        <ele>18.7</ele>
        <time>2019-11-11T08:59:55Z</time>
      </trkpt>
      <trkpt lat="49.28259" lon="1.04965">
        <ele>18.7</ele>
        <time>2019-11-11T08:59:56Z</time>
      </trkpt>
      <trkpt lat="49.28255" lon="1.04966">
        <ele>18.7</ele>
        <time>2019-11-11T08:59:57Z</time>
      </trkpt>
      <trkpt lat="49.28252" lon="1.04967">
        <ele>18.7</ele>
        <time>2019-11-11T08:59:58Z</time>
      </trkpt>
      <trkpt lat="49.28249" lon="1.04968">
        <ele>18.7</ele>
        <time>2019-11-11T08:59:59Z</time>
      </trkpt>
      <trkpt lat="49.28245" lon="1.04969">
        <ele>18.7</ele>
        <time>2019-11-11T09:00:00Z</time>
      </trkpt>
      <trkpt lat="49.28242" lon="1.0497">
        <ele>18.7</ele>
        <time>2019-11-11T09:00:01Z</time>
      </trkpt>
      <trkpt lat="49.28238" lon="1.04971">
        <ele>18.7</ele>
        <time>2019-11-11T09:00:02Z</time>
      </trkpt>
      <trkpt lat="49.28235" lon="1.04972">
        <ele>18.7</ele>
        <time>2019-11-11T09:00:03Z</time>
      </trkpt>
      <trkpt lat="49.28231" lon="1.04973">
        <ele>18.7</ele>
        <time>2019-11-11T09:00:04Z</time>
      </trkpt>
      <trkpt lat="49.28228" lon="1.04974">
        <ele>18.7</ele>
        <time>2019-11-11T09:00:05Z</time>
      </trkpt>
      <trkpt lat="49.28224" lon="1.04975">
        <ele>18.7</ele>
        <time>2019-11-11T09:00:06Z</time>
      </trkpt>
      <trkpt lat="49.2822" lon="1.04976">
        <ele>18.7</ele>
        <time>2019-11-11T09:00:07Z</time>
      </trkpt>
      <trkpt lat="49.28217" lon="1.04978">
        <ele>18.7</ele>
        <time>2019-11-11T09:00:08Z</time>
      </trkpt>
      <trkpt lat="49.28213" lon="1.04978">
        <ele>18.7</ele>
        <time>2019-11-11T09:00:09Z</time>
      </trkpt>
      <trkpt lat="49.28209" lon="1.04979">
        <ele>18.7</ele>
        <time>2019-11-11T09:00:10Z</time>
      </trkpt>
      <trkpt lat="49.28205" lon="1.0498">
        <ele>18.7</ele>
        <time>2019-11-11T09:00:11Z</time>
      </trkpt>
      <trkpt lat="49.28202" lon="1.04981">
        <ele>18.7</ele>
        <time>2019-11-11T09:00:12Z</time>
      </trkpt>
      <trkpt lat="49.28198" lon="1.04982">
        <ele>18.7</ele>
        <time>2019-11-11T09:00:13Z</time>
      </trkpt>
      <trkpt lat="49.28194" lon="1.04983">
        <ele>18.7</ele>
        <time>2019-11-11T09:00:14Z</time>
      </trkpt>
      <trkpt lat="49.2819" lon="1.04983">
        <ele>18.7</ele>
        <time>2019-11-11T09:00:15Z</time>
      </trkpt>
      <trkpt lat="49.28187" lon="1.04984">
        <ele>18.7</ele>
        <time>2019-11-11T09:00:16Z</time>
      </trkpt>
      <trkpt lat="49.28183" lon="1.04984">
        <ele>18.7</ele>
        <time>2019-11-11T09:00:17Z</time>
      </trkpt>
      <trkpt lat="49.28179" lon="1.04985">
        <ele>18.7</ele>
        <time>2019-11-11T09:00:18Z</time>
      </trkpt>
      <trkpt lat="49.28176" lon="1.04985">
        <ele>18.7</ele>
        <time>2019-11-11T09:00:19Z</time>
      </trkpt>
      <trkpt lat="49.28172" lon="1.04985">
        <ele>18.7</ele>
        <time>2019-11-11T09:00:20Z</time>
      </trkpt>
      <trkpt lat="49.28168" lon="1.04985">
        <ele>18.7</ele>
        <time>2019-11-11T09:00:21Z</time>
      </trkpt>
      <trkpt lat="49.28164" lon="1.04985">
        <ele>18.7</ele>
        <time>2019-11-11T09:00:22Z</time>
      </trkpt>
      <trkpt lat="49.2816" lon="1.04986">
        <ele>20.7</ele>
        <time>2019-11-11T09:00:23Z</time>
      </trkpt>
      <trkpt lat="49.28157" lon="1.04986">
        <ele>20.7</ele>
        <time>2019-11-11T09:00:24Z</time>
      </trkpt>
      <trkpt lat="49.28153" lon="1.04986">
        <ele>20.7</ele>
        <time>2019-11-11T09:00:25Z</time>
      </trkpt>
      <trkpt lat="49.28149" lon="1.04986">
        <ele>20.7</ele>
        <time>2019-11-11T09:00:26Z</time>
      </trkpt>
      <trkpt lat="49.28145" lon="1.04986">
        <ele>20.7</ele>
        <time>2019-11-11T09:00:27Z</time>
      </trkpt>
      <trkpt lat="49.28141" lon="1.04986">
        <ele>20.7</ele>
        <time>2019-11-11T09:00:28Z</time>
      </trkpt>
      <trkpt lat="49.28137" lon="1.04987">
        <ele>20.7</ele>
        <time>2019-11-11T09:00:29Z</time>
      </trkpt>
      <trkpt lat="49.28134" lon="1.04987">
        <ele>20.7</ele>
        <time>2019-11-11T09:00:30Z</time>
      </trkpt>
      <trkpt lat="49.2813" lon="1.04988">
        <ele>20.7</ele>
        <time>2019-11-11T09:00:31Z</time>
      </trkpt>
      <trkpt lat="49.28126" lon="1.04988">
        <ele>20.7</ele>
        <time>2019-11-11T09:00:32Z</time>
      </trkpt>
      <trkpt lat="49.28122" lon="1.04988">
        <ele>20.7</ele>
        <time>2019-11-11T09:00:33Z</time>
      </trkpt>
      <trkpt lat="49.28119" lon="1.04989">
        <ele>20.7</ele>
        <time>2019-11-11T09:00:34Z</time>
      </trkpt>
      <trkpt lat="49.28115" lon="1.04989">
        <ele>20.7</ele>
        <time>2019-11-11T09:00:35Z</time>
      </trkpt>
      <trkpt lat="49.28111" lon="1.0499">
        <ele>20.7</ele>
        <time>2019-11-11T09:00:36Z</time>
      </trkpt>
      <trkpt lat="49.28107" lon="1.0499">
        <ele>20.7</ele>
        <time>2019-11-11T09:00:37Z</time>
      </trkpt>
      <trkpt lat="49.28104" lon="1.04991">
        <ele>20.7</ele>
        <time>2019-11-11T09:00:38Z</time>
      </trkpt>
      <trkpt lat="49.281" lon="1.04992">
        <ele>20.7</ele>
        <time>2019-11-11T09:00:39Z</time>
      </trkpt>
      <trkpt lat="49.28096" lon="1.04992">
        <ele>20.7</ele>
        <time>2019-11-11T09:00:40Z</time>
      </trkpt>
      <trkpt lat="49.28092" lon="1.04993">
        <ele>20.7</ele>
        <time>2019-11-11T09:00:41Z</time>
      </trkpt>
      <trkpt lat="49.28088" lon="1.04994">
        <ele>20.7</ele>
        <time>2019-11-11T09:00:42Z</time>
      </trkpt>
      <trkpt lat="49.28084" lon="1.04994">
        <ele>20.7</ele>
        <time>2019-11-11T09:00:43Z</time>
      </trkpt>
      <trkpt lat="49.2808" lon="1.04995">
        <ele>20.7</ele>
        <time>2019-11-11T09:00:44Z</time>
      </trkpt>
      <trkpt lat="49.28075" lon="1.04996">
        <ele>20.7</ele>
        <time>2019-11-11T09:00:45Z</time>
      </trkpt>
      <trkpt lat="49.28071" lon="1.04996">
        <ele>20.7</ele>
        <time>2019-11-11T09:00:46Z</time>
      </trkpt>
      <trkpt lat="49.28067" lon="1.04997">
        <ele>20.7</ele>
        <time>2019-11-11T09:00:47Z</time>
      </trkpt>
      <trkpt lat="49.28063" lon="1.04998">
        <ele>20.7</ele>
        <time>2019-11-11T09:00:48Z</time>
      </trkpt>
      <trkpt lat="49.28059" lon="1.05">
        <ele>20.7</ele>
        <time>2019-11-11T09:00:49Z</time>
      </trkpt>
      <trkpt lat="49.28054" lon="1.05001">
        <ele>20.7</ele>
        <time>2019-11-11T09:00:50Z</time>
      </trkpt>
      <trkpt lat="49.28049" lon="1.05002">
        <ele>20.7</ele>
        <time>2019-11-11T09:00:51Z</time>
      </trkpt>
      <trkpt lat="49.28044" lon="1.05003">
        <ele>20.7</ele>
        <time>2019-11-11T09:00:52Z</time>
      </trkpt>
      <trkpt lat="49.28039" lon="1.05004">
        <ele>20.7</ele>
        <time>2019-11-11T09:00:53Z</time>
      </trkpt>
      <trkpt lat="49.28034" lon="1.05005">
        <ele>20.7</ele>
        <time>2019-11-11T09:00:54Z</time>
      </trkpt>
      <trkpt lat="49.28029" lon="1.05007">
        <ele>20.7</ele>
        <time>2019-11-11T09:00:55Z</time>
      </trkpt>
      <trkpt lat="49.28024" lon="1.05008">
        <ele>20.7</ele>
        <time>2019-11-11T09:00:56Z</time>
      </trkpt>
      <trkpt lat="49.28018" lon="1.0501">
        <ele>20.7</ele>
        <time>2019-11-11T09:00:57Z</time>
      </trkpt>
      <trkpt lat="49.28012" lon="1.05012">
        <ele>20.7</ele>
        <time>2019-11-11T09:00:58Z</time>
      </trkpt>
      <trkpt lat="49.28007" lon="1.05013">
        <ele>20.7</ele>
        <time>2019-11-11T09:00:59Z</time>
      </trkpt>
      <trkpt lat="49.28001" lon="1.05015">
        <ele>20.7</ele>
        <time>2019-11-11T09:01:00Z</time>
      </trkpt>
      <trkpt lat="49.27995" lon="1.05017">
        <ele>20.7</ele>
        <time>2019-11-11T09:01:01Z</time>
      </trkpt>
      <trkpt lat="49.27989" lon="1.05018">
        <ele>20.7</ele>
        <time>2019-11-11T09:01:02Z</time>
      </trkpt>
      <trkpt lat="49.27984" lon="1.0502">
        <ele>20.7</ele>
        <time>2019-11-11T09:01:03Z</time>
      </trkpt>
      <trkpt lat="49.27978" lon="1.05021">
        <ele>20.7</ele>
        <time>2019-11-11T09:01:04Z</time>
      </trkpt>
      <trkpt lat="49.27972" lon="1.05021">
        <ele>18.7</ele>
        <time>2019-11-11T09:01:05Z</time>
      </trkpt>
      <trkpt lat="49.27967" lon="1.05021">
        <ele>18.7</ele>
        <time>2019-11-11T09:01:06Z</time>
      </trkpt>
      <trkpt lat="49.27962" lon="1.0502">
        <ele>18.7</ele>
        <time>2019-11-11T09:01:07Z</time>
      </trkpt>
      <trkpt lat="49.27957" lon="1.05019">
        <ele>18.7</ele>
        <time>2019-11-11T09:01:08Z</time>
      </trkpt>
      <trkpt lat="49.27952" lon="1.05018">
        <ele>16.8</ele>
        <time>2019-11-11T09:01:09Z</time>
      </trkpt>
      <trkpt lat="49.27948" lon="1.05017">
        <ele>16.8</ele>
        <time>2019-11-11T09:01:10Z</time>
      </trkpt>
      <trkpt lat="49.27943" lon="1.05016">
        <ele>16.8</ele>
        <time>2019-11-11T09:01:11Z</time>
      </trkpt>
      <trkpt lat="49.27939" lon="1.05015">
        <ele>16.8</ele>
        <time>2019-11-11T09:01:12Z</time>
      </trkpt>
      <trkpt lat="49.27934" lon="1.05013">
        <ele>15.7</ele>
        <time>2019-11-11T09:01:13Z</time>
      </trkpt>
      <trkpt lat="49.2793" lon="1.05012">
        <ele>15.7</ele>
        <time>2019-11-11T09:01:14Z</time>
      </trkpt>
      <trkpt lat="49.27926" lon="1.05011">
        <ele>15.7</ele>
        <time>2019-11-11T09:01:15Z</time>
      </trkpt>
      <trkpt lat="49.27922" lon="1.0501">
        <ele>15.7</ele>
        <time>2019-11-11T09:01:16Z</time>
      </trkpt>
      <trkpt lat="49.27917" lon="1.05008">
        <ele>15.7</ele>
        <time>2019-11-11T09:01:17Z</time>
      </trkpt>
      <trkpt lat="49.27913" lon="1.05007">
        <ele>15.7</ele>
        <time>2019-11-11T09:01:18Z</time>
      </trkpt>
      <trkpt lat="49.27909" lon="1.05006">
        <ele>15.7</ele>
        <time>2019-11-11T09:01:19Z</time>
      </trkpt>
      <trkpt lat="49.27905" lon="1.05004">
        <ele>15.7</ele>
        <time>2019-11-11T09:01:20Z</time>
      </trkpt>
      <trkpt lat="49.27901" lon="1.05003">
        <ele>15.7</ele>
        <time>2019-11-11T09:01:21Z</time>
      </trkpt>
      <trkpt lat="49.27897" lon="1.05002">
        <ele>15.7</ele>
        <time>2019-11-11T09:01:22Z</time>
      </trkpt>
      <trkpt lat="49.27892" lon="1.05">
        <ele>15.7</ele>
        <time>2019-11-11T09:01:23Z</time>
      </trkpt>
      <trkpt lat="49.27888" lon="1.04999">
        <ele>15.7</ele>
        <time>2019-11-11T09:01:24Z</time>
      </trkpt>
      <trkpt lat="49.27883" lon="1.04998">
        <ele>15.7</ele>
        <time>2019-11-11T09:01:25Z</time>
      </trkpt>
      <trkpt lat="49.27879" lon="1.04996">
        <ele>15.7</ele>
        <time>2019-11-11T09:01:26Z</time>
      </trkpt>
      <trkpt lat="49.27874" lon="1.04995">
        <ele>15.7</ele>
        <time>2019-11-11T09:01:27Z</time>
      </trkpt>
      <trkpt lat="49.2787" lon="1.04993">
        <ele>15.7</ele>
        <time>2019-11-11T09:01:28Z</time>
      </trkpt>
      <trkpt lat="49.27866" lon="1.04992">
        <ele>15.7</ele>
        <time>2019-11-11T09:01:29Z</time>
      </trkpt>
      <trkpt lat="49.27861" lon="1.0499">
        <ele>15.7</ele>
        <time>2019-11-11T09:01:30Z</time>
      </trkpt>
      <trkpt lat="49.27857" lon="1.04989">
        <ele>15.7</ele>
        <time>2019-11-11T09:01:31Z</time>
      </trkpt>
      <trkpt lat="49.27853" lon="1.04988">
        <ele>15.7</ele>
        <time>2019-11-11T09:01:32Z</time>
      </trkpt>
      <trkpt lat="49.27848" lon="1.04986">
        <ele>15.7</ele>
        <time>2019-11-11T09:01:33Z</time>
      </trkpt>
      <trkpt lat="49.27844" lon="1.04985">
        <ele>15.7</ele>
        <time>2019-11-11T09:01:34Z</time>
      </trkpt>
      <trkpt lat="49.2784" lon="1.04984">
        <ele>15.7</ele>
        <time>2019-11-11T09:01:35Z</time>
      </trkpt>
      <trkpt lat="49.27836" lon="1.04982">
        <ele>15.7</ele>
        <time>2019-11-11T09:01:36Z</time>
      </trkpt>
      <trkpt lat="49.27832" lon="1.04981">
        <ele>15.7</ele>
        <time>2019-11-11T09:01:37Z</time>
      </trkpt>
      <trkpt lat="49.27828" lon="1.0498">
        <ele>15.7</ele>
        <time>2019-11-11T09:01:38Z</time>
      </trkpt>
      <trkpt lat="49.27824" lon="1.04979">
        <ele>16.8</ele>
        <time>2019-11-11T09:01:39Z</time>
      </trkpt>
      <trkpt lat="49.27819" lon="1.04977">
        <ele>16.8</ele>
        <time>2019-11-11T09:01:40Z</time>
      </trkpt>
      <trkpt lat="49.27815" lon="1.04976">
        <ele>16.8</ele>
        <time>2019-11-11T09:01:41Z</time>
      </trkpt>
      <trkpt lat="49.27811" lon="1.04975">
        <ele>16.8</ele>
        <time>2019-11-11T09:01:42Z</time>
      </trkpt>
      <trkpt lat="49.27807" lon="1.04974">
        <ele>16.8</ele>
        <time>2019-11-11T09:01:43Z</time>
      </trkpt>
      <trkpt lat="49.27803" lon="1.04973">
        <ele>16.8</ele>
        <time>2019-11-11T09:01:44Z</time>
      </trkpt>
      <trkpt lat="49.278" lon="1.04971">
        <ele>17.7</ele>
        <time>2019-11-11T09:01:45Z</time>
      </trkpt>
      <trkpt lat="49.27796" lon="1.0497">
        <ele>17.7</ele>
        <time>2019-11-11T09:01:46Z</time>
      </trkpt>
      <trkpt lat="49.27792" lon="1.04969">
        <ele>17.7</ele>
        <time>2019-11-11T09:01:47Z</time>
      </trkpt>
      <trkpt lat="49.27788" lon="1.04968">
        <ele>17.7</ele>
        <time>2019-11-11T09:01:48Z</time>
      </trkpt>
      <trkpt lat="49.27785" lon="1.04967">
        <ele>17.7</ele>
        <time>2019-11-11T09:01:49Z</time>
      </trkpt>
      <trkpt lat="49.27781" lon="1.04967">
        <ele>17.7</ele>
        <time>2019-11-11T09:01:50Z</time>
      </trkpt>
      <trkpt lat="49.27777" lon="1.04966">
        <ele>17.7</ele>
        <time>2019-11-11T09:01:51Z</time>
      </trkpt>
      <trkpt lat="49.27774" lon="1.04966">
        <ele>17.7</ele>
        <time>2019-11-11T09:01:52Z</time>
      </trkpt>
      <trkpt lat="49.2777" lon="1.04965">
        <ele>17.7</ele>
        <time>2019-11-11T09:01:53Z</time>
      </trkpt>
      <trkpt lat="49.27767" lon="1.04965">
        <ele>17.7</ele>
        <time>2019-11-11T09:01:54Z</time>
      </trkpt>
      <trkpt lat="49.27763" lon="1.04965">
        <ele>17.7</ele>
        <time>2019-11-11T09:01:55Z</time>
      </trkpt>
      <trkpt lat="49.2776" lon="1.04966">
        <ele>17.7</ele>
        <time>2019-11-11T09:01:56Z</time>
      </trkpt>
      <trkpt lat="49.27756" lon="1.04967">
        <ele>18.7</ele>
        <time>2019-11-11T09:01:57Z</time>
      </trkpt>
      <trkpt lat="49.27752" lon="1.04968">
        <ele>18.7</ele>
        <time>2019-11-11T09:01:58Z</time>
      </trkpt>
      <trkpt lat="49.27749" lon="1.04969">
        <ele>18.7</ele>
        <time>2019-11-11T09:01:59Z</time>
      </trkpt>
      <trkpt lat="49.27746" lon="1.04971">
        <ele>18.7</ele>
        <time>2019-11-11T09:02:00Z</time>
      </trkpt>
      <trkpt lat="49.27742" lon="1.04972">
        <ele>18.7</ele>
        <time>2019-11-11T09:02:01Z</time>
      </trkpt>
      <trkpt lat="49.27739" lon="1.04974">
        <ele>18.7</ele>
        <time>2019-11-11T09:02:02Z</time>
      </trkpt>
      <trkpt lat="49.27735" lon="1.04975">
        <ele>18.7</ele>
        <time>2019-11-11T09:02:03Z</time>
      </trkpt>
      <trkpt lat="49.27732" lon="1.04977">
        <ele>18.7</ele>
        <time>2019-11-11T09:02:04Z</time>
      </trkpt>
      <trkpt lat="49.27729" lon="1.04978">
        <ele>18.7</ele>
        <time>2019-11-11T09:02:05Z</time>
      </trkpt>
      <trkpt lat="49.27725" lon="1.0498">
        <ele>18.7</ele>
        <time>2019-11-11T09:02:06Z</time>
      </trkpt>
      <trkpt lat="49.27722" lon="1.04981">
        <ele>18.7</ele>
        <time>2019-11-11T09:02:07Z</time>
      </trkpt>
      <trkpt lat="49.27718" lon="1.04983">
        <ele>18.7</ele>
        <time>2019-11-11T09:02:08Z</time>
      </trkpt>
      <trkpt lat="49.27715" lon="1.04984">
        <ele>18.7</ele>
        <time>2019-11-11T09:02:09Z</time>
      </trkpt>
      <trkpt lat="49.27712" lon="1.04986">
        <ele>18.7</ele>
        <time>2019-11-11T09:02:10Z</time>
      </trkpt>
      <trkpt lat="49.27709" lon="1.04987">
        <ele>18.7</ele>
        <time>2019-11-11T09:02:11Z</time>
      </trkpt>
      <trkpt lat="49.27705" lon="1.04988">
        <ele>18.7</ele>
        <time>2019-11-11T09:02:12Z</time>
      </trkpt>
      <trkpt lat="49.27702" lon="1.0499">
        <ele>20.7</ele>
        <time>2019-11-11T09:02:13Z</time>
      </trkpt>
      <trkpt lat="49.27698" lon="1.04991">
        <ele>20.7</ele>
        <time>2019-11-11T09:02:14Z</time>
      </trkpt>
      <trkpt lat="49.27695" lon="1.04992">
        <ele>20.7</ele>
        <time>2019-11-11T09:02:15Z</time>
      </trkpt>
      <trkpt lat="49.27692" lon="1.04994">
        <ele>20.7</ele>
        <time>2019-11-11T09:02:16Z</time>
      </trkpt>
      <trkpt lat="49.27688" lon="1.04995">
        <ele>21.8</ele>
        <time>2019-11-11T09:02:17Z</time>
      </trkpt>
      <trkpt lat="49.27685" lon="1.04997">
        <ele>21.8</ele>
        <time>2019-11-11T09:02:18Z</time>
      </trkpt>
      <trkpt lat="49.27682" lon="1.04998">
        <ele>21.8</ele>
        <time>2019-11-11T09:02:19Z</time>
      </trkpt>
      <trkpt lat="49.27678" lon="1.04999">
        <ele>21.8</ele>
        <time>2019-11-11T09:02:20Z</time>
      </trkpt>
      <trkpt lat="49.27675" lon="1.05001">
        <ele>21.8</ele>
        <time>2019-11-11T09:02:21Z</time>
      </trkpt>
      <trkpt lat="49.27672" lon="1.05002">
        <ele>21.8</ele>
        <time>2019-11-11T09:02:22Z</time>
      </trkpt>
      <trkpt lat="49.27669" lon="1.05003">
        <ele>21.8</ele>
        <time>2019-11-11T09:02:23Z</time>
      </trkpt>
      <trkpt lat="49.27666" lon="1.05005">
        <ele>21.8</ele>
        <time>2019-11-11T09:02:24Z</time>
      </trkpt>
      <trkpt lat="49.27663" lon="1.05006">
        <ele>21.8</ele>
        <time>2019-11-11T09:02:25Z</time>
      </trkpt>
      <trkpt lat="49.2766" lon="1.05007">
        <ele>21.8</ele>
        <time>2019-11-11T09:02:26Z</time>
      </trkpt>
      <trkpt lat="49.27657" lon="1.05008">
        <ele>21.8</ele>
        <time>2019-11-11T09:02:27Z</time>
      </trkpt>
      <trkpt lat="49.27655" lon="1.05009">
        <ele>21.8</ele>
        <time>2019-11-11T09:02:28Z</time>
      </trkpt>
      <trkpt lat="49.27652" lon="1.0501">
        <ele>21.8</ele>
        <time>2019-11-11T09:02:29Z</time>
      </trkpt>
      <trkpt lat="49.27649" lon="1.05011">
        <ele>21.8</ele>
        <time>2019-11-11T09:02:30Z</time>
      </trkpt>
      <trkpt lat="49.27645" lon="1.05013">
        <ele>21.8</ele>
        <time>2019-11-11T09:02:31Z</time>
      </trkpt>
      <trkpt lat="49.27642" lon="1.05014">
        <ele>21.8</ele>
        <time>2019-11-11T09:02:32Z</time>
      </trkpt>
      <trkpt lat="49.27639" lon="1.05015">
        <ele>22.7</ele>
        <time>2019-11-11T09:02:33Z</time>
      </trkpt>
      <trkpt lat="49.27635" lon="1.05015">
        <ele>22.7</ele>
        <time>2019-11-11T09:02:34Z</time>
      </trkpt>
      <trkpt lat="49.27631" lon="1.05016">
        <ele>22.7</ele>
        <time>2019-11-11T09:02:35Z</time>
      </trkpt>
      <trkpt lat="49.27628" lon="1.05017">
        <ele>22.7</ele>
        <time>2019-11-11T09:02:36Z</time>
      </trkpt>
      <trkpt lat="49.27624" lon="1.05017">
        <ele>22.7</ele>
        <time>2019-11-11T09:02:37Z</time>
      </trkpt>
      <trkpt lat="49.27621" lon="1.05016">
        <ele>22.7</ele>
        <time>2019-11-11T09:02:38Z</time>
      </trkpt>
      <trkpt lat="49.27617" lon="1.05016">
        <ele>22.7</ele>
        <time>2019-11-11T09:02:39Z</time>
      </trkpt>
      <trkpt lat="49.27613" lon="1.05016">
        <ele>22.7</ele>
        <time>2019-11-11T09:02:40Z</time>
      </trkpt>
      <trkpt lat="49.2761" lon="1.05017">
        <ele>22.7</ele>
        <time>2019-11-11T09:02:41Z</time>
      </trkpt>
      <trkpt lat="49.27606" lon="1.05017">
        <ele>22.7</ele>
        <time>2019-11-11T09:02:42Z</time>
      </trkpt>
      <trkpt lat="49.27602" lon="1.05018">
        <ele>22.7</ele>
        <time>2019-11-11T09:02:43Z</time>
      </trkpt>
      <trkpt lat="49.27598" lon="1.05019">
        <ele>22.7</ele>
        <time>2019-11-11T09:02:44Z</time>
      </trkpt>
      <trkpt lat="49.27595" lon="1.05019">
        <ele>22.7</ele>
        <time>2019-11-11T09:02:45Z</time>
      </trkpt>
      <trkpt lat="49.27591" lon="1.0502">
        <ele>22.7</ele>
        <time>2019-11-11T09:02:46Z</time>
      </trkpt>
      <trkpt lat="49.27587" lon="1.05021">
        <ele>23.8</ele>
        <time>2019-11-11T09:02:47Z</time>
      </trkpt>
      <trkpt lat="49.27583" lon="1.05021">
        <ele>23.8</ele>
        <time>2019-11-11T09:02:48Z</time>
      </trkpt>
      <trkpt lat="49.27579" lon="1.05021">
        <ele>23.8</ele>
        <time>2019-11-11T09:02:49Z</time>
      </trkpt>
      <trkpt lat="49.27576" lon="1.05022">
        <ele>23.8</ele>
        <time>2019-11-11T09:02:50Z</time>
      </trkpt>
      <trkpt lat="49.27572" lon="1.05022">
        <ele>23.8</ele>
        <time>2019-11-11T09:02:51Z</time>
      </trkpt>
      <trkpt lat="49.27568" lon="1.05022">
        <ele>23.8</ele>
        <time>2019-11-11T09:02:52Z</time>
      </trkpt>
      <trkpt lat="49.27564" lon="1.05023">
        <ele>23.8</ele>
        <time>2019-11-11T09:02:53Z</time>
      </trkpt>
      <trkpt lat="49.27561" lon="1.05023">
        <ele>23.8</ele>
        <time>2019-11-11T09:02:54Z</time>
      </trkpt>
      <trkpt lat="49.27557" lon="1.05024">
        <ele>23.8</ele>
        <time>2019-11-11T09:02:55Z</time>
      </trkpt>
      <trkpt lat="49.27553" lon="1.05024">
        <ele>23.8</ele>
        <time>2019-11-11T09:02:56Z</time>
      </trkpt>
      <trkpt lat="49.27549" lon="1.05025">
        <ele>23.8</ele>
        <time>2019-11-11T09:02:57Z</time>
      </trkpt>
      <trkpt lat="49.27545" lon="1.05025">
        <ele>23.8</ele>
        <time>2019-11-11T09:02:58Z</time>
      </trkpt>
      <trkpt lat="49.27542" lon="1.05025">
        <ele>23.8</ele>
        <time>2019-11-11T09:02:59Z</time>
      </trkpt>
      <trkpt lat="49.27538" lon="1.05025">
        <ele>23.8</ele>
        <time>2019-11-11T09:03:00Z</time>
      </trkpt>
      <trkpt lat="49.27534" lon="1.05025">
        <ele>23.8</ele>
        <time>2019-11-11T09:03:01Z</time>
      </trkpt>
      <trkpt lat="49.2753" lon="1.05025">
        <ele>23.8</ele>
        <time>2019-11-11T09:03:02Z</time>
      </trkpt>
      <trkpt lat="49.27526" lon="1.05025">
        <ele>23.8</ele>
        <time>2019-11-11T09:03:03Z</time>
      </trkpt>
      <trkpt lat="49.27522" lon="1.05024">
        <ele>23.8</ele>
        <time>2019-11-11T09:03:04Z</time>
      </trkpt>
      <trkpt lat="49.27519" lon="1.05023">
        <ele>23.8</ele>
        <time>2019-11-11T09:03:05Z</time>
      </trkpt>
      <trkpt lat="49.27515" lon="1.05022">
        <ele>23.8</ele>
        <time>2019-11-11T09:03:06Z</time>
      </trkpt>
      <trkpt lat="49.27511" lon="1.05021">
        <ele>23.8</ele>
        <time>2019-11-11T09:03:07Z</time>
      </trkpt>
      <trkpt lat="49.27507" lon="1.0502">
        <ele>23.8</ele>
        <time>2019-11-11T09:03:08Z</time>
      </trkpt>
      <trkpt lat="49.27503" lon="1.0502">
        <ele>23.8</ele>
        <time>2019-11-11T09:03:09Z</time>
      </trkpt>
      <trkpt lat="49.275" lon="1.05019">
        <ele>23.8</ele>
        <time>2019-11-11T09:03:10Z</time>
      </trkpt>
      <trkpt lat="49.27496" lon="1.05019">
        <ele>23.8</ele>
        <time>2019-11-11T09:03:11Z</time>
      </trkpt>
      <trkpt lat="49.27493" lon="1.05018">
        <ele>23.8</ele>
        <time>2019-11-11T09:03:12Z</time>
      </trkpt>
      <trkpt lat="49.27489" lon="1.05018">
        <ele>23.8</ele>
        <time>2019-11-11T09:03:13Z</time>
      </trkpt>
      <trkpt lat="49.27486" lon="1.05018">
        <ele>23.8</ele>
        <time>2019-11-11T09:03:14Z</time>
      </trkpt>
      <trkpt lat="49.27482" lon="1.05018">
        <ele>23.8</ele>
        <time>2019-11-11T09:03:15Z</time>
      </trkpt>
      <trkpt lat="49.27478" lon="1.05018">
        <ele>23.8</ele>
        <time>2019-11-11T09:03:16Z</time>
      </trkpt>
      <trkpt lat="49.27475" lon="1.05018">
        <ele>23.8</ele>
        <time>2019-11-11T09:03:17Z</time>
      </trkpt>
      <trkpt lat="49.27471" lon="1.05018">
        <ele>23.8</ele>
        <time>2019-11-11T09:03:18Z</time>
      </trkpt>
      <trkpt lat="49.27467" lon="1.05018">
        <ele>23.8</ele>
        <time>2019-11-11T09:03:19Z</time>
      </trkpt>
      <trkpt lat="49.27463" lon="1.05018">
        <ele>23.8</ele>
        <time>2019-11-11T09:03:20Z</time>
      </trkpt>
      <trkpt lat="49.27459" lon="1.05019">
        <ele>23.8</ele>
        <time>2019-11-11T09:03:21Z</time>
      </trkpt>
      <trkpt lat="49.27455" lon="1.05019">
        <ele>23.8</ele>
        <time>2019-11-11T09:03:22Z</time>
      </trkpt>
      <trkpt lat="49.27451" lon="1.0502">
        <ele>23.8</ele>
        <time>2019-11-11T09:03:23Z</time>
      </trkpt>
      <trkpt lat="49.27447" lon="1.0502">
        <ele>23.8</ele>
        <time>2019-11-11T09:03:24Z</time>
      </trkpt>
      <trkpt lat="49.27443" lon="1.05021">
        <ele>23.8</ele>
        <time>2019-11-11T09:03:25Z</time>
      </trkpt>
      <trkpt lat="49.27439" lon="1.05021">
        <ele>23.8</ele>
        <time>2019-11-11T09:03:26Z</time>
      </trkpt>
      <trkpt lat="49.27435" lon="1.05022">
        <ele>23.8</ele>
        <time>2019-11-11T09:03:27Z</time>
      </trkpt>
      <trkpt lat="49.27431" lon="1.05022">
        <ele>23.8</ele>
        <time>2019-11-11T09:03:28Z</time>
      </trkpt>
      <trkpt lat="49.27426" lon="1.05023">
        <ele>24.7</ele>
        <time>2019-11-11T09:03:29Z</time>
      </trkpt>
      <trkpt lat="49.27422" lon="1.05023">
        <ele>24.7</ele>
        <time>2019-11-11T09:03:30Z</time>
      </trkpt>
      <trkpt lat="49.27418" lon="1.05024">
        <ele>24.7</ele>
        <time>2019-11-11T09:03:31Z</time>
      </trkpt>
      <trkpt lat="49.27414" lon="1.05025">
        <ele>24.7</ele>
        <time>2019-11-11T09:03:32Z</time>
      </trkpt>
      <trkpt lat="49.2741" lon="1.05026">
        <ele>24.7</ele>
        <time>2019-11-11T09:03:33Z</time>
      </trkpt>
      <trkpt lat="49.27406" lon="1.05026">
        <ele>24.7</ele>
        <time>2019-11-11T09:03:34Z</time>
      </trkpt>
      <trkpt lat="49.27401" lon="1.05027">
        <ele>24.7</ele>
        <time>2019-11-11T09:03:35Z</time>
      </trkpt>
      <trkpt lat="49.27397" lon="1.05028">
        <ele>24.7</ele>
        <time>2019-11-11T09:03:36Z</time>
      </trkpt>
      <trkpt lat="49.27393" lon="1.05029">
        <ele>24.7</ele>
        <time>2019-11-11T09:03:37Z</time>
      </trkpt>
      <trkpt lat="49.27389" lon="1.0503">
        <ele>24.7</ele>
        <time>2019-11-11T09:03:38Z</time>
      </trkpt>
      <trkpt lat="49.27385" lon="1.05031">
        <ele>24.7</ele>
        <time>2019-11-11T09:03:39Z</time>
      </trkpt>
      <trkpt lat="49.27381" lon="1.05032">
        <ele>24.7</ele>
        <time>2019-11-11T09:03:40Z</time>
      </trkpt>
      <trkpt lat="49.27376" lon="1.05033">
        <ele>24.7</ele>
        <time>2019-11-11T09:03:41Z</time>
      </trkpt>
      <trkpt lat="49.27372" lon="1.05034">
        <ele>24.7</ele>
        <time>2019-11-11T09:03:42Z</time>
      </trkpt>
      <trkpt lat="49.27368" lon="1.05036">
        <ele>24.7</ele>
        <time>2019-11-11T09:03:43Z</time>
      </trkpt>
      <trkpt lat="49.27364" lon="1.05037">
        <ele>24.7</ele>
        <time>2019-11-11T09:03:44Z</time>
      </trkpt>
      <trkpt lat="49.27359" lon="1.05038">
        <ele>24.7</ele>
        <time>2019-11-11T09:03:45Z</time>
      </trkpt>
      <trkpt lat="49.27355" lon="1.05039">
        <ele>24.7</ele>
        <time>2019-11-11T09:03:46Z</time>
      </trkpt>
      <trkpt lat="49.27351" lon="1.05041">
        <ele>24.7</ele>
        <time>2019-11-11T09:03:47Z</time>
      </trkpt>
      <trkpt lat="49.27347" lon="1.05042">
        <ele>24.7</ele>
        <time>2019-11-11T09:03:48Z</time>
      </trkpt>
      <trkpt lat="49.27342" lon="1.05043">
        <ele>24.7</ele>
        <time>2019-11-11T09:03:49Z</time>
      </trkpt>
      <trkpt lat="49.27338" lon="1.05044">
        <ele>24.7</ele>
        <time>2019-11-11T09:03:50Z</time>
      </trkpt>
      <trkpt lat="49.27334" lon="1.05046">
        <ele>25.8</ele>
        <time>2019-11-11T09:03:51Z</time>
      </trkpt>
      <trkpt lat="49.2733" lon="1.05047">
        <ele>25.8</ele>
        <time>2019-11-11T09:03:52Z</time>
      </trkpt>
      <trkpt lat="49.27325" lon="1.05048">
        <ele>25.8</ele>
        <time>2019-11-11T09:03:53Z</time>
      </trkpt>
      <trkpt lat="49.27321" lon="1.0505">
        <ele>25.8</ele>
        <time>2019-11-11T09:03:54Z</time>
      </trkpt>
      <trkpt lat="49.27317" lon="1.05051">
        <ele>25.8</ele>
        <time>2019-11-11T09:03:55Z</time>
      </trkpt>
      <trkpt lat="49.27313" lon="1.05052">
        <ele>25.8</ele>
        <time>2019-11-11T09:03:56Z</time>
      </trkpt>
      <trkpt lat="49.27308" lon="1.05053">
        <ele>26.7</ele>
        <time>2019-11-11T09:03:57Z</time>
      </trkpt>
      <trkpt lat="49.27304" lon="1.05054">
        <ele>26.7</ele>
        <time>2019-11-11T09:03:58Z</time>
      </trkpt>
      <trkpt lat="49.273" lon="1.05055">
        <ele>26.7</ele>
        <time>2019-11-11T09:03:59Z</time>
      </trkpt>
      <trkpt lat="49.27296" lon="1.05056">
        <ele>26.7</ele>
        <time>2019-11-11T09:04:00Z</time>
      </trkpt>
      <trkpt lat="49.27291" lon="1.05057">
        <ele>26.7</ele>
        <time>2019-11-11T09:04:01Z</time>
      </trkpt>
      <trkpt lat="49.27287" lon="1.05058">
        <ele>26.7</ele>
        <time>2019-11-11T09:04:02Z</time>
      </trkpt>
      <trkpt lat="49.27283" lon="1.05058">
        <ele>26.7</ele>
        <time>2019-11-11T09:04:03Z</time>
      </trkpt>
      <trkpt lat="49.27279" lon="1.05059">
        <ele>26.7</ele>
        <time>2019-11-11T09:04:04Z</time>
      </trkpt>
      <trkpt lat="49.27275" lon="1.0506">
        <ele>26.7</ele>
        <time>2019-11-11T09:04:05Z</time>
      </trkpt>
      <trkpt lat="49.27271" lon="1.0506">
        <ele>26.7</ele>
        <time>2019-11-11T09:04:06Z</time>
      </trkpt>
      <trkpt lat="49.27268" lon="1.0506">
        <ele>26.7</ele>
        <time>2019-11-11T09:04:07Z</time>
      </trkpt>
      <trkpt lat="49.27264" lon="1.0506">
        <ele>26.7</ele>
        <time>2019-11-11T09:04:08Z</time>
      </trkpt>
      <trkpt lat="49.27261" lon="1.0506">
        <ele>26.7</ele>
        <time>2019-11-11T09:04:09Z</time>
      </trkpt>
      <trkpt lat="49.27257" lon="1.0506">
        <ele>26.7</ele>
        <time>2019-11-11T09:04:10Z</time>
      </trkpt>
      <trkpt lat="49.27254" lon="1.05059">
        <ele>26.7</ele>
        <time>2019-11-11T09:04:11Z</time>
      </trkpt>
      <trkpt lat="49.27249" lon="1.05059">
        <ele>26.7</ele>
        <time>2019-11-11T09:04:12Z</time>
      </trkpt>
      <trkpt lat="49.27245" lon="1.05057">
        <ele>26.7</ele>
        <time>2019-11-11T09:04:13Z</time>
      </trkpt>
      <trkpt lat="49.27241" lon="1.05056">
        <ele>26.7</ele>
        <time>2019-11-11T09:04:14Z</time>
      </trkpt>
      <trkpt lat="49.27237" lon="1.05055">
        <ele>26.7</ele>
        <time>2019-11-11T09:04:15Z</time>
      </trkpt>
      <trkpt lat="49.27233" lon="1.05053">
        <ele>26.7</ele>
        <time>2019-11-11T09:04:16Z</time>
      </trkpt>
      <trkpt lat="49.27229" lon="1.05052">
        <ele>26.7</ele>
        <time>2019-11-11T09:04:17Z</time>
      </trkpt>
      <trkpt lat="49.27225" lon="1.0505">
        <ele>26.7</ele>
        <time>2019-11-11T09:04:18Z</time>
      </trkpt>
      <trkpt lat="49.27221" lon="1.05049">
        <ele>26.7</ele>
        <time>2019-11-11T09:04:19Z</time>
      </trkpt>
      <trkpt lat="49.27217" lon="1.05047">
        <ele>26.7</ele>
        <time>2019-11-11T09:04:20Z</time>
      </trkpt>
      <trkpt lat="49.27213" lon="1.05045">
        <ele>26.7</ele>
        <time>2019-11-11T09:04:21Z</time>
      </trkpt>
      <trkpt lat="49.27209" lon="1.05044">
        <ele>26.7</ele>
        <time>2019-11-11T09:04:22Z</time>
      </trkpt>
      <trkpt lat="49.27204" lon="1.05042">
        <ele>26.7</ele>
        <time>2019-11-11T09:04:23Z</time>
      </trkpt>
      <trkpt lat="49.272" lon="1.0504">
        <ele>26.7</ele>
        <time>2019-11-11T09:04:24Z</time>
      </trkpt>
      <trkpt lat="49.27196" lon="1.05039">
        <ele>26.7</ele>
        <time>2019-11-11T09:04:25Z</time>
      </trkpt>
      <trkpt lat="49.27192" lon="1.05037">
        <ele>26.7</ele>
        <time>2019-11-11T09:04:26Z</time>
      </trkpt>
      <trkpt lat="49.27187" lon="1.05036">
        <ele>26.7</ele>
        <time>2019-11-11T09:04:27Z</time>
      </trkpt>
      <trkpt lat="49.27183" lon="1.05035">
        <ele>26.7</ele>
        <time>2019-11-11T09:04:28Z</time>
      </trkpt>
      <trkpt lat="49.27179" lon="1.05034">
        <ele>26.7</ele>
        <time>2019-11-11T09:04:29Z</time>
      </trkpt>
      <trkpt lat="49.27174" lon="1.05033">
        <ele>26.7</ele>
        <time>2019-11-11T09:04:30Z</time>
      </trkpt>
      <trkpt lat="49.2717" lon="1.05033">
        <ele>26.7</ele>
        <time>2019-11-11T09:04:31Z</time>
      </trkpt>
      <trkpt lat="49.27166" lon="1.05033">
        <ele>26.7</ele>
        <time>2019-11-11T09:04:32Z</time>
      </trkpt>
      <trkpt lat="49.27161" lon="1.05033">
        <ele>26.7</ele>
        <time>2019-11-11T09:04:33Z</time>
      </trkpt>
      <trkpt lat="49.27157" lon="1.05033">
        <ele>26.7</ele>
        <time>2019-11-11T09:04:34Z</time>
      </trkpt>
      <trkpt lat="49.27153" lon="1.05033">
        <ele>26.7</ele>
        <time>2019-11-11T09:04:35Z</time>
      </trkpt>
      <trkpt lat="49.27148" lon="1.05033">
        <ele>26.7</ele>
        <time>2019-11-11T09:04:36Z</time>
      </trkpt>
      <trkpt lat="49.27144" lon="1.05033">
        <ele>26.7</ele>
        <time>2019-11-11T09:04:37Z</time>
      </trkpt>
      <trkpt lat="49.2714" lon="1.05033">
        <ele>26.7</ele>
        <time>2019-11-11T09:04:38Z</time>
      </trkpt>
      <trkpt lat="49.27137" lon="1.05033">
        <ele>26.7</ele>
        <time>2019-11-11T09:04:39Z</time>
      </trkpt>
      <trkpt lat="49.27133" lon="1.05032">
        <ele>26.7</ele>
        <time>2019-11-11T09:04:40Z</time>
      </trkpt>
      <trkpt lat="49.27129" lon="1.05032">
        <ele>26.7</ele>
        <time>2019-11-11T09:04:41Z</time>
      </trkpt>
      <trkpt lat="49.27125" lon="1.05033">
        <ele>26.7</ele>
        <time>2019-11-11T09:04:42Z</time>
      </trkpt>
      <trkpt lat="49.27121" lon="1.05033">
        <ele>26.7</ele>
        <time>2019-11-11T09:04:43Z</time>
      </trkpt>
      <trkpt lat="49.27117" lon="1.05034">
        <ele>26.7</ele>
        <time>2019-11-11T09:04:44Z</time>
      </trkpt>
      <trkpt lat="49.27113" lon="1.05034">
        <ele>26.7</ele>
        <time>2019-11-11T09:04:45Z</time>
      </trkpt>
      <trkpt lat="49.27109" lon="1.05035">
        <ele>26.7</ele>
        <time>2019-11-11T09:04:46Z</time>
      </trkpt>
      <trkpt lat="49.27104" lon="1.05036">
        <ele>26.7</ele>
        <time>2019-11-11T09:04:47Z</time>
      </trkpt>
      <trkpt lat="49.271" lon="1.05037">
        <ele>26.7</ele>
        <time>2019-11-11T09:04:48Z</time>
      </trkpt>
      <trkpt lat="49.27096" lon="1.05039">
        <ele>26.7</ele>
        <time>2019-11-11T09:04:49Z</time>
      </trkpt>
      <trkpt lat="49.27092" lon="1.0504">
        <ele>26.7</ele>
        <time>2019-11-11T09:04:50Z</time>
      </trkpt>
      <trkpt lat="49.27088" lon="1.05042">
        <ele>26.7</ele>
        <time>2019-11-11T09:04:51Z</time>
      </trkpt>
      <trkpt lat="49.27084" lon="1.05044">
        <ele>26.7</ele>
        <time>2019-11-11T09:04:52Z</time>
      </trkpt>
      <trkpt lat="49.2708" lon="1.05046">
        <ele>26.7</ele>
        <time>2019-11-11T09:04:53Z</time>
      </trkpt>
      <trkpt lat="49.27076" lon="1.05049">
        <ele>26.7</ele>
        <time>2019-11-11T09:04:54Z</time>
      </trkpt>
      <trkpt lat="49.27072" lon="1.05052">
        <ele>26.7</ele>
        <time>2019-11-11T09:04:55Z</time>
      </trkpt>
      <trkpt lat="49.27068" lon="1.05055">
        <ele>26.7</ele>
        <time>2019-11-11T09:04:56Z</time>
      </trkpt>
      <trkpt lat="49.27065" lon="1.05059">
        <ele>27.7</ele>
        <time>2019-11-11T09:04:57Z</time>
      </trkpt>
      <trkpt lat="49.27061" lon="1.05062">
        <ele>27.7</ele>
        <time>2019-11-11T09:04:58Z</time>
      </trkpt>
      <trkpt lat="49.27058" lon="1.05066">
        <ele>27.7</ele>
        <time>2019-11-11T09:04:59Z</time>
      </trkpt>
      <trkpt lat="49.27054" lon="1.0507">
        <ele>27.7</ele>
        <time>2019-11-11T09:05:00Z</time>
      </trkpt>
      <trkpt lat="49.27051" lon="1.05074">
        <ele>27.7</ele>
        <time>2019-11-11T09:05:01Z</time>
      </trkpt>
      <trkpt lat="49.27047" lon="1.05078">
        <ele>27.7</ele>
        <time>2019-11-11T09:05:02Z</time>
      </trkpt>
      <trkpt lat="49.27044" lon="1.05082">
        <ele>27.7</ele>
        <time>2019-11-11T09:05:03Z</time>
      </trkpt>
      <trkpt lat="49.2704" lon="1.05086">
        <ele>27.7</ele>
        <time>2019-11-11T09:05:04Z</time>
      </trkpt>
      <trkpt lat="49.27037" lon="1.0509">
        <ele>27.7</ele>
        <time>2019-11-11T09:05:05Z</time>
      </trkpt>
      <trkpt lat="49.27033" lon="1.05094">
        <ele>27.7</ele>
        <time>2019-11-11T09:05:06Z</time>
      </trkpt>
      <trkpt lat="49.2703" lon="1.05098">
        <ele>27.7</ele>
        <time>2019-11-11T09:05:07Z</time>
      </trkpt>
      <trkpt lat="49.27026" lon="1.05102">
        <ele>27.7</ele>
        <time>2019-11-11T09:05:08Z</time>
      </trkpt>
      <trkpt lat="49.27023" lon="1.05106">
        <ele>27.7</ele>
        <time>2019-11-11T09:05:09Z</time>
      </trkpt>
      <trkpt lat="49.27019" lon="1.05109">
        <ele>27.7</ele>
        <time>2019-11-11T09:05:10Z</time>
      </trkpt>
      <trkpt lat="49.27016" lon="1.05113">
        <ele>27.7</ele>
        <time>2019-11-11T09:05:11Z</time>
      </trkpt>
      <trkpt lat="49.27012" lon="1.05116">
        <ele>27.7</ele>
        <time>2019-11-11T09:05:12Z</time>
      </trkpt>
      <trkpt lat="49.27008" lon="1.05118">
        <ele>27.7</ele>
        <time>2019-11-11T09:05:13Z</time>
      </trkpt>
      <trkpt lat="49.27004" lon="1.05121">
        <ele>27.7</ele>
        <time>2019-11-11T09:05:14Z</time>
      </trkpt>
      <trkpt lat="49.27" lon="1.05123">
        <ele>28.8</ele>
        <time>2019-11-11T09:05:15Z</time>
      </trkpt>
      <trkpt lat="49.26996" lon="1.05125">
        <ele>28.8</ele>
        <time>2019-11-11T09:05:16Z</time>
      </trkpt>
      <trkpt lat="49.26992" lon="1.05127">
        <ele>28.8</ele>
        <time>2019-11-11T09:05:17Z</time>
      </trkpt>
      <trkpt lat="49.26988" lon="1.05129">
        <ele>28.8</ele>
        <time>2019-11-11T09:05:18Z</time>
      </trkpt>
      <trkpt lat="49.26984" lon="1.0513">
        <ele>29.7</ele>
        <time>2019-11-11T09:05:19Z</time>
      </trkpt>
      <trkpt lat="49.2698" lon="1.05131">
        <ele>29.7</ele>
        <time>2019-11-11T09:05:20Z</time>
      </trkpt>
      <trkpt lat="49.26976" lon="1.05132">
        <ele>29.7</ele>
        <time>2019-11-11T09:05:21Z</time>
      </trkpt>
      <trkpt lat="49.26971" lon="1.05132">
        <ele>29.7</ele>
        <time>2019-11-11T09:05:22Z</time>
      </trkpt>
      <trkpt lat="49.26967" lon="1.05132">
        <ele>29.7</ele>
        <time>2019-11-11T09:05:23Z</time>
      </trkpt>
      <trkpt lat="49.26963" lon="1.05131">
        <ele>29.7</ele>
        <time>2019-11-11T09:05:24Z</time>
      </trkpt>
      <trkpt lat="49.26959" lon="1.05131">
        <ele>29.7</ele>
        <time>2019-11-11T09:05:25Z</time>
      </trkpt>
      <trkpt lat="49.26954" lon="1.05131">
        <ele>29.7</ele>
        <time>2019-11-11T09:05:26Z</time>
      </trkpt>
      <trkpt lat="49.2695" lon="1.0513">
        <ele>29.7</ele>
        <time>2019-11-11T09:05:27Z</time>
      </trkpt>
      <trkpt lat="49.26946" lon="1.0513">
        <ele>29.7</ele>
        <time>2019-11-11T09:05:28Z</time>
      </trkpt>
      <trkpt lat="49.26942" lon="1.05129">
        <ele>30.8</ele>
        <time>2019-11-11T09:05:29Z</time>
      </trkpt>
      <trkpt lat="49.26938" lon="1.05128">
        <ele>30.8</ele>
        <time>2019-11-11T09:05:30Z</time>
      </trkpt>
      <trkpt lat="49.26934" lon="1.05126">
        <ele>30.8</ele>
        <time>2019-11-11T09:05:31Z</time>
      </trkpt>
      <trkpt lat="49.2693" lon="1.05126">
        <ele>30.8</ele>
        <time>2019-11-11T09:05:32Z</time>
      </trkpt>
      <trkpt lat="49.26926" lon="1.05128">
        <ele>30.8</ele>
        <time>2019-11-11T09:05:33Z</time>
      </trkpt>
      <trkpt lat="49.26924" lon="1.05132">
        <ele>30.8</ele>
        <time>2019-11-11T09:05:34Z</time>
      </trkpt>
      <trkpt lat="49.26922" lon="1.05137">
        <ele>30.8</ele>
        <time>2019-11-11T09:05:35Z</time>
      </trkpt>
      <trkpt lat="49.2692" lon="1.05142">
        <ele>30.8</ele>
        <time>2019-11-11T09:05:36Z</time>
      </trkpt>
      <trkpt lat="49.26918" lon="1.05148">
        <ele>29.7</ele>
        <time>2019-11-11T09:05:37Z</time>
      </trkpt>
      <trkpt lat="49.26916" lon="1.05153">
        <ele>29.7</ele>
        <time>2019-11-11T09:05:38Z</time>
      </trkpt>
      <trkpt lat="49.26913" lon="1.05159">
        <ele>29.7</ele>
        <time>2019-11-11T09:05:39Z</time>
      </trkpt>
      <trkpt lat="49.2691" lon="1.05164">
        <ele>29.7</ele>
        <time>2019-11-11T09:05:40Z</time>
      </trkpt>
      <trkpt lat="49.26908" lon="1.05169">
        <ele>29.7</ele>
        <time>2019-11-11T09:05:41Z</time>
      </trkpt>
      <trkpt lat="49.26905" lon="1.05175">
        <ele>29.7</ele>
        <time>2019-11-11T09:05:42Z</time>
      </trkpt>
      <trkpt lat="49.26902" lon="1.0518">
        <ele>29.7</ele>
        <time>2019-11-11T09:05:43Z</time>
      </trkpt>
      <trkpt lat="49.26899" lon="1.05185">
        <ele>29.7</ele>
        <time>2019-11-11T09:05:44Z</time>
      </trkpt>
      <trkpt lat="49.26896" lon="1.05191">
        <ele>29.7</ele>
        <time>2019-11-11T09:05:45Z</time>
      </trkpt>
      <trkpt lat="49.26894" lon="1.05196">
        <ele>29.7</ele>
        <time>2019-11-11T09:05:46Z</time>
      </trkpt>
      <trkpt lat="49.26891" lon="1.05202">
        <ele>30.8</ele>
        <time>2019-11-11T09:05:47Z</time>
      </trkpt>
      <trkpt lat="49.26888" lon="1.05207">
        <ele>30.8</ele>
        <time>2019-11-11T09:05:48Z</time>
      </trkpt>
      <trkpt lat="49.26885" lon="1.05213">
        <ele>30.8</ele>
        <time>2019-11-11T09:05:49Z</time>
      </trkpt>
      <trkpt lat="49.26882" lon="1.05218">
        <ele>30.8</ele>
        <time>2019-11-11T09:05:50Z</time>
      </trkpt>
      <trkpt lat="49.26879" lon="1.05223">
        <ele>30.8</ele>
        <time>2019-11-11T09:05:51Z</time>
      </trkpt>
      <trkpt lat="49.26876" lon="1.05229">
        <ele>30.8</ele>
        <time>2019-11-11T09:05:52Z</time>
      </trkpt>
      <trkpt lat="49.26873" lon="1.05234">
        <ele>30.8</ele>
        <time>2019-11-11T09:05:53Z</time>
      </trkpt>
      <trkpt lat="49.26871" lon="1.05239">
        <ele>30.8</ele>
        <time>2019-11-11T09:05:54Z</time>
      </trkpt>
      <trkpt lat="49.26868" lon="1.05245">
        <ele>31.7</ele>
        <time>2019-11-11T09:05:55Z</time>
      </trkpt>
      <trkpt lat="49.26865" lon="1.0525">
        <ele>31.7</ele>
        <time>2019-11-11T09:05:56Z</time>
      </trkpt>
      <trkpt lat="49.26862" lon="1.05255">
        <ele>31.7</ele>
        <time>2019-11-11T09:05:57Z</time>
      </trkpt>
      <trkpt lat="49.26859" lon="1.0526">
        <ele>31.7</ele>
        <time>2019-11-11T09:05:58Z</time>
      </trkpt>
      <trkpt lat="49.26856" lon="1.05266">
        <ele>31.7</ele>
        <time>2019-11-11T09:05:59Z</time>
      </trkpt>
      <trkpt lat="49.26853" lon="1.05271">
        <ele>31.7</ele>
        <time>2019-11-11T09:06:00Z</time>
      </trkpt>
      <trkpt lat="49.2685" lon="1.05276">
        <ele>31.7</ele>
        <time>2019-11-11T09:06:01Z</time>
      </trkpt>
      <trkpt lat="49.26847" lon="1.05281">
        <ele>31.7</ele>
        <time>2019-11-11T09:06:02Z</time>
      </trkpt>
      <trkpt lat="49.26844" lon="1.05287">
        <ele>31.7</ele>
        <time>2019-11-11T09:06:03Z</time>
      </trkpt>
      <trkpt lat="49.26842" lon="1.05292">
        <ele>31.7</ele>
        <time>2019-11-11T09:06:04Z</time>
      </trkpt>
      <trkpt lat="49.26839" lon="1.05297">
        <ele>31.7</ele>
        <time>2019-11-11T09:06:05Z</time>
      </trkpt>
      <trkpt lat="49.26836" lon="1.05303">
        <ele>31.7</ele>
        <time>2019-11-11T09:06:06Z</time>
      </trkpt>
      <trkpt lat="49.26833" lon="1.05308">
        <ele>31.7</ele>
        <time>2019-11-11T09:06:07Z</time>
      </trkpt>
      <trkpt lat="49.2683" lon="1.05313">
        <ele>31.7</ele>
        <time>2019-11-11T09:06:08Z</time>
      </trkpt>
      <trkpt lat="49.26828" lon="1.05319">
        <ele>31.7</ele>
        <time>2019-11-11T09:06:09Z</time>
      </trkpt>
      <trkpt lat="49.26825" lon="1.05324">
        <ele>31.7</ele>
        <time>2019-11-11T09:06:10Z</time>
      </trkpt>
      <trkpt lat="49.26822" lon="1.05329">
        <ele>31.7</ele>
        <time>2019-11-11T09:06:11Z</time>
      </trkpt>
      <trkpt lat="49.2682" lon="1.05335">
        <ele>31.7</ele>
        <time>2019-11-11T09:06:12Z</time>
      </trkpt>
      <trkpt lat="49.26817" lon="1.0534">
        <ele>31.7</ele>
        <time>2019-11-11T09:06:13Z</time>
      </trkpt>
      <trkpt lat="49.26814" lon="1.05346">
        <ele>31.7</ele>
        <time>2019-11-11T09:06:14Z</time>
      </trkpt>
      <trkpt lat="49.26812" lon="1.05352">
        <ele>31.7</ele>
        <time>2019-11-11T09:06:15Z</time>
      </trkpt>
      <trkpt lat="49.26809" lon="1.05357">
        <ele>31.7</ele>
        <time>2019-11-11T09:06:16Z</time>
      </trkpt>
      <trkpt lat="49.26807" lon="1.05363">
        <ele>31.7</ele>
        <time>2019-11-11T09:06:17Z</time>
      </trkpt>
      <trkpt lat="49.26805" lon="1.05368">
        <ele>31.7</ele>
        <time>2019-11-11T09:06:18Z</time>
      </trkpt>
      <trkpt lat="49.26804" lon="1.05374">
        <ele>31.7</ele>
        <time>2019-11-11T09:06:19Z</time>
      </trkpt>
      <trkpt lat="49.26803" lon="1.0538">
        <ele>31.7</ele>
        <time>2019-11-11T09:06:20Z</time>
      </trkpt>
      <trkpt lat="49.26802" lon="1.05385">
        <ele>31.7</ele>
        <time>2019-11-11T09:06:21Z</time>
      </trkpt>
      <trkpt lat="49.268" lon="1.05389">
        <ele>31.7</ele>
        <time>2019-11-11T09:06:22Z</time>
      </trkpt>
      <trkpt lat="49.26799" lon="1.05394">
        <ele>31.7</ele>
        <time>2019-11-11T09:06:23Z</time>
      </trkpt>
      <trkpt lat="49.26798" lon="1.054">
        <ele>31.7</ele>
        <time>2019-11-11T09:06:24Z</time>
      </trkpt>
      <trkpt lat="49.26797" lon="1.05406">
        <ele>31.7</ele>
        <time>2019-11-11T09:06:25Z</time>
      </trkpt>
      <trkpt lat="49.26796" lon="1.05411">
        <ele>31.7</ele>
        <time>2019-11-11T09:06:26Z</time>
      </trkpt>
      <trkpt lat="49.26795" lon="1.05417">
        <ele>31.7</ele>
        <time>2019-11-11T09:06:27Z</time>
      </trkpt>
      <trkpt lat="49.26794" lon="1.05422">
        <ele>31.7</ele>
        <time>2019-11-11T09:06:28Z</time>
      </trkpt>
      <trkpt lat="49.26793" lon="1.05426">
        <ele>31.7</ele>
        <time>2019-11-11T09:06:29Z</time>
      </trkpt>
      <trkpt lat="49.2679" lon="1.05428">
        <ele>31.7</ele>
        <time>2019-11-11T09:06:30Z</time>
      </trkpt>
      <trkpt lat="49.26788" lon="1.05429">
        <ele>31.7</ele>
        <time>2019-11-11T09:06:31Z</time>
      </trkpt>
      <trkpt lat="49.26785" lon="1.05429">
        <ele>31.7</ele>
        <time>2019-11-11T09:06:32Z</time>
      </trkpt>
      <trkpt lat="49.26783" lon="1.05428">
        <ele>31.7</ele>
        <time>2019-11-11T09:06:33Z</time>
      </trkpt>
      <trkpt lat="49.26783" lon="1.05428">
        <ele>31.7</ele>
        <time>2019-11-11T09:06:34Z</time>
      </trkpt>
      <trkpt lat="49.26783" lon="1.05428">
        <ele>31.7</ele>
        <time>2019-11-11T09:06:35Z</time>
      </trkpt>
      <trkpt lat="49.26783" lon="1.05435">
        <ele>31.7</ele>
        <time>2019-11-11T09:15:14Z</time>
      </trkpt>
      <trkpt lat="49.26784" lon="1.05438">
        <ele>31.7</ele>
        <time>2019-11-11T09:15:15Z</time>
      </trkpt>
      <trkpt lat="49.26785" lon="1.0544">
        <ele>31.7</ele>
        <time>2019-11-11T09:15:16Z</time>
      </trkpt>
      <trkpt lat="49.26786" lon="1.05443">
        <ele>31.7</ele>
        <time>2019-11-11T09:15:17Z</time>
      </trkpt>
      <trkpt lat="49.26788" lon="1.05446">
        <ele>31.7</ele>
        <time>2019-11-11T09:15:18Z</time>
      </trkpt>
      <trkpt lat="49.26789" lon="1.05449">
        <ele>30.8</ele>
        <time>2019-11-11T09:15:19Z</time>
      </trkpt>
      <trkpt lat="49.26789" lon="1.05452">
        <ele>30.8</ele>
        <time>2019-11-11T09:15:20Z</time>
      </trkpt>
      <trkpt lat="49.2679" lon="1.05455">
        <ele>30.8</ele>
        <time>2019-11-11T09:15:21Z</time>
      </trkpt>
      <trkpt lat="49.2679" lon="1.05458">
        <ele>30.8</ele>
        <time>2019-11-11T09:15:22Z</time>
      </trkpt>
      <trkpt lat="49.2679" lon="1.05461">
        <ele>30.8</ele>
        <time>2019-11-11T09:15:23Z</time>
      </trkpt>
      <trkpt lat="49.26789" lon="1.05465">
        <ele>30.8</ele>
        <time>2019-11-11T09:15:24Z</time>
      </trkpt>
      <trkpt lat="49.26789" lon="1.05469">
        <ele>30.8</ele>
        <time>2019-11-11T09:15:25Z</time>
      </trkpt>
      <trkpt lat="49.26788" lon="1.05474">
        <ele>30.8</ele>
        <time>2019-11-11T09:15:26Z</time>
      </trkpt>
      <trkpt lat="49.26787" lon="1.05479">
        <ele>30.8</ele>
        <time>2019-11-11T09:15:27Z</time>
      </trkpt>
      <trkpt lat="49.26787" lon="1.05484">
        <ele>30.8</ele>
        <time>2019-11-11T09:15:28Z</time>
      </trkpt>
      <trkpt lat="49.26786" lon="1.05489">
        <ele>30.8</ele>
        <time>2019-11-11T09:15:29Z</time>
      </trkpt>
      <trkpt lat="49.26785" lon="1.05494">
        <ele>30.8</ele>
        <time>2019-11-11T09:15:30Z</time>
      </trkpt>
      <trkpt lat="49.26784" lon="1.05499">
        <ele>30.8</ele>
        <time>2019-11-11T09:15:31Z</time>
      </trkpt>
      <trkpt lat="49.26783" lon="1.05503">
        <ele>30.8</ele>
        <time>2019-11-11T09:15:32Z</time>
      </trkpt>
      <trkpt lat="49.26782" lon="1.05507">
        <ele>30.8</ele>
        <time>2019-11-11T09:15:33Z</time>
      </trkpt>
      <trkpt lat="49.26781" lon="1.05512">
        <ele>30.8</ele>
        <time>2019-11-11T09:15:34Z</time>
      </trkpt>
      <trkpt lat="49.2678" lon="1.05516">
        <ele>30.8</ele>
        <time>2019-11-11T09:15:35Z</time>
      </trkpt>
      <trkpt lat="49.26779" lon="1.05519">
        <ele>30.8</ele>
        <time>2019-11-11T09:15:36Z</time>
      </trkpt>
      <trkpt lat="49.26778" lon="1.05523">
        <ele>30.8</ele>
        <time>2019-11-11T09:15:37Z</time>
      </trkpt>
      <trkpt lat="49.26778" lon="1.05527">
        <ele>30.8</ele>
        <time>2019-11-11T09:15:38Z</time>
      </trkpt>
      <trkpt lat="49.26777" lon="1.0553">
        <ele>30.8</ele>
        <time>2019-11-11T09:15:39Z</time>
      </trkpt>
      <trkpt lat="49.26775" lon="1.05532">
        <ele>30.8</ele>
        <time>2019-11-11T09:15:40Z</time>
      </trkpt>
      <trkpt lat="49.26773" lon="1.05534">
        <ele>30.8</ele>
        <time>2019-11-11T09:15:41Z</time>
      </trkpt>
      <trkpt lat="49.26771" lon="1.05535">
        <ele>30.8</ele>
        <time>2019-11-11T09:15:42Z</time>
      </trkpt>
      <trkpt lat="49.2677" lon="1.05536">
        <ele>30.8</ele>
        <time>2019-11-11T09:15:43Z</time>
      </trkpt>
      <trkpt lat="49.2677" lon="1.05536">
        <ele>30.8</ele>
        <time>2019-11-11T09:15:44Z</time>
      </trkpt>
      <trkpt lat="49.2677" lon="1.05536">
        <ele>30.8</ele>
        <time>2019-11-11T09:15:45Z</time>
      </trkpt>
      <trkpt lat="49.2677" lon="1.05536">
        <ele>30.8</ele>
        <time>2019-11-11T09:15:46Z</time>
      </trkpt>
      <trkpt lat="49.26777" lon="1.05531">
        <ele>30.8</ele>
        <time>2019-11-11T09:18:30Z</time>
      </trkpt>
      <trkpt lat="49.26779" lon="1.05533">
        <ele>30.8</ele>
        <time>2019-11-11T09:18:31Z</time>
      </trkpt>
      <trkpt lat="49.26782" lon="1.05536">
        <ele>30.8</ele>
        <time>2019-11-11T09:18:32Z</time>
      </trkpt>
      <trkpt lat="49.26783" lon="1.05539">
        <ele>30.8</ele>
        <time>2019-11-11T09:18:33Z</time>
      </trkpt>
      <trkpt lat="49.26785" lon="1.05543">
        <ele>30.8</ele>
        <time>2019-11-11T09:18:34Z</time>
      </trkpt>
      <trkpt lat="49.26787" lon="1.05548">
        <ele>30.8</ele>
        <time>2019-11-11T09:18:35Z</time>
      </trkpt>
      <trkpt lat="49.26789" lon="1.05553">
        <ele>30.8</ele>
        <time>2019-11-11T09:18:36Z</time>
      </trkpt>
      <trkpt lat="49.2679" lon="1.05558">
        <ele>30.8</ele>
        <time>2019-11-11T09:18:37Z</time>
      </trkpt>
      <trkpt lat="49.26792" lon="1.05563">
        <ele>30.8</ele>
        <time>2019-11-11T09:18:38Z</time>
      </trkpt>
      <trkpt lat="49.26794" lon="1.05568">
        <ele>30.8</ele>
        <time>2019-11-11T09:18:39Z</time>
      </trkpt>
      <trkpt lat="49.26796" lon="1.05572">
        <ele>30.8</ele>
        <time>2019-11-11T09:18:40Z</time>
      </trkpt>
      <trkpt lat="49.26799" lon="1.05577">
        <ele>30.8</ele>
        <time>2019-11-11T09:18:41Z</time>
      </trkpt>
      <trkpt lat="49.26801" lon="1.05582">
        <ele>30.8</ele>
        <time>2019-11-11T09:18:42Z</time>
      </trkpt>
      <trkpt lat="49.26804" lon="1.05587">
        <ele>30.8</ele>
        <time>2019-11-11T09:18:43Z</time>
      </trkpt>
      <trkpt lat="49.26807" lon="1.05592">
        <ele>30.8</ele>
        <time>2019-11-11T09:18:44Z</time>
      </trkpt>
      <trkpt lat="49.26809" lon="1.05596">
        <ele>30.8</ele>
        <time>2019-11-11T09:18:45Z</time>
      </trkpt>
      <trkpt lat="49.26811" lon="1.05602">
        <ele>30.8</ele>
        <time>2019-11-11T09:18:46Z</time>
      </trkpt>
      <trkpt lat="49.26814" lon="1.05606">
        <ele>30.8</ele>
        <time>2019-11-11T09:18:47Z</time>
      </trkpt>
      <trkpt lat="49.26816" lon="1.05611">
        <ele>30.8</ele>
        <time>2019-11-11T09:18:48Z</time>
      </trkpt>
      <trkpt lat="49.26819" lon="1.05616">
        <ele>30.8</ele>
        <time>2019-11-11T09:18:49Z</time>
      </trkpt>
      <trkpt lat="49.26821" lon="1.05621">
        <ele>30.8</ele>
        <time>2019-11-11T09:18:50Z</time>
      </trkpt>
      <trkpt lat="49.26824" lon="1.05625">
        <ele>30.8</ele>
        <time>2019-11-11T09:18:51Z</time>
      </trkpt>
      <trkpt lat="49.26826" lon="1.05631">
        <ele>30.8</ele>
        <time>2019-11-11T09:18:52Z</time>
      </trkpt>
      <trkpt lat="49.26829" lon="1.05636">
        <ele>30.8</ele>
        <time>2019-11-11T09:18:53Z</time>
      </trkpt>
      <trkpt lat="49.26832" lon="1.05641">
        <ele>30.8</ele>
        <time>2019-11-11T09:18:54Z</time>
      </trkpt>
      <trkpt lat="49.26834" lon="1.05647">
        <ele>30.8</ele>
        <time>2019-11-11T09:18:55Z</time>
      </trkpt>
      <trkpt lat="49.26837" lon="1.05653">
        <ele>30.8</ele>
        <time>2019-11-11T09:18:56Z</time>
      </trkpt>
      <trkpt lat="49.26839" lon="1.05658">
        <ele>30.8</ele>
        <time>2019-11-11T09:18:57Z</time>
      </trkpt>
      <trkpt lat="49.26843" lon="1.05664">
        <ele>30.8</ele>
        <time>2019-11-11T09:18:58Z</time>
      </trkpt>
      <trkpt lat="49.26846" lon="1.0567">
        <ele>30.8</ele>
        <time>2019-11-11T09:18:59Z</time>
      </trkpt>
      <trkpt lat="49.26849" lon="1.05675">
        <ele>30.8</ele>
        <time>2019-11-11T09:19:00Z</time>
      </trkpt>
      <trkpt lat="49.26852" lon="1.0568">
        <ele>29.7</ele>
        <time>2019-11-11T09:19:01Z</time>
      </trkpt>
      <trkpt lat="49.26854" lon="1.05685">
        <ele>29.7</ele>
        <time>2019-11-11T09:19:02Z</time>
      </trkpt>
      <trkpt lat="49.26858" lon="1.0569">
        <ele>29.7</ele>
        <time>2019-11-11T09:19:03Z</time>
      </trkpt>
      <trkpt lat="49.26861" lon="1.05696">
        <ele>29.7</ele>
        <time>2019-11-11T09:19:04Z</time>
      </trkpt>
      <trkpt lat="49.26863" lon="1.05701">
        <ele>29.7</ele>
        <time>2019-11-11T09:19:05Z</time>
      </trkpt>
      <trkpt lat="49.26866" lon="1.05706">
        <ele>29.7</ele>
        <time>2019-11-11T09:19:06Z</time>
      </trkpt>
      <trkpt lat="49.26869" lon="1.05711">
        <ele>29.7</ele>
        <time>2019-11-11T09:19:07Z</time>
      </trkpt>
      <trkpt lat="49.26871" lon="1.05715">
        <ele>29.7</ele>
        <time>2019-11-11T09:19:08Z</time>
      </trkpt>
      <trkpt lat="49.26874" lon="1.0572">
        <ele>29.7</ele>
        <time>2019-11-11T09:19:09Z</time>
      </trkpt>
      <trkpt lat="49.26876" lon="1.05725">
        <ele>29.7</ele>
        <time>2019-11-11T09:19:10Z</time>
      </trkpt>
      <trkpt lat="49.26879" lon="1.0573">
        <ele>29.7</ele>
        <time>2019-11-11T09:19:11Z</time>
      </trkpt>
      <trkpt lat="49.26881" lon="1.05734">
        <ele>29.7</ele>
        <time>2019-11-11T09:19:12Z</time>
      </trkpt>
      <trkpt lat="49.26884" lon="1.05739">
        <ele>29.7</ele>
        <time>2019-11-11T09:19:13Z</time>
      </trkpt>
      <trkpt lat="49.26886" lon="1.05744">
        <ele>29.7</ele>
        <time>2019-11-11T09:19:14Z</time>
      </trkpt>
      <trkpt lat="49.26889" lon="1.0575">
        <ele>29.7</ele>
        <time>2019-11-11T09:19:15Z</time>
      </trkpt>
      <trkpt lat="49.26892" lon="1.05755">
        <ele>29.7</ele>
        <time>2019-11-11T09:19:16Z</time>
      </trkpt>
      <trkpt lat="49.26895" lon="1.05762">
        <ele>29.7</ele>
        <time>2019-11-11T09:19:17Z</time>
      </trkpt>
      <trkpt lat="49.26897" lon="1.05768">
        <ele>29.7</ele>
        <time>2019-11-11T09:19:18Z</time>
      </trkpt>
      <trkpt lat="49.269" lon="1.05774">
        <ele>29.7</ele>
        <time>2019-11-11T09:19:19Z</time>
      </trkpt>
      <trkpt lat="49.26903" lon="1.0578">
        <ele>29.7</ele>
        <time>2019-11-11T09:19:20Z</time>
      </trkpt>
      <trkpt lat="49.26906" lon="1.05785">
        <ele>29.7</ele>
        <time>2019-11-11T09:19:21Z</time>
      </trkpt>
      <trkpt lat="49.26909" lon="1.05791">
        <ele>29.7</ele>
        <time>2019-11-11T09:19:22Z</time>
      </trkpt>
      <trkpt lat="49.26912" lon="1.05797">
        <ele>29.7</ele>
        <time>2019-11-11T09:19:23Z</time>
      </trkpt>
      <trkpt lat="49.26914" lon="1.05803">
        <ele>29.7</ele>
        <time>2019-11-11T09:19:24Z</time>
      </trkpt>
      <trkpt lat="49.26917" lon="1.05809">
        <ele>28.8</ele>
        <time>2019-11-11T09:19:25Z</time>
      </trkpt>
      <trkpt lat="49.2692" lon="1.05815">
        <ele>28.8</ele>
        <time>2019-11-11T09:19:26Z</time>
      </trkpt>
      <trkpt lat="49.26923" lon="1.05821">
        <ele>28.8</ele>
        <time>2019-11-11T09:19:27Z</time>
      </trkpt>
      <trkpt lat="49.26926" lon="1.05826">
        <ele>28.8</ele>
        <time>2019-11-11T09:19:28Z</time>
      </trkpt>
      <trkpt lat="49.26928" lon="1.05833">
        <ele>28.8</ele>
        <time>2019-11-11T09:19:29Z</time>
      </trkpt>
      <trkpt lat="49.26931" lon="1.05839">
        <ele>28.8</ele>
        <time>2019-11-11T09:19:30Z</time>
      </trkpt>
      <trkpt lat="49.26934" lon="1.05845">
        <ele>28.8</ele>
        <time>2019-11-11T09:19:31Z</time>
      </trkpt>
      <trkpt lat="49.26937" lon="1.05851">
        <ele>28.8</ele>
        <time>2019-11-11T09:19:32Z</time>
      </trkpt>
      <trkpt lat="49.2694" lon="1.05857">
        <ele>28.8</ele>
        <time>2019-11-11T09:19:33Z</time>
      </trkpt>
      <trkpt lat="49.26943" lon="1.05863">
        <ele>28.8</ele>
        <time>2019-11-11T09:19:34Z</time>
      </trkpt>
      <trkpt lat="49.26946" lon="1.05869">
        <ele>28.8</ele>
        <time>2019-11-11T09:19:35Z</time>
      </trkpt>
      <trkpt lat="49.26949" lon="1.05875">
        <ele>28.8</ele>
        <time>2019-11-11T09:19:36Z</time>
      </trkpt>
      <trkpt lat="49.26952" lon="1.05881">
        <ele>28.8</ele>
        <time>2019-11-11T09:19:37Z</time>
      </trkpt>
      <trkpt lat="49.26954" lon="1.05888">
        <ele>28.8</ele>
        <time>2019-11-11T09:19:38Z</time>
      </trkpt>
      <trkpt lat="49.26956" lon="1.05894">
        <ele>28.8</ele>
        <time>2019-11-11T09:19:39Z</time>
      </trkpt>
      <trkpt lat="49.26957" lon="1.059">
        <ele>28.8</ele>
        <time>2019-11-11T09:19:40Z</time>
      </trkpt>
      <trkpt lat="49.2696" lon="1.05906">
        <ele>28.8</ele>
        <time>2019-11-11T09:19:41Z</time>
      </trkpt>
      <trkpt lat="49.26962" lon="1.05912">
        <ele>28.8</ele>
        <time>2019-11-11T09:19:42Z</time>
      </trkpt>
      <trkpt lat="49.26965" lon="1.05918">
        <ele>28.8</ele>
        <time>2019-11-11T09:19:43Z</time>
      </trkpt>
      <trkpt lat="49.26967" lon="1.05924">
        <ele>28.8</ele>
        <time>2019-11-11T09:19:44Z</time>
      </trkpt>
      <trkpt lat="49.26969" lon="1.0593">
        <ele>28.8</ele>
        <time>2019-11-11T09:19:45Z</time>
      </trkpt>
      <trkpt lat="49.2697" lon="1.05936">
        <ele>28.8</ele>
        <time>2019-11-11T09:19:46Z</time>
      </trkpt>
      <trkpt lat="49.26973" lon="1.05943">
        <ele>28.8</ele>
        <time>2019-11-11T09:19:47Z</time>
      </trkpt>
      <trkpt lat="49.26975" lon="1.05949">
        <ele>28.8</ele>
        <time>2019-11-11T09:19:48Z</time>
      </trkpt>
      <trkpt lat="49.26978" lon="1.05956">
        <ele>28.8</ele>
        <time>2019-11-11T09:19:49Z</time>
      </trkpt>
      <trkpt lat="49.26981" lon="1.05962">
        <ele>28.8</ele>
        <time>2019-11-11T09:19:50Z</time>
      </trkpt>
      <trkpt lat="49.26983" lon="1.05968">
        <ele>27.7</ele>
        <time>2019-11-11T09:19:51Z</time>
      </trkpt>
      <trkpt lat="49.26987" lon="1.05974">
        <ele>27.7</ele>
        <time>2019-11-11T09:19:52Z</time>
      </trkpt>
      <trkpt lat="49.2699" lon="1.05979">
        <ele>27.7</ele>
        <time>2019-11-11T09:19:53Z</time>
      </trkpt>
      <trkpt lat="49.26994" lon="1.05983">
        <ele>27.7</ele>
        <time>2019-11-11T09:19:54Z</time>
      </trkpt>
      <trkpt lat="49.26998" lon="1.05988">
        <ele>27.7</ele>
        <time>2019-11-11T09:19:55Z</time>
      </trkpt>
      <trkpt lat="49.27003" lon="1.05992">
        <ele>27.7</ele>
        <time>2019-11-11T09:19:56Z</time>
      </trkpt>
      <trkpt lat="49.27008" lon="1.05996">
        <ele>27.7</ele>
        <time>2019-11-11T09:19:57Z</time>
      </trkpt>
      <trkpt lat="49.27012" lon="1.06001">
        <ele>27.7</ele>
        <time>2019-11-11T09:19:58Z</time>
      </trkpt>
      <trkpt lat="49.27017" lon="1.06005">
        <ele>26.7</ele>
        <time>2019-11-11T09:19:59Z</time>
      </trkpt>
      <trkpt lat="49.27021" lon="1.06008">
        <ele>26.7</ele>
        <time>2019-11-11T09:20:00Z</time>
      </trkpt>
      <trkpt lat="49.27025" lon="1.06012">
        <ele>26.7</ele>
        <time>2019-11-11T09:20:01Z</time>
      </trkpt>
      <trkpt lat="49.27028" lon="1.06018">
        <ele>26.7</ele>
        <time>2019-11-11T09:20:02Z</time>
      </trkpt>
      <trkpt lat="49.27031" lon="1.06023">
        <ele>26.7</ele>
        <time>2019-11-11T09:20:03Z</time>
      </trkpt>
      <trkpt lat="49.27033" lon="1.06029">
        <ele>26.7</ele>
        <time>2019-11-11T09:20:04Z</time>
      </trkpt>
      <trkpt lat="49.27034" lon="1.06035">
        <ele>26.7</ele>
        <time>2019-11-11T09:20:05Z</time>
      </trkpt>
      <trkpt lat="49.27035" lon="1.06041">
        <ele>26.7</ele>
        <time>2019-11-11T09:20:06Z</time>
      </trkpt>
      <trkpt lat="49.27036" lon="1.06048">
        <ele>26.7</ele>
        <time>2019-11-11T09:20:07Z</time>
      </trkpt>
      <trkpt lat="49.27038" lon="1.06055">
        <ele>26.7</ele>
        <time>2019-11-11T09:20:08Z</time>
      </trkpt>
      <trkpt lat="49.2704" lon="1.06061">
        <ele>26.7</ele>
        <time>2019-11-11T09:20:09Z</time>
      </trkpt>
      <trkpt lat="49.27043" lon="1.06068">
        <ele>26.7</ele>
        <time>2019-11-11T09:20:10Z</time>
      </trkpt>
      <trkpt lat="49.27045" lon="1.06074">
        <ele>26.7</ele>
        <time>2019-11-11T09:20:11Z</time>
      </trkpt>
      <trkpt lat="49.27048" lon="1.0608">
        <ele>26.7</ele>
        <time>2019-11-11T09:20:12Z</time>
      </trkpt>
      <trkpt lat="49.27052" lon="1.06086">
        <ele>26.7</ele>
        <time>2019-11-11T09:20:13Z</time>
      </trkpt>
      <trkpt lat="49.27055" lon="1.06091">
        <ele>26.7</ele>
        <time>2019-11-11T09:20:14Z</time>
      </trkpt>
      <trkpt lat="49.27059" lon="1.06097">
        <ele>26.7</ele>
        <time>2019-11-11T09:20:15Z</time>
      </trkpt>
      <trkpt lat="49.27063" lon="1.06103">
        <ele>26.7</ele>
        <time>2019-11-11T09:20:16Z</time>
      </trkpt>
      <trkpt lat="49.27066" lon="1.06108">
        <ele>26.7</ele>
        <time>2019-11-11T09:20:17Z</time>
      </trkpt>
      <trkpt lat="49.27069" lon="1.06114">
        <ele>26.7</ele>
        <time>2019-11-11T09:20:18Z</time>
      </trkpt>
      <trkpt lat="49.27072" lon="1.0612">
        <ele>26.7</ele>
        <time>2019-11-11T09:20:19Z</time>
      </trkpt>
      <trkpt lat="49.27076" lon="1.06125">
        <ele>26.7</ele>
        <time>2019-11-11T09:20:20Z</time>
      </trkpt>
      <trkpt lat="49.2708" lon="1.0613">
        <ele>26.7</ele>
        <time>2019-11-11T09:20:21Z</time>
      </trkpt>
      <trkpt lat="49.27084" lon="1.06135">
        <ele>26.7</ele>
        <time>2019-11-11T09:20:22Z</time>
      </trkpt>
      <trkpt lat="49.27087" lon="1.06141">
        <ele>26.7</ele>
        <time>2019-11-11T09:20:23Z</time>
      </trkpt>
      <trkpt lat="49.27091" lon="1.06146">
        <ele>26.7</ele>
        <time>2019-11-11T09:20:24Z</time>
      </trkpt>
      <trkpt lat="49.27094" lon="1.0615">
        <ele>26.7</ele>
        <time>2019-11-11T09:20:25Z</time>
      </trkpt>
      <trkpt lat="49.27098" lon="1.06155">
        <ele>26.7</ele>
        <time>2019-11-11T09:20:26Z</time>
      </trkpt>
      <trkpt lat="49.27102" lon="1.06159">
        <ele>26.7</ele>
        <time>2019-11-11T09:20:27Z</time>
      </trkpt>
      <trkpt lat="49.27106" lon="1.06164">
        <ele>26.7</ele>
        <time>2019-11-11T09:20:28Z</time>
      </trkpt>
      <trkpt lat="49.27109" lon="1.06168">
        <ele>26.7</ele>
        <time>2019-11-11T09:20:29Z</time>
      </trkpt>
      <trkpt lat="49.27112" lon="1.06172">
        <ele>26.7</ele>
        <time>2019-11-11T09:20:30Z</time>
      </trkpt>
      <trkpt lat="49.27115" lon="1.06176">
        <ele>26.7</ele>
        <time>2019-11-11T09:20:31Z</time>
      </trkpt>
      <trkpt lat="49.27119" lon="1.06181">
        <ele>26.7</ele>
        <time>2019-11-11T09:20:32Z</time>
      </trkpt>
      <trkpt lat="49.27123" lon="1.06185">
        <ele>26.7</ele>
        <time>2019-11-11T09:20:33Z</time>
      </trkpt>
      <trkpt lat="49.27128" lon="1.0619">
        <ele>26.7</ele>
        <time>2019-11-11T09:20:34Z</time>
      </trkpt>
      <trkpt lat="49.27131" lon="1.06195">
        <ele>26.7</ele>
        <time>2019-11-11T09:20:35Z</time>
      </trkpt>
      <trkpt lat="49.27135" lon="1.06201">
        <ele>26.7</ele>
        <time>2019-11-11T09:20:36Z</time>
      </trkpt>
      <trkpt lat="49.27139" lon="1.06206">
        <ele>26.7</ele>
        <time>2019-11-11T09:20:37Z</time>
      </trkpt>
      <trkpt lat="49.27143" lon="1.0621">
        <ele>26.7</ele>
        <time>2019-11-11T09:20:38Z</time>
      </trkpt>
      <trkpt lat="49.27147" lon="1.06216">
        <ele>26.7</ele>
        <time>2019-11-11T09:20:39Z</time>
      </trkpt>
      <trkpt lat="49.27151" lon="1.06221">
        <ele>26.7</ele>
        <time>2019-11-11T09:20:40Z</time>
      </trkpt>
      <trkpt lat="49.27155" lon="1.06226">
        <ele>26.7</ele>
        <time>2019-11-11T09:20:41Z</time>
      </trkpt>
      <trkpt lat="49.27159" lon="1.06231">
        <ele>26.7</ele>
        <time>2019-11-11T09:20:42Z</time>
      </trkpt>
      <trkpt lat="49.27163" lon="1.06237">
        <ele>26.7</ele>
        <time>2019-11-11T09:20:43Z</time>
      </trkpt>
      <trkpt lat="49.27167" lon="1.06242">
        <ele>26.7</ele>
        <time>2019-11-11T09:20:44Z</time>
      </trkpt>
      <trkpt lat="49.27171" lon="1.06247">
        <ele>26.7</ele>
        <time>2019-11-11T09:20:45Z</time>
      </trkpt>
      <trkpt lat="49.27174" lon="1.06252">
        <ele>26.7</ele>
        <time>2019-11-11T09:20:46Z</time>
      </trkpt>
      <trkpt lat="49.27178" lon="1.06257">
        <ele>26.7</ele>
        <time>2019-11-11T09:20:47Z</time>
      </trkpt>
      <trkpt lat="49.27182" lon="1.06262">
        <ele>26.7</ele>
        <time>2019-11-11T09:20:48Z</time>
      </trkpt>
      <trkpt lat="49.27186" lon="1.06266">
        <ele>26.7</ele>
        <time>2019-11-11T09:20:49Z</time>
      </trkpt>
      <trkpt lat="49.2719" lon="1.0627">
        <ele>26.7</ele>
        <time>2019-11-11T09:20:50Z</time>
      </trkpt>
      <trkpt lat="49.27193" lon="1.06275">
        <ele>26.7</ele>
        <time>2019-11-11T09:20:51Z</time>
      </trkpt>
      <trkpt lat="49.27196" lon="1.0628">
        <ele>26.7</ele>
        <time>2019-11-11T09:20:52Z</time>
      </trkpt>
      <trkpt lat="49.27201" lon="1.06285">
        <ele>26.7</ele>
        <time>2019-11-11T09:20:53Z</time>
      </trkpt>
      <trkpt lat="49.27204" lon="1.0629">
        <ele>26.7</ele>
        <time>2019-11-11T09:20:54Z</time>
      </trkpt>
      <trkpt lat="49.27208" lon="1.06294">
        <ele>26.7</ele>
        <time>2019-11-11T09:20:55Z</time>
      </trkpt>
      <trkpt lat="49.27212" lon="1.06299">
        <ele>26.7</ele>
        <time>2019-11-11T09:20:56Z</time>
      </trkpt>
      <trkpt lat="49.27216" lon="1.06304">
        <ele>26.7</ele>
        <time>2019-11-11T09:20:57Z</time>
      </trkpt>
      <trkpt lat="49.2722" lon="1.06309">
        <ele>26.7</ele>
        <time>2019-11-11T09:20:58Z</time>
      </trkpt>
      <trkpt lat="49.27224" lon="1.06314">
        <ele>26.7</ele>
        <time>2019-11-11T09:20:59Z</time>
      </trkpt>
      <trkpt lat="49.27228" lon="1.06319">
        <ele>26.7</ele>
        <time>2019-11-11T09:21:00Z</time>
      </trkpt>
      <trkpt lat="49.27232" lon="1.06323">
        <ele>26.7</ele>
        <time>2019-11-11T09:21:01Z</time>
      </trkpt>
      <trkpt lat="49.27236" lon="1.06328">
        <ele>26.7</ele>
        <time>2019-11-11T09:21:02Z</time>
      </trkpt>
      <trkpt lat="49.2724" lon="1.06333">
        <ele>26.7</ele>
        <time>2019-11-11T09:21:03Z</time>
      </trkpt>
      <trkpt lat="49.27244" lon="1.06339">
        <ele>26.7</ele>
        <time>2019-11-11T09:21:04Z</time>
      </trkpt>
      <trkpt lat="49.27248" lon="1.06343">
        <ele>26.7</ele>
        <time>2019-11-11T09:21:05Z</time>
      </trkpt>
      <trkpt lat="49.27252" lon="1.06348">
        <ele>26.7</ele>
        <time>2019-11-11T09:21:06Z</time>
      </trkpt>
      <trkpt lat="49.27256" lon="1.06353">
        <ele>26.7</ele>
        <time>2019-11-11T09:21:07Z</time>
      </trkpt>
      <trkpt lat="49.27259" lon="1.06358">
        <ele>26.7</ele>
        <time>2019-11-11T09:21:08Z</time>
      </trkpt>
      <trkpt lat="49.27263" lon="1.06363">
        <ele>26.7</ele>
        <time>2019-11-11T09:21:09Z</time>
      </trkpt>
      <trkpt lat="49.27267" lon="1.06367">
        <ele>26.7</ele>
        <time>2019-11-11T09:21:10Z</time>
      </trkpt>
      <trkpt lat="49.27271" lon="1.06372">
        <ele>26.7</ele>
        <time>2019-11-11T09:21:11Z</time>
      </trkpt>
      <trkpt lat="49.27275" lon="1.06376">
        <ele>26.7</ele>
        <time>2019-11-11T09:21:12Z</time>
      </trkpt>
      <trkpt lat="49.27279" lon="1.06381">
        <ele>27.7</ele>
        <time>2019-11-11T09:21:13Z</time>
      </trkpt>
      <trkpt lat="49.27282" lon="1.06386">
        <ele>27.7</ele>
        <time>2019-11-11T09:21:14Z</time>
      </trkpt>
      <trkpt lat="49.27286" lon="1.0639">
        <ele>27.7</ele>
        <time>2019-11-11T09:21:15Z</time>
      </trkpt>
      <trkpt lat="49.2729" lon="1.06395">
        <ele>27.7</ele>
        <time>2019-11-11T09:21:16Z</time>
      </trkpt>
      <trkpt lat="49.27294" lon="1.064">
        <ele>27.7</ele>
        <time>2019-11-11T09:21:17Z</time>
      </trkpt>
      <trkpt lat="49.27297" lon="1.06404">
        <ele>27.7</ele>
        <time>2019-11-11T09:21:18Z</time>
      </trkpt>
      <trkpt lat="49.27301" lon="1.06409">
        <ele>27.7</ele>
        <time>2019-11-11T09:21:19Z</time>
      </trkpt>
      <trkpt lat="49.27305" lon="1.06414">
        <ele>27.7</ele>
        <time>2019-11-11T09:21:20Z</time>
      </trkpt>
      <trkpt lat="49.27309" lon="1.06418">
        <ele>27.7</ele>
        <time>2019-11-11T09:21:21Z</time>
      </trkpt>
      <trkpt lat="49.27312" lon="1.06423">
        <ele>27.7</ele>
        <time>2019-11-11T09:21:22Z</time>
      </trkpt>
      <trkpt lat="49.27316" lon="1.06429">
        <ele>26.7</ele>
        <time>2019-11-11T09:21:23Z</time>
      </trkpt>
      <trkpt lat="49.2732" lon="1.06434">
        <ele>26.7</ele>
        <time>2019-11-11T09:21:24Z</time>
      </trkpt>
      <trkpt lat="49.27323" lon="1.06439">
        <ele>26.7</ele>
        <time>2019-11-11T09:21:25Z</time>
      </trkpt>
      <trkpt lat="49.27327" lon="1.06445">
        <ele>26.7</ele>
        <time>2019-11-11T09:21:26Z</time>
      </trkpt>
      <trkpt lat="49.27331" lon="1.0645">
        <ele>26.7</ele>
        <time>2019-11-11T09:21:27Z</time>
      </trkpt>
      <trkpt lat="49.27335" lon="1.06455">
        <ele>26.7</ele>
        <time>2019-11-11T09:21:28Z</time>
      </trkpt>
      <trkpt lat="49.27339" lon="1.0646">
        <ele>26.7</ele>
        <time>2019-11-11T09:21:29Z</time>
      </trkpt>
      <trkpt lat="49.27343" lon="1.06465">
        <ele>26.7</ele>
        <time>2019-11-11T09:21:30Z</time>
      </trkpt>
      <trkpt lat="49.27346" lon="1.06471">
        <ele>26.7</ele>
        <time>2019-11-11T09:21:31Z</time>
      </trkpt>
      <trkpt lat="49.2735" lon="1.06476">
        <ele>26.7</ele>
        <time>2019-11-11T09:21:32Z</time>
      </trkpt>
      <trkpt lat="49.27354" lon="1.06481">
        <ele>26.7</ele>
        <time>2019-11-11T09:21:33Z</time>
      </trkpt>
      <trkpt lat="49.27358" lon="1.06486">
        <ele>26.7</ele>
        <time>2019-11-11T09:21:34Z</time>
      </trkpt>
      <trkpt lat="49.27362" lon="1.06491">
        <ele>26.7</ele>
        <time>2019-11-11T09:21:35Z</time>
      </trkpt>
      <trkpt lat="49.27365" lon="1.06497">
        <ele>26.7</ele>
        <time>2019-11-11T09:21:36Z</time>
      </trkpt>
      <trkpt lat="49.27369" lon="1.06502">
        <ele>26.7</ele>
        <time>2019-11-11T09:21:37Z</time>
      </trkpt>
      <trkpt lat="49.27372" lon="1.06507">
        <ele>26.7</ele>
        <time>2019-11-11T09:21:38Z</time>
      </trkpt>
      <trkpt lat="49.27376" lon="1.06513">
        <ele>26.7</ele>
        <time>2019-11-11T09:21:39Z</time>
      </trkpt>
      <trkpt lat="49.2738" lon="1.06518">
        <ele>26.7</ele>
        <time>2019-11-11T09:21:40Z</time>
      </trkpt>
      <trkpt lat="49.27384" lon="1.06523">
        <ele>26.7</ele>
        <time>2019-11-11T09:21:41Z</time>
      </trkpt>
      <trkpt lat="49.27387" lon="1.06529">
        <ele>26.7</ele>
        <time>2019-11-11T09:21:42Z</time>
      </trkpt>
      <trkpt lat="49.27391" lon="1.06534">
        <ele>26.7</ele>
        <time>2019-11-11T09:21:43Z</time>
      </trkpt>
      <trkpt lat="49.27395" lon="1.06539">
        <ele>26.7</ele>
        <time>2019-11-11T09:21:44Z</time>
      </trkpt>
      <trkpt lat="49.27398" lon="1.06544">
        <ele>26.7</ele>
        <time>2019-11-11T09:21:45Z</time>
      </trkpt>
      <trkpt lat="49.27402" lon="1.06549">
        <ele>26.7</ele>
        <time>2019-11-11T09:21:46Z</time>
      </trkpt>
      <trkpt lat="49.27406" lon="1.06554">
        <ele>26.7</ele>
        <time>2019-11-11T09:21:47Z</time>
      </trkpt>
      <trkpt lat="49.27411" lon="1.06558">
        <ele>26.7</ele>
        <time>2019-11-11T09:21:48Z</time>
      </trkpt>
      <trkpt lat="49.27415" lon="1.06564">
        <ele>26.7</ele>
        <time>2019-11-11T09:21:49Z</time>
      </trkpt>
      <trkpt lat="49.27419" lon="1.06569">
        <ele>26.7</ele>
        <time>2019-11-11T09:21:50Z</time>
      </trkpt>
      <trkpt lat="49.27423" lon="1.06573">
        <ele>26.7</ele>
        <time>2019-11-11T09:21:51Z</time>
      </trkpt>
      <trkpt lat="49.27428" lon="1.06578">
        <ele>26.7</ele>
        <time>2019-11-11T09:21:52Z</time>
      </trkpt>
      <trkpt lat="49.27432" lon="1.06583">
        <ele>26.7</ele>
        <time>2019-11-11T09:21:53Z</time>
      </trkpt>
      <trkpt lat="49.27436" lon="1.06588">
        <ele>26.7</ele>
        <time>2019-11-11T09:21:54Z</time>
      </trkpt>
      <trkpt lat="49.2744" lon="1.06593">
        <ele>26.7</ele>
        <time>2019-11-11T09:21:55Z</time>
      </trkpt>
      <trkpt lat="49.27443" lon="1.06598">
        <ele>26.7</ele>
        <time>2019-11-11T09:21:56Z</time>
      </trkpt>
      <trkpt lat="49.27447" lon="1.06604">
        <ele>26.7</ele>
        <time>2019-11-11T09:21:57Z</time>
      </trkpt>
      <trkpt lat="49.27451" lon="1.06609">
        <ele>26.7</ele>
        <time>2019-11-11T09:21:58Z</time>
      </trkpt>
      <trkpt lat="49.27455" lon="1.06614">
        <ele>26.7</ele>
        <time>2019-11-11T09:21:59Z</time>
      </trkpt>
      <trkpt lat="49.27459" lon="1.06619">
        <ele>26.7</ele>
        <time>2019-11-11T09:22:00Z</time>
      </trkpt>
      <trkpt lat="49.27463" lon="1.06624">
        <ele>26.7</ele>
        <time>2019-11-11T09:22:01Z</time>
      </trkpt>
      <trkpt lat="49.27467" lon="1.06629">
        <ele>26.7</ele>
        <time>2019-11-11T09:22:02Z</time>
      </trkpt>
      <trkpt lat="49.27471" lon="1.06633">
        <ele>26.7</ele>
        <time>2019-11-11T09:22:03Z</time>
      </trkpt>
      <trkpt lat="49.27474" lon="1.06638">
        <ele>26.7</ele>
        <time>2019-11-11T09:22:04Z</time>
      </trkpt>
      <trkpt lat="49.27478" lon="1.06643">
        <ele>26.7</ele>
        <time>2019-11-11T09:22:05Z</time>
      </trkpt>
      <trkpt lat="49.27481" lon="1.06649">
        <ele>26.7</ele>
        <time>2019-11-11T09:22:06Z</time>
      </trkpt>
      <trkpt lat="49.27485" lon="1.06654">
        <ele>26.7</ele>
        <time>2019-11-11T09:22:07Z</time>
      </trkpt>
      <trkpt lat="49.27489" lon="1.06659">
        <ele>26.7</ele>
        <time>2019-11-11T09:22:08Z</time>
      </trkpt>
      <trkpt lat="49.27493" lon="1.06665">
        <ele>26.7</ele>
        <time>2019-11-11T09:22:09Z</time>
      </trkpt>
      <trkpt lat="49.27497" lon="1.0667">
        <ele>26.7</ele>
        <time>2019-11-11T09:22:10Z</time>
      </trkpt>
      <trkpt lat="49.27501" lon="1.06675">
        <ele>26.7</ele>
        <time>2019-11-11T09:22:11Z</time>
      </trkpt>
      <trkpt lat="49.27505" lon="1.0668">
        <ele>26.7</ele>
        <time>2019-11-11T09:22:12Z</time>
      </trkpt>
      <trkpt lat="49.27509" lon="1.06685">
        <ele>26.7</ele>
        <time>2019-11-11T09:22:13Z</time>
      </trkpt>
      <trkpt lat="49.27512" lon="1.0669">
        <ele>26.7</ele>
        <time>2019-11-11T09:22:14Z</time>
      </trkpt>
      <trkpt lat="49.27516" lon="1.06694">
        <ele>26.7</ele>
        <time>2019-11-11T09:22:15Z</time>
      </trkpt>
      <trkpt lat="49.27519" lon="1.06699">
        <ele>26.7</ele>
        <time>2019-11-11T09:22:16Z</time>
      </trkpt>
      <trkpt lat="49.27523" lon="1.06704">
        <ele>26.7</ele>
        <time>2019-11-11T09:22:17Z</time>
      </trkpt>
      <trkpt lat="49.27526" lon="1.06709">
        <ele>26.7</ele>
        <time>2019-11-11T09:22:18Z</time>
      </trkpt>
      <trkpt lat="49.2753" lon="1.06715">
        <ele>26.7</ele>
        <time>2019-11-11T09:22:19Z</time>
      </trkpt>
      <trkpt lat="49.27533" lon="1.0672">
        <ele>26.7</ele>
        <time>2019-11-11T09:22:20Z</time>
      </trkpt>
      <trkpt lat="49.27537" lon="1.06725">
        <ele>26.7</ele>
        <time>2019-11-11T09:22:21Z</time>
      </trkpt>
      <trkpt lat="49.27541" lon="1.0673">
        <ele>26.7</ele>
        <time>2019-11-11T09:22:22Z</time>
      </trkpt>
      <trkpt lat="49.27545" lon="1.06735">
        <ele>26.7</ele>
        <time>2019-11-11T09:22:23Z</time>
      </trkpt>
      <trkpt lat="49.27548" lon="1.0674">
        <ele>26.7</ele>
        <time>2019-11-11T09:22:24Z</time>
      </trkpt>
      <trkpt lat="49.27552" lon="1.06746">
        <ele>26.7</ele>
        <time>2019-11-11T09:22:25Z</time>
      </trkpt>
      <trkpt lat="49.27556" lon="1.0675">
        <ele>26.7</ele>
        <time>2019-11-11T09:22:26Z</time>
      </trkpt>
      <trkpt lat="49.2756" lon="1.06756">
        <ele>26.7</ele>
        <time>2019-11-11T09:22:27Z</time>
      </trkpt>
      <trkpt lat="49.27564" lon="1.06761">
        <ele>26.7</ele>
        <time>2019-11-11T09:22:28Z</time>
      </trkpt>
      <trkpt lat="49.27567" lon="1.06766">
        <ele>26.7</ele>
        <time>2019-11-11T09:22:29Z</time>
      </trkpt>
      <trkpt lat="49.27571" lon="1.06772">
        <ele>26.7</ele>
        <time>2019-11-11T09:22:30Z</time>
      </trkpt>
      <trkpt lat="49.27575" lon="1.06777">
        <ele>26.7</ele>
        <time>2019-11-11T09:22:31Z</time>
      </trkpt>
      <trkpt lat="49.27578" lon="1.06782">
        <ele>26.7</ele>
        <time>2019-11-11T09:22:32Z</time>
      </trkpt>
      <trkpt lat="49.27582" lon="1.06787">
        <ele>26.7</ele>
        <time>2019-11-11T09:22:33Z</time>
      </trkpt>
      <trkpt lat="49.27586" lon="1.06792">
        <ele>26.7</ele>
        <time>2019-11-11T09:22:34Z</time>
      </trkpt>
      <trkpt lat="49.2759" lon="1.06797">
        <ele>26.7</ele>
        <time>2019-11-11T09:22:35Z</time>
      </trkpt>
      <trkpt lat="49.27594" lon="1.06802">
        <ele>26.7</ele>
        <time>2019-11-11T09:22:36Z</time>
      </trkpt>
      <trkpt lat="49.27598" lon="1.06807">
        <ele>26.7</ele>
        <time>2019-11-11T09:22:37Z</time>
      </trkpt>
      <trkpt lat="49.27602" lon="1.06812">
        <ele>26.7</ele>
        <time>2019-11-11T09:22:38Z</time>
      </trkpt>
      <trkpt lat="49.27605" lon="1.06816">
        <ele>26.7</ele>
        <time>2019-11-11T09:22:39Z</time>
      </trkpt>
      <trkpt lat="49.27609" lon="1.06821">
        <ele>26.7</ele>
        <time>2019-11-11T09:22:40Z</time>
      </trkpt>
      <trkpt lat="49.27613" lon="1.06826">
        <ele>26.7</ele>
        <time>2019-11-11T09:22:41Z</time>
      </trkpt>
      <trkpt lat="49.27616" lon="1.06831">
        <ele>26.7</ele>
        <time>2019-11-11T09:22:42Z</time>
      </trkpt>
      <trkpt lat="49.27619" lon="1.06836">
        <ele>26.7</ele>
        <time>2019-11-11T09:22:43Z</time>
      </trkpt>
      <trkpt lat="49.27622" lon="1.06841">
        <ele>26.7</ele>
        <time>2019-11-11T09:22:44Z</time>
      </trkpt>
      <trkpt lat="49.27624" lon="1.06847">
        <ele>26.7</ele>
        <time>2019-11-11T09:22:45Z</time>
      </trkpt>
      <trkpt lat="49.27625" lon="1.06854">
        <ele>26.7</ele>
        <time>2019-11-11T09:22:46Z</time>
      </trkpt>
      <trkpt lat="49.27625" lon="1.0686">
        <ele>26.7</ele>
        <time>2019-11-11T09:22:47Z</time>
      </trkpt>
      <trkpt lat="49.27624" lon="1.06866">
        <ele>26.7</ele>
        <time>2019-11-11T09:22:48Z</time>
      </trkpt>
      <trkpt lat="49.27621" lon="1.06871">
        <ele>26.7</ele>
        <time>2019-11-11T09:22:49Z</time>
      </trkpt>
      <trkpt lat="49.27619" lon="1.06875">
        <ele>26.7</ele>
        <time>2019-11-11T09:22:50Z</time>
      </trkpt>
      <trkpt lat="49.27615" lon="1.06878">
        <ele>26.7</ele>
        <time>2019-11-11T09:22:51Z</time>
      </trkpt>
      <trkpt lat="49.27612" lon="1.06882">
        <ele>26.7</ele>
        <time>2019-11-11T09:22:52Z</time>
      </trkpt>
      <trkpt lat="49.27608" lon="1.06885">
        <ele>26.7</ele>
        <time>2019-11-11T09:22:53Z</time>
      </trkpt>
      <trkpt lat="49.27604" lon="1.06889">
        <ele>26.7</ele>
        <time>2019-11-11T09:22:54Z</time>
      </trkpt>
      <trkpt lat="49.27601" lon="1.06892">
        <ele>26.7</ele>
        <time>2019-11-11T09:22:55Z</time>
      </trkpt>
      <trkpt lat="49.27597" lon="1.06895">
        <ele>26.7</ele>
        <time>2019-11-11T09:22:56Z</time>
      </trkpt>
      <trkpt lat="49.27594" lon="1.06899">
        <ele>26.7</ele>
        <time>2019-11-11T09:22:57Z</time>
      </trkpt>
      <trkpt lat="49.2759" lon="1.06902">
        <ele>26.7</ele>
        <time>2019-11-11T09:22:58Z</time>
      </trkpt>
      <trkpt lat="49.27587" lon="1.06905">
        <ele>27.7</ele>
        <time>2019-11-11T09:22:59Z</time>
      </trkpt>
      <trkpt lat="49.27584" lon="1.06908">
        <ele>27.7</ele>
        <time>2019-11-11T09:23:00Z</time>
      </trkpt>
      <trkpt lat="49.2758" lon="1.06911">
        <ele>27.7</ele>
        <time>2019-11-11T09:23:01Z</time>
      </trkpt>
      <trkpt lat="49.27577" lon="1.06914">
        <ele>27.7</ele>
        <time>2019-11-11T09:23:02Z</time>
      </trkpt>
      <trkpt lat="49.27573" lon="1.06917">
        <ele>27.7</ele>
        <time>2019-11-11T09:23:03Z</time>
      </trkpt>
      <trkpt lat="49.2757" lon="1.0692">
        <ele>27.7</ele>
        <time>2019-11-11T09:23:04Z</time>
      </trkpt>
      <trkpt lat="49.27567" lon="1.06922">
        <ele>27.7</ele>
        <time>2019-11-11T09:23:05Z</time>
      </trkpt>
      <trkpt lat="49.27563" lon="1.06926">
        <ele>27.7</ele>
        <time>2019-11-11T09:23:06Z</time>
      </trkpt>
      <trkpt lat="49.2756" lon="1.06928">
        <ele>27.7</ele>
        <time>2019-11-11T09:23:07Z</time>
      </trkpt>
      <trkpt lat="49.27556" lon="1.06931">
        <ele>27.7</ele>
        <time>2019-11-11T09:23:08Z</time>
      </trkpt>
      <trkpt lat="49.27553" lon="1.06934">
        <ele>27.7</ele>
        <time>2019-11-11T09:23:09Z</time>
      </trkpt>
      <trkpt lat="49.2755" lon="1.06937">
        <ele>27.7</ele>
        <time>2019-11-11T09:23:10Z</time>
      </trkpt>
      <trkpt lat="49.27546" lon="1.0694">
        <ele>27.7</ele>
        <time>2019-11-11T09:23:11Z</time>
      </trkpt>
      <trkpt lat="49.27543" lon="1.06943">
        <ele>27.7</ele>
        <time>2019-11-11T09:23:12Z</time>
      </trkpt>
      <trkpt lat="49.27539" lon="1.06945">
        <ele>27.7</ele>
        <time>2019-11-11T09:23:13Z</time>
      </trkpt>
      <trkpt lat="49.27535" lon="1.06948">
        <ele>27.7</ele>
        <time>2019-11-11T09:23:14Z</time>
      </trkpt>
      <trkpt lat="49.27532" lon="1.0695">
        <ele>27.7</ele>
        <time>2019-11-11T09:23:15Z</time>
      </trkpt>
      <trkpt lat="49.27528" lon="1.06953">
        <ele>27.7</ele>
        <time>2019-11-11T09:23:16Z</time>
      </trkpt>
      <trkpt lat="49.27525" lon="1.06955">
        <ele>28.8</ele>
        <time>2019-11-11T09:23:17Z</time>
      </trkpt>
      <trkpt lat="49.27521" lon="1.06958">
        <ele>28.8</ele>
        <time>2019-11-11T09:23:18Z</time>
      </trkpt>
      <trkpt lat="49.27518" lon="1.0696">
        <ele>28.8</ele>
        <time>2019-11-11T09:23:19Z</time>
      </trkpt>
      <trkpt lat="49.27514" lon="1.06963">
        <ele>28.8</ele>
        <time>2019-11-11T09:23:20Z</time>
      </trkpt>
      <trkpt lat="49.27511" lon="1.06966">
        <ele>28.8</ele>
        <time>2019-11-11T09:23:21Z</time>
      </trkpt>
      <trkpt lat="49.27508" lon="1.06969">
        <ele>28.8</ele>
        <time>2019-11-11T09:23:22Z</time>
      </trkpt>
      <trkpt lat="49.27505" lon="1.06972">
        <ele>28.8</ele>
        <time>2019-11-11T09:23:23Z</time>
      </trkpt>
      <trkpt lat="49.27501" lon="1.06975">
        <ele>28.8</ele>
        <time>2019-11-11T09:23:24Z</time>
      </trkpt>
      <trkpt lat="49.27498" lon="1.06978">
        <ele>28.8</ele>
        <time>2019-11-11T09:23:25Z</time>
      </trkpt>
      <trkpt lat="49.27495" lon="1.0698">
        <ele>28.8</ele>
        <time>2019-11-11T09:23:26Z</time>
      </trkpt>
      <trkpt lat="49.27492" lon="1.06983">
        <ele>28.8</ele>
        <time>2019-11-11T09:23:27Z</time>
      </trkpt>
      <trkpt lat="49.27489" lon="1.06986">
        <ele>28.8</ele>
        <time>2019-11-11T09:23:28Z</time>
      </trkpt>
      <trkpt lat="49.27485" lon="1.06988">
        <ele>28.8</ele>
        <time>2019-11-11T09:23:29Z</time>
      </trkpt>
      <trkpt lat="49.27482" lon="1.06991">
        <ele>28.8</ele>
        <time>2019-11-11T09:23:30Z</time>
      </trkpt>
      <trkpt lat="49.27479" lon="1.06993">
        <ele>28.8</ele>
        <time>2019-11-11T09:23:31Z</time>
      </trkpt>
      <trkpt lat="49.27475" lon="1.06996">
        <ele>28.8</ele>
        <time>2019-11-11T09:23:32Z</time>
      </trkpt>
      <trkpt lat="49.27472" lon="1.06999">
        <ele>28.8</ele>
        <time>2019-11-11T09:23:33Z</time>
      </trkpt>
      <trkpt lat="49.27468" lon="1.07002">
        <ele>28.8</ele>
        <time>2019-11-11T09:23:34Z</time>
      </trkpt>
      <trkpt lat="49.27465" lon="1.07005">
        <ele>28.8</ele>
        <time>2019-11-11T09:23:35Z</time>
      </trkpt>
      <trkpt lat="49.27462" lon="1.07008">
        <ele>28.8</ele>
        <time>2019-11-11T09:23:36Z</time>
      </trkpt>
      <trkpt lat="49.27459" lon="1.07011">
        <ele>28.8</ele>
        <time>2019-11-11T09:23:37Z</time>
      </trkpt>
      <trkpt lat="49.27456" lon="1.07013">
        <ele>28.8</ele>
        <time>2019-11-11T09:23:38Z</time>
      </trkpt>
      <trkpt lat="49.27452" lon="1.07016">
        <ele>28.8</ele>
        <time>2019-11-11T09:23:39Z</time>
      </trkpt>
      <trkpt lat="49.27449" lon="1.07018">
        <ele>28.8</ele>
        <time>2019-11-11T09:23:40Z</time>
      </trkpt>
      <trkpt lat="49.27446" lon="1.0702">
        <ele>28.8</ele>
        <time>2019-11-11T09:23:41Z</time>
      </trkpt>
      <trkpt lat="49.27443" lon="1.07023">
        <ele>28.8</ele>
        <time>2019-11-11T09:23:42Z</time>
      </trkpt>
      <trkpt lat="49.2744" lon="1.07026">
        <ele>29.7</ele>
        <time>2019-11-11T09:23:43Z</time>
      </trkpt>
      <trkpt lat="49.27437" lon="1.07028">
        <ele>29.7</ele>
        <time>2019-11-11T09:23:44Z</time>
      </trkpt>
      <trkpt lat="49.27434" lon="1.07031">
        <ele>29.7</ele>
        <time>2019-11-11T09:23:45Z</time>
      </trkpt>
      <trkpt lat="49.27431" lon="1.07033">
        <ele>29.7</ele>
        <time>2019-11-11T09:23:46Z</time>
      </trkpt>
      <trkpt lat="49.27428" lon="1.07036">
        <ele>29.7</ele>
        <time>2019-11-11T09:23:47Z</time>
      </trkpt>
      <trkpt lat="49.27426" lon="1.07039">
        <ele>29.7</ele>
        <time>2019-11-11T09:23:48Z</time>
      </trkpt>
      <trkpt lat="49.27422" lon="1.07042">
        <ele>30.8</ele>
        <time>2019-11-11T09:23:49Z</time>
      </trkpt>
      <trkpt lat="49.27419" lon="1.07044">
        <ele>30.8</ele>
        <time>2019-11-11T09:23:50Z</time>
      </trkpt>
      <trkpt lat="49.27416" lon="1.07047">
        <ele>30.8</ele>
        <time>2019-11-11T09:23:51Z</time>
      </trkpt>
      <trkpt lat="49.27413" lon="1.07049">
        <ele>30.8</ele>
        <time>2019-11-11T09:23:52Z</time>
      </trkpt>
      <trkpt lat="49.2741" lon="1.07052">
        <ele>30.8</ele>
        <time>2019-11-11T09:23:53Z</time>
      </trkpt>
      <trkpt lat="49.27406" lon="1.07055">
        <ele>30.8</ele>
        <time>2019-11-11T09:23:54Z</time>
      </trkpt>
      <trkpt lat="49.27404" lon="1.07058">
        <ele>30.8</ele>
        <time>2019-11-11T09:23:55Z</time>
      </trkpt>
      <trkpt lat="49.27401" lon="1.07061">
        <ele>30.8</ele>
        <time>2019-11-11T09:23:56Z</time>
      </trkpt>
      <trkpt lat="49.27398" lon="1.07064">
        <ele>30.8</ele>
        <time>2019-11-11T09:23:57Z</time>
      </trkpt>
      <trkpt lat="49.27395" lon="1.07067">
        <ele>30.8</ele>
        <time>2019-11-11T09:23:58Z</time>
      </trkpt>
      <trkpt lat="49.27392" lon="1.0707">
        <ele>31.7</ele>
        <time>2019-11-11T09:23:59Z</time>
      </trkpt>
      <trkpt lat="49.27388" lon="1.07073">
        <ele>31.7</ele>
        <time>2019-11-11T09:24:00Z</time>
      </trkpt>
      <trkpt lat="49.27385" lon="1.07075">
        <ele>31.7</ele>
        <time>2019-11-11T09:24:01Z</time>
      </trkpt>
      <trkpt lat="49.27382" lon="1.07078">
        <ele>31.7</ele>
        <time>2019-11-11T09:24:02Z</time>
      </trkpt>
      <trkpt lat="49.27379" lon="1.07081">
        <ele>31.7</ele>
        <time>2019-11-11T09:24:03Z</time>
      </trkpt>
      <trkpt lat="49.27376" lon="1.07084">
        <ele>31.7</ele>
        <time>2019-11-11T09:24:04Z</time>
      </trkpt>
      <trkpt lat="49.27372" lon="1.07087">
        <ele>31.7</ele>
        <time>2019-11-11T09:24:05Z</time>
      </trkpt>
      <trkpt lat="49.27369" lon="1.07089">
        <ele>31.7</ele>
        <time>2019-11-11T09:24:06Z</time>
      </trkpt>
      <trkpt lat="49.27366" lon="1.07092">
        <ele>31.7</ele>
        <time>2019-11-11T09:24:07Z</time>
      </trkpt>
      <trkpt lat="49.27362" lon="1.07095">
        <ele>31.7</ele>
        <time>2019-11-11T09:24:08Z</time>
      </trkpt>
      <trkpt lat="49.27359" lon="1.07098">
        <ele>31.7</ele>
        <time>2019-11-11T09:24:09Z</time>
      </trkpt>
      <trkpt lat="49.27355" lon="1.07101">
        <ele>31.7</ele>
        <time>2019-11-11T09:24:10Z</time>
      </trkpt>
      <trkpt lat="49.27352" lon="1.07103">
        <ele>32.8</ele>
        <time>2019-11-11T09:24:11Z</time>
      </trkpt>
      <trkpt lat="49.27348" lon="1.07106">
        <ele>32.8</ele>
        <time>2019-11-11T09:24:12Z</time>
      </trkpt>
      <trkpt lat="49.27345" lon="1.07108">
        <ele>32.8</ele>
        <time>2019-11-11T09:24:13Z</time>
      </trkpt>
      <trkpt lat="49.27341" lon="1.07109">
        <ele>32.8</ele>
        <time>2019-11-11T09:24:14Z</time>
      </trkpt>
      <trkpt lat="49.27338" lon="1.07112">
        <ele>32.8</ele>
        <time>2019-11-11T09:24:15Z</time>
      </trkpt>
      <trkpt lat="49.27334" lon="1.07114">
        <ele>32.8</ele>
        <time>2019-11-11T09:24:16Z</time>
      </trkpt>
      <trkpt lat="49.27331" lon="1.07117">
        <ele>33.7</ele>
        <time>2019-11-11T09:24:17Z</time>
      </trkpt>
      <trkpt lat="49.27327" lon="1.0712">
        <ele>33.7</ele>
        <time>2019-11-11T09:24:18Z</time>
      </trkpt>
      <trkpt lat="49.27324" lon="1.07122">
        <ele>33.7</ele>
        <time>2019-11-11T09:24:19Z</time>
      </trkpt>
      <trkpt lat="49.2732" lon="1.07125">
        <ele>33.7</ele>
        <time>2019-11-11T09:24:20Z</time>
      </trkpt>
      <trkpt lat="49.27317" lon="1.07127">
        <ele>33.7</ele>
        <time>2019-11-11T09:24:21Z</time>
      </trkpt>
      <trkpt lat="49.27314" lon="1.0713">
        <ele>33.7</ele>
        <time>2019-11-11T09:24:22Z</time>
      </trkpt>
      <trkpt lat="49.2731" lon="1.07133">
        <ele>33.7</ele>
        <time>2019-11-11T09:24:23Z</time>
      </trkpt>
      <trkpt lat="49.27307" lon="1.07135">
        <ele>33.7</ele>
        <time>2019-11-11T09:24:24Z</time>
      </trkpt>
      <trkpt lat="49.27303" lon="1.07138">
        <ele>33.7</ele>
        <time>2019-11-11T09:24:25Z</time>
      </trkpt>
      <trkpt lat="49.273" lon="1.07141">
        <ele>33.7</ele>
        <time>2019-11-11T09:24:26Z</time>
      </trkpt>
      <trkpt lat="49.27297" lon="1.07143">
        <ele>33.7</ele>
        <time>2019-11-11T09:24:27Z</time>
      </trkpt>
      <trkpt lat="49.27293" lon="1.07146">
        <ele>33.7</ele>
        <time>2019-11-11T09:24:28Z</time>
      </trkpt>
      <trkpt lat="49.2729" lon="1.07148">
        <ele>33.7</ele>
        <time>2019-11-11T09:24:29Z</time>
      </trkpt>
      <trkpt lat="49.27287" lon="1.0715">
        <ele>33.7</ele>
        <time>2019-11-11T09:24:30Z</time>
      </trkpt>
      <trkpt lat="49.27284" lon="1.07153">
        <ele>33.7</ele>
        <time>2019-11-11T09:24:31Z</time>
      </trkpt>
      <trkpt lat="49.27281" lon="1.07156">
        <ele>33.7</ele>
        <time>2019-11-11T09:24:32Z</time>
      </trkpt>
      <trkpt lat="49.27278" lon="1.07159">
        <ele>34.7</ele>
        <time>2019-11-11T09:24:33Z</time>
      </trkpt>
      <trkpt lat="49.27274" lon="1.07162">
        <ele>34.7</ele>
        <time>2019-11-11T09:24:34Z</time>
      </trkpt>
      <trkpt lat="49.27271" lon="1.07164">
        <ele>34.7</ele>
        <time>2019-11-11T09:24:35Z</time>
      </trkpt>
      <trkpt lat="49.27268" lon="1.07167">
        <ele>34.7</ele>
        <time>2019-11-11T09:24:36Z</time>
      </trkpt>
      <trkpt lat="49.27264" lon="1.07169">
        <ele>34.7</ele>
        <time>2019-11-11T09:24:37Z</time>
      </trkpt>
      <trkpt lat="49.27261" lon="1.07172">
        <ele>34.7</ele>
        <time>2019-11-11T09:24:38Z</time>
      </trkpt>
      <trkpt lat="49.27258" lon="1.07174">
        <ele>34.7</ele>
        <time>2019-11-11T09:24:39Z</time>
      </trkpt>
      <trkpt lat="49.27254" lon="1.07177">
        <ele>34.7</ele>
        <time>2019-11-11T09:24:40Z</time>
      </trkpt>
      <trkpt lat="49.27251" lon="1.07179">
        <ele>34.7</ele>
        <time>2019-11-11T09:24:41Z</time>
      </trkpt>
      <trkpt lat="49.27247" lon="1.07181">
        <ele>34.7</ele>
        <time>2019-11-11T09:24:42Z</time>
      </trkpt>
      <trkpt lat="49.27244" lon="1.07182">
        <ele>34.7</ele>
        <time>2019-11-11T09:24:43Z</time>
      </trkpt>
      <trkpt lat="49.27241" lon="1.07185">
        <ele>34.7</ele>
        <time>2019-11-11T09:24:44Z</time>
      </trkpt>
      <trkpt lat="49.27237" lon="1.07187">
        <ele>34.7</ele>
        <time>2019-11-11T09:24:45Z</time>
      </trkpt>
      <trkpt lat="49.27234" lon="1.0719">
        <ele>34.7</ele>
        <time>2019-11-11T09:24:46Z</time>
      </trkpt>
      <trkpt lat="49.27231" lon="1.07192">
        <ele>34.7</ele>
        <time>2019-11-11T09:24:47Z</time>
      </trkpt>
      <trkpt lat="49.27227" lon="1.07194">
        <ele>34.7</ele>
        <time>2019-11-11T09:24:48Z</time>
      </trkpt>
      <trkpt lat="49.27224" lon="1.07197">
        <ele>34.7</ele>
        <time>2019-11-11T09:24:49Z</time>
      </trkpt>
      <trkpt lat="49.2722" lon="1.07199">
        <ele>34.7</ele>
        <time>2019-11-11T09:24:50Z</time>
      </trkpt>
      <trkpt lat="49.27217" lon="1.07202">
        <ele>36.7</ele>
        <time>2019-11-11T09:24:51Z</time>
      </trkpt>
      <trkpt lat="49.27213" lon="1.07205">
        <ele>36.7</ele>
        <time>2019-11-11T09:24:52Z</time>
      </trkpt>
      <trkpt lat="49.2721" lon="1.07207">
        <ele>36.7</ele>
        <time>2019-11-11T09:24:53Z</time>
      </trkpt>
      <trkpt lat="49.27206" lon="1.0721">
        <ele>36.7</ele>
        <time>2019-11-11T09:24:54Z</time>
      </trkpt>
      <trkpt lat="49.27203" lon="1.07213">
        <ele>36.7</ele>
        <time>2019-11-11T09:24:55Z</time>
      </trkpt>
      <trkpt lat="49.27199" lon="1.07216">
        <ele>36.7</ele>
        <time>2019-11-11T09:24:56Z</time>
      </trkpt>
      <trkpt lat="49.27196" lon="1.07219">
        <ele>36.7</ele>
        <time>2019-11-11T09:24:57Z</time>
      </trkpt>
      <trkpt lat="49.27192" lon="1.07221">
        <ele>36.7</ele>
        <time>2019-11-11T09:24:58Z</time>
      </trkpt>
      <trkpt lat="49.27189" lon="1.07224">
        <ele>36.7</ele>
        <time>2019-11-11T09:24:59Z</time>
      </trkpt>
      <trkpt lat="49.27186" lon="1.07227">
        <ele>36.7</ele>
        <time>2019-11-11T09:25:00Z</time>
      </trkpt>
      <trkpt lat="49.27182" lon="1.07229">
        <ele>36.7</ele>
        <time>2019-11-11T09:25:01Z</time>
      </trkpt>
      <trkpt lat="49.27178" lon="1.07232">
        <ele>36.7</ele>
        <time>2019-11-11T09:25:02Z</time>
      </trkpt>
      <trkpt lat="49.27175" lon="1.07235">
        <ele>36.7</ele>
        <time>2019-11-11T09:25:03Z</time>
      </trkpt>
      <trkpt lat="49.27172" lon="1.07238">
        <ele>36.7</ele>
        <time>2019-11-11T09:25:04Z</time>
      </trkpt>
      <trkpt lat="49.27168" lon="1.0724">
        <ele>36.7</ele>
        <time>2019-11-11T09:25:05Z</time>
      </trkpt>
      <trkpt lat="49.27165" lon="1.07242">
        <ele>36.7</ele>
        <time>2019-11-11T09:25:06Z</time>
      </trkpt>
      <trkpt lat="49.27161" lon="1.07245">
        <ele>37.8</ele>
        <time>2019-11-11T09:25:07Z</time>
      </trkpt>
      <trkpt lat="49.27158" lon="1.07247">
        <ele>37.8</ele>
        <time>2019-11-11T09:25:08Z</time>
      </trkpt>
      <trkpt lat="49.27155" lon="1.0725">
        <ele>37.8</ele>
        <time>2019-11-11T09:25:09Z</time>
      </trkpt>
      <trkpt lat="49.27152" lon="1.07253">
        <ele>37.8</ele>
        <time>2019-11-11T09:25:10Z</time>
      </trkpt>
      <trkpt lat="49.27149" lon="1.07256">
        <ele>37.8</ele>
        <time>2019-11-11T09:25:11Z</time>
      </trkpt>
      <trkpt lat="49.27146" lon="1.07259">
        <ele>37.8</ele>
        <time>2019-11-11T09:25:12Z</time>
      </trkpt>
      <trkpt lat="49.27142" lon="1.07262">
        <ele>38.7</ele>
        <time>2019-11-11T09:25:13Z</time>
      </trkpt>
      <trkpt lat="49.27139" lon="1.07264">
        <ele>38.7</ele>
        <time>2019-11-11T09:25:14Z</time>
      </trkpt>
      <trkpt lat="49.27136" lon="1.07267">
        <ele>38.7</ele>
        <time>2019-11-11T09:25:15Z</time>
      </trkpt>
      <trkpt lat="49.27132" lon="1.07269">
        <ele>38.7</ele>
        <time>2019-11-11T09:25:16Z</time>
      </trkpt>
      <trkpt lat="49.27129" lon="1.07271">
        <ele>38.7</ele>
        <time>2019-11-11T09:25:17Z</time>
      </trkpt>
      <trkpt lat="49.27126" lon="1.07274">
        <ele>38.7</ele>
        <time>2019-11-11T09:25:18Z</time>
      </trkpt>
      <trkpt lat="49.27123" lon="1.07276">
        <ele>38.7</ele>
        <time>2019-11-11T09:25:19Z</time>
      </trkpt>
      <trkpt lat="49.27119" lon="1.07278">
        <ele>38.7</ele>
        <time>2019-11-11T09:25:20Z</time>
      </trkpt>
      <trkpt lat="49.27116" lon="1.07281">
        <ele>38.7</ele>
        <time>2019-11-11T09:25:21Z</time>
      </trkpt>
      <trkpt lat="49.27113" lon="1.07283">
        <ele>38.7</ele>
        <time>2019-11-11T09:25:22Z</time>
      </trkpt>
      <trkpt lat="49.2711" lon="1.07285">
        <ele>39.8</ele>
        <time>2019-11-11T09:25:23Z</time>
      </trkpt>
      <trkpt lat="49.27106" lon="1.07288">
        <ele>39.8</ele>
        <time>2019-11-11T09:25:24Z</time>
      </trkpt>
      <trkpt lat="49.27103" lon="1.0729">
        <ele>39.8</ele>
        <time>2019-11-11T09:25:25Z</time>
      </trkpt>
      <trkpt lat="49.271" lon="1.07293">
        <ele>39.8</ele>
        <time>2019-11-11T09:25:26Z</time>
      </trkpt>
      <trkpt lat="49.27096" lon="1.07295">
        <ele>39.8</ele>
        <time>2019-11-11T09:25:27Z</time>
      </trkpt>
      <trkpt lat="49.27093" lon="1.07298">
        <ele>39.8</ele>
        <time>2019-11-11T09:25:28Z</time>
      </trkpt>
      <trkpt lat="49.2709" lon="1.073">
        <ele>39.8</ele>
        <time>2019-11-11T09:25:29Z</time>
      </trkpt>
      <trkpt lat="49.27086" lon="1.07303">
        <ele>39.8</ele>
        <time>2019-11-11T09:25:30Z</time>
      </trkpt>
      <trkpt lat="49.27083" lon="1.07305">
        <ele>39.8</ele>
        <time>2019-11-11T09:25:31Z</time>
      </trkpt>
      <trkpt lat="49.2708" lon="1.07307">
        <ele>39.8</ele>
        <time>2019-11-11T09:25:32Z</time>
      </trkpt>
      <trkpt lat="49.27077" lon="1.07309">
        <ele>39.8</ele>
        <time>2019-11-11T09:25:33Z</time>
      </trkpt>
      <trkpt lat="49.27074" lon="1.07312">
        <ele>39.8</ele>
        <time>2019-11-11T09:25:34Z</time>
      </trkpt>
      <trkpt lat="49.2707" lon="1.07314">
        <ele>40.7</ele>
        <time>2019-11-11T09:25:35Z</time>
      </trkpt>
      <trkpt lat="49.27067" lon="1.07316">
        <ele>40.7</ele>
        <time>2019-11-11T09:25:36Z</time>
      </trkpt>
      <trkpt lat="49.27064" lon="1.07319">
        <ele>40.7</ele>
        <time>2019-11-11T09:25:37Z</time>
      </trkpt>
      <trkpt lat="49.27061" lon="1.07321">
        <ele>40.7</ele>
        <time>2019-11-11T09:25:38Z</time>
      </trkpt>
      <trkpt lat="49.27058" lon="1.07324">
        <ele>40.7</ele>
        <time>2019-11-11T09:25:39Z</time>
      </trkpt>
      <trkpt lat="49.27055" lon="1.07326">
        <ele>40.7</ele>
        <time>2019-11-11T09:25:40Z</time>
      </trkpt>
      <trkpt lat="49.27051" lon="1.07328">
        <ele>41.8</ele>
        <time>2019-11-11T09:25:41Z</time>
      </trkpt>
      <trkpt lat="49.27048" lon="1.0733">
        <ele>41.8</ele>
        <time>2019-11-11T09:25:42Z</time>
      </trkpt>
      <trkpt lat="49.27044" lon="1.07333">
        <ele>41.8</ele>
        <time>2019-11-11T09:25:43Z</time>
      </trkpt>
      <trkpt lat="49.27041" lon="1.07334">
        <ele>41.8</ele>
        <time>2019-11-11T09:25:44Z</time>
      </trkpt>
      <trkpt lat="49.27038" lon="1.07337">
        <ele>41.8</ele>
        <time>2019-11-11T09:25:45Z</time>
      </trkpt>
      <trkpt lat="49.27034" lon="1.07339">
        <ele>41.8</ele>
        <time>2019-11-11T09:25:46Z</time>
      </trkpt>
      <trkpt lat="49.27031" lon="1.07341">
        <ele>42.7</ele>
        <time>2019-11-11T09:25:47Z</time>
      </trkpt>
      <trkpt lat="49.27028" lon="1.07343">
        <ele>42.7</ele>
        <time>2019-11-11T09:25:48Z</time>
      </trkpt>
      <trkpt lat="49.27025" lon="1.07346">
        <ele>42.7</ele>
        <time>2019-11-11T09:25:49Z</time>
      </trkpt>
      <trkpt lat="49.27022" lon="1.07348">
        <ele>42.7</ele>
        <time>2019-11-11T09:25:50Z</time>
      </trkpt>
      <trkpt lat="49.27019" lon="1.0735">
        <ele>43.7</ele>
        <time>2019-11-11T09:25:51Z</time>
      </trkpt>
      <trkpt lat="49.27016" lon="1.07352">
        <ele>43.7</ele>
        <time>2019-11-11T09:25:52Z</time>
      </trkpt>
      <trkpt lat="49.27013" lon="1.07354">
        <ele>43.7</ele>
        <time>2019-11-11T09:25:53Z</time>
      </trkpt>
      <trkpt lat="49.2701" lon="1.07356">
        <ele>43.7</ele>
        <time>2019-11-11T09:25:54Z</time>
      </trkpt>
      <trkpt lat="49.27006" lon="1.07358">
        <ele>43.7</ele>
        <time>2019-11-11T09:25:55Z</time>
      </trkpt>
      <trkpt lat="49.27003" lon="1.0736">
        <ele>43.7</ele>
        <time>2019-11-11T09:25:56Z</time>
      </trkpt>
      <trkpt lat="49.27001" lon="1.07362">
        <ele>43.7</ele>
        <time>2019-11-11T09:25:57Z</time>
      </trkpt>
      <trkpt lat="49.26998" lon="1.07364">
        <ele>43.7</ele>
        <time>2019-11-11T09:25:58Z</time>
      </trkpt>
      <trkpt lat="49.26995" lon="1.07366">
        <ele>44.8</ele>
        <time>2019-11-11T09:25:59Z</time>
      </trkpt>
      <trkpt lat="49.26993" lon="1.07368">
        <ele>44.8</ele>
        <time>2019-11-11T09:26:00Z</time>
      </trkpt>
      <trkpt lat="49.26989" lon="1.0737">
        <ele>44.8</ele>
        <time>2019-11-11T09:26:01Z</time>
      </trkpt>
      <trkpt lat="49.26986" lon="1.07373">
        <ele>44.8</ele>
        <time>2019-11-11T09:26:02Z</time>
      </trkpt>
      <trkpt lat="49.26984" lon="1.07375">
        <ele>44.8</ele>
        <time>2019-11-11T09:26:03Z</time>
      </trkpt>
      <trkpt lat="49.26981" lon="1.07377">
        <ele>44.8</ele>
        <time>2019-11-11T09:26:04Z</time>
      </trkpt>
      <trkpt lat="49.26979" lon="1.0738">
        <ele>44.8</ele>
        <time>2019-11-11T09:26:05Z</time>
      </trkpt>
      <trkpt lat="49.26976" lon="1.07383">
        <ele>44.8</ele>
        <time>2019-11-11T09:26:06Z</time>
      </trkpt>
      <trkpt lat="49.26974" lon="1.07385">
        <ele>44.8</ele>
        <time>2019-11-11T09:26:07Z</time>
      </trkpt>
      <trkpt lat="49.26972" lon="1.07388">
        <ele>44.8</ele>
        <time>2019-11-11T09:26:08Z</time>
      </trkpt>
      <trkpt lat="49.26971" lon="1.07392">
        <ele>45.7</ele>
        <time>2019-11-11T09:26:09Z</time>
      </trkpt>
      <trkpt lat="49.26969" lon="1.07396">
        <ele>45.7</ele>
        <time>2019-11-11T09:26:10Z</time>
      </trkpt>
      <trkpt lat="49.26967" lon="1.07399">
        <ele>45.7</ele>
        <time>2019-11-11T09:26:11Z</time>
      </trkpt>
      <trkpt lat="49.26966" lon="1.07403">
        <ele>45.7</ele>
        <time>2019-11-11T09:26:12Z</time>
      </trkpt>
      <trkpt lat="49.26966" lon="1.07406">
        <ele>45.7</ele>
        <time>2019-11-11T09:26:13Z</time>
      </trkpt>
      <trkpt lat="49.26966" lon="1.0741">
        <ele>45.7</ele>
        <time>2019-11-11T09:26:14Z</time>
      </trkpt>
      <trkpt lat="49.26966" lon="1.07413">
        <ele>45.7</ele>
        <time>2019-11-11T09:26:15Z</time>
      </trkpt>
      <trkpt lat="49.26967" lon="1.07417">
        <ele>45.7</ele>
        <time>2019-11-11T09:26:16Z</time>
      </trkpt>
      <trkpt lat="49.26967" lon="1.0742">
        <ele>45.7</ele>
        <time>2019-11-11T09:26:17Z</time>
      </trkpt>
      <trkpt lat="49.26968" lon="1.07424">
        <ele>45.7</ele>
        <time>2019-11-11T09:26:18Z</time>
      </trkpt>
      <trkpt lat="49.26968" lon="1.07428">
        <ele>45.7</ele>
        <time>2019-11-11T09:26:19Z</time>
      </trkpt>
      <trkpt lat="49.26969" lon="1.07432">
        <ele>45.7</ele>
        <time>2019-11-11T09:26:20Z</time>
      </trkpt>
      <trkpt lat="49.2697" lon="1.07435">
        <ele>45.7</ele>
        <time>2019-11-11T09:26:21Z</time>
      </trkpt>
      <trkpt lat="49.26971" lon="1.07439">
        <ele>45.7</ele>
        <time>2019-11-11T09:26:22Z</time>
      </trkpt>
      <trkpt lat="49.26973" lon="1.07442">
        <ele>46.8</ele>
        <time>2019-11-11T09:26:23Z</time>
      </trkpt>
      <trkpt lat="49.26974" lon="1.07445">
        <ele>46.8</ele>
        <time>2019-11-11T09:26:24Z</time>
      </trkpt>
      <trkpt lat="49.26975" lon="1.07449">
        <ele>46.8</ele>
        <time>2019-11-11T09:26:25Z</time>
      </trkpt>
      <trkpt lat="49.26977" lon="1.07452">
        <ele>46.8</ele>
        <time>2019-11-11T09:26:26Z</time>
      </trkpt>
      <trkpt lat="49.26978" lon="1.07455">
        <ele>46.8</ele>
        <time>2019-11-11T09:26:27Z</time>
      </trkpt>
      <trkpt lat="49.26979" lon="1.07459">
        <ele>46.8</ele>
        <time>2019-11-11T09:26:28Z</time>
      </trkpt>
      <trkpt lat="49.26981" lon="1.07463">
        <ele>47.7</ele>
        <time>2019-11-11T09:26:29Z</time>
      </trkpt>
      <trkpt lat="49.26983" lon="1.07467">
        <ele>47.7</ele>
        <time>2019-11-11T09:26:30Z</time>
      </trkpt>
      <trkpt lat="49.26985" lon="1.07471">
        <ele>47.7</ele>
        <time>2019-11-11T09:26:31Z</time>
      </trkpt>
      <trkpt lat="49.26986" lon="1.07476">
        <ele>47.7</ele>
        <time>2019-11-11T09:26:32Z</time>
      </trkpt>
      <trkpt lat="49.26988" lon="1.0748">
        <ele>47.7</ele>
        <time>2019-11-11T09:26:33Z</time>
      </trkpt>
      <trkpt lat="49.26991" lon="1.07484">
        <ele>47.7</ele>
        <time>2019-11-11T09:26:34Z</time>
      </trkpt>
      <trkpt lat="49.26993" lon="1.07488">
        <ele>47.7</ele>
        <time>2019-11-11T09:26:35Z</time>
      </trkpt>
      <trkpt lat="49.26995" lon="1.07492">
        <ele>47.7</ele>
        <time>2019-11-11T09:26:36Z</time>
      </trkpt>
      <trkpt lat="49.26997" lon="1.07497">
        <ele>47.7</ele>
        <time>2019-11-11T09:26:37Z</time>
      </trkpt>
      <trkpt lat="49.26999" lon="1.07501">
        <ele>47.7</ele>
        <time>2019-11-11T09:26:38Z</time>
      </trkpt>
      <trkpt lat="49.27002" lon="1.07505">
        <ele>47.7</ele>
        <time>2019-11-11T09:26:39Z</time>
      </trkpt>
      <trkpt lat="49.27005" lon="1.07507">
        <ele>47.7</ele>
        <time>2019-11-11T09:26:40Z</time>
      </trkpt>
      <trkpt lat="49.27008" lon="1.07511">
        <ele>47.7</ele>
        <time>2019-11-11T09:26:41Z</time>
      </trkpt>
      <trkpt lat="49.27012" lon="1.07514">
        <ele>47.7</ele>
        <time>2019-11-11T09:26:42Z</time>
      </trkpt>
      <trkpt lat="49.27015" lon="1.07517">
        <ele>47.7</ele>
        <time>2019-11-11T09:26:43Z</time>
      </trkpt>
      <trkpt lat="49.27018" lon="1.0752">
        <ele>47.7</ele>
        <time>2019-11-11T09:26:44Z</time>
      </trkpt>
      <trkpt lat="49.27021" lon="1.07523">
        <ele>47.7</ele>
        <time>2019-11-11T09:26:45Z</time>
      </trkpt>
      <trkpt lat="49.27025" lon="1.07527">
        <ele>47.7</ele>
        <time>2019-11-11T09:26:46Z</time>
      </trkpt>
      <trkpt lat="49.27028" lon="1.0753">
        <ele>46.8</ele>
        <time>2019-11-11T09:26:47Z</time>
      </trkpt>
      <trkpt lat="49.27032" lon="1.07534">
        <ele>46.8</ele>
        <time>2019-11-11T09:26:48Z</time>
      </trkpt>
      <trkpt lat="49.27036" lon="1.07538">
        <ele>46.8</ele>
        <time>2019-11-11T09:26:49Z</time>
      </trkpt>
      <trkpt lat="49.2704" lon="1.07542">
        <ele>46.8</ele>
        <time>2019-11-11T09:26:50Z</time>
      </trkpt>
      <trkpt lat="49.27044" lon="1.07546">
        <ele>46.8</ele>
        <time>2019-11-11T09:26:51Z</time>
      </trkpt>
      <trkpt lat="49.27047" lon="1.07551">
        <ele>46.8</ele>
        <time>2019-11-11T09:26:52Z</time>
      </trkpt>
      <trkpt lat="49.27051" lon="1.07556">
        <ele>46.8</ele>
        <time>2019-11-11T09:26:53Z</time>
      </trkpt>
      <trkpt lat="49.27054" lon="1.07561">
        <ele>46.8</ele>
        <time>2019-11-11T09:26:54Z</time>
      </trkpt>
      <trkpt lat="49.27057" lon="1.07565">
        <ele>46.8</ele>
        <time>2019-11-11T09:26:55Z</time>
      </trkpt>
      <trkpt lat="49.27059" lon="1.07569">
        <ele>46.8</ele>
        <time>2019-11-11T09:26:56Z</time>
      </trkpt>
      <trkpt lat="49.27062" lon="1.07573">
        <ele>46.8</ele>
        <time>2019-11-11T09:26:57Z</time>
      </trkpt>
      <trkpt lat="49.27065" lon="1.07578">
        <ele>46.8</ele>
        <time>2019-11-11T09:26:58Z</time>
      </trkpt>
      <trkpt lat="49.27068" lon="1.07582">
        <ele>46.8</ele>
        <time>2019-11-11T09:26:59Z</time>
      </trkpt>
      <trkpt lat="49.27071" lon="1.07586">
        <ele>46.8</ele>
        <time>2019-11-11T09:27:00Z</time>
      </trkpt>
      <trkpt lat="49.27075" lon="1.0759">
        <ele>46.8</ele>
        <time>2019-11-11T09:27:01Z</time>
      </trkpt>
      <trkpt lat="49.27079" lon="1.07594">
        <ele>46.8</ele>
        <time>2019-11-11T09:27:02Z</time>
      </trkpt>
      <trkpt lat="49.27082" lon="1.07598">
        <ele>46.8</ele>
        <time>2019-11-11T09:27:03Z</time>
      </trkpt>
      <trkpt lat="49.27086" lon="1.07602">
        <ele>46.8</ele>
        <time>2019-11-11T09:27:04Z</time>
      </trkpt>
      <trkpt lat="49.2709" lon="1.07606">
        <ele>46.8</ele>
        <time>2019-11-11T09:27:05Z</time>
      </trkpt>
      <trkpt lat="49.27094" lon="1.07611">
        <ele>46.8</ele>
        <time>2019-11-11T09:27:06Z</time>
      </trkpt>
      <trkpt lat="49.27098" lon="1.07615">
        <ele>46.8</ele>
        <time>2019-11-11T09:27:07Z</time>
      </trkpt>
      <trkpt lat="49.27102" lon="1.07619">
        <ele>46.8</ele>
        <time>2019-11-11T09:27:08Z</time>
      </trkpt>
      <trkpt lat="49.27106" lon="1.07624">
        <ele>46.8</ele>
        <time>2019-11-11T09:27:09Z</time>
      </trkpt>
      <trkpt lat="49.2711" lon="1.07628">
        <ele>46.8</ele>
        <time>2019-11-11T09:27:10Z</time>
      </trkpt>
      <trkpt lat="49.27114" lon="1.07633">
        <ele>46.8</ele>
        <time>2019-11-11T09:27:11Z</time>
      </trkpt>
      <trkpt lat="49.27117" lon="1.07638">
        <ele>46.8</ele>
        <time>2019-11-11T09:27:12Z</time>
      </trkpt>
      <trkpt lat="49.2712" lon="1.07643">
        <ele>46.8</ele>
        <time>2019-11-11T09:27:13Z</time>
      </trkpt>
      <trkpt lat="49.27124" lon="1.07648">
        <ele>46.8</ele>
        <time>2019-11-11T09:27:14Z</time>
      </trkpt>
      <trkpt lat="49.27127" lon="1.07653">
        <ele>46.8</ele>
        <time>2019-11-11T09:27:15Z</time>
      </trkpt>
      <trkpt lat="49.2713" lon="1.07658">
        <ele>46.8</ele>
        <time>2019-11-11T09:27:16Z</time>
      </trkpt>
      <trkpt lat="49.27133" lon="1.07663">
        <ele>46.8</ele>
        <time>2019-11-11T09:27:17Z</time>
      </trkpt>
      <trkpt lat="49.27136" lon="1.07668">
        <ele>46.8</ele>
        <time>2019-11-11T09:27:18Z</time>
      </trkpt>
      <trkpt lat="49.27139" lon="1.07673">
        <ele>46.8</ele>
        <time>2019-11-11T09:27:19Z</time>
      </trkpt>
      <trkpt lat="49.27142" lon="1.07679">
        <ele>46.8</ele>
        <time>2019-11-11T09:27:20Z</time>
      </trkpt>
      <trkpt lat="49.27144" lon="1.07683">
        <ele>46.8</ele>
        <time>2019-11-11T09:27:21Z</time>
      </trkpt>
      <trkpt lat="49.27146" lon="1.07688">
        <ele>46.8</ele>
        <time>2019-11-11T09:27:22Z</time>
      </trkpt>
      <trkpt lat="49.27148" lon="1.07694">
        <ele>46.8</ele>
        <time>2019-11-11T09:27:23Z</time>
      </trkpt>
      <trkpt lat="49.27151" lon="1.07699">
        <ele>46.8</ele>
        <time>2019-11-11T09:27:24Z</time>
      </trkpt>
      <trkpt lat="49.27154" lon="1.07704">
        <ele>46.8</ele>
        <time>2019-11-11T09:27:25Z</time>
      </trkpt>
      <trkpt lat="49.27157" lon="1.07709">
        <ele>46.8</ele>
        <time>2019-11-11T09:27:26Z</time>
      </trkpt>
      <trkpt lat="49.2716" lon="1.07714">
        <ele>46.8</ele>
        <time>2019-11-11T09:27:27Z</time>
      </trkpt>
      <trkpt lat="49.27164" lon="1.07719">
        <ele>46.8</ele>
        <time>2019-11-11T09:27:28Z</time>
      </trkpt>
      <trkpt lat="49.27167" lon="1.07723">
        <ele>47.7</ele>
        <time>2019-11-11T09:27:29Z</time>
      </trkpt>
      <trkpt lat="49.27171" lon="1.07728">
        <ele>47.7</ele>
        <time>2019-11-11T09:27:30Z</time>
      </trkpt>
      <trkpt lat="49.27175" lon="1.07732">
        <ele>47.7</ele>
        <time>2019-11-11T09:27:31Z</time>
      </trkpt>
      <trkpt lat="49.27178" lon="1.07737">
        <ele>47.7</ele>
        <time>2019-11-11T09:27:32Z</time>
      </trkpt>
      <trkpt lat="49.27182" lon="1.07741">
        <ele>47.7</ele>
        <time>2019-11-11T09:27:33Z</time>
      </trkpt>
      <trkpt lat="49.27186" lon="1.07746">
        <ele>47.7</ele>
        <time>2019-11-11T09:27:34Z</time>
      </trkpt>
      <trkpt lat="49.2719" lon="1.0775">
        <ele>47.7</ele>
        <time>2019-11-11T09:27:35Z</time>
      </trkpt>
      <trkpt lat="49.27194" lon="1.07755">
        <ele>47.7</ele>
        <time>2019-11-11T09:27:36Z</time>
      </trkpt>
      <trkpt lat="49.27198" lon="1.07759">
        <ele>47.7</ele>
        <time>2019-11-11T09:27:37Z</time>
      </trkpt>
      <trkpt lat="49.27201" lon="1.07764">
        <ele>47.7</ele>
        <time>2019-11-11T09:27:38Z</time>
      </trkpt>
      <trkpt lat="49.27204" lon="1.07768">
        <ele>47.7</ele>
        <time>2019-11-11T09:27:39Z</time>
      </trkpt>
      <trkpt lat="49.27208" lon="1.07772">
        <ele>47.7</ele>
        <time>2019-11-11T09:27:40Z</time>
      </trkpt>
      <trkpt lat="49.27212" lon="1.07776">
        <ele>47.7</ele>
        <time>2019-11-11T09:27:41Z</time>
      </trkpt>
      <trkpt lat="49.27216" lon="1.07781">
        <ele>47.7</ele>
        <time>2019-11-11T09:27:42Z</time>
      </trkpt>
      <trkpt lat="49.27219" lon="1.07786">
        <ele>47.7</ele>
        <time>2019-11-11T09:27:43Z</time>
      </trkpt>
      <trkpt lat="49.27221" lon="1.07791">
        <ele>47.7</ele>
        <time>2019-11-11T09:27:44Z</time>
      </trkpt>
      <trkpt lat="49.27223" lon="1.07797">
        <ele>47.7</ele>
        <time>2019-11-11T09:27:45Z</time>
      </trkpt>
      <trkpt lat="49.27225" lon="1.07803">
        <ele>47.7</ele>
        <time>2019-11-11T09:27:46Z</time>
      </trkpt>
      <trkpt lat="49.27228" lon="1.07808">
        <ele>47.7</ele>
        <time>2019-11-11T09:27:47Z</time>
      </trkpt>
      <trkpt lat="49.2723" lon="1.07814">
        <ele>47.7</ele>
        <time>2019-11-11T09:27:48Z</time>
      </trkpt>
      <trkpt lat="49.27231" lon="1.07819">
        <ele>47.7</ele>
        <time>2019-11-11T09:27:49Z</time>
      </trkpt>
      <trkpt lat="49.27233" lon="1.07825">
        <ele>47.7</ele>
        <time>2019-11-11T09:27:50Z</time>
      </trkpt>
      <trkpt lat="49.27234" lon="1.0783">
        <ele>47.7</ele>
        <time>2019-11-11T09:27:51Z</time>
      </trkpt>
      <trkpt lat="49.27236" lon="1.07834">
        <ele>47.7</ele>
        <time>2019-11-11T09:27:52Z</time>
      </trkpt>
      <trkpt lat="49.27237" lon="1.07838">
        <ele>47.7</ele>
        <time>2019-11-11T09:27:53Z</time>
      </trkpt>
      <trkpt lat="49.27238" lon="1.07841">
        <ele>47.7</ele>
        <time>2019-11-11T09:27:54Z</time>
      </trkpt>
      <trkpt lat="49.27239" lon="1.07844">
        <ele>47.7</ele>
        <time>2019-11-11T09:27:55Z</time>
      </trkpt>
      <trkpt lat="49.2724" lon="1.07847">
        <ele>47.7</ele>
        <time>2019-11-11T09:27:56Z</time>
      </trkpt>
      <trkpt lat="49.27241" lon="1.0785">
        <ele>47.7</ele>
        <time>2019-11-11T09:27:57Z</time>
      </trkpt>
      <trkpt lat="49.27242" lon="1.07853">
        <ele>47.7</ele>
        <time>2019-11-11T09:27:58Z</time>
      </trkpt>
      <trkpt lat="49.27243" lon="1.07857">
        <ele>47.7</ele>
        <time>2019-11-11T09:27:59Z</time>
      </trkpt>
      <trkpt lat="49.27245" lon="1.07861">
        <ele>47.7</ele>
        <time>2019-11-11T09:28:00Z</time>
      </trkpt>
      <trkpt lat="49.27246" lon="1.07865">
        <ele>47.7</ele>
        <time>2019-11-11T09:28:01Z</time>
      </trkpt>
      <trkpt lat="49.27247" lon="1.07868">
        <ele>47.7</ele>
        <time>2019-11-11T09:28:02Z</time>
      </trkpt>
      <trkpt lat="49.27248" lon="1.07872">
        <ele>47.7</ele>
        <time>2019-11-11T09:28:03Z</time>
      </trkpt>
      <trkpt lat="49.27248" lon="1.07876">
        <ele>47.7</ele>
        <time>2019-11-11T09:28:04Z</time>
      </trkpt>
      <trkpt lat="49.27249" lon="1.0788">
        <ele>47.7</ele>
        <time>2019-11-11T09:28:05Z</time>
      </trkpt>
      <trkpt lat="49.27249" lon="1.07884">
        <ele>47.7</ele>
        <time>2019-11-11T09:28:06Z</time>
      </trkpt>
      <trkpt lat="49.2725" lon="1.07889">
        <ele>47.7</ele>
        <time>2019-11-11T09:28:07Z</time>
      </trkpt>
      <trkpt lat="49.2725" lon="1.07893">
        <ele>47.7</ele>
        <time>2019-11-11T09:28:08Z</time>
      </trkpt>
      <trkpt lat="49.27251" lon="1.07898">
        <ele>47.7</ele>
        <time>2019-11-11T09:28:09Z</time>
      </trkpt>
      <trkpt lat="49.27251" lon="1.07903">
        <ele>47.7</ele>
        <time>2019-11-11T09:28:10Z</time>
      </trkpt>
      <trkpt lat="49.27251" lon="1.07909">
        <ele>47.7</ele>
        <time>2019-11-11T09:28:11Z</time>
      </trkpt>
      <trkpt lat="49.2725" lon="1.07915">
        <ele>47.7</ele>
        <time>2019-11-11T09:28:12Z</time>
      </trkpt>
      <trkpt lat="49.27249" lon="1.0792">
        <ele>47.7</ele>
        <time>2019-11-11T09:28:13Z</time>
      </trkpt>
      <trkpt lat="49.27247" lon="1.07925">
        <ele>47.7</ele>
        <time>2019-11-11T09:28:14Z</time>
      </trkpt>
      <trkpt lat="49.27246" lon="1.0793">
        <ele>47.7</ele>
        <time>2019-11-11T09:28:15Z</time>
      </trkpt>
      <trkpt lat="49.27246" lon="1.07935">
        <ele>47.7</ele>
        <time>2019-11-11T09:28:16Z</time>
      </trkpt>
      <trkpt lat="49.27245" lon="1.07938">
        <ele>47.7</ele>
        <time>2019-11-11T09:28:17Z</time>
      </trkpt>
      <trkpt lat="49.27243" lon="1.07942">
        <ele>47.7</ele>
        <time>2019-11-11T09:28:18Z</time>
      </trkpt>
      <trkpt lat="49.27241" lon="1.07946">
        <ele>48.8</ele>
        <time>2019-11-11T09:28:19Z</time>
      </trkpt>
      <trkpt lat="49.27239" lon="1.0795">
        <ele>48.8</ele>
        <time>2019-11-11T09:28:20Z</time>
      </trkpt>
      <trkpt lat="49.27238" lon="1.07953">
        <ele>48.8</ele>
        <time>2019-11-11T09:28:21Z</time>
      </trkpt>
      <trkpt lat="49.27236" lon="1.07957">
        <ele>48.8</ele>
        <time>2019-11-11T09:28:22Z</time>
      </trkpt>
      <trkpt lat="49.27234" lon="1.07961">
        <ele>48.8</ele>
        <time>2019-11-11T09:28:23Z</time>
      </trkpt>
      <trkpt lat="49.27233" lon="1.07965">
        <ele>48.8</ele>
        <time>2019-11-11T09:28:24Z</time>
      </trkpt>
      <trkpt lat="49.27231" lon="1.07969">
        <ele>49.7</ele>
        <time>2019-11-11T09:28:25Z</time>
      </trkpt>
      <trkpt lat="49.27229" lon="1.07973">
        <ele>49.7</ele>
        <time>2019-11-11T09:28:26Z</time>
      </trkpt>
      <trkpt lat="49.27228" lon="1.07977">
        <ele>49.7</ele>
        <time>2019-11-11T09:28:27Z</time>
      </trkpt>
      <trkpt lat="49.27226" lon="1.07981">
        <ele>49.7</ele>
        <time>2019-11-11T09:28:28Z</time>
      </trkpt>
      <trkpt lat="49.27224" lon="1.07985">
        <ele>49.7</ele>
        <time>2019-11-11T09:28:29Z</time>
      </trkpt>
      <trkpt lat="49.27222" lon="1.07989">
        <ele>49.7</ele>
        <time>2019-11-11T09:28:30Z</time>
      </trkpt>
      <trkpt lat="49.27221" lon="1.07993">
        <ele>50.8</ele>
        <time>2019-11-11T09:28:31Z</time>
      </trkpt>
      <trkpt lat="49.2722" lon="1.07996">
        <ele>50.8</ele>
        <time>2019-11-11T09:28:32Z</time>
      </trkpt>
      <trkpt lat="49.27219" lon="1.08">
        <ele>50.8</ele>
        <time>2019-11-11T09:28:33Z</time>
      </trkpt>
      <trkpt lat="49.27218" lon="1.08004">
        <ele>50.8</ele>
        <time>2019-11-11T09:28:34Z</time>
      </trkpt>
      <trkpt lat="49.27217" lon="1.08008">
        <ele>51.8</ele>
        <time>2019-11-11T09:28:35Z</time>
      </trkpt>
      <trkpt lat="49.27216" lon="1.08012">
        <ele>51.8</ele>
        <time>2019-11-11T09:28:36Z</time>
      </trkpt>
      <trkpt lat="49.27215" lon="1.08016">
        <ele>51.8</ele>
        <time>2019-11-11T09:28:37Z</time>
      </trkpt>
      <trkpt lat="49.27214" lon="1.08019">
        <ele>51.8</ele>
        <time>2019-11-11T09:28:38Z</time>
      </trkpt>
      <trkpt lat="49.27213" lon="1.08023">
        <ele>51.8</ele>
        <time>2019-11-11T09:28:39Z</time>
      </trkpt>
      <trkpt lat="49.27212" lon="1.08027">
        <ele>51.8</ele>
        <time>2019-11-11T09:28:40Z</time>
      </trkpt>
      <trkpt lat="49.27211" lon="1.0803">
        <ele>52.7</ele>
        <time>2019-11-11T09:28:41Z</time>
      </trkpt>
      <trkpt lat="49.2721" lon="1.08033">
        <ele>52.7</ele>
        <time>2019-11-11T09:28:42Z</time>
      </trkpt>
      <trkpt lat="49.27208" lon="1.08036">
        <ele>52.7</ele>
        <time>2019-11-11T09:28:43Z</time>
      </trkpt>
      <trkpt lat="49.27208" lon="1.08039">
        <ele>52.7</ele>
        <time>2019-11-11T09:28:44Z</time>
      </trkpt>
      <trkpt lat="49.27207" lon="1.08042">
        <ele>53.8</ele>
        <time>2019-11-11T09:28:45Z</time>
      </trkpt>
      <trkpt lat="49.27206" lon="1.08044">
        <ele>53.8</ele>
        <time>2019-11-11T09:28:46Z</time>
      </trkpt>
      <trkpt lat="49.27205" lon="1.08047">
        <ele>53.8</ele>
        <time>2019-11-11T09:28:47Z</time>
      </trkpt>
      <trkpt lat="49.27204" lon="1.08051">
        <ele>53.8</ele>
        <time>2019-11-11T09:28:48Z</time>
      </trkpt>
      <trkpt lat="49.27204" lon="1.08055">
        <ele>53.8</ele>
        <time>2019-11-11T09:28:49Z</time>
      </trkpt>
      <trkpt lat="49.27203" lon="1.08058">
        <ele>53.8</ele>
        <time>2019-11-11T09:28:50Z</time>
      </trkpt>
      <trkpt lat="49.27203" lon="1.08062">
        <ele>54.7</ele>
        <time>2019-11-11T09:28:51Z</time>
      </trkpt>
      <trkpt lat="49.27202" lon="1.08066">
        <ele>54.7</ele>
        <time>2019-11-11T09:28:52Z</time>
      </trkpt>
      <trkpt lat="49.27201" lon="1.08069">
        <ele>54.7</ele>
        <time>2019-11-11T09:28:53Z</time>
      </trkpt>
      <trkpt lat="49.27201" lon="1.08073">
        <ele>54.7</ele>
        <time>2019-11-11T09:28:54Z</time>
      </trkpt>
      <trkpt lat="49.272" lon="1.08076">
        <ele>55.8</ele>
        <time>2019-11-11T09:28:55Z</time>
      </trkpt>
      <trkpt lat="49.27199" lon="1.08079">
        <ele>55.8</ele>
        <time>2019-11-11T09:28:56Z</time>
      </trkpt>
      <trkpt lat="49.27199" lon="1.08083">
        <ele>55.8</ele>
        <time>2019-11-11T09:28:57Z</time>
      </trkpt>
      <trkpt lat="49.27198" lon="1.08087">
        <ele>55.8</ele>
        <time>2019-11-11T09:28:58Z</time>
      </trkpt>
      <trkpt lat="49.27197" lon="1.0809">
        <ele>56.7</ele>
        <time>2019-11-11T09:28:59Z</time>
      </trkpt>
      <trkpt lat="49.27196" lon="1.08092">
        <ele>56.7</ele>
        <time>2019-11-11T09:29:00Z</time>
      </trkpt>
      <trkpt lat="49.27195" lon="1.08095">
        <ele>56.7</ele>
        <time>2019-11-11T09:29:01Z</time>
      </trkpt>
      <trkpt lat="49.27194" lon="1.08097">
        <ele>56.7</ele>
        <time>2019-11-11T09:29:02Z</time>
      </trkpt>
      <trkpt lat="49.27193" lon="1.08099">
        <ele>56.7</ele>
        <time>2019-11-11T09:29:03Z</time>
      </trkpt>
      <trkpt lat="49.27191" lon="1.08101">
        <ele>56.7</ele>
        <time>2019-11-11T09:29:04Z</time>
      </trkpt>
      <trkpt lat="49.27191" lon="1.08103">
        <ele>56.7</ele>
        <time>2019-11-11T09:29:05Z</time>
      </trkpt>
      <trkpt lat="49.2719" lon="1.08106">
        <ele>56.7</ele>
        <time>2019-11-11T09:29:06Z</time>
      </trkpt>
      <trkpt lat="49.27189" lon="1.08108">
        <ele>56.7</ele>
        <time>2019-11-11T09:29:07Z</time>
      </trkpt>
      <trkpt lat="49.27188" lon="1.08111">
        <ele>56.7</ele>
        <time>2019-11-11T09:29:08Z</time>
      </trkpt>
      <trkpt lat="49.27188" lon="1.08113">
        <ele>57.8</ele>
        <time>2019-11-11T09:29:09Z</time>
      </trkpt>
      <trkpt lat="49.27187" lon="1.08116">
        <ele>57.8</ele>
        <time>2019-11-11T09:29:10Z</time>
      </trkpt>
      <trkpt lat="49.27187" lon="1.08118">
        <ele>57.8</ele>
        <time>2019-11-11T09:29:11Z</time>
      </trkpt>
      <trkpt lat="49.27186" lon="1.0812">
        <ele>57.8</ele>
        <time>2019-11-11T09:29:12Z</time>
      </trkpt>
      <trkpt lat="49.27186" lon="1.08123">
        <ele>57.8</ele>
        <time>2019-11-11T09:29:13Z</time>
      </trkpt>
      <trkpt lat="49.27186" lon="1.08125">
        <ele>57.8</ele>
        <time>2019-11-11T09:29:14Z</time>
      </trkpt>
      <trkpt lat="49.27186" lon="1.08126">
        <ele>57.8</ele>
        <time>2019-11-11T09:29:15Z</time>
      </trkpt>
      <trkpt lat="49.27185" lon="1.08128">
        <ele>57.8</ele>
        <time>2019-11-11T09:29:16Z</time>
      </trkpt>
      <trkpt lat="49.27185" lon="1.0813">
        <ele>57.8</ele>
        <time>2019-11-11T09:29:17Z</time>
      </trkpt>
      <trkpt lat="49.27184" lon="1.08132">
        <ele>57.8</ele>
        <time>2019-11-11T09:29:18Z</time>
      </trkpt>
      <trkpt lat="49.27184" lon="1.08133">
        <ele>57.8</ele>
        <time>2019-11-11T09:29:19Z</time>
      </trkpt>
      <trkpt lat="49.27183" lon="1.08135">
        <ele>57.8</ele>
        <time>2019-11-11T09:29:20Z</time>
      </trkpt>
      <trkpt lat="49.27183" lon="1.08137">
        <ele>58.7</ele>
        <time>2019-11-11T09:29:21Z</time>
      </trkpt>
      <trkpt lat="49.27183" lon="1.08139">
        <ele>58.7</ele>
        <time>2019-11-11T09:29:22Z</time>
      </trkpt>
      <trkpt lat="49.27183" lon="1.08141">
        <ele>58.7</ele>
        <time>2019-11-11T09:29:23Z</time>
      </trkpt>
      <trkpt lat="49.27183" lon="1.08144">
        <ele>58.7</ele>
        <time>2019-11-11T09:29:24Z</time>
      </trkpt>
      <trkpt lat="49.27183" lon="1.08146">
        <ele>58.7</ele>
        <time>2019-11-11T09:29:25Z</time>
      </trkpt>
      <trkpt lat="49.27183" lon="1.08149">
        <ele>58.7</ele>
        <time>2019-11-11T09:29:26Z</time>
      </trkpt>
      <trkpt lat="49.27183" lon="1.0815">
        <ele>59.7</ele>
        <time>2019-11-11T09:29:27Z</time>
      </trkpt>
      <trkpt lat="49.27183" lon="1.08152">
        <ele>59.7</ele>
        <time>2019-11-11T09:29:28Z</time>
      </trkpt>
      <trkpt lat="49.27183" lon="1.08155">
        <ele>59.7</ele>
        <time>2019-11-11T09:29:29Z</time>
      </trkpt>
      <trkpt lat="49.27183" lon="1.08158">
        <ele>59.7</ele>
        <time>2019-11-11T09:29:30Z</time>
      </trkpt>
      <trkpt lat="49.27183" lon="1.0816">
        <ele>59.7</ele>
        <time>2019-11-11T09:29:31Z</time>
      </trkpt>
      <trkpt lat="49.27183" lon="1.08163">
        <ele>59.7</ele>
        <time>2019-11-11T09:29:32Z</time>
      </trkpt>
      <trkpt lat="49.27183" lon="1.08165">
        <ele>60.8</ele>
        <time>2019-11-11T09:29:33Z</time>
      </trkpt>
      <trkpt lat="49.27183" lon="1.08167">
        <ele>60.8</ele>
        <time>2019-11-11T09:29:34Z</time>
      </trkpt>
      <trkpt lat="49.27183" lon="1.0817">
        <ele>61.7</ele>
        <time>2019-11-11T09:29:35Z</time>
      </trkpt>
      <trkpt lat="49.27183" lon="1.08173">
        <ele>61.7</ele>
        <time>2019-11-11T09:29:36Z</time>
      </trkpt>
      <trkpt lat="49.27183" lon="1.08175">
        <ele>61.7</ele>
        <time>2019-11-11T09:29:37Z</time>
      </trkpt>
      <trkpt lat="49.27184" lon="1.08178">
        <ele>61.7</ele>
        <time>2019-11-11T09:29:38Z</time>
      </trkpt>
      <trkpt lat="49.27184" lon="1.0818">
        <ele>62.8</ele>
        <time>2019-11-11T09:29:39Z</time>
      </trkpt>
      <trkpt lat="49.27184" lon="1.08183">
        <ele>62.8</ele>
        <time>2019-11-11T09:29:40Z</time>
      </trkpt>
      <trkpt lat="49.27183" lon="1.08186">
        <ele>62.8</ele>
        <time>2019-11-11T09:29:41Z</time>
      </trkpt>
      <trkpt lat="49.27183" lon="1.08188">
        <ele>62.8</ele>
        <time>2019-11-11T09:29:42Z</time>
      </trkpt>
      <trkpt lat="49.27183" lon="1.0819">
        <ele>63.7</ele>
        <time>2019-11-11T09:29:43Z</time>
      </trkpt>
      <trkpt lat="49.27184" lon="1.08191">
        <ele>63.7</ele>
        <time>2019-11-11T09:29:44Z</time>
      </trkpt>
      <trkpt lat="49.27185" lon="1.08193">
        <ele>63.7</ele>
        <time>2019-11-11T09:29:45Z</time>
      </trkpt>
      <trkpt lat="49.27186" lon="1.08196">
        <ele>63.7</ele>
        <time>2019-11-11T09:29:46Z</time>
      </trkpt>
      <trkpt lat="49.27186" lon="1.08197">
        <ele>64.8</ele>
        <time>2019-11-11T09:29:47Z</time>
      </trkpt>
      <trkpt lat="49.27186" lon="1.08198">
        <ele>64.8</ele>
        <time>2019-11-11T09:29:48Z</time>
      </trkpt>
      <trkpt lat="49.27186" lon="1.08198">
        <ele>64.8</ele>
        <time>2019-11-11T09:29:49Z</time>
      </trkpt>
      <trkpt lat="49.27187" lon="1.08199">
        <ele>64.8</ele>
        <time>2019-11-11T09:29:50Z</time>
      </trkpt>
      <trkpt lat="49.27187" lon="1.08202">
        <ele>65.7</ele>
        <time>2019-11-11T09:29:51Z</time>
      </trkpt>
      <trkpt lat="49.27187" lon="1.08203">
        <ele>65.7</ele>
        <time>2019-11-11T09:29:52Z</time>
      </trkpt>
      <trkpt lat="49.27188" lon="1.08206">
        <ele>66.8</ele>
        <time>2019-11-11T09:29:53Z</time>
      </trkpt>
      <trkpt lat="49.27188" lon="1.08209">
        <ele>66.8</ele>
        <time>2019-11-11T09:29:54Z</time>
      </trkpt>
      <trkpt lat="49.27188" lon="1.08211">
        <ele>66.8</ele>
        <time>2019-11-11T09:29:55Z</time>
      </trkpt>
      <trkpt lat="49.27188" lon="1.08214">
        <ele>66.8</ele>
        <time>2019-11-11T09:29:56Z</time>
      </trkpt>
      <trkpt lat="49.27189" lon="1.08217">
        <ele>67.8</ele>
        <time>2019-11-11T09:29:57Z</time>
      </trkpt>
      <trkpt lat="49.27189" lon="1.08219">
        <ele>67.8</ele>
        <time>2019-11-11T09:29:58Z</time>
      </trkpt>
      <trkpt lat="49.2719" lon="1.08222">
        <ele>67.8</ele>
        <time>2019-11-11T09:29:59Z</time>
      </trkpt>
      <trkpt lat="49.27191" lon="1.08224">
        <ele>67.8</ele>
        <time>2019-11-11T09:30:00Z</time>
      </trkpt>
      <trkpt lat="49.27192" lon="1.08226">
        <ele>67.8</ele>
        <time>2019-11-11T09:30:01Z</time>
      </trkpt>
      <trkpt lat="49.27193" lon="1.08229">
        <ele>67.8</ele>
        <time>2019-11-11T09:30:02Z</time>
      </trkpt>
      <trkpt lat="49.27193" lon="1.0823">
        <ele>67.8</ele>
        <time>2019-11-11T09:30:03Z</time>
      </trkpt>
      <trkpt lat="49.27194" lon="1.08233">
        <ele>67.8</ele>
        <time>2019-11-11T09:30:04Z</time>
      </trkpt>
      <trkpt lat="49.27195" lon="1.08235">
        <ele>68.7</ele>
        <time>2019-11-11T09:30:05Z</time>
      </trkpt>
      <trkpt lat="49.27196" lon="1.08236">
        <ele>68.7</ele>
        <time>2019-11-11T09:30:06Z</time>
      </trkpt>
      <trkpt lat="49.27198" lon="1.08238">
        <ele>68.7</ele>
        <time>2019-11-11T09:30:07Z</time>
      </trkpt>
      <trkpt lat="49.27199" lon="1.08239">
        <ele>68.7</ele>
        <time>2019-11-11T09:30:08Z</time>
      </trkpt>
      <trkpt lat="49.272" lon="1.0824">
        <ele>69.8</ele>
        <time>2019-11-11T09:30:09Z</time>
      </trkpt>
      <trkpt lat="49.27201" lon="1.08242">
        <ele>69.8</ele>
        <time>2019-11-11T09:30:10Z</time>
      </trkpt>
      <trkpt lat="49.27202" lon="1.08244">
        <ele>69.8</ele>
        <time>2019-11-11T09:30:11Z</time>
      </trkpt>
      <trkpt lat="49.27203" lon="1.08245">
        <ele>69.8</ele>
        <time>2019-11-11T09:30:12Z</time>
      </trkpt>
      <trkpt lat="49.27203" lon="1.08247">
        <ele>69.8</ele>
        <time>2019-11-11T09:30:13Z</time>
      </trkpt>
      <trkpt lat="49.27204" lon="1.08249">
        <ele>69.8</ele>
        <time>2019-11-11T09:30:14Z</time>
      </trkpt>
      <trkpt lat="49.27204" lon="1.08251">
        <ele>70.7</ele>
        <time>2019-11-11T09:30:15Z</time>
      </trkpt>
      <trkpt lat="49.27205" lon="1.08252">
        <ele>70.7</ele>
        <time>2019-11-11T09:30:16Z</time>
      </trkpt>
      <trkpt lat="49.27207" lon="1.08254">
        <ele>70.7</ele>
        <time>2019-11-11T09:30:17Z</time>
      </trkpt>
      <trkpt lat="49.27207" lon="1.08255">
        <ele>70.7</ele>
        <time>2019-11-11T09:30:18Z</time>
      </trkpt>
      <trkpt lat="49.27209" lon="1.08256">
        <ele>71.8</ele>
        <time>2019-11-11T09:30:19Z</time>
      </trkpt>
      <trkpt lat="49.2721" lon="1.08257">
        <ele>71.8</ele>
        <time>2019-11-11T09:30:20Z</time>
      </trkpt>
      <trkpt lat="49.27211" lon="1.08259">
        <ele>71.8</ele>
        <time>2019-11-11T09:30:21Z</time>
      </trkpt>
      <trkpt lat="49.27212" lon="1.08261">
        <ele>71.8</ele>
        <time>2019-11-11T09:30:22Z</time>
      </trkpt>
      <trkpt lat="49.27213" lon="1.08264">
        <ele>71.8</ele>
        <time>2019-11-11T09:30:23Z</time>
      </trkpt>
      <trkpt lat="49.27214" lon="1.08266">
        <ele>71.8</ele>
        <time>2019-11-11T09:30:24Z</time>
      </trkpt>
      <trkpt lat="49.27215" lon="1.08268">
        <ele>71.8</ele>
        <time>2019-11-11T09:30:25Z</time>
      </trkpt>
      <trkpt lat="49.27216" lon="1.0827">
        <ele>71.8</ele>
        <time>2019-11-11T09:30:26Z</time>
      </trkpt>
      <trkpt lat="49.27217" lon="1.08271">
        <ele>71.8</ele>
        <time>2019-11-11T09:30:27Z</time>
      </trkpt>
      <trkpt lat="49.27219" lon="1.08272">
        <ele>71.8</ele>
        <time>2019-11-11T09:30:28Z</time>
      </trkpt>
      <trkpt lat="49.2722" lon="1.08274">
        <ele>73.8</ele>
        <time>2019-11-11T09:30:29Z</time>
      </trkpt>
      <trkpt lat="49.27222" lon="1.08278">
        <ele>73.8</ele>
        <time>2019-11-11T09:30:30Z</time>
      </trkpt>
      <trkpt lat="49.27223" lon="1.08281">
        <ele>73.8</ele>
        <time>2019-11-11T09:30:31Z</time>
      </trkpt>
      <trkpt lat="49.27224" lon="1.08283">
        <ele>73.8</ele>
        <time>2019-11-11T09:30:32Z</time>
      </trkpt>
      <trkpt lat="49.27225" lon="1.08286">
        <ele>73.8</ele>
        <time>2019-11-11T09:30:33Z</time>
      </trkpt>
      <trkpt lat="49.27227" lon="1.08289">
        <ele>73.8</ele>
        <time>2019-11-11T09:30:34Z</time>
      </trkpt>
      <trkpt lat="49.27228" lon="1.08292">
        <ele>74.7</ele>
        <time>2019-11-11T09:30:35Z</time>
      </trkpt>
      <trkpt lat="49.27229" lon="1.08294">
        <ele>74.7</ele>
        <time>2019-11-11T09:30:36Z</time>
      </trkpt>
      <trkpt lat="49.27231" lon="1.08296">
        <ele>74.7</ele>
        <time>2019-11-11T09:30:37Z</time>
      </trkpt>
      <trkpt lat="49.27232" lon="1.08299">
        <ele>74.7</ele>
        <time>2019-11-11T09:30:38Z</time>
      </trkpt>
      <trkpt lat="49.27233" lon="1.08301">
        <ele>74.7</ele>
        <time>2019-11-11T09:30:39Z</time>
      </trkpt>
      <trkpt lat="49.27236" lon="1.08302">
        <ele>74.7</ele>
        <time>2019-11-11T09:30:40Z</time>
      </trkpt>
      <trkpt lat="49.27237" lon="1.08305">
        <ele>74.7</ele>
        <time>2019-11-11T09:30:41Z</time>
      </trkpt>
      <trkpt lat="49.27239" lon="1.08308">
        <ele>74.7</ele>
        <time>2019-11-11T09:30:42Z</time>
      </trkpt>
      <trkpt lat="49.2724" lon="1.08312">
        <ele>74.7</ele>
        <time>2019-11-11T09:30:43Z</time>
      </trkpt>
      <trkpt lat="49.27242" lon="1.08314">
        <ele>74.7</ele>
        <time>2019-11-11T09:30:44Z</time>
      </trkpt>
      <trkpt lat="49.27244" lon="1.08316">
        <ele>74.7</ele>
        <time>2019-11-11T09:30:45Z</time>
      </trkpt>
      <trkpt lat="49.27246" lon="1.08318">
        <ele>74.7</ele>
        <time>2019-11-11T09:30:46Z</time>
      </trkpt>
      <trkpt lat="49.27248" lon="1.0832">
        <ele>74.7</ele>
        <time>2019-11-11T09:30:47Z</time>
      </trkpt>
      <trkpt lat="49.2725" lon="1.08322">
        <ele>74.7</ele>
        <time>2019-11-11T09:30:48Z</time>
      </trkpt>
      <trkpt lat="49.27251" lon="1.08324">
        <ele>74.7</ele>
        <time>2019-11-11T09:30:49Z</time>
      </trkpt>
      <trkpt lat="49.27254" lon="1.08326">
        <ele>74.7</ele>
        <time>2019-11-11T09:30:50Z</time>
      </trkpt>
      <trkpt lat="49.27256" lon="1.08328">
        <ele>74.7</ele>
        <time>2019-11-11T09:30:51Z</time>
      </trkpt>
      <trkpt lat="49.27259" lon="1.08329">
        <ele>74.7</ele>
        <time>2019-11-11T09:30:52Z</time>
      </trkpt>
      <trkpt lat="49.27261" lon="1.08331">
        <ele>74.7</ele>
        <time>2019-11-11T09:30:53Z</time>
      </trkpt>
      <trkpt lat="49.27263" lon="1.08333">
        <ele>74.7</ele>
        <time>2019-11-11T09:30:54Z</time>
      </trkpt>
      <trkpt lat="49.27266" lon="1.08335">
        <ele>74.7</ele>
        <time>2019-11-11T09:30:55Z</time>
      </trkpt>
      <trkpt lat="49.27268" lon="1.08338">
        <ele>74.7</ele>
        <time>2019-11-11T09:30:56Z</time>
      </trkpt>
      <trkpt lat="49.27269" lon="1.08341">
        <ele>74.7</ele>
        <time>2019-11-11T09:30:57Z</time>
      </trkpt>
      <trkpt lat="49.2727" lon="1.08343">
        <ele>74.7</ele>
        <time>2019-11-11T09:30:58Z</time>
      </trkpt>
      <trkpt lat="49.27271" lon="1.08346">
        <ele>74.7</ele>
        <time>2019-11-11T09:30:59Z</time>
      </trkpt>
      <trkpt lat="49.27273" lon="1.08347">
        <ele>74.7</ele>
        <time>2019-11-11T09:31:00Z</time>
      </trkpt>
      <trkpt lat="49.27274" lon="1.08348">
        <ele>74.7</ele>
        <time>2019-11-11T09:31:01Z</time>
      </trkpt>
      <trkpt lat="49.27276" lon="1.08349">
        <ele>74.7</ele>
        <time>2019-11-11T09:31:02Z</time>
      </trkpt>
      <trkpt lat="49.27278" lon="1.08349">
        <ele>74.7</ele>
        <time>2019-11-11T09:31:03Z</time>
      </trkpt>
      <trkpt lat="49.27279" lon="1.08348">
        <ele>74.7</ele>
        <time>2019-11-11T09:31:04Z</time>
      </trkpt>
      <trkpt lat="49.27281" lon="1.08347">
        <ele>74.7</ele>
        <time>2019-11-11T09:31:05Z</time>
      </trkpt>
      <trkpt lat="49.27282" lon="1.08345">
        <ele>74.7</ele>
        <time>2019-11-11T09:31:06Z</time>
      </trkpt>
      <trkpt lat="49.27284" lon="1.08343">
        <ele>74.7</ele>
        <time>2019-11-11T09:31:07Z</time>
      </trkpt>
      <trkpt lat="49.27286" lon="1.08341">
        <ele>74.7</ele>
        <time>2019-11-11T09:31:08Z</time>
      </trkpt>
      <trkpt lat="49.27288" lon="1.0834">
        <ele>74.7</ele>
        <time>2019-11-11T09:31:09Z</time>
      </trkpt>
      <trkpt lat="49.27291" lon="1.08338">
        <ele>74.7</ele>
        <time>2019-11-11T09:31:10Z</time>
      </trkpt>
      <trkpt lat="49.27292" lon="1.08337">
        <ele>73.8</ele>
        <time>2019-11-11T09:31:11Z</time>
      </trkpt>
      <trkpt lat="49.27294" lon="1.08335">
        <ele>73.8</ele>
        <time>2019-11-11T09:31:12Z</time>
      </trkpt>
      <trkpt lat="49.27294" lon="1.08335">
        <ele>73.8</ele>
        <time>2019-11-11T09:31:13Z</time>
      </trkpt>
      <trkpt lat="49.27294" lon="1.08335">
        <ele>73.8</ele>
        <time>2019-11-11T09:31:14Z</time>
      </trkpt>
      <trkpt lat="49.27295" lon="1.08335">
        <ele>72.7</ele>
        <time>2019-11-11T09:31:15Z</time>
      </trkpt>
      <trkpt lat="49.27295" lon="1.08334">
        <ele>72.7</ele>
        <time>2019-11-11T09:31:16Z</time>
      </trkpt>
      <trkpt lat="49.27305" lon="1.08318">
        <ele>72.7</ele>
        <time>2019-11-11T09:31:57Z</time>
      </trkpt>
      <trkpt lat="49.27307" lon="1.08318">
        <ele>72.7</ele>
        <time>2019-11-11T09:31:58Z</time>
      </trkpt>
      <trkpt lat="49.27309" lon="1.08318">
        <ele>72.7</ele>
        <time>2019-11-11T09:31:59Z</time>
      </trkpt>
      <trkpt lat="49.27312" lon="1.0832">
        <ele>72.7</ele>
        <time>2019-11-11T09:32:00Z</time>
      </trkpt>
      <trkpt lat="49.27314" lon="1.08322">
        <ele>72.7</ele>
        <time>2019-11-11T09:32:01Z</time>
      </trkpt>
      <trkpt lat="49.27316" lon="1.08326">
        <ele>72.7</ele>
        <time>2019-11-11T09:32:02Z</time>
      </trkpt>
      <trkpt lat="49.27318" lon="1.08329">
        <ele>72.7</ele>
        <time>2019-11-11T09:32:03Z</time>
      </trkpt>
      <trkpt lat="49.2732" lon="1.08333">
        <ele>72.7</ele>
        <time>2019-11-11T09:32:04Z</time>
      </trkpt>
      <trkpt lat="49.27322" lon="1.08337">
        <ele>72.7</ele>
        <time>2019-11-11T09:32:05Z</time>
      </trkpt>
      <trkpt lat="49.27324" lon="1.08341">
        <ele>72.7</ele>
        <time>2019-11-11T09:32:06Z</time>
      </trkpt>
      <trkpt lat="49.27325" lon="1.08343">
        <ele>72.7</ele>
        <time>2019-11-11T09:32:07Z</time>
      </trkpt>
      <trkpt lat="49.27328" lon="1.08347">
        <ele>72.7</ele>
        <time>2019-11-11T09:32:08Z</time>
      </trkpt>
      <trkpt lat="49.2733" lon="1.08349">
        <ele>72.7</ele>
        <time>2019-11-11T09:32:09Z</time>
      </trkpt>
      <trkpt lat="49.27331" lon="1.08349">
        <ele>72.7</ele>
        <time>2019-11-11T09:32:10Z</time>
      </trkpt>
      <trkpt lat="49.27333" lon="1.08349">
        <ele>72.7</ele>
        <time>2019-11-11T09:32:11Z</time>
      </trkpt>
      <trkpt lat="49.27336" lon="1.0835">
        <ele>72.7</ele>
        <time>2019-11-11T09:32:12Z</time>
      </trkpt>
      <trkpt lat="49.27339" lon="1.0835">
        <ele>72.7</ele>
        <time>2019-11-11T09:32:13Z</time>
      </trkpt>
      <trkpt lat="49.27342" lon="1.0835">
        <ele>72.7</ele>
        <time>2019-11-11T09:32:14Z</time>
      </trkpt>
      <trkpt lat="49.27345" lon="1.08349">
        <ele>71.8</ele>
        <time>2019-11-11T09:32:15Z</time>
      </trkpt>
      <trkpt lat="49.27347" lon="1.08348">
        <ele>71.8</ele>
        <time>2019-11-11T09:32:16Z</time>
      </trkpt>
      <trkpt lat="49.2735" lon="1.08348">
        <ele>71.8</ele>
        <time>2019-11-11T09:32:17Z</time>
      </trkpt>
      <trkpt lat="49.27352" lon="1.08347">
        <ele>71.8</ele>
        <time>2019-11-11T09:32:18Z</time>
      </trkpt>
      <trkpt lat="49.27355" lon="1.08346">
        <ele>70.7</ele>
        <time>2019-11-11T09:32:19Z</time>
      </trkpt>
      <trkpt lat="49.27357" lon="1.08347">
        <ele>70.7</ele>
        <time>2019-11-11T09:32:20Z</time>
      </trkpt>
      <trkpt lat="49.27359" lon="1.08346">
        <ele>69.8</ele>
        <time>2019-11-11T09:32:21Z</time>
      </trkpt>
      <trkpt lat="49.27361" lon="1.08346">
        <ele>69.8</ele>
        <time>2019-11-11T09:32:22Z</time>
      </trkpt>
      <trkpt lat="49.27364" lon="1.08344">
        <ele>68.7</ele>
        <time>2019-11-11T09:32:23Z</time>
      </trkpt>
      <trkpt lat="49.27367" lon="1.08343">
        <ele>68.7</ele>
        <time>2019-11-11T09:32:24Z</time>
      </trkpt>
      <trkpt lat="49.2737" lon="1.08342">
        <ele>67.8</ele>
        <time>2019-11-11T09:32:25Z</time>
      </trkpt>
      <trkpt lat="49.27372" lon="1.08342">
        <ele>67.8</ele>
        <time>2019-11-11T09:32:26Z</time>
      </trkpt>
      <trkpt lat="49.27374" lon="1.08342">
        <ele>66.8</ele>
        <time>2019-11-11T09:32:27Z</time>
      </trkpt>
      <trkpt lat="49.27376" lon="1.08342">
        <ele>66.8</ele>
        <time>2019-11-11T09:32:28Z</time>
      </trkpt>
      <trkpt lat="49.27378" lon="1.08342">
        <ele>65.7</ele>
        <time>2019-11-11T09:32:29Z</time>
      </trkpt>
      <trkpt lat="49.27381" lon="1.08342">
        <ele>65.7</ele>
        <time>2019-11-11T09:32:30Z</time>
      </trkpt>
      <trkpt lat="49.27383" lon="1.08342">
        <ele>64.8</ele>
        <time>2019-11-11T09:32:31Z</time>
      </trkpt>
      <trkpt lat="49.27385" lon="1.08343">
        <ele>64.8</ele>
        <time>2019-11-11T09:32:32Z</time>
      </trkpt>
      <trkpt lat="49.27386" lon="1.08342">
        <ele>63.7</ele>
        <time>2019-11-11T09:32:33Z</time>
      </trkpt>
      <trkpt lat="49.27388" lon="1.08342">
        <ele>63.7</ele>
        <time>2019-11-11T09:32:34Z</time>
      </trkpt>
      <trkpt lat="49.2739" lon="1.08343">
        <ele>62.8</ele>
        <time>2019-11-11T09:32:35Z</time>
      </trkpt>
      <trkpt lat="49.27393" lon="1.08343">
        <ele>62.8</ele>
        <time>2019-11-11T09:32:36Z</time>
      </trkpt>
      <trkpt lat="49.27394" lon="1.08344">
        <ele>61.7</ele>
        <time>2019-11-11T09:32:37Z</time>
      </trkpt>
      <trkpt lat="49.27397" lon="1.08346">
        <ele>61.7</ele>
        <time>2019-11-11T09:32:38Z</time>
      </trkpt>
      <trkpt lat="49.27398" lon="1.08347">
        <ele>60.8</ele>
        <time>2019-11-11T09:32:39Z</time>
      </trkpt>
      <trkpt lat="49.274" lon="1.08348">
        <ele>60.8</ele>
        <time>2019-11-11T09:32:40Z</time>
      </trkpt>
      <trkpt lat="49.27403" lon="1.08349">
        <ele>59.7</ele>
        <time>2019-11-11T09:32:41Z</time>
      </trkpt>
      <trkpt lat="49.27406" lon="1.0835">
        <ele>59.7</ele>
        <time>2019-11-11T09:32:42Z</time>
      </trkpt>
      <trkpt lat="49.27408" lon="1.0835">
        <ele>58.7</ele>
        <time>2019-11-11T09:32:43Z</time>
      </trkpt>
      <trkpt lat="49.27411" lon="1.0835">
        <ele>58.7</ele>
        <time>2019-11-11T09:32:44Z</time>
      </trkpt>
      <trkpt lat="49.27414" lon="1.08348">
        <ele>58.7</ele>
        <time>2019-11-11T09:32:45Z</time>
      </trkpt>
      <trkpt lat="49.27416" lon="1.08346">
        <ele>58.7</ele>
        <time>2019-11-11T09:32:46Z</time>
      </trkpt>
      <trkpt lat="49.27418" lon="1.08342">
        <ele>58.7</ele>
        <time>2019-11-11T09:32:47Z</time>
      </trkpt>
      <trkpt lat="49.27419" lon="1.08337">
        <ele>58.7</ele>
        <time>2019-11-11T09:32:48Z</time>
      </trkpt>
      <trkpt lat="49.27421" lon="1.08332">
        <ele>55.8</ele>
        <time>2019-11-11T09:32:49Z</time>
      </trkpt>
      <trkpt lat="49.27421" lon="1.08326">
        <ele>55.8</ele>
        <time>2019-11-11T09:32:50Z</time>
      </trkpt>
      <trkpt lat="49.27422" lon="1.08321">
        <ele>54.7</ele>
        <time>2019-11-11T09:32:51Z</time>
      </trkpt>
      <trkpt lat="49.27423" lon="1.08315">
        <ele>54.7</ele>
        <time>2019-11-11T09:32:52Z</time>
      </trkpt>
      <trkpt lat="49.27424" lon="1.08309">
        <ele>54.7</ele>
        <time>2019-11-11T09:32:53Z</time>
      </trkpt>
      <trkpt lat="49.27425" lon="1.08303">
        <ele>54.7</ele>
        <time>2019-11-11T09:32:54Z</time>
      </trkpt>
      <trkpt lat="49.27426" lon="1.08297">
        <ele>53.8</ele>
        <time>2019-11-11T09:32:55Z</time>
      </trkpt>
      <trkpt lat="49.27427" lon="1.08291">
        <ele>53.8</ele>
        <time>2019-11-11T09:32:56Z</time>
      </trkpt>
      <trkpt lat="49.27428" lon="1.08285">
        <ele>53.8</ele>
        <time>2019-11-11T09:32:57Z</time>
      </trkpt>
      <trkpt lat="49.27429" lon="1.0828">
        <ele>53.8</ele>
        <time>2019-11-11T09:32:58Z</time>
      </trkpt>
      <trkpt lat="49.2743" lon="1.08275">
        <ele>53.8</ele>
        <time>2019-11-11T09:32:59Z</time>
      </trkpt>
      <trkpt lat="49.27431" lon="1.08269">
        <ele>53.8</ele>
        <time>2019-11-11T09:33:00Z</time>
      </trkpt>
      <trkpt lat="49.27433" lon="1.08265">
        <ele>52.7</ele>
        <time>2019-11-11T09:33:01Z</time>
      </trkpt>
      <trkpt lat="49.27435" lon="1.0826">
        <ele>52.7</ele>
        <time>2019-11-11T09:33:02Z</time>
      </trkpt>
      <trkpt lat="49.27437" lon="1.08258">
        <ele>52.7</ele>
        <time>2019-11-11T09:33:03Z</time>
      </trkpt>
      <trkpt lat="49.2744" lon="1.08256">
        <ele>52.7</ele>
        <time>2019-11-11T09:33:04Z</time>
      </trkpt>
      <trkpt lat="49.27441" lon="1.08252">
        <ele>52.7</ele>
        <time>2019-11-11T09:33:05Z</time>
      </trkpt>
      <trkpt lat="49.27443" lon="1.08248">
        <ele>52.7</ele>
        <time>2019-11-11T09:33:06Z</time>
      </trkpt>
      <trkpt lat="49.27444" lon="1.08243">
        <ele>52.7</ele>
        <time>2019-11-11T09:33:07Z</time>
      </trkpt>
      <trkpt lat="49.27445" lon="1.08238">
        <ele>52.7</ele>
        <time>2019-11-11T09:33:08Z</time>
      </trkpt>
      <trkpt lat="49.27447" lon="1.08234">
        <ele>52.7</ele>
        <time>2019-11-11T09:33:09Z</time>
      </trkpt>
      <trkpt lat="49.2745" lon="1.08233">
        <ele>52.7</ele>
        <time>2019-11-11T09:33:10Z</time>
      </trkpt>
      <trkpt lat="49.27454" lon="1.08232">
        <ele>52.7</ele>
        <time>2019-11-11T09:33:11Z</time>
      </trkpt>
      <trkpt lat="49.27457" lon="1.08231">
        <ele>52.7</ele>
        <time>2019-11-11T09:33:12Z</time>
      </trkpt>
      <trkpt lat="49.27461" lon="1.08231">
        <ele>50.8</ele>
        <time>2019-11-11T09:33:13Z</time>
      </trkpt>
      <trkpt lat="49.27464" lon="1.0823">
        <ele>50.8</ele>
        <time>2019-11-11T09:33:14Z</time>
      </trkpt>
      <trkpt lat="49.27468" lon="1.08228">
        <ele>49.7</ele>
        <time>2019-11-11T09:33:15Z</time>
      </trkpt>
      <trkpt lat="49.27472" lon="1.08226">
        <ele>49.7</ele>
        <time>2019-11-11T09:33:16Z</time>
      </trkpt>
      <trkpt lat="49.27476" lon="1.08224">
        <ele>49.7</ele>
        <time>2019-11-11T09:33:17Z</time>
      </trkpt>
      <trkpt lat="49.27479" lon="1.08222">
        <ele>49.7</ele>
        <time>2019-11-11T09:33:18Z</time>
      </trkpt>
      <trkpt lat="49.27483" lon="1.0822">
        <ele>48.8</ele>
        <time>2019-11-11T09:33:19Z</time>
      </trkpt>
      <trkpt lat="49.27486" lon="1.08219">
        <ele>48.8</ele>
        <time>2019-11-11T09:33:20Z</time>
      </trkpt>
      <trkpt lat="49.27489" lon="1.08218">
        <ele>48.8</ele>
        <time>2019-11-11T09:33:21Z</time>
      </trkpt>
      <trkpt lat="49.27492" lon="1.08216">
        <ele>48.8</ele>
        <time>2019-11-11T09:33:22Z</time>
      </trkpt>
      <trkpt lat="49.27495" lon="1.08213">
        <ele>47.7</ele>
        <time>2019-11-11T09:33:23Z</time>
      </trkpt>
      <trkpt lat="49.27498" lon="1.0821">
        <ele>47.7</ele>
        <time>2019-11-11T09:33:24Z</time>
      </trkpt>
      <trkpt lat="49.275" lon="1.08206">
        <ele>47.7</ele>
        <time>2019-11-11T09:33:25Z</time>
      </trkpt>
      <trkpt lat="49.27502" lon="1.08203">
        <ele>47.7</ele>
        <time>2019-11-11T09:33:26Z</time>
      </trkpt>
      <trkpt lat="49.27505" lon="1.082">
        <ele>46.8</ele>
        <time>2019-11-11T09:33:27Z</time>
      </trkpt>
      <trkpt lat="49.27507" lon="1.08197">
        <ele>46.8</ele>
        <time>2019-11-11T09:33:28Z</time>
      </trkpt>
      <trkpt lat="49.27509" lon="1.08195">
        <ele>45.7</ele>
        <time>2019-11-11T09:33:29Z</time>
      </trkpt>
      <trkpt lat="49.27511" lon="1.08194">
        <ele>45.7</ele>
        <time>2019-11-11T09:33:30Z</time>
      </trkpt>
      <trkpt lat="49.27512" lon="1.08195">
        <ele>45.7</ele>
        <time>2019-11-11T09:33:31Z</time>
      </trkpt>
      <trkpt lat="49.27513" lon="1.08196">
        <ele>45.7</ele>
        <time>2019-11-11T09:33:32Z</time>
      </trkpt>
      <trkpt lat="49.27513" lon="1.08197">
        <ele>44.8</ele>
        <time>2019-11-11T09:33:33Z</time>
      </trkpt>
      <trkpt lat="49.27512" lon="1.08199">
        <ele>44.8</ele>
        <time>2019-11-11T09:33:34Z</time>
      </trkpt>
      <trkpt lat="49.27512" lon="1.08202">
        <ele>44.8</ele>
        <time>2019-11-11T09:33:35Z</time>
      </trkpt>
      <trkpt lat="49.27512" lon="1.08204">
        <ele>44.8</ele>
        <time>2019-11-11T09:33:36Z</time>
      </trkpt>
      <trkpt lat="49.27512" lon="1.08208">
        <ele>44.8</ele>
        <time>2019-11-11T09:33:37Z</time>
      </trkpt>
      <trkpt lat="49.27512" lon="1.08211">
        <ele>44.8</ele>
        <time>2019-11-11T09:33:38Z</time>
      </trkpt>
      <trkpt lat="49.27512" lon="1.08215">
        <ele>44.8</ele>
        <time>2019-11-11T09:33:39Z</time>
      </trkpt>
      <trkpt lat="49.27512" lon="1.08218">
        <ele>44.8</ele>
        <time>2019-11-11T09:33:40Z</time>
      </trkpt>
      <trkpt lat="49.27512" lon="1.08221">
        <ele>44.8</ele>
        <time>2019-11-11T09:33:41Z</time>
      </trkpt>
      <trkpt lat="49.27512" lon="1.08225">
        <ele>44.8</ele>
        <time>2019-11-11T09:33:42Z</time>
      </trkpt>
      <trkpt lat="49.27512" lon="1.08228">
        <ele>44.8</ele>
        <time>2019-11-11T09:33:43Z</time>
      </trkpt>
      <trkpt lat="49.27513" lon="1.08231">
        <ele>44.8</ele>
        <time>2019-11-11T09:33:44Z</time>
      </trkpt>
      <trkpt lat="49.27513" lon="1.08234">
        <ele>44.8</ele>
        <time>2019-11-11T09:33:45Z</time>
      </trkpt>
      <trkpt lat="49.27513" lon="1.08236">
        <ele>44.8</ele>
        <time>2019-11-11T09:33:46Z</time>
      </trkpt>
      <trkpt lat="49.27513" lon="1.08239">
        <ele>45.7</ele>
        <time>2019-11-11T09:33:47Z</time>
      </trkpt>
      <trkpt lat="49.27513" lon="1.08241">
        <ele>45.7</ele>
        <time>2019-11-11T09:33:48Z</time>
      </trkpt>
      <trkpt lat="49.27514" lon="1.08245">
        <ele>45.7</ele>
        <time>2019-11-11T09:33:49Z</time>
      </trkpt>
      <trkpt lat="49.27514" lon="1.08248">
        <ele>45.7</ele>
        <time>2019-11-11T09:33:50Z</time>
      </trkpt>
      <trkpt lat="49.27513" lon="1.08252">
        <ele>45.7</ele>
        <time>2019-11-11T09:33:51Z</time>
      </trkpt>
      <trkpt lat="49.27513" lon="1.08256">
        <ele>45.7</ele>
        <time>2019-11-11T09:33:52Z</time>
      </trkpt>
      <trkpt lat="49.27513" lon="1.08261">
        <ele>45.7</ele>
        <time>2019-11-11T09:33:53Z</time>
      </trkpt>
      <trkpt lat="49.27513" lon="1.08265">
        <ele>45.7</ele>
        <time>2019-11-11T09:33:54Z</time>
      </trkpt>
      <trkpt lat="49.27512" lon="1.08269">
        <ele>45.7</ele>
        <time>2019-11-11T09:33:55Z</time>
      </trkpt>
      <trkpt lat="49.27512" lon="1.08274">
        <ele>45.7</ele>
        <time>2019-11-11T09:33:56Z</time>
      </trkpt>
      <trkpt lat="49.27511" lon="1.08278">
        <ele>46.8</ele>
        <time>2019-11-11T09:33:57Z</time>
      </trkpt>
      <trkpt lat="49.2751" lon="1.08282">
        <ele>46.8</ele>
        <time>2019-11-11T09:33:58Z</time>
      </trkpt>
      <trkpt lat="49.27509" lon="1.08286">
        <ele>46.8</ele>
        <time>2019-11-11T09:33:59Z</time>
      </trkpt>
      <trkpt lat="49.27509" lon="1.08289">
        <ele>46.8</ele>
        <time>2019-11-11T09:34:00Z</time>
      </trkpt>
      <trkpt lat="49.27508" lon="1.08293">
        <ele>47.7</ele>
        <time>2019-11-11T09:34:01Z</time>
      </trkpt>
      <trkpt lat="49.27507" lon="1.08298">
        <ele>47.7</ele>
        <time>2019-11-11T09:34:02Z</time>
      </trkpt>
      <trkpt lat="49.27506" lon="1.08302">
        <ele>47.7</ele>
        <time>2019-11-11T09:34:03Z</time>
      </trkpt>
      <trkpt lat="49.27505" lon="1.08307">
        <ele>47.7</ele>
        <time>2019-11-11T09:34:04Z</time>
      </trkpt>
      <trkpt lat="49.27505" lon="1.08311">
        <ele>48.8</ele>
        <time>2019-11-11T09:34:05Z</time>
      </trkpt>
      <trkpt lat="49.27504" lon="1.08315">
        <ele>48.8</ele>
        <time>2019-11-11T09:34:06Z</time>
      </trkpt>
      <trkpt lat="49.27503" lon="1.08319">
        <ele>48.8</ele>
        <time>2019-11-11T09:34:07Z</time>
      </trkpt>
      <trkpt lat="49.27502" lon="1.08323">
        <ele>48.8</ele>
        <time>2019-11-11T09:34:08Z</time>
      </trkpt>
      <trkpt lat="49.27501" lon="1.08327">
        <ele>48.8</ele>
        <time>2019-11-11T09:34:09Z</time>
      </trkpt>
      <trkpt lat="49.275" lon="1.08332">
        <ele>48.8</ele>
        <time>2019-11-11T09:34:10Z</time>
      </trkpt>
      <trkpt lat="49.27499" lon="1.08336">
        <ele>48.8</ele>
        <time>2019-11-11T09:34:11Z</time>
      </trkpt>
      <trkpt lat="49.27498" lon="1.0834">
        <ele>48.8</ele>
        <time>2019-11-11T09:34:12Z</time>
      </trkpt>
      <trkpt lat="49.27497" lon="1.08345">
        <ele>48.8</ele>
        <time>2019-11-11T09:34:13Z</time>
      </trkpt>
      <trkpt lat="49.27496" lon="1.08349">
        <ele>48.8</ele>
        <time>2019-11-11T09:34:14Z</time>
      </trkpt>
      <trkpt lat="49.27495" lon="1.08354">
        <ele>49.7</ele>
        <time>2019-11-11T09:34:15Z</time>
      </trkpt>
      <trkpt lat="49.27495" lon="1.08359">
        <ele>49.7</ele>
        <time>2019-11-11T09:34:16Z</time>
      </trkpt>
      <trkpt lat="49.27494" lon="1.08363">
        <ele>49.7</ele>
        <time>2019-11-11T09:34:17Z</time>
      </trkpt>
      <trkpt lat="49.27493" lon="1.08368">
        <ele>49.7</ele>
        <time>2019-11-11T09:34:18Z</time>
      </trkpt>
      <trkpt lat="49.27493" lon="1.08372">
        <ele>49.7</ele>
        <time>2019-11-11T09:34:19Z</time>
      </trkpt>
      <trkpt lat="49.27492" lon="1.08377">
        <ele>49.7</ele>
        <time>2019-11-11T09:34:20Z</time>
      </trkpt>
      <trkpt lat="49.27491" lon="1.08381">
        <ele>49.7</ele>
        <time>2019-11-11T09:34:21Z</time>
      </trkpt>
      <trkpt lat="49.2749" lon="1.08385">
        <ele>49.7</ele>
        <time>2019-11-11T09:34:22Z</time>
      </trkpt>
      <trkpt lat="49.27489" lon="1.08389">
        <ele>50.8</ele>
        <time>2019-11-11T09:34:23Z</time>
      </trkpt>
      <trkpt lat="49.27488" lon="1.08393">
        <ele>50.8</ele>
        <time>2019-11-11T09:34:24Z</time>
      </trkpt>
      <trkpt lat="49.27487" lon="1.08397">
        <ele>50.8</ele>
        <time>2019-11-11T09:34:25Z</time>
      </trkpt>
      <trkpt lat="49.27485" lon="1.08401">
        <ele>50.8</ele>
        <time>2019-11-11T09:34:26Z</time>
      </trkpt>
      <trkpt lat="49.27484" lon="1.08405">
        <ele>51.8</ele>
        <time>2019-11-11T09:34:27Z</time>
      </trkpt>
      <trkpt lat="49.27483" lon="1.08409">
        <ele>51.8</ele>
        <time>2019-11-11T09:34:28Z</time>
      </trkpt>
      <trkpt lat="49.27482" lon="1.08413">
        <ele>51.8</ele>
        <time>2019-11-11T09:34:29Z</time>
      </trkpt>
      <trkpt lat="49.2748" lon="1.08417">
        <ele>51.8</ele>
        <time>2019-11-11T09:34:30Z</time>
      </trkpt>
      <trkpt lat="49.27479" lon="1.08421">
        <ele>52.7</ele>
        <time>2019-11-11T09:34:31Z</time>
      </trkpt>
      <trkpt lat="49.27478" lon="1.08424">
        <ele>52.7</ele>
        <time>2019-11-11T09:34:32Z</time>
      </trkpt>
      <trkpt lat="49.27477" lon="1.08428">
        <ele>52.7</ele>
        <time>2019-11-11T09:34:33Z</time>
      </trkpt>
      <trkpt lat="49.27476" lon="1.08432">
        <ele>52.7</ele>
        <time>2019-11-11T09:34:34Z</time>
      </trkpt>
      <trkpt lat="49.27475" lon="1.08435">
        <ele>52.7</ele>
        <time>2019-11-11T09:34:35Z</time>
      </trkpt>
      <trkpt lat="49.27474" lon="1.08439">
        <ele>52.7</ele>
        <time>2019-11-11T09:34:36Z</time>
      </trkpt>
      <trkpt lat="49.27473" lon="1.08444">
        <ele>52.7</ele>
        <time>2019-11-11T09:34:37Z</time>
      </trkpt>
      <trkpt lat="49.27472" lon="1.08448">
        <ele>52.7</ele>
        <time>2019-11-11T09:34:38Z</time>
      </trkpt>
      <trkpt lat="49.27471" lon="1.08452">
        <ele>52.7</ele>
        <time>2019-11-11T09:34:39Z</time>
      </trkpt>
      <trkpt lat="49.2747" lon="1.08456">
        <ele>52.7</ele>
        <time>2019-11-11T09:34:40Z</time>
      </trkpt>
      <trkpt lat="49.27469" lon="1.08461">
        <ele>52.7</ele>
        <time>2019-11-11T09:34:41Z</time>
      </trkpt>
      <trkpt lat="49.27468" lon="1.08465">
        <ele>52.7</ele>
        <time>2019-11-11T09:34:42Z</time>
      </trkpt>
      <trkpt lat="49.27468" lon="1.08469">
        <ele>53.8</ele>
        <time>2019-11-11T09:34:43Z</time>
      </trkpt>
      <trkpt lat="49.27467" lon="1.08474">
        <ele>53.8</ele>
        <time>2019-11-11T09:34:44Z</time>
      </trkpt>
      <trkpt lat="49.27466" lon="1.08478">
        <ele>53.8</ele>
        <time>2019-11-11T09:34:45Z</time>
      </trkpt>
      <trkpt lat="49.27465" lon="1.08483">
        <ele>53.8</ele>
        <time>2019-11-11T09:34:46Z</time>
      </trkpt>
      <trkpt lat="49.27465" lon="1.08487">
        <ele>53.8</ele>
        <time>2019-11-11T09:34:47Z</time>
      </trkpt>
      <trkpt lat="49.27464" lon="1.08492">
        <ele>53.8</ele>
        <time>2019-11-11T09:34:48Z</time>
      </trkpt>
      <trkpt lat="49.27463" lon="1.08496">
        <ele>54.7</ele>
        <time>2019-11-11T09:34:49Z</time>
      </trkpt>
      <trkpt lat="49.27462" lon="1.085">
        <ele>54.7</ele>
        <time>2019-11-11T09:34:50Z</time>
      </trkpt>
      <trkpt lat="49.2746" lon="1.08504">
        <ele>54.7</ele>
        <time>2019-11-11T09:34:51Z</time>
      </trkpt>
      <trkpt lat="49.27459" lon="1.08509">
        <ele>54.7</ele>
        <time>2019-11-11T09:34:52Z</time>
      </trkpt>
      <trkpt lat="49.27458" lon="1.08513">
        <ele>54.7</ele>
        <time>2019-11-11T09:34:53Z</time>
      </trkpt>
      <trkpt lat="49.27457" lon="1.08518">
        <ele>54.7</ele>
        <time>2019-11-11T09:34:54Z</time>
      </trkpt>
      <trkpt lat="49.27456" lon="1.08522">
        <ele>54.7</ele>
        <time>2019-11-11T09:34:55Z</time>
      </trkpt>
      <trkpt lat="49.27455" lon="1.08526">
        <ele>54.7</ele>
        <time>2019-11-11T09:34:56Z</time>
      </trkpt>
      <trkpt lat="49.27453" lon="1.08531">
        <ele>54.7</ele>
        <time>2019-11-11T09:34:57Z</time>
      </trkpt>
      <trkpt lat="49.27452" lon="1.08535">
        <ele>54.7</ele>
        <time>2019-11-11T09:34:58Z</time>
      </trkpt>
      <trkpt lat="49.27451" lon="1.0854">
        <ele>54.7</ele>
        <time>2019-11-11T09:34:59Z</time>
      </trkpt>
      <trkpt lat="49.27449" lon="1.08544">
        <ele>54.7</ele>
        <time>2019-11-11T09:35:00Z</time>
      </trkpt>
      <trkpt lat="49.27447" lon="1.08549">
        <ele>55.8</ele>
        <time>2019-11-11T09:35:01Z</time>
      </trkpt>
      <trkpt lat="49.27445" lon="1.08554">
        <ele>55.8</ele>
        <time>2019-11-11T09:35:02Z</time>
      </trkpt>
      <trkpt lat="49.27443" lon="1.08558">
        <ele>55.8</ele>
        <time>2019-11-11T09:35:03Z</time>
      </trkpt>
      <trkpt lat="49.27441" lon="1.08562">
        <ele>55.8</ele>
        <time>2019-11-11T09:35:04Z</time>
      </trkpt>
      <trkpt lat="49.27439" lon="1.08567">
        <ele>55.8</ele>
        <time>2019-11-11T09:35:05Z</time>
      </trkpt>
      <trkpt lat="49.27437" lon="1.08571">
        <ele>55.8</ele>
        <time>2019-11-11T09:35:06Z</time>
      </trkpt>
      <trkpt lat="49.27434" lon="1.08574">
        <ele>55.8</ele>
        <time>2019-11-11T09:35:07Z</time>
      </trkpt>
      <trkpt lat="49.27432" lon="1.08578">
        <ele>55.8</ele>
        <time>2019-11-11T09:35:08Z</time>
      </trkpt>
      <trkpt lat="49.2743" lon="1.08581">
        <ele>56.7</ele>
        <time>2019-11-11T09:35:09Z</time>
      </trkpt>
      <trkpt lat="49.27427" lon="1.08585">
        <ele>56.7</ele>
        <time>2019-11-11T09:35:10Z</time>
      </trkpt>
      <trkpt lat="49.27425" lon="1.08588">
        <ele>56.7</ele>
        <time>2019-11-11T09:35:11Z</time>
      </trkpt>
      <trkpt lat="49.27423" lon="1.08591">
        <ele>56.7</ele>
        <time>2019-11-11T09:35:12Z</time>
      </trkpt>
      <trkpt lat="49.2742" lon="1.08595">
        <ele>56.7</ele>
        <time>2019-11-11T09:35:13Z</time>
      </trkpt>
      <trkpt lat="49.27418" lon="1.08598">
        <ele>56.7</ele>
        <time>2019-11-11T09:35:14Z</time>
      </trkpt>
      <trkpt lat="49.27416" lon="1.08601">
        <ele>56.7</ele>
        <time>2019-11-11T09:35:15Z</time>
      </trkpt>
      <trkpt lat="49.27414" lon="1.08604">
        <ele>56.7</ele>
        <time>2019-11-11T09:35:16Z</time>
      </trkpt>
      <trkpt lat="49.27412" lon="1.08607">
        <ele>57.8</ele>
        <time>2019-11-11T09:35:17Z</time>
      </trkpt>
      <trkpt lat="49.27409" lon="1.0861">
        <ele>57.8</ele>
        <time>2019-11-11T09:35:18Z</time>
      </trkpt>
      <trkpt lat="49.27407" lon="1.08613">
        <ele>57.8</ele>
        <time>2019-11-11T09:35:19Z</time>
      </trkpt>
      <trkpt lat="49.27405" lon="1.08616">
        <ele>57.8</ele>
        <time>2019-11-11T09:35:20Z</time>
      </trkpt>
      <trkpt lat="49.27403" lon="1.0862">
        <ele>57.8</ele>
        <time>2019-11-11T09:35:21Z</time>
      </trkpt>
      <trkpt lat="49.27401" lon="1.08623">
        <ele>57.8</ele>
        <time>2019-11-11T09:35:22Z</time>
      </trkpt>
      <trkpt lat="49.27398" lon="1.08626">
        <ele>57.8</ele>
        <time>2019-11-11T09:35:23Z</time>
      </trkpt>
      <trkpt lat="49.27396" lon="1.0863">
        <ele>57.8</ele>
        <time>2019-11-11T09:35:24Z</time>
      </trkpt>
      <trkpt lat="49.27394" lon="1.08633">
        <ele>57.8</ele>
        <time>2019-11-11T09:35:25Z</time>
      </trkpt>
      <trkpt lat="49.27392" lon="1.08636">
        <ele>57.8</ele>
        <time>2019-11-11T09:35:26Z</time>
      </trkpt>
      <trkpt lat="49.27389" lon="1.08639">
        <ele>57.8</ele>
        <time>2019-11-11T09:35:27Z</time>
      </trkpt>
      <trkpt lat="49.27387" lon="1.08643">
        <ele>57.8</ele>
        <time>2019-11-11T09:35:28Z</time>
      </trkpt>
      <trkpt lat="49.27386" lon="1.08646">
        <ele>58.7</ele>
        <time>2019-11-11T09:35:29Z</time>
      </trkpt>
      <trkpt lat="49.27384" lon="1.08648">
        <ele>58.7</ele>
        <time>2019-11-11T09:35:30Z</time>
      </trkpt>
      <trkpt lat="49.27383" lon="1.08651">
        <ele>58.7</ele>
        <time>2019-11-11T09:35:31Z</time>
      </trkpt>
      <trkpt lat="49.27382" lon="1.08654">
        <ele>58.7</ele>
        <time>2019-11-11T09:35:32Z</time>
      </trkpt>
      <trkpt lat="49.27383" lon="1.08656">
        <ele>58.7</ele>
        <time>2019-11-11T09:35:33Z</time>
      </trkpt>
      <trkpt lat="49.27384" lon="1.08659">
        <ele>58.7</ele>
        <time>2019-11-11T09:35:34Z</time>
      </trkpt>
      <trkpt lat="49.27385" lon="1.08662">
        <ele>58.7</ele>
        <time>2019-11-11T09:35:35Z</time>
      </trkpt>
      <trkpt lat="49.27388" lon="1.08666">
        <ele>58.7</ele>
        <time>2019-11-11T09:35:36Z</time>
      </trkpt>
      <trkpt lat="49.2739" lon="1.08671">
        <ele>58.7</ele>
        <time>2019-11-11T09:35:37Z</time>
      </trkpt>
      <trkpt lat="49.27392" lon="1.08675">
        <ele>58.7</ele>
        <time>2019-11-11T09:35:38Z</time>
      </trkpt>
      <trkpt lat="49.27395" lon="1.08679">
        <ele>58.7</ele>
        <time>2019-11-11T09:35:39Z</time>
      </trkpt>
      <trkpt lat="49.27398" lon="1.08684">
        <ele>58.7</ele>
        <time>2019-11-11T09:35:40Z</time>
      </trkpt>
      <trkpt lat="49.27401" lon="1.08687">
        <ele>57.8</ele>
        <time>2019-11-11T09:35:41Z</time>
      </trkpt>
      <trkpt lat="49.27405" lon="1.08691">
        <ele>57.8</ele>
        <time>2019-11-11T09:35:42Z</time>
      </trkpt>
      <trkpt lat="49.27407" lon="1.08696">
        <ele>56.7</ele>
        <time>2019-11-11T09:35:43Z</time>
      </trkpt>
      <trkpt lat="49.27409" lon="1.087">
        <ele>56.7</ele>
        <time>2019-11-11T09:35:44Z</time>
      </trkpt>
      <trkpt lat="49.27412" lon="1.08703">
        <ele>56.7</ele>
        <time>2019-11-11T09:35:45Z</time>
      </trkpt>
      <trkpt lat="49.27415" lon="1.08706">
        <ele>56.7</ele>
        <time>2019-11-11T09:35:46Z</time>
      </trkpt>
      <trkpt lat="49.27419" lon="1.0871">
        <ele>55.8</ele>
        <time>2019-11-11T09:35:47Z</time>
      </trkpt>
      <trkpt lat="49.27422" lon="1.08714">
        <ele>55.8</ele>
        <time>2019-11-11T09:35:48Z</time>
      </trkpt>
      <trkpt lat="49.27426" lon="1.08718">
        <ele>55.8</ele>
        <time>2019-11-11T09:35:49Z</time>
      </trkpt>
      <trkpt lat="49.2743" lon="1.08722">
        <ele>55.8</ele>
        <time>2019-11-11T09:35:50Z</time>
      </trkpt>
      <trkpt lat="49.27433" lon="1.08727">
        <ele>55.8</ele>
        <time>2019-11-11T09:35:51Z</time>
      </trkpt>
      <trkpt lat="49.27436" lon="1.08731">
        <ele>55.8</ele>
        <time>2019-11-11T09:35:52Z</time>
      </trkpt>
      <trkpt lat="49.2744" lon="1.08735">
        <ele>54.7</ele>
        <time>2019-11-11T09:35:53Z</time>
      </trkpt>
      <trkpt lat="49.27443" lon="1.08739">
        <ele>54.7</ele>
        <time>2019-11-11T09:35:54Z</time>
      </trkpt>
      <trkpt lat="49.27446" lon="1.08743">
        <ele>54.7</ele>
        <time>2019-11-11T09:35:55Z</time>
      </trkpt>
      <trkpt lat="49.27449" lon="1.08746">
        <ele>54.7</ele>
        <time>2019-11-11T09:35:56Z</time>
      </trkpt>
      <trkpt lat="49.27451" lon="1.08749">
        <ele>54.7</ele>
        <time>2019-11-11T09:35:57Z</time>
      </trkpt>
      <trkpt lat="49.27454" lon="1.08751">
        <ele>54.7</ele>
        <time>2019-11-11T09:35:58Z</time>
      </trkpt>
      <trkpt lat="49.27456" lon="1.08754">
        <ele>54.7</ele>
        <time>2019-11-11T09:35:59Z</time>
      </trkpt>
      <trkpt lat="49.27459" lon="1.08756">
        <ele>54.7</ele>
        <time>2019-11-11T09:36:00Z</time>
      </trkpt>
      <trkpt lat="49.27461" lon="1.08758">
        <ele>54.7</ele>
        <time>2019-11-11T09:36:01Z</time>
      </trkpt>
      <trkpt lat="49.27464" lon="1.0876">
        <ele>54.7</ele>
        <time>2019-11-11T09:36:02Z</time>
      </trkpt>
      <trkpt lat="49.27466" lon="1.08762">
        <ele>54.7</ele>
        <time>2019-11-11T09:36:03Z</time>
      </trkpt>
      <trkpt lat="49.27468" lon="1.08764">
        <ele>54.7</ele>
        <time>2019-11-11T09:36:04Z</time>
      </trkpt>
      <trkpt lat="49.2747" lon="1.08767">
        <ele>55.8</ele>
        <time>2019-11-11T09:36:05Z</time>
      </trkpt>
      <trkpt lat="49.27472" lon="1.08769">
        <ele>55.8</ele>
        <time>2019-11-11T09:36:06Z</time>
      </trkpt>
      <trkpt lat="49.27475" lon="1.08772">
        <ele>55.8</ele>
        <time>2019-11-11T09:36:07Z</time>
      </trkpt>
      <trkpt lat="49.27477" lon="1.08774">
        <ele>55.8</ele>
        <time>2019-11-11T09:36:08Z</time>
      </trkpt>
      <trkpt lat="49.27479" lon="1.08777">
        <ele>55.8</ele>
        <time>2019-11-11T09:36:09Z</time>
      </trkpt>
      <trkpt lat="49.27481" lon="1.08779">
        <ele>55.8</ele>
        <time>2019-11-11T09:36:10Z</time>
      </trkpt>
      <trkpt lat="49.27483" lon="1.08782">
        <ele>55.8</ele>
        <time>2019-11-11T09:36:11Z</time>
      </trkpt>
      <trkpt lat="49.27485" lon="1.08784">
        <ele>55.8</ele>
        <time>2019-11-11T09:36:12Z</time>
      </trkpt>
      <trkpt lat="49.27487" lon="1.08787">
        <ele>55.8</ele>
        <time>2019-11-11T09:36:13Z</time>
      </trkpt>
      <trkpt lat="49.27489" lon="1.08789">
        <ele>55.8</ele>
        <time>2019-11-11T09:36:14Z</time>
      </trkpt>
      <trkpt lat="49.27491" lon="1.08792">
        <ele>55.8</ele>
        <time>2019-11-11T09:36:15Z</time>
      </trkpt>
      <trkpt lat="49.27493" lon="1.08794">
        <ele>55.8</ele>
        <time>2019-11-11T09:36:16Z</time>
      </trkpt>
      <trkpt lat="49.27495" lon="1.08796">
        <ele>55.8</ele>
        <time>2019-11-11T09:36:17Z</time>
      </trkpt>
      <trkpt lat="49.27498" lon="1.08799">
        <ele>55.8</ele>
        <time>2019-11-11T09:36:18Z</time>
      </trkpt>
      <trkpt lat="49.27499" lon="1.08802">
        <ele>58.7</ele>
        <time>2019-11-11T09:36:19Z</time>
      </trkpt>
      <trkpt lat="49.27501" lon="1.08804">
        <ele>58.7</ele>
        <time>2019-11-11T09:36:20Z</time>
      </trkpt>
      <trkpt lat="49.27503" lon="1.08807">
        <ele>58.7</ele>
        <time>2019-11-11T09:36:21Z</time>
      </trkpt>
      <trkpt lat="49.27505" lon="1.08809">
        <ele>58.7</ele>
        <time>2019-11-11T09:36:22Z</time>
      </trkpt>
      <trkpt lat="49.27507" lon="1.08811">
        <ele>58.7</ele>
        <time>2019-11-11T09:36:23Z</time>
      </trkpt>
      <trkpt lat="49.27509" lon="1.08814">
        <ele>58.7</ele>
        <time>2019-11-11T09:36:24Z</time>
      </trkpt>
      <trkpt lat="49.27511" lon="1.08816">
        <ele>59.7</ele>
        <time>2019-11-11T09:36:25Z</time>
      </trkpt>
      <trkpt lat="49.27513" lon="1.08819">
        <ele>59.7</ele>
        <time>2019-11-11T09:36:26Z</time>
      </trkpt>
      <trkpt lat="49.27515" lon="1.08821">
        <ele>59.7</ele>
        <time>2019-11-11T09:36:27Z</time>
      </trkpt>
      <trkpt lat="49.27517" lon="1.08823">
        <ele>59.7</ele>
        <time>2019-11-11T09:36:28Z</time>
      </trkpt>
      <trkpt lat="49.27519" lon="1.08825">
        <ele>59.7</ele>
        <time>2019-11-11T09:36:29Z</time>
      </trkpt>
      <trkpt lat="49.27521" lon="1.08827">
        <ele>59.7</ele>
        <time>2019-11-11T09:36:30Z</time>
      </trkpt>
      <trkpt lat="49.27522" lon="1.08829">
        <ele>60.8</ele>
        <time>2019-11-11T09:36:31Z</time>
      </trkpt>
      <trkpt lat="49.27524" lon="1.0883">
        <ele>60.8</ele>
        <time>2019-11-11T09:36:32Z</time>
      </trkpt>
      <trkpt lat="49.27525" lon="1.08831">
        <ele>60.8</ele>
        <time>2019-11-11T09:36:33Z</time>
      </trkpt>
      <trkpt lat="49.27527" lon="1.08833">
        <ele>60.8</ele>
        <time>2019-11-11T09:36:34Z</time>
      </trkpt>
      <trkpt lat="49.27529" lon="1.08836">
        <ele>60.8</ele>
        <time>2019-11-11T09:36:35Z</time>
      </trkpt>
      <trkpt lat="49.2753" lon="1.08838">
        <ele>60.8</ele>
        <time>2019-11-11T09:36:36Z</time>
      </trkpt>
      <trkpt lat="49.27532" lon="1.0884">
        <ele>61.7</ele>
        <time>2019-11-11T09:36:37Z</time>
      </trkpt>
      <trkpt lat="49.27533" lon="1.08843">
        <ele>61.7</ele>
        <time>2019-11-11T09:36:38Z</time>
      </trkpt>
      <trkpt lat="49.27535" lon="1.08845">
        <ele>61.7</ele>
        <time>2019-11-11T09:36:39Z</time>
      </trkpt>
      <trkpt lat="49.27537" lon="1.08847">
        <ele>61.7</ele>
        <time>2019-11-11T09:36:40Z</time>
      </trkpt>
      <trkpt lat="49.27539" lon="1.08849">
        <ele>61.7</ele>
        <time>2019-11-11T09:36:41Z</time>
      </trkpt>
      <trkpt lat="49.2754" lon="1.08851">
        <ele>61.7</ele>
        <time>2019-11-11T09:36:42Z</time>
      </trkpt>
      <trkpt lat="49.27541" lon="1.08853">
        <ele>62.8</ele>
        <time>2019-11-11T09:36:43Z</time>
      </trkpt>
      <trkpt lat="49.27542" lon="1.08855">
        <ele>62.8</ele>
        <time>2019-11-11T09:36:44Z</time>
      </trkpt>
      <trkpt lat="49.27544" lon="1.08857">
        <ele>62.8</ele>
        <time>2019-11-11T09:36:45Z</time>
      </trkpt>
      <trkpt lat="49.27546" lon="1.08859">
        <ele>62.8</ele>
        <time>2019-11-11T09:36:46Z</time>
      </trkpt>
      <trkpt lat="49.27548" lon="1.08861">
        <ele>62.8</ele>
        <time>2019-11-11T09:36:47Z</time>
      </trkpt>
      <trkpt lat="49.2755" lon="1.08863">
        <ele>62.8</ele>
        <time>2019-11-11T09:36:48Z</time>
      </trkpt>
      <trkpt lat="49.27552" lon="1.08866">
        <ele>63.7</ele>
        <time>2019-11-11T09:36:49Z</time>
      </trkpt>
      <trkpt lat="49.27555" lon="1.08868">
        <ele>63.7</ele>
        <time>2019-11-11T09:36:50Z</time>
      </trkpt>
      <trkpt lat="49.27557" lon="1.08871">
        <ele>63.7</ele>
        <time>2019-11-11T09:36:51Z</time>
      </trkpt>
      <trkpt lat="49.27558" lon="1.08873">
        <ele>63.7</ele>
        <time>2019-11-11T09:36:52Z</time>
      </trkpt>
      <trkpt lat="49.2756" lon="1.08876">
        <ele>63.7</ele>
        <time>2019-11-11T09:36:53Z</time>
      </trkpt>
      <trkpt lat="49.27562" lon="1.08878">
        <ele>63.7</ele>
        <time>2019-11-11T09:36:54Z</time>
      </trkpt>
      <trkpt lat="49.27564" lon="1.08881">
        <ele>63.7</ele>
        <time>2019-11-11T09:36:55Z</time>
      </trkpt>
      <trkpt lat="49.27566" lon="1.08883">
        <ele>63.7</ele>
        <time>2019-11-11T09:36:56Z</time>
      </trkpt>
      <trkpt lat="49.27567" lon="1.08885">
        <ele>63.7</ele>
        <time>2019-11-11T09:36:57Z</time>
      </trkpt>
      <trkpt lat="49.27569" lon="1.08888">
        <ele>63.7</ele>
        <time>2019-11-11T09:36:58Z</time>
      </trkpt>
      <trkpt lat="49.27571" lon="1.08891">
        <ele>64.8</ele>
        <time>2019-11-11T09:36:59Z</time>
      </trkpt>
      <trkpt lat="49.27573" lon="1.08894">
        <ele>64.8</ele>
        <time>2019-11-11T09:37:00Z</time>
      </trkpt>
      <trkpt lat="49.27575" lon="1.08896">
        <ele>64.8</ele>
        <time>2019-11-11T09:37:01Z</time>
      </trkpt>
      <trkpt lat="49.27577" lon="1.08899">
        <ele>64.8</ele>
        <time>2019-11-11T09:37:02Z</time>
      </trkpt>
      <trkpt lat="49.27579" lon="1.08902">
        <ele>64.8</ele>
        <time>2019-11-11T09:37:03Z</time>
      </trkpt>
      <trkpt lat="49.27581" lon="1.08905">
        <ele>64.8</ele>
        <time>2019-11-11T09:37:04Z</time>
      </trkpt>
      <trkpt lat="49.27583" lon="1.08908">
        <ele>64.8</ele>
        <time>2019-11-11T09:37:05Z</time>
      </trkpt>
      <trkpt lat="49.27586" lon="1.08911">
        <ele>64.8</ele>
        <time>2019-11-11T09:37:06Z</time>
      </trkpt>
      <trkpt lat="49.27588" lon="1.08914">
        <ele>64.8</ele>
        <time>2019-11-11T09:37:07Z</time>
      </trkpt>
      <trkpt lat="49.27591" lon="1.08917">
        <ele>64.8</ele>
        <time>2019-11-11T09:37:08Z</time>
      </trkpt>
      <trkpt lat="49.27594" lon="1.0892">
        <ele>64.8</ele>
        <time>2019-11-11T09:37:09Z</time>
      </trkpt>
      <trkpt lat="49.27595" lon="1.08923">
        <ele>64.8</ele>
        <time>2019-11-11T09:37:10Z</time>
      </trkpt>
      <trkpt lat="49.27598" lon="1.08926">
        <ele>64.8</ele>
        <time>2019-11-11T09:37:11Z</time>
      </trkpt>
      <trkpt lat="49.276" lon="1.08929">
        <ele>64.8</ele>
        <time>2019-11-11T09:37:12Z</time>
      </trkpt>
      <trkpt lat="49.27602" lon="1.08931">
        <ele>65.7</ele>
        <time>2019-11-11T09:37:13Z</time>
      </trkpt>
      <trkpt lat="49.27604" lon="1.08934">
        <ele>65.7</ele>
        <time>2019-11-11T09:37:14Z</time>
      </trkpt>
      <trkpt lat="49.27606" lon="1.08936">
        <ele>65.7</ele>
        <time>2019-11-11T09:37:15Z</time>
      </trkpt>
      <trkpt lat="49.27607" lon="1.08938">
        <ele>65.7</ele>
        <time>2019-11-11T09:37:16Z</time>
      </trkpt>
      <trkpt lat="49.27609" lon="1.08942">
        <ele>65.7</ele>
        <time>2019-11-11T09:37:17Z</time>
      </trkpt>
      <trkpt lat="49.27611" lon="1.08945">
        <ele>65.7</ele>
        <time>2019-11-11T09:37:18Z</time>
      </trkpt>
      <trkpt lat="49.27614" lon="1.08949">
        <ele>65.7</ele>
        <time>2019-11-11T09:37:19Z</time>
      </trkpt>
      <trkpt lat="49.27616" lon="1.08953">
        <ele>65.7</ele>
        <time>2019-11-11T09:37:20Z</time>
      </trkpt>
      <trkpt lat="49.27618" lon="1.08956">
        <ele>65.7</ele>
        <time>2019-11-11T09:37:21Z</time>
      </trkpt>
      <trkpt lat="49.2762" lon="1.0896">
        <ele>65.7</ele>
        <time>2019-11-11T09:37:22Z</time>
      </trkpt>
      <trkpt lat="49.27623" lon="1.08964">
        <ele>66.8</ele>
        <time>2019-11-11T09:37:23Z</time>
      </trkpt>
      <trkpt lat="49.27626" lon="1.08968">
        <ele>66.8</ele>
        <time>2019-11-11T09:37:24Z</time>
      </trkpt>
      <trkpt lat="49.27629" lon="1.08973">
        <ele>66.8</ele>
        <time>2019-11-11T09:37:25Z</time>
      </trkpt>
      <trkpt lat="49.27631" lon="1.08977">
        <ele>66.8</ele>
        <time>2019-11-11T09:37:26Z</time>
      </trkpt>
      <trkpt lat="49.27634" lon="1.08981">
        <ele>66.8</ele>
        <time>2019-11-11T09:37:27Z</time>
      </trkpt>
      <trkpt lat="49.27638" lon="1.08986">
        <ele>66.8</ele>
        <time>2019-11-11T09:37:28Z</time>
      </trkpt>
      <trkpt lat="49.27643" lon="1.08991">
        <ele>66.8</ele>
        <time>2019-11-11T09:37:29Z</time>
      </trkpt>
      <trkpt lat="49.27647" lon="1.08995">
        <ele>66.8</ele>
        <time>2019-11-11T09:37:30Z</time>
      </trkpt>
      <trkpt lat="49.27651" lon="1.09">
        <ele>66.8</ele>
        <time>2019-11-11T09:37:31Z</time>
      </trkpt>
      <trkpt lat="49.27655" lon="1.09004">
        <ele>66.8</ele>
        <time>2019-11-11T09:37:32Z</time>
      </trkpt>
      <trkpt lat="49.27658" lon="1.0901">
        <ele>65.7</ele>
        <time>2019-11-11T09:37:33Z</time>
      </trkpt>
      <trkpt lat="49.27662" lon="1.09015">
        <ele>65.7</ele>
        <time>2019-11-11T09:37:34Z</time>
      </trkpt>
      <trkpt lat="49.27666" lon="1.0902">
        <ele>65.7</ele>
        <time>2019-11-11T09:37:35Z</time>
      </trkpt>
      <trkpt lat="49.2767" lon="1.09025">
        <ele>65.7</ele>
        <time>2019-11-11T09:37:36Z</time>
      </trkpt>
      <trkpt lat="49.27674" lon="1.0903">
        <ele>65.7</ele>
        <time>2019-11-11T09:37:37Z</time>
      </trkpt>
      <trkpt lat="49.27678" lon="1.09035">
        <ele>65.7</ele>
        <time>2019-11-11T09:37:38Z</time>
      </trkpt>
      <trkpt lat="49.27682" lon="1.09039">
        <ele>65.7</ele>
        <time>2019-11-11T09:37:39Z</time>
      </trkpt>
      <trkpt lat="49.27686" lon="1.09044">
        <ele>65.7</ele>
        <time>2019-11-11T09:37:40Z</time>
      </trkpt>
      <trkpt lat="49.2769" lon="1.0905">
        <ele>65.7</ele>
        <time>2019-11-11T09:37:41Z</time>
      </trkpt>
      <trkpt lat="49.27694" lon="1.09054">
        <ele>65.7</ele>
        <time>2019-11-11T09:37:42Z</time>
      </trkpt>
      <trkpt lat="49.27698" lon="1.0906">
        <ele>64.8</ele>
        <time>2019-11-11T09:37:43Z</time>
      </trkpt>
      <trkpt lat="49.27702" lon="1.09065">
        <ele>64.8</ele>
        <time>2019-11-11T09:37:44Z</time>
      </trkpt>
      <trkpt lat="49.27707" lon="1.0907">
        <ele>64.8</ele>
        <time>2019-11-11T09:37:45Z</time>
      </trkpt>
      <trkpt lat="49.27711" lon="1.09076">
        <ele>64.8</ele>
        <time>2019-11-11T09:37:46Z</time>
      </trkpt>
      <trkpt lat="49.27715" lon="1.09081">
        <ele>64.8</ele>
        <time>2019-11-11T09:37:47Z</time>
      </trkpt>
      <trkpt lat="49.2772" lon="1.09086">
        <ele>64.8</ele>
        <time>2019-11-11T09:37:48Z</time>
      </trkpt>
      <trkpt lat="49.27724" lon="1.09092">
        <ele>64.8</ele>
        <time>2019-11-11T09:37:49Z</time>
      </trkpt>
      <trkpt lat="49.27728" lon="1.09099">
        <ele>64.8</ele>
        <time>2019-11-11T09:37:50Z</time>
      </trkpt>
      <trkpt lat="49.27732" lon="1.09104">
        <ele>63.7</ele>
        <time>2019-11-11T09:37:51Z</time>
      </trkpt>
      <trkpt lat="49.27737" lon="1.0911">
        <ele>63.7</ele>
        <time>2019-11-11T09:37:52Z</time>
      </trkpt>
      <trkpt lat="49.27742" lon="1.09117">
        <ele>63.7</ele>
        <time>2019-11-11T09:37:53Z</time>
      </trkpt>
      <trkpt lat="49.27747" lon="1.09123">
        <ele>63.7</ele>
        <time>2019-11-11T09:37:54Z</time>
      </trkpt>
      <trkpt lat="49.27752" lon="1.09128">
        <ele>63.7</ele>
        <time>2019-11-11T09:37:55Z</time>
      </trkpt>
      <trkpt lat="49.27757" lon="1.09133">
        <ele>63.7</ele>
        <time>2019-11-11T09:37:56Z</time>
      </trkpt>
      <trkpt lat="49.27762" lon="1.09139">
        <ele>62.8</ele>
        <time>2019-11-11T09:37:57Z</time>
      </trkpt>
      <trkpt lat="49.27767" lon="1.09145">
        <ele>62.8</ele>
        <time>2019-11-11T09:37:58Z</time>
      </trkpt>
      <trkpt lat="49.27772" lon="1.0915">
        <ele>62.8</ele>
        <time>2019-11-11T09:37:59Z</time>
      </trkpt>
      <trkpt lat="49.27776" lon="1.09155">
        <ele>62.8</ele>
        <time>2019-11-11T09:38:00Z</time>
      </trkpt>
      <trkpt lat="49.2778" lon="1.0916">
        <ele>62.8</ele>
        <time>2019-11-11T09:38:01Z</time>
      </trkpt>
      <trkpt lat="49.27784" lon="1.09165">
        <ele>62.8</ele>
        <time>2019-11-11T09:38:02Z</time>
      </trkpt>
      <trkpt lat="49.27788" lon="1.0917">
        <ele>61.7</ele>
        <time>2019-11-11T09:38:03Z</time>
      </trkpt>
      <trkpt lat="49.27792" lon="1.09174">
        <ele>61.7</ele>
        <time>2019-11-11T09:38:04Z</time>
      </trkpt>
      <trkpt lat="49.27796" lon="1.0918">
        <ele>61.7</ele>
        <time>2019-11-11T09:38:05Z</time>
      </trkpt>
      <trkpt lat="49.278" lon="1.09185">
        <ele>61.7</ele>
        <time>2019-11-11T09:38:06Z</time>
      </trkpt>
      <trkpt lat="49.27803" lon="1.09189">
        <ele>61.7</ele>
        <time>2019-11-11T09:38:07Z</time>
      </trkpt>
      <trkpt lat="49.27806" lon="1.09194">
        <ele>61.7</ele>
        <time>2019-11-11T09:38:08Z</time>
      </trkpt>
      <trkpt lat="49.2781" lon="1.09198">
        <ele>60.8</ele>
        <time>2019-11-11T09:38:09Z</time>
      </trkpt>
      <trkpt lat="49.27814" lon="1.09203">
        <ele>60.8</ele>
        <time>2019-11-11T09:38:10Z</time>
      </trkpt>
      <trkpt lat="49.27818" lon="1.09208">
        <ele>60.8</ele>
        <time>2019-11-11T09:38:11Z</time>
      </trkpt>
      <trkpt lat="49.27822" lon="1.09214">
        <ele>60.8</ele>
        <time>2019-11-11T09:38:12Z</time>
      </trkpt>
      <trkpt lat="49.27826" lon="1.09219">
        <ele>60.8</ele>
        <time>2019-11-11T09:38:13Z</time>
      </trkpt>
      <trkpt lat="49.27831" lon="1.09224">
        <ele>60.8</ele>
        <time>2019-11-11T09:38:14Z</time>
      </trkpt>
      <trkpt lat="49.27834" lon="1.09229">
        <ele>60.8</ele>
        <time>2019-11-11T09:38:15Z</time>
      </trkpt>
      <trkpt lat="49.27837" lon="1.09233">
        <ele>60.8</ele>
        <time>2019-11-11T09:38:16Z</time>
      </trkpt>
      <trkpt lat="49.2784" lon="1.09238">
        <ele>60.8</ele>
        <time>2019-11-11T09:38:17Z</time>
      </trkpt>
      <trkpt lat="49.27844" lon="1.09244">
        <ele>60.8</ele>
        <time>2019-11-11T09:38:18Z</time>
      </trkpt>
      <trkpt lat="49.27848" lon="1.09251">
        <ele>60.8</ele>
        <time>2019-11-11T09:38:19Z</time>
      </trkpt>
      <trkpt lat="49.27852" lon="1.09257">
        <ele>60.8</ele>
        <time>2019-11-11T09:38:20Z</time>
      </trkpt>
      <trkpt lat="49.27856" lon="1.09262">
        <ele>60.8</ele>
        <time>2019-11-11T09:38:21Z</time>
      </trkpt>
      <trkpt lat="49.2786" lon="1.09267">
        <ele>60.8</ele>
        <time>2019-11-11T09:38:22Z</time>
      </trkpt>
      <trkpt lat="49.27864" lon="1.09273">
        <ele>60.8</ele>
        <time>2019-11-11T09:38:23Z</time>
      </trkpt>
      <trkpt lat="49.27868" lon="1.09279">
        <ele>60.8</ele>
        <time>2019-11-11T09:38:24Z</time>
      </trkpt>
      <trkpt lat="49.27872" lon="1.09283">
        <ele>60.8</ele>
        <time>2019-11-11T09:38:25Z</time>
      </trkpt>
      <trkpt lat="49.27876" lon="1.09288">
        <ele>60.8</ele>
        <time>2019-11-11T09:38:26Z</time>
      </trkpt>
      <trkpt lat="49.2788" lon="1.09292">
        <ele>60.8</ele>
        <time>2019-11-11T09:38:27Z</time>
      </trkpt>
      <trkpt lat="49.27884" lon="1.09296">
        <ele>60.8</ele>
        <time>2019-11-11T09:38:28Z</time>
      </trkpt>
      <trkpt lat="49.27887" lon="1.09301">
        <ele>60.8</ele>
        <time>2019-11-11T09:38:29Z</time>
      </trkpt>
      <trkpt lat="49.27891" lon="1.09306">
        <ele>60.8</ele>
        <time>2019-11-11T09:38:30Z</time>
      </trkpt>
      <trkpt lat="49.27895" lon="1.0931">
        <ele>60.8</ele>
        <time>2019-11-11T09:38:31Z</time>
      </trkpt>
      <trkpt lat="49.27899" lon="1.09314">
        <ele>60.8</ele>
        <time>2019-11-11T09:38:32Z</time>
      </trkpt>
      <trkpt lat="49.27903" lon="1.09319">
        <ele>60.8</ele>
        <time>2019-11-11T09:38:33Z</time>
      </trkpt>
      <trkpt lat="49.27906" lon="1.09323">
        <ele>60.8</ele>
        <time>2019-11-11T09:38:34Z</time>
      </trkpt>
      <trkpt lat="49.27909" lon="1.09329">
        <ele>60.8</ele>
        <time>2019-11-11T09:38:35Z</time>
      </trkpt>
      <trkpt lat="49.27911" lon="1.09336">
        <ele>60.8</ele>
        <time>2019-11-11T09:38:36Z</time>
      </trkpt>
      <trkpt lat="49.27912" lon="1.09342">
        <ele>61.7</ele>
        <time>2019-11-11T09:38:37Z</time>
      </trkpt>
      <trkpt lat="49.27913" lon="1.09349">
        <ele>61.7</ele>
        <time>2019-11-11T09:38:38Z</time>
      </trkpt>
      <trkpt lat="49.27913" lon="1.09355">
        <ele>61.7</ele>
        <time>2019-11-11T09:38:39Z</time>
      </trkpt>
      <trkpt lat="49.27914" lon="1.09359">
        <ele>61.7</ele>
        <time>2019-11-11T09:38:40Z</time>
      </trkpt>
      <trkpt lat="49.27914" lon="1.09364">
        <ele>61.7</ele>
        <time>2019-11-11T09:38:41Z</time>
      </trkpt>
      <trkpt lat="49.27914" lon="1.09367">
        <ele>61.7</ele>
        <time>2019-11-11T09:38:42Z</time>
      </trkpt>
      <trkpt lat="49.27915" lon="1.09371">
        <ele>61.7</ele>
        <time>2019-11-11T09:38:43Z</time>
      </trkpt>
      <trkpt lat="49.27915" lon="1.09374">
        <ele>61.7</ele>
        <time>2019-11-11T09:38:44Z</time>
      </trkpt>
      <trkpt lat="49.27915" lon="1.09377">
        <ele>61.7</ele>
        <time>2019-11-11T09:38:45Z</time>
      </trkpt>
      <trkpt lat="49.27915" lon="1.09379">
        <ele>61.7</ele>
        <time>2019-11-11T09:38:46Z</time>
      </trkpt>
      <trkpt lat="49.27915" lon="1.09382">
        <ele>61.7</ele>
        <time>2019-11-11T09:38:47Z</time>
      </trkpt>
      <trkpt lat="49.27915" lon="1.09384">
        <ele>61.7</ele>
        <time>2019-11-11T09:38:48Z</time>
      </trkpt>
      <trkpt lat="49.27915" lon="1.09388">
        <ele>61.7</ele>
        <time>2019-11-11T09:38:49Z</time>
      </trkpt>
      <trkpt lat="49.27915" lon="1.09391">
        <ele>61.7</ele>
        <time>2019-11-11T09:38:50Z</time>
      </trkpt>
      <trkpt lat="49.27915" lon="1.09394">
        <ele>62.8</ele>
        <time>2019-11-11T09:38:51Z</time>
      </trkpt>
      <trkpt lat="49.27915" lon="1.09398">
        <ele>62.8</ele>
        <time>2019-11-11T09:38:52Z</time>
      </trkpt>
      <trkpt lat="49.27915" lon="1.09401">
        <ele>62.8</ele>
        <time>2019-11-11T09:38:53Z</time>
      </trkpt>
      <trkpt lat="49.27915" lon="1.09404">
        <ele>62.8</ele>
        <time>2019-11-11T09:38:54Z</time>
      </trkpt>
      <trkpt lat="49.27915" lon="1.09408">
        <ele>62.8</ele>
        <time>2019-11-11T09:38:55Z</time>
      </trkpt>
      <trkpt lat="49.27915" lon="1.09411">
        <ele>62.8</ele>
        <time>2019-11-11T09:38:56Z</time>
      </trkpt>
      <trkpt lat="49.27914" lon="1.09415">
        <ele>63.7</ele>
        <time>2019-11-11T09:38:57Z</time>
      </trkpt>
      <trkpt lat="49.27914" lon="1.09418">
        <ele>63.7</ele>
        <time>2019-11-11T09:38:58Z</time>
      </trkpt>
      <trkpt lat="49.27913" lon="1.09421">
        <ele>63.7</ele>
        <time>2019-11-11T09:38:59Z</time>
      </trkpt>
      <trkpt lat="49.27913" lon="1.09425">
        <ele>63.7</ele>
        <time>2019-11-11T09:39:00Z</time>
      </trkpt>
      <trkpt lat="49.27913" lon="1.09428">
        <ele>64.8</ele>
        <time>2019-11-11T09:39:01Z</time>
      </trkpt>
      <trkpt lat="49.27912" lon="1.09432">
        <ele>64.8</ele>
        <time>2019-11-11T09:39:02Z</time>
      </trkpt>
      <trkpt lat="49.27912" lon="1.09436">
        <ele>65.7</ele>
        <time>2019-11-11T09:39:03Z</time>
      </trkpt>
      <trkpt lat="49.27911" lon="1.0944">
        <ele>65.7</ele>
        <time>2019-11-11T09:39:04Z</time>
      </trkpt>
      <trkpt lat="49.27911" lon="1.09443">
        <ele>65.7</ele>
        <time>2019-11-11T09:39:05Z</time>
      </trkpt>
      <trkpt lat="49.27911" lon="1.09447">
        <ele>65.7</ele>
        <time>2019-11-11T09:39:06Z</time>
      </trkpt>
      <trkpt lat="49.27911" lon="1.0945">
        <ele>65.7</ele>
        <time>2019-11-11T09:39:07Z</time>
      </trkpt>
      <trkpt lat="49.27911" lon="1.09454">
        <ele>65.7</ele>
        <time>2019-11-11T09:39:08Z</time>
      </trkpt>
      <trkpt lat="49.2791" lon="1.09458">
        <ele>65.7</ele>
        <time>2019-11-11T09:39:09Z</time>
      </trkpt>
      <trkpt lat="49.2791" lon="1.09461">
        <ele>65.7</ele>
        <time>2019-11-11T09:39:10Z</time>
      </trkpt>
      <trkpt lat="49.2791" lon="1.09465">
        <ele>65.7</ele>
        <time>2019-11-11T09:39:11Z</time>
      </trkpt>
      <trkpt lat="49.2791" lon="1.09468">
        <ele>65.7</ele>
        <time>2019-11-11T09:39:12Z</time>
      </trkpt>
      <trkpt lat="49.2791" lon="1.09471">
        <ele>65.7</ele>
        <time>2019-11-11T09:39:13Z</time>
      </trkpt>
      <trkpt lat="49.27909" lon="1.09474">
        <ele>65.7</ele>
        <time>2019-11-11T09:39:14Z</time>
      </trkpt>
      <trkpt lat="49.27909" lon="1.09476">
        <ele>65.7</ele>
        <time>2019-11-11T09:39:15Z</time>
      </trkpt>
      <trkpt lat="49.27909" lon="1.0948">
        <ele>65.7</ele>
        <time>2019-11-11T09:39:16Z</time>
      </trkpt>
      <trkpt lat="49.27909" lon="1.09483">
        <ele>65.7</ele>
        <time>2019-11-11T09:39:17Z</time>
      </trkpt>
      <trkpt lat="49.27908" lon="1.09487">
        <ele>65.7</ele>
        <time>2019-11-11T09:39:18Z</time>
      </trkpt>
      <trkpt lat="49.27908" lon="1.0949">
        <ele>65.7</ele>
        <time>2019-11-11T09:39:19Z</time>
      </trkpt>
      <trkpt lat="49.27908" lon="1.09493">
        <ele>65.7</ele>
        <time>2019-11-11T09:39:20Z</time>
      </trkpt>
      <trkpt lat="49.27907" lon="1.09496">
        <ele>66.8</ele>
        <time>2019-11-11T09:39:21Z</time>
      </trkpt>
      <trkpt lat="49.27907" lon="1.09499">
        <ele>66.8</ele>
        <time>2019-11-11T09:39:22Z</time>
      </trkpt>
      <trkpt lat="49.27906" lon="1.09502">
        <ele>66.8</ele>
        <time>2019-11-11T09:39:23Z</time>
      </trkpt>
      <trkpt lat="49.27906" lon="1.09505">
        <ele>66.8</ele>
        <time>2019-11-11T09:39:24Z</time>
      </trkpt>
      <trkpt lat="49.27906" lon="1.09508">
        <ele>66.8</ele>
        <time>2019-11-11T09:39:25Z</time>
      </trkpt>
      <trkpt lat="49.27906" lon="1.09511">
        <ele>66.8</ele>
        <time>2019-11-11T09:39:26Z</time>
      </trkpt>
      <trkpt lat="49.27905" lon="1.09514">
        <ele>67.8</ele>
        <time>2019-11-11T09:39:27Z</time>
      </trkpt>
      <trkpt lat="49.27905" lon="1.09517">
        <ele>67.8</ele>
        <time>2019-11-11T09:39:28Z</time>
      </trkpt>
      <trkpt lat="49.27904" lon="1.0952">
        <ele>67.8</ele>
        <time>2019-11-11T09:39:29Z</time>
      </trkpt>
      <trkpt lat="49.27904" lon="1.09522">
        <ele>67.8</ele>
        <time>2019-11-11T09:39:30Z</time>
      </trkpt>
      <trkpt lat="49.27903" lon="1.09526">
        <ele>67.8</ele>
        <time>2019-11-11T09:39:31Z</time>
      </trkpt>
      <trkpt lat="49.27903" lon="1.09529">
        <ele>67.8</ele>
        <time>2019-11-11T09:39:32Z</time>
      </trkpt>
      <trkpt lat="49.27903" lon="1.09532">
        <ele>67.8</ele>
        <time>2019-11-11T09:39:33Z</time>
      </trkpt>
      <trkpt lat="49.27902" lon="1.09535">
        <ele>67.8</ele>
        <time>2019-11-11T09:39:34Z</time>
      </trkpt>
      <trkpt lat="49.27902" lon="1.09538">
        <ele>68.7</ele>
        <time>2019-11-11T09:39:35Z</time>
      </trkpt>
      <trkpt lat="49.27902" lon="1.09541">
        <ele>68.7</ele>
        <time>2019-11-11T09:39:36Z</time>
      </trkpt>
      <trkpt lat="49.27901" lon="1.09544">
        <ele>68.7</ele>
        <time>2019-11-11T09:39:37Z</time>
      </trkpt>
      <trkpt lat="49.27901" lon="1.09547">
        <ele>68.7</ele>
        <time>2019-11-11T09:39:38Z</time>
      </trkpt>
      <trkpt lat="49.27901" lon="1.0955">
        <ele>68.7</ele>
        <time>2019-11-11T09:39:39Z</time>
      </trkpt>
      <trkpt lat="49.279" lon="1.09553">
        <ele>68.7</ele>
        <time>2019-11-11T09:39:40Z</time>
      </trkpt>
      <trkpt lat="49.279" lon="1.09556">
        <ele>69.8</ele>
        <time>2019-11-11T09:39:41Z</time>
      </trkpt>
      <trkpt lat="49.279" lon="1.09559">
        <ele>69.8</ele>
        <time>2019-11-11T09:39:42Z</time>
      </trkpt>
      <trkpt lat="49.27899" lon="1.09562">
        <ele>69.8</ele>
        <time>2019-11-11T09:39:43Z</time>
      </trkpt>
      <trkpt lat="49.27899" lon="1.09565">
        <ele>69.8</ele>
        <time>2019-11-11T09:39:44Z</time>
      </trkpt>
      <trkpt lat="49.27898" lon="1.09569">
        <ele>69.8</ele>
        <time>2019-11-11T09:39:45Z</time>
      </trkpt>
      <trkpt lat="49.27898" lon="1.09571">
        <ele>69.8</ele>
        <time>2019-11-11T09:39:46Z</time>
      </trkpt>
      <trkpt lat="49.27898" lon="1.09573">
        <ele>69.8</ele>
        <time>2019-11-11T09:39:47Z</time>
      </trkpt>
      <trkpt lat="49.27897" lon="1.09576">
        <ele>69.8</ele>
        <time>2019-11-11T09:39:48Z</time>
      </trkpt>
      <trkpt lat="49.27897" lon="1.09579">
        <ele>70.7</ele>
        <time>2019-11-11T09:39:49Z</time>
      </trkpt>
      <trkpt lat="49.27896" lon="1.09582">
        <ele>70.7</ele>
        <time>2019-11-11T09:39:50Z</time>
      </trkpt>
      <trkpt lat="49.27896" lon="1.09586">
        <ele>70.7</ele>
        <time>2019-11-11T09:39:51Z</time>
      </trkpt>
      <trkpt lat="49.27896" lon="1.09589">
        <ele>70.7</ele>
        <time>2019-11-11T09:39:52Z</time>
      </trkpt>
      <trkpt lat="49.27895" lon="1.09592">
        <ele>70.7</ele>
        <time>2019-11-11T09:39:53Z</time>
      </trkpt>
      <trkpt lat="49.27895" lon="1.09595">
        <ele>70.7</ele>
        <time>2019-11-11T09:39:54Z</time>
      </trkpt>
      <trkpt lat="49.27895" lon="1.09598">
        <ele>71.8</ele>
        <time>2019-11-11T09:39:55Z</time>
      </trkpt>
      <trkpt lat="49.27894" lon="1.09601">
        <ele>71.8</ele>
        <time>2019-11-11T09:39:56Z</time>
      </trkpt>
      <trkpt lat="49.27894" lon="1.09604">
        <ele>71.8</ele>
        <time>2019-11-11T09:39:57Z</time>
      </trkpt>
      <trkpt lat="49.27894" lon="1.09607">
        <ele>71.8</ele>
        <time>2019-11-11T09:39:58Z</time>
      </trkpt>
      <trkpt lat="49.27893" lon="1.0961">
        <ele>71.8</ele>
        <time>2019-11-11T09:39:59Z</time>
      </trkpt>
      <trkpt lat="49.27893" lon="1.09613">
        <ele>71.8</ele>
        <time>2019-11-11T09:40:00Z</time>
      </trkpt>
      <trkpt lat="49.27893" lon="1.09616">
        <ele>72.7</ele>
        <time>2019-11-11T09:40:01Z</time>
      </trkpt>
      <trkpt lat="49.27892" lon="1.09619">
        <ele>72.7</ele>
        <time>2019-11-11T09:40:02Z</time>
      </trkpt>
      <trkpt lat="49.27892" lon="1.09622">
        <ele>72.7</ele>
        <time>2019-11-11T09:40:03Z</time>
      </trkpt>
      <trkpt lat="49.27892" lon="1.09625">
        <ele>72.7</ele>
        <time>2019-11-11T09:40:04Z</time>
      </trkpt>
      <trkpt lat="49.27892" lon="1.09628">
        <ele>73.8</ele>
        <time>2019-11-11T09:40:05Z</time>
      </trkpt>
      <trkpt lat="49.27892" lon="1.09632">
        <ele>73.8</ele>
        <time>2019-11-11T09:40:06Z</time>
      </trkpt>
      <trkpt lat="49.27892" lon="1.09636">
        <ele>73.8</ele>
        <time>2019-11-11T09:40:07Z</time>
      </trkpt>
      <trkpt lat="49.27891" lon="1.09638">
        <ele>73.8</ele>
        <time>2019-11-11T09:40:08Z</time>
      </trkpt>
      <trkpt lat="49.27891" lon="1.09641">
        <ele>73.8</ele>
        <time>2019-11-11T09:40:09Z</time>
      </trkpt>
      <trkpt lat="49.27891" lon="1.09644">
        <ele>73.8</ele>
        <time>2019-11-11T09:40:10Z</time>
      </trkpt>
      <trkpt lat="49.2789" lon="1.09647">
        <ele>73.8</ele>
        <time>2019-11-11T09:40:11Z</time>
      </trkpt>
      <trkpt lat="49.2789" lon="1.0965">
        <ele>73.8</ele>
        <time>2019-11-11T09:40:12Z</time>
      </trkpt>
      <trkpt lat="49.2789" lon="1.09653">
        <ele>73.8</ele>
        <time>2019-11-11T09:40:13Z</time>
      </trkpt>
      <trkpt lat="49.27889" lon="1.09656">
        <ele>73.8</ele>
        <time>2019-11-11T09:40:14Z</time>
      </trkpt>
      <trkpt lat="49.27889" lon="1.09659">
        <ele>73.8</ele>
        <time>2019-11-11T09:40:15Z</time>
      </trkpt>
      <trkpt lat="49.27888" lon="1.09662">
        <ele>73.8</ele>
        <time>2019-11-11T09:40:16Z</time>
      </trkpt>
      <trkpt lat="49.27888" lon="1.09665">
        <ele>74.7</ele>
        <time>2019-11-11T09:40:17Z</time>
      </trkpt>
      <trkpt lat="49.27888" lon="1.09668">
        <ele>74.7</ele>
        <time>2019-11-11T09:40:18Z</time>
      </trkpt>
      <trkpt lat="49.27887" lon="1.0967">
        <ele>74.7</ele>
        <time>2019-11-11T09:40:19Z</time>
      </trkpt>
      <trkpt lat="49.27887" lon="1.09673">
        <ele>74.7</ele>
        <time>2019-11-11T09:40:20Z</time>
      </trkpt>
      <trkpt lat="49.27887" lon="1.09676">
        <ele>74.7</ele>
        <time>2019-11-11T09:40:21Z</time>
      </trkpt>
      <trkpt lat="49.27886" lon="1.09678">
        <ele>74.7</ele>
        <time>2019-11-11T09:40:22Z</time>
      </trkpt>
      <trkpt lat="49.27886" lon="1.09681">
        <ele>74.7</ele>
        <time>2019-11-11T09:40:23Z</time>
      </trkpt>
      <trkpt lat="49.27886" lon="1.09684">
        <ele>74.7</ele>
        <time>2019-11-11T09:40:24Z</time>
      </trkpt>
      <trkpt lat="49.27886" lon="1.09687">
        <ele>75.7</ele>
        <time>2019-11-11T09:40:25Z</time>
      </trkpt>
      <trkpt lat="49.27885" lon="1.0969">
        <ele>75.7</ele>
        <time>2019-11-11T09:40:26Z</time>
      </trkpt>
      <trkpt lat="49.27885" lon="1.09692">
        <ele>75.7</ele>
        <time>2019-11-11T09:40:27Z</time>
      </trkpt>
      <trkpt lat="49.27885" lon="1.09695">
        <ele>75.7</ele>
        <time>2019-11-11T09:40:28Z</time>
      </trkpt>
      <trkpt lat="49.27884" lon="1.09698">
        <ele>76.8</ele>
        <time>2019-11-11T09:40:29Z</time>
      </trkpt>
      <trkpt lat="49.27884" lon="1.097">
        <ele>76.8</ele>
        <time>2019-11-11T09:40:30Z</time>
      </trkpt>
      <trkpt lat="49.27884" lon="1.09703">
        <ele>76.8</ele>
        <time>2019-11-11T09:40:31Z</time>
      </trkpt>
      <trkpt lat="49.27884" lon="1.09706">
        <ele>76.8</ele>
        <time>2019-11-11T09:40:32Z</time>
      </trkpt>
      <trkpt lat="49.27884" lon="1.09709">
        <ele>76.8</ele>
        <time>2019-11-11T09:40:33Z</time>
      </trkpt>
      <trkpt lat="49.27884" lon="1.09712">
        <ele>76.8</ele>
        <time>2019-11-11T09:40:34Z</time>
      </trkpt>
      <trkpt lat="49.27884" lon="1.09715">
        <ele>76.8</ele>
        <time>2019-11-11T09:40:35Z</time>
      </trkpt>
      <trkpt lat="49.27883" lon="1.09717">
        <ele>76.8</ele>
        <time>2019-11-11T09:40:36Z</time>
      </trkpt>
      <trkpt lat="49.27883" lon="1.0972">
        <ele>76.8</ele>
        <time>2019-11-11T09:40:37Z</time>
      </trkpt>
      <trkpt lat="49.27883" lon="1.09722">
        <ele>76.8</ele>
        <time>2019-11-11T09:40:38Z</time>
      </trkpt>
      <trkpt lat="49.27883" lon="1.09726">
        <ele>77.7</ele>
        <time>2019-11-11T09:40:39Z</time>
      </trkpt>
      <trkpt lat="49.27883" lon="1.09729">
        <ele>77.7</ele>
        <time>2019-11-11T09:40:40Z</time>
      </trkpt>
      <trkpt lat="49.27883" lon="1.09732">
        <ele>77.7</ele>
        <time>2019-11-11T09:40:41Z</time>
      </trkpt>
      <trkpt lat="49.27883" lon="1.09736">
        <ele>77.7</ele>
        <time>2019-11-11T09:40:42Z</time>
      </trkpt>
      <trkpt lat="49.27883" lon="1.09739">
        <ele>77.7</ele>
        <time>2019-11-11T09:40:43Z</time>
      </trkpt>
      <trkpt lat="49.27883" lon="1.09741">
        <ele>77.7</ele>
        <time>2019-11-11T09:40:44Z</time>
      </trkpt>
      <trkpt lat="49.27883" lon="1.09744">
        <ele>77.7</ele>
        <time>2019-11-11T09:40:45Z</time>
      </trkpt>
      <trkpt lat="49.27883" lon="1.09747">
        <ele>77.7</ele>
        <time>2019-11-11T09:40:46Z</time>
      </trkpt>
      <trkpt lat="49.27883" lon="1.0975">
        <ele>78.8</ele>
        <time>2019-11-11T09:40:47Z</time>
      </trkpt>
      <trkpt lat="49.27885" lon="1.09752">
        <ele>78.8</ele>
        <time>2019-11-11T09:40:48Z</time>
      </trkpt>
      <trkpt lat="49.27886" lon="1.09754">
        <ele>78.8</ele>
        <time>2019-11-11T09:40:49Z</time>
      </trkpt>
      <trkpt lat="49.27887" lon="1.09756">
        <ele>78.8</ele>
        <time>2019-11-11T09:40:50Z</time>
      </trkpt>
      <trkpt lat="49.27888" lon="1.09757">
        <ele>78.8</ele>
        <time>2019-11-11T09:40:51Z</time>
      </trkpt>
      <trkpt lat="49.27889" lon="1.09759">
        <ele>78.8</ele>
        <time>2019-11-11T09:40:52Z</time>
      </trkpt>
      <trkpt lat="49.27891" lon="1.0976">
        <ele>78.8</ele>
        <time>2019-11-11T09:40:53Z</time>
      </trkpt>
      <trkpt lat="49.27892" lon="1.09762">
        <ele>78.8</ele>
        <time>2019-11-11T09:40:54Z</time>
      </trkpt>
      <trkpt lat="49.27893" lon="1.09762">
        <ele>78.8</ele>
        <time>2019-11-11T09:40:55Z</time>
      </trkpt>
      <trkpt lat="49.27894" lon="1.09762">
        <ele>78.8</ele>
        <time>2019-11-11T09:40:56Z</time>
      </trkpt>
      <trkpt lat="49.27895" lon="1.09761">
        <ele>78.8</ele>
        <time>2019-11-11T09:40:57Z</time>
      </trkpt>
      <trkpt lat="49.27895" lon="1.09761">
        <ele>78.8</ele>
        <time>2019-11-11T09:40:58Z</time>
      </trkpt>
      <trkpt lat="49.27895" lon="1.09761">
        <ele>78.8</ele>
        <time>2019-11-11T09:40:59Z</time>
      </trkpt>
      <trkpt lat="49.27895" lon="1.09762">
        <ele>78.8</ele>
        <time>2019-11-11T09:41:00Z</time>
      </trkpt>
      <trkpt lat="49.27899" lon="1.09755">
        <ele>78.8</ele>
        <time>2019-11-11T09:46:57Z</time>
      </trkpt>
      <trkpt lat="49.27901" lon="1.09753">
        <ele>77.7</ele>
        <time>2019-11-11T09:46:58Z</time>
      </trkpt>
      <trkpt lat="49.27902" lon="1.0975">
        <ele>77.7</ele>
        <time>2019-11-11T09:46:59Z</time>
      </trkpt>
      <trkpt lat="49.27904" lon="1.09748">
        <ele>77.7</ele>
        <time>2019-11-11T09:47:00Z</time>
      </trkpt>
      <trkpt lat="49.27906" lon="1.09745">
        <ele>77.7</ele>
        <time>2019-11-11T09:47:01Z</time>
      </trkpt>
      <trkpt lat="49.27908" lon="1.09742">
        <ele>77.7</ele>
        <time>2019-11-11T09:47:02Z</time>
      </trkpt>
      <trkpt lat="49.2791" lon="1.09739">
        <ele>76.8</ele>
        <time>2019-11-11T09:47:03Z</time>
      </trkpt>
      <trkpt lat="49.27913" lon="1.09735">
        <ele>76.8</ele>
        <time>2019-11-11T09:47:04Z</time>
      </trkpt>
      <trkpt lat="49.27914" lon="1.09731">
        <ele>76.8</ele>
        <time>2019-11-11T09:47:05Z</time>
      </trkpt>
      <trkpt lat="49.27916" lon="1.09729">
        <ele>76.8</ele>
        <time>2019-11-11T09:47:06Z</time>
      </trkpt>
      <trkpt lat="49.27918" lon="1.09726">
        <ele>75.7</ele>
        <time>2019-11-11T09:47:07Z</time>
      </trkpt>
      <trkpt lat="49.2792" lon="1.09724">
        <ele>75.7</ele>
        <time>2019-11-11T09:47:08Z</time>
      </trkpt>
      <trkpt lat="49.27922" lon="1.09721">
        <ele>75.7</ele>
        <time>2019-11-11T09:47:09Z</time>
      </trkpt>
      <trkpt lat="49.27925" lon="1.09718">
        <ele>75.7</ele>
        <time>2019-11-11T09:47:10Z</time>
      </trkpt>
      <trkpt lat="49.27927" lon="1.09714">
        <ele>75.7</ele>
        <time>2019-11-11T09:47:11Z</time>
      </trkpt>
      <trkpt lat="49.2793" lon="1.0971">
        <ele>75.7</ele>
        <time>2019-11-11T09:47:12Z</time>
      </trkpt>
      <trkpt lat="49.27933" lon="1.09705">
        <ele>75.7</ele>
        <time>2019-11-11T09:47:13Z</time>
      </trkpt>
      <trkpt lat="49.27936" lon="1.09701">
        <ele>75.7</ele>
        <time>2019-11-11T09:47:14Z</time>
      </trkpt>
      <trkpt lat="49.27938" lon="1.09696">
        <ele>72.7</ele>
        <time>2019-11-11T09:47:15Z</time>
      </trkpt>
      <trkpt lat="49.27941" lon="1.09693">
        <ele>72.7</ele>
        <time>2019-11-11T09:47:16Z</time>
      </trkpt>
      <trkpt lat="49.27945" lon="1.09688">
        <ele>72.7</ele>
        <time>2019-11-11T09:47:17Z</time>
      </trkpt>
      <trkpt lat="49.27948" lon="1.09682">
        <ele>72.7</ele>
        <time>2019-11-11T09:47:18Z</time>
      </trkpt>
      <trkpt lat="49.27951" lon="1.09677">
        <ele>71.8</ele>
        <time>2019-11-11T09:47:19Z</time>
      </trkpt>
      <trkpt lat="49.27955" lon="1.09671">
        <ele>71.8</ele>
        <time>2019-11-11T09:47:20Z</time>
      </trkpt>
      <trkpt lat="49.27958" lon="1.09665">
        <ele>70.7</ele>
        <time>2019-11-11T09:47:21Z</time>
      </trkpt>
      <trkpt lat="49.27963" lon="1.09658">
        <ele>70.7</ele>
        <time>2019-11-11T09:47:22Z</time>
      </trkpt>
      <trkpt lat="49.27967" lon="1.09653">
        <ele>70.7</ele>
        <time>2019-11-11T09:47:23Z</time>
      </trkpt>
      <trkpt lat="49.27971" lon="1.09647">
        <ele>70.7</ele>
        <time>2019-11-11T09:47:24Z</time>
      </trkpt>
      <trkpt lat="49.27975" lon="1.09641">
        <ele>69.8</ele>
        <time>2019-11-11T09:47:25Z</time>
      </trkpt>
      <trkpt lat="49.2798" lon="1.09634">
        <ele>69.8</ele>
        <time>2019-11-11T09:47:26Z</time>
      </trkpt>
      <trkpt lat="49.27984" lon="1.09628">
        <ele>69.8</ele>
        <time>2019-11-11T09:47:27Z</time>
      </trkpt>
      <trkpt lat="49.27987" lon="1.09622">
        <ele>69.8</ele>
        <time>2019-11-11T09:47:28Z</time>
      </trkpt>
      <trkpt lat="49.27991" lon="1.09615">
        <ele>69.8</ele>
        <time>2019-11-11T09:47:29Z</time>
      </trkpt>
      <trkpt lat="49.27996" lon="1.09609">
        <ele>69.8</ele>
        <time>2019-11-11T09:47:30Z</time>
      </trkpt>
      <trkpt lat="49.28" lon="1.09603">
        <ele>69.8</ele>
        <time>2019-11-11T09:47:31Z</time>
      </trkpt>
      <trkpt lat="49.28004" lon="1.09596">
        <ele>69.8</ele>
        <time>2019-11-11T09:47:32Z</time>
      </trkpt>
      <trkpt lat="49.28008" lon="1.0959">
        <ele>66.8</ele>
        <time>2019-11-11T09:47:33Z</time>
      </trkpt>
      <trkpt lat="49.28012" lon="1.09584">
        <ele>66.8</ele>
        <time>2019-11-11T09:47:34Z</time>
      </trkpt>
      <trkpt lat="49.28016" lon="1.09578">
        <ele>65.7</ele>
        <time>2019-11-11T09:47:35Z</time>
      </trkpt>
      <trkpt lat="49.2802" lon="1.09572">
        <ele>65.7</ele>
        <time>2019-11-11T09:47:36Z</time>
      </trkpt>
      <trkpt lat="49.28023" lon="1.09566">
        <ele>65.7</ele>
        <time>2019-11-11T09:47:37Z</time>
      </trkpt>
      <trkpt lat="49.28027" lon="1.09561">
        <ele>65.7</ele>
        <time>2019-11-11T09:47:38Z</time>
      </trkpt>
      <trkpt lat="49.2803" lon="1.09556">
        <ele>64.8</ele>
        <time>2019-11-11T09:47:39Z</time>
      </trkpt>
      <trkpt lat="49.28033" lon="1.09551">
        <ele>64.8</ele>
        <time>2019-11-11T09:47:40Z</time>
      </trkpt>
      <trkpt lat="49.28035" lon="1.09547">
        <ele>64.8</ele>
        <time>2019-11-11T09:47:41Z</time>
      </trkpt>
      <trkpt lat="49.28037" lon="1.09544">
        <ele>64.8</ele>
        <time>2019-11-11T09:47:42Z</time>
      </trkpt>
      <trkpt lat="49.28038" lon="1.09542">
        <ele>62.8</ele>
        <time>2019-11-11T09:47:43Z</time>
      </trkpt>
      <trkpt lat="49.2804" lon="1.0954">
        <ele>62.8</ele>
        <time>2019-11-11T09:47:44Z</time>
      </trkpt>
      <trkpt lat="49.28041" lon="1.09538">
        <ele>62.8</ele>
        <time>2019-11-11T09:47:45Z</time>
      </trkpt>
      <trkpt lat="49.28042" lon="1.09536">
        <ele>62.8</ele>
        <time>2019-11-11T09:47:46Z</time>
      </trkpt>
      <trkpt lat="49.28043" lon="1.09535">
        <ele>61.7</ele>
        <time>2019-11-11T09:47:47Z</time>
      </trkpt>
      <trkpt lat="49.28045" lon="1.09533">
        <ele>61.7</ele>
        <time>2019-11-11T09:47:48Z</time>
      </trkpt>
      <trkpt lat="49.28045" lon="1.09531">
        <ele>61.7</ele>
        <time>2019-11-11T09:47:49Z</time>
      </trkpt>
      <trkpt lat="49.28046" lon="1.09529">
        <ele>61.7</ele>
        <time>2019-11-11T09:47:50Z</time>
      </trkpt>
      <trkpt lat="49.28047" lon="1.09528">
        <ele>61.7</ele>
        <time>2019-11-11T09:47:51Z</time>
      </trkpt>
      <trkpt lat="49.28047" lon="1.09526">
        <ele>61.7</ele>
        <time>2019-11-11T09:47:52Z</time>
      </trkpt>
      <trkpt lat="49.28047" lon="1.09525">
        <ele>61.7</ele>
        <time>2019-11-11T09:47:53Z</time>
      </trkpt>
      <trkpt lat="49.28047" lon="1.09524">
        <ele>61.7</ele>
        <time>2019-11-11T09:47:54Z</time>
      </trkpt>
      <trkpt lat="49.28047" lon="1.09523">
        <ele>61.7</ele>
        <time>2019-11-11T09:47:55Z</time>
      </trkpt>
      <trkpt lat="49.28047" lon="1.09523">
        <ele>61.7</ele>
        <time>2019-11-11T09:47:56Z</time>
      </trkpt>
      <trkpt lat="49.28046" lon="1.09514">
        <ele>60.8</ele>
        <time>2019-11-11T09:48:09Z</time>
      </trkpt>
      <trkpt lat="49.28044" lon="1.09511">
        <ele>60.8</ele>
        <time>2019-11-11T09:48:10Z</time>
      </trkpt>
      <trkpt lat="49.28043" lon="1.09508">
        <ele>60.8</ele>
        <time>2019-11-11T09:48:11Z</time>
      </trkpt>
      <trkpt lat="49.28041" lon="1.09505">
        <ele>60.8</ele>
        <time>2019-11-11T09:48:12Z</time>
      </trkpt>
      <trkpt lat="49.2804" lon="1.09501">
        <ele>60.8</ele>
        <time>2019-11-11T09:48:13Z</time>
      </trkpt>
      <trkpt lat="49.28038" lon="1.09498">
        <ele>60.8</ele>
        <time>2019-11-11T09:48:14Z</time>
      </trkpt>
      <trkpt lat="49.28038" lon="1.09497">
        <ele>60.8</ele>
        <time>2019-11-11T09:48:15Z</time>
      </trkpt>
      <trkpt lat="49.28037" lon="1.09496">
        <ele>60.8</ele>
        <time>2019-11-11T09:48:16Z</time>
      </trkpt>
      <trkpt lat="49.28037" lon="1.09496">
        <ele>60.8</ele>
        <time>2019-11-11T09:48:17Z</time>
      </trkpt>
      <trkpt lat="49.28041" lon="1.09501">
        <ele>60.8</ele>
        <time>2019-11-11T09:48:27Z</time>
      </trkpt>
      <trkpt lat="49.28042" lon="1.09504">
        <ele>60.8</ele>
        <time>2019-11-11T09:48:28Z</time>
      </trkpt>
      <trkpt lat="49.28043" lon="1.09507">
        <ele>60.8</ele>
        <time>2019-11-11T09:48:29Z</time>
      </trkpt>
      <trkpt lat="49.28045" lon="1.0951">
        <ele>60.8</ele>
        <time>2019-11-11T09:48:30Z</time>
      </trkpt>
      <trkpt lat="49.28046" lon="1.09513">
        <ele>60.8</ele>
        <time>2019-11-11T09:48:31Z</time>
      </trkpt>
      <trkpt lat="49.28048" lon="1.09515">
        <ele>60.8</ele>
        <time>2019-11-11T09:48:32Z</time>
      </trkpt>
      <trkpt lat="49.28049" lon="1.09517">
        <ele>60.8</ele>
        <time>2019-11-11T09:48:33Z</time>
      </trkpt>
      <trkpt lat="49.2805" lon="1.09519">
        <ele>60.8</ele>
        <time>2019-11-11T09:48:34Z</time>
      </trkpt>
      <trkpt lat="49.2805" lon="1.09521">
        <ele>60.8</ele>
        <time>2019-11-11T09:48:35Z</time>
      </trkpt>
      <trkpt lat="49.2805" lon="1.09523">
        <ele>60.8</ele>
        <time>2019-11-11T09:48:36Z</time>
      </trkpt>
      <trkpt lat="49.2805" lon="1.09526">
        <ele>60.8</ele>
        <time>2019-11-11T09:48:37Z</time>
      </trkpt>
      <trkpt lat="49.28049" lon="1.09529">
        <ele>60.8</ele>
        <time>2019-11-11T09:48:38Z</time>
      </trkpt>
      <trkpt lat="49.28048" lon="1.09532">
        <ele>60.8</ele>
        <time>2019-11-11T09:48:39Z</time>
      </trkpt>
      <trkpt lat="49.28047" lon="1.09535">
        <ele>60.8</ele>
        <time>2019-11-11T09:48:40Z</time>
      </trkpt>
      <trkpt lat="49.28046" lon="1.09537">
        <ele>60.8</ele>
        <time>2019-11-11T09:48:41Z</time>
      </trkpt>
      <trkpt lat="49.28044" lon="1.0954">
        <ele>60.8</ele>
        <time>2019-11-11T09:48:42Z</time>
      </trkpt>
      <trkpt lat="49.28043" lon="1.09542">
        <ele>60.8</ele>
        <time>2019-11-11T09:48:43Z</time>
      </trkpt>
      <trkpt lat="49.28042" lon="1.09544">
        <ele>60.8</ele>
        <time>2019-11-11T09:48:44Z</time>
      </trkpt>
      <trkpt lat="49.28041" lon="1.09547">
        <ele>60.8</ele>
        <time>2019-11-11T09:48:45Z</time>
      </trkpt>
      <trkpt lat="49.2804" lon="1.09548">
        <ele>60.8</ele>
        <time>2019-11-11T09:48:46Z</time>
      </trkpt>
      <trkpt lat="49.2804" lon="1.09551">
        <ele>60.8</ele>
        <time>2019-11-11T09:48:47Z</time>
      </trkpt>
      <trkpt lat="49.2804" lon="1.09552">
        <ele>60.8</ele>
        <time>2019-11-11T09:48:48Z</time>
      </trkpt>
      <trkpt lat="49.2804" lon="1.09555">
        <ele>61.7</ele>
        <time>2019-11-11T09:48:49Z</time>
      </trkpt>
      <trkpt lat="49.2804" lon="1.09557">
        <ele>61.7</ele>
        <time>2019-11-11T09:48:50Z</time>
      </trkpt>
      <trkpt lat="49.2804" lon="1.09559">
        <ele>61.7</ele>
        <time>2019-11-11T09:48:51Z</time>
      </trkpt>
      <trkpt lat="49.28041" lon="1.0956">
        <ele>61.7</ele>
        <time>2019-11-11T09:48:52Z</time>
      </trkpt>
      <trkpt lat="49.28042" lon="1.09562">
        <ele>61.7</ele>
        <time>2019-11-11T09:48:53Z</time>
      </trkpt>
      <trkpt lat="49.28043" lon="1.09563">
        <ele>61.7</ele>
        <time>2019-11-11T09:48:54Z</time>
      </trkpt>
      <trkpt lat="49.28045" lon="1.09566">
        <ele>61.7</ele>
        <time>2019-11-11T09:48:55Z</time>
      </trkpt>
      <trkpt lat="49.28047" lon="1.09569">
        <ele>61.7</ele>
        <time>2019-11-11T09:48:56Z</time>
      </trkpt>
      <trkpt lat="49.2805" lon="1.09572">
        <ele>61.7</ele>
        <time>2019-11-11T09:48:57Z</time>
      </trkpt>
      <trkpt lat="49.28052" lon="1.09575">
        <ele>61.7</ele>
        <time>2019-11-11T09:48:58Z</time>
      </trkpt>
      <trkpt lat="49.28054" lon="1.09579">
        <ele>61.7</ele>
        <time>2019-11-11T09:48:59Z</time>
      </trkpt>
      <trkpt lat="49.28056" lon="1.09582">
        <ele>61.7</ele>
        <time>2019-11-11T09:49:00Z</time>
      </trkpt>
      <trkpt lat="49.28058" lon="1.09585">
        <ele>61.7</ele>
        <time>2019-11-11T09:49:01Z</time>
      </trkpt>
      <trkpt lat="49.2806" lon="1.09588">
        <ele>61.7</ele>
        <time>2019-11-11T09:49:02Z</time>
      </trkpt>
      <trkpt lat="49.28063" lon="1.09592">
        <ele>61.7</ele>
        <time>2019-11-11T09:49:03Z</time>
      </trkpt>
      <trkpt lat="49.28064" lon="1.09595">
        <ele>61.7</ele>
        <time>2019-11-11T09:49:04Z</time>
      </trkpt>
      <trkpt lat="49.28067" lon="1.09599">
        <ele>61.7</ele>
        <time>2019-11-11T09:49:05Z</time>
      </trkpt>
      <trkpt lat="49.2807" lon="1.09602">
        <ele>61.7</ele>
        <time>2019-11-11T09:49:06Z</time>
      </trkpt>
      <trkpt lat="49.28073" lon="1.09606">
        <ele>61.7</ele>
        <time>2019-11-11T09:49:07Z</time>
      </trkpt>
      <trkpt lat="49.28075" lon="1.0961">
        <ele>61.7</ele>
        <time>2019-11-11T09:49:08Z</time>
      </trkpt>
      <trkpt lat="49.28078" lon="1.09613">
        <ele>61.7</ele>
        <time>2019-11-11T09:49:09Z</time>
      </trkpt>
      <trkpt lat="49.2808" lon="1.09617">
        <ele>61.7</ele>
        <time>2019-11-11T09:49:10Z</time>
      </trkpt>
      <trkpt lat="49.28082" lon="1.0962">
        <ele>61.7</ele>
        <time>2019-11-11T09:49:11Z</time>
      </trkpt>
      <trkpt lat="49.28084" lon="1.09624">
        <ele>61.7</ele>
        <time>2019-11-11T09:49:12Z</time>
      </trkpt>
      <trkpt lat="49.28087" lon="1.09628">
        <ele>61.7</ele>
        <time>2019-11-11T09:49:13Z</time>
      </trkpt>
      <trkpt lat="49.2809" lon="1.09631">
        <ele>61.7</ele>
        <time>2019-11-11T09:49:14Z</time>
      </trkpt>
      <trkpt lat="49.28093" lon="1.09635">
        <ele>61.7</ele>
        <time>2019-11-11T09:49:15Z</time>
      </trkpt>
      <trkpt lat="49.28096" lon="1.09638">
        <ele>61.7</ele>
        <time>2019-11-11T09:49:16Z</time>
      </trkpt>
      <trkpt lat="49.28098" lon="1.09643">
        <ele>61.7</ele>
        <time>2019-11-11T09:49:17Z</time>
      </trkpt>
      <trkpt lat="49.28102" lon="1.09647">
        <ele>61.7</ele>
        <time>2019-11-11T09:49:18Z</time>
      </trkpt>
      <trkpt lat="49.28105" lon="1.0965">
        <ele>61.7</ele>
        <time>2019-11-11T09:49:19Z</time>
      </trkpt>
      <trkpt lat="49.28108" lon="1.09655">
        <ele>61.7</ele>
        <time>2019-11-11T09:49:20Z</time>
      </trkpt>
      <trkpt lat="49.28111" lon="1.09659">
        <ele>61.7</ele>
        <time>2019-11-11T09:49:21Z</time>
      </trkpt>
      <trkpt lat="49.28114" lon="1.09663">
        <ele>61.7</ele>
        <time>2019-11-11T09:49:22Z</time>
      </trkpt>
      <trkpt lat="49.28118" lon="1.09667">
        <ele>61.7</ele>
        <time>2019-11-11T09:49:23Z</time>
      </trkpt>
      <trkpt lat="49.28122" lon="1.09672">
        <ele>61.7</ele>
        <time>2019-11-11T09:49:24Z</time>
      </trkpt>
      <trkpt lat="49.28125" lon="1.09676">
        <ele>61.7</ele>
        <time>2019-11-11T09:49:25Z</time>
      </trkpt>
      <trkpt lat="49.28128" lon="1.09681">
        <ele>61.7</ele>
        <time>2019-11-11T09:49:26Z</time>
      </trkpt>
      <trkpt lat="49.28131" lon="1.09686">
        <ele>61.7</ele>
        <time>2019-11-11T09:49:27Z</time>
      </trkpt>
      <trkpt lat="49.28134" lon="1.0969">
        <ele>61.7</ele>
        <time>2019-11-11T09:49:28Z</time>
      </trkpt>
      <trkpt lat="49.28137" lon="1.09695">
        <ele>61.7</ele>
        <time>2019-11-11T09:49:29Z</time>
      </trkpt>
      <trkpt lat="49.2814" lon="1.09699">
        <ele>61.7</ele>
        <time>2019-11-11T09:49:30Z</time>
      </trkpt>
      <trkpt lat="49.28143" lon="1.09703">
        <ele>61.7</ele>
        <time>2019-11-11T09:49:31Z</time>
      </trkpt>
      <trkpt lat="49.28146" lon="1.09708">
        <ele>61.7</ele>
        <time>2019-11-11T09:49:32Z</time>
      </trkpt>
      <trkpt lat="49.28149" lon="1.09712">
        <ele>60.8</ele>
        <time>2019-11-11T09:49:33Z</time>
      </trkpt>
      <trkpt lat="49.28152" lon="1.09716">
        <ele>60.8</ele>
        <time>2019-11-11T09:49:34Z</time>
      </trkpt>
      <trkpt lat="49.28154" lon="1.09722">
        <ele>60.8</ele>
        <time>2019-11-11T09:49:35Z</time>
      </trkpt>
      <trkpt lat="49.28155" lon="1.09727">
        <ele>60.8</ele>
        <time>2019-11-11T09:49:36Z</time>
      </trkpt>
      <trkpt lat="49.28155" lon="1.09733">
        <ele>60.8</ele>
        <time>2019-11-11T09:49:37Z</time>
      </trkpt>
      <trkpt lat="49.28156" lon="1.09739">
        <ele>60.8</ele>
        <time>2019-11-11T09:49:38Z</time>
      </trkpt>
      <trkpt lat="49.28157" lon="1.09746">
        <ele>60.8</ele>
        <time>2019-11-11T09:49:39Z</time>
      </trkpt>
      <trkpt lat="49.28158" lon="1.09751">
        <ele>60.8</ele>
        <time>2019-11-11T09:49:40Z</time>
      </trkpt>
      <trkpt lat="49.28159" lon="1.09757">
        <ele>60.8</ele>
        <time>2019-11-11T09:49:41Z</time>
      </trkpt>
      <trkpt lat="49.2816" lon="1.09763">
        <ele>60.8</ele>
        <time>2019-11-11T09:49:42Z</time>
      </trkpt>
      <trkpt lat="49.28161" lon="1.09768">
        <ele>60.8</ele>
        <time>2019-11-11T09:49:43Z</time>
      </trkpt>
      <trkpt lat="49.28162" lon="1.09774">
        <ele>60.8</ele>
        <time>2019-11-11T09:49:44Z</time>
      </trkpt>
      <trkpt lat="49.28163" lon="1.09781">
        <ele>60.8</ele>
        <time>2019-11-11T09:49:45Z</time>
      </trkpt>
      <trkpt lat="49.28163" lon="1.09786">
        <ele>60.8</ele>
        <time>2019-11-11T09:49:46Z</time>
      </trkpt>
      <trkpt lat="49.28165" lon="1.09792">
        <ele>60.8</ele>
        <time>2019-11-11T09:49:47Z</time>
      </trkpt>
      <trkpt lat="49.28166" lon="1.09798">
        <ele>60.8</ele>
        <time>2019-11-11T09:49:48Z</time>
      </trkpt>
      <trkpt lat="49.28167" lon="1.09804">
        <ele>60.8</ele>
        <time>2019-11-11T09:49:49Z</time>
      </trkpt>
      <trkpt lat="49.28168" lon="1.0981">
        <ele>60.8</ele>
        <time>2019-11-11T09:49:50Z</time>
      </trkpt>
      <trkpt lat="49.28169" lon="1.09816">
        <ele>60.8</ele>
        <time>2019-11-11T09:49:51Z</time>
      </trkpt>
      <trkpt lat="49.2817" lon="1.09821">
        <ele>60.8</ele>
        <time>2019-11-11T09:49:52Z</time>
      </trkpt>
      <trkpt lat="49.28171" lon="1.09827">
        <ele>60.8</ele>
        <time>2019-11-11T09:49:53Z</time>
      </trkpt>
      <trkpt lat="49.28172" lon="1.09833">
        <ele>60.8</ele>
        <time>2019-11-11T09:49:54Z</time>
      </trkpt>
      <trkpt lat="49.28173" lon="1.09838">
        <ele>60.8</ele>
        <time>2019-11-11T09:49:55Z</time>
      </trkpt>
      <trkpt lat="49.28175" lon="1.09844">
        <ele>60.8</ele>
        <time>2019-11-11T09:49:56Z</time>
      </trkpt>
      <trkpt lat="49.28176" lon="1.09849">
        <ele>60.8</ele>
        <time>2019-11-11T09:49:57Z</time>
      </trkpt>
      <trkpt lat="49.28177" lon="1.09855">
        <ele>60.8</ele>
        <time>2019-11-11T09:49:58Z</time>
      </trkpt>
      <trkpt lat="49.28178" lon="1.09861">
        <ele>60.8</ele>
        <time>2019-11-11T09:49:59Z</time>
      </trkpt>
      <trkpt lat="49.28179" lon="1.09866">
        <ele>60.8</ele>
        <time>2019-11-11T09:50:00Z</time>
      </trkpt>
      <trkpt lat="49.28181" lon="1.0987">
        <ele>60.8</ele>
        <time>2019-11-11T09:50:01Z</time>
      </trkpt>
      <trkpt lat="49.28183" lon="1.09875">
        <ele>60.8</ele>
        <time>2019-11-11T09:50:02Z</time>
      </trkpt>
      <trkpt lat="49.28185" lon="1.09881">
        <ele>61.7</ele>
        <time>2019-11-11T09:50:03Z</time>
      </trkpt>
      <trkpt lat="49.28186" lon="1.09887">
        <ele>61.7</ele>
        <time>2019-11-11T09:50:04Z</time>
      </trkpt>
      <trkpt lat="49.28187" lon="1.09892">
        <ele>61.7</ele>
        <time>2019-11-11T09:50:05Z</time>
      </trkpt>
      <trkpt lat="49.28189" lon="1.09898">
        <ele>61.7</ele>
        <time>2019-11-11T09:50:06Z</time>
      </trkpt>
      <trkpt lat="49.28191" lon="1.09905">
        <ele>61.7</ele>
        <time>2019-11-11T09:50:07Z</time>
      </trkpt>
      <trkpt lat="49.28192" lon="1.09911">
        <ele>61.7</ele>
        <time>2019-11-11T09:50:08Z</time>
      </trkpt>
      <trkpt lat="49.28193" lon="1.09916">
        <ele>61.7</ele>
        <time>2019-11-11T09:50:09Z</time>
      </trkpt>
      <trkpt lat="49.28194" lon="1.09922">
        <ele>61.7</ele>
        <time>2019-11-11T09:50:10Z</time>
      </trkpt>
      <trkpt lat="49.28195" lon="1.09927">
        <ele>61.7</ele>
        <time>2019-11-11T09:50:11Z</time>
      </trkpt>
      <trkpt lat="49.28196" lon="1.09933">
        <ele>61.7</ele>
        <time>2019-11-11T09:50:12Z</time>
      </trkpt>
      <trkpt lat="49.28198" lon="1.0994">
        <ele>61.7</ele>
        <time>2019-11-11T09:50:13Z</time>
      </trkpt>
      <trkpt lat="49.28199" lon="1.09945">
        <ele>61.7</ele>
        <time>2019-11-11T09:50:14Z</time>
      </trkpt>
      <trkpt lat="49.282" lon="1.0995">
        <ele>61.7</ele>
        <time>2019-11-11T09:50:15Z</time>
      </trkpt>
      <trkpt lat="49.28201" lon="1.09956">
        <ele>61.7</ele>
        <time>2019-11-11T09:50:16Z</time>
      </trkpt>
      <trkpt lat="49.28202" lon="1.09962">
        <ele>61.7</ele>
        <time>2019-11-11T09:50:17Z</time>
      </trkpt>
      <trkpt lat="49.28203" lon="1.09968">
        <ele>61.7</ele>
        <time>2019-11-11T09:50:18Z</time>
      </trkpt>
      <trkpt lat="49.28204" lon="1.09974">
        <ele>61.7</ele>
        <time>2019-11-11T09:50:19Z</time>
      </trkpt>
      <trkpt lat="49.28205" lon="1.0998">
        <ele>61.7</ele>
        <time>2019-11-11T09:50:20Z</time>
      </trkpt>
      <trkpt lat="49.28206" lon="1.09985">
        <ele>61.7</ele>
        <time>2019-11-11T09:50:21Z</time>
      </trkpt>
      <trkpt lat="49.28208" lon="1.0999">
        <ele>61.7</ele>
        <time>2019-11-11T09:50:22Z</time>
      </trkpt>
      <trkpt lat="49.2821" lon="1.09995">
        <ele>62.8</ele>
        <time>2019-11-11T09:50:23Z</time>
      </trkpt>
      <trkpt lat="49.28211" lon="1.09999">
        <ele>62.8</ele>
        <time>2019-11-11T09:50:24Z</time>
      </trkpt>
      <trkpt lat="49.28213" lon="1.10004">
        <ele>62.8</ele>
        <time>2019-11-11T09:50:25Z</time>
      </trkpt>
      <trkpt lat="49.28215" lon="1.1001">
        <ele>62.8</ele>
        <time>2019-11-11T09:50:26Z</time>
      </trkpt>
      <trkpt lat="49.28217" lon="1.10016">
        <ele>62.8</ele>
        <time>2019-11-11T09:50:27Z</time>
      </trkpt>
      <trkpt lat="49.28219" lon="1.10022">
        <ele>62.8</ele>
        <time>2019-11-11T09:50:28Z</time>
      </trkpt>
      <trkpt lat="49.28219" lon="1.10027">
        <ele>62.8</ele>
        <time>2019-11-11T09:50:29Z</time>
      </trkpt>
      <trkpt lat="49.28218" lon="1.1003">
        <ele>62.8</ele>
        <time>2019-11-11T09:50:30Z</time>
      </trkpt>
      <trkpt lat="49.28217" lon="1.10034">
        <ele>62.8</ele>
        <time>2019-11-11T09:50:31Z</time>
      </trkpt>
      <trkpt lat="49.28215" lon="1.10039">
        <ele>62.8</ele>
        <time>2019-11-11T09:50:32Z</time>
      </trkpt>
      <trkpt lat="49.28214" lon="1.10044">
        <ele>62.8</ele>
        <time>2019-11-11T09:50:33Z</time>
      </trkpt>
      <trkpt lat="49.28213" lon="1.10049">
        <ele>62.8</ele>
        <time>2019-11-11T09:50:34Z</time>
      </trkpt>
      <trkpt lat="49.28212" lon="1.10054">
        <ele>62.8</ele>
        <time>2019-11-11T09:50:35Z</time>
      </trkpt>
      <trkpt lat="49.2821" lon="1.10057">
        <ele>62.8</ele>
        <time>2019-11-11T09:50:36Z</time>
      </trkpt>
      <trkpt lat="49.28208" lon="1.1006">
        <ele>62.8</ele>
        <time>2019-11-11T09:50:37Z</time>
      </trkpt>
      <trkpt lat="49.28207" lon="1.10063">
        <ele>62.8</ele>
        <time>2019-11-11T09:50:38Z</time>
      </trkpt>
      <trkpt lat="49.28206" lon="1.10066">
        <ele>62.8</ele>
        <time>2019-11-11T09:50:39Z</time>
      </trkpt>
      <trkpt lat="49.28206" lon="1.10069">
        <ele>62.8</ele>
        <time>2019-11-11T09:50:40Z</time>
      </trkpt>
      <trkpt lat="49.28207" lon="1.10073">
        <ele>62.8</ele>
        <time>2019-11-11T09:50:41Z</time>
      </trkpt>
      <trkpt lat="49.28208" lon="1.10076">
        <ele>62.8</ele>
        <time>2019-11-11T09:50:42Z</time>
      </trkpt>
      <trkpt lat="49.28209" lon="1.10079">
        <ele>62.8</ele>
        <time>2019-11-11T09:50:43Z</time>
      </trkpt>
      <trkpt lat="49.2821" lon="1.10082">
        <ele>62.8</ele>
        <time>2019-11-11T09:50:44Z</time>
      </trkpt>
      <trkpt lat="49.28211" lon="1.10085">
        <ele>62.8</ele>
        <time>2019-11-11T09:50:45Z</time>
      </trkpt>
      <trkpt lat="49.28212" lon="1.10088">
        <ele>62.8</ele>
        <time>2019-11-11T09:50:46Z</time>
      </trkpt>
      <trkpt lat="49.28213" lon="1.10092">
        <ele>62.8</ele>
        <time>2019-11-11T09:50:47Z</time>
      </trkpt>
      <trkpt lat="49.28213" lon="1.10096">
        <ele>62.8</ele>
        <time>2019-11-11T09:50:48Z</time>
      </trkpt>
      <trkpt lat="49.28214" lon="1.10099">
        <ele>62.8</ele>
        <time>2019-11-11T09:50:49Z</time>
      </trkpt>
      <trkpt lat="49.28216" lon="1.10101">
        <ele>62.8</ele>
        <time>2019-11-11T09:50:50Z</time>
      </trkpt>
      <trkpt lat="49.28217" lon="1.10101">
        <ele>62.8</ele>
        <time>2019-11-11T09:50:51Z</time>
      </trkpt>
      <trkpt lat="49.2822" lon="1.10102">
        <ele>62.8</ele>
        <time>2019-11-11T09:50:52Z</time>
      </trkpt>
      <trkpt lat="49.28222" lon="1.101">
        <ele>62.8</ele>
        <time>2019-11-11T09:50:53Z</time>
      </trkpt>
      <trkpt lat="49.28225" lon="1.10099">
        <ele>62.8</ele>
        <time>2019-11-11T09:50:54Z</time>
      </trkpt>
      <trkpt lat="49.28228" lon="1.101">
        <ele>62.8</ele>
        <time>2019-11-11T09:50:55Z</time>
      </trkpt>
      <trkpt lat="49.2823" lon="1.10101">
        <ele>62.8</ele>
        <time>2019-11-11T09:50:56Z</time>
      </trkpt>
      <trkpt lat="49.28232" lon="1.10105">
        <ele>62.8</ele>
        <time>2019-11-11T09:50:57Z</time>
      </trkpt>
      <trkpt lat="49.28232" lon="1.10108">
        <ele>62.8</ele>
        <time>2019-11-11T09:50:58Z</time>
      </trkpt>
      <trkpt lat="49.28234" lon="1.10111">
        <ele>61.7</ele>
        <time>2019-11-11T09:50:59Z</time>
      </trkpt>
      <trkpt lat="49.28236" lon="1.10112">
        <ele>61.7</ele>
        <time>2019-11-11T09:51:00Z</time>
      </trkpt>
      <trkpt lat="49.28238" lon="1.10115">
        <ele>61.7</ele>
        <time>2019-11-11T09:51:01Z</time>
      </trkpt>
      <trkpt lat="49.2824" lon="1.10117">
        <ele>61.7</ele>
        <time>2019-11-11T09:51:02Z</time>
      </trkpt>
      <trkpt lat="49.28243" lon="1.1012">
        <ele>61.7</ele>
        <time>2019-11-11T09:51:03Z</time>
      </trkpt>
      <trkpt lat="49.28246" lon="1.10122">
        <ele>61.7</ele>
        <time>2019-11-11T09:51:04Z</time>
      </trkpt>
      <trkpt lat="49.28249" lon="1.10122">
        <ele>61.7</ele>
        <time>2019-11-11T09:51:05Z</time>
      </trkpt>
      <trkpt lat="49.28252" lon="1.10122">
        <ele>61.7</ele>
        <time>2019-11-11T09:51:06Z</time>
      </trkpt>
      <trkpt lat="49.28255" lon="1.10123">
        <ele>61.7</ele>
        <time>2019-11-11T09:51:07Z</time>
      </trkpt>
      <trkpt lat="49.28257" lon="1.10127">
        <ele>61.7</ele>
        <time>2019-11-11T09:51:08Z</time>
      </trkpt>
      <trkpt lat="49.2826" lon="1.1013">
        <ele>60.8</ele>
        <time>2019-11-11T09:51:09Z</time>
      </trkpt>
      <trkpt lat="49.28263" lon="1.10132">
        <ele>60.8</ele>
        <time>2019-11-11T09:51:10Z</time>
      </trkpt>
      <trkpt lat="49.28265" lon="1.10132">
        <ele>60.8</ele>
        <time>2019-11-11T09:51:11Z</time>
      </trkpt>
      <trkpt lat="49.28268" lon="1.10133">
        <ele>60.8</ele>
        <time>2019-11-11T09:51:12Z</time>
      </trkpt>
      <trkpt lat="49.28271" lon="1.10133">
        <ele>60.8</ele>
        <time>2019-11-11T09:51:13Z</time>
      </trkpt>
      <trkpt lat="49.28274" lon="1.10134">
        <ele>60.8</ele>
        <time>2019-11-11T09:51:14Z</time>
      </trkpt>
      <trkpt lat="49.28276" lon="1.10137">
        <ele>59.7</ele>
        <time>2019-11-11T09:51:15Z</time>
      </trkpt>
      <trkpt lat="49.28278" lon="1.10139">
        <ele>59.7</ele>
        <time>2019-11-11T09:51:16Z</time>
      </trkpt>
      <trkpt lat="49.2828" lon="1.10142">
        <ele>59.7</ele>
        <time>2019-11-11T09:51:17Z</time>
      </trkpt>
      <trkpt lat="49.28282" lon="1.10143">
        <ele>59.7</ele>
        <time>2019-11-11T09:51:18Z</time>
      </trkpt>
      <trkpt lat="49.28285" lon="1.10142">
        <ele>59.7</ele>
        <time>2019-11-11T09:51:19Z</time>
      </trkpt>
      <trkpt lat="49.28288" lon="1.10141">
        <ele>59.7</ele>
        <time>2019-11-11T09:51:20Z</time>
      </trkpt>
      <trkpt lat="49.28291" lon="1.10142">
        <ele>59.7</ele>
        <time>2019-11-11T09:51:21Z</time>
      </trkpt>
      <trkpt lat="49.28294" lon="1.10144">
        <ele>59.7</ele>
        <time>2019-11-11T09:51:22Z</time>
      </trkpt>
      <trkpt lat="49.28295" lon="1.10147">
        <ele>59.7</ele>
        <time>2019-11-11T09:51:23Z</time>
      </trkpt>
      <trkpt lat="49.28296" lon="1.1015">
        <ele>59.7</ele>
        <time>2019-11-11T09:51:24Z</time>
      </trkpt>
      <trkpt lat="49.28297" lon="1.10151">
        <ele>59.7</ele>
        <time>2019-11-11T09:51:25Z</time>
      </trkpt>
      <trkpt lat="49.28299" lon="1.10152">
        <ele>59.7</ele>
        <time>2019-11-11T09:51:26Z</time>
      </trkpt>
      <trkpt lat="49.28301" lon="1.10155">
        <ele>59.7</ele>
        <time>2019-11-11T09:51:27Z</time>
      </trkpt>
      <trkpt lat="49.28302" lon="1.10159">
        <ele>59.7</ele>
        <time>2019-11-11T09:51:28Z</time>
      </trkpt>
      <trkpt lat="49.28303" lon="1.10163">
        <ele>59.7</ele>
        <time>2019-11-11T09:51:29Z</time>
      </trkpt>
      <trkpt lat="49.28303" lon="1.10167">
        <ele>59.7</ele>
        <time>2019-11-11T09:51:30Z</time>
      </trkpt>
      <trkpt lat="49.28304" lon="1.1017">
        <ele>59.7</ele>
        <time>2019-11-11T09:51:31Z</time>
      </trkpt>
      <trkpt lat="49.28306" lon="1.10173">
        <ele>59.7</ele>
        <time>2019-11-11T09:51:32Z</time>
      </trkpt>
      <trkpt lat="49.28309" lon="1.10174">
        <ele>59.7</ele>
        <time>2019-11-11T09:51:33Z</time>
      </trkpt>
      <trkpt lat="49.28312" lon="1.10176">
        <ele>59.7</ele>
        <time>2019-11-11T09:51:34Z</time>
      </trkpt>
      <trkpt lat="49.28314" lon="1.10176">
        <ele>59.7</ele>
        <time>2019-11-11T09:51:35Z</time>
      </trkpt>
      <trkpt lat="49.28317" lon="1.10176">
        <ele>59.7</ele>
        <time>2019-11-11T09:51:36Z</time>
      </trkpt>
      <trkpt lat="49.28321" lon="1.10177">
        <ele>59.7</ele>
        <time>2019-11-11T09:51:37Z</time>
      </trkpt>
      <trkpt lat="49.28323" lon="1.10179">
        <ele>59.7</ele>
        <time>2019-11-11T09:51:38Z</time>
      </trkpt>
      <trkpt lat="49.28325" lon="1.10183">
        <ele>59.7</ele>
        <time>2019-11-11T09:51:39Z</time>
      </trkpt>
      <trkpt lat="49.28328" lon="1.10186">
        <ele>59.7</ele>
        <time>2019-11-11T09:51:40Z</time>
      </trkpt>
      <trkpt lat="49.2833" lon="1.10188">
        <ele>59.7</ele>
        <time>2019-11-11T09:51:41Z</time>
      </trkpt>
      <trkpt lat="49.28333" lon="1.10191">
        <ele>59.7</ele>
        <time>2019-11-11T09:51:42Z</time>
      </trkpt>
      <trkpt lat="49.28335" lon="1.10195">
        <ele>59.7</ele>
        <time>2019-11-11T09:51:43Z</time>
      </trkpt>
      <trkpt lat="49.28337" lon="1.10199">
        <ele>59.7</ele>
        <time>2019-11-11T09:51:44Z</time>
      </trkpt>
      <trkpt lat="49.28338" lon="1.10205">
        <ele>59.7</ele>
        <time>2019-11-11T09:51:45Z</time>
      </trkpt>
      <trkpt lat="49.2834" lon="1.1021">
        <ele>59.7</ele>
        <time>2019-11-11T09:51:46Z</time>
      </trkpt>
      <trkpt lat="49.28342" lon="1.10214">
        <ele>59.7</ele>
        <time>2019-11-11T09:51:47Z</time>
      </trkpt>
      <trkpt lat="49.28344" lon="1.10216">
        <ele>59.7</ele>
        <time>2019-11-11T09:51:48Z</time>
      </trkpt>
      <trkpt lat="49.28347" lon="1.10219">
        <ele>59.7</ele>
        <time>2019-11-11T09:51:49Z</time>
      </trkpt>
      <trkpt lat="49.2835" lon="1.10221">
        <ele>59.7</ele>
        <time>2019-11-11T09:51:50Z</time>
      </trkpt>
      <trkpt lat="49.28353" lon="1.10225">
        <ele>59.7</ele>
        <time>2019-11-11T09:51:51Z</time>
      </trkpt>
      <trkpt lat="49.28354" lon="1.1023">
        <ele>59.7</ele>
        <time>2019-11-11T09:51:52Z</time>
      </trkpt>
      <trkpt lat="49.28355" lon="1.10235">
        <ele>59.7</ele>
        <time>2019-11-11T09:51:53Z</time>
      </trkpt>
      <trkpt lat="49.28356" lon="1.10238">
        <ele>59.7</ele>
        <time>2019-11-11T09:51:54Z</time>
      </trkpt>
      <trkpt lat="49.28357" lon="1.10242">
        <ele>59.7</ele>
        <time>2019-11-11T09:51:55Z</time>
      </trkpt>
      <trkpt lat="49.28358" lon="1.10246">
        <ele>59.7</ele>
        <time>2019-11-11T09:51:56Z</time>
      </trkpt>
      <trkpt lat="49.28359" lon="1.10248">
        <ele>59.7</ele>
        <time>2019-11-11T09:51:57Z</time>
      </trkpt>
      <trkpt lat="49.28361" lon="1.10249">
        <ele>59.7</ele>
        <time>2019-11-11T09:51:58Z</time>
      </trkpt>
      <trkpt lat="49.28364" lon="1.10249">
        <ele>59.7</ele>
        <time>2019-11-11T09:51:59Z</time>
      </trkpt>
      <trkpt lat="49.28367" lon="1.1025">
        <ele>59.7</ele>
        <time>2019-11-11T09:52:00Z</time>
      </trkpt>
      <trkpt lat="49.2837" lon="1.10251">
        <ele>59.7</ele>
        <time>2019-11-11T09:52:01Z</time>
      </trkpt>
      <trkpt lat="49.28374" lon="1.10254">
        <ele>59.7</ele>
        <time>2019-11-11T09:52:02Z</time>
      </trkpt>
      <trkpt lat="49.28376" lon="1.10258">
        <ele>59.7</ele>
        <time>2019-11-11T09:52:03Z</time>
      </trkpt>
      <trkpt lat="49.28378" lon="1.10262">
        <ele>59.7</ele>
        <time>2019-11-11T09:52:04Z</time>
      </trkpt>
      <trkpt lat="49.28379" lon="1.10267">
        <ele>59.7</ele>
        <time>2019-11-11T09:52:05Z</time>
      </trkpt>
      <trkpt lat="49.28381" lon="1.10271">
        <ele>59.7</ele>
        <time>2019-11-11T09:52:06Z</time>
      </trkpt>
      <trkpt lat="49.28383" lon="1.10275">
        <ele>59.7</ele>
        <time>2019-11-11T09:52:07Z</time>
      </trkpt>
      <trkpt lat="49.28384" lon="1.1028">
        <ele>59.7</ele>
        <time>2019-11-11T09:52:08Z</time>
      </trkpt>
      <trkpt lat="49.28386" lon="1.10284">
        <ele>59.7</ele>
        <time>2019-11-11T09:52:09Z</time>
      </trkpt>
      <trkpt lat="49.28387" lon="1.10288">
        <ele>59.7</ele>
        <time>2019-11-11T09:52:10Z</time>
      </trkpt>
      <trkpt lat="49.28388" lon="1.10291">
        <ele>59.7</ele>
        <time>2019-11-11T09:52:11Z</time>
      </trkpt>
      <trkpt lat="49.28388" lon="1.10295">
        <ele>59.7</ele>
        <time>2019-11-11T09:52:12Z</time>
      </trkpt>
      <trkpt lat="49.28386" lon="1.10298">
        <ele>59.7</ele>
        <time>2019-11-11T09:52:13Z</time>
      </trkpt>
      <trkpt lat="49.28385" lon="1.10301">
        <ele>59.7</ele>
        <time>2019-11-11T09:52:14Z</time>
      </trkpt>
      <trkpt lat="49.28384" lon="1.10304">
        <ele>59.7</ele>
        <time>2019-11-11T09:52:15Z</time>
      </trkpt>
      <trkpt lat="49.28385" lon="1.10307">
        <ele>59.7</ele>
        <time>2019-11-11T09:52:16Z</time>
      </trkpt>
      <trkpt lat="49.28386" lon="1.10312">
        <ele>59.7</ele>
        <time>2019-11-11T09:52:17Z</time>
      </trkpt>
      <trkpt lat="49.28388" lon="1.10316">
        <ele>59.7</ele>
        <time>2019-11-11T09:52:18Z</time>
      </trkpt>
      <trkpt lat="49.2839" lon="1.10321">
        <ele>59.7</ele>
        <time>2019-11-11T09:52:19Z</time>
      </trkpt>
      <trkpt lat="49.28392" lon="1.10326">
        <ele>59.7</ele>
        <time>2019-11-11T09:52:20Z</time>
      </trkpt>
      <trkpt lat="49.28394" lon="1.10331">
        <ele>59.7</ele>
        <time>2019-11-11T09:52:21Z</time>
      </trkpt>
      <trkpt lat="49.28396" lon="1.10335">
        <ele>59.7</ele>
        <time>2019-11-11T09:52:22Z</time>
      </trkpt>
      <trkpt lat="49.28399" lon="1.10337">
        <ele>59.7</ele>
        <time>2019-11-11T09:52:23Z</time>
      </trkpt>
      <trkpt lat="49.28402" lon="1.1034">
        <ele>59.7</ele>
        <time>2019-11-11T09:52:24Z</time>
      </trkpt>
      <trkpt lat="49.28404" lon="1.10344">
        <ele>59.7</ele>
        <time>2019-11-11T09:52:25Z</time>
      </trkpt>
      <trkpt lat="49.28405" lon="1.10348">
        <ele>59.7</ele>
        <time>2019-11-11T09:52:26Z</time>
      </trkpt>
      <trkpt lat="49.28406" lon="1.10353">
        <ele>59.7</ele>
        <time>2019-11-11T09:52:27Z</time>
      </trkpt>
      <trkpt lat="49.28407" lon="1.10357">
        <ele>59.7</ele>
        <time>2019-11-11T09:52:28Z</time>
      </trkpt>
      <trkpt lat="49.28409" lon="1.10359">
        <ele>58.7</ele>
        <time>2019-11-11T09:52:29Z</time>
      </trkpt>
      <trkpt lat="49.28411" lon="1.10361">
        <ele>58.7</ele>
        <time>2019-11-11T09:52:30Z</time>
      </trkpt>
      <trkpt lat="49.28412" lon="1.10362">
        <ele>58.7</ele>
        <time>2019-11-11T09:52:31Z</time>
      </trkpt>
      <trkpt lat="49.28413" lon="1.1036">
        <ele>58.7</ele>
        <time>2019-11-11T09:52:32Z</time>
      </trkpt>
      <trkpt lat="49.28414" lon="1.10356">
        <ele>58.7</ele>
        <time>2019-11-11T09:52:33Z</time>
      </trkpt>
      <trkpt lat="49.28415" lon="1.10351">
        <ele>58.7</ele>
        <time>2019-11-11T09:52:34Z</time>
      </trkpt>
      <trkpt lat="49.28417" lon="1.10347">
        <ele>58.7</ele>
        <time>2019-11-11T09:52:35Z</time>
      </trkpt>
      <trkpt lat="49.28419" lon="1.10345">
        <ele>58.7</ele>
        <time>2019-11-11T09:52:36Z</time>
      </trkpt>
      <trkpt lat="49.28421" lon="1.10345">
        <ele>58.7</ele>
        <time>2019-11-11T09:52:37Z</time>
      </trkpt>
      <trkpt lat="49.28422" lon="1.10346">
        <ele>58.7</ele>
        <time>2019-11-11T09:52:38Z</time>
      </trkpt>
      <trkpt lat="49.28421" lon="1.10349">
        <ele>58.7</ele>
        <time>2019-11-11T09:52:39Z</time>
      </trkpt>
      <trkpt lat="49.2842" lon="1.10352">
        <ele>58.7</ele>
        <time>2019-11-11T09:52:40Z</time>
      </trkpt>
      <trkpt lat="49.2842" lon="1.10356">
        <ele>58.7</ele>
        <time>2019-11-11T09:52:41Z</time>
      </trkpt>
      <trkpt lat="49.28421" lon="1.10361">
        <ele>58.7</ele>
        <time>2019-11-11T09:52:42Z</time>
      </trkpt>
      <trkpt lat="49.28421" lon="1.10366">
        <ele>58.7</ele>
        <time>2019-11-11T09:52:43Z</time>
      </trkpt>
      <trkpt lat="49.28422" lon="1.10371">
        <ele>58.7</ele>
        <time>2019-11-11T09:52:44Z</time>
      </trkpt>
      <trkpt lat="49.28424" lon="1.10374">
        <ele>58.7</ele>
        <time>2019-11-11T09:52:45Z</time>
      </trkpt>
      <trkpt lat="49.28426" lon="1.10377">
        <ele>58.7</ele>
        <time>2019-11-11T09:52:46Z</time>
      </trkpt>
      <trkpt lat="49.28428" lon="1.10381">
        <ele>58.7</ele>
        <time>2019-11-11T09:52:47Z</time>
      </trkpt>
      <trkpt lat="49.28429" lon="1.10386">
        <ele>58.7</ele>
        <time>2019-11-11T09:52:48Z</time>
      </trkpt>
      <trkpt lat="49.28428" lon="1.1039">
        <ele>58.7</ele>
        <time>2019-11-11T09:52:49Z</time>
      </trkpt>
      <trkpt lat="49.28427" lon="1.10393">
        <ele>58.7</ele>
        <time>2019-11-11T09:52:50Z</time>
      </trkpt>
      <trkpt lat="49.28425" lon="1.10396">
        <ele>58.7</ele>
        <time>2019-11-11T09:52:51Z</time>
      </trkpt>
      <trkpt lat="49.28423" lon="1.10399">
        <ele>58.7</ele>
        <time>2019-11-11T09:52:52Z</time>
      </trkpt>
      <trkpt lat="49.28423" lon="1.10401">
        <ele>58.7</ele>
        <time>2019-11-11T09:52:53Z</time>
      </trkpt>
      <trkpt lat="49.28423" lon="1.10404">
        <ele>58.7</ele>
        <time>2019-11-11T09:52:54Z</time>
      </trkpt>
      <trkpt lat="49.28424" lon="1.10406">
        <ele>58.7</ele>
        <time>2019-11-11T09:52:55Z</time>
      </trkpt>
      <trkpt lat="49.28425" lon="1.10408">
        <ele>58.7</ele>
        <time>2019-11-11T09:52:56Z</time>
      </trkpt>
      <trkpt lat="49.28427" lon="1.10409">
        <ele>58.7</ele>
        <time>2019-11-11T09:52:57Z</time>
      </trkpt>
      <trkpt lat="49.28429" lon="1.10408">
        <ele>58.7</ele>
        <time>2019-11-11T09:52:58Z</time>
      </trkpt>
      <trkpt lat="49.28431" lon="1.10406">
        <ele>58.7</ele>
        <time>2019-11-11T09:52:59Z</time>
      </trkpt>
      <trkpt lat="49.28434" lon="1.10404">
        <ele>58.7</ele>
        <time>2019-11-11T09:53:00Z</time>
      </trkpt>
      <trkpt lat="49.28437" lon="1.10403">
        <ele>58.7</ele>
        <time>2019-11-11T09:53:01Z</time>
      </trkpt>
      <trkpt lat="49.2844" lon="1.10401">
        <ele>58.7</ele>
        <time>2019-11-11T09:53:02Z</time>
      </trkpt>
      <trkpt lat="49.28444" lon="1.10401">
        <ele>58.7</ele>
        <time>2019-11-11T09:53:03Z</time>
      </trkpt>
      <trkpt lat="49.28447" lon="1.10402">
        <ele>58.7</ele>
        <time>2019-11-11T09:53:04Z</time>
      </trkpt>
      <trkpt lat="49.28449" lon="1.10405">
        <ele>58.7</ele>
        <time>2019-11-11T09:53:05Z</time>
      </trkpt>
      <trkpt lat="49.28449" lon="1.10409">
        <ele>58.7</ele>
        <time>2019-11-11T09:53:06Z</time>
      </trkpt>
      <trkpt lat="49.28449" lon="1.10413">
        <ele>58.7</ele>
        <time>2019-11-11T09:53:07Z</time>
      </trkpt>
      <trkpt lat="49.28448" lon="1.10418">
        <ele>58.7</ele>
        <time>2019-11-11T09:53:08Z</time>
      </trkpt>
      <trkpt lat="49.28447" lon="1.10422">
        <ele>58.7</ele>
        <time>2019-11-11T09:53:09Z</time>
      </trkpt>
      <trkpt lat="49.28446" lon="1.10427">
        <ele>58.7</ele>
        <time>2019-11-11T09:53:10Z</time>
      </trkpt>
      <trkpt lat="49.28446" lon="1.10427">
        <ele>57.8</ele>
        <time>2019-11-11T09:53:11Z</time>
      </trkpt>
      <trkpt lat="49.28448" lon="1.10428">
        <ele>57.8</ele>
        <time>2019-11-11T09:53:12Z</time>
      </trkpt>
      <trkpt lat="49.28449" lon="1.10429">
        <ele>57.8</ele>
        <time>2019-11-11T09:53:13Z</time>
      </trkpt>
      <trkpt lat="49.28452" lon="1.1043">
        <ele>57.8</ele>
        <time>2019-11-11T09:53:14Z</time>
      </trkpt>
      <trkpt lat="49.28455" lon="1.10431">
        <ele>57.8</ele>
        <time>2019-11-11T09:53:15Z</time>
      </trkpt>
      <trkpt lat="49.28459" lon="1.10432">
        <ele>57.8</ele>
        <time>2019-11-11T09:53:16Z</time>
      </trkpt>
      <trkpt lat="49.28461" lon="1.10435">
        <ele>57.8</ele>
        <time>2019-11-11T09:53:17Z</time>
      </trkpt>
      <trkpt lat="49.28462" lon="1.10439">
        <ele>57.8</ele>
        <time>2019-11-11T09:53:18Z</time>
      </trkpt>
      <trkpt lat="49.28462" lon="1.10444">
        <ele>57.8</ele>
        <time>2019-11-11T09:53:19Z</time>
      </trkpt>
      <trkpt lat="49.28462" lon="1.10448">
        <ele>57.8</ele>
        <time>2019-11-11T09:53:20Z</time>
      </trkpt>
      <trkpt lat="49.28462" lon="1.10451">
        <ele>57.8</ele>
        <time>2019-11-11T09:53:21Z</time>
      </trkpt>
      <trkpt lat="49.28464" lon="1.10453">
        <ele>57.8</ele>
        <time>2019-11-11T09:53:22Z</time>
      </trkpt>
      <trkpt lat="49.28466" lon="1.10454">
        <ele>57.8</ele>
        <time>2019-11-11T09:53:23Z</time>
      </trkpt>
      <trkpt lat="49.28468" lon="1.10455">
        <ele>57.8</ele>
        <time>2019-11-11T09:53:24Z</time>
      </trkpt>
      <trkpt lat="49.28469" lon="1.10457">
        <ele>57.8</ele>
        <time>2019-11-11T09:53:25Z</time>
      </trkpt>
      <trkpt lat="49.2847" lon="1.10461">
        <ele>57.8</ele>
        <time>2019-11-11T09:53:26Z</time>
      </trkpt>
      <trkpt lat="49.28471" lon="1.10466">
        <ele>56.7</ele>
        <time>2019-11-11T09:53:27Z</time>
      </trkpt>
      <trkpt lat="49.28472" lon="1.10471">
        <ele>56.7</ele>
        <time>2019-11-11T09:53:28Z</time>
      </trkpt>
      <trkpt lat="49.28473" lon="1.10474">
        <ele>56.7</ele>
        <time>2019-11-11T09:53:29Z</time>
      </trkpt>
      <trkpt lat="49.28475" lon="1.10477">
        <ele>56.7</ele>
        <time>2019-11-11T09:53:30Z</time>
      </trkpt>
      <trkpt lat="49.28477" lon="1.10479">
        <ele>56.7</ele>
        <time>2019-11-11T09:53:31Z</time>
      </trkpt>
      <trkpt lat="49.2848" lon="1.1048">
        <ele>56.7</ele>
        <time>2019-11-11T09:53:32Z</time>
      </trkpt>
      <trkpt lat="49.28483" lon="1.10481">
        <ele>56.7</ele>
        <time>2019-11-11T09:53:33Z</time>
      </trkpt>
      <trkpt lat="49.28485" lon="1.10485">
        <ele>56.7</ele>
        <time>2019-11-11T09:53:34Z</time>
      </trkpt>
      <trkpt lat="49.28485" lon="1.10489">
        <ele>56.7</ele>
        <time>2019-11-11T09:53:35Z</time>
      </trkpt>
      <trkpt lat="49.28486" lon="1.10494">
        <ele>56.7</ele>
        <time>2019-11-11T09:53:36Z</time>
      </trkpt>
      <trkpt lat="49.28486" lon="1.10499">
        <ele>56.7</ele>
        <time>2019-11-11T09:53:37Z</time>
      </trkpt>
      <trkpt lat="49.28487" lon="1.10504">
        <ele>56.7</ele>
        <time>2019-11-11T09:53:38Z</time>
      </trkpt>
      <trkpt lat="49.28488" lon="1.10507">
        <ele>56.7</ele>
        <time>2019-11-11T09:53:39Z</time>
      </trkpt>
      <trkpt lat="49.2849" lon="1.1051">
        <ele>56.7</ele>
        <time>2019-11-11T09:53:40Z</time>
      </trkpt>
      <trkpt lat="49.28492" lon="1.10511">
        <ele>56.7</ele>
        <time>2019-11-11T09:53:41Z</time>
      </trkpt>
      <trkpt lat="49.28495" lon="1.10512">
        <ele>56.7</ele>
        <time>2019-11-11T09:53:42Z</time>
      </trkpt>
      <trkpt lat="49.28496" lon="1.10514">
        <ele>56.7</ele>
        <time>2019-11-11T09:53:43Z</time>
      </trkpt>
      <trkpt lat="49.28497" lon="1.10517">
        <ele>56.7</ele>
        <time>2019-11-11T09:53:44Z</time>
      </trkpt>
      <trkpt lat="49.28497" lon="1.1052">
        <ele>56.7</ele>
        <time>2019-11-11T09:53:45Z</time>
      </trkpt>
      <trkpt lat="49.28498" lon="1.10522">
        <ele>56.7</ele>
        <time>2019-11-11T09:53:46Z</time>
      </trkpt>
      <trkpt lat="49.285" lon="1.10523">
        <ele>56.7</ele>
        <time>2019-11-11T09:53:47Z</time>
      </trkpt>
      <trkpt lat="49.28502" lon="1.10524">
        <ele>56.7</ele>
        <time>2019-11-11T09:53:48Z</time>
      </trkpt>
      <trkpt lat="49.28504" lon="1.10527">
        <ele>56.7</ele>
        <time>2019-11-11T09:53:49Z</time>
      </trkpt>
      <trkpt lat="49.28505" lon="1.10531">
        <ele>56.7</ele>
        <time>2019-11-11T09:53:50Z</time>
      </trkpt>
      <trkpt lat="49.28506" lon="1.10535">
        <ele>56.7</ele>
        <time>2019-11-11T09:53:51Z</time>
      </trkpt>
      <trkpt lat="49.28507" lon="1.10539">
        <ele>56.7</ele>
        <time>2019-11-11T09:53:52Z</time>
      </trkpt>
      <trkpt lat="49.28509" lon="1.10542">
        <ele>56.7</ele>
        <time>2019-11-11T09:53:53Z</time>
      </trkpt>
      <trkpt lat="49.28511" lon="1.10543">
        <ele>56.7</ele>
        <time>2019-11-11T09:53:54Z</time>
      </trkpt>
      <trkpt lat="49.28514" lon="1.10545">
        <ele>56.7</ele>
        <time>2019-11-11T09:53:55Z</time>
      </trkpt>
      <trkpt lat="49.28516" lon="1.10548">
        <ele>56.7</ele>
        <time>2019-11-11T09:53:56Z</time>
      </trkpt>
      <trkpt lat="49.28518" lon="1.10549">
        <ele>56.7</ele>
        <time>2019-11-11T09:53:57Z</time>
      </trkpt>
      <trkpt lat="49.28521" lon="1.10551">
        <ele>56.7</ele>
        <time>2019-11-11T09:53:58Z</time>
      </trkpt>
      <trkpt lat="49.28523" lon="1.10552">
        <ele>56.7</ele>
        <time>2019-11-11T09:53:59Z</time>
      </trkpt>
      <trkpt lat="49.28525" lon="1.10555">
        <ele>56.7</ele>
        <time>2019-11-11T09:54:00Z</time>
      </trkpt>
      <trkpt lat="49.28526" lon="1.1056">
        <ele>55.8</ele>
        <time>2019-11-11T09:54:01Z</time>
      </trkpt>
      <trkpt lat="49.28528" lon="1.10565">
        <ele>55.8</ele>
        <time>2019-11-11T09:54:02Z</time>
      </trkpt>
      <trkpt lat="49.28529" lon="1.10569">
        <ele>55.8</ele>
        <time>2019-11-11T09:54:03Z</time>
      </trkpt>
      <trkpt lat="49.28531" lon="1.10572">
        <ele>55.8</ele>
        <time>2019-11-11T09:54:04Z</time>
      </trkpt>
      <trkpt lat="49.28532" lon="1.10575">
        <ele>55.8</ele>
        <time>2019-11-11T09:54:05Z</time>
      </trkpt>
      <trkpt lat="49.28533" lon="1.10578">
        <ele>55.8</ele>
        <time>2019-11-11T09:54:06Z</time>
      </trkpt>
      <trkpt lat="49.28534" lon="1.10581">
        <ele>55.8</ele>
        <time>2019-11-11T09:54:07Z</time>
      </trkpt>
      <trkpt lat="49.28535" lon="1.10585">
        <ele>55.8</ele>
        <time>2019-11-11T09:54:08Z</time>
      </trkpt>
      <trkpt lat="49.28536" lon="1.10588">
        <ele>55.8</ele>
        <time>2019-11-11T09:54:09Z</time>
      </trkpt>
      <trkpt lat="49.28536" lon="1.10592">
        <ele>55.8</ele>
        <time>2019-11-11T09:54:10Z</time>
      </trkpt>
      <trkpt lat="49.28536" lon="1.10595">
        <ele>55.8</ele>
        <time>2019-11-11T09:54:11Z</time>
      </trkpt>
      <trkpt lat="49.28535" lon="1.10599">
        <ele>55.8</ele>
        <time>2019-11-11T09:54:12Z</time>
      </trkpt>
      <trkpt lat="49.28535" lon="1.10602">
        <ele>55.8</ele>
        <time>2019-11-11T09:54:13Z</time>
      </trkpt>
      <trkpt lat="49.28534" lon="1.10605">
        <ele>55.8</ele>
        <time>2019-11-11T09:54:14Z</time>
      </trkpt>
      <trkpt lat="49.28533" lon="1.10609">
        <ele>55.8</ele>
        <time>2019-11-11T09:54:15Z</time>
      </trkpt>
      <trkpt lat="49.28532" lon="1.10612">
        <ele>55.8</ele>
        <time>2019-11-11T09:54:16Z</time>
      </trkpt>
      <trkpt lat="49.28532" lon="1.10616">
        <ele>55.8</ele>
        <time>2019-11-11T09:54:17Z</time>
      </trkpt>
      <trkpt lat="49.28532" lon="1.10619">
        <ele>55.8</ele>
        <time>2019-11-11T09:54:18Z</time>
      </trkpt>
      <trkpt lat="49.28533" lon="1.10622">
        <ele>55.8</ele>
        <time>2019-11-11T09:54:19Z</time>
      </trkpt>
      <trkpt lat="49.28534" lon="1.10625">
        <ele>55.8</ele>
        <time>2019-11-11T09:54:20Z</time>
      </trkpt>
      <trkpt lat="49.28536" lon="1.10628">
        <ele>55.8</ele>
        <time>2019-11-11T09:54:21Z</time>
      </trkpt>
      <trkpt lat="49.28538" lon="1.1063">
        <ele>55.8</ele>
        <time>2019-11-11T09:54:22Z</time>
      </trkpt>
      <trkpt lat="49.28541" lon="1.10633">
        <ele>55.8</ele>
        <time>2019-11-11T09:54:23Z</time>
      </trkpt>
      <trkpt lat="49.28542" lon="1.10635">
        <ele>55.8</ele>
        <time>2019-11-11T09:54:24Z</time>
      </trkpt>
      <trkpt lat="49.28544" lon="1.10638">
        <ele>55.8</ele>
        <time>2019-11-11T09:54:25Z</time>
      </trkpt>
      <trkpt lat="49.28546" lon="1.10641">
        <ele>55.8</ele>
        <time>2019-11-11T09:54:26Z</time>
      </trkpt>
      <trkpt lat="49.28548" lon="1.10645">
        <ele>55.8</ele>
        <time>2019-11-11T09:54:27Z</time>
      </trkpt>
      <trkpt lat="49.2855" lon="1.10648">
        <ele>55.8</ele>
        <time>2019-11-11T09:54:28Z</time>
      </trkpt>
      <trkpt lat="49.28552" lon="1.10651">
        <ele>55.8</ele>
        <time>2019-11-11T09:54:29Z</time>
      </trkpt>
      <trkpt lat="49.28554" lon="1.10655">
        <ele>55.8</ele>
        <time>2019-11-11T09:54:30Z</time>
      </trkpt>
      <trkpt lat="49.28555" lon="1.10659">
        <ele>55.8</ele>
        <time>2019-11-11T09:54:31Z</time>
      </trkpt>
      <trkpt lat="49.28555" lon="1.10664">
        <ele>55.8</ele>
        <time>2019-11-11T09:54:32Z</time>
      </trkpt>
      <trkpt lat="49.28555" lon="1.10669">
        <ele>55.8</ele>
        <time>2019-11-11T09:54:33Z</time>
      </trkpt>
      <trkpt lat="49.28555" lon="1.10673">
        <ele>55.8</ele>
        <time>2019-11-11T09:54:34Z</time>
      </trkpt>
      <trkpt lat="49.28555" lon="1.10678">
        <ele>55.8</ele>
        <time>2019-11-11T09:54:35Z</time>
      </trkpt>
      <trkpt lat="49.28555" lon="1.10683">
        <ele>55.8</ele>
        <time>2019-11-11T09:54:36Z</time>
      </trkpt>
      <trkpt lat="49.28554" lon="1.10688">
        <ele>55.8</ele>
        <time>2019-11-11T09:54:37Z</time>
      </trkpt>
      <trkpt lat="49.28554" lon="1.10694">
        <ele>55.8</ele>
        <time>2019-11-11T09:54:38Z</time>
      </trkpt>
      <trkpt lat="49.28553" lon="1.10699">
        <ele>55.8</ele>
        <time>2019-11-11T09:54:39Z</time>
      </trkpt>
      <trkpt lat="49.28553" lon="1.10705">
        <ele>55.8</ele>
        <time>2019-11-11T09:54:40Z</time>
      </trkpt>
      <trkpt lat="49.28552" lon="1.10711">
        <ele>55.8</ele>
        <time>2019-11-11T09:54:41Z</time>
      </trkpt>
      <trkpt lat="49.28552" lon="1.10717">
        <ele>55.8</ele>
        <time>2019-11-11T09:54:42Z</time>
      </trkpt>
      <trkpt lat="49.28551" lon="1.10722">
        <ele>55.8</ele>
        <time>2019-11-11T09:54:43Z</time>
      </trkpt>
      <trkpt lat="49.28551" lon="1.10728">
        <ele>55.8</ele>
        <time>2019-11-11T09:54:44Z</time>
      </trkpt>
      <trkpt lat="49.28551" lon="1.10734">
        <ele>55.8</ele>
        <time>2019-11-11T09:54:45Z</time>
      </trkpt>
      <trkpt lat="49.2855" lon="1.1074">
        <ele>55.8</ele>
        <time>2019-11-11T09:54:46Z</time>
      </trkpt>
      <trkpt lat="49.28549" lon="1.10746">
        <ele>55.8</ele>
        <time>2019-11-11T09:54:47Z</time>
      </trkpt>
      <trkpt lat="49.28549" lon="1.10752">
        <ele>55.8</ele>
        <time>2019-11-11T09:54:48Z</time>
      </trkpt>
      <trkpt lat="49.28548" lon="1.10759">
        <ele>55.8</ele>
        <time>2019-11-11T09:54:49Z</time>
      </trkpt>
      <trkpt lat="49.28548" lon="1.10765">
        <ele>55.8</ele>
        <time>2019-11-11T09:54:50Z</time>
      </trkpt>
      <trkpt lat="49.28547" lon="1.10772">
        <ele>55.8</ele>
        <time>2019-11-11T09:54:51Z</time>
      </trkpt>
      <trkpt lat="49.28547" lon="1.10778">
        <ele>55.8</ele>
        <time>2019-11-11T09:54:52Z</time>
      </trkpt>
      <trkpt lat="49.28546" lon="1.10785">
        <ele>55.8</ele>
        <time>2019-11-11T09:54:53Z</time>
      </trkpt>
      <trkpt lat="49.28546" lon="1.10791">
        <ele>55.8</ele>
        <time>2019-11-11T09:54:54Z</time>
      </trkpt>
      <trkpt lat="49.28545" lon="1.10798">
        <ele>55.8</ele>
        <time>2019-11-11T09:54:55Z</time>
      </trkpt>
      <trkpt lat="49.28545" lon="1.10805">
        <ele>55.8</ele>
        <time>2019-11-11T09:54:56Z</time>
      </trkpt>
      <trkpt lat="49.28544" lon="1.10812">
        <ele>55.8</ele>
        <time>2019-11-11T09:54:57Z</time>
      </trkpt>
      <trkpt lat="49.28544" lon="1.10819">
        <ele>55.8</ele>
        <time>2019-11-11T09:54:58Z</time>
      </trkpt>
      <trkpt lat="49.28543" lon="1.10826">
        <ele>56.7</ele>
        <time>2019-11-11T09:54:59Z</time>
      </trkpt>
      <trkpt lat="49.28542" lon="1.10832">
        <ele>56.7</ele>
        <time>2019-11-11T09:55:00Z</time>
      </trkpt>
      <trkpt lat="49.28542" lon="1.10839">
        <ele>56.7</ele>
        <time>2019-11-11T09:55:01Z</time>
      </trkpt>
      <trkpt lat="49.28541" lon="1.10846">
        <ele>56.7</ele>
        <time>2019-11-11T09:55:02Z</time>
      </trkpt>
      <trkpt lat="49.28541" lon="1.10852">
        <ele>56.7</ele>
        <time>2019-11-11T09:55:03Z</time>
      </trkpt>
      <trkpt lat="49.2854" lon="1.10859">
        <ele>56.7</ele>
        <time>2019-11-11T09:55:04Z</time>
      </trkpt>
      <trkpt lat="49.2854" lon="1.10866">
        <ele>56.7</ele>
        <time>2019-11-11T09:55:05Z</time>
      </trkpt>
      <trkpt lat="49.28539" lon="1.10872">
        <ele>56.7</ele>
        <time>2019-11-11T09:55:06Z</time>
      </trkpt>
      <trkpt lat="49.28538" lon="1.10878">
        <ele>56.7</ele>
        <time>2019-11-11T09:55:07Z</time>
      </trkpt>
      <trkpt lat="49.28538" lon="1.10885">
        <ele>56.7</ele>
        <time>2019-11-11T09:55:08Z</time>
      </trkpt>
      <trkpt lat="49.28537" lon="1.10891">
        <ele>56.7</ele>
        <time>2019-11-11T09:55:09Z</time>
      </trkpt>
      <trkpt lat="49.28536" lon="1.10897">
        <ele>56.7</ele>
        <time>2019-11-11T09:55:10Z</time>
      </trkpt>
      <trkpt lat="49.28536" lon="1.10903">
        <ele>56.7</ele>
        <time>2019-11-11T09:55:11Z</time>
      </trkpt>
      <trkpt lat="49.28535" lon="1.1091">
        <ele>56.7</ele>
        <time>2019-11-11T09:55:12Z</time>
      </trkpt>
      <trkpt lat="49.28535" lon="1.10916">
        <ele>56.7</ele>
        <time>2019-11-11T09:55:13Z</time>
      </trkpt>
      <trkpt lat="49.28534" lon="1.10922">
        <ele>56.7</ele>
        <time>2019-11-11T09:55:14Z</time>
      </trkpt>
      <trkpt lat="49.28533" lon="1.10929">
        <ele>56.7</ele>
        <time>2019-11-11T09:55:15Z</time>
      </trkpt>
      <trkpt lat="49.28533" lon="1.10935">
        <ele>56.7</ele>
        <time>2019-11-11T09:55:16Z</time>
      </trkpt>
      <trkpt lat="49.28532" lon="1.10941">
        <ele>56.7</ele>
        <time>2019-11-11T09:55:17Z</time>
      </trkpt>
      <trkpt lat="49.28532" lon="1.10948">
        <ele>56.7</ele>
        <time>2019-11-11T09:55:18Z</time>
      </trkpt>
      <trkpt lat="49.28531" lon="1.10954">
        <ele>57.8</ele>
        <time>2019-11-11T09:55:19Z</time>
      </trkpt>
      <trkpt lat="49.28531" lon="1.10961">
        <ele>57.8</ele>
        <time>2019-11-11T09:55:20Z</time>
      </trkpt>
      <trkpt lat="49.2853" lon="1.10967">
        <ele>57.8</ele>
        <time>2019-11-11T09:55:21Z</time>
      </trkpt>
      <trkpt lat="49.2853" lon="1.10974">
        <ele>57.8</ele>
        <time>2019-11-11T09:55:22Z</time>
      </trkpt>
      <trkpt lat="49.28529" lon="1.1098">
        <ele>57.8</ele>
        <time>2019-11-11T09:55:23Z</time>
      </trkpt>
      <trkpt lat="49.28529" lon="1.10985">
        <ele>57.8</ele>
        <time>2019-11-11T09:55:24Z</time>
      </trkpt>
      <trkpt lat="49.28529" lon="1.1099">
        <ele>57.8</ele>
        <time>2019-11-11T09:55:25Z</time>
      </trkpt>
      <trkpt lat="49.28528" lon="1.10996">
        <ele>57.8</ele>
        <time>2019-11-11T09:55:26Z</time>
      </trkpt>
      <trkpt lat="49.28528" lon="1.11002">
        <ele>57.8</ele>
        <time>2019-11-11T09:55:27Z</time>
      </trkpt>
      <trkpt lat="49.28527" lon="1.11009">
        <ele>57.8</ele>
        <time>2019-11-11T09:55:28Z</time>
      </trkpt>
      <trkpt lat="49.28527" lon="1.11016">
        <ele>57.8</ele>
        <time>2019-11-11T09:55:29Z</time>
      </trkpt>
      <trkpt lat="49.28526" lon="1.11022">
        <ele>57.8</ele>
        <time>2019-11-11T09:55:30Z</time>
      </trkpt>
      <trkpt lat="49.28526" lon="1.11028">
        <ele>57.8</ele>
        <time>2019-11-11T09:55:31Z</time>
      </trkpt>
      <trkpt lat="49.28525" lon="1.11034">
        <ele>57.8</ele>
        <time>2019-11-11T09:55:32Z</time>
      </trkpt>
      <trkpt lat="49.28525" lon="1.11041">
        <ele>57.8</ele>
        <time>2019-11-11T09:55:33Z</time>
      </trkpt>
      <trkpt lat="49.28524" lon="1.11047">
        <ele>57.8</ele>
        <time>2019-11-11T09:55:34Z</time>
      </trkpt>
      <trkpt lat="49.28524" lon="1.11053">
        <ele>57.8</ele>
        <time>2019-11-11T09:55:35Z</time>
      </trkpt>
      <trkpt lat="49.28523" lon="1.11059">
        <ele>57.8</ele>
        <time>2019-11-11T09:55:36Z</time>
      </trkpt>
      <trkpt lat="49.28523" lon="1.11064">
        <ele>58.7</ele>
        <time>2019-11-11T09:55:37Z</time>
      </trkpt>
      <trkpt lat="49.28522" lon="1.11069">
        <ele>58.7</ele>
        <time>2019-11-11T09:55:38Z</time>
      </trkpt>
      <trkpt lat="49.28522" lon="1.11074">
        <ele>58.7</ele>
        <time>2019-11-11T09:55:39Z</time>
      </trkpt>
      <trkpt lat="49.28521" lon="1.11079">
        <ele>58.7</ele>
        <time>2019-11-11T09:55:40Z</time>
      </trkpt>
      <trkpt lat="49.28522" lon="1.11084">
        <ele>58.7</ele>
        <time>2019-11-11T09:55:41Z</time>
      </trkpt>
      <trkpt lat="49.28524" lon="1.11089">
        <ele>58.7</ele>
        <time>2019-11-11T09:55:42Z</time>
      </trkpt>
      <trkpt lat="49.28526" lon="1.11093">
        <ele>58.7</ele>
        <time>2019-11-11T09:55:43Z</time>
      </trkpt>
      <trkpt lat="49.28528" lon="1.11097">
        <ele>58.7</ele>
        <time>2019-11-11T09:55:44Z</time>
      </trkpt>
      <trkpt lat="49.2853" lon="1.11101">
        <ele>58.7</ele>
        <time>2019-11-11T09:55:45Z</time>
      </trkpt>
      <trkpt lat="49.28534" lon="1.11106">
        <ele>58.7</ele>
        <time>2019-11-11T09:55:46Z</time>
      </trkpt>
      <trkpt lat="49.28536" lon="1.11111">
        <ele>57.8</ele>
        <time>2019-11-11T09:55:47Z</time>
      </trkpt>
      <trkpt lat="49.2854" lon="1.11116">
        <ele>57.8</ele>
        <time>2019-11-11T09:55:48Z</time>
      </trkpt>
      <trkpt lat="49.28545" lon="1.11122">
        <ele>57.8</ele>
        <time>2019-11-11T09:55:49Z</time>
      </trkpt>
      <trkpt lat="49.28549" lon="1.11128">
        <ele>57.8</ele>
        <time>2019-11-11T09:55:50Z</time>
      </trkpt>
      <trkpt lat="49.28553" lon="1.11133">
        <ele>56.7</ele>
        <time>2019-11-11T09:55:51Z</time>
      </trkpt>
      <trkpt lat="49.28558" lon="1.11138">
        <ele>56.7</ele>
        <time>2019-11-11T09:55:52Z</time>
      </trkpt>
      <trkpt lat="49.28562" lon="1.11144">
        <ele>56.7</ele>
        <time>2019-11-11T09:55:53Z</time>
      </trkpt>
      <trkpt lat="49.28566" lon="1.11149">
        <ele>56.7</ele>
        <time>2019-11-11T09:55:54Z</time>
      </trkpt>
      <trkpt lat="49.28571" lon="1.11155">
        <ele>56.7</ele>
        <time>2019-11-11T09:55:55Z</time>
      </trkpt>
      <trkpt lat="49.28576" lon="1.11161">
        <ele>56.7</ele>
        <time>2019-11-11T09:55:56Z</time>
      </trkpt>
      <trkpt lat="49.2858" lon="1.11168">
        <ele>55.8</ele>
        <time>2019-11-11T09:55:57Z</time>
      </trkpt>
      <trkpt lat="49.28584" lon="1.11173">
        <ele>55.8</ele>
        <time>2019-11-11T09:55:58Z</time>
      </trkpt>
      <trkpt lat="49.28588" lon="1.11178">
        <ele>55.8</ele>
        <time>2019-11-11T09:55:59Z</time>
      </trkpt>
      <trkpt lat="49.28592" lon="1.11183">
        <ele>55.8</ele>
        <time>2019-11-11T09:56:00Z</time>
      </trkpt>
      <trkpt lat="49.28596" lon="1.11188">
        <ele>55.8</ele>
        <time>2019-11-11T09:56:01Z</time>
      </trkpt>
      <trkpt lat="49.28601" lon="1.11194">
        <ele>55.8</ele>
        <time>2019-11-11T09:56:02Z</time>
      </trkpt>
      <trkpt lat="49.28605" lon="1.112">
        <ele>54.7</ele>
        <time>2019-11-11T09:56:03Z</time>
      </trkpt>
      <trkpt lat="49.28609" lon="1.11205">
        <ele>54.7</ele>
        <time>2019-11-11T09:56:04Z</time>
      </trkpt>
      <trkpt lat="49.28614" lon="1.11212">
        <ele>54.7</ele>
        <time>2019-11-11T09:56:05Z</time>
      </trkpt>
      <trkpt lat="49.28619" lon="1.11218">
        <ele>54.7</ele>
        <time>2019-11-11T09:56:06Z</time>
      </trkpt>
      <trkpt lat="49.28624" lon="1.11224">
        <ele>53.8</ele>
        <time>2019-11-11T09:56:07Z</time>
      </trkpt>
      <trkpt lat="49.28628" lon="1.11228">
        <ele>53.8</ele>
        <time>2019-11-11T09:56:08Z</time>
      </trkpt>
      <trkpt lat="49.28633" lon="1.11234">
        <ele>53.8</ele>
        <time>2019-11-11T09:56:09Z</time>
      </trkpt>
      <trkpt lat="49.28638" lon="1.1124">
        <ele>53.8</ele>
        <time>2019-11-11T09:56:10Z</time>
      </trkpt>
      <trkpt lat="49.28641" lon="1.11246">
        <ele>52.7</ele>
        <time>2019-11-11T09:56:11Z</time>
      </trkpt>
      <trkpt lat="49.28644" lon="1.1125">
        <ele>52.7</ele>
        <time>2019-11-11T09:56:12Z</time>
      </trkpt>
      <trkpt lat="49.28649" lon="1.11255">
        <ele>52.7</ele>
        <time>2019-11-11T09:56:13Z</time>
      </trkpt>
      <trkpt lat="49.28653" lon="1.11261">
        <ele>52.7</ele>
        <time>2019-11-11T09:56:14Z</time>
      </trkpt>
      <trkpt lat="49.28657" lon="1.11266">
        <ele>52.7</ele>
        <time>2019-11-11T09:56:15Z</time>
      </trkpt>
      <trkpt lat="49.28662" lon="1.11272">
        <ele>52.7</ele>
        <time>2019-11-11T09:56:16Z</time>
      </trkpt>
      <trkpt lat="49.28666" lon="1.11278">
        <ele>52.7</ele>
        <time>2019-11-11T09:56:17Z</time>
      </trkpt>
      <trkpt lat="49.28671" lon="1.11284">
        <ele>52.7</ele>
        <time>2019-11-11T09:56:18Z</time>
      </trkpt>
      <trkpt lat="49.28676" lon="1.1129">
        <ele>52.7</ele>
        <time>2019-11-11T09:56:19Z</time>
      </trkpt>
      <trkpt lat="49.2868" lon="1.11296">
        <ele>52.7</ele>
        <time>2019-11-11T09:56:20Z</time>
      </trkpt>
      <trkpt lat="49.28685" lon="1.11301">
        <ele>52.7</ele>
        <time>2019-11-11T09:56:21Z</time>
      </trkpt>
      <trkpt lat="49.2869" lon="1.11306">
        <ele>52.7</ele>
        <time>2019-11-11T09:56:22Z</time>
      </trkpt>
      <trkpt lat="49.28694" lon="1.11312">
        <ele>52.7</ele>
        <time>2019-11-11T09:56:23Z</time>
      </trkpt>
      <trkpt lat="49.28699" lon="1.11316">
        <ele>52.7</ele>
        <time>2019-11-11T09:56:24Z</time>
      </trkpt>
      <trkpt lat="49.28703" lon="1.11321">
        <ele>52.7</ele>
        <time>2019-11-11T09:56:25Z</time>
      </trkpt>
      <trkpt lat="49.28708" lon="1.11327">
        <ele>52.7</ele>
        <time>2019-11-11T09:56:26Z</time>
      </trkpt>
      <trkpt lat="49.28712" lon="1.11334">
        <ele>50.8</ele>
        <time>2019-11-11T09:56:27Z</time>
      </trkpt>
      <trkpt lat="49.28716" lon="1.1134">
        <ele>50.8</ele>
        <time>2019-11-11T09:56:28Z</time>
      </trkpt>
      <trkpt lat="49.2872" lon="1.11343">
        <ele>49.7</ele>
        <time>2019-11-11T09:56:29Z</time>
      </trkpt>
      <trkpt lat="49.28723" lon="1.11345">
        <ele>49.7</ele>
        <time>2019-11-11T09:56:30Z</time>
      </trkpt>
      <trkpt lat="49.28726" lon="1.11345">
        <ele>48.8</ele>
        <time>2019-11-11T09:56:31Z</time>
      </trkpt>
      <trkpt lat="49.28734" lon="1.1137">
        <ele>59.8</ele>
      </trkpt>
      <trkpt lat="49.28842" lon="1.11468">
        <ele>52.1</ele>
      </trkpt>
    </trkseg>
  </trk>
</gpx>